<?xml version="1.0" encoding="UTF-8" standalone="no" ?>
<gpx xmlns="http://www.topografix.com/GPX/1/1" xmlns:xsi="http://www.w3.org/2001/XMLSchema-instance" xsi:schemaLocation="http://www.topografix.com/GPX/1/1 http://www.topografix.com/GPX/1/1/gpx.xsd" version="1.1" creator="VisuGPX - https://www.visugpx.com">
  <metadata>
    <name>rando perigueux 6 km</name>
    <desc><![CDATA[les photos de la rando sont dispo en suivant le lien [url]https://rando-pedestre-33.over-blog.com/2021/10/rando-perigueux-6-km.html
[/url]]]></desc>
  </metadata>
  <trk>
    <name><![CDATA[rando perigueux 6 km]]></name>
    <trkseg>
      <trkpt lat="45.18406" lon="0.72278">
        <ele>104.3</ele>
        <time>2021-10-24T11:02:34Z</time>
      </trkpt>
      <trkpt lat="45.18414" lon="0.72265">
        <ele>105.3</ele>
        <time>2021-10-24T11:02:41Z</time>
      </trkpt>
      <trkpt lat="45.18415" lon="0.72259">
        <ele>105.4</ele>
        <time>2021-10-24T11:02:43Z</time>
      </trkpt>
      <trkpt lat="45.18415" lon="0.72258">
        <ele>105.4</ele>
        <time>2021-10-24T11:02:45Z</time>
      </trkpt>
      <trkpt lat="45.18414" lon="0.72265">
        <ele>105.5</ele>
        <time>2021-10-24T11:02:47Z</time>
      </trkpt>
      <trkpt lat="45.18414" lon="0.72264">
        <ele>105.5</ele>
        <time>2021-10-24T11:02:48Z</time>
      </trkpt>
      <trkpt lat="45.18416" lon="0.7226">
        <ele>105.6</ele>
        <time>2021-10-24T11:02:50Z</time>
      </trkpt>
      <trkpt lat="45.18417" lon="0.72258">
        <ele>105.6</ele>
        <time>2021-10-24T11:02:51Z</time>
      </trkpt>
      <trkpt lat="45.18419" lon="0.72256">
        <ele>105.6</ele>
        <time>2021-10-24T11:02:53Z</time>
      </trkpt>
      <trkpt lat="45.1842" lon="0.72256">
        <ele>105.6</ele>
        <time>2021-10-24T11:02:54Z</time>
      </trkpt>
      <trkpt lat="45.1842" lon="0.72255">
        <ele>105.7</ele>
        <time>2021-10-24T11:02:55Z</time>
      </trkpt>
      <trkpt lat="45.1842" lon="0.72255">
        <ele>105.7</ele>
        <time>2021-10-24T11:02:57Z</time>
      </trkpt>
      <trkpt lat="45.1842" lon="0.72255">
        <ele>105.7</ele>
        <time>2021-10-24T11:02:59Z</time>
      </trkpt>
      <trkpt lat="45.18419" lon="0.72255">
        <ele>105.7</ele>
        <time>2021-10-24T11:03:01Z</time>
      </trkpt>
      <trkpt lat="45.1842" lon="0.72255">
        <ele>105.7</ele>
        <time>2021-10-24T11:03:03Z</time>
      </trkpt>
      <trkpt lat="45.18421" lon="0.72256">
        <ele>105.7</ele>
        <time>2021-10-24T11:03:05Z</time>
      </trkpt>
      <trkpt lat="45.18421" lon="0.72257">
        <ele>105.7</ele>
        <time>2021-10-24T11:03:06Z</time>
      </trkpt>
      <trkpt lat="45.18421" lon="0.72259">
        <ele>105.7</ele>
        <time>2021-10-24T11:03:08Z</time>
      </trkpt>
      <trkpt lat="45.18422" lon="0.72259">
        <ele>105.7</ele>
        <time>2021-10-24T11:03:09Z</time>
      </trkpt>
      <trkpt lat="45.18422" lon="0.7226">
        <ele>105.8</ele>
        <time>2021-10-24T11:03:10Z</time>
      </trkpt>
      <trkpt lat="45.18423" lon="0.7226">
        <ele>105.8</ele>
        <time>2021-10-24T11:03:11Z</time>
      </trkpt>
      <trkpt lat="45.18423" lon="0.7226">
        <ele>105.8</ele>
        <time>2021-10-24T11:03:13Z</time>
      </trkpt>
      <trkpt lat="45.18423" lon="0.72261">
        <ele>105.8</ele>
        <time>2021-10-24T11:03:14Z</time>
      </trkpt>
      <trkpt lat="45.18423" lon="0.72262">
        <ele>105.8</ele>
        <time>2021-10-24T11:03:15Z</time>
      </trkpt>
      <trkpt lat="45.18422" lon="0.72262">
        <ele>105.8</ele>
        <time>2021-10-24T11:03:17Z</time>
      </trkpt>
      <trkpt lat="45.1842" lon="0.72261">
        <ele>105.9</ele>
        <time>2021-10-24T11:03:19Z</time>
      </trkpt>
      <trkpt lat="45.1842" lon="0.7226">
        <ele>105.9</ele>
        <time>2021-10-24T11:03:21Z</time>
      </trkpt>
      <trkpt lat="45.1842" lon="0.7226">
        <ele>105.9</ele>
        <time>2021-10-24T11:03:22Z</time>
      </trkpt>
      <trkpt lat="45.1842" lon="0.7226">
        <ele>105.9</ele>
        <time>2021-10-24T11:03:23Z</time>
      </trkpt>
      <trkpt lat="45.18419" lon="0.7226">
        <ele>105.9</ele>
        <time>2021-10-24T11:03:24Z</time>
      </trkpt>
      <trkpt lat="45.18419" lon="0.7226">
        <ele>105.9</ele>
        <time>2021-10-24T11:03:25Z</time>
      </trkpt>
      <trkpt lat="45.1842" lon="0.7226">
        <ele>105.9</ele>
        <time>2021-10-24T11:03:27Z</time>
      </trkpt>
      <trkpt lat="45.1842" lon="0.7226">
        <ele>105.9</ele>
        <time>2021-10-24T11:03:28Z</time>
      </trkpt>
      <trkpt lat="45.1842" lon="0.7226">
        <ele>105.9</ele>
        <time>2021-10-24T11:03:29Z</time>
      </trkpt>
      <trkpt lat="45.18419" lon="0.7226">
        <ele>105.9</ele>
        <time>2021-10-24T11:03:30Z</time>
      </trkpt>
      <trkpt lat="45.18419" lon="0.7226">
        <ele>105.9</ele>
        <time>2021-10-24T11:03:31Z</time>
      </trkpt>
      <trkpt lat="45.18418" lon="0.7226">
        <ele>105.9</ele>
        <time>2021-10-24T11:03:33Z</time>
      </trkpt>
      <trkpt lat="45.18418" lon="0.72259">
        <ele>105.9</ele>
        <time>2021-10-24T11:03:34Z</time>
      </trkpt>
      <trkpt lat="45.18418" lon="0.72259">
        <ele>105.9</ele>
        <time>2021-10-24T11:03:35Z</time>
      </trkpt>
      <trkpt lat="45.18418" lon="0.72258">
        <ele>105.9</ele>
        <time>2021-10-24T11:03:36Z</time>
      </trkpt>
      <trkpt lat="45.18418" lon="0.72257">
        <ele>106</ele>
        <time>2021-10-24T11:03:37Z</time>
      </trkpt>
      <trkpt lat="45.18418" lon="0.72256">
        <ele>106</ele>
        <time>2021-10-24T11:03:38Z</time>
      </trkpt>
      <trkpt lat="45.18418" lon="0.72255">
        <ele>106</ele>
        <time>2021-10-24T11:03:39Z</time>
      </trkpt>
      <trkpt lat="45.18417" lon="0.72253">
        <ele>106</ele>
        <time>2021-10-24T11:03:41Z</time>
      </trkpt>
      <trkpt lat="45.18418" lon="0.72251">
        <ele>106</ele>
        <time>2021-10-24T11:03:42Z</time>
      </trkpt>
      <trkpt lat="45.18419" lon="0.72248">
        <ele>106.1</ele>
        <time>2021-10-24T11:03:43Z</time>
      </trkpt>
      <trkpt lat="45.18419" lon="0.72247">
        <ele>106.1</ele>
        <time>2021-10-24T11:03:44Z</time>
      </trkpt>
      <trkpt lat="45.1842" lon="0.72246">
        <ele>106.1</ele>
        <time>2021-10-24T11:03:45Z</time>
      </trkpt>
      <trkpt lat="45.1842" lon="0.72244">
        <ele>106.2</ele>
        <time>2021-10-24T11:03:47Z</time>
      </trkpt>
      <trkpt lat="45.1842" lon="0.72242">
        <ele>106.2</ele>
        <time>2021-10-24T11:03:48Z</time>
      </trkpt>
      <trkpt lat="45.1842" lon="0.7224">
        <ele>106.3</ele>
        <time>2021-10-24T11:03:49Z</time>
      </trkpt>
      <trkpt lat="45.18419" lon="0.72239">
        <ele>106.4</ele>
        <time>2021-10-24T11:03:51Z</time>
      </trkpt>
      <trkpt lat="45.18419" lon="0.72237">
        <ele>106.4</ele>
        <time>2021-10-24T11:03:52Z</time>
      </trkpt>
      <trkpt lat="45.18419" lon="0.72236">
        <ele>106.4</ele>
        <time>2021-10-24T11:03:53Z</time>
      </trkpt>
      <trkpt lat="45.1842" lon="0.72234">
        <ele>106.5</ele>
        <time>2021-10-24T11:03:54Z</time>
      </trkpt>
      <trkpt lat="45.1842" lon="0.72234">
        <ele>106.5</ele>
        <time>2021-10-24T11:03:55Z</time>
      </trkpt>
      <trkpt lat="45.18421" lon="0.72232">
        <ele>106.6</ele>
        <time>2021-10-24T11:03:56Z</time>
      </trkpt>
      <trkpt lat="45.18421" lon="0.72231">
        <ele>106.6</ele>
        <time>2021-10-24T11:03:57Z</time>
      </trkpt>
      <trkpt lat="45.18422" lon="0.7223">
        <ele>106.6</ele>
        <time>2021-10-24T11:03:59Z</time>
      </trkpt>
      <trkpt lat="45.18422" lon="0.72229">
        <ele>106.7</ele>
        <time>2021-10-24T11:04:00Z</time>
      </trkpt>
      <trkpt lat="45.18423" lon="0.72226">
        <ele>106.8</ele>
        <time>2021-10-24T11:04:01Z</time>
      </trkpt>
      <trkpt lat="45.18423" lon="0.72225">
        <ele>106.8</ele>
        <time>2021-10-24T11:04:02Z</time>
      </trkpt>
      <trkpt lat="45.18423" lon="0.72224">
        <ele>106.8</ele>
        <time>2021-10-24T11:04:03Z</time>
      </trkpt>
      <trkpt lat="45.18423" lon="0.72222">
        <ele>106.9</ele>
        <time>2021-10-24T11:04:04Z</time>
      </trkpt>
      <trkpt lat="45.18423" lon="0.72219">
        <ele>107</ele>
        <time>2021-10-24T11:04:05Z</time>
      </trkpt>
      <trkpt lat="45.18423" lon="0.72217">
        <ele>107</ele>
        <time>2021-10-24T11:04:06Z</time>
      </trkpt>
      <trkpt lat="45.18423" lon="0.72215">
        <ele>107.1</ele>
        <time>2021-10-24T11:04:08Z</time>
      </trkpt>
      <trkpt lat="45.18423" lon="0.72213">
        <ele>107.2</ele>
        <time>2021-10-24T11:04:09Z</time>
      </trkpt>
      <trkpt lat="45.18422" lon="0.7221">
        <ele>107.3</ele>
        <time>2021-10-24T11:04:10Z</time>
      </trkpt>
      <trkpt lat="45.18422" lon="0.72208">
        <ele>107.3</ele>
        <time>2021-10-24T11:04:11Z</time>
      </trkpt>
      <trkpt lat="45.18421" lon="0.72206">
        <ele>107.4</ele>
        <time>2021-10-24T11:04:12Z</time>
      </trkpt>
      <trkpt lat="45.18421" lon="0.72205">
        <ele>107.4</ele>
        <time>2021-10-24T11:04:13Z</time>
      </trkpt>
      <trkpt lat="45.18421" lon="0.72202">
        <ele>107.5</ele>
        <time>2021-10-24T11:04:15Z</time>
      </trkpt>
      <trkpt lat="45.1842" lon="0.72201">
        <ele>107.6</ele>
        <time>2021-10-24T11:04:16Z</time>
      </trkpt>
      <trkpt lat="45.1842" lon="0.722">
        <ele>107.6</ele>
        <time>2021-10-24T11:04:17Z</time>
      </trkpt>
      <trkpt lat="45.1842" lon="0.72198">
        <ele>107.7</ele>
        <time>2021-10-24T11:04:19Z</time>
      </trkpt>
      <trkpt lat="45.1842" lon="0.72197">
        <ele>107.7</ele>
        <time>2021-10-24T11:04:20Z</time>
      </trkpt>
      <trkpt lat="45.1842" lon="0.72196">
        <ele>107.7</ele>
        <time>2021-10-24T11:04:21Z</time>
      </trkpt>
      <trkpt lat="45.1842" lon="0.72195">
        <ele>107.8</ele>
        <time>2021-10-24T11:04:23Z</time>
      </trkpt>
      <trkpt lat="45.1842" lon="0.72193">
        <ele>107.8</ele>
        <time>2021-10-24T11:04:24Z</time>
      </trkpt>
      <trkpt lat="45.1842" lon="0.72193">
        <ele>107.8</ele>
        <time>2021-10-24T11:04:26Z</time>
      </trkpt>
      <trkpt lat="45.1842" lon="0.72192">
        <ele>107.9</ele>
        <time>2021-10-24T11:04:27Z</time>
      </trkpt>
      <trkpt lat="45.1842" lon="0.7219">
        <ele>107.9</ele>
        <time>2021-10-24T11:04:28Z</time>
      </trkpt>
      <trkpt lat="45.1842" lon="0.72189">
        <ele>107.9</ele>
        <time>2021-10-24T11:04:29Z</time>
      </trkpt>
      <trkpt lat="45.18421" lon="0.72188">
        <ele>108</ele>
        <time>2021-10-24T11:04:31Z</time>
      </trkpt>
      <trkpt lat="45.18421" lon="0.72188">
        <ele>108</ele>
        <time>2021-10-24T11:04:32Z</time>
      </trkpt>
      <trkpt lat="45.18421" lon="0.72187">
        <ele>108</ele>
        <time>2021-10-24T11:04:34Z</time>
      </trkpt>
      <trkpt lat="45.18421" lon="0.72186">
        <ele>108</ele>
        <time>2021-10-24T11:04:35Z</time>
      </trkpt>
      <trkpt lat="45.18421" lon="0.72186">
        <ele>108</ele>
        <time>2021-10-24T11:04:37Z</time>
      </trkpt>
      <trkpt lat="45.18421" lon="0.72185">
        <ele>108</ele>
        <time>2021-10-24T11:04:38Z</time>
      </trkpt>
      <trkpt lat="45.1842" lon="0.72185">
        <ele>108.1</ele>
        <time>2021-10-24T11:04:39Z</time>
      </trkpt>
      <trkpt lat="45.18419" lon="0.72184">
        <ele>108.1</ele>
        <time>2021-10-24T11:04:40Z</time>
      </trkpt>
      <trkpt lat="45.18419" lon="0.72184">
        <ele>108.1</ele>
        <time>2021-10-24T11:04:41Z</time>
      </trkpt>
      <trkpt lat="45.18417" lon="0.72183">
        <ele>108.1</ele>
        <time>2021-10-24T11:04:43Z</time>
      </trkpt>
      <trkpt lat="45.18416" lon="0.72182">
        <ele>108.2</ele>
        <time>2021-10-24T11:04:44Z</time>
      </trkpt>
      <trkpt lat="45.18414" lon="0.72181">
        <ele>108.2</ele>
        <time>2021-10-24T11:04:45Z</time>
      </trkpt>
      <trkpt lat="45.18413" lon="0.7218">
        <ele>108.5</ele>
        <time>2021-10-24T11:04:46Z</time>
      </trkpt>
      <trkpt lat="45.1841" lon="0.72179">
        <ele>108.5</ele>
        <time>2021-10-24T11:04:47Z</time>
      </trkpt>
      <trkpt lat="45.18409" lon="0.72178">
        <ele>108.5</ele>
        <time>2021-10-24T11:04:48Z</time>
      </trkpt>
      <trkpt lat="45.18407" lon="0.72177">
        <ele>108.6</ele>
        <time>2021-10-24T11:04:50Z</time>
      </trkpt>
      <trkpt lat="45.18405" lon="0.72177">
        <ele>108.6</ele>
        <time>2021-10-24T11:04:51Z</time>
      </trkpt>
      <trkpt lat="45.18403" lon="0.72177">
        <ele>108.6</ele>
        <time>2021-10-24T11:04:52Z</time>
      </trkpt>
      <trkpt lat="45.184" lon="0.72177">
        <ele>108.6</ele>
        <time>2021-10-24T11:04:53Z</time>
      </trkpt>
      <trkpt lat="45.18399" lon="0.72177">
        <ele>108.6</ele>
        <time>2021-10-24T11:04:54Z</time>
      </trkpt>
      <trkpt lat="45.18396" lon="0.72179">
        <ele>108.6</ele>
        <time>2021-10-24T11:04:55Z</time>
      </trkpt>
      <trkpt lat="45.18396" lon="0.7218">
        <ele>108.6</ele>
        <time>2021-10-24T11:04:56Z</time>
      </trkpt>
      <trkpt lat="45.18393" lon="0.72182">
        <ele>108.7</ele>
        <time>2021-10-24T11:04:57Z</time>
      </trkpt>
      <trkpt lat="45.18392" lon="0.72183">
        <ele>108.7</ele>
        <time>2021-10-24T11:04:59Z</time>
      </trkpt>
      <trkpt lat="45.18389" lon="0.72186">
        <ele>108.7</ele>
        <time>2021-10-24T11:05:00Z</time>
      </trkpt>
      <trkpt lat="45.18388" lon="0.72187">
        <ele>108.7</ele>
        <time>2021-10-24T11:05:01Z</time>
      </trkpt>
      <trkpt lat="45.18385" lon="0.72189">
        <ele>108.7</ele>
        <time>2021-10-24T11:05:03Z</time>
      </trkpt>
      <trkpt lat="45.18385" lon="0.7219">
        <ele>108.7</ele>
        <time>2021-10-24T11:05:04Z</time>
      </trkpt>
      <trkpt lat="45.18383" lon="0.72191">
        <ele>108.7</ele>
        <time>2021-10-24T11:05:05Z</time>
      </trkpt>
      <trkpt lat="45.18382" lon="0.72192">
        <ele>108.8</ele>
        <time>2021-10-24T11:05:06Z</time>
      </trkpt>
      <trkpt lat="45.1838" lon="0.72193">
        <ele>108.8</ele>
        <time>2021-10-24T11:05:07Z</time>
      </trkpt>
      <trkpt lat="45.18379" lon="0.72193">
        <ele>108.8</ele>
        <time>2021-10-24T11:05:08Z</time>
      </trkpt>
      <trkpt lat="45.18377" lon="0.72193">
        <ele>108.8</ele>
        <time>2021-10-24T11:05:09Z</time>
      </trkpt>
      <trkpt lat="45.18376" lon="0.72194">
        <ele>108.8</ele>
        <time>2021-10-24T11:05:11Z</time>
      </trkpt>
      <trkpt lat="45.18375" lon="0.72194">
        <ele>108.8</ele>
        <time>2021-10-24T11:05:12Z</time>
      </trkpt>
      <trkpt lat="45.18374" lon="0.72195">
        <ele>108.8</ele>
        <time>2021-10-24T11:05:13Z</time>
      </trkpt>
      <trkpt lat="45.18373" lon="0.72195">
        <ele>108.8</ele>
        <time>2021-10-24T11:05:14Z</time>
      </trkpt>
      <trkpt lat="45.18372" lon="0.72196">
        <ele>108.8</ele>
        <time>2021-10-24T11:05:16Z</time>
      </trkpt>
      <trkpt lat="45.18372" lon="0.72197">
        <ele>108.8</ele>
        <time>2021-10-24T11:05:17Z</time>
      </trkpt>
      <trkpt lat="45.18371" lon="0.72197">
        <ele>108.8</ele>
        <time>2021-10-24T11:05:19Z</time>
      </trkpt>
      <trkpt lat="45.18371" lon="0.72197">
        <ele>108.8</ele>
        <time>2021-10-24T11:05:20Z</time>
      </trkpt>
      <trkpt lat="45.1837" lon="0.72196">
        <ele>108.8</ele>
        <time>2021-10-24T11:05:21Z</time>
      </trkpt>
      <trkpt lat="45.1837" lon="0.72196">
        <ele>108.8</ele>
        <time>2021-10-24T11:05:22Z</time>
      </trkpt>
      <trkpt lat="45.1837" lon="0.72197">
        <ele>108.8</ele>
        <time>2021-10-24T11:05:24Z</time>
      </trkpt>
      <trkpt lat="45.18371" lon="0.72197">
        <ele>108.9</ele>
        <time>2021-10-24T11:05:25Z</time>
      </trkpt>
      <trkpt lat="45.18371" lon="0.72197">
        <ele>108.9</ele>
        <time>2021-10-24T11:05:26Z</time>
      </trkpt>
      <trkpt lat="45.18371" lon="0.72197">
        <ele>108.9</ele>
        <time>2021-10-24T11:05:27Z</time>
      </trkpt>
      <trkpt lat="45.18372" lon="0.72196">
        <ele>108.9</ele>
        <time>2021-10-24T11:05:28Z</time>
      </trkpt>
      <trkpt lat="45.18372" lon="0.72196">
        <ele>108.9</ele>
        <time>2021-10-24T11:05:30Z</time>
      </trkpt>
      <trkpt lat="45.18373" lon="0.72197">
        <ele>108.9</ele>
        <time>2021-10-24T11:05:31Z</time>
      </trkpt>
      <trkpt lat="45.18373" lon="0.72196">
        <ele>108.9</ele>
        <time>2021-10-24T11:05:33Z</time>
      </trkpt>
      <trkpt lat="45.18373" lon="0.72197">
        <ele>108.9</ele>
        <time>2021-10-24T11:05:34Z</time>
      </trkpt>
      <trkpt lat="45.18373" lon="0.72197">
        <ele>108.9</ele>
        <time>2021-10-24T11:05:36Z</time>
      </trkpt>
      <trkpt lat="45.18374" lon="0.72198">
        <ele>108.9</ele>
        <time>2021-10-24T11:05:37Z</time>
      </trkpt>
      <trkpt lat="45.18374" lon="0.72199">
        <ele>108.9</ele>
        <time>2021-10-24T11:05:39Z</time>
      </trkpt>
      <trkpt lat="45.18375" lon="0.72199">
        <ele>108.9</ele>
        <time>2021-10-24T11:05:40Z</time>
      </trkpt>
      <trkpt lat="45.18375" lon="0.722">
        <ele>108.9</ele>
        <time>2021-10-24T11:05:42Z</time>
      </trkpt>
      <trkpt lat="45.18375" lon="0.722">
        <ele>108.9</ele>
        <time>2021-10-24T11:05:44Z</time>
      </trkpt>
      <trkpt lat="45.18375" lon="0.722">
        <ele>108.9</ele>
        <time>2021-10-24T11:05:45Z</time>
      </trkpt>
      <trkpt lat="45.18375" lon="0.72201">
        <ele>108.9</ele>
        <time>2021-10-24T11:05:46Z</time>
      </trkpt>
      <trkpt lat="45.18375" lon="0.72201">
        <ele>108.9</ele>
        <time>2021-10-24T11:05:48Z</time>
      </trkpt>
      <trkpt lat="45.18375" lon="0.72201">
        <ele>108.9</ele>
        <time>2021-10-24T11:05:49Z</time>
      </trkpt>
      <trkpt lat="45.18375" lon="0.72201">
        <ele>108.9</ele>
        <time>2021-10-24T11:05:51Z</time>
      </trkpt>
      <trkpt lat="45.18375" lon="0.72201">
        <ele>108.9</ele>
        <time>2021-10-24T11:05:52Z</time>
      </trkpt>
      <trkpt lat="45.18375" lon="0.72201">
        <ele>108.9</ele>
        <time>2021-10-24T11:05:54Z</time>
      </trkpt>
      <trkpt lat="45.18375" lon="0.72201">
        <ele>108.9</ele>
        <time>2021-10-24T11:05:55Z</time>
      </trkpt>
      <trkpt lat="45.18375" lon="0.72201">
        <ele>108.9</ele>
        <time>2021-10-24T11:05:57Z</time>
      </trkpt>
      <trkpt lat="45.18375" lon="0.72201">
        <ele>108.9</ele>
        <time>2021-10-24T11:05:59Z</time>
      </trkpt>
      <trkpt lat="45.18374" lon="0.722">
        <ele>108.9</ele>
        <time>2021-10-24T11:06:01Z</time>
      </trkpt>
      <trkpt lat="45.18374" lon="0.722">
        <ele>108.9</ele>
        <time>2021-10-24T11:06:02Z</time>
      </trkpt>
      <trkpt lat="45.18374" lon="0.722">
        <ele>108.9</ele>
        <time>2021-10-24T11:06:03Z</time>
      </trkpt>
      <trkpt lat="45.18374" lon="0.722">
        <ele>108.9</ele>
        <time>2021-10-24T11:06:05Z</time>
      </trkpt>
      <trkpt lat="45.18374" lon="0.72199">
        <ele>108.9</ele>
        <time>2021-10-24T11:06:06Z</time>
      </trkpt>
      <trkpt lat="45.18372" lon="0.72198">
        <ele>108.9</ele>
        <time>2021-10-24T11:06:08Z</time>
      </trkpt>
      <trkpt lat="45.18372" lon="0.72197">
        <ele>108.9</ele>
        <time>2021-10-24T11:06:09Z</time>
      </trkpt>
      <trkpt lat="45.18371" lon="0.72196">
        <ele>108.9</ele>
        <time>2021-10-24T11:06:10Z</time>
      </trkpt>
      <trkpt lat="45.18371" lon="0.72194">
        <ele>108.9</ele>
        <time>2021-10-24T11:06:11Z</time>
      </trkpt>
      <trkpt lat="45.18371" lon="0.72193">
        <ele>109</ele>
        <time>2021-10-24T11:06:12Z</time>
      </trkpt>
      <trkpt lat="45.1837" lon="0.72191">
        <ele>109</ele>
        <time>2021-10-24T11:06:13Z</time>
      </trkpt>
      <trkpt lat="45.1837" lon="0.72189">
        <ele>109</ele>
        <time>2021-10-24T11:06:15Z</time>
      </trkpt>
      <trkpt lat="45.18369" lon="0.72187">
        <ele>109</ele>
        <time>2021-10-24T11:06:16Z</time>
      </trkpt>
      <trkpt lat="45.18368" lon="0.72185">
        <ele>109</ele>
        <time>2021-10-24T11:06:17Z</time>
      </trkpt>
      <trkpt lat="45.18368" lon="0.72183">
        <ele>109</ele>
        <time>2021-10-24T11:06:19Z</time>
      </trkpt>
      <trkpt lat="45.18367" lon="0.72181">
        <ele>109</ele>
        <time>2021-10-24T11:06:20Z</time>
      </trkpt>
      <trkpt lat="45.18367" lon="0.7218">
        <ele>109</ele>
        <time>2021-10-24T11:06:21Z</time>
      </trkpt>
      <trkpt lat="45.18367" lon="0.72178">
        <ele>109</ele>
        <time>2021-10-24T11:06:22Z</time>
      </trkpt>
      <trkpt lat="45.18367" lon="0.72176">
        <ele>109</ele>
        <time>2021-10-24T11:06:23Z</time>
      </trkpt>
      <trkpt lat="45.18366" lon="0.72175">
        <ele>109.1</ele>
        <time>2021-10-24T11:06:24Z</time>
      </trkpt>
      <trkpt lat="45.18366" lon="0.72174">
        <ele>109.1</ele>
        <time>2021-10-24T11:06:25Z</time>
      </trkpt>
      <trkpt lat="45.18366" lon="0.72173">
        <ele>109.1</ele>
        <time>2021-10-24T11:06:26Z</time>
      </trkpt>
      <trkpt lat="45.18366" lon="0.72172">
        <ele>109.1</ele>
        <time>2021-10-24T11:06:28Z</time>
      </trkpt>
      <trkpt lat="45.18365" lon="0.7217">
        <ele>109.1</ele>
        <time>2021-10-24T11:06:29Z</time>
      </trkpt>
      <trkpt lat="45.18365" lon="0.72169">
        <ele>109.1</ele>
        <time>2021-10-24T11:06:30Z</time>
      </trkpt>
      <trkpt lat="45.18365" lon="0.72167">
        <ele>109.1</ele>
        <time>2021-10-24T11:06:31Z</time>
      </trkpt>
      <trkpt lat="45.18365" lon="0.72166">
        <ele>109.1</ele>
        <time>2021-10-24T11:06:32Z</time>
      </trkpt>
      <trkpt lat="45.18365" lon="0.72164">
        <ele>109.1</ele>
        <time>2021-10-24T11:06:33Z</time>
      </trkpt>
      <trkpt lat="45.18365" lon="0.72162">
        <ele>109.1</ele>
        <time>2021-10-24T11:06:34Z</time>
      </trkpt>
      <trkpt lat="45.18364" lon="0.7216">
        <ele>109.1</ele>
        <time>2021-10-24T11:06:36Z</time>
      </trkpt>
      <trkpt lat="45.18364" lon="0.7216">
        <ele>109.2</ele>
        <time>2021-10-24T11:06:37Z</time>
      </trkpt>
      <trkpt lat="45.18364" lon="0.7216">
        <ele>109.2</ele>
        <time>2021-10-24T11:06:39Z</time>
      </trkpt>
      <trkpt lat="45.18364" lon="0.7216">
        <ele>109.2</ele>
        <time>2021-10-24T11:06:40Z</time>
      </trkpt>
      <trkpt lat="45.18364" lon="0.7216">
        <ele>109.2</ele>
        <time>2021-10-24T11:06:41Z</time>
      </trkpt>
      <trkpt lat="45.18364" lon="0.7216">
        <ele>109.2</ele>
        <time>2021-10-24T11:06:42Z</time>
      </trkpt>
      <trkpt lat="45.18364" lon="0.7216">
        <ele>109.2</ele>
        <time>2021-10-24T11:06:43Z</time>
      </trkpt>
      <trkpt lat="45.18364" lon="0.7216">
        <ele>109.2</ele>
        <time>2021-10-24T11:06:44Z</time>
      </trkpt>
      <trkpt lat="45.18364" lon="0.7216">
        <ele>109.2</ele>
        <time>2021-10-24T11:06:45Z</time>
      </trkpt>
      <trkpt lat="45.18364" lon="0.72159">
        <ele>109.2</ele>
        <time>2021-10-24T11:06:46Z</time>
      </trkpt>
      <trkpt lat="45.18363" lon="0.72159">
        <ele>109.2</ele>
        <time>2021-10-24T11:06:47Z</time>
      </trkpt>
      <trkpt lat="45.18363" lon="0.72158">
        <ele>109.2</ele>
        <time>2021-10-24T11:06:48Z</time>
      </trkpt>
      <trkpt lat="45.18363" lon="0.72157">
        <ele>109.2</ele>
        <time>2021-10-24T11:06:49Z</time>
      </trkpt>
      <trkpt lat="45.18363" lon="0.72155">
        <ele>109.2</ele>
        <time>2021-10-24T11:06:51Z</time>
      </trkpt>
      <trkpt lat="45.18363" lon="0.72153">
        <ele>109.2</ele>
        <time>2021-10-24T11:06:52Z</time>
      </trkpt>
      <trkpt lat="45.18364" lon="0.72151">
        <ele>109.2</ele>
        <time>2021-10-24T11:06:53Z</time>
      </trkpt>
      <trkpt lat="45.18364" lon="0.72148">
        <ele>109.2</ele>
        <time>2021-10-24T11:06:55Z</time>
      </trkpt>
      <trkpt lat="45.18365" lon="0.72146">
        <ele>109.3</ele>
        <time>2021-10-24T11:06:57Z</time>
      </trkpt>
      <trkpt lat="45.18365" lon="0.72144">
        <ele>109.3</ele>
        <time>2021-10-24T11:06:58Z</time>
      </trkpt>
      <trkpt lat="45.18366" lon="0.72143">
        <ele>109.3</ele>
        <time>2021-10-24T11:06:59Z</time>
      </trkpt>
      <trkpt lat="45.18366" lon="0.72141">
        <ele>109.3</ele>
        <time>2021-10-24T11:07:00Z</time>
      </trkpt>
      <trkpt lat="45.18367" lon="0.72138">
        <ele>109.3</ele>
        <time>2021-10-24T11:07:01Z</time>
      </trkpt>
      <trkpt lat="45.18367" lon="0.72137">
        <ele>109.3</ele>
        <time>2021-10-24T11:07:02Z</time>
      </trkpt>
      <trkpt lat="45.18367" lon="0.72136">
        <ele>109.3</ele>
        <time>2021-10-24T11:07:03Z</time>
      </trkpt>
      <trkpt lat="45.18368" lon="0.72132">
        <ele>109.4</ele>
        <time>2021-10-24T11:07:05Z</time>
      </trkpt>
      <trkpt lat="45.18368" lon="0.72131">
        <ele>109.4</ele>
        <time>2021-10-24T11:07:06Z</time>
      </trkpt>
      <trkpt lat="45.18369" lon="0.72127">
        <ele>109.4</ele>
        <time>2021-10-24T11:07:08Z</time>
      </trkpt>
      <trkpt lat="45.18369" lon="0.72126">
        <ele>109.4</ele>
        <time>2021-10-24T11:07:09Z</time>
      </trkpt>
      <trkpt lat="45.1837" lon="0.72124">
        <ele>109.4</ele>
        <time>2021-10-24T11:07:11Z</time>
      </trkpt>
      <trkpt lat="45.1837" lon="0.72122">
        <ele>109.4</ele>
        <time>2021-10-24T11:07:12Z</time>
      </trkpt>
      <trkpt lat="45.1837" lon="0.72121">
        <ele>109.4</ele>
        <time>2021-10-24T11:07:13Z</time>
      </trkpt>
      <trkpt lat="45.1837" lon="0.72119">
        <ele>109.4</ele>
        <time>2021-10-24T11:07:14Z</time>
      </trkpt>
      <trkpt lat="45.1837" lon="0.72118">
        <ele>109.4</ele>
        <time>2021-10-24T11:07:15Z</time>
      </trkpt>
      <trkpt lat="45.18369" lon="0.72116">
        <ele>109.4</ele>
        <time>2021-10-24T11:07:17Z</time>
      </trkpt>
      <trkpt lat="45.18369" lon="0.72115">
        <ele>109.5</ele>
        <time>2021-10-24T11:07:18Z</time>
      </trkpt>
      <trkpt lat="45.18369" lon="0.72114">
        <ele>109.5</ele>
        <time>2021-10-24T11:07:20Z</time>
      </trkpt>
      <trkpt lat="45.18368" lon="0.72113">
        <ele>109.5</ele>
        <time>2021-10-24T11:07:21Z</time>
      </trkpt>
      <trkpt lat="45.18368" lon="0.72112">
        <ele>109.5</ele>
        <time>2021-10-24T11:07:22Z</time>
      </trkpt>
      <trkpt lat="45.18368" lon="0.72113">
        <ele>109.5</ele>
        <time>2021-10-24T11:07:23Z</time>
      </trkpt>
      <trkpt lat="45.18368" lon="0.72114">
        <ele>109.5</ele>
        <time>2021-10-24T11:07:25Z</time>
      </trkpt>
      <trkpt lat="45.18368" lon="0.72114">
        <ele>109.5</ele>
        <time>2021-10-24T11:07:26Z</time>
      </trkpt>
      <trkpt lat="45.18368" lon="0.72114">
        <ele>109.5</ele>
        <time>2021-10-24T11:07:27Z</time>
      </trkpt>
      <trkpt lat="45.18369" lon="0.72113">
        <ele>109.5</ele>
        <time>2021-10-24T11:07:29Z</time>
      </trkpt>
      <trkpt lat="45.18369" lon="0.72112">
        <ele>109.5</ele>
        <time>2021-10-24T11:07:30Z</time>
      </trkpt>
      <trkpt lat="45.1837" lon="0.72111">
        <ele>109.5</ele>
        <time>2021-10-24T11:07:31Z</time>
      </trkpt>
      <trkpt lat="45.1837" lon="0.72108">
        <ele>109.5</ele>
        <time>2021-10-24T11:07:32Z</time>
      </trkpt>
      <trkpt lat="45.1837" lon="0.72106">
        <ele>109.5</ele>
        <time>2021-10-24T11:07:33Z</time>
      </trkpt>
      <trkpt lat="45.1837" lon="0.72105">
        <ele>109.5</ele>
        <time>2021-10-24T11:07:34Z</time>
      </trkpt>
      <trkpt lat="45.18369" lon="0.72103">
        <ele>109.5</ele>
        <time>2021-10-24T11:07:35Z</time>
      </trkpt>
      <trkpt lat="45.18369" lon="0.72102">
        <ele>109.6</ele>
        <time>2021-10-24T11:07:37Z</time>
      </trkpt>
      <trkpt lat="45.18367" lon="0.72102">
        <ele>109.6</ele>
        <time>2021-10-24T11:07:39Z</time>
      </trkpt>
      <trkpt lat="45.18367" lon="0.72102">
        <ele>109.6</ele>
        <time>2021-10-24T11:07:40Z</time>
      </trkpt>
      <trkpt lat="45.18367" lon="0.72103">
        <ele>109.6</ele>
        <time>2021-10-24T11:07:41Z</time>
      </trkpt>
      <trkpt lat="45.18367" lon="0.72103">
        <ele>109.6</ele>
        <time>2021-10-24T11:07:42Z</time>
      </trkpt>
      <trkpt lat="45.18367" lon="0.72103">
        <ele>109.6</ele>
        <time>2021-10-24T11:07:43Z</time>
      </trkpt>
      <trkpt lat="45.18367" lon="0.72104">
        <ele>109.6</ele>
        <time>2021-10-24T11:07:44Z</time>
      </trkpt>
      <trkpt lat="45.18367" lon="0.72104">
        <ele>109.6</ele>
        <time>2021-10-24T11:07:45Z</time>
      </trkpt>
      <trkpt lat="45.18368" lon="0.72104">
        <ele>109.6</ele>
        <time>2021-10-24T11:07:46Z</time>
      </trkpt>
      <trkpt lat="45.18368" lon="0.72104">
        <ele>109.6</ele>
        <time>2021-10-24T11:07:47Z</time>
      </trkpt>
      <trkpt lat="45.18369" lon="0.72104">
        <ele>109.6</ele>
        <time>2021-10-24T11:07:49Z</time>
      </trkpt>
      <trkpt lat="45.1837" lon="0.72104">
        <ele>109.6</ele>
        <time>2021-10-24T11:07:50Z</time>
      </trkpt>
      <trkpt lat="45.18371" lon="0.72104">
        <ele>109.6</ele>
        <time>2021-10-24T11:07:51Z</time>
      </trkpt>
      <trkpt lat="45.18372" lon="0.72104">
        <ele>109.6</ele>
        <time>2021-10-24T11:07:53Z</time>
      </trkpt>
      <trkpt lat="45.18373" lon="0.72104">
        <ele>109.6</ele>
        <time>2021-10-24T11:07:54Z</time>
      </trkpt>
      <trkpt lat="45.18373" lon="0.72104">
        <ele>109.6</ele>
        <time>2021-10-24T11:07:55Z</time>
      </trkpt>
      <trkpt lat="45.18374" lon="0.72103">
        <ele>109.6</ele>
        <time>2021-10-24T11:07:56Z</time>
      </trkpt>
      <trkpt lat="45.18375" lon="0.72102">
        <ele>109.6</ele>
        <time>2021-10-24T11:07:57Z</time>
      </trkpt>
      <trkpt lat="45.18376" lon="0.72102">
        <ele>109.7</ele>
        <time>2021-10-24T11:07:58Z</time>
      </trkpt>
      <trkpt lat="45.18376" lon="0.72101">
        <ele>109.7</ele>
        <time>2021-10-24T11:08:00Z</time>
      </trkpt>
      <trkpt lat="45.18377" lon="0.72099">
        <ele>109.7</ele>
        <time>2021-10-24T11:08:01Z</time>
      </trkpt>
      <trkpt lat="45.18378" lon="0.72098">
        <ele>109.7</ele>
        <time>2021-10-24T11:08:02Z</time>
      </trkpt>
      <trkpt lat="45.18378" lon="0.72096">
        <ele>109.7</ele>
        <time>2021-10-24T11:08:04Z</time>
      </trkpt>
      <trkpt lat="45.18379" lon="0.72095">
        <ele>109.7</ele>
        <time>2021-10-24T11:08:05Z</time>
      </trkpt>
      <trkpt lat="45.18379" lon="0.72094">
        <ele>109.7</ele>
        <time>2021-10-24T11:08:06Z</time>
      </trkpt>
      <trkpt lat="45.1838" lon="0.72093">
        <ele>109.7</ele>
        <time>2021-10-24T11:08:07Z</time>
      </trkpt>
      <trkpt lat="45.1838" lon="0.72093">
        <ele>109.7</ele>
        <time>2021-10-24T11:08:08Z</time>
      </trkpt>
      <trkpt lat="45.1838" lon="0.72094">
        <ele>109.7</ele>
        <time>2021-10-24T11:08:09Z</time>
      </trkpt>
      <trkpt lat="45.18381" lon="0.72094">
        <ele>109.7</ele>
        <time>2021-10-24T11:08:11Z</time>
      </trkpt>
      <trkpt lat="45.18381" lon="0.72094">
        <ele>109.7</ele>
        <time>2021-10-24T11:08:12Z</time>
      </trkpt>
      <trkpt lat="45.18381" lon="0.72095">
        <ele>109.7</ele>
        <time>2021-10-24T11:08:13Z</time>
      </trkpt>
      <trkpt lat="45.18381" lon="0.72095">
        <ele>109.7</ele>
        <time>2021-10-24T11:08:15Z</time>
      </trkpt>
      <trkpt lat="45.18381" lon="0.72095">
        <ele>109.7</ele>
        <time>2021-10-24T11:08:16Z</time>
      </trkpt>
      <trkpt lat="45.18381" lon="0.72096">
        <ele>109.7</ele>
        <time>2021-10-24T11:08:17Z</time>
      </trkpt>
      <trkpt lat="45.18382" lon="0.72096">
        <ele>109.7</ele>
        <time>2021-10-24T11:08:18Z</time>
      </trkpt>
      <trkpt lat="45.18382" lon="0.72096">
        <ele>109.7</ele>
        <time>2021-10-24T11:08:19Z</time>
      </trkpt>
      <trkpt lat="45.18382" lon="0.72096">
        <ele>109.7</ele>
        <time>2021-10-24T11:08:21Z</time>
      </trkpt>
      <trkpt lat="45.18382" lon="0.72097">
        <ele>109.7</ele>
        <time>2021-10-24T11:08:22Z</time>
      </trkpt>
      <trkpt lat="45.18382" lon="0.72097">
        <ele>109.7</ele>
        <time>2021-10-24T11:08:24Z</time>
      </trkpt>
      <trkpt lat="45.18382" lon="0.72098">
        <ele>109.7</ele>
        <time>2021-10-24T11:08:25Z</time>
      </trkpt>
      <trkpt lat="45.18384" lon="0.721">
        <ele>109.8</ele>
        <time>2021-10-24T11:08:26Z</time>
      </trkpt>
      <trkpt lat="45.18384" lon="0.72101">
        <ele>109.8</ele>
        <time>2021-10-24T11:08:28Z</time>
      </trkpt>
      <trkpt lat="45.18384" lon="0.72102">
        <ele>109.8</ele>
        <time>2021-10-24T11:08:29Z</time>
      </trkpt>
      <trkpt lat="45.18385" lon="0.72105">
        <ele>109.8</ele>
        <time>2021-10-24T11:08:30Z</time>
      </trkpt>
      <trkpt lat="45.18385" lon="0.72106">
        <ele>109.9</ele>
        <time>2021-10-24T11:08:31Z</time>
      </trkpt>
      <trkpt lat="45.18385" lon="0.72108">
        <ele>109.9</ele>
        <time>2021-10-24T11:08:32Z</time>
      </trkpt>
      <trkpt lat="45.18386" lon="0.7211">
        <ele>109.9</ele>
        <time>2021-10-24T11:08:34Z</time>
      </trkpt>
      <trkpt lat="45.18387" lon="0.72111">
        <ele>109.9</ele>
        <time>2021-10-24T11:08:35Z</time>
      </trkpt>
      <trkpt lat="45.18387" lon="0.72112">
        <ele>109.9</ele>
        <time>2021-10-24T11:08:36Z</time>
      </trkpt>
      <trkpt lat="45.18389" lon="0.72114">
        <ele>110</ele>
        <time>2021-10-24T11:08:38Z</time>
      </trkpt>
      <trkpt lat="45.18391" lon="0.72113">
        <ele>110</ele>
        <time>2021-10-24T11:08:39Z</time>
      </trkpt>
      <trkpt lat="45.18394" lon="0.7211">
        <ele>110</ele>
        <time>2021-10-24T11:08:41Z</time>
      </trkpt>
      <trkpt lat="45.18396" lon="0.72108">
        <ele>110</ele>
        <time>2021-10-24T11:08:42Z</time>
      </trkpt>
      <trkpt lat="45.18399" lon="0.72108">
        <ele>110</ele>
        <time>2021-10-24T11:08:44Z</time>
      </trkpt>
      <trkpt lat="45.18399" lon="0.72107">
        <ele>110.1</ele>
        <time>2021-10-24T11:08:45Z</time>
      </trkpt>
      <trkpt lat="45.18399" lon="0.72107">
        <ele>110.1</ele>
        <time>2021-10-24T11:08:47Z</time>
      </trkpt>
      <trkpt lat="45.18399" lon="0.72107">
        <ele>110.1</ele>
        <time>2021-10-24T11:08:48Z</time>
      </trkpt>
      <trkpt lat="45.18399" lon="0.72107">
        <ele>110.1</ele>
        <time>2021-10-24T11:08:49Z</time>
      </trkpt>
      <trkpt lat="45.184" lon="0.72108">
        <ele>110.1</ele>
        <time>2021-10-24T11:08:51Z</time>
      </trkpt>
      <trkpt lat="45.18401" lon="0.72108">
        <ele>110.1</ele>
        <time>2021-10-24T11:08:52Z</time>
      </trkpt>
      <trkpt lat="45.18402" lon="0.72108">
        <ele>110.1</ele>
        <time>2021-10-24T11:08:53Z</time>
      </trkpt>
      <trkpt lat="45.18403" lon="0.7211">
        <ele>109.9</ele>
        <time>2021-10-24T11:08:54Z</time>
      </trkpt>
      <trkpt lat="45.18404" lon="0.72111">
        <ele>109.6</ele>
        <time>2021-10-24T11:08:55Z</time>
      </trkpt>
      <trkpt lat="45.18405" lon="0.72112">
        <ele>109.6</ele>
        <time>2021-10-24T11:08:56Z</time>
      </trkpt>
      <trkpt lat="45.18406" lon="0.72113">
        <ele>109.6</ele>
        <time>2021-10-24T11:08:57Z</time>
      </trkpt>
      <trkpt lat="45.18407" lon="0.72115">
        <ele>109.5</ele>
        <time>2021-10-24T11:08:59Z</time>
      </trkpt>
      <trkpt lat="45.18407" lon="0.72117">
        <ele>109.5</ele>
        <time>2021-10-24T11:09:00Z</time>
      </trkpt>
      <trkpt lat="45.18407" lon="0.72118">
        <ele>109.5</ele>
        <time>2021-10-24T11:09:01Z</time>
      </trkpt>
      <trkpt lat="45.18407" lon="0.72119">
        <ele>109.5</ele>
        <time>2021-10-24T11:09:02Z</time>
      </trkpt>
      <trkpt lat="45.18407" lon="0.7212">
        <ele>109.5</ele>
        <time>2021-10-24T11:09:03Z</time>
      </trkpt>
      <trkpt lat="45.18407" lon="0.72121">
        <ele>109.5</ele>
        <time>2021-10-24T11:09:04Z</time>
      </trkpt>
      <trkpt lat="45.18407" lon="0.72124">
        <ele>109.5</ele>
        <time>2021-10-24T11:09:06Z</time>
      </trkpt>
      <trkpt lat="45.18407" lon="0.72124">
        <ele>109.5</ele>
        <time>2021-10-24T11:09:07Z</time>
      </trkpt>
      <trkpt lat="45.18408" lon="0.72125">
        <ele>109.5</ele>
        <time>2021-10-24T11:09:09Z</time>
      </trkpt>
      <trkpt lat="45.18408" lon="0.72126">
        <ele>109.5</ele>
        <time>2021-10-24T11:09:10Z</time>
      </trkpt>
      <trkpt lat="45.18408" lon="0.72127">
        <ele>109.4</ele>
        <time>2021-10-24T11:09:11Z</time>
      </trkpt>
      <trkpt lat="45.18408" lon="0.72127">
        <ele>109.4</ele>
        <time>2021-10-24T11:09:12Z</time>
      </trkpt>
      <trkpt lat="45.18409" lon="0.72128">
        <ele>109.4</ele>
        <time>2021-10-24T11:09:13Z</time>
      </trkpt>
      <trkpt lat="45.18409" lon="0.72129">
        <ele>109.4</ele>
        <time>2021-10-24T11:09:14Z</time>
      </trkpt>
      <trkpt lat="45.18409" lon="0.7213">
        <ele>109.4</ele>
        <time>2021-10-24T11:09:15Z</time>
      </trkpt>
      <trkpt lat="45.1841" lon="0.72131">
        <ele>109.4</ele>
        <time>2021-10-24T11:09:17Z</time>
      </trkpt>
      <trkpt lat="45.1841" lon="0.72132">
        <ele>109.4</ele>
        <time>2021-10-24T11:09:18Z</time>
      </trkpt>
      <trkpt lat="45.1841" lon="0.72133">
        <ele>109.3</ele>
        <time>2021-10-24T11:09:19Z</time>
      </trkpt>
      <trkpt lat="45.18411" lon="0.72134">
        <ele>109.3</ele>
        <time>2021-10-24T11:09:20Z</time>
      </trkpt>
      <trkpt lat="45.1841" lon="0.72136">
        <ele>109.3</ele>
        <time>2021-10-24T11:09:22Z</time>
      </trkpt>
      <trkpt lat="45.1841" lon="0.72138">
        <ele>109.2</ele>
        <time>2021-10-24T11:09:23Z</time>
      </trkpt>
      <trkpt lat="45.1841" lon="0.72138">
        <ele>109.2</ele>
        <time>2021-10-24T11:09:24Z</time>
      </trkpt>
      <trkpt lat="45.1841" lon="0.72139">
        <ele>109.2</ele>
        <time>2021-10-24T11:09:25Z</time>
      </trkpt>
      <trkpt lat="45.1841" lon="0.72139">
        <ele>109.2</ele>
        <time>2021-10-24T11:09:27Z</time>
      </trkpt>
      <trkpt lat="45.18411" lon="0.7214">
        <ele>109.2</ele>
        <time>2021-10-24T11:09:28Z</time>
      </trkpt>
      <trkpt lat="45.18411" lon="0.72142">
        <ele>109.2</ele>
        <time>2021-10-24T11:09:30Z</time>
      </trkpt>
      <trkpt lat="45.18411" lon="0.72143">
        <ele>109.2</ele>
        <time>2021-10-24T11:09:31Z</time>
      </trkpt>
      <trkpt lat="45.18411" lon="0.72144">
        <ele>109.2</ele>
        <time>2021-10-24T11:09:32Z</time>
      </trkpt>
      <trkpt lat="45.18411" lon="0.72145">
        <ele>109.2</ele>
        <time>2021-10-24T11:09:34Z</time>
      </trkpt>
      <trkpt lat="45.18411" lon="0.72146">
        <ele>109.2</ele>
        <time>2021-10-24T11:09:35Z</time>
      </trkpt>
      <trkpt lat="45.18411" lon="0.72147">
        <ele>109.2</ele>
        <time>2021-10-24T11:09:36Z</time>
      </trkpt>
      <trkpt lat="45.18411" lon="0.72147">
        <ele>109.2</ele>
        <time>2021-10-24T11:09:37Z</time>
      </trkpt>
      <trkpt lat="45.18411" lon="0.72148">
        <ele>109.2</ele>
        <time>2021-10-24T11:09:38Z</time>
      </trkpt>
      <trkpt lat="45.18411" lon="0.72149">
        <ele>109.2</ele>
        <time>2021-10-24T11:09:39Z</time>
      </trkpt>
      <trkpt lat="45.18412" lon="0.7215">
        <ele>109.2</ele>
        <time>2021-10-24T11:09:41Z</time>
      </trkpt>
      <trkpt lat="45.18412" lon="0.72151">
        <ele>109.2</ele>
        <time>2021-10-24T11:09:42Z</time>
      </trkpt>
      <trkpt lat="45.18412" lon="0.72152">
        <ele>109.2</ele>
        <time>2021-10-24T11:09:43Z</time>
      </trkpt>
      <trkpt lat="45.18412" lon="0.72152">
        <ele>109.2</ele>
        <time>2021-10-24T11:09:45Z</time>
      </trkpt>
      <trkpt lat="45.18412" lon="0.72153">
        <ele>109.1</ele>
        <time>2021-10-24T11:09:46Z</time>
      </trkpt>
      <trkpt lat="45.18413" lon="0.72154">
        <ele>109.1</ele>
        <time>2021-10-24T11:09:47Z</time>
      </trkpt>
      <trkpt lat="45.18413" lon="0.72155">
        <ele>109.1</ele>
        <time>2021-10-24T11:09:49Z</time>
      </trkpt>
      <trkpt lat="45.18414" lon="0.72156">
        <ele>109.1</ele>
        <time>2021-10-24T11:09:50Z</time>
      </trkpt>
      <trkpt lat="45.18414" lon="0.72157">
        <ele>109.1</ele>
        <time>2021-10-24T11:09:51Z</time>
      </trkpt>
      <trkpt lat="45.18415" lon="0.72158">
        <ele>109.1</ele>
        <time>2021-10-24T11:09:52Z</time>
      </trkpt>
      <trkpt lat="45.18415" lon="0.72159">
        <ele>109.1</ele>
        <time>2021-10-24T11:09:53Z</time>
      </trkpt>
      <trkpt lat="45.18416" lon="0.7216">
        <ele>109.1</ele>
        <time>2021-10-24T11:09:54Z</time>
      </trkpt>
      <trkpt lat="45.18416" lon="0.72161">
        <ele>109.1</ele>
        <time>2021-10-24T11:09:55Z</time>
      </trkpt>
      <trkpt lat="45.18416" lon="0.72162">
        <ele>109.1</ele>
        <time>2021-10-24T11:09:56Z</time>
      </trkpt>
      <trkpt lat="45.18416" lon="0.72163">
        <ele>109.1</ele>
        <time>2021-10-24T11:09:57Z</time>
      </trkpt>
      <trkpt lat="45.18416" lon="0.72164">
        <ele>109.1</ele>
        <time>2021-10-24T11:09:58Z</time>
      </trkpt>
      <trkpt lat="45.18415" lon="0.72166">
        <ele>109.1</ele>
        <time>2021-10-24T11:10:00Z</time>
      </trkpt>
      <trkpt lat="45.18415" lon="0.72167">
        <ele>109</ele>
        <time>2021-10-24T11:10:01Z</time>
      </trkpt>
      <trkpt lat="45.18415" lon="0.72168">
        <ele>109</ele>
        <time>2021-10-24T11:10:02Z</time>
      </trkpt>
      <trkpt lat="45.18416" lon="0.72169">
        <ele>109</ele>
        <time>2021-10-24T11:10:03Z</time>
      </trkpt>
      <trkpt lat="45.18416" lon="0.72169">
        <ele>109</ele>
        <time>2021-10-24T11:10:04Z</time>
      </trkpt>
      <trkpt lat="45.18416" lon="0.72169">
        <ele>109</ele>
        <time>2021-10-24T11:10:05Z</time>
      </trkpt>
      <trkpt lat="45.18417" lon="0.72168">
        <ele>109</ele>
        <time>2021-10-24T11:10:06Z</time>
      </trkpt>
      <trkpt lat="45.18417" lon="0.72168">
        <ele>109</ele>
        <time>2021-10-24T11:10:07Z</time>
      </trkpt>
      <trkpt lat="45.18418" lon="0.72169">
        <ele>109</ele>
        <time>2021-10-24T11:10:09Z</time>
      </trkpt>
      <trkpt lat="45.18419" lon="0.72169">
        <ele>109</ele>
        <time>2021-10-24T11:10:10Z</time>
      </trkpt>
      <trkpt lat="45.1842" lon="0.72169">
        <ele>109</ele>
        <time>2021-10-24T11:10:11Z</time>
      </trkpt>
      <trkpt lat="45.18422" lon="0.7217">
        <ele>109</ele>
        <time>2021-10-24T11:10:12Z</time>
      </trkpt>
      <trkpt lat="45.18423" lon="0.72171">
        <ele>108.9</ele>
        <time>2021-10-24T11:10:13Z</time>
      </trkpt>
      <trkpt lat="45.18426" lon="0.72172">
        <ele>109</ele>
        <time>2021-10-24T11:10:15Z</time>
      </trkpt>
      <trkpt lat="45.18427" lon="0.72173">
        <ele>109.1</ele>
        <time>2021-10-24T11:10:16Z</time>
      </trkpt>
      <trkpt lat="45.18429" lon="0.72174">
        <ele>109.1</ele>
        <time>2021-10-24T11:10:17Z</time>
      </trkpt>
      <trkpt lat="45.1843" lon="0.72175">
        <ele>109.1</ele>
        <time>2021-10-24T11:10:18Z</time>
      </trkpt>
      <trkpt lat="45.18432" lon="0.72176">
        <ele>109.2</ele>
        <time>2021-10-24T11:10:19Z</time>
      </trkpt>
      <trkpt lat="45.18435" lon="0.72177">
        <ele>109.3</ele>
        <time>2021-10-24T11:10:21Z</time>
      </trkpt>
      <trkpt lat="45.18435" lon="0.72178">
        <ele>109.3</ele>
        <time>2021-10-24T11:10:22Z</time>
      </trkpt>
      <trkpt lat="45.18438" lon="0.7218">
        <ele>109.4</ele>
        <time>2021-10-24T11:10:23Z</time>
      </trkpt>
      <trkpt lat="45.18439" lon="0.7218">
        <ele>109.4</ele>
        <time>2021-10-24T11:10:25Z</time>
      </trkpt>
      <trkpt lat="45.18439" lon="0.72181">
        <ele>109.4</ele>
        <time>2021-10-24T11:10:26Z</time>
      </trkpt>
      <trkpt lat="45.1844" lon="0.72182">
        <ele>109.5</ele>
        <time>2021-10-24T11:10:27Z</time>
      </trkpt>
      <trkpt lat="45.18441" lon="0.72183">
        <ele>109.5</ele>
        <time>2021-10-24T11:10:28Z</time>
      </trkpt>
      <trkpt lat="45.18443" lon="0.72184">
        <ele>109.6</ele>
        <time>2021-10-24T11:10:30Z</time>
      </trkpt>
      <trkpt lat="45.18444" lon="0.72186">
        <ele>109.6</ele>
        <time>2021-10-24T11:10:32Z</time>
      </trkpt>
      <trkpt lat="45.18445" lon="0.72187">
        <ele>109.7</ele>
        <time>2021-10-24T11:10:33Z</time>
      </trkpt>
      <trkpt lat="45.18447" lon="0.72189">
        <ele>109.7</ele>
        <time>2021-10-24T11:10:34Z</time>
      </trkpt>
      <trkpt lat="45.18447" lon="0.72191">
        <ele>109.7</ele>
        <time>2021-10-24T11:10:35Z</time>
      </trkpt>
      <trkpt lat="45.18448" lon="0.72194">
        <ele>109.7</ele>
        <time>2021-10-24T11:10:37Z</time>
      </trkpt>
      <trkpt lat="45.1845" lon="0.72197">
        <ele>109.7</ele>
        <time>2021-10-24T11:10:38Z</time>
      </trkpt>
      <trkpt lat="45.18451" lon="0.72198">
        <ele>109.7</ele>
        <time>2021-10-24T11:10:39Z</time>
      </trkpt>
      <trkpt lat="45.18452" lon="0.722">
        <ele>109.7</ele>
        <time>2021-10-24T11:10:40Z</time>
      </trkpt>
      <trkpt lat="45.18453" lon="0.72201">
        <ele>109.7</ele>
        <time>2021-10-24T11:10:41Z</time>
      </trkpt>
      <trkpt lat="45.18455" lon="0.72203">
        <ele>109.7</ele>
        <time>2021-10-24T11:10:42Z</time>
      </trkpt>
      <trkpt lat="45.18456" lon="0.72205">
        <ele>109.7</ele>
        <time>2021-10-24T11:10:43Z</time>
      </trkpt>
      <trkpt lat="45.18457" lon="0.72206">
        <ele>109.7</ele>
        <time>2021-10-24T11:10:44Z</time>
      </trkpt>
      <trkpt lat="45.18458" lon="0.72208">
        <ele>109.7</ele>
        <time>2021-10-24T11:10:46Z</time>
      </trkpt>
      <trkpt lat="45.18457" lon="0.7221">
        <ele>109.7</ele>
        <time>2021-10-24T11:10:47Z</time>
      </trkpt>
      <trkpt lat="45.18457" lon="0.72213">
        <ele>109.7</ele>
        <time>2021-10-24T11:10:48Z</time>
      </trkpt>
      <trkpt lat="45.18457" lon="0.72215">
        <ele>109.7</ele>
        <time>2021-10-24T11:10:49Z</time>
      </trkpt>
      <trkpt lat="45.18457" lon="0.72217">
        <ele>109.8</ele>
        <time>2021-10-24T11:10:51Z</time>
      </trkpt>
      <trkpt lat="45.18456" lon="0.72218">
        <ele>109.8</ele>
        <time>2021-10-24T11:10:52Z</time>
      </trkpt>
      <trkpt lat="45.18457" lon="0.72219">
        <ele>109.8</ele>
        <time>2021-10-24T11:10:53Z</time>
      </trkpt>
      <trkpt lat="45.18457" lon="0.7222">
        <ele>109.8</ele>
        <time>2021-10-24T11:10:54Z</time>
      </trkpt>
      <trkpt lat="45.18458" lon="0.72221">
        <ele>109.8</ele>
        <time>2021-10-24T11:10:55Z</time>
      </trkpt>
      <trkpt lat="45.18459" lon="0.72222">
        <ele>109.8</ele>
        <time>2021-10-24T11:10:57Z</time>
      </trkpt>
      <trkpt lat="45.18459" lon="0.72222">
        <ele>109.8</ele>
        <time>2021-10-24T11:10:58Z</time>
      </trkpt>
      <trkpt lat="45.1846" lon="0.72223">
        <ele>109.8</ele>
        <time>2021-10-24T11:10:59Z</time>
      </trkpt>
      <trkpt lat="45.18461" lon="0.72222">
        <ele>109.8</ele>
        <time>2021-10-24T11:11:00Z</time>
      </trkpt>
      <trkpt lat="45.18462" lon="0.72221">
        <ele>109.8</ele>
        <time>2021-10-24T11:11:01Z</time>
      </trkpt>
      <trkpt lat="45.18462" lon="0.72221">
        <ele>109.8</ele>
        <time>2021-10-24T11:11:03Z</time>
      </trkpt>
      <trkpt lat="45.18463" lon="0.72221">
        <ele>109.8</ele>
        <time>2021-10-24T11:11:04Z</time>
      </trkpt>
      <trkpt lat="45.18463" lon="0.72221">
        <ele>109.8</ele>
        <time>2021-10-24T11:11:06Z</time>
      </trkpt>
      <trkpt lat="45.18463" lon="0.7222">
        <ele>109.8</ele>
        <time>2021-10-24T11:11:07Z</time>
      </trkpt>
      <trkpt lat="45.18463" lon="0.7222">
        <ele>109.8</ele>
        <time>2021-10-24T11:11:08Z</time>
      </trkpt>
      <trkpt lat="45.18462" lon="0.72219">
        <ele>109.8</ele>
        <time>2021-10-24T11:11:10Z</time>
      </trkpt>
      <trkpt lat="45.18462" lon="0.72219">
        <ele>109.8</ele>
        <time>2021-10-24T11:11:12Z</time>
      </trkpt>
      <trkpt lat="45.18462" lon="0.72218">
        <ele>109.8</ele>
        <time>2021-10-24T11:11:13Z</time>
      </trkpt>
      <trkpt lat="45.18462" lon="0.72217">
        <ele>109.8</ele>
        <time>2021-10-24T11:11:15Z</time>
      </trkpt>
      <trkpt lat="45.18462" lon="0.72217">
        <ele>109.8</ele>
        <time>2021-10-24T11:11:18Z</time>
      </trkpt>
      <trkpt lat="45.18462" lon="0.72217">
        <ele>109.8</ele>
        <time>2021-10-24T11:11:19Z</time>
      </trkpt>
      <trkpt lat="45.18462" lon="0.72216">
        <ele>109.8</ele>
        <time>2021-10-24T11:11:21Z</time>
      </trkpt>
      <trkpt lat="45.18462" lon="0.72216">
        <ele>109.8</ele>
        <time>2021-10-24T11:11:22Z</time>
      </trkpt>
      <trkpt lat="45.18462" lon="0.72215">
        <ele>109.8</ele>
        <time>2021-10-24T11:11:24Z</time>
      </trkpt>
      <trkpt lat="45.18462" lon="0.72214">
        <ele>109.8</ele>
        <time>2021-10-24T11:11:26Z</time>
      </trkpt>
      <trkpt lat="45.18462" lon="0.72214">
        <ele>109.8</ele>
        <time>2021-10-24T11:11:27Z</time>
      </trkpt>
      <trkpt lat="45.18462" lon="0.72214">
        <ele>109.8</ele>
        <time>2021-10-24T11:11:29Z</time>
      </trkpt>
      <trkpt lat="45.18462" lon="0.72214">
        <ele>109.8</ele>
        <time>2021-10-24T11:11:30Z</time>
      </trkpt>
      <trkpt lat="45.18462" lon="0.72214">
        <ele>109.8</ele>
        <time>2021-10-24T11:11:31Z</time>
      </trkpt>
      <trkpt lat="45.18462" lon="0.72214">
        <ele>109.8</ele>
        <time>2021-10-24T11:11:32Z</time>
      </trkpt>
      <trkpt lat="45.18462" lon="0.72214">
        <ele>109.8</ele>
        <time>2021-10-24T11:11:33Z</time>
      </trkpt>
      <trkpt lat="45.18461" lon="0.72214">
        <ele>109.8</ele>
        <time>2021-10-24T11:11:34Z</time>
      </trkpt>
      <trkpt lat="45.18461" lon="0.72214">
        <ele>109.8</ele>
        <time>2021-10-24T11:11:36Z</time>
      </trkpt>
      <trkpt lat="45.18461" lon="0.72215">
        <ele>109.8</ele>
        <time>2021-10-24T11:11:37Z</time>
      </trkpt>
      <trkpt lat="45.1846" lon="0.72215">
        <ele>109.8</ele>
        <time>2021-10-24T11:11:38Z</time>
      </trkpt>
      <trkpt lat="45.18459" lon="0.72216">
        <ele>109.8</ele>
        <time>2021-10-24T11:11:39Z</time>
      </trkpt>
      <trkpt lat="45.18459" lon="0.72216">
        <ele>109.8</ele>
        <time>2021-10-24T11:11:40Z</time>
      </trkpt>
      <trkpt lat="45.18458" lon="0.72217">
        <ele>109.8</ele>
        <time>2021-10-24T11:11:41Z</time>
      </trkpt>
      <trkpt lat="45.18457" lon="0.72217">
        <ele>109.8</ele>
        <time>2021-10-24T11:11:42Z</time>
      </trkpt>
      <trkpt lat="45.18456" lon="0.72218">
        <ele>109.8</ele>
        <time>2021-10-24T11:11:43Z</time>
      </trkpt>
      <trkpt lat="45.18455" lon="0.72218">
        <ele>109.8</ele>
        <time>2021-10-24T11:11:44Z</time>
      </trkpt>
      <trkpt lat="45.18454" lon="0.72218">
        <ele>109.8</ele>
        <time>2021-10-24T11:11:45Z</time>
      </trkpt>
      <trkpt lat="45.18453" lon="0.72218">
        <ele>109.8</ele>
        <time>2021-10-24T11:11:46Z</time>
      </trkpt>
      <trkpt lat="45.18452" lon="0.72219">
        <ele>109.9</ele>
        <time>2021-10-24T11:11:47Z</time>
      </trkpt>
      <trkpt lat="45.1845" lon="0.72219">
        <ele>109.9</ele>
        <time>2021-10-24T11:11:49Z</time>
      </trkpt>
      <trkpt lat="45.18449" lon="0.72219">
        <ele>109.9</ele>
        <time>2021-10-24T11:11:51Z</time>
      </trkpt>
      <trkpt lat="45.18448" lon="0.72218">
        <ele>109.9</ele>
        <time>2021-10-24T11:11:52Z</time>
      </trkpt>
      <trkpt lat="45.18447" lon="0.72217">
        <ele>109.9</ele>
        <time>2021-10-24T11:11:53Z</time>
      </trkpt>
      <trkpt lat="45.18447" lon="0.72213">
        <ele>109.9</ele>
        <time>2021-10-24T11:11:55Z</time>
      </trkpt>
      <trkpt lat="45.18446" lon="0.72212">
        <ele>109.9</ele>
        <time>2021-10-24T11:11:56Z</time>
      </trkpt>
      <trkpt lat="45.18446" lon="0.72209">
        <ele>109.9</ele>
        <time>2021-10-24T11:11:57Z</time>
      </trkpt>
      <trkpt lat="45.18446" lon="0.72208">
        <ele>109.9</ele>
        <time>2021-10-24T11:11:58Z</time>
      </trkpt>
      <trkpt lat="45.18446" lon="0.72207">
        <ele>109.9</ele>
        <time>2021-10-24T11:11:59Z</time>
      </trkpt>
      <trkpt lat="45.18446" lon="0.72202">
        <ele>109.9</ele>
        <time>2021-10-24T11:12:00Z</time>
      </trkpt>
      <trkpt lat="45.18446" lon="0.722">
        <ele>109.9</ele>
        <time>2021-10-24T11:12:01Z</time>
      </trkpt>
      <trkpt lat="45.18446" lon="0.72198">
        <ele>109.9</ele>
        <time>2021-10-24T11:12:02Z</time>
      </trkpt>
      <trkpt lat="45.18446" lon="0.72194">
        <ele>109.9</ele>
        <time>2021-10-24T11:12:04Z</time>
      </trkpt>
      <trkpt lat="45.18448" lon="0.7219">
        <ele>109.9</ele>
        <time>2021-10-24T11:12:05Z</time>
      </trkpt>
      <trkpt lat="45.18451" lon="0.72183">
        <ele>109.9</ele>
        <time>2021-10-24T11:12:07Z</time>
      </trkpt>
      <trkpt lat="45.18451" lon="0.7218">
        <ele>109.9</ele>
        <time>2021-10-24T11:12:08Z</time>
      </trkpt>
      <trkpt lat="45.18452" lon="0.72178">
        <ele>109.9</ele>
        <time>2021-10-24T11:12:09Z</time>
      </trkpt>
      <trkpt lat="45.18452" lon="0.72172">
        <ele>110</ele>
        <time>2021-10-24T11:12:11Z</time>
      </trkpt>
      <trkpt lat="45.18452" lon="0.7217">
        <ele>110</ele>
        <time>2021-10-24T11:12:12Z</time>
      </trkpt>
      <trkpt lat="45.18452" lon="0.72168">
        <ele>110</ele>
        <time>2021-10-24T11:12:13Z</time>
      </trkpt>
      <trkpt lat="45.18452" lon="0.72167">
        <ele>110</ele>
        <time>2021-10-24T11:12:14Z</time>
      </trkpt>
      <trkpt lat="45.18449" lon="0.72169">
        <ele>110</ele>
        <time>2021-10-24T11:12:16Z</time>
      </trkpt>
      <trkpt lat="45.18446" lon="0.72173">
        <ele>110</ele>
        <time>2021-10-24T11:12:18Z</time>
      </trkpt>
      <trkpt lat="45.18444" lon="0.72176">
        <ele>110</ele>
        <time>2021-10-24T11:12:19Z</time>
      </trkpt>
      <trkpt lat="45.18441" lon="0.72176">
        <ele>110</ele>
        <time>2021-10-24T11:12:21Z</time>
      </trkpt>
      <trkpt lat="45.1844" lon="0.72183">
        <ele>110</ele>
        <time>2021-10-24T11:12:23Z</time>
      </trkpt>
      <trkpt lat="45.18441" lon="0.7219">
        <ele>110</ele>
        <time>2021-10-24T11:12:25Z</time>
      </trkpt>
      <trkpt lat="45.18443" lon="0.72195">
        <ele>110</ele>
        <time>2021-10-24T11:12:26Z</time>
      </trkpt>
      <trkpt lat="45.18443" lon="0.72199">
        <ele>110</ele>
        <time>2021-10-24T11:12:27Z</time>
      </trkpt>
      <trkpt lat="45.18443" lon="0.722">
        <ele>110</ele>
        <time>2021-10-24T11:12:28Z</time>
      </trkpt>
      <trkpt lat="45.18443" lon="0.72201">
        <ele>110</ele>
        <time>2021-10-24T11:12:29Z</time>
      </trkpt>
      <trkpt lat="45.18443" lon="0.72203">
        <ele>110</ele>
        <time>2021-10-24T11:12:30Z</time>
      </trkpt>
      <trkpt lat="45.18442" lon="0.72206">
        <ele>110.1</ele>
        <time>2021-10-24T11:12:32Z</time>
      </trkpt>
      <trkpt lat="45.18442" lon="0.7221">
        <ele>110.1</ele>
        <time>2021-10-24T11:12:33Z</time>
      </trkpt>
      <trkpt lat="45.18442" lon="0.72212">
        <ele>110.1</ele>
        <time>2021-10-24T11:12:34Z</time>
      </trkpt>
      <trkpt lat="45.18441" lon="0.72216">
        <ele>110.1</ele>
        <time>2021-10-24T11:12:36Z</time>
      </trkpt>
      <trkpt lat="45.1844" lon="0.72217">
        <ele>110.1</ele>
        <time>2021-10-24T11:12:37Z</time>
      </trkpt>
      <trkpt lat="45.1844" lon="0.72219">
        <ele>110.1</ele>
        <time>2021-10-24T11:12:38Z</time>
      </trkpt>
      <trkpt lat="45.1844" lon="0.72223">
        <ele>110.1</ele>
        <time>2021-10-24T11:12:40Z</time>
      </trkpt>
      <trkpt lat="45.1844" lon="0.72225">
        <ele>110.1</ele>
        <time>2021-10-24T11:12:41Z</time>
      </trkpt>
      <trkpt lat="45.18438" lon="0.72226">
        <ele>110.1</ele>
        <time>2021-10-24T11:12:43Z</time>
      </trkpt>
      <trkpt lat="45.18436" lon="0.72227">
        <ele>110.1</ele>
        <time>2021-10-24T11:12:44Z</time>
      </trkpt>
      <trkpt lat="45.18435" lon="0.72228">
        <ele>110.1</ele>
        <time>2021-10-24T11:12:45Z</time>
      </trkpt>
      <trkpt lat="45.18433" lon="0.72229">
        <ele>110.1</ele>
        <time>2021-10-24T11:12:47Z</time>
      </trkpt>
      <trkpt lat="45.18432" lon="0.72228">
        <ele>110.1</ele>
        <time>2021-10-24T11:12:48Z</time>
      </trkpt>
      <trkpt lat="45.18429" lon="0.72225">
        <ele>110.1</ele>
        <time>2021-10-24T11:12:50Z</time>
      </trkpt>
      <trkpt lat="45.18428" lon="0.72221">
        <ele>110.1</ele>
        <time>2021-10-24T11:12:51Z</time>
      </trkpt>
      <trkpt lat="45.18427" lon="0.7222">
        <ele>110.1</ele>
        <time>2021-10-24T11:12:52Z</time>
      </trkpt>
      <trkpt lat="45.18427" lon="0.72217">
        <ele>110.1</ele>
        <time>2021-10-24T11:12:53Z</time>
      </trkpt>
      <trkpt lat="45.18426" lon="0.72216">
        <ele>110.1</ele>
        <time>2021-10-24T11:12:54Z</time>
      </trkpt>
      <trkpt lat="45.18426" lon="0.72215">
        <ele>110.1</ele>
        <time>2021-10-24T11:12:55Z</time>
      </trkpt>
      <trkpt lat="45.18427" lon="0.72213">
        <ele>110.1</ele>
        <time>2021-10-24T11:12:57Z</time>
      </trkpt>
      <trkpt lat="45.18427" lon="0.72212">
        <ele>110.1</ele>
        <time>2021-10-24T11:12:58Z</time>
      </trkpt>
      <trkpt lat="45.18428" lon="0.72211">
        <ele>110.1</ele>
        <time>2021-10-24T11:12:59Z</time>
      </trkpt>
      <trkpt lat="45.18429" lon="0.72209">
        <ele>110.1</ele>
        <time>2021-10-24T11:13:01Z</time>
      </trkpt>
      <trkpt lat="45.18429" lon="0.72206">
        <ele>110.1</ele>
        <time>2021-10-24T11:13:03Z</time>
      </trkpt>
      <trkpt lat="45.18428" lon="0.72204">
        <ele>110.1</ele>
        <time>2021-10-24T11:13:05Z</time>
      </trkpt>
      <trkpt lat="45.18428" lon="0.72204">
        <ele>110.1</ele>
        <time>2021-10-24T11:13:07Z</time>
      </trkpt>
      <trkpt lat="45.18426" lon="0.72203">
        <ele>110.1</ele>
        <time>2021-10-24T11:13:08Z</time>
      </trkpt>
      <trkpt lat="45.18426" lon="0.72202">
        <ele>110.1</ele>
        <time>2021-10-24T11:13:10Z</time>
      </trkpt>
      <trkpt lat="45.18427" lon="0.72202">
        <ele>110.1</ele>
        <time>2021-10-24T11:13:12Z</time>
      </trkpt>
      <trkpt lat="45.18427" lon="0.72201">
        <ele>110.1</ele>
        <time>2021-10-24T11:13:13Z</time>
      </trkpt>
      <trkpt lat="45.18428" lon="0.72201">
        <ele>110.1</ele>
        <time>2021-10-24T11:13:15Z</time>
      </trkpt>
      <trkpt lat="45.18428" lon="0.72201">
        <ele>110.1</ele>
        <time>2021-10-24T11:13:16Z</time>
      </trkpt>
      <trkpt lat="45.18429" lon="0.722">
        <ele>110.1</ele>
        <time>2021-10-24T11:13:17Z</time>
      </trkpt>
      <trkpt lat="45.18429" lon="0.722">
        <ele>110.1</ele>
        <time>2021-10-24T11:13:18Z</time>
      </trkpt>
      <trkpt lat="45.1843" lon="0.72199">
        <ele>110.1</ele>
        <time>2021-10-24T11:13:20Z</time>
      </trkpt>
      <trkpt lat="45.1843" lon="0.72199">
        <ele>110.1</ele>
        <time>2021-10-24T11:13:21Z</time>
      </trkpt>
      <trkpt lat="45.1843" lon="0.72199">
        <ele>110</ele>
        <time>2021-10-24T11:13:23Z</time>
      </trkpt>
      <trkpt lat="45.18431" lon="0.72198">
        <ele>110</ele>
        <time>2021-10-24T11:13:25Z</time>
      </trkpt>
      <trkpt lat="45.18431" lon="0.72198">
        <ele>110</ele>
        <time>2021-10-24T11:13:26Z</time>
      </trkpt>
      <trkpt lat="45.18432" lon="0.72197">
        <ele>110</ele>
        <time>2021-10-24T11:13:28Z</time>
      </trkpt>
      <trkpt lat="45.18432" lon="0.72197">
        <ele>110</ele>
        <time>2021-10-24T11:13:29Z</time>
      </trkpt>
      <trkpt lat="45.18433" lon="0.72197">
        <ele>110</ele>
        <time>2021-10-24T11:13:30Z</time>
      </trkpt>
      <trkpt lat="45.18433" lon="0.72196">
        <ele>110</ele>
        <time>2021-10-24T11:13:31Z</time>
      </trkpt>
      <trkpt lat="45.18438" lon="0.72199">
        <ele>110</ele>
        <time>2021-10-24T11:13:32Z</time>
      </trkpt>
      <trkpt lat="45.18442" lon="0.722">
        <ele>110</ele>
        <time>2021-10-24T11:13:33Z</time>
      </trkpt>
      <trkpt lat="45.18445" lon="0.722">
        <ele>109.9</ele>
        <time>2021-10-24T11:13:35Z</time>
      </trkpt>
      <trkpt lat="45.18447" lon="0.72201">
        <ele>109.9</ele>
        <time>2021-10-24T11:13:36Z</time>
      </trkpt>
      <trkpt lat="45.18449" lon="0.72201">
        <ele>109.9</ele>
        <time>2021-10-24T11:13:37Z</time>
      </trkpt>
      <trkpt lat="45.18452" lon="0.722">
        <ele>109.9</ele>
        <time>2021-10-24T11:13:39Z</time>
      </trkpt>
      <trkpt lat="45.18454" lon="0.722">
        <ele>109.9</ele>
        <time>2021-10-24T11:13:40Z</time>
      </trkpt>
      <trkpt lat="45.18456" lon="0.722">
        <ele>109.8</ele>
        <time>2021-10-24T11:13:41Z</time>
      </trkpt>
      <trkpt lat="45.18457" lon="0.722">
        <ele>109.6</ele>
        <time>2021-10-24T11:13:42Z</time>
      </trkpt>
      <trkpt lat="45.18458" lon="0.722">
        <ele>109.6</ele>
        <time>2021-10-24T11:13:43Z</time>
      </trkpt>
      <trkpt lat="45.18459" lon="0.72201">
        <ele>109.6</ele>
        <time>2021-10-24T11:13:45Z</time>
      </trkpt>
      <trkpt lat="45.1846" lon="0.72202">
        <ele>109.6</ele>
        <time>2021-10-24T11:13:46Z</time>
      </trkpt>
      <trkpt lat="45.1846" lon="0.72202">
        <ele>109.6</ele>
        <time>2021-10-24T11:13:47Z</time>
      </trkpt>
      <trkpt lat="45.1846" lon="0.72203">
        <ele>109.6</ele>
        <time>2021-10-24T11:13:48Z</time>
      </trkpt>
      <trkpt lat="45.18461" lon="0.72203">
        <ele>109.6</ele>
        <time>2021-10-24T11:13:49Z</time>
      </trkpt>
      <trkpt lat="45.18461" lon="0.72202">
        <ele>109.6</ele>
        <time>2021-10-24T11:13:50Z</time>
      </trkpt>
      <trkpt lat="45.18461" lon="0.72201">
        <ele>109.6</ele>
        <time>2021-10-24T11:13:51Z</time>
      </trkpt>
      <trkpt lat="45.18461" lon="0.72199">
        <ele>109.6</ele>
        <time>2021-10-24T11:13:52Z</time>
      </trkpt>
      <trkpt lat="45.1846" lon="0.72198">
        <ele>109.6</ele>
        <time>2021-10-24T11:13:54Z</time>
      </trkpt>
      <trkpt lat="45.1846" lon="0.72196">
        <ele>109.6</ele>
        <time>2021-10-24T11:13:55Z</time>
      </trkpt>
      <trkpt lat="45.18459" lon="0.72195">
        <ele>109.6</ele>
        <time>2021-10-24T11:13:56Z</time>
      </trkpt>
      <trkpt lat="45.18458" lon="0.72193">
        <ele>109.6</ele>
        <time>2021-10-24T11:13:57Z</time>
      </trkpt>
      <trkpt lat="45.18459" lon="0.7219">
        <ele>109.6</ele>
        <time>2021-10-24T11:13:59Z</time>
      </trkpt>
      <trkpt lat="45.18459" lon="0.72189">
        <ele>109.6</ele>
        <time>2021-10-24T11:14:00Z</time>
      </trkpt>
      <trkpt lat="45.18459" lon="0.72188">
        <ele>109.3</ele>
        <time>2021-10-24T11:14:01Z</time>
      </trkpt>
      <trkpt lat="45.18459" lon="0.72183">
        <ele>109.3</ele>
        <time>2021-10-24T11:14:03Z</time>
      </trkpt>
      <trkpt lat="45.1846" lon="0.72181">
        <ele>109.3</ele>
        <time>2021-10-24T11:14:04Z</time>
      </trkpt>
      <trkpt lat="45.1846" lon="0.72178">
        <ele>109.4</ele>
        <time>2021-10-24T11:14:06Z</time>
      </trkpt>
      <trkpt lat="45.1846" lon="0.72177">
        <ele>109.4</ele>
        <time>2021-10-24T11:14:07Z</time>
      </trkpt>
      <trkpt lat="45.1846" lon="0.72176">
        <ele>109.4</ele>
        <time>2021-10-24T11:14:08Z</time>
      </trkpt>
      <trkpt lat="45.18459" lon="0.72174">
        <ele>109.4</ele>
        <time>2021-10-24T11:14:09Z</time>
      </trkpt>
      <trkpt lat="45.18459" lon="0.72172">
        <ele>109.4</ele>
        <time>2021-10-24T11:14:10Z</time>
      </trkpt>
      <trkpt lat="45.18459" lon="0.72171">
        <ele>109.5</ele>
        <time>2021-10-24T11:14:11Z</time>
      </trkpt>
      <trkpt lat="45.18459" lon="0.72167">
        <ele>109.5</ele>
        <time>2021-10-24T11:14:13Z</time>
      </trkpt>
      <trkpt lat="45.18459" lon="0.72164">
        <ele>109.5</ele>
        <time>2021-10-24T11:14:14Z</time>
      </trkpt>
      <trkpt lat="45.18459" lon="0.72163">
        <ele>109.5</ele>
        <time>2021-10-24T11:14:15Z</time>
      </trkpt>
      <trkpt lat="45.18459" lon="0.72162">
        <ele>109.5</ele>
        <time>2021-10-24T11:14:16Z</time>
      </trkpt>
      <trkpt lat="45.18459" lon="0.72158">
        <ele>109.6</ele>
        <time>2021-10-24T11:14:18Z</time>
      </trkpt>
      <trkpt lat="45.18459" lon="0.72156">
        <ele>109.6</ele>
        <time>2021-10-24T11:14:19Z</time>
      </trkpt>
      <trkpt lat="45.18458" lon="0.72154">
        <ele>109.6</ele>
        <time>2021-10-24T11:14:20Z</time>
      </trkpt>
      <trkpt lat="45.18454" lon="0.72149">
        <ele>109.7</ele>
        <time>2021-10-24T11:14:21Z</time>
      </trkpt>
      <trkpt lat="45.18452" lon="0.72146">
        <ele>109.7</ele>
        <time>2021-10-24T11:14:22Z</time>
      </trkpt>
      <trkpt lat="45.1845" lon="0.72143">
        <ele>109.7</ele>
        <time>2021-10-24T11:14:23Z</time>
      </trkpt>
      <trkpt lat="45.18449" lon="0.72141">
        <ele>109.8</ele>
        <time>2021-10-24T11:14:24Z</time>
      </trkpt>
      <trkpt lat="45.18449" lon="0.72139">
        <ele>109.8</ele>
        <time>2021-10-24T11:14:25Z</time>
      </trkpt>
      <trkpt lat="45.18449" lon="0.72138">
        <ele>109.8</ele>
        <time>2021-10-24T11:14:27Z</time>
      </trkpt>
      <trkpt lat="45.18448" lon="0.72136">
        <ele>109.8</ele>
        <time>2021-10-24T11:14:28Z</time>
      </trkpt>
      <trkpt lat="45.18448" lon="0.72134">
        <ele>109.8</ele>
        <time>2021-10-24T11:14:29Z</time>
      </trkpt>
      <trkpt lat="45.18448" lon="0.72133">
        <ele>109.8</ele>
        <time>2021-10-24T11:14:30Z</time>
      </trkpt>
      <trkpt lat="45.18447" lon="0.72132">
        <ele>109.8</ele>
        <time>2021-10-24T11:14:31Z</time>
      </trkpt>
      <trkpt lat="45.18447" lon="0.72131">
        <ele>109.8</ele>
        <time>2021-10-24T11:14:32Z</time>
      </trkpt>
      <trkpt lat="45.18447" lon="0.72129">
        <ele>109.8</ele>
        <time>2021-10-24T11:14:33Z</time>
      </trkpt>
      <trkpt lat="45.18447" lon="0.72128">
        <ele>109.8</ele>
        <time>2021-10-24T11:14:34Z</time>
      </trkpt>
      <trkpt lat="45.18448" lon="0.72127">
        <ele>109.8</ele>
        <time>2021-10-24T11:14:36Z</time>
      </trkpt>
      <trkpt lat="45.18447" lon="0.72125">
        <ele>109.8</ele>
        <time>2021-10-24T11:14:37Z</time>
      </trkpt>
      <trkpt lat="45.18447" lon="0.72124">
        <ele>109.8</ele>
        <time>2021-10-24T11:14:38Z</time>
      </trkpt>
      <trkpt lat="45.18448" lon="0.72122">
        <ele>109.7</ele>
        <time>2021-10-24T11:14:39Z</time>
      </trkpt>
      <trkpt lat="45.18448" lon="0.7212">
        <ele>109.7</ele>
        <time>2021-10-24T11:14:40Z</time>
      </trkpt>
      <trkpt lat="45.18449" lon="0.72118">
        <ele>109.7</ele>
        <time>2021-10-24T11:14:42Z</time>
      </trkpt>
      <trkpt lat="45.1845" lon="0.72117">
        <ele>109.7</ele>
        <time>2021-10-24T11:14:43Z</time>
      </trkpt>
      <trkpt lat="45.1845" lon="0.72114">
        <ele>109.7</ele>
        <time>2021-10-24T11:14:44Z</time>
      </trkpt>
      <trkpt lat="45.18451" lon="0.72111">
        <ele>109.6</ele>
        <time>2021-10-24T11:14:45Z</time>
      </trkpt>
      <trkpt lat="45.18452" lon="0.72109">
        <ele>109.6</ele>
        <time>2021-10-24T11:14:46Z</time>
      </trkpt>
      <trkpt lat="45.18452" lon="0.72105">
        <ele>109.6</ele>
        <time>2021-10-24T11:14:48Z</time>
      </trkpt>
      <trkpt lat="45.18452" lon="0.72103">
        <ele>109.6</ele>
        <time>2021-10-24T11:14:49Z</time>
      </trkpt>
      <trkpt lat="45.18452" lon="0.72099">
        <ele>109.5</ele>
        <time>2021-10-24T11:14:51Z</time>
      </trkpt>
      <trkpt lat="45.18452" lon="0.72098">
        <ele>109.5</ele>
        <time>2021-10-24T11:14:52Z</time>
      </trkpt>
      <trkpt lat="45.18452" lon="0.72096">
        <ele>109.5</ele>
        <time>2021-10-24T11:14:54Z</time>
      </trkpt>
      <trkpt lat="45.18451" lon="0.72094">
        <ele>109.5</ele>
        <time>2021-10-24T11:14:55Z</time>
      </trkpt>
      <trkpt lat="45.18451" lon="0.72091">
        <ele>109.4</ele>
        <time>2021-10-24T11:14:57Z</time>
      </trkpt>
      <trkpt lat="45.18451" lon="0.72089">
        <ele>109.4</ele>
        <time>2021-10-24T11:14:58Z</time>
      </trkpt>
      <trkpt lat="45.1845" lon="0.72086">
        <ele>109.4</ele>
        <time>2021-10-24T11:14:59Z</time>
      </trkpt>
      <trkpt lat="45.18449" lon="0.72082">
        <ele>109.3</ele>
        <time>2021-10-24T11:15:01Z</time>
      </trkpt>
      <trkpt lat="45.18448" lon="0.7208">
        <ele>109.3</ele>
        <time>2021-10-24T11:15:02Z</time>
      </trkpt>
      <trkpt lat="45.18448" lon="0.72078">
        <ele>109.3</ele>
        <time>2021-10-24T11:15:03Z</time>
      </trkpt>
      <trkpt lat="45.18448" lon="0.72076">
        <ele>109.2</ele>
        <time>2021-10-24T11:15:04Z</time>
      </trkpt>
      <trkpt lat="45.18448" lon="0.72075">
        <ele>109.2</ele>
        <time>2021-10-24T11:15:05Z</time>
      </trkpt>
      <trkpt lat="45.18447" lon="0.72073">
        <ele>109.2</ele>
        <time>2021-10-24T11:15:06Z</time>
      </trkpt>
      <trkpt lat="45.18447" lon="0.7207">
        <ele>109.2</ele>
        <time>2021-10-24T11:15:07Z</time>
      </trkpt>
      <trkpt lat="45.18447" lon="0.72069">
        <ele>109.2</ele>
        <time>2021-10-24T11:15:08Z</time>
      </trkpt>
      <trkpt lat="45.18447" lon="0.72068">
        <ele>109.2</ele>
        <time>2021-10-24T11:15:09Z</time>
      </trkpt>
      <trkpt lat="45.18447" lon="0.72067">
        <ele>109.2</ele>
        <time>2021-10-24T11:15:11Z</time>
      </trkpt>
      <trkpt lat="45.18448" lon="0.72065">
        <ele>109.1</ele>
        <time>2021-10-24T11:15:12Z</time>
      </trkpt>
      <trkpt lat="45.18448" lon="0.72065">
        <ele>109.1</ele>
        <time>2021-10-24T11:15:13Z</time>
      </trkpt>
      <trkpt lat="45.18449" lon="0.72063">
        <ele>109.1</ele>
        <time>2021-10-24T11:15:14Z</time>
      </trkpt>
      <trkpt lat="45.18449" lon="0.72062">
        <ele>109.1</ele>
        <time>2021-10-24T11:15:15Z</time>
      </trkpt>
      <trkpt lat="45.18449" lon="0.72061">
        <ele>109.1</ele>
        <time>2021-10-24T11:15:16Z</time>
      </trkpt>
      <trkpt lat="45.1845" lon="0.7206">
        <ele>109.1</ele>
        <time>2021-10-24T11:15:18Z</time>
      </trkpt>
      <trkpt lat="45.1845" lon="0.7206">
        <ele>109.1</ele>
        <time>2021-10-24T11:15:19Z</time>
      </trkpt>
      <trkpt lat="45.1845" lon="0.7206">
        <ele>109.1</ele>
        <time>2021-10-24T11:15:20Z</time>
      </trkpt>
      <trkpt lat="45.18451" lon="0.7206">
        <ele>109.1</ele>
        <time>2021-10-24T11:15:22Z</time>
      </trkpt>
      <trkpt lat="45.18451" lon="0.7206">
        <ele>109.1</ele>
        <time>2021-10-24T11:15:23Z</time>
      </trkpt>
      <trkpt lat="45.18451" lon="0.72059">
        <ele>109.1</ele>
        <time>2021-10-24T11:15:25Z</time>
      </trkpt>
      <trkpt lat="45.18451" lon="0.72058">
        <ele>109.1</ele>
        <time>2021-10-24T11:15:26Z</time>
      </trkpt>
      <trkpt lat="45.18451" lon="0.72057">
        <ele>109</ele>
        <time>2021-10-24T11:15:27Z</time>
      </trkpt>
      <trkpt lat="45.18451" lon="0.72053">
        <ele>109</ele>
        <time>2021-10-24T11:15:29Z</time>
      </trkpt>
      <trkpt lat="45.18451" lon="0.72051">
        <ele>109</ele>
        <time>2021-10-24T11:15:30Z</time>
      </trkpt>
      <trkpt lat="45.18451" lon="0.72049">
        <ele>109</ele>
        <time>2021-10-24T11:15:31Z</time>
      </trkpt>
      <trkpt lat="45.18451" lon="0.72046">
        <ele>108.9</ele>
        <time>2021-10-24T11:15:32Z</time>
      </trkpt>
      <trkpt lat="45.18451" lon="0.72045">
        <ele>108.9</ele>
        <time>2021-10-24T11:15:33Z</time>
      </trkpt>
      <trkpt lat="45.18451" lon="0.72042">
        <ele>108.9</ele>
        <time>2021-10-24T11:15:35Z</time>
      </trkpt>
      <trkpt lat="45.18451" lon="0.7204">
        <ele>108.9</ele>
        <time>2021-10-24T11:15:36Z</time>
      </trkpt>
      <trkpt lat="45.18452" lon="0.72038">
        <ele>108.9</ele>
        <time>2021-10-24T11:15:37Z</time>
      </trkpt>
      <trkpt lat="45.18452" lon="0.72036">
        <ele>108.9</ele>
        <time>2021-10-24T11:15:38Z</time>
      </trkpt>
      <trkpt lat="45.18453" lon="0.72035">
        <ele>108.9</ele>
        <time>2021-10-24T11:15:40Z</time>
      </trkpt>
      <trkpt lat="45.18454" lon="0.72034">
        <ele>108.9</ele>
        <time>2021-10-24T11:15:41Z</time>
      </trkpt>
      <trkpt lat="45.18455" lon="0.72033">
        <ele>108.9</ele>
        <time>2021-10-24T11:15:43Z</time>
      </trkpt>
      <trkpt lat="45.18456" lon="0.72033">
        <ele>108.9</ele>
        <time>2021-10-24T11:15:44Z</time>
      </trkpt>
      <trkpt lat="45.18456" lon="0.72032">
        <ele>108.9</ele>
        <time>2021-10-24T11:15:45Z</time>
      </trkpt>
      <trkpt lat="45.18456" lon="0.72031">
        <ele>108.9</ele>
        <time>2021-10-24T11:15:46Z</time>
      </trkpt>
      <trkpt lat="45.18456" lon="0.72031">
        <ele>108.9</ele>
        <time>2021-10-24T11:15:47Z</time>
      </trkpt>
      <trkpt lat="45.18456" lon="0.72031">
        <ele>108.9</ele>
        <time>2021-10-24T11:15:48Z</time>
      </trkpt>
      <trkpt lat="45.18456" lon="0.72031">
        <ele>108.9</ele>
        <time>2021-10-24T11:15:49Z</time>
      </trkpt>
      <trkpt lat="45.18456" lon="0.7203">
        <ele>108.9</ele>
        <time>2021-10-24T11:15:50Z</time>
      </trkpt>
      <trkpt lat="45.18456" lon="0.7203">
        <ele>108.9</ele>
        <time>2021-10-24T11:15:51Z</time>
      </trkpt>
      <trkpt lat="45.18455" lon="0.7203">
        <ele>108.9</ele>
        <time>2021-10-24T11:15:53Z</time>
      </trkpt>
      <trkpt lat="45.18455" lon="0.72029">
        <ele>108.9</ele>
        <time>2021-10-24T11:15:55Z</time>
      </trkpt>
      <trkpt lat="45.18455" lon="0.72029">
        <ele>108.9</ele>
        <time>2021-10-24T11:15:56Z</time>
      </trkpt>
      <trkpt lat="45.18455" lon="0.72028">
        <ele>108.9</ele>
        <time>2021-10-24T11:15:57Z</time>
      </trkpt>
      <trkpt lat="45.18456" lon="0.72028">
        <ele>108.9</ele>
        <time>2021-10-24T11:15:59Z</time>
      </trkpt>
      <trkpt lat="45.18456" lon="0.72028">
        <ele>108.9</ele>
        <time>2021-10-24T11:16:00Z</time>
      </trkpt>
      <trkpt lat="45.18456" lon="0.72028">
        <ele>108.9</ele>
        <time>2021-10-24T11:16:01Z</time>
      </trkpt>
      <trkpt lat="45.18457" lon="0.72028">
        <ele>108.9</ele>
        <time>2021-10-24T11:16:02Z</time>
      </trkpt>
      <trkpt lat="45.18457" lon="0.72028">
        <ele>108.9</ele>
        <time>2021-10-24T11:16:04Z</time>
      </trkpt>
      <trkpt lat="45.18458" lon="0.72027">
        <ele>108.9</ele>
        <time>2021-10-24T11:16:05Z</time>
      </trkpt>
      <trkpt lat="45.18458" lon="0.72027">
        <ele>108.9</ele>
        <time>2021-10-24T11:16:07Z</time>
      </trkpt>
      <trkpt lat="45.18459" lon="0.72027">
        <ele>108.9</ele>
        <time>2021-10-24T11:16:08Z</time>
      </trkpt>
      <trkpt lat="45.18459" lon="0.72027">
        <ele>108.9</ele>
        <time>2021-10-24T11:16:09Z</time>
      </trkpt>
      <trkpt lat="45.18459" lon="0.72027">
        <ele>108.9</ele>
        <time>2021-10-24T11:16:11Z</time>
      </trkpt>
      <trkpt lat="45.1846" lon="0.72027">
        <ele>108.9</ele>
        <time>2021-10-24T11:16:12Z</time>
      </trkpt>
      <trkpt lat="45.1846" lon="0.72027">
        <ele>108.9</ele>
        <time>2021-10-24T11:16:14Z</time>
      </trkpt>
      <trkpt lat="45.1846" lon="0.72027">
        <ele>108.9</ele>
        <time>2021-10-24T11:16:15Z</time>
      </trkpt>
      <trkpt lat="45.1846" lon="0.72028">
        <ele>108.9</ele>
        <time>2021-10-24T11:16:17Z</time>
      </trkpt>
      <trkpt lat="45.18461" lon="0.72029">
        <ele>108.9</ele>
        <time>2021-10-24T11:16:19Z</time>
      </trkpt>
      <trkpt lat="45.18461" lon="0.7203">
        <ele>108.9</ele>
        <time>2021-10-24T11:16:20Z</time>
      </trkpt>
      <trkpt lat="45.18461" lon="0.7203">
        <ele>108.9</ele>
        <time>2021-10-24T11:16:21Z</time>
      </trkpt>
      <trkpt lat="45.18462" lon="0.72031">
        <ele>108.9</ele>
        <time>2021-10-24T11:16:23Z</time>
      </trkpt>
      <trkpt lat="45.18462" lon="0.72031">
        <ele>108.9</ele>
        <time>2021-10-24T11:16:24Z</time>
      </trkpt>
      <trkpt lat="45.18462" lon="0.72031">
        <ele>108.9</ele>
        <time>2021-10-24T11:16:25Z</time>
      </trkpt>
      <trkpt lat="45.18462" lon="0.72031">
        <ele>108.9</ele>
        <time>2021-10-24T11:16:26Z</time>
      </trkpt>
      <trkpt lat="45.18462" lon="0.72032">
        <ele>108.9</ele>
        <time>2021-10-24T11:16:28Z</time>
      </trkpt>
      <trkpt lat="45.18462" lon="0.72033">
        <ele>108.9</ele>
        <time>2021-10-24T11:16:30Z</time>
      </trkpt>
      <trkpt lat="45.18462" lon="0.72034">
        <ele>108.9</ele>
        <time>2021-10-24T11:16:31Z</time>
      </trkpt>
      <trkpt lat="45.18461" lon="0.72034">
        <ele>108.9</ele>
        <time>2021-10-24T11:18:07Z</time>
      </trkpt>
      <trkpt lat="45.18462" lon="0.72028">
        <ele>108.9</ele>
        <time>2021-10-24T11:18:09Z</time>
      </trkpt>
      <trkpt lat="45.18464" lon="0.72023">
        <ele>108.9</ele>
        <time>2021-10-24T11:18:10Z</time>
      </trkpt>
      <trkpt lat="45.18466" lon="0.72021">
        <ele>108.9</ele>
        <time>2021-10-24T11:18:11Z</time>
      </trkpt>
      <trkpt lat="45.18471" lon="0.72019">
        <ele>108.9</ele>
        <time>2021-10-24T11:18:13Z</time>
      </trkpt>
      <trkpt lat="45.18471" lon="0.72019">
        <ele>108.9</ele>
        <time>2021-10-24T11:18:14Z</time>
      </trkpt>
      <trkpt lat="45.18472" lon="0.72019">
        <ele>108.9</ele>
        <time>2021-10-24T11:18:16Z</time>
      </trkpt>
      <trkpt lat="45.18472" lon="0.72019">
        <ele>108.9</ele>
        <time>2021-10-24T11:18:18Z</time>
      </trkpt>
      <trkpt lat="45.18472" lon="0.72019">
        <ele>108.9</ele>
        <time>2021-10-24T11:18:20Z</time>
      </trkpt>
      <trkpt lat="45.18472" lon="0.72018">
        <ele>108.9</ele>
        <time>2021-10-24T11:18:21Z</time>
      </trkpt>
      <trkpt lat="45.18473" lon="0.72018">
        <ele>108.9</ele>
        <time>2021-10-24T11:18:23Z</time>
      </trkpt>
      <trkpt lat="45.18473" lon="0.72017">
        <ele>108.9</ele>
        <time>2021-10-24T11:18:24Z</time>
      </trkpt>
      <trkpt lat="45.18474" lon="0.72017">
        <ele>108.9</ele>
        <time>2021-10-24T11:18:25Z</time>
      </trkpt>
      <trkpt lat="45.18475" lon="0.72017">
        <ele>108.9</ele>
        <time>2021-10-24T11:18:27Z</time>
      </trkpt>
      <trkpt lat="45.18475" lon="0.72017">
        <ele>108.9</ele>
        <time>2021-10-24T11:18:30Z</time>
      </trkpt>
      <trkpt lat="45.18475" lon="0.72017">
        <ele>108.9</ele>
        <time>2021-10-24T11:18:31Z</time>
      </trkpt>
      <trkpt lat="45.18476" lon="0.72016">
        <ele>108.9</ele>
        <time>2021-10-24T11:18:33Z</time>
      </trkpt>
      <trkpt lat="45.18476" lon="0.72016">
        <ele>108.9</ele>
        <time>2021-10-24T11:18:34Z</time>
      </trkpt>
      <trkpt lat="45.18477" lon="0.72016">
        <ele>108.9</ele>
        <time>2021-10-24T11:18:36Z</time>
      </trkpt>
      <trkpt lat="45.18477" lon="0.72016">
        <ele>108.9</ele>
        <time>2021-10-24T11:18:37Z</time>
      </trkpt>
      <trkpt lat="45.18478" lon="0.72016">
        <ele>108.9</ele>
        <time>2021-10-24T11:18:38Z</time>
      </trkpt>
      <trkpt lat="45.18478" lon="0.72016">
        <ele>108.9</ele>
        <time>2021-10-24T11:18:40Z</time>
      </trkpt>
      <trkpt lat="45.18479" lon="0.72016">
        <ele>108.9</ele>
        <time>2021-10-24T11:18:42Z</time>
      </trkpt>
      <trkpt lat="45.18479" lon="0.72016">
        <ele>108.9</ele>
        <time>2021-10-24T11:18:43Z</time>
      </trkpt>
      <trkpt lat="45.1848" lon="0.72016">
        <ele>108.9</ele>
        <time>2021-10-24T11:18:45Z</time>
      </trkpt>
      <trkpt lat="45.1848" lon="0.72016">
        <ele>108.9</ele>
        <time>2021-10-24T11:18:47Z</time>
      </trkpt>
      <trkpt lat="45.18481" lon="0.72016">
        <ele>108.9</ele>
        <time>2021-10-24T11:18:48Z</time>
      </trkpt>
      <trkpt lat="45.18481" lon="0.72016">
        <ele>108.9</ele>
        <time>2021-10-24T11:18:50Z</time>
      </trkpt>
      <trkpt lat="45.18482" lon="0.72016">
        <ele>108.9</ele>
        <time>2021-10-24T11:18:52Z</time>
      </trkpt>
      <trkpt lat="45.18482" lon="0.72016">
        <ele>108.9</ele>
        <time>2021-10-24T11:18:54Z</time>
      </trkpt>
      <trkpt lat="45.18483" lon="0.72016">
        <ele>108.9</ele>
        <time>2021-10-24T11:18:55Z</time>
      </trkpt>
      <trkpt lat="45.18483" lon="0.72016">
        <ele>108.9</ele>
        <time>2021-10-24T11:18:56Z</time>
      </trkpt>
      <trkpt lat="45.18485" lon="0.72013">
        <ele>108.9</ele>
        <time>2021-10-24T11:18:58Z</time>
      </trkpt>
      <trkpt lat="45.18485" lon="0.72006">
        <ele>108.9</ele>
        <time>2021-10-24T11:19:00Z</time>
      </trkpt>
      <trkpt lat="45.18481" lon="0.72005">
        <ele>108.9</ele>
        <time>2021-10-24T11:19:02Z</time>
      </trkpt>
      <trkpt lat="45.18478" lon="0.72003">
        <ele>108.9</ele>
        <time>2021-10-24T11:19:04Z</time>
      </trkpt>
      <trkpt lat="45.18475" lon="0.72008">
        <ele>108.9</ele>
        <time>2021-10-24T11:19:05Z</time>
      </trkpt>
      <trkpt lat="45.18475" lon="0.72014">
        <ele>108.9</ele>
        <time>2021-10-24T11:19:07Z</time>
      </trkpt>
      <trkpt lat="45.18477" lon="0.72018">
        <ele>108.9</ele>
        <time>2021-10-24T11:19:08Z</time>
      </trkpt>
      <trkpt lat="45.18466" lon="0.71993">
        <ele>108.9</ele>
        <time>2021-10-24T11:21:03Z</time>
      </trkpt>
      <trkpt lat="45.18481" lon="0.72003">
        <ele>108.9</ele>
        <time>2021-10-24T11:21:05Z</time>
      </trkpt>
      <trkpt lat="45.18481" lon="0.72003">
        <ele>108.9</ele>
        <time>2021-10-24T11:21:06Z</time>
      </trkpt>
      <trkpt lat="45.18481" lon="0.72003">
        <ele>108.9</ele>
        <time>2021-10-24T11:21:08Z</time>
      </trkpt>
      <trkpt lat="45.18481" lon="0.72002">
        <ele>108.9</ele>
        <time>2021-10-24T11:21:10Z</time>
      </trkpt>
      <trkpt lat="45.18482" lon="0.72001">
        <ele>108.9</ele>
        <time>2021-10-24T11:21:11Z</time>
      </trkpt>
      <trkpt lat="45.18482" lon="0.72001">
        <ele>108.9</ele>
        <time>2021-10-24T11:21:12Z</time>
      </trkpt>
      <trkpt lat="45.18482" lon="0.72001">
        <ele>108.9</ele>
        <time>2021-10-24T11:21:14Z</time>
      </trkpt>
      <trkpt lat="45.18481" lon="0.71998">
        <ele>108.9</ele>
        <time>2021-10-24T11:21:16Z</time>
      </trkpt>
      <trkpt lat="45.1848" lon="0.71997">
        <ele>108.9</ele>
        <time>2021-10-24T11:21:18Z</time>
      </trkpt>
      <trkpt lat="45.18479" lon="0.71998">
        <ele>108.9</ele>
        <time>2021-10-24T11:21:20Z</time>
      </trkpt>
      <trkpt lat="45.18478" lon="0.71997">
        <ele>108.9</ele>
        <time>2021-10-24T11:21:22Z</time>
      </trkpt>
      <trkpt lat="45.18478" lon="0.71998">
        <ele>108.9</ele>
        <time>2021-10-24T11:21:24Z</time>
      </trkpt>
      <trkpt lat="45.18479" lon="0.71998">
        <ele>108.9</ele>
        <time>2021-10-24T11:21:25Z</time>
      </trkpt>
      <trkpt lat="45.18478" lon="0.71999">
        <ele>108.9</ele>
        <time>2021-10-24T11:21:26Z</time>
      </trkpt>
      <trkpt lat="45.18477" lon="0.72001">
        <ele>108.9</ele>
        <time>2021-10-24T11:21:28Z</time>
      </trkpt>
      <trkpt lat="45.18476" lon="0.72001">
        <ele>108.9</ele>
        <time>2021-10-24T11:21:29Z</time>
      </trkpt>
      <trkpt lat="45.18475" lon="0.72003">
        <ele>108.9</ele>
        <time>2021-10-24T11:21:31Z</time>
      </trkpt>
      <trkpt lat="45.18475" lon="0.72004">
        <ele>108.9</ele>
        <time>2021-10-24T11:21:32Z</time>
      </trkpt>
      <trkpt lat="45.18475" lon="0.72007">
        <ele>108.9</ele>
        <time>2021-10-24T11:21:34Z</time>
      </trkpt>
      <trkpt lat="45.18475" lon="0.72007">
        <ele>108.9</ele>
        <time>2021-10-24T11:21:35Z</time>
      </trkpt>
      <trkpt lat="45.18475" lon="0.72007">
        <ele>108.9</ele>
        <time>2021-10-24T11:21:37Z</time>
      </trkpt>
      <trkpt lat="45.18475" lon="0.72008">
        <ele>108.9</ele>
        <time>2021-10-24T11:21:39Z</time>
      </trkpt>
      <trkpt lat="45.18475" lon="0.72008">
        <ele>108.9</ele>
        <time>2021-10-24T11:21:41Z</time>
      </trkpt>
      <trkpt lat="45.18475" lon="0.72008">
        <ele>108.9</ele>
        <time>2021-10-24T11:21:43Z</time>
      </trkpt>
      <trkpt lat="45.18475" lon="0.72008">
        <ele>108.9</ele>
        <time>2021-10-24T11:21:45Z</time>
      </trkpt>
      <trkpt lat="45.18475" lon="0.72008">
        <ele>108.9</ele>
        <time>2021-10-24T11:21:47Z</time>
      </trkpt>
      <trkpt lat="45.18475" lon="0.72008">
        <ele>108.9</ele>
        <time>2021-10-24T11:21:49Z</time>
      </trkpt>
      <trkpt lat="45.18475" lon="0.72008">
        <ele>108.9</ele>
        <time>2021-10-24T11:21:51Z</time>
      </trkpt>
      <trkpt lat="45.18475" lon="0.72008">
        <ele>108.9</ele>
        <time>2021-10-24T11:21:53Z</time>
      </trkpt>
      <trkpt lat="45.18475" lon="0.72008">
        <ele>108.9</ele>
        <time>2021-10-24T11:21:55Z</time>
      </trkpt>
      <trkpt lat="45.18475" lon="0.72008">
        <ele>108.9</ele>
        <time>2021-10-24T11:21:56Z</time>
      </trkpt>
      <trkpt lat="45.18475" lon="0.72008">
        <ele>108.9</ele>
        <time>2021-10-24T11:21:58Z</time>
      </trkpt>
      <trkpt lat="45.18475" lon="0.72008">
        <ele>108.9</ele>
        <time>2021-10-24T11:21:59Z</time>
      </trkpt>
      <trkpt lat="45.18475" lon="0.72008">
        <ele>108.9</ele>
        <time>2021-10-24T11:22:01Z</time>
      </trkpt>
      <trkpt lat="45.18475" lon="0.72008">
        <ele>108.9</ele>
        <time>2021-10-24T11:22:02Z</time>
      </trkpt>
      <trkpt lat="45.18475" lon="0.72008">
        <ele>108.9</ele>
        <time>2021-10-24T11:22:04Z</time>
      </trkpt>
      <trkpt lat="45.18475" lon="0.72008">
        <ele>108.9</ele>
        <time>2021-10-24T11:22:06Z</time>
      </trkpt>
      <trkpt lat="45.18475" lon="0.72007">
        <ele>108.9</ele>
        <time>2021-10-24T11:22:07Z</time>
      </trkpt>
      <trkpt lat="45.18474" lon="0.72007">
        <ele>108.9</ele>
        <time>2021-10-24T11:22:09Z</time>
      </trkpt>
      <trkpt lat="45.18474" lon="0.72008">
        <ele>108.9</ele>
        <time>2021-10-24T11:22:11Z</time>
      </trkpt>
      <trkpt lat="45.18474" lon="0.72008">
        <ele>108.9</ele>
        <time>2021-10-24T11:22:12Z</time>
      </trkpt>
      <trkpt lat="45.18475" lon="0.72008">
        <ele>108.9</ele>
        <time>2021-10-24T11:22:13Z</time>
      </trkpt>
      <trkpt lat="45.18477" lon="0.72008">
        <ele>108.9</ele>
        <time>2021-10-24T11:22:15Z</time>
      </trkpt>
      <trkpt lat="45.18477" lon="0.72009">
        <ele>108.9</ele>
        <time>2021-10-24T11:22:17Z</time>
      </trkpt>
      <trkpt lat="45.18477" lon="0.72009">
        <ele>108.9</ele>
        <time>2021-10-24T11:22:19Z</time>
      </trkpt>
      <trkpt lat="45.18475" lon="0.72009">
        <ele>108.9</ele>
        <time>2021-10-24T11:22:21Z</time>
      </trkpt>
      <trkpt lat="45.18474" lon="0.72009">
        <ele>108.9</ele>
        <time>2021-10-24T11:22:22Z</time>
      </trkpt>
      <trkpt lat="45.18474" lon="0.7201">
        <ele>108.9</ele>
        <time>2021-10-24T11:22:24Z</time>
      </trkpt>
      <trkpt lat="45.18475" lon="0.72013">
        <ele>108.9</ele>
        <time>2021-10-24T11:22:26Z</time>
      </trkpt>
      <trkpt lat="45.18477" lon="0.72014">
        <ele>108.9</ele>
        <time>2021-10-24T11:22:28Z</time>
      </trkpt>
      <trkpt lat="45.18477" lon="0.72015">
        <ele>108.9</ele>
        <time>2021-10-24T11:22:30Z</time>
      </trkpt>
      <trkpt lat="45.18477" lon="0.72016">
        <ele>108.9</ele>
        <time>2021-10-24T11:22:32Z</time>
      </trkpt>
      <trkpt lat="45.18477" lon="0.72017">
        <ele>108.9</ele>
        <time>2021-10-24T11:22:34Z</time>
      </trkpt>
      <trkpt lat="45.18477" lon="0.72014">
        <ele>108.9</ele>
        <time>2021-10-24T11:22:35Z</time>
      </trkpt>
      <trkpt lat="45.18478" lon="0.72012">
        <ele>108.9</ele>
        <time>2021-10-24T11:22:37Z</time>
      </trkpt>
      <trkpt lat="45.18478" lon="0.72012">
        <ele>108.9</ele>
        <time>2021-10-24T11:22:38Z</time>
      </trkpt>
      <trkpt lat="45.18478" lon="0.72012">
        <ele>108.9</ele>
        <time>2021-10-24T11:22:40Z</time>
      </trkpt>
      <trkpt lat="45.18478" lon="0.72012">
        <ele>108.9</ele>
        <time>2021-10-24T11:22:41Z</time>
      </trkpt>
      <trkpt lat="45.18478" lon="0.72012">
        <ele>108.9</ele>
        <time>2021-10-24T11:22:43Z</time>
      </trkpt>
      <trkpt lat="45.18478" lon="0.72012">
        <ele>108.9</ele>
        <time>2021-10-24T11:22:45Z</time>
      </trkpt>
      <trkpt lat="45.18479" lon="0.72012">
        <ele>108.9</ele>
        <time>2021-10-24T11:22:46Z</time>
      </trkpt>
      <trkpt lat="45.18479" lon="0.72013">
        <ele>108.9</ele>
        <time>2021-10-24T11:22:49Z</time>
      </trkpt>
      <trkpt lat="45.18479" lon="0.72013">
        <ele>108.9</ele>
        <time>2021-10-24T11:22:51Z</time>
      </trkpt>
      <trkpt lat="45.18479" lon="0.72013">
        <ele>108.9</ele>
        <time>2021-10-24T11:22:53Z</time>
      </trkpt>
      <trkpt lat="45.18479" lon="0.72013">
        <ele>108.9</ele>
        <time>2021-10-24T11:22:54Z</time>
      </trkpt>
      <trkpt lat="45.18479" lon="0.72013">
        <ele>108.9</ele>
        <time>2021-10-24T11:22:56Z</time>
      </trkpt>
      <trkpt lat="45.18479" lon="0.72013">
        <ele>108.9</ele>
        <time>2021-10-24T11:22:57Z</time>
      </trkpt>
      <trkpt lat="45.18479" lon="0.72013">
        <ele>108.9</ele>
        <time>2021-10-24T11:22:59Z</time>
      </trkpt>
      <trkpt lat="45.18479" lon="0.72013">
        <ele>108.9</ele>
        <time>2021-10-24T11:23:00Z</time>
      </trkpt>
      <trkpt lat="45.18479" lon="0.72013">
        <ele>108.9</ele>
        <time>2021-10-24T11:23:02Z</time>
      </trkpt>
      <trkpt lat="45.18479" lon="0.72013">
        <ele>108.9</ele>
        <time>2021-10-24T11:23:04Z</time>
      </trkpt>
      <trkpt lat="45.18479" lon="0.72013">
        <ele>108.9</ele>
        <time>2021-10-24T11:23:06Z</time>
      </trkpt>
      <trkpt lat="45.18479" lon="0.72013">
        <ele>108.9</ele>
        <time>2021-10-24T11:23:07Z</time>
      </trkpt>
      <trkpt lat="45.18479" lon="0.72013">
        <ele>108.9</ele>
        <time>2021-10-24T11:23:09Z</time>
      </trkpt>
      <trkpt lat="45.18479" lon="0.72013">
        <ele>108.9</ele>
        <time>2021-10-24T11:23:11Z</time>
      </trkpt>
      <trkpt lat="45.18479" lon="0.72013">
        <ele>108.9</ele>
        <time>2021-10-24T11:23:13Z</time>
      </trkpt>
      <trkpt lat="45.18479" lon="0.72013">
        <ele>108.9</ele>
        <time>2021-10-24T11:23:15Z</time>
      </trkpt>
      <trkpt lat="45.18479" lon="0.72013">
        <ele>108.9</ele>
        <time>2021-10-24T11:23:16Z</time>
      </trkpt>
      <trkpt lat="45.18479" lon="0.72013">
        <ele>108.9</ele>
        <time>2021-10-24T11:23:18Z</time>
      </trkpt>
      <trkpt lat="45.18479" lon="0.72013">
        <ele>108.9</ele>
        <time>2021-10-24T11:23:19Z</time>
      </trkpt>
      <trkpt lat="45.18479" lon="0.72013">
        <ele>108.9</ele>
        <time>2021-10-24T11:23:20Z</time>
      </trkpt>
      <trkpt lat="45.18479" lon="0.72013">
        <ele>108.9</ele>
        <time>2021-10-24T11:23:22Z</time>
      </trkpt>
      <trkpt lat="45.18479" lon="0.72014">
        <ele>108.9</ele>
        <time>2021-10-24T11:23:23Z</time>
      </trkpt>
      <trkpt lat="45.18479" lon="0.72014">
        <ele>108.9</ele>
        <time>2021-10-24T11:23:24Z</time>
      </trkpt>
      <trkpt lat="45.18479" lon="0.72014">
        <ele>108.9</ele>
        <time>2021-10-24T11:23:26Z</time>
      </trkpt>
      <trkpt lat="45.1848" lon="0.72014">
        <ele>108.9</ele>
        <time>2021-10-24T11:23:27Z</time>
      </trkpt>
      <trkpt lat="45.1848" lon="0.72014">
        <ele>108.9</ele>
        <time>2021-10-24T11:23:29Z</time>
      </trkpt>
      <trkpt lat="45.1848" lon="0.72014">
        <ele>108.9</ele>
        <time>2021-10-24T11:23:30Z</time>
      </trkpt>
      <trkpt lat="45.1848" lon="0.72014">
        <ele>108.9</ele>
        <time>2021-10-24T11:23:32Z</time>
      </trkpt>
      <trkpt lat="45.1848" lon="0.72014">
        <ele>108.9</ele>
        <time>2021-10-24T11:23:33Z</time>
      </trkpt>
      <trkpt lat="45.1848" lon="0.72014">
        <ele>108.9</ele>
        <time>2021-10-24T11:23:35Z</time>
      </trkpt>
      <trkpt lat="45.1848" lon="0.72014">
        <ele>108.9</ele>
        <time>2021-10-24T11:23:36Z</time>
      </trkpt>
      <trkpt lat="45.18483" lon="0.72017">
        <ele>108.9</ele>
        <time>2021-10-24T11:23:38Z</time>
      </trkpt>
      <trkpt lat="45.18484" lon="0.72018">
        <ele>108.9</ele>
        <time>2021-10-24T11:23:39Z</time>
      </trkpt>
      <trkpt lat="45.18485" lon="0.72019">
        <ele>108.9</ele>
        <time>2021-10-24T11:23:41Z</time>
      </trkpt>
      <trkpt lat="45.18485" lon="0.72016">
        <ele>108.9</ele>
        <time>2021-10-24T11:23:43Z</time>
      </trkpt>
      <trkpt lat="45.18485" lon="0.72015">
        <ele>108.9</ele>
        <time>2021-10-24T11:23:44Z</time>
      </trkpt>
      <trkpt lat="45.18485" lon="0.72013">
        <ele>108.9</ele>
        <time>2021-10-24T11:23:45Z</time>
      </trkpt>
      <trkpt lat="45.18485" lon="0.72014">
        <ele>108.9</ele>
        <time>2021-10-24T11:23:47Z</time>
      </trkpt>
      <trkpt lat="45.18485" lon="0.72014">
        <ele>108.9</ele>
        <time>2021-10-24T11:23:49Z</time>
      </trkpt>
      <trkpt lat="45.18485" lon="0.72014">
        <ele>108.9</ele>
        <time>2021-10-24T11:23:51Z</time>
      </trkpt>
      <trkpt lat="45.18485" lon="0.72014">
        <ele>108.9</ele>
        <time>2021-10-24T11:23:53Z</time>
      </trkpt>
      <trkpt lat="45.18485" lon="0.72014">
        <ele>108.9</ele>
        <time>2021-10-24T11:23:54Z</time>
      </trkpt>
      <trkpt lat="45.18484" lon="0.72014">
        <ele>108.9</ele>
        <time>2021-10-24T11:23:56Z</time>
      </trkpt>
      <trkpt lat="45.18484" lon="0.72014">
        <ele>108.9</ele>
        <time>2021-10-24T11:23:58Z</time>
      </trkpt>
      <trkpt lat="45.18484" lon="0.72014">
        <ele>108.9</ele>
        <time>2021-10-24T11:24:00Z</time>
      </trkpt>
      <trkpt lat="45.18484" lon="0.72014">
        <ele>108.9</ele>
        <time>2021-10-24T11:24:01Z</time>
      </trkpt>
      <trkpt lat="45.18484" lon="0.72014">
        <ele>108.9</ele>
        <time>2021-10-24T11:24:02Z</time>
      </trkpt>
      <trkpt lat="45.18484" lon="0.72014">
        <ele>108.9</ele>
        <time>2021-10-24T11:24:04Z</time>
      </trkpt>
      <trkpt lat="45.18483" lon="0.72014">
        <ele>108.9</ele>
        <time>2021-10-24T11:24:05Z</time>
      </trkpt>
      <trkpt lat="45.18483" lon="0.72014">
        <ele>108.9</ele>
        <time>2021-10-24T11:24:06Z</time>
      </trkpt>
      <trkpt lat="45.18483" lon="0.72014">
        <ele>108.9</ele>
        <time>2021-10-24T11:24:08Z</time>
      </trkpt>
      <trkpt lat="45.18483" lon="0.72014">
        <ele>108.9</ele>
        <time>2021-10-24T11:24:10Z</time>
      </trkpt>
      <trkpt lat="45.18483" lon="0.72014">
        <ele>108.9</ele>
        <time>2021-10-24T11:24:11Z</time>
      </trkpt>
      <trkpt lat="45.18483" lon="0.72014">
        <ele>108.9</ele>
        <time>2021-10-24T11:24:13Z</time>
      </trkpt>
      <trkpt lat="45.18483" lon="0.72014">
        <ele>108.9</ele>
        <time>2021-10-24T11:24:14Z</time>
      </trkpt>
      <trkpt lat="45.18482" lon="0.72014">
        <ele>108.9</ele>
        <time>2021-10-24T11:24:16Z</time>
      </trkpt>
      <trkpt lat="45.18482" lon="0.72014">
        <ele>108.9</ele>
        <time>2021-10-24T11:24:17Z</time>
      </trkpt>
      <trkpt lat="45.18482" lon="0.72015">
        <ele>108.9</ele>
        <time>2021-10-24T11:24:18Z</time>
      </trkpt>
      <trkpt lat="45.18482" lon="0.72015">
        <ele>108.9</ele>
        <time>2021-10-24T11:24:20Z</time>
      </trkpt>
      <trkpt lat="45.18482" lon="0.72015">
        <ele>108.9</ele>
        <time>2021-10-24T11:24:21Z</time>
      </trkpt>
      <trkpt lat="45.18482" lon="0.72015">
        <ele>108.9</ele>
        <time>2021-10-24T11:24:22Z</time>
      </trkpt>
      <trkpt lat="45.18482" lon="0.72015">
        <ele>108.9</ele>
        <time>2021-10-24T11:24:23Z</time>
      </trkpt>
      <trkpt lat="45.18481" lon="0.72015">
        <ele>108.9</ele>
        <time>2021-10-24T11:24:25Z</time>
      </trkpt>
      <trkpt lat="45.18481" lon="0.72015">
        <ele>108.9</ele>
        <time>2021-10-24T11:24:27Z</time>
      </trkpt>
      <trkpt lat="45.18481" lon="0.72015">
        <ele>108.9</ele>
        <time>2021-10-24T11:24:28Z</time>
      </trkpt>
      <trkpt lat="45.18481" lon="0.72015">
        <ele>108.9</ele>
        <time>2021-10-24T11:24:30Z</time>
      </trkpt>
      <trkpt lat="45.18481" lon="0.72015">
        <ele>108.9</ele>
        <time>2021-10-24T11:24:32Z</time>
      </trkpt>
      <trkpt lat="45.18481" lon="0.72015">
        <ele>108.9</ele>
        <time>2021-10-24T11:24:34Z</time>
      </trkpt>
      <trkpt lat="45.18481" lon="0.72015">
        <ele>108.9</ele>
        <time>2021-10-24T11:24:36Z</time>
      </trkpt>
      <trkpt lat="45.1848" lon="0.72015">
        <ele>108.9</ele>
        <time>2021-10-24T11:24:38Z</time>
      </trkpt>
      <trkpt lat="45.1848" lon="0.72015">
        <ele>108.9</ele>
        <time>2021-10-24T11:24:40Z</time>
      </trkpt>
      <trkpt lat="45.1848" lon="0.72015">
        <ele>108.9</ele>
        <time>2021-10-24T11:24:42Z</time>
      </trkpt>
      <trkpt lat="45.1848" lon="0.72015">
        <ele>108.9</ele>
        <time>2021-10-24T11:24:44Z</time>
      </trkpt>
      <trkpt lat="45.1848" lon="0.72015">
        <ele>108.9</ele>
        <time>2021-10-24T11:24:45Z</time>
      </trkpt>
      <trkpt lat="45.1848" lon="0.72015">
        <ele>108.9</ele>
        <time>2021-10-24T11:24:47Z</time>
      </trkpt>
      <trkpt lat="45.18479" lon="0.72015">
        <ele>108.9</ele>
        <time>2021-10-24T11:24:48Z</time>
      </trkpt>
      <trkpt lat="45.18477" lon="0.72018">
        <ele>108.9</ele>
        <time>2021-10-24T11:24:50Z</time>
      </trkpt>
      <trkpt lat="45.18476" lon="0.72018">
        <ele>108.9</ele>
        <time>2021-10-24T11:24:52Z</time>
      </trkpt>
      <trkpt lat="45.18476" lon="0.72018">
        <ele>108.9</ele>
        <time>2021-10-24T11:24:53Z</time>
      </trkpt>
      <trkpt lat="45.18476" lon="0.72017">
        <ele>108.9</ele>
        <time>2021-10-24T11:24:55Z</time>
      </trkpt>
      <trkpt lat="45.18476" lon="0.72017">
        <ele>108.9</ele>
        <time>2021-10-24T11:24:56Z</time>
      </trkpt>
      <trkpt lat="45.18475" lon="0.72017">
        <ele>108.9</ele>
        <time>2021-10-24T11:24:57Z</time>
      </trkpt>
      <trkpt lat="45.18474" lon="0.72015">
        <ele>108.9</ele>
        <time>2021-10-24T11:25:00Z</time>
      </trkpt>
      <trkpt lat="45.18474" lon="0.72015">
        <ele>108.9</ele>
        <time>2021-10-24T11:25:02Z</time>
      </trkpt>
      <trkpt lat="45.18473" lon="0.72015">
        <ele>108.9</ele>
        <time>2021-10-24T11:25:04Z</time>
      </trkpt>
      <trkpt lat="45.18473" lon="0.72015">
        <ele>108.9</ele>
        <time>2021-10-24T11:25:08Z</time>
      </trkpt>
      <trkpt lat="45.18473" lon="0.72015">
        <ele>108.9</ele>
        <time>2021-10-24T11:25:09Z</time>
      </trkpt>
      <trkpt lat="45.18473" lon="0.72015">
        <ele>108.9</ele>
        <time>2021-10-24T11:25:12Z</time>
      </trkpt>
      <trkpt lat="45.18473" lon="0.72015">
        <ele>108.9</ele>
        <time>2021-10-24T11:25:22Z</time>
      </trkpt>
      <trkpt lat="45.18473" lon="0.72015">
        <ele>108.9</ele>
        <time>2021-10-24T11:25:23Z</time>
      </trkpt>
      <trkpt lat="45.18473" lon="0.72015">
        <ele>108.9</ele>
        <time>2021-10-24T11:25:26Z</time>
      </trkpt>
      <trkpt lat="45.18473" lon="0.72015">
        <ele>108.9</ele>
        <time>2021-10-24T11:25:28Z</time>
      </trkpt>
      <trkpt lat="45.18473" lon="0.72015">
        <ele>108.9</ele>
        <time>2021-10-24T11:25:30Z</time>
      </trkpt>
      <trkpt lat="45.18473" lon="0.72015">
        <ele>108.9</ele>
        <time>2021-10-24T11:25:33Z</time>
      </trkpt>
      <trkpt lat="45.18473" lon="0.72015">
        <ele>108.9</ele>
        <time>2021-10-24T11:25:35Z</time>
      </trkpt>
      <trkpt lat="45.18473" lon="0.72015">
        <ele>108.9</ele>
        <time>2021-10-24T11:25:36Z</time>
      </trkpt>
      <trkpt lat="45.18473" lon="0.72015">
        <ele>108.9</ele>
        <time>2021-10-24T11:25:38Z</time>
      </trkpt>
      <trkpt lat="45.18473" lon="0.72015">
        <ele>108.9</ele>
        <time>2021-10-24T11:25:39Z</time>
      </trkpt>
      <trkpt lat="45.18473" lon="0.72015">
        <ele>108.9</ele>
        <time>2021-10-24T11:25:41Z</time>
      </trkpt>
      <trkpt lat="45.18473" lon="0.72015">
        <ele>108.9</ele>
        <time>2021-10-24T11:25:42Z</time>
      </trkpt>
      <trkpt lat="45.18473" lon="0.72015">
        <ele>108.9</ele>
        <time>2021-10-24T11:25:44Z</time>
      </trkpt>
      <trkpt lat="45.18473" lon="0.72015">
        <ele>108.9</ele>
        <time>2021-10-24T11:25:45Z</time>
      </trkpt>
      <trkpt lat="45.18473" lon="0.72015">
        <ele>108.9</ele>
        <time>2021-10-24T11:25:47Z</time>
      </trkpt>
      <trkpt lat="45.18473" lon="0.72015">
        <ele>108.9</ele>
        <time>2021-10-24T11:25:49Z</time>
      </trkpt>
      <trkpt lat="45.18473" lon="0.72015">
        <ele>108.9</ele>
        <time>2021-10-24T11:25:50Z</time>
      </trkpt>
      <trkpt lat="45.18473" lon="0.72015">
        <ele>108.9</ele>
        <time>2021-10-24T11:25:52Z</time>
      </trkpt>
      <trkpt lat="45.18473" lon="0.72015">
        <ele>108.9</ele>
        <time>2021-10-24T11:25:53Z</time>
      </trkpt>
      <trkpt lat="45.18473" lon="0.72015">
        <ele>108.9</ele>
        <time>2021-10-24T11:25:55Z</time>
      </trkpt>
      <trkpt lat="45.18473" lon="0.72015">
        <ele>108.9</ele>
        <time>2021-10-24T11:25:56Z</time>
      </trkpt>
      <trkpt lat="45.18473" lon="0.72015">
        <ele>108.9</ele>
        <time>2021-10-24T11:25:57Z</time>
      </trkpt>
      <trkpt lat="45.18473" lon="0.72015">
        <ele>108.9</ele>
        <time>2021-10-24T11:25:58Z</time>
      </trkpt>
      <trkpt lat="45.18473" lon="0.72015">
        <ele>108.9</ele>
        <time>2021-10-24T11:26:00Z</time>
      </trkpt>
      <trkpt lat="45.18473" lon="0.72015">
        <ele>108.9</ele>
        <time>2021-10-24T11:26:02Z</time>
      </trkpt>
      <trkpt lat="45.18473" lon="0.72015">
        <ele>108.9</ele>
        <time>2021-10-24T11:26:03Z</time>
      </trkpt>
      <trkpt lat="45.18474" lon="0.72016">
        <ele>108.9</ele>
        <time>2021-10-24T11:26:06Z</time>
      </trkpt>
      <trkpt lat="45.18474" lon="0.72016">
        <ele>108.9</ele>
        <time>2021-10-24T11:26:07Z</time>
      </trkpt>
      <trkpt lat="45.18473" lon="0.72018">
        <ele>108.9</ele>
        <time>2021-10-24T11:26:09Z</time>
      </trkpt>
      <trkpt lat="45.18473" lon="0.72019">
        <ele>108.9</ele>
        <time>2021-10-24T11:26:10Z</time>
      </trkpt>
      <trkpt lat="45.18473" lon="0.72021">
        <ele>108.9</ele>
        <time>2021-10-24T11:26:12Z</time>
      </trkpt>
      <trkpt lat="45.18473" lon="0.72021">
        <ele>108.9</ele>
        <time>2021-10-24T11:26:13Z</time>
      </trkpt>
      <trkpt lat="45.18472" lon="0.72022">
        <ele>108.9</ele>
        <time>2021-10-24T11:26:14Z</time>
      </trkpt>
      <trkpt lat="45.18472" lon="0.72023">
        <ele>108.9</ele>
        <time>2021-10-24T11:26:16Z</time>
      </trkpt>
      <trkpt lat="45.18472" lon="0.72023">
        <ele>108.9</ele>
        <time>2021-10-24T11:26:17Z</time>
      </trkpt>
      <trkpt lat="45.18472" lon="0.72025">
        <ele>108.9</ele>
        <time>2021-10-24T11:26:18Z</time>
      </trkpt>
      <trkpt lat="45.18472" lon="0.72025">
        <ele>108.9</ele>
        <time>2021-10-24T11:26:19Z</time>
      </trkpt>
      <trkpt lat="45.18474" lon="0.72027">
        <ele>108.9</ele>
        <time>2021-10-24T11:26:22Z</time>
      </trkpt>
      <trkpt lat="45.18474" lon="0.72029">
        <ele>108.9</ele>
        <time>2021-10-24T11:26:23Z</time>
      </trkpt>
      <trkpt lat="45.18473" lon="0.72029">
        <ele>108.9</ele>
        <time>2021-10-24T11:26:24Z</time>
      </trkpt>
      <trkpt lat="45.18474" lon="0.72029">
        <ele>108.9</ele>
        <time>2021-10-24T11:26:25Z</time>
      </trkpt>
      <trkpt lat="45.18475" lon="0.72029">
        <ele>108.9</ele>
        <time>2021-10-24T11:26:27Z</time>
      </trkpt>
      <trkpt lat="45.18476" lon="0.72029">
        <ele>108.9</ele>
        <time>2021-10-24T11:26:28Z</time>
      </trkpt>
      <trkpt lat="45.18476" lon="0.72029">
        <ele>108.9</ele>
        <time>2021-10-24T11:26:29Z</time>
      </trkpt>
      <trkpt lat="45.18476" lon="0.72029">
        <ele>108.9</ele>
        <time>2021-10-24T11:26:30Z</time>
      </trkpt>
      <trkpt lat="45.18476" lon="0.72029">
        <ele>108.9</ele>
        <time>2021-10-24T11:26:32Z</time>
      </trkpt>
      <trkpt lat="45.18477" lon="0.72029">
        <ele>108.9</ele>
        <time>2021-10-24T11:26:34Z</time>
      </trkpt>
      <trkpt lat="45.18477" lon="0.72029">
        <ele>108.9</ele>
        <time>2021-10-24T11:26:35Z</time>
      </trkpt>
      <trkpt lat="45.18477" lon="0.72029">
        <ele>108.9</ele>
        <time>2021-10-24T11:26:36Z</time>
      </trkpt>
      <trkpt lat="45.18478" lon="0.72029">
        <ele>108.9</ele>
        <time>2021-10-24T11:26:38Z</time>
      </trkpt>
      <trkpt lat="45.18478" lon="0.72029">
        <ele>108.9</ele>
        <time>2021-10-24T11:26:39Z</time>
      </trkpt>
      <trkpt lat="45.18478" lon="0.72029">
        <ele>108.9</ele>
        <time>2021-10-24T11:26:41Z</time>
      </trkpt>
      <trkpt lat="45.18478" lon="0.72028">
        <ele>108.9</ele>
        <time>2021-10-24T11:26:43Z</time>
      </trkpt>
      <trkpt lat="45.18479" lon="0.72028">
        <ele>108.9</ele>
        <time>2021-10-24T11:26:45Z</time>
      </trkpt>
      <trkpt lat="45.18479" lon="0.72028">
        <ele>108.9</ele>
        <time>2021-10-24T11:26:47Z</time>
      </trkpt>
      <trkpt lat="45.18479" lon="0.72028">
        <ele>108.9</ele>
        <time>2021-10-24T11:26:49Z</time>
      </trkpt>
      <trkpt lat="45.18479" lon="0.72028">
        <ele>108.9</ele>
        <time>2021-10-24T11:26:51Z</time>
      </trkpt>
      <trkpt lat="45.18479" lon="0.72028">
        <ele>108.9</ele>
        <time>2021-10-24T11:26:53Z</time>
      </trkpt>
      <trkpt lat="45.18479" lon="0.72028">
        <ele>108.9</ele>
        <time>2021-10-24T11:26:54Z</time>
      </trkpt>
      <trkpt lat="45.18479" lon="0.72028">
        <ele>108.9</ele>
        <time>2021-10-24T11:26:56Z</time>
      </trkpt>
      <trkpt lat="45.18479" lon="0.72028">
        <ele>108.9</ele>
        <time>2021-10-24T11:26:57Z</time>
      </trkpt>
      <trkpt lat="45.18479" lon="0.72028">
        <ele>108.9</ele>
        <time>2021-10-24T11:26:59Z</time>
      </trkpt>
      <trkpt lat="45.18479" lon="0.72028">
        <ele>108.9</ele>
        <time>2021-10-24T11:27:00Z</time>
      </trkpt>
      <trkpt lat="45.18479" lon="0.72028">
        <ele>108.9</ele>
        <time>2021-10-24T11:27:01Z</time>
      </trkpt>
      <trkpt lat="45.18479" lon="0.72028">
        <ele>108.9</ele>
        <time>2021-10-24T11:27:03Z</time>
      </trkpt>
      <trkpt lat="45.18479" lon="0.72028">
        <ele>108.9</ele>
        <time>2021-10-24T11:27:04Z</time>
      </trkpt>
      <trkpt lat="45.18479" lon="0.72028">
        <ele>108.9</ele>
        <time>2021-10-24T11:27:06Z</time>
      </trkpt>
      <trkpt lat="45.18479" lon="0.72028">
        <ele>108.9</ele>
        <time>2021-10-24T11:27:07Z</time>
      </trkpt>
      <trkpt lat="45.18479" lon="0.72028">
        <ele>108.9</ele>
        <time>2021-10-24T11:27:09Z</time>
      </trkpt>
      <trkpt lat="45.18479" lon="0.72028">
        <ele>108.9</ele>
        <time>2021-10-24T11:27:11Z</time>
      </trkpt>
      <trkpt lat="45.18479" lon="0.72028">
        <ele>108.9</ele>
        <time>2021-10-24T11:27:12Z</time>
      </trkpt>
      <trkpt lat="45.18479" lon="0.72028">
        <ele>108.9</ele>
        <time>2021-10-24T11:27:14Z</time>
      </trkpt>
      <trkpt lat="45.18479" lon="0.72028">
        <ele>108.9</ele>
        <time>2021-10-24T11:27:15Z</time>
      </trkpt>
      <trkpt lat="45.18479" lon="0.72028">
        <ele>108.9</ele>
        <time>2021-10-24T11:27:16Z</time>
      </trkpt>
      <trkpt lat="45.18479" lon="0.72028">
        <ele>108.9</ele>
        <time>2021-10-24T11:27:17Z</time>
      </trkpt>
      <trkpt lat="45.18479" lon="0.72028">
        <ele>108.9</ele>
        <time>2021-10-24T11:27:19Z</time>
      </trkpt>
      <trkpt lat="45.18479" lon="0.72028">
        <ele>108.9</ele>
        <time>2021-10-24T11:27:20Z</time>
      </trkpt>
      <trkpt lat="45.18479" lon="0.72028">
        <ele>108.9</ele>
        <time>2021-10-24T11:27:22Z</time>
      </trkpt>
      <trkpt lat="45.18479" lon="0.72028">
        <ele>108.9</ele>
        <time>2021-10-24T11:27:23Z</time>
      </trkpt>
      <trkpt lat="45.18479" lon="0.72028">
        <ele>108.9</ele>
        <time>2021-10-24T11:27:25Z</time>
      </trkpt>
      <trkpt lat="45.18479" lon="0.72028">
        <ele>108.9</ele>
        <time>2021-10-24T11:27:26Z</time>
      </trkpt>
      <trkpt lat="45.18479" lon="0.72028">
        <ele>108.9</ele>
        <time>2021-10-24T11:27:27Z</time>
      </trkpt>
      <trkpt lat="45.18479" lon="0.72028">
        <ele>108.9</ele>
        <time>2021-10-24T11:27:29Z</time>
      </trkpt>
      <trkpt lat="45.18479" lon="0.72028">
        <ele>108.9</ele>
        <time>2021-10-24T11:27:31Z</time>
      </trkpt>
      <trkpt lat="45.18479" lon="0.72028">
        <ele>108.9</ele>
        <time>2021-10-24T11:27:32Z</time>
      </trkpt>
      <trkpt lat="45.18479" lon="0.72028">
        <ele>108.9</ele>
        <time>2021-10-24T11:27:34Z</time>
      </trkpt>
      <trkpt lat="45.18479" lon="0.72028">
        <ele>108.9</ele>
        <time>2021-10-24T11:27:36Z</time>
      </trkpt>
      <trkpt lat="45.18479" lon="0.72028">
        <ele>108.9</ele>
        <time>2021-10-24T11:27:38Z</time>
      </trkpt>
      <trkpt lat="45.18479" lon="0.72028">
        <ele>108.9</ele>
        <time>2021-10-24T11:27:40Z</time>
      </trkpt>
      <trkpt lat="45.18479" lon="0.72028">
        <ele>108.9</ele>
        <time>2021-10-24T11:27:41Z</time>
      </trkpt>
      <trkpt lat="45.18479" lon="0.72028">
        <ele>108.9</ele>
        <time>2021-10-24T11:27:43Z</time>
      </trkpt>
      <trkpt lat="45.18479" lon="0.72028">
        <ele>108.9</ele>
        <time>2021-10-24T11:27:45Z</time>
      </trkpt>
      <trkpt lat="45.18479" lon="0.72028">
        <ele>108.9</ele>
        <time>2021-10-24T11:27:46Z</time>
      </trkpt>
      <trkpt lat="45.18479" lon="0.72028">
        <ele>108.9</ele>
        <time>2021-10-24T11:27:48Z</time>
      </trkpt>
      <trkpt lat="45.18479" lon="0.72028">
        <ele>108.9</ele>
        <time>2021-10-24T11:27:49Z</time>
      </trkpt>
      <trkpt lat="45.18479" lon="0.72028">
        <ele>108.9</ele>
        <time>2021-10-24T11:27:51Z</time>
      </trkpt>
      <trkpt lat="45.18479" lon="0.72028">
        <ele>108.9</ele>
        <time>2021-10-24T11:27:52Z</time>
      </trkpt>
      <trkpt lat="45.18479" lon="0.72028">
        <ele>108.9</ele>
        <time>2021-10-24T11:27:53Z</time>
      </trkpt>
      <trkpt lat="45.18479" lon="0.72028">
        <ele>108.9</ele>
        <time>2021-10-24T11:27:54Z</time>
      </trkpt>
      <trkpt lat="45.18479" lon="0.72028">
        <ele>108.9</ele>
        <time>2021-10-24T11:27:56Z</time>
      </trkpt>
      <trkpt lat="45.18479" lon="0.72028">
        <ele>108.9</ele>
        <time>2021-10-24T11:27:57Z</time>
      </trkpt>
      <trkpt lat="45.18479" lon="0.72028">
        <ele>108.9</ele>
        <time>2021-10-24T11:27:58Z</time>
      </trkpt>
      <trkpt lat="45.18479" lon="0.72028">
        <ele>108.9</ele>
        <time>2021-10-24T11:28:00Z</time>
      </trkpt>
      <trkpt lat="45.18479" lon="0.72028">
        <ele>108.9</ele>
        <time>2021-10-24T11:28:01Z</time>
      </trkpt>
      <trkpt lat="45.18479" lon="0.72028">
        <ele>108.9</ele>
        <time>2021-10-24T11:28:03Z</time>
      </trkpt>
      <trkpt lat="45.18479" lon="0.72028">
        <ele>108.9</ele>
        <time>2021-10-24T11:28:05Z</time>
      </trkpt>
      <trkpt lat="45.18479" lon="0.72028">
        <ele>108.9</ele>
        <time>2021-10-24T11:28:07Z</time>
      </trkpt>
      <trkpt lat="45.18479" lon="0.72028">
        <ele>108.9</ele>
        <time>2021-10-24T11:28:08Z</time>
      </trkpt>
      <trkpt lat="45.18479" lon="0.72028">
        <ele>108.9</ele>
        <time>2021-10-24T11:28:10Z</time>
      </trkpt>
      <trkpt lat="45.18479" lon="0.72028">
        <ele>108.9</ele>
        <time>2021-10-24T11:28:11Z</time>
      </trkpt>
      <trkpt lat="45.18479" lon="0.72028">
        <ele>108.9</ele>
        <time>2021-10-24T11:28:13Z</time>
      </trkpt>
      <trkpt lat="45.18479" lon="0.72028">
        <ele>108.9</ele>
        <time>2021-10-24T11:28:15Z</time>
      </trkpt>
      <trkpt lat="45.18479" lon="0.72028">
        <ele>108.9</ele>
        <time>2021-10-24T11:28:16Z</time>
      </trkpt>
      <trkpt lat="45.18479" lon="0.72028">
        <ele>108.9</ele>
        <time>2021-10-24T11:28:17Z</time>
      </trkpt>
      <trkpt lat="45.18479" lon="0.72028">
        <ele>108.9</ele>
        <time>2021-10-24T11:28:19Z</time>
      </trkpt>
      <trkpt lat="45.18479" lon="0.72028">
        <ele>108.9</ele>
        <time>2021-10-24T11:28:20Z</time>
      </trkpt>
      <trkpt lat="45.18479" lon="0.72028">
        <ele>108.9</ele>
        <time>2021-10-24T11:28:21Z</time>
      </trkpt>
      <trkpt lat="45.18479" lon="0.72028">
        <ele>108.9</ele>
        <time>2021-10-24T11:28:23Z</time>
      </trkpt>
      <trkpt lat="45.18479" lon="0.72028">
        <ele>108.9</ele>
        <time>2021-10-24T11:28:25Z</time>
      </trkpt>
      <trkpt lat="45.18479" lon="0.72028">
        <ele>108.9</ele>
        <time>2021-10-24T11:28:27Z</time>
      </trkpt>
      <trkpt lat="45.18479" lon="0.72028">
        <ele>108.9</ele>
        <time>2021-10-24T11:28:29Z</time>
      </trkpt>
      <trkpt lat="45.18479" lon="0.72028">
        <ele>108.9</ele>
        <time>2021-10-24T11:28:31Z</time>
      </trkpt>
      <trkpt lat="45.18479" lon="0.72028">
        <ele>108.9</ele>
        <time>2021-10-24T11:28:32Z</time>
      </trkpt>
      <trkpt lat="45.18479" lon="0.72028">
        <ele>108.9</ele>
        <time>2021-10-24T11:28:33Z</time>
      </trkpt>
      <trkpt lat="45.1848" lon="0.72028">
        <ele>108.9</ele>
        <time>2021-10-24T11:28:35Z</time>
      </trkpt>
      <trkpt lat="45.18481" lon="0.72028">
        <ele>108.9</ele>
        <time>2021-10-24T11:28:37Z</time>
      </trkpt>
      <trkpt lat="45.18481" lon="0.72028">
        <ele>108.9</ele>
        <time>2021-10-24T11:28:39Z</time>
      </trkpt>
      <trkpt lat="45.18482" lon="0.72029">
        <ele>108.9</ele>
        <time>2021-10-24T11:28:40Z</time>
      </trkpt>
      <trkpt lat="45.18482" lon="0.72029">
        <ele>108.9</ele>
        <time>2021-10-24T11:28:41Z</time>
      </trkpt>
      <trkpt lat="45.18482" lon="0.7203">
        <ele>108.9</ele>
        <time>2021-10-24T11:28:43Z</time>
      </trkpt>
      <trkpt lat="45.18481" lon="0.7203">
        <ele>108.9</ele>
        <time>2021-10-24T11:28:44Z</time>
      </trkpt>
      <trkpt lat="45.18481" lon="0.7203">
        <ele>108.9</ele>
        <time>2021-10-24T11:28:46Z</time>
      </trkpt>
      <trkpt lat="45.18481" lon="0.7203">
        <ele>108.9</ele>
        <time>2021-10-24T11:28:48Z</time>
      </trkpt>
      <trkpt lat="45.18481" lon="0.7203">
        <ele>108.9</ele>
        <time>2021-10-24T11:28:50Z</time>
      </trkpt>
      <trkpt lat="45.18481" lon="0.7203">
        <ele>108.9</ele>
        <time>2021-10-24T11:28:51Z</time>
      </trkpt>
      <trkpt lat="45.18481" lon="0.7203">
        <ele>108.9</ele>
        <time>2021-10-24T11:28:53Z</time>
      </trkpt>
      <trkpt lat="45.18481" lon="0.7203">
        <ele>108.9</ele>
        <time>2021-10-24T11:28:55Z</time>
      </trkpt>
      <trkpt lat="45.18481" lon="0.7203">
        <ele>108.9</ele>
        <time>2021-10-24T11:28:57Z</time>
      </trkpt>
      <trkpt lat="45.18481" lon="0.7203">
        <ele>108.9</ele>
        <time>2021-10-24T11:28:58Z</time>
      </trkpt>
      <trkpt lat="45.18481" lon="0.7203">
        <ele>108.9</ele>
        <time>2021-10-24T11:28:59Z</time>
      </trkpt>
      <trkpt lat="45.18481" lon="0.7203">
        <ele>108.9</ele>
        <time>2021-10-24T11:29:01Z</time>
      </trkpt>
      <trkpt lat="45.18481" lon="0.7203">
        <ele>108.9</ele>
        <time>2021-10-24T11:29:03Z</time>
      </trkpt>
      <trkpt lat="45.18481" lon="0.7203">
        <ele>108.9</ele>
        <time>2021-10-24T11:29:04Z</time>
      </trkpt>
      <trkpt lat="45.18481" lon="0.7203">
        <ele>108.9</ele>
        <time>2021-10-24T11:29:05Z</time>
      </trkpt>
      <trkpt lat="45.18481" lon="0.7203">
        <ele>108.9</ele>
        <time>2021-10-24T11:29:07Z</time>
      </trkpt>
      <trkpt lat="45.18481" lon="0.7203">
        <ele>108.9</ele>
        <time>2021-10-24T11:29:09Z</time>
      </trkpt>
      <trkpt lat="45.18481" lon="0.7203">
        <ele>108.9</ele>
        <time>2021-10-24T11:29:11Z</time>
      </trkpt>
      <trkpt lat="45.18481" lon="0.7203">
        <ele>108.9</ele>
        <time>2021-10-24T11:29:12Z</time>
      </trkpt>
      <trkpt lat="45.18481" lon="0.7203">
        <ele>108.9</ele>
        <time>2021-10-24T11:29:14Z</time>
      </trkpt>
      <trkpt lat="45.18481" lon="0.7203">
        <ele>108.9</ele>
        <time>2021-10-24T11:29:16Z</time>
      </trkpt>
      <trkpt lat="45.18481" lon="0.7203">
        <ele>108.9</ele>
        <time>2021-10-24T11:29:18Z</time>
      </trkpt>
      <trkpt lat="45.18481" lon="0.7203">
        <ele>108.9</ele>
        <time>2021-10-24T11:29:19Z</time>
      </trkpt>
      <trkpt lat="45.18481" lon="0.7203">
        <ele>108.9</ele>
        <time>2021-10-24T11:29:20Z</time>
      </trkpt>
      <trkpt lat="45.18481" lon="0.7203">
        <ele>108.9</ele>
        <time>2021-10-24T11:29:21Z</time>
      </trkpt>
      <trkpt lat="45.18481" lon="0.7203">
        <ele>108.9</ele>
        <time>2021-10-24T11:29:23Z</time>
      </trkpt>
      <trkpt lat="45.18481" lon="0.7203">
        <ele>108.9</ele>
        <time>2021-10-24T11:29:25Z</time>
      </trkpt>
      <trkpt lat="45.18481" lon="0.7203">
        <ele>108.9</ele>
        <time>2021-10-24T11:29:26Z</time>
      </trkpt>
      <trkpt lat="45.18481" lon="0.7203">
        <ele>108.9</ele>
        <time>2021-10-24T11:29:27Z</time>
      </trkpt>
      <trkpt lat="45.18481" lon="0.7203">
        <ele>108.9</ele>
        <time>2021-10-24T11:29:29Z</time>
      </trkpt>
      <trkpt lat="45.18481" lon="0.7203">
        <ele>108.9</ele>
        <time>2021-10-24T11:29:30Z</time>
      </trkpt>
      <trkpt lat="45.18481" lon="0.7203">
        <ele>108.9</ele>
        <time>2021-10-24T11:29:31Z</time>
      </trkpt>
      <trkpt lat="45.18481" lon="0.7203">
        <ele>108.9</ele>
        <time>2021-10-24T11:29:33Z</time>
      </trkpt>
      <trkpt lat="45.18481" lon="0.7203">
        <ele>108.9</ele>
        <time>2021-10-24T11:29:35Z</time>
      </trkpt>
      <trkpt lat="45.18481" lon="0.7203">
        <ele>108.9</ele>
        <time>2021-10-24T11:29:36Z</time>
      </trkpt>
      <trkpt lat="45.18481" lon="0.7203">
        <ele>108.9</ele>
        <time>2021-10-24T11:29:38Z</time>
      </trkpt>
      <trkpt lat="45.18481" lon="0.7203">
        <ele>108.9</ele>
        <time>2021-10-24T11:29:40Z</time>
      </trkpt>
      <trkpt lat="45.18481" lon="0.7203">
        <ele>108.9</ele>
        <time>2021-10-24T11:29:41Z</time>
      </trkpt>
      <trkpt lat="45.18481" lon="0.7203">
        <ele>108.9</ele>
        <time>2021-10-24T11:29:42Z</time>
      </trkpt>
      <trkpt lat="45.18481" lon="0.7203">
        <ele>108.9</ele>
        <time>2021-10-24T11:29:43Z</time>
      </trkpt>
      <trkpt lat="45.18481" lon="0.7203">
        <ele>108.9</ele>
        <time>2021-10-24T11:29:45Z</time>
      </trkpt>
      <trkpt lat="45.18481" lon="0.7203">
        <ele>108.9</ele>
        <time>2021-10-24T11:29:46Z</time>
      </trkpt>
      <trkpt lat="45.18481" lon="0.7203">
        <ele>108.9</ele>
        <time>2021-10-24T11:29:48Z</time>
      </trkpt>
      <trkpt lat="45.18481" lon="0.7203">
        <ele>108.9</ele>
        <time>2021-10-24T11:29:49Z</time>
      </trkpt>
      <trkpt lat="45.18481" lon="0.7203">
        <ele>108.9</ele>
        <time>2021-10-24T11:29:51Z</time>
      </trkpt>
      <trkpt lat="45.18481" lon="0.7203">
        <ele>108.9</ele>
        <time>2021-10-24T11:29:53Z</time>
      </trkpt>
      <trkpt lat="45.18481" lon="0.7203">
        <ele>108.9</ele>
        <time>2021-10-24T11:29:54Z</time>
      </trkpt>
      <trkpt lat="45.18481" lon="0.7203">
        <ele>108.9</ele>
        <time>2021-10-24T11:29:56Z</time>
      </trkpt>
      <trkpt lat="45.18481" lon="0.7203">
        <ele>108.9</ele>
        <time>2021-10-24T11:29:57Z</time>
      </trkpt>
      <trkpt lat="45.18481" lon="0.7203">
        <ele>108.9</ele>
        <time>2021-10-24T11:29:59Z</time>
      </trkpt>
      <trkpt lat="45.18481" lon="0.7203">
        <ele>108.9</ele>
        <time>2021-10-24T11:30:01Z</time>
      </trkpt>
      <trkpt lat="45.18481" lon="0.7203">
        <ele>108.9</ele>
        <time>2021-10-24T11:30:02Z</time>
      </trkpt>
      <trkpt lat="45.18481" lon="0.7203">
        <ele>108.9</ele>
        <time>2021-10-24T11:30:04Z</time>
      </trkpt>
      <trkpt lat="45.18481" lon="0.7203">
        <ele>108.9</ele>
        <time>2021-10-24T11:30:05Z</time>
      </trkpt>
      <trkpt lat="45.18481" lon="0.7203">
        <ele>108.9</ele>
        <time>2021-10-24T11:30:07Z</time>
      </trkpt>
      <trkpt lat="45.18481" lon="0.7203">
        <ele>108.9</ele>
        <time>2021-10-24T11:30:09Z</time>
      </trkpt>
      <trkpt lat="45.18481" lon="0.7203">
        <ele>108.9</ele>
        <time>2021-10-24T11:30:11Z</time>
      </trkpt>
      <trkpt lat="45.18481" lon="0.7203">
        <ele>108.9</ele>
        <time>2021-10-24T11:30:12Z</time>
      </trkpt>
      <trkpt lat="45.18481" lon="0.7203">
        <ele>108.9</ele>
        <time>2021-10-24T11:30:14Z</time>
      </trkpt>
      <trkpt lat="45.18481" lon="0.7203">
        <ele>108.9</ele>
        <time>2021-10-24T11:30:16Z</time>
      </trkpt>
      <trkpt lat="45.18481" lon="0.7203">
        <ele>108.9</ele>
        <time>2021-10-24T11:30:17Z</time>
      </trkpt>
      <trkpt lat="45.18481" lon="0.7203">
        <ele>108.9</ele>
        <time>2021-10-24T11:30:18Z</time>
      </trkpt>
      <trkpt lat="45.18481" lon="0.7203">
        <ele>108.9</ele>
        <time>2021-10-24T11:30:20Z</time>
      </trkpt>
      <trkpt lat="45.18481" lon="0.7203">
        <ele>108.9</ele>
        <time>2021-10-24T11:30:21Z</time>
      </trkpt>
      <trkpt lat="45.18481" lon="0.7203">
        <ele>108.9</ele>
        <time>2021-10-24T11:30:23Z</time>
      </trkpt>
      <trkpt lat="45.18481" lon="0.7203">
        <ele>108.9</ele>
        <time>2021-10-24T11:30:24Z</time>
      </trkpt>
      <trkpt lat="45.18481" lon="0.7203">
        <ele>108.9</ele>
        <time>2021-10-24T11:30:26Z</time>
      </trkpt>
      <trkpt lat="45.18481" lon="0.7203">
        <ele>108.9</ele>
        <time>2021-10-24T11:30:27Z</time>
      </trkpt>
      <trkpt lat="45.18481" lon="0.7203">
        <ele>108.9</ele>
        <time>2021-10-24T11:30:29Z</time>
      </trkpt>
      <trkpt lat="45.18481" lon="0.7203">
        <ele>108.9</ele>
        <time>2021-10-24T11:30:31Z</time>
      </trkpt>
      <trkpt lat="45.18481" lon="0.7203">
        <ele>108.9</ele>
        <time>2021-10-24T11:30:32Z</time>
      </trkpt>
      <trkpt lat="45.18481" lon="0.7203">
        <ele>108.9</ele>
        <time>2021-10-24T11:30:33Z</time>
      </trkpt>
      <trkpt lat="45.18481" lon="0.7203">
        <ele>108.9</ele>
        <time>2021-10-24T11:30:35Z</time>
      </trkpt>
      <trkpt lat="45.18481" lon="0.7203">
        <ele>108.9</ele>
        <time>2021-10-24T11:30:37Z</time>
      </trkpt>
      <trkpt lat="45.18481" lon="0.7203">
        <ele>108.9</ele>
        <time>2021-10-24T11:30:38Z</time>
      </trkpt>
      <trkpt lat="45.18481" lon="0.7203">
        <ele>108.9</ele>
        <time>2021-10-24T11:30:40Z</time>
      </trkpt>
      <trkpt lat="45.18481" lon="0.7203">
        <ele>108.9</ele>
        <time>2021-10-24T11:30:42Z</time>
      </trkpt>
      <trkpt lat="45.18481" lon="0.7203">
        <ele>108.9</ele>
        <time>2021-10-24T11:30:43Z</time>
      </trkpt>
      <trkpt lat="45.18481" lon="0.7203">
        <ele>108.9</ele>
        <time>2021-10-24T11:30:45Z</time>
      </trkpt>
      <trkpt lat="45.18481" lon="0.7203">
        <ele>108.9</ele>
        <time>2021-10-24T11:30:47Z</time>
      </trkpt>
      <trkpt lat="45.18481" lon="0.7203">
        <ele>108.9</ele>
        <time>2021-10-24T11:30:48Z</time>
      </trkpt>
      <trkpt lat="45.18481" lon="0.7203">
        <ele>108.9</ele>
        <time>2021-10-24T11:30:49Z</time>
      </trkpt>
      <trkpt lat="45.18481" lon="0.7203">
        <ele>108.9</ele>
        <time>2021-10-24T11:30:51Z</time>
      </trkpt>
      <trkpt lat="45.18481" lon="0.7203">
        <ele>108.9</ele>
        <time>2021-10-24T11:30:53Z</time>
      </trkpt>
      <trkpt lat="45.18481" lon="0.7203">
        <ele>108.9</ele>
        <time>2021-10-24T11:30:54Z</time>
      </trkpt>
      <trkpt lat="45.18481" lon="0.7203">
        <ele>108.9</ele>
        <time>2021-10-24T11:30:55Z</time>
      </trkpt>
      <trkpt lat="45.18481" lon="0.7203">
        <ele>108.9</ele>
        <time>2021-10-24T11:30:57Z</time>
      </trkpt>
      <trkpt lat="45.18481" lon="0.7203">
        <ele>108.9</ele>
        <time>2021-10-24T11:30:59Z</time>
      </trkpt>
      <trkpt lat="45.18481" lon="0.7203">
        <ele>108.9</ele>
        <time>2021-10-24T11:31:00Z</time>
      </trkpt>
      <trkpt lat="45.18481" lon="0.7203">
        <ele>108.9</ele>
        <time>2021-10-24T11:31:02Z</time>
      </trkpt>
      <trkpt lat="45.18481" lon="0.7203">
        <ele>108.9</ele>
        <time>2021-10-24T11:31:03Z</time>
      </trkpt>
      <trkpt lat="45.18481" lon="0.7203">
        <ele>108.9</ele>
        <time>2021-10-24T11:31:05Z</time>
      </trkpt>
      <trkpt lat="45.18481" lon="0.7203">
        <ele>108.9</ele>
        <time>2021-10-24T11:31:07Z</time>
      </trkpt>
      <trkpt lat="45.18481" lon="0.7203">
        <ele>108.9</ele>
        <time>2021-10-24T11:31:09Z</time>
      </trkpt>
      <trkpt lat="45.18481" lon="0.7203">
        <ele>108.9</ele>
        <time>2021-10-24T11:31:10Z</time>
      </trkpt>
      <trkpt lat="45.18481" lon="0.7203">
        <ele>108.9</ele>
        <time>2021-10-24T11:31:11Z</time>
      </trkpt>
      <trkpt lat="45.18481" lon="0.7203">
        <ele>108.9</ele>
        <time>2021-10-24T11:31:13Z</time>
      </trkpt>
      <trkpt lat="45.18481" lon="0.7203">
        <ele>108.9</ele>
        <time>2021-10-24T11:31:15Z</time>
      </trkpt>
      <trkpt lat="45.18481" lon="0.7203">
        <ele>108.9</ele>
        <time>2021-10-24T11:31:17Z</time>
      </trkpt>
      <trkpt lat="45.18481" lon="0.7203">
        <ele>108.9</ele>
        <time>2021-10-24T11:31:19Z</time>
      </trkpt>
      <trkpt lat="45.18481" lon="0.7203">
        <ele>108.9</ele>
        <time>2021-10-24T11:31:20Z</time>
      </trkpt>
      <trkpt lat="45.18481" lon="0.7203">
        <ele>108.9</ele>
        <time>2021-10-24T11:31:22Z</time>
      </trkpt>
      <trkpt lat="45.18481" lon="0.7203">
        <ele>108.9</ele>
        <time>2021-10-24T11:31:23Z</time>
      </trkpt>
      <trkpt lat="45.18481" lon="0.7203">
        <ele>108.9</ele>
        <time>2021-10-24T11:31:25Z</time>
      </trkpt>
      <trkpt lat="45.18481" lon="0.7203">
        <ele>108.9</ele>
        <time>2021-10-24T11:31:26Z</time>
      </trkpt>
      <trkpt lat="45.18481" lon="0.7203">
        <ele>108.9</ele>
        <time>2021-10-24T11:31:27Z</time>
      </trkpt>
      <trkpt lat="45.18481" lon="0.7203">
        <ele>108.9</ele>
        <time>2021-10-24T11:31:29Z</time>
      </trkpt>
      <trkpt lat="45.18481" lon="0.7203">
        <ele>108.9</ele>
        <time>2021-10-24T11:31:30Z</time>
      </trkpt>
      <trkpt lat="45.18481" lon="0.7203">
        <ele>108.9</ele>
        <time>2021-10-24T11:31:32Z</time>
      </trkpt>
      <trkpt lat="45.18481" lon="0.7203">
        <ele>108.9</ele>
        <time>2021-10-24T11:31:33Z</time>
      </trkpt>
      <trkpt lat="45.18481" lon="0.7203">
        <ele>108.9</ele>
        <time>2021-10-24T11:31:35Z</time>
      </trkpt>
      <trkpt lat="45.18481" lon="0.7203">
        <ele>108.9</ele>
        <time>2021-10-24T11:31:37Z</time>
      </trkpt>
      <trkpt lat="45.18481" lon="0.7203">
        <ele>108.9</ele>
        <time>2021-10-24T11:31:38Z</time>
      </trkpt>
      <trkpt lat="45.18481" lon="0.7203">
        <ele>108.9</ele>
        <time>2021-10-24T11:31:39Z</time>
      </trkpt>
      <trkpt lat="45.18481" lon="0.7203">
        <ele>108.9</ele>
        <time>2021-10-24T11:31:40Z</time>
      </trkpt>
      <trkpt lat="45.18481" lon="0.7203">
        <ele>108.9</ele>
        <time>2021-10-24T11:31:42Z</time>
      </trkpt>
      <trkpt lat="45.18481" lon="0.7203">
        <ele>108.9</ele>
        <time>2021-10-24T11:31:44Z</time>
      </trkpt>
      <trkpt lat="45.18481" lon="0.7203">
        <ele>108.9</ele>
        <time>2021-10-24T11:31:45Z</time>
      </trkpt>
      <trkpt lat="45.18481" lon="0.7203">
        <ele>108.9</ele>
        <time>2021-10-24T11:31:47Z</time>
      </trkpt>
      <trkpt lat="45.18481" lon="0.7203">
        <ele>108.9</ele>
        <time>2021-10-24T11:31:49Z</time>
      </trkpt>
      <trkpt lat="45.18481" lon="0.7203">
        <ele>108.9</ele>
        <time>2021-10-24T11:31:51Z</time>
      </trkpt>
      <trkpt lat="45.18481" lon="0.7203">
        <ele>108.9</ele>
        <time>2021-10-24T11:31:53Z</time>
      </trkpt>
      <trkpt lat="45.18481" lon="0.7203">
        <ele>108.9</ele>
        <time>2021-10-24T11:31:55Z</time>
      </trkpt>
      <trkpt lat="45.18481" lon="0.7203">
        <ele>108.9</ele>
        <time>2021-10-24T11:31:56Z</time>
      </trkpt>
      <trkpt lat="45.18481" lon="0.7203">
        <ele>108.9</ele>
        <time>2021-10-24T11:31:57Z</time>
      </trkpt>
      <trkpt lat="45.18481" lon="0.7203">
        <ele>108.9</ele>
        <time>2021-10-24T11:31:59Z</time>
      </trkpt>
      <trkpt lat="45.18481" lon="0.7203">
        <ele>108.9</ele>
        <time>2021-10-24T11:32:00Z</time>
      </trkpt>
      <trkpt lat="45.18481" lon="0.7203">
        <ele>108.9</ele>
        <time>2021-10-24T11:32:02Z</time>
      </trkpt>
      <trkpt lat="45.18481" lon="0.7203">
        <ele>108.9</ele>
        <time>2021-10-24T11:32:03Z</time>
      </trkpt>
      <trkpt lat="45.18481" lon="0.7203">
        <ele>108.9</ele>
        <time>2021-10-24T11:32:05Z</time>
      </trkpt>
      <trkpt lat="45.18481" lon="0.7203">
        <ele>108.9</ele>
        <time>2021-10-24T11:32:06Z</time>
      </trkpt>
      <trkpt lat="45.18481" lon="0.7203">
        <ele>108.9</ele>
        <time>2021-10-24T11:32:08Z</time>
      </trkpt>
      <trkpt lat="45.18481" lon="0.7203">
        <ele>108.9</ele>
        <time>2021-10-24T11:32:10Z</time>
      </trkpt>
      <trkpt lat="45.18481" lon="0.7203">
        <ele>108.9</ele>
        <time>2021-10-24T11:32:12Z</time>
      </trkpt>
      <trkpt lat="45.18481" lon="0.7203">
        <ele>108.9</ele>
        <time>2021-10-24T11:32:14Z</time>
      </trkpt>
      <trkpt lat="45.18481" lon="0.7203">
        <ele>108.9</ele>
        <time>2021-10-24T11:32:15Z</time>
      </trkpt>
      <trkpt lat="45.18481" lon="0.7203">
        <ele>108.9</ele>
        <time>2021-10-24T11:32:17Z</time>
      </trkpt>
      <trkpt lat="45.18481" lon="0.7203">
        <ele>108.9</ele>
        <time>2021-10-24T11:32:18Z</time>
      </trkpt>
      <trkpt lat="45.18481" lon="0.7203">
        <ele>108.9</ele>
        <time>2021-10-24T11:32:20Z</time>
      </trkpt>
      <trkpt lat="45.18481" lon="0.7203">
        <ele>108.9</ele>
        <time>2021-10-24T11:32:22Z</time>
      </trkpt>
      <trkpt lat="45.18481" lon="0.7203">
        <ele>108.9</ele>
        <time>2021-10-24T11:32:24Z</time>
      </trkpt>
      <trkpt lat="45.18481" lon="0.7203">
        <ele>108.9</ele>
        <time>2021-10-24T11:32:26Z</time>
      </trkpt>
      <trkpt lat="45.18481" lon="0.7203">
        <ele>108.9</ele>
        <time>2021-10-24T11:32:28Z</time>
      </trkpt>
      <trkpt lat="45.18481" lon="0.7203">
        <ele>108.9</ele>
        <time>2021-10-24T11:32:30Z</time>
      </trkpt>
      <trkpt lat="45.18481" lon="0.7203">
        <ele>108.9</ele>
        <time>2021-10-24T11:32:31Z</time>
      </trkpt>
      <trkpt lat="45.18481" lon="0.7203">
        <ele>108.9</ele>
        <time>2021-10-24T11:32:32Z</time>
      </trkpt>
      <trkpt lat="45.18481" lon="0.7203">
        <ele>108.9</ele>
        <time>2021-10-24T11:32:33Z</time>
      </trkpt>
      <trkpt lat="45.18481" lon="0.7203">
        <ele>108.9</ele>
        <time>2021-10-24T11:32:35Z</time>
      </trkpt>
      <trkpt lat="45.18481" lon="0.7203">
        <ele>108.9</ele>
        <time>2021-10-24T11:32:36Z</time>
      </trkpt>
      <trkpt lat="45.18481" lon="0.7203">
        <ele>108.9</ele>
        <time>2021-10-24T11:32:38Z</time>
      </trkpt>
      <trkpt lat="45.18481" lon="0.7203">
        <ele>108.9</ele>
        <time>2021-10-24T11:32:40Z</time>
      </trkpt>
      <trkpt lat="45.18481" lon="0.7203">
        <ele>108.9</ele>
        <time>2021-10-24T11:32:41Z</time>
      </trkpt>
      <trkpt lat="45.18481" lon="0.7203">
        <ele>108.9</ele>
        <time>2021-10-24T11:32:42Z</time>
      </trkpt>
      <trkpt lat="45.18481" lon="0.7203">
        <ele>108.9</ele>
        <time>2021-10-24T11:32:44Z</time>
      </trkpt>
      <trkpt lat="45.18481" lon="0.7203">
        <ele>108.9</ele>
        <time>2021-10-24T11:32:45Z</time>
      </trkpt>
      <trkpt lat="45.18481" lon="0.7203">
        <ele>108.9</ele>
        <time>2021-10-24T11:32:47Z</time>
      </trkpt>
      <trkpt lat="45.18481" lon="0.7203">
        <ele>108.9</ele>
        <time>2021-10-24T11:32:49Z</time>
      </trkpt>
      <trkpt lat="45.18481" lon="0.7203">
        <ele>108.9</ele>
        <time>2021-10-24T11:32:50Z</time>
      </trkpt>
      <trkpt lat="45.18481" lon="0.7203">
        <ele>108.9</ele>
        <time>2021-10-24T11:32:52Z</time>
      </trkpt>
      <trkpt lat="45.18481" lon="0.7203">
        <ele>108.9</ele>
        <time>2021-10-24T11:32:54Z</time>
      </trkpt>
      <trkpt lat="45.18481" lon="0.7203">
        <ele>108.9</ele>
        <time>2021-10-24T11:32:56Z</time>
      </trkpt>
      <trkpt lat="45.18481" lon="0.7203">
        <ele>108.9</ele>
        <time>2021-10-24T11:32:58Z</time>
      </trkpt>
      <trkpt lat="45.18481" lon="0.7203">
        <ele>108.9</ele>
        <time>2021-10-24T11:32:59Z</time>
      </trkpt>
      <trkpt lat="45.18481" lon="0.7203">
        <ele>108.9</ele>
        <time>2021-10-24T11:33:00Z</time>
      </trkpt>
      <trkpt lat="45.18481" lon="0.7203">
        <ele>108.9</ele>
        <time>2021-10-24T11:33:01Z</time>
      </trkpt>
      <trkpt lat="45.18481" lon="0.7203">
        <ele>108.9</ele>
        <time>2021-10-24T11:33:03Z</time>
      </trkpt>
      <trkpt lat="45.18481" lon="0.7203">
        <ele>108.9</ele>
        <time>2021-10-24T11:33:04Z</time>
      </trkpt>
      <trkpt lat="45.18481" lon="0.7203">
        <ele>108.9</ele>
        <time>2021-10-24T11:33:06Z</time>
      </trkpt>
      <trkpt lat="45.18481" lon="0.7203">
        <ele>108.9</ele>
        <time>2021-10-24T11:33:07Z</time>
      </trkpt>
      <trkpt lat="45.18482" lon="0.72031">
        <ele>108.9</ele>
        <time>2021-10-24T11:33:09Z</time>
      </trkpt>
      <trkpt lat="45.18482" lon="0.72031">
        <ele>108.9</ele>
        <time>2021-10-24T11:33:10Z</time>
      </trkpt>
      <trkpt lat="45.18482" lon="0.72031">
        <ele>108.9</ele>
        <time>2021-10-24T11:33:12Z</time>
      </trkpt>
      <trkpt lat="45.18482" lon="0.72031">
        <ele>108.9</ele>
        <time>2021-10-24T11:33:14Z</time>
      </trkpt>
      <trkpt lat="45.18482" lon="0.72031">
        <ele>108.9</ele>
        <time>2021-10-24T11:33:16Z</time>
      </trkpt>
      <trkpt lat="45.18482" lon="0.72031">
        <ele>108.9</ele>
        <time>2021-10-24T11:33:18Z</time>
      </trkpt>
      <trkpt lat="45.18482" lon="0.72031">
        <ele>108.9</ele>
        <time>2021-10-24T11:33:20Z</time>
      </trkpt>
      <trkpt lat="45.18482" lon="0.72031">
        <ele>109</ele>
        <time>2021-10-24T11:33:22Z</time>
      </trkpt>
      <trkpt lat="45.18482" lon="0.72031">
        <ele>109</ele>
        <time>2021-10-24T11:33:23Z</time>
      </trkpt>
      <trkpt lat="45.18482" lon="0.72031">
        <ele>109</ele>
        <time>2021-10-24T11:33:24Z</time>
      </trkpt>
      <trkpt lat="45.18482" lon="0.72031">
        <ele>109.1</ele>
        <time>2021-10-24T11:33:26Z</time>
      </trkpt>
      <trkpt lat="45.18482" lon="0.72031">
        <ele>109.1</ele>
        <time>2021-10-24T11:33:27Z</time>
      </trkpt>
      <trkpt lat="45.18482" lon="0.72031">
        <ele>109.1</ele>
        <time>2021-10-24T11:33:29Z</time>
      </trkpt>
      <trkpt lat="45.18482" lon="0.72031">
        <ele>109.2</ele>
        <time>2021-10-24T11:33:31Z</time>
      </trkpt>
      <trkpt lat="45.18482" lon="0.72031">
        <ele>109.2</ele>
        <time>2021-10-24T11:33:32Z</time>
      </trkpt>
      <trkpt lat="45.18482" lon="0.72031">
        <ele>109.2</ele>
        <time>2021-10-24T11:33:34Z</time>
      </trkpt>
      <trkpt lat="45.18482" lon="0.72031">
        <ele>109.3</ele>
        <time>2021-10-24T11:33:35Z</time>
      </trkpt>
      <trkpt lat="45.18482" lon="0.72031">
        <ele>109.3</ele>
        <time>2021-10-24T11:33:37Z</time>
      </trkpt>
      <trkpt lat="45.18482" lon="0.72031">
        <ele>109.3</ele>
        <time>2021-10-24T11:33:39Z</time>
      </trkpt>
      <trkpt lat="45.18482" lon="0.72031">
        <ele>109.4</ele>
        <time>2021-10-24T11:33:41Z</time>
      </trkpt>
      <trkpt lat="45.18482" lon="0.72031">
        <ele>109.4</ele>
        <time>2021-10-24T11:33:43Z</time>
      </trkpt>
      <trkpt lat="45.18482" lon="0.72031">
        <ele>109.4</ele>
        <time>2021-10-24T11:33:44Z</time>
      </trkpt>
      <trkpt lat="45.18482" lon="0.72031">
        <ele>109.5</ele>
        <time>2021-10-24T11:33:45Z</time>
      </trkpt>
      <trkpt lat="45.18482" lon="0.72031">
        <ele>109.5</ele>
        <time>2021-10-24T11:33:47Z</time>
      </trkpt>
      <trkpt lat="45.18482" lon="0.72031">
        <ele>109.5</ele>
        <time>2021-10-24T11:33:49Z</time>
      </trkpt>
      <trkpt lat="45.18482" lon="0.72031">
        <ele>109.6</ele>
        <time>2021-10-24T11:33:51Z</time>
      </trkpt>
      <trkpt lat="45.18482" lon="0.72031">
        <ele>109.6</ele>
        <time>2021-10-24T11:33:52Z</time>
      </trkpt>
      <trkpt lat="45.18482" lon="0.72031">
        <ele>109.6</ele>
        <time>2021-10-24T11:33:54Z</time>
      </trkpt>
      <trkpt lat="45.18482" lon="0.72031">
        <ele>109.7</ele>
        <time>2021-10-24T11:33:55Z</time>
      </trkpt>
      <trkpt lat="45.18482" lon="0.72031">
        <ele>109.7</ele>
        <time>2021-10-24T11:33:56Z</time>
      </trkpt>
      <trkpt lat="45.18482" lon="0.72031">
        <ele>109.7</ele>
        <time>2021-10-24T11:33:57Z</time>
      </trkpt>
      <trkpt lat="45.18482" lon="0.72031">
        <ele>109.8</ele>
        <time>2021-10-24T11:33:59Z</time>
      </trkpt>
      <trkpt lat="45.18482" lon="0.72031">
        <ele>109.8</ele>
        <time>2021-10-24T11:34:00Z</time>
      </trkpt>
      <trkpt lat="45.18482" lon="0.72031">
        <ele>109.8</ele>
        <time>2021-10-24T11:34:02Z</time>
      </trkpt>
      <trkpt lat="45.18482" lon="0.72031">
        <ele>109.9</ele>
        <time>2021-10-24T11:34:03Z</time>
      </trkpt>
      <trkpt lat="45.18482" lon="0.72031">
        <ele>109.9</ele>
        <time>2021-10-24T11:34:05Z</time>
      </trkpt>
      <trkpt lat="45.18482" lon="0.72031">
        <ele>109.9</ele>
        <time>2021-10-24T11:34:07Z</time>
      </trkpt>
      <trkpt lat="45.18482" lon="0.72031">
        <ele>110</ele>
        <time>2021-10-24T11:34:08Z</time>
      </trkpt>
      <trkpt lat="45.18482" lon="0.72031">
        <ele>110</ele>
        <time>2021-10-24T11:34:10Z</time>
      </trkpt>
      <trkpt lat="45.18482" lon="0.72031">
        <ele>110</ele>
        <time>2021-10-24T11:34:11Z</time>
      </trkpt>
      <trkpt lat="45.18482" lon="0.72031">
        <ele>110.1</ele>
        <time>2021-10-24T11:34:13Z</time>
      </trkpt>
      <trkpt lat="45.18482" lon="0.72031">
        <ele>110.1</ele>
        <time>2021-10-24T11:34:15Z</time>
      </trkpt>
      <trkpt lat="45.18482" lon="0.72031">
        <ele>110.1</ele>
        <time>2021-10-24T11:34:16Z</time>
      </trkpt>
      <trkpt lat="45.18482" lon="0.72031">
        <ele>110.2</ele>
        <time>2021-10-24T11:34:18Z</time>
      </trkpt>
      <trkpt lat="45.18482" lon="0.72031">
        <ele>110.2</ele>
        <time>2021-10-24T11:34:20Z</time>
      </trkpt>
      <trkpt lat="45.18482" lon="0.72031">
        <ele>110.2</ele>
        <time>2021-10-24T11:34:21Z</time>
      </trkpt>
      <trkpt lat="45.18482" lon="0.72031">
        <ele>110.3</ele>
        <time>2021-10-24T11:34:23Z</time>
      </trkpt>
      <trkpt lat="45.18482" lon="0.72031">
        <ele>110.3</ele>
        <time>2021-10-24T11:34:24Z</time>
      </trkpt>
      <trkpt lat="45.18482" lon="0.72031">
        <ele>110.3</ele>
        <time>2021-10-24T11:34:26Z</time>
      </trkpt>
      <trkpt lat="45.18482" lon="0.72031">
        <ele>110.4</ele>
        <time>2021-10-24T11:34:27Z</time>
      </trkpt>
      <trkpt lat="45.18482" lon="0.72031">
        <ele>110.4</ele>
        <time>2021-10-24T11:34:28Z</time>
      </trkpt>
      <trkpt lat="45.18482" lon="0.72031">
        <ele>110.4</ele>
        <time>2021-10-24T11:34:29Z</time>
      </trkpt>
      <trkpt lat="45.18482" lon="0.72031">
        <ele>110.5</ele>
        <time>2021-10-24T11:34:31Z</time>
      </trkpt>
      <trkpt lat="45.18482" lon="0.72031">
        <ele>110.5</ele>
        <time>2021-10-24T11:34:32Z</time>
      </trkpt>
      <trkpt lat="45.18482" lon="0.72031">
        <ele>110.5</ele>
        <time>2021-10-24T11:34:34Z</time>
      </trkpt>
      <trkpt lat="45.18482" lon="0.72031">
        <ele>110.6</ele>
        <time>2021-10-24T11:34:36Z</time>
      </trkpt>
      <trkpt lat="45.18482" lon="0.72031">
        <ele>110.6</ele>
        <time>2021-10-24T11:34:37Z</time>
      </trkpt>
      <trkpt lat="45.18482" lon="0.72031">
        <ele>110.6</ele>
        <time>2021-10-24T11:34:39Z</time>
      </trkpt>
      <trkpt lat="45.18482" lon="0.72031">
        <ele>110.6</ele>
        <time>2021-10-24T11:34:40Z</time>
      </trkpt>
      <trkpt lat="45.18482" lon="0.72031">
        <ele>110.7</ele>
        <time>2021-10-24T11:34:42Z</time>
      </trkpt>
      <trkpt lat="45.18482" lon="0.72031">
        <ele>110.7</ele>
        <time>2021-10-24T11:34:43Z</time>
      </trkpt>
      <trkpt lat="45.18482" lon="0.72031">
        <ele>110.7</ele>
        <time>2021-10-24T11:34:45Z</time>
      </trkpt>
      <trkpt lat="45.18482" lon="0.72031">
        <ele>110.8</ele>
        <time>2021-10-24T11:34:47Z</time>
      </trkpt>
      <trkpt lat="45.18482" lon="0.72031">
        <ele>110.8</ele>
        <time>2021-10-24T11:34:48Z</time>
      </trkpt>
      <trkpt lat="45.18482" lon="0.72031">
        <ele>110.8</ele>
        <time>2021-10-24T11:34:50Z</time>
      </trkpt>
      <trkpt lat="45.18482" lon="0.72031">
        <ele>110.9</ele>
        <time>2021-10-24T11:34:52Z</time>
      </trkpt>
      <trkpt lat="45.18482" lon="0.72031">
        <ele>110.9</ele>
        <time>2021-10-24T11:34:54Z</time>
      </trkpt>
      <trkpt lat="45.18482" lon="0.72031">
        <ele>110.9</ele>
        <time>2021-10-24T11:34:55Z</time>
      </trkpt>
      <trkpt lat="45.18482" lon="0.72031">
        <ele>111</ele>
        <time>2021-10-24T11:34:57Z</time>
      </trkpt>
      <trkpt lat="45.18482" lon="0.72031">
        <ele>111</ele>
        <time>2021-10-24T11:34:58Z</time>
      </trkpt>
      <trkpt lat="45.18482" lon="0.72031">
        <ele>111</ele>
        <time>2021-10-24T11:35:00Z</time>
      </trkpt>
      <trkpt lat="45.18482" lon="0.72031">
        <ele>111.1</ele>
        <time>2021-10-24T11:35:01Z</time>
      </trkpt>
      <trkpt lat="45.18482" lon="0.72031">
        <ele>111.1</ele>
        <time>2021-10-24T11:35:02Z</time>
      </trkpt>
      <trkpt lat="45.18482" lon="0.72031">
        <ele>111.1</ele>
        <time>2021-10-24T11:35:03Z</time>
      </trkpt>
      <trkpt lat="45.18482" lon="0.72031">
        <ele>111.2</ele>
        <time>2021-10-24T11:35:04Z</time>
      </trkpt>
      <trkpt lat="45.18482" lon="0.72031">
        <ele>111.2</ele>
        <time>2021-10-24T11:35:05Z</time>
      </trkpt>
      <trkpt lat="45.18482" lon="0.72031">
        <ele>111.2</ele>
        <time>2021-10-24T11:35:07Z</time>
      </trkpt>
      <trkpt lat="45.18482" lon="0.72031">
        <ele>111.3</ele>
        <time>2021-10-24T11:35:08Z</time>
      </trkpt>
      <trkpt lat="45.18482" lon="0.72031">
        <ele>111.3</ele>
        <time>2021-10-24T11:35:09Z</time>
      </trkpt>
      <trkpt lat="45.18482" lon="0.72031">
        <ele>111.3</ele>
        <time>2021-10-24T11:35:11Z</time>
      </trkpt>
      <trkpt lat="45.18482" lon="0.72031">
        <ele>111.4</ele>
        <time>2021-10-24T11:35:12Z</time>
      </trkpt>
      <trkpt lat="45.18482" lon="0.72031">
        <ele>111.4</ele>
        <time>2021-10-24T11:35:13Z</time>
      </trkpt>
      <trkpt lat="45.18482" lon="0.72031">
        <ele>111.4</ele>
        <time>2021-10-24T11:35:15Z</time>
      </trkpt>
      <trkpt lat="45.18482" lon="0.72031">
        <ele>111.5</ele>
        <time>2021-10-24T11:35:17Z</time>
      </trkpt>
      <trkpt lat="45.18482" lon="0.72031">
        <ele>111.5</ele>
        <time>2021-10-24T11:35:19Z</time>
      </trkpt>
      <trkpt lat="45.18482" lon="0.72031">
        <ele>111.5</ele>
        <time>2021-10-24T11:35:20Z</time>
      </trkpt>
      <trkpt lat="45.18482" lon="0.72031">
        <ele>111.6</ele>
        <time>2021-10-24T11:35:22Z</time>
      </trkpt>
      <trkpt lat="45.18482" lon="0.72031">
        <ele>111.6</ele>
        <time>2021-10-24T11:35:23Z</time>
      </trkpt>
      <trkpt lat="45.18482" lon="0.72031">
        <ele>111.6</ele>
        <time>2021-10-24T11:35:24Z</time>
      </trkpt>
      <trkpt lat="45.18482" lon="0.72031">
        <ele>111.7</ele>
        <time>2021-10-24T11:35:26Z</time>
      </trkpt>
      <trkpt lat="45.18482" lon="0.72031">
        <ele>111.7</ele>
        <time>2021-10-24T11:35:28Z</time>
      </trkpt>
      <trkpt lat="45.18482" lon="0.72031">
        <ele>111.7</ele>
        <time>2021-10-24T11:35:29Z</time>
      </trkpt>
      <trkpt lat="45.18482" lon="0.72031">
        <ele>111.8</ele>
        <time>2021-10-24T11:35:30Z</time>
      </trkpt>
      <trkpt lat="45.18482" lon="0.72031">
        <ele>111.8</ele>
        <time>2021-10-24T11:35:31Z</time>
      </trkpt>
      <trkpt lat="45.18482" lon="0.72031">
        <ele>111.8</ele>
        <time>2021-10-24T11:35:33Z</time>
      </trkpt>
      <trkpt lat="45.18482" lon="0.72031">
        <ele>111.9</ele>
        <time>2021-10-24T11:35:35Z</time>
      </trkpt>
      <trkpt lat="45.18482" lon="0.72031">
        <ele>111.9</ele>
        <time>2021-10-24T11:35:36Z</time>
      </trkpt>
      <trkpt lat="45.18482" lon="0.72031">
        <ele>111.9</ele>
        <time>2021-10-24T11:35:38Z</time>
      </trkpt>
      <trkpt lat="45.18482" lon="0.72031">
        <ele>112</ele>
        <time>2021-10-24T11:35:39Z</time>
      </trkpt>
      <trkpt lat="45.18482" lon="0.72031">
        <ele>112</ele>
        <time>2021-10-24T11:35:41Z</time>
      </trkpt>
      <trkpt lat="45.18482" lon="0.72031">
        <ele>112</ele>
        <time>2021-10-24T11:35:42Z</time>
      </trkpt>
      <trkpt lat="45.18482" lon="0.72031">
        <ele>112.1</ele>
        <time>2021-10-24T11:35:44Z</time>
      </trkpt>
      <trkpt lat="45.18482" lon="0.72031">
        <ele>112.1</ele>
        <time>2021-10-24T11:35:46Z</time>
      </trkpt>
      <trkpt lat="45.18482" lon="0.72031">
        <ele>112.1</ele>
        <time>2021-10-24T11:35:48Z</time>
      </trkpt>
      <trkpt lat="45.18482" lon="0.72031">
        <ele>112.2</ele>
        <time>2021-10-24T11:35:49Z</time>
      </trkpt>
      <trkpt lat="45.18482" lon="0.72031">
        <ele>112.2</ele>
        <time>2021-10-24T11:35:51Z</time>
      </trkpt>
      <trkpt lat="45.18482" lon="0.72031">
        <ele>112.2</ele>
        <time>2021-10-24T11:35:52Z</time>
      </trkpt>
      <trkpt lat="45.18482" lon="0.72031">
        <ele>112.2</ele>
        <time>2021-10-24T11:35:54Z</time>
      </trkpt>
      <trkpt lat="45.18482" lon="0.72031">
        <ele>112.2</ele>
        <time>2021-10-24T11:35:56Z</time>
      </trkpt>
      <trkpt lat="45.18482" lon="0.72031">
        <ele>112.2</ele>
        <time>2021-10-24T11:35:57Z</time>
      </trkpt>
      <trkpt lat="45.18482" lon="0.72031">
        <ele>112.2</ele>
        <time>2021-10-24T11:35:59Z</time>
      </trkpt>
      <trkpt lat="45.18482" lon="0.72031">
        <ele>112.2</ele>
        <time>2021-10-24T11:36:00Z</time>
      </trkpt>
      <trkpt lat="45.18482" lon="0.72031">
        <ele>112.2</ele>
        <time>2021-10-24T11:36:02Z</time>
      </trkpt>
      <trkpt lat="45.18482" lon="0.72031">
        <ele>112.2</ele>
        <time>2021-10-24T11:36:03Z</time>
      </trkpt>
      <trkpt lat="45.18482" lon="0.72031">
        <ele>112.2</ele>
        <time>2021-10-24T11:36:04Z</time>
      </trkpt>
      <trkpt lat="45.18482" lon="0.72031">
        <ele>112.2</ele>
        <time>2021-10-24T11:36:06Z</time>
      </trkpt>
      <trkpt lat="45.18482" lon="0.72031">
        <ele>112.2</ele>
        <time>2021-10-24T11:36:08Z</time>
      </trkpt>
      <trkpt lat="45.18482" lon="0.72031">
        <ele>112.2</ele>
        <time>2021-10-24T11:36:09Z</time>
      </trkpt>
      <trkpt lat="45.18482" lon="0.72031">
        <ele>112.2</ele>
        <time>2021-10-24T11:36:10Z</time>
      </trkpt>
      <trkpt lat="45.18482" lon="0.72031">
        <ele>112.2</ele>
        <time>2021-10-24T11:36:12Z</time>
      </trkpt>
      <trkpt lat="45.18482" lon="0.72031">
        <ele>112.2</ele>
        <time>2021-10-24T11:36:14Z</time>
      </trkpt>
      <trkpt lat="45.18482" lon="0.72031">
        <ele>112.2</ele>
        <time>2021-10-24T11:36:15Z</time>
      </trkpt>
      <trkpt lat="45.18482" lon="0.72031">
        <ele>112.2</ele>
        <time>2021-10-24T11:36:17Z</time>
      </trkpt>
      <trkpt lat="45.18482" lon="0.72031">
        <ele>112.2</ele>
        <time>2021-10-24T11:36:18Z</time>
      </trkpt>
      <trkpt lat="45.18482" lon="0.72031">
        <ele>112.2</ele>
        <time>2021-10-24T11:36:20Z</time>
      </trkpt>
      <trkpt lat="45.18482" lon="0.72031">
        <ele>112.2</ele>
        <time>2021-10-24T11:36:22Z</time>
      </trkpt>
      <trkpt lat="45.18482" lon="0.72031">
        <ele>112.2</ele>
        <time>2021-10-24T11:36:24Z</time>
      </trkpt>
      <trkpt lat="45.18482" lon="0.72031">
        <ele>112.2</ele>
        <time>2021-10-24T11:36:25Z</time>
      </trkpt>
      <trkpt lat="45.18482" lon="0.72031">
        <ele>112.2</ele>
        <time>2021-10-24T11:36:27Z</time>
      </trkpt>
      <trkpt lat="45.18482" lon="0.72031">
        <ele>112.2</ele>
        <time>2021-10-24T11:36:28Z</time>
      </trkpt>
      <trkpt lat="45.18482" lon="0.72031">
        <ele>112.2</ele>
        <time>2021-10-24T11:36:29Z</time>
      </trkpt>
      <trkpt lat="45.18482" lon="0.72031">
        <ele>112.2</ele>
        <time>2021-10-24T11:36:30Z</time>
      </trkpt>
      <trkpt lat="45.18482" lon="0.72031">
        <ele>112.2</ele>
        <time>2021-10-24T11:36:32Z</time>
      </trkpt>
      <trkpt lat="45.18482" lon="0.72031">
        <ele>112.2</ele>
        <time>2021-10-24T11:36:34Z</time>
      </trkpt>
      <trkpt lat="45.18482" lon="0.72031">
        <ele>112.2</ele>
        <time>2021-10-24T11:36:36Z</time>
      </trkpt>
      <trkpt lat="45.18482" lon="0.72031">
        <ele>112.2</ele>
        <time>2021-10-24T11:36:38Z</time>
      </trkpt>
      <trkpt lat="45.18482" lon="0.72031">
        <ele>112.2</ele>
        <time>2021-10-24T11:36:40Z</time>
      </trkpt>
      <trkpt lat="45.18482" lon="0.72031">
        <ele>112.2</ele>
        <time>2021-10-24T11:36:41Z</time>
      </trkpt>
      <trkpt lat="45.18482" lon="0.72031">
        <ele>112.2</ele>
        <time>2021-10-24T11:36:43Z</time>
      </trkpt>
      <trkpt lat="45.18482" lon="0.72031">
        <ele>112.2</ele>
        <time>2021-10-24T11:36:44Z</time>
      </trkpt>
      <trkpt lat="45.18482" lon="0.72031">
        <ele>112.2</ele>
        <time>2021-10-24T11:36:46Z</time>
      </trkpt>
      <trkpt lat="45.18482" lon="0.72031">
        <ele>112.2</ele>
        <time>2021-10-24T11:36:47Z</time>
      </trkpt>
      <trkpt lat="45.18482" lon="0.72031">
        <ele>112.2</ele>
        <time>2021-10-24T11:36:49Z</time>
      </trkpt>
      <trkpt lat="45.18482" lon="0.72031">
        <ele>112.2</ele>
        <time>2021-10-24T11:36:51Z</time>
      </trkpt>
      <trkpt lat="45.18482" lon="0.72031">
        <ele>112.2</ele>
        <time>2021-10-24T11:36:53Z</time>
      </trkpt>
      <trkpt lat="45.18482" lon="0.72031">
        <ele>112.2</ele>
        <time>2021-10-24T11:36:55Z</time>
      </trkpt>
      <trkpt lat="45.18482" lon="0.72031">
        <ele>112.2</ele>
        <time>2021-10-24T11:36:57Z</time>
      </trkpt>
      <trkpt lat="45.18482" lon="0.72031">
        <ele>112.2</ele>
        <time>2021-10-24T11:36:58Z</time>
      </trkpt>
      <trkpt lat="45.18482" lon="0.72031">
        <ele>112.2</ele>
        <time>2021-10-24T11:37:00Z</time>
      </trkpt>
      <trkpt lat="45.18482" lon="0.72031">
        <ele>112.2</ele>
        <time>2021-10-24T11:37:01Z</time>
      </trkpt>
      <trkpt lat="45.18482" lon="0.72031">
        <ele>112.2</ele>
        <time>2021-10-24T11:37:02Z</time>
      </trkpt>
      <trkpt lat="45.18482" lon="0.72031">
        <ele>112.2</ele>
        <time>2021-10-24T11:37:04Z</time>
      </trkpt>
      <trkpt lat="45.18482" lon="0.72031">
        <ele>112.2</ele>
        <time>2021-10-24T11:37:05Z</time>
      </trkpt>
      <trkpt lat="45.18482" lon="0.72031">
        <ele>112.2</ele>
        <time>2021-10-24T11:37:06Z</time>
      </trkpt>
      <trkpt lat="45.18482" lon="0.72031">
        <ele>112.2</ele>
        <time>2021-10-24T11:37:07Z</time>
      </trkpt>
      <trkpt lat="45.18482" lon="0.72031">
        <ele>112.2</ele>
        <time>2021-10-24T11:37:09Z</time>
      </trkpt>
      <trkpt lat="45.18482" lon="0.72031">
        <ele>112.2</ele>
        <time>2021-10-24T11:37:10Z</time>
      </trkpt>
      <trkpt lat="45.18482" lon="0.72031">
        <ele>112.2</ele>
        <time>2021-10-24T11:37:11Z</time>
      </trkpt>
      <trkpt lat="45.18482" lon="0.72031">
        <ele>112.2</ele>
        <time>2021-10-24T11:37:12Z</time>
      </trkpt>
      <trkpt lat="45.18482" lon="0.72031">
        <ele>112.2</ele>
        <time>2021-10-24T11:37:14Z</time>
      </trkpt>
      <trkpt lat="45.18482" lon="0.72031">
        <ele>112.2</ele>
        <time>2021-10-24T11:37:16Z</time>
      </trkpt>
      <trkpt lat="45.18482" lon="0.72031">
        <ele>112.2</ele>
        <time>2021-10-24T11:37:17Z</time>
      </trkpt>
      <trkpt lat="45.18482" lon="0.72031">
        <ele>112.2</ele>
        <time>2021-10-24T11:37:18Z</time>
      </trkpt>
      <trkpt lat="45.18482" lon="0.72031">
        <ele>112.2</ele>
        <time>2021-10-24T11:37:20Z</time>
      </trkpt>
      <trkpt lat="45.18482" lon="0.72031">
        <ele>112.2</ele>
        <time>2021-10-24T11:37:21Z</time>
      </trkpt>
      <trkpt lat="45.18484" lon="0.7203">
        <ele>112.2</ele>
        <time>2021-10-24T11:37:23Z</time>
      </trkpt>
      <trkpt lat="45.18487" lon="0.72029">
        <ele>112.2</ele>
        <time>2021-10-24T11:37:25Z</time>
      </trkpt>
      <trkpt lat="45.18488" lon="0.72029">
        <ele>112.2</ele>
        <time>2021-10-24T11:37:27Z</time>
      </trkpt>
      <trkpt lat="45.18488" lon="0.72028">
        <ele>112.2</ele>
        <time>2021-10-24T11:37:29Z</time>
      </trkpt>
      <trkpt lat="45.18488" lon="0.72029">
        <ele>112.2</ele>
        <time>2021-10-24T11:37:30Z</time>
      </trkpt>
      <trkpt lat="45.18488" lon="0.72029">
        <ele>112.2</ele>
        <time>2021-10-24T11:37:31Z</time>
      </trkpt>
      <trkpt lat="45.18488" lon="0.72029">
        <ele>112.2</ele>
        <time>2021-10-24T11:37:33Z</time>
      </trkpt>
      <trkpt lat="45.18489" lon="0.7203">
        <ele>112.2</ele>
        <time>2021-10-24T11:37:35Z</time>
      </trkpt>
      <trkpt lat="45.1849" lon="0.72031">
        <ele>112.2</ele>
        <time>2021-10-24T11:37:37Z</time>
      </trkpt>
      <trkpt lat="45.18491" lon="0.72029">
        <ele>112.2</ele>
        <time>2021-10-24T11:37:39Z</time>
      </trkpt>
      <trkpt lat="45.18491" lon="0.72028">
        <ele>112.2</ele>
        <time>2021-10-24T11:37:40Z</time>
      </trkpt>
      <trkpt lat="45.18491" lon="0.72027">
        <ele>112.2</ele>
        <time>2021-10-24T11:37:41Z</time>
      </trkpt>
      <trkpt lat="45.1849" lon="0.72023">
        <ele>112.2</ele>
        <time>2021-10-24T11:37:43Z</time>
      </trkpt>
      <trkpt lat="45.1849" lon="0.72022">
        <ele>112.2</ele>
        <time>2021-10-24T11:37:44Z</time>
      </trkpt>
      <trkpt lat="45.1849" lon="0.7202">
        <ele>112.2</ele>
        <time>2021-10-24T11:37:45Z</time>
      </trkpt>
      <trkpt lat="45.18489" lon="0.72019">
        <ele>112.2</ele>
        <time>2021-10-24T11:37:46Z</time>
      </trkpt>
      <trkpt lat="45.18489" lon="0.72017">
        <ele>112.2</ele>
        <time>2021-10-24T11:37:48Z</time>
      </trkpt>
      <trkpt lat="45.18488" lon="0.72016">
        <ele>112.2</ele>
        <time>2021-10-24T11:37:49Z</time>
      </trkpt>
      <trkpt lat="45.18488" lon="0.72015">
        <ele>112.2</ele>
        <time>2021-10-24T11:37:51Z</time>
      </trkpt>
      <trkpt lat="45.18487" lon="0.72014">
        <ele>112.2</ele>
        <time>2021-10-24T11:37:52Z</time>
      </trkpt>
      <trkpt lat="45.18486" lon="0.72012">
        <ele>112.2</ele>
        <time>2021-10-24T11:37:54Z</time>
      </trkpt>
      <trkpt lat="45.18485" lon="0.7201">
        <ele>112.2</ele>
        <time>2021-10-24T11:37:55Z</time>
      </trkpt>
      <trkpt lat="45.18485" lon="0.7201">
        <ele>112.2</ele>
        <time>2021-10-24T11:37:56Z</time>
      </trkpt>
      <trkpt lat="45.18484" lon="0.72009">
        <ele>112.2</ele>
        <time>2021-10-24T11:37:58Z</time>
      </trkpt>
      <trkpt lat="45.18483" lon="0.72008">
        <ele>112.2</ele>
        <time>2021-10-24T11:37:59Z</time>
      </trkpt>
      <trkpt lat="45.18483" lon="0.72007">
        <ele>112.2</ele>
        <time>2021-10-24T11:38:00Z</time>
      </trkpt>
      <trkpt lat="45.18482" lon="0.72005">
        <ele>112.2</ele>
        <time>2021-10-24T11:38:02Z</time>
      </trkpt>
      <trkpt lat="45.18481" lon="0.72003">
        <ele>112.2</ele>
        <time>2021-10-24T11:38:04Z</time>
      </trkpt>
      <trkpt lat="45.18481" lon="0.72002">
        <ele>112.2</ele>
        <time>2021-10-24T11:38:06Z</time>
      </trkpt>
      <trkpt lat="45.18481" lon="0.72002">
        <ele>112.2</ele>
        <time>2021-10-24T11:38:07Z</time>
      </trkpt>
      <trkpt lat="45.18481" lon="0.72001">
        <ele>112.2</ele>
        <time>2021-10-24T11:38:08Z</time>
      </trkpt>
      <trkpt lat="45.18481" lon="0.72">
        <ele>112.2</ele>
        <time>2021-10-24T11:38:10Z</time>
      </trkpt>
      <trkpt lat="45.18481" lon="0.72">
        <ele>112.2</ele>
        <time>2021-10-24T11:38:12Z</time>
      </trkpt>
      <trkpt lat="45.1848" lon="0.72">
        <ele>112.2</ele>
        <time>2021-10-24T11:38:13Z</time>
      </trkpt>
      <trkpt lat="45.1848" lon="0.72">
        <ele>112.2</ele>
        <time>2021-10-24T11:38:14Z</time>
      </trkpt>
      <trkpt lat="45.1848" lon="0.72001">
        <ele>112.2</ele>
        <time>2021-10-24T11:38:15Z</time>
      </trkpt>
      <trkpt lat="45.18481" lon="0.72002">
        <ele>112.2</ele>
        <time>2021-10-24T11:38:17Z</time>
      </trkpt>
      <trkpt lat="45.18481" lon="0.72003">
        <ele>112.2</ele>
        <time>2021-10-24T11:38:19Z</time>
      </trkpt>
      <trkpt lat="45.18481" lon="0.72003">
        <ele>112.2</ele>
        <time>2021-10-24T11:38:21Z</time>
      </trkpt>
      <trkpt lat="45.18481" lon="0.72003">
        <ele>112.2</ele>
        <time>2021-10-24T11:38:22Z</time>
      </trkpt>
      <trkpt lat="45.18481" lon="0.72003">
        <ele>112.2</ele>
        <time>2021-10-24T11:38:23Z</time>
      </trkpt>
      <trkpt lat="45.18481" lon="0.72003">
        <ele>112.2</ele>
        <time>2021-10-24T11:38:25Z</time>
      </trkpt>
      <trkpt lat="45.18481" lon="0.72003">
        <ele>112.2</ele>
        <time>2021-10-24T11:38:27Z</time>
      </trkpt>
      <trkpt lat="45.18481" lon="0.72003">
        <ele>112.2</ele>
        <time>2021-10-24T11:38:29Z</time>
      </trkpt>
      <trkpt lat="45.18481" lon="0.72003">
        <ele>112.2</ele>
        <time>2021-10-24T11:38:30Z</time>
      </trkpt>
      <trkpt lat="45.18481" lon="0.72003">
        <ele>112.2</ele>
        <time>2021-10-24T11:38:32Z</time>
      </trkpt>
      <trkpt lat="45.18481" lon="0.72003">
        <ele>112.2</ele>
        <time>2021-10-24T11:38:33Z</time>
      </trkpt>
      <trkpt lat="45.18481" lon="0.72003">
        <ele>112.2</ele>
        <time>2021-10-24T11:38:35Z</time>
      </trkpt>
      <trkpt lat="45.18481" lon="0.72003">
        <ele>112.2</ele>
        <time>2021-10-24T11:38:37Z</time>
      </trkpt>
      <trkpt lat="45.18481" lon="0.72003">
        <ele>112.2</ele>
        <time>2021-10-24T11:38:38Z</time>
      </trkpt>
      <trkpt lat="45.18481" lon="0.72003">
        <ele>112.2</ele>
        <time>2021-10-24T11:38:40Z</time>
      </trkpt>
      <trkpt lat="45.18481" lon="0.72003">
        <ele>112.2</ele>
        <time>2021-10-24T11:38:42Z</time>
      </trkpt>
      <trkpt lat="45.18481" lon="0.72003">
        <ele>112.2</ele>
        <time>2021-10-24T11:38:43Z</time>
      </trkpt>
      <trkpt lat="45.18481" lon="0.72003">
        <ele>112.2</ele>
        <time>2021-10-24T11:38:45Z</time>
      </trkpt>
      <trkpt lat="45.18481" lon="0.72003">
        <ele>112.2</ele>
        <time>2021-10-24T11:38:46Z</time>
      </trkpt>
      <trkpt lat="45.18481" lon="0.72003">
        <ele>112.2</ele>
        <time>2021-10-24T11:38:47Z</time>
      </trkpt>
      <trkpt lat="45.18482" lon="0.72004">
        <ele>112.2</ele>
        <time>2021-10-24T11:38:49Z</time>
      </trkpt>
      <trkpt lat="45.18482" lon="0.72004">
        <ele>112.2</ele>
        <time>2021-10-24T11:38:51Z</time>
      </trkpt>
      <trkpt lat="45.18482" lon="0.72004">
        <ele>112.2</ele>
        <time>2021-10-24T11:38:52Z</time>
      </trkpt>
      <trkpt lat="45.18482" lon="0.72004">
        <ele>112.2</ele>
        <time>2021-10-24T11:38:53Z</time>
      </trkpt>
      <trkpt lat="45.18482" lon="0.72005">
        <ele>112.2</ele>
        <time>2021-10-24T11:38:55Z</time>
      </trkpt>
      <trkpt lat="45.18482" lon="0.72005">
        <ele>112.2</ele>
        <time>2021-10-24T11:38:56Z</time>
      </trkpt>
      <trkpt lat="45.18482" lon="0.72005">
        <ele>112.2</ele>
        <time>2021-10-24T11:38:58Z</time>
      </trkpt>
      <trkpt lat="45.18482" lon="0.72005">
        <ele>112.2</ele>
        <time>2021-10-24T11:39:00Z</time>
      </trkpt>
      <trkpt lat="45.18482" lon="0.72005">
        <ele>112.2</ele>
        <time>2021-10-24T11:39:01Z</time>
      </trkpt>
      <trkpt lat="45.18482" lon="0.72005">
        <ele>112.2</ele>
        <time>2021-10-24T11:39:03Z</time>
      </trkpt>
      <trkpt lat="45.18482" lon="0.72005">
        <ele>112.2</ele>
        <time>2021-10-24T11:39:05Z</time>
      </trkpt>
      <trkpt lat="45.18482" lon="0.72005">
        <ele>112.2</ele>
        <time>2021-10-24T11:39:07Z</time>
      </trkpt>
      <trkpt lat="45.18482" lon="0.72005">
        <ele>112.2</ele>
        <time>2021-10-24T11:39:09Z</time>
      </trkpt>
      <trkpt lat="45.18482" lon="0.72005">
        <ele>112.2</ele>
        <time>2021-10-24T11:39:10Z</time>
      </trkpt>
      <trkpt lat="45.18482" lon="0.72005">
        <ele>112.2</ele>
        <time>2021-10-24T11:39:12Z</time>
      </trkpt>
      <trkpt lat="45.18482" lon="0.72005">
        <ele>112.2</ele>
        <time>2021-10-24T11:39:13Z</time>
      </trkpt>
      <trkpt lat="45.18482" lon="0.72005">
        <ele>112.2</ele>
        <time>2021-10-24T11:39:15Z</time>
      </trkpt>
      <trkpt lat="45.18482" lon="0.72005">
        <ele>112.2</ele>
        <time>2021-10-24T11:39:17Z</time>
      </trkpt>
      <trkpt lat="45.18482" lon="0.72005">
        <ele>112.2</ele>
        <time>2021-10-24T11:39:18Z</time>
      </trkpt>
      <trkpt lat="45.18482" lon="0.72005">
        <ele>112.2</ele>
        <time>2021-10-24T11:39:20Z</time>
      </trkpt>
      <trkpt lat="45.18482" lon="0.72005">
        <ele>112.2</ele>
        <time>2021-10-24T11:39:22Z</time>
      </trkpt>
      <trkpt lat="45.18482" lon="0.72005">
        <ele>112.2</ele>
        <time>2021-10-24T11:39:23Z</time>
      </trkpt>
      <trkpt lat="45.18482" lon="0.72005">
        <ele>112.2</ele>
        <time>2021-10-24T11:39:24Z</time>
      </trkpt>
      <trkpt lat="45.18482" lon="0.72005">
        <ele>112.2</ele>
        <time>2021-10-24T11:39:26Z</time>
      </trkpt>
      <trkpt lat="45.18482" lon="0.72005">
        <ele>112.2</ele>
        <time>2021-10-24T11:39:28Z</time>
      </trkpt>
      <trkpt lat="45.18482" lon="0.72005">
        <ele>112.2</ele>
        <time>2021-10-24T11:39:29Z</time>
      </trkpt>
      <trkpt lat="45.18482" lon="0.72005">
        <ele>112.2</ele>
        <time>2021-10-24T11:39:30Z</time>
      </trkpt>
      <trkpt lat="45.18482" lon="0.72005">
        <ele>112.2</ele>
        <time>2021-10-24T11:39:32Z</time>
      </trkpt>
      <trkpt lat="45.18482" lon="0.72005">
        <ele>112.2</ele>
        <time>2021-10-24T11:39:34Z</time>
      </trkpt>
      <trkpt lat="45.18482" lon="0.72005">
        <ele>112.2</ele>
        <time>2021-10-24T11:39:35Z</time>
      </trkpt>
      <trkpt lat="45.18482" lon="0.72005">
        <ele>112.2</ele>
        <time>2021-10-24T11:39:37Z</time>
      </trkpt>
      <trkpt lat="45.18482" lon="0.72005">
        <ele>112.2</ele>
        <time>2021-10-24T11:39:38Z</time>
      </trkpt>
      <trkpt lat="45.18482" lon="0.72005">
        <ele>112.2</ele>
        <time>2021-10-24T11:39:40Z</time>
      </trkpt>
      <trkpt lat="45.18482" lon="0.72005">
        <ele>112.2</ele>
        <time>2021-10-24T11:39:41Z</time>
      </trkpt>
      <trkpt lat="45.18482" lon="0.72005">
        <ele>112.2</ele>
        <time>2021-10-24T11:39:42Z</time>
      </trkpt>
      <trkpt lat="45.18482" lon="0.72005">
        <ele>112.2</ele>
        <time>2021-10-24T11:39:43Z</time>
      </trkpt>
      <trkpt lat="45.18482" lon="0.72005">
        <ele>112.2</ele>
        <time>2021-10-24T11:39:45Z</time>
      </trkpt>
      <trkpt lat="45.18482" lon="0.72005">
        <ele>112.2</ele>
        <time>2021-10-24T11:39:47Z</time>
      </trkpt>
      <trkpt lat="45.18482" lon="0.72005">
        <ele>112.2</ele>
        <time>2021-10-24T11:39:49Z</time>
      </trkpt>
      <trkpt lat="45.18482" lon="0.72005">
        <ele>112.2</ele>
        <time>2021-10-24T11:39:50Z</time>
      </trkpt>
      <trkpt lat="45.18482" lon="0.72005">
        <ele>112.2</ele>
        <time>2021-10-24T11:39:52Z</time>
      </trkpt>
      <trkpt lat="45.18482" lon="0.72005">
        <ele>112.2</ele>
        <time>2021-10-24T11:39:53Z</time>
      </trkpt>
      <trkpt lat="45.18482" lon="0.72005">
        <ele>112.2</ele>
        <time>2021-10-24T11:39:55Z</time>
      </trkpt>
      <trkpt lat="45.18482" lon="0.72005">
        <ele>112.2</ele>
        <time>2021-10-24T11:39:57Z</time>
      </trkpt>
      <trkpt lat="45.18482" lon="0.72005">
        <ele>112.2</ele>
        <time>2021-10-24T11:39:58Z</time>
      </trkpt>
      <trkpt lat="45.18482" lon="0.72005">
        <ele>112.2</ele>
        <time>2021-10-24T11:39:59Z</time>
      </trkpt>
      <trkpt lat="45.18482" lon="0.72005">
        <ele>112.2</ele>
        <time>2021-10-24T11:40:00Z</time>
      </trkpt>
      <trkpt lat="45.18482" lon="0.72005">
        <ele>112.2</ele>
        <time>2021-10-24T11:40:02Z</time>
      </trkpt>
      <trkpt lat="45.18482" lon="0.72005">
        <ele>112.2</ele>
        <time>2021-10-24T11:40:04Z</time>
      </trkpt>
      <trkpt lat="45.18482" lon="0.72005">
        <ele>112.2</ele>
        <time>2021-10-24T11:40:05Z</time>
      </trkpt>
      <trkpt lat="45.18482" lon="0.72005">
        <ele>112.2</ele>
        <time>2021-10-24T11:40:07Z</time>
      </trkpt>
      <trkpt lat="45.18482" lon="0.72005">
        <ele>112.2</ele>
        <time>2021-10-24T11:40:09Z</time>
      </trkpt>
      <trkpt lat="45.18482" lon="0.72005">
        <ele>112.2</ele>
        <time>2021-10-24T11:40:10Z</time>
      </trkpt>
      <trkpt lat="45.18482" lon="0.72005">
        <ele>112.2</ele>
        <time>2021-10-24T11:40:12Z</time>
      </trkpt>
      <trkpt lat="45.18482" lon="0.72005">
        <ele>112.2</ele>
        <time>2021-10-24T11:40:13Z</time>
      </trkpt>
      <trkpt lat="45.18482" lon="0.72005">
        <ele>112.2</ele>
        <time>2021-10-24T11:40:15Z</time>
      </trkpt>
      <trkpt lat="45.18482" lon="0.72005">
        <ele>112.2</ele>
        <time>2021-10-24T11:40:16Z</time>
      </trkpt>
      <trkpt lat="45.18482" lon="0.72005">
        <ele>112.2</ele>
        <time>2021-10-24T11:40:18Z</time>
      </trkpt>
      <trkpt lat="45.18482" lon="0.72005">
        <ele>112.2</ele>
        <time>2021-10-24T11:40:20Z</time>
      </trkpt>
      <trkpt lat="45.18482" lon="0.72005">
        <ele>112.2</ele>
        <time>2021-10-24T11:40:22Z</time>
      </trkpt>
      <trkpt lat="45.18482" lon="0.72005">
        <ele>112.2</ele>
        <time>2021-10-24T11:40:23Z</time>
      </trkpt>
      <trkpt lat="45.18482" lon="0.72005">
        <ele>112.2</ele>
        <time>2021-10-24T11:40:24Z</time>
      </trkpt>
      <trkpt lat="45.18482" lon="0.72005">
        <ele>112.2</ele>
        <time>2021-10-24T11:40:26Z</time>
      </trkpt>
      <trkpt lat="45.18482" lon="0.72005">
        <ele>112.2</ele>
        <time>2021-10-24T11:40:27Z</time>
      </trkpt>
      <trkpt lat="45.18482" lon="0.72005">
        <ele>112.2</ele>
        <time>2021-10-24T11:40:28Z</time>
      </trkpt>
      <trkpt lat="45.18482" lon="0.72005">
        <ele>112.2</ele>
        <time>2021-10-24T11:40:30Z</time>
      </trkpt>
      <trkpt lat="45.18482" lon="0.72005">
        <ele>112.2</ele>
        <time>2021-10-24T11:40:31Z</time>
      </trkpt>
      <trkpt lat="45.18482" lon="0.72005">
        <ele>112.2</ele>
        <time>2021-10-24T11:40:33Z</time>
      </trkpt>
      <trkpt lat="45.18482" lon="0.72005">
        <ele>112.2</ele>
        <time>2021-10-24T11:40:35Z</time>
      </trkpt>
      <trkpt lat="45.18482" lon="0.72005">
        <ele>112.2</ele>
        <time>2021-10-24T11:40:36Z</time>
      </trkpt>
      <trkpt lat="45.18482" lon="0.72005">
        <ele>112.2</ele>
        <time>2021-10-24T11:40:38Z</time>
      </trkpt>
      <trkpt lat="45.18482" lon="0.72005">
        <ele>112.2</ele>
        <time>2021-10-24T11:40:39Z</time>
      </trkpt>
      <trkpt lat="45.18482" lon="0.72005">
        <ele>112.2</ele>
        <time>2021-10-24T11:40:40Z</time>
      </trkpt>
      <trkpt lat="45.18482" lon="0.72005">
        <ele>112.2</ele>
        <time>2021-10-24T11:40:42Z</time>
      </trkpt>
      <trkpt lat="45.18482" lon="0.72005">
        <ele>112.2</ele>
        <time>2021-10-24T11:40:43Z</time>
      </trkpt>
      <trkpt lat="45.18482" lon="0.72005">
        <ele>112.2</ele>
        <time>2021-10-24T11:40:44Z</time>
      </trkpt>
      <trkpt lat="45.18482" lon="0.72005">
        <ele>112.2</ele>
        <time>2021-10-24T11:40:46Z</time>
      </trkpt>
      <trkpt lat="45.18482" lon="0.72005">
        <ele>112.2</ele>
        <time>2021-10-24T11:40:48Z</time>
      </trkpt>
      <trkpt lat="45.18482" lon="0.72005">
        <ele>112.2</ele>
        <time>2021-10-24T11:40:49Z</time>
      </trkpt>
      <trkpt lat="45.18482" lon="0.72005">
        <ele>112.2</ele>
        <time>2021-10-24T11:40:51Z</time>
      </trkpt>
      <trkpt lat="45.18484" lon="0.72006">
        <ele>112.2</ele>
        <time>2021-10-24T11:40:53Z</time>
      </trkpt>
      <trkpt lat="45.18485" lon="0.72006">
        <ele>112.2</ele>
        <time>2021-10-24T11:40:55Z</time>
      </trkpt>
      <trkpt lat="45.18485" lon="0.72006">
        <ele>112.2</ele>
        <time>2021-10-24T11:40:56Z</time>
      </trkpt>
      <trkpt lat="45.18485" lon="0.72007">
        <ele>112.2</ele>
        <time>2021-10-24T11:40:58Z</time>
      </trkpt>
      <trkpt lat="45.18485" lon="0.72007">
        <ele>112.2</ele>
        <time>2021-10-24T11:40:59Z</time>
      </trkpt>
      <trkpt lat="45.18484" lon="0.72009">
        <ele>112.2</ele>
        <time>2021-10-24T11:41:01Z</time>
      </trkpt>
      <trkpt lat="45.18484" lon="0.7201">
        <ele>112.2</ele>
        <time>2021-10-24T11:41:03Z</time>
      </trkpt>
      <trkpt lat="45.18484" lon="0.7201">
        <ele>112.2</ele>
        <time>2021-10-24T11:41:05Z</time>
      </trkpt>
      <trkpt lat="45.18484" lon="0.7201">
        <ele>112.2</ele>
        <time>2021-10-24T11:41:07Z</time>
      </trkpt>
      <trkpt lat="45.18484" lon="0.7201">
        <ele>112.2</ele>
        <time>2021-10-24T11:41:09Z</time>
      </trkpt>
      <trkpt lat="45.18484" lon="0.7201">
        <ele>112.2</ele>
        <time>2021-10-24T11:41:11Z</time>
      </trkpt>
      <trkpt lat="45.18484" lon="0.7201">
        <ele>112.2</ele>
        <time>2021-10-24T11:41:12Z</time>
      </trkpt>
      <trkpt lat="45.18484" lon="0.7201">
        <ele>112.2</ele>
        <time>2021-10-24T11:41:13Z</time>
      </trkpt>
      <trkpt lat="45.18484" lon="0.7201">
        <ele>112.2</ele>
        <time>2021-10-24T11:41:15Z</time>
      </trkpt>
      <trkpt lat="45.18484" lon="0.7201">
        <ele>112.2</ele>
        <time>2021-10-24T11:41:17Z</time>
      </trkpt>
      <trkpt lat="45.18484" lon="0.7201">
        <ele>112.2</ele>
        <time>2021-10-24T11:41:19Z</time>
      </trkpt>
      <trkpt lat="45.18484" lon="0.7201">
        <ele>112.2</ele>
        <time>2021-10-24T11:41:21Z</time>
      </trkpt>
      <trkpt lat="45.18484" lon="0.7201">
        <ele>112.2</ele>
        <time>2021-10-24T11:41:22Z</time>
      </trkpt>
      <trkpt lat="45.18484" lon="0.7201">
        <ele>112.2</ele>
        <time>2021-10-24T11:41:23Z</time>
      </trkpt>
      <trkpt lat="45.18484" lon="0.7201">
        <ele>112.2</ele>
        <time>2021-10-24T11:41:25Z</time>
      </trkpt>
      <trkpt lat="45.18484" lon="0.7201">
        <ele>112.2</ele>
        <time>2021-10-24T11:41:26Z</time>
      </trkpt>
      <trkpt lat="45.18484" lon="0.7201">
        <ele>112.2</ele>
        <time>2021-10-24T11:41:27Z</time>
      </trkpt>
      <trkpt lat="45.18484" lon="0.7201">
        <ele>112.2</ele>
        <time>2021-10-24T11:41:29Z</time>
      </trkpt>
      <trkpt lat="45.18484" lon="0.7201">
        <ele>112.2</ele>
        <time>2021-10-24T11:41:31Z</time>
      </trkpt>
      <trkpt lat="45.18484" lon="0.7201">
        <ele>112.2</ele>
        <time>2021-10-24T11:41:33Z</time>
      </trkpt>
      <trkpt lat="45.18484" lon="0.7201">
        <ele>112.2</ele>
        <time>2021-10-24T11:41:34Z</time>
      </trkpt>
      <trkpt lat="45.18484" lon="0.7201">
        <ele>112.2</ele>
        <time>2021-10-24T11:41:36Z</time>
      </trkpt>
      <trkpt lat="45.18484" lon="0.7201">
        <ele>112.2</ele>
        <time>2021-10-24T11:41:37Z</time>
      </trkpt>
      <trkpt lat="45.18484" lon="0.7201">
        <ele>112.2</ele>
        <time>2021-10-24T11:41:39Z</time>
      </trkpt>
      <trkpt lat="45.18484" lon="0.7201">
        <ele>112.2</ele>
        <time>2021-10-24T11:41:41Z</time>
      </trkpt>
      <trkpt lat="45.18484" lon="0.7201">
        <ele>112.2</ele>
        <time>2021-10-24T11:41:42Z</time>
      </trkpt>
      <trkpt lat="45.18484" lon="0.7201">
        <ele>112.2</ele>
        <time>2021-10-24T11:41:44Z</time>
      </trkpt>
      <trkpt lat="45.18484" lon="0.7201">
        <ele>112.2</ele>
        <time>2021-10-24T11:41:46Z</time>
      </trkpt>
      <trkpt lat="45.18484" lon="0.7201">
        <ele>112.2</ele>
        <time>2021-10-24T11:41:48Z</time>
      </trkpt>
      <trkpt lat="45.18484" lon="0.7201">
        <ele>112.2</ele>
        <time>2021-10-24T11:41:49Z</time>
      </trkpt>
      <trkpt lat="45.18484" lon="0.7201">
        <ele>112.2</ele>
        <time>2021-10-24T11:41:50Z</time>
      </trkpt>
      <trkpt lat="45.18484" lon="0.7201">
        <ele>112.2</ele>
        <time>2021-10-24T11:41:52Z</time>
      </trkpt>
      <trkpt lat="45.18484" lon="0.7201">
        <ele>112.2</ele>
        <time>2021-10-24T11:41:54Z</time>
      </trkpt>
      <trkpt lat="45.18484" lon="0.7201">
        <ele>112.2</ele>
        <time>2021-10-24T11:41:55Z</time>
      </trkpt>
      <trkpt lat="45.18484" lon="0.7201">
        <ele>112.2</ele>
        <time>2021-10-24T11:41:57Z</time>
      </trkpt>
      <trkpt lat="45.18484" lon="0.7201">
        <ele>112.2</ele>
        <time>2021-10-24T11:41:58Z</time>
      </trkpt>
      <trkpt lat="45.18484" lon="0.7201">
        <ele>112.2</ele>
        <time>2021-10-24T11:41:59Z</time>
      </trkpt>
      <trkpt lat="45.18484" lon="0.7201">
        <ele>112.2</ele>
        <time>2021-10-24T11:42:01Z</time>
      </trkpt>
      <trkpt lat="45.18484" lon="0.7201">
        <ele>112.2</ele>
        <time>2021-10-24T11:42:03Z</time>
      </trkpt>
      <trkpt lat="45.18484" lon="0.7201">
        <ele>112.2</ele>
        <time>2021-10-24T11:42:04Z</time>
      </trkpt>
      <trkpt lat="45.18484" lon="0.7201">
        <ele>112.2</ele>
        <time>2021-10-24T11:42:06Z</time>
      </trkpt>
      <trkpt lat="45.18484" lon="0.7201">
        <ele>112.2</ele>
        <time>2021-10-24T11:42:07Z</time>
      </trkpt>
      <trkpt lat="45.18484" lon="0.7201">
        <ele>112.2</ele>
        <time>2021-10-24T11:42:09Z</time>
      </trkpt>
      <trkpt lat="45.18484" lon="0.7201">
        <ele>112.2</ele>
        <time>2021-10-24T11:42:11Z</time>
      </trkpt>
      <trkpt lat="45.18484" lon="0.7201">
        <ele>112.2</ele>
        <time>2021-10-24T11:42:12Z</time>
      </trkpt>
      <trkpt lat="45.18484" lon="0.7201">
        <ele>112.2</ele>
        <time>2021-10-24T11:42:14Z</time>
      </trkpt>
      <trkpt lat="45.18484" lon="0.7201">
        <ele>112.2</ele>
        <time>2021-10-24T11:42:15Z</time>
      </trkpt>
      <trkpt lat="45.18484" lon="0.7201">
        <ele>112.2</ele>
        <time>2021-10-24T11:42:17Z</time>
      </trkpt>
      <trkpt lat="45.18484" lon="0.7201">
        <ele>112.2</ele>
        <time>2021-10-24T11:42:18Z</time>
      </trkpt>
      <trkpt lat="45.18484" lon="0.7201">
        <ele>112.2</ele>
        <time>2021-10-24T11:42:20Z</time>
      </trkpt>
      <trkpt lat="45.18484" lon="0.7201">
        <ele>112.2</ele>
        <time>2021-10-24T11:42:21Z</time>
      </trkpt>
      <trkpt lat="45.18484" lon="0.7201">
        <ele>112.2</ele>
        <time>2021-10-24T11:42:22Z</time>
      </trkpt>
      <trkpt lat="45.18484" lon="0.7201">
        <ele>112.2</ele>
        <time>2021-10-24T11:42:24Z</time>
      </trkpt>
      <trkpt lat="45.18484" lon="0.7201">
        <ele>112.2</ele>
        <time>2021-10-24T11:42:25Z</time>
      </trkpt>
      <trkpt lat="45.18484" lon="0.7201">
        <ele>112.2</ele>
        <time>2021-10-24T11:42:26Z</time>
      </trkpt>
      <trkpt lat="45.18484" lon="0.7201">
        <ele>112.2</ele>
        <time>2021-10-24T11:42:28Z</time>
      </trkpt>
      <trkpt lat="45.18484" lon="0.7201">
        <ele>112.2</ele>
        <time>2021-10-24T11:42:29Z</time>
      </trkpt>
      <trkpt lat="45.18484" lon="0.7201">
        <ele>112.2</ele>
        <time>2021-10-24T11:42:31Z</time>
      </trkpt>
      <trkpt lat="45.18484" lon="0.7201">
        <ele>112.2</ele>
        <time>2021-10-24T11:42:32Z</time>
      </trkpt>
      <trkpt lat="45.18484" lon="0.7201">
        <ele>112.2</ele>
        <time>2021-10-24T11:42:34Z</time>
      </trkpt>
      <trkpt lat="45.18484" lon="0.7201">
        <ele>112.2</ele>
        <time>2021-10-24T11:42:35Z</time>
      </trkpt>
      <trkpt lat="45.18484" lon="0.7201">
        <ele>112.2</ele>
        <time>2021-10-24T11:42:36Z</time>
      </trkpt>
      <trkpt lat="45.18484" lon="0.7201">
        <ele>112.2</ele>
        <time>2021-10-24T11:42:37Z</time>
      </trkpt>
      <trkpt lat="45.18484" lon="0.7201">
        <ele>112.2</ele>
        <time>2021-10-24T11:42:39Z</time>
      </trkpt>
      <trkpt lat="45.18484" lon="0.7201">
        <ele>112.2</ele>
        <time>2021-10-24T11:42:41Z</time>
      </trkpt>
      <trkpt lat="45.18484" lon="0.7201">
        <ele>112.2</ele>
        <time>2021-10-24T11:42:43Z</time>
      </trkpt>
      <trkpt lat="45.18484" lon="0.7201">
        <ele>112.2</ele>
        <time>2021-10-24T11:42:45Z</time>
      </trkpt>
      <trkpt lat="45.18484" lon="0.7201">
        <ele>112.2</ele>
        <time>2021-10-24T11:42:46Z</time>
      </trkpt>
      <trkpt lat="45.18484" lon="0.7201">
        <ele>112.2</ele>
        <time>2021-10-24T11:42:47Z</time>
      </trkpt>
      <trkpt lat="45.18484" lon="0.7201">
        <ele>112.2</ele>
        <time>2021-10-24T11:42:49Z</time>
      </trkpt>
      <trkpt lat="45.18484" lon="0.7201">
        <ele>112.2</ele>
        <time>2021-10-24T11:42:51Z</time>
      </trkpt>
      <trkpt lat="45.18484" lon="0.7201">
        <ele>112.2</ele>
        <time>2021-10-24T11:42:53Z</time>
      </trkpt>
      <trkpt lat="45.18484" lon="0.7201">
        <ele>112.2</ele>
        <time>2021-10-24T11:42:54Z</time>
      </trkpt>
      <trkpt lat="45.18484" lon="0.7201">
        <ele>112.2</ele>
        <time>2021-10-24T11:42:56Z</time>
      </trkpt>
      <trkpt lat="45.18484" lon="0.7201">
        <ele>112.2</ele>
        <time>2021-10-24T11:42:58Z</time>
      </trkpt>
      <trkpt lat="45.18484" lon="0.7201">
        <ele>112.2</ele>
        <time>2021-10-24T11:42:59Z</time>
      </trkpt>
      <trkpt lat="45.18484" lon="0.7201">
        <ele>112.2</ele>
        <time>2021-10-24T11:43:01Z</time>
      </trkpt>
      <trkpt lat="45.18484" lon="0.7201">
        <ele>112.2</ele>
        <time>2021-10-24T11:43:02Z</time>
      </trkpt>
      <trkpt lat="45.18484" lon="0.7201">
        <ele>112.2</ele>
        <time>2021-10-24T11:43:03Z</time>
      </trkpt>
      <trkpt lat="45.18484" lon="0.7201">
        <ele>112.2</ele>
        <time>2021-10-24T11:43:05Z</time>
      </trkpt>
      <trkpt lat="45.18484" lon="0.7201">
        <ele>112.2</ele>
        <time>2021-10-24T11:43:06Z</time>
      </trkpt>
      <trkpt lat="45.18484" lon="0.7201">
        <ele>112.2</ele>
        <time>2021-10-24T11:43:08Z</time>
      </trkpt>
      <trkpt lat="45.18484" lon="0.7201">
        <ele>112.2</ele>
        <time>2021-10-24T11:43:09Z</time>
      </trkpt>
      <trkpt lat="45.18484" lon="0.7201">
        <ele>112.2</ele>
        <time>2021-10-24T11:43:11Z</time>
      </trkpt>
      <trkpt lat="45.18484" lon="0.7201">
        <ele>112.2</ele>
        <time>2021-10-24T11:43:13Z</time>
      </trkpt>
      <trkpt lat="45.18484" lon="0.7201">
        <ele>112.2</ele>
        <time>2021-10-24T11:43:15Z</time>
      </trkpt>
      <trkpt lat="45.18484" lon="0.7201">
        <ele>112.2</ele>
        <time>2021-10-24T11:43:17Z</time>
      </trkpt>
      <trkpt lat="45.18484" lon="0.7201">
        <ele>112.2</ele>
        <time>2021-10-24T11:43:18Z</time>
      </trkpt>
      <trkpt lat="45.18484" lon="0.7201">
        <ele>112.2</ele>
        <time>2021-10-24T11:43:19Z</time>
      </trkpt>
      <trkpt lat="45.18484" lon="0.7201">
        <ele>112.2</ele>
        <time>2021-10-24T11:43:21Z</time>
      </trkpt>
      <trkpt lat="45.18484" lon="0.7201">
        <ele>112.2</ele>
        <time>2021-10-24T11:43:22Z</time>
      </trkpt>
      <trkpt lat="45.18484" lon="0.7201">
        <ele>112.2</ele>
        <time>2021-10-24T11:43:24Z</time>
      </trkpt>
      <trkpt lat="45.18484" lon="0.7201">
        <ele>112.2</ele>
        <time>2021-10-24T11:43:26Z</time>
      </trkpt>
      <trkpt lat="45.18484" lon="0.7201">
        <ele>112.2</ele>
        <time>2021-10-24T11:43:28Z</time>
      </trkpt>
      <trkpt lat="45.18484" lon="0.7201">
        <ele>112.2</ele>
        <time>2021-10-24T11:43:29Z</time>
      </trkpt>
      <trkpt lat="45.18484" lon="0.7201">
        <ele>112.2</ele>
        <time>2021-10-24T11:43:31Z</time>
      </trkpt>
      <trkpt lat="45.18484" lon="0.7201">
        <ele>112.2</ele>
        <time>2021-10-24T11:43:32Z</time>
      </trkpt>
      <trkpt lat="45.18484" lon="0.7201">
        <ele>112.2</ele>
        <time>2021-10-24T11:43:34Z</time>
      </trkpt>
      <trkpt lat="45.18484" lon="0.7201">
        <ele>112.2</ele>
        <time>2021-10-24T11:43:35Z</time>
      </trkpt>
      <trkpt lat="45.18484" lon="0.7201">
        <ele>112.2</ele>
        <time>2021-10-24T11:43:37Z</time>
      </trkpt>
      <trkpt lat="45.18484" lon="0.7201">
        <ele>112.2</ele>
        <time>2021-10-24T11:43:38Z</time>
      </trkpt>
      <trkpt lat="45.18484" lon="0.7201">
        <ele>112.2</ele>
        <time>2021-10-24T11:43:39Z</time>
      </trkpt>
      <trkpt lat="45.18484" lon="0.7201">
        <ele>112.2</ele>
        <time>2021-10-24T11:43:40Z</time>
      </trkpt>
      <trkpt lat="45.18484" lon="0.7201">
        <ele>112.2</ele>
        <time>2021-10-24T11:43:42Z</time>
      </trkpt>
      <trkpt lat="45.18484" lon="0.7201">
        <ele>112.2</ele>
        <time>2021-10-24T11:43:43Z</time>
      </trkpt>
      <trkpt lat="45.18484" lon="0.7201">
        <ele>112.2</ele>
        <time>2021-10-24T11:43:45Z</time>
      </trkpt>
      <trkpt lat="45.18484" lon="0.7201">
        <ele>112.2</ele>
        <time>2021-10-24T11:43:46Z</time>
      </trkpt>
      <trkpt lat="45.18484" lon="0.7201">
        <ele>112.2</ele>
        <time>2021-10-24T11:43:48Z</time>
      </trkpt>
      <trkpt lat="45.18484" lon="0.7201">
        <ele>112.2</ele>
        <time>2021-10-24T11:43:49Z</time>
      </trkpt>
      <trkpt lat="45.18484" lon="0.7201">
        <ele>112.2</ele>
        <time>2021-10-24T11:43:51Z</time>
      </trkpt>
      <trkpt lat="45.18484" lon="0.7201">
        <ele>112.2</ele>
        <time>2021-10-24T11:43:52Z</time>
      </trkpt>
      <trkpt lat="45.18484" lon="0.7201">
        <ele>112.2</ele>
        <time>2021-10-24T11:43:54Z</time>
      </trkpt>
      <trkpt lat="45.18484" lon="0.7201">
        <ele>112.2</ele>
        <time>2021-10-24T11:43:55Z</time>
      </trkpt>
      <trkpt lat="45.18484" lon="0.7201">
        <ele>112.2</ele>
        <time>2021-10-24T11:43:57Z</time>
      </trkpt>
      <trkpt lat="45.18484" lon="0.7201">
        <ele>112.2</ele>
        <time>2021-10-24T11:43:58Z</time>
      </trkpt>
      <trkpt lat="45.18484" lon="0.7201">
        <ele>112.2</ele>
        <time>2021-10-24T11:43:59Z</time>
      </trkpt>
      <trkpt lat="45.18484" lon="0.7201">
        <ele>112.2</ele>
        <time>2021-10-24T11:44:01Z</time>
      </trkpt>
      <trkpt lat="45.18484" lon="0.7201">
        <ele>112.2</ele>
        <time>2021-10-24T11:44:02Z</time>
      </trkpt>
      <trkpt lat="45.18484" lon="0.7201">
        <ele>112.2</ele>
        <time>2021-10-24T11:44:03Z</time>
      </trkpt>
      <trkpt lat="45.18484" lon="0.7201">
        <ele>112.2</ele>
        <time>2021-10-24T11:44:04Z</time>
      </trkpt>
      <trkpt lat="45.18484" lon="0.7201">
        <ele>112.2</ele>
        <time>2021-10-24T11:44:06Z</time>
      </trkpt>
      <trkpt lat="45.18484" lon="0.7201">
        <ele>112.2</ele>
        <time>2021-10-24T11:44:07Z</time>
      </trkpt>
      <trkpt lat="45.18484" lon="0.7201">
        <ele>112.2</ele>
        <time>2021-10-24T11:44:09Z</time>
      </trkpt>
      <trkpt lat="45.18484" lon="0.7201">
        <ele>112.2</ele>
        <time>2021-10-24T11:44:11Z</time>
      </trkpt>
      <trkpt lat="45.18484" lon="0.7201">
        <ele>112.2</ele>
        <time>2021-10-24T11:44:12Z</time>
      </trkpt>
      <trkpt lat="45.18484" lon="0.7201">
        <ele>112.2</ele>
        <time>2021-10-24T11:44:14Z</time>
      </trkpt>
      <trkpt lat="45.18484" lon="0.7201">
        <ele>112.2</ele>
        <time>2021-10-24T11:44:15Z</time>
      </trkpt>
      <trkpt lat="45.18484" lon="0.7201">
        <ele>112.2</ele>
        <time>2021-10-24T11:44:17Z</time>
      </trkpt>
      <trkpt lat="45.18484" lon="0.7201">
        <ele>112.2</ele>
        <time>2021-10-24T11:44:19Z</time>
      </trkpt>
      <trkpt lat="45.18484" lon="0.7201">
        <ele>112.2</ele>
        <time>2021-10-24T11:44:20Z</time>
      </trkpt>
      <trkpt lat="45.18484" lon="0.7201">
        <ele>112.2</ele>
        <time>2021-10-24T11:44:22Z</time>
      </trkpt>
      <trkpt lat="45.18484" lon="0.7201">
        <ele>112.2</ele>
        <time>2021-10-24T11:44:23Z</time>
      </trkpt>
      <trkpt lat="45.18484" lon="0.7201">
        <ele>112.2</ele>
        <time>2021-10-24T11:44:25Z</time>
      </trkpt>
      <trkpt lat="45.18484" lon="0.7201">
        <ele>112.2</ele>
        <time>2021-10-24T11:44:27Z</time>
      </trkpt>
      <trkpt lat="45.18484" lon="0.7201">
        <ele>112.2</ele>
        <time>2021-10-24T11:44:29Z</time>
      </trkpt>
      <trkpt lat="45.18484" lon="0.7201">
        <ele>112.2</ele>
        <time>2021-10-24T11:44:31Z</time>
      </trkpt>
      <trkpt lat="45.18484" lon="0.7201">
        <ele>112.2</ele>
        <time>2021-10-24T11:44:32Z</time>
      </trkpt>
      <trkpt lat="45.18484" lon="0.7201">
        <ele>112.2</ele>
        <time>2021-10-24T11:44:34Z</time>
      </trkpt>
      <trkpt lat="45.18484" lon="0.7201">
        <ele>112.2</ele>
        <time>2021-10-24T11:44:36Z</time>
      </trkpt>
      <trkpt lat="45.18484" lon="0.7201">
        <ele>112.2</ele>
        <time>2021-10-24T11:44:37Z</time>
      </trkpt>
      <trkpt lat="45.18484" lon="0.7201">
        <ele>112.2</ele>
        <time>2021-10-24T11:44:39Z</time>
      </trkpt>
      <trkpt lat="45.18484" lon="0.7201">
        <ele>112.2</ele>
        <time>2021-10-24T11:44:40Z</time>
      </trkpt>
      <trkpt lat="45.18484" lon="0.7201">
        <ele>112.2</ele>
        <time>2021-10-24T11:44:41Z</time>
      </trkpt>
      <trkpt lat="45.18484" lon="0.7201">
        <ele>112.2</ele>
        <time>2021-10-24T11:44:43Z</time>
      </trkpt>
      <trkpt lat="45.18484" lon="0.7201">
        <ele>112.2</ele>
        <time>2021-10-24T11:44:44Z</time>
      </trkpt>
      <trkpt lat="45.18484" lon="0.7201">
        <ele>112.2</ele>
        <time>2021-10-24T11:44:45Z</time>
      </trkpt>
      <trkpt lat="45.18484" lon="0.7201">
        <ele>112.2</ele>
        <time>2021-10-24T11:44:46Z</time>
      </trkpt>
      <trkpt lat="45.18484" lon="0.7201">
        <ele>112.2</ele>
        <time>2021-10-24T11:44:48Z</time>
      </trkpt>
      <trkpt lat="45.18484" lon="0.7201">
        <ele>112.2</ele>
        <time>2021-10-24T11:44:49Z</time>
      </trkpt>
      <trkpt lat="45.18484" lon="0.7201">
        <ele>112.2</ele>
        <time>2021-10-24T11:44:51Z</time>
      </trkpt>
      <trkpt lat="45.18484" lon="0.7201">
        <ele>112.2</ele>
        <time>2021-10-24T11:44:53Z</time>
      </trkpt>
      <trkpt lat="45.18484" lon="0.7201">
        <ele>112.2</ele>
        <time>2021-10-24T11:44:54Z</time>
      </trkpt>
      <trkpt lat="45.18484" lon="0.7201">
        <ele>112.2</ele>
        <time>2021-10-24T11:44:55Z</time>
      </trkpt>
      <trkpt lat="45.18484" lon="0.7201">
        <ele>112.2</ele>
        <time>2021-10-24T11:44:56Z</time>
      </trkpt>
      <trkpt lat="45.18484" lon="0.7201">
        <ele>112.2</ele>
        <time>2021-10-24T11:44:58Z</time>
      </trkpt>
      <trkpt lat="45.18484" lon="0.7201">
        <ele>112.2</ele>
        <time>2021-10-24T11:44:59Z</time>
      </trkpt>
      <trkpt lat="45.18484" lon="0.7201">
        <ele>112.2</ele>
        <time>2021-10-24T11:45:00Z</time>
      </trkpt>
      <trkpt lat="45.18484" lon="0.7201">
        <ele>112.2</ele>
        <time>2021-10-24T11:45:01Z</time>
      </trkpt>
      <trkpt lat="45.18484" lon="0.7201">
        <ele>112.2</ele>
        <time>2021-10-24T11:45:03Z</time>
      </trkpt>
      <trkpt lat="45.18484" lon="0.7201">
        <ele>112.2</ele>
        <time>2021-10-24T11:45:04Z</time>
      </trkpt>
      <trkpt lat="45.18484" lon="0.7201">
        <ele>112.2</ele>
        <time>2021-10-24T11:45:06Z</time>
      </trkpt>
      <trkpt lat="45.18484" lon="0.7201">
        <ele>112.2</ele>
        <time>2021-10-24T11:45:08Z</time>
      </trkpt>
      <trkpt lat="45.18484" lon="0.7201">
        <ele>112.2</ele>
        <time>2021-10-24T11:45:10Z</time>
      </trkpt>
      <trkpt lat="45.18484" lon="0.7201">
        <ele>112.2</ele>
        <time>2021-10-24T11:45:12Z</time>
      </trkpt>
      <trkpt lat="45.18484" lon="0.7201">
        <ele>112.2</ele>
        <time>2021-10-24T11:45:13Z</time>
      </trkpt>
      <trkpt lat="45.18484" lon="0.7201">
        <ele>112.2</ele>
        <time>2021-10-24T11:45:15Z</time>
      </trkpt>
      <trkpt lat="45.18484" lon="0.7201">
        <ele>112.2</ele>
        <time>2021-10-24T11:45:16Z</time>
      </trkpt>
      <trkpt lat="45.18484" lon="0.7201">
        <ele>112.2</ele>
        <time>2021-10-24T11:45:18Z</time>
      </trkpt>
      <trkpt lat="45.18484" lon="0.7201">
        <ele>112.2</ele>
        <time>2021-10-24T11:45:20Z</time>
      </trkpt>
      <trkpt lat="45.18484" lon="0.7201">
        <ele>112.2</ele>
        <time>2021-10-24T11:45:21Z</time>
      </trkpt>
      <trkpt lat="45.18484" lon="0.7201">
        <ele>112.2</ele>
        <time>2021-10-24T11:45:23Z</time>
      </trkpt>
      <trkpt lat="45.18484" lon="0.7201">
        <ele>112.2</ele>
        <time>2021-10-24T11:45:24Z</time>
      </trkpt>
      <trkpt lat="45.18484" lon="0.7201">
        <ele>112.2</ele>
        <time>2021-10-24T11:45:26Z</time>
      </trkpt>
      <trkpt lat="45.18484" lon="0.7201">
        <ele>112.2</ele>
        <time>2021-10-24T11:45:27Z</time>
      </trkpt>
      <trkpt lat="45.18484" lon="0.7201">
        <ele>112.2</ele>
        <time>2021-10-24T11:45:29Z</time>
      </trkpt>
      <trkpt lat="45.18484" lon="0.7201">
        <ele>112.2</ele>
        <time>2021-10-24T11:45:30Z</time>
      </trkpt>
      <trkpt lat="45.18484" lon="0.7201">
        <ele>112.2</ele>
        <time>2021-10-24T11:45:32Z</time>
      </trkpt>
      <trkpt lat="45.18484" lon="0.7201">
        <ele>112.2</ele>
        <time>2021-10-24T11:45:34Z</time>
      </trkpt>
      <trkpt lat="45.18484" lon="0.7201">
        <ele>112.2</ele>
        <time>2021-10-24T11:45:36Z</time>
      </trkpt>
      <trkpt lat="45.18484" lon="0.7201">
        <ele>112.2</ele>
        <time>2021-10-24T11:45:38Z</time>
      </trkpt>
      <trkpt lat="45.18484" lon="0.7201">
        <ele>112.2</ele>
        <time>2021-10-24T11:45:39Z</time>
      </trkpt>
      <trkpt lat="45.18484" lon="0.7201">
        <ele>112.2</ele>
        <time>2021-10-24T11:45:40Z</time>
      </trkpt>
      <trkpt lat="45.18484" lon="0.7201">
        <ele>112.2</ele>
        <time>2021-10-24T11:45:42Z</time>
      </trkpt>
      <trkpt lat="45.18484" lon="0.7201">
        <ele>112.2</ele>
        <time>2021-10-24T11:45:44Z</time>
      </trkpt>
      <trkpt lat="45.18484" lon="0.7201">
        <ele>112.2</ele>
        <time>2021-10-24T11:45:46Z</time>
      </trkpt>
      <trkpt lat="45.18484" lon="0.7201">
        <ele>112.2</ele>
        <time>2021-10-24T11:45:48Z</time>
      </trkpt>
      <trkpt lat="45.18484" lon="0.7201">
        <ele>112.2</ele>
        <time>2021-10-24T11:45:50Z</time>
      </trkpt>
      <trkpt lat="45.18484" lon="0.7201">
        <ele>112.2</ele>
        <time>2021-10-24T11:45:51Z</time>
      </trkpt>
      <trkpt lat="45.18484" lon="0.7201">
        <ele>112.2</ele>
        <time>2021-10-24T11:45:53Z</time>
      </trkpt>
      <trkpt lat="45.18484" lon="0.7201">
        <ele>112.2</ele>
        <time>2021-10-24T11:45:55Z</time>
      </trkpt>
      <trkpt lat="45.18484" lon="0.7201">
        <ele>112.2</ele>
        <time>2021-10-24T11:45:56Z</time>
      </trkpt>
      <trkpt lat="45.18484" lon="0.7201">
        <ele>112.2</ele>
        <time>2021-10-24T11:45:58Z</time>
      </trkpt>
      <trkpt lat="45.18484" lon="0.7201">
        <ele>112.2</ele>
        <time>2021-10-24T11:46:00Z</time>
      </trkpt>
      <trkpt lat="45.18484" lon="0.7201">
        <ele>112.2</ele>
        <time>2021-10-24T11:46:02Z</time>
      </trkpt>
      <trkpt lat="45.18484" lon="0.7201">
        <ele>112.2</ele>
        <time>2021-10-24T11:46:03Z</time>
      </trkpt>
      <trkpt lat="45.18484" lon="0.7201">
        <ele>112.2</ele>
        <time>2021-10-24T11:46:04Z</time>
      </trkpt>
      <trkpt lat="45.18484" lon="0.7201">
        <ele>112.2</ele>
        <time>2021-10-24T11:46:06Z</time>
      </trkpt>
      <trkpt lat="45.18484" lon="0.7201">
        <ele>112.2</ele>
        <time>2021-10-24T11:46:08Z</time>
      </trkpt>
      <trkpt lat="45.18484" lon="0.7201">
        <ele>112.2</ele>
        <time>2021-10-24T11:46:09Z</time>
      </trkpt>
      <trkpt lat="45.18484" lon="0.7201">
        <ele>112.2</ele>
        <time>2021-10-24T11:46:11Z</time>
      </trkpt>
      <trkpt lat="45.18484" lon="0.7201">
        <ele>112.2</ele>
        <time>2021-10-24T11:46:12Z</time>
      </trkpt>
      <trkpt lat="45.18484" lon="0.7201">
        <ele>112.2</ele>
        <time>2021-10-24T11:46:13Z</time>
      </trkpt>
      <trkpt lat="45.18484" lon="0.7201">
        <ele>112.2</ele>
        <time>2021-10-24T11:46:15Z</time>
      </trkpt>
      <trkpt lat="45.18484" lon="0.7201">
        <ele>112.2</ele>
        <time>2021-10-24T11:46:16Z</time>
      </trkpt>
      <trkpt lat="45.18484" lon="0.7201">
        <ele>112.2</ele>
        <time>2021-10-24T11:46:18Z</time>
      </trkpt>
      <trkpt lat="45.18484" lon="0.7201">
        <ele>112.2</ele>
        <time>2021-10-24T11:46:20Z</time>
      </trkpt>
      <trkpt lat="45.18484" lon="0.7201">
        <ele>112.2</ele>
        <time>2021-10-24T11:46:22Z</time>
      </trkpt>
      <trkpt lat="45.18484" lon="0.7201">
        <ele>112.2</ele>
        <time>2021-10-24T11:46:23Z</time>
      </trkpt>
      <trkpt lat="45.18484" lon="0.7201">
        <ele>112.2</ele>
        <time>2021-10-24T11:46:24Z</time>
      </trkpt>
      <trkpt lat="45.18484" lon="0.7201">
        <ele>112.2</ele>
        <time>2021-10-24T11:46:25Z</time>
      </trkpt>
      <trkpt lat="45.18484" lon="0.7201">
        <ele>112.2</ele>
        <time>2021-10-24T11:46:26Z</time>
      </trkpt>
      <trkpt lat="45.18484" lon="0.7201">
        <ele>112.2</ele>
        <time>2021-10-24T11:46:28Z</time>
      </trkpt>
      <trkpt lat="45.18484" lon="0.7201">
        <ele>112.2</ele>
        <time>2021-10-24T11:46:29Z</time>
      </trkpt>
      <trkpt lat="45.18484" lon="0.7201">
        <ele>112.2</ele>
        <time>2021-10-24T11:46:30Z</time>
      </trkpt>
      <trkpt lat="45.18484" lon="0.7201">
        <ele>112.2</ele>
        <time>2021-10-24T11:46:31Z</time>
      </trkpt>
      <trkpt lat="45.18484" lon="0.7201">
        <ele>112.2</ele>
        <time>2021-10-24T11:46:33Z</time>
      </trkpt>
      <trkpt lat="45.18484" lon="0.7201">
        <ele>112.2</ele>
        <time>2021-10-24T11:46:35Z</time>
      </trkpt>
      <trkpt lat="45.18484" lon="0.7201">
        <ele>112.2</ele>
        <time>2021-10-24T11:46:37Z</time>
      </trkpt>
      <trkpt lat="45.18484" lon="0.7201">
        <ele>112.2</ele>
        <time>2021-10-24T11:46:38Z</time>
      </trkpt>
      <trkpt lat="45.18484" lon="0.7201">
        <ele>112.2</ele>
        <time>2021-10-24T11:46:40Z</time>
      </trkpt>
      <trkpt lat="45.18484" lon="0.7201">
        <ele>112.2</ele>
        <time>2021-10-24T11:46:42Z</time>
      </trkpt>
      <trkpt lat="45.18484" lon="0.7201">
        <ele>112.2</ele>
        <time>2021-10-24T11:46:44Z</time>
      </trkpt>
      <trkpt lat="45.18484" lon="0.7201">
        <ele>112.2</ele>
        <time>2021-10-24T11:46:46Z</time>
      </trkpt>
      <trkpt lat="45.18484" lon="0.7201">
        <ele>112.2</ele>
        <time>2021-10-24T11:46:47Z</time>
      </trkpt>
      <trkpt lat="45.18484" lon="0.7201">
        <ele>112.2</ele>
        <time>2021-10-24T11:46:49Z</time>
      </trkpt>
      <trkpt lat="45.18484" lon="0.7201">
        <ele>112.2</ele>
        <time>2021-10-24T11:46:51Z</time>
      </trkpt>
      <trkpt lat="45.18484" lon="0.7201">
        <ele>112.2</ele>
        <time>2021-10-24T11:46:52Z</time>
      </trkpt>
      <trkpt lat="45.18484" lon="0.7201">
        <ele>112.2</ele>
        <time>2021-10-24T11:46:53Z</time>
      </trkpt>
      <trkpt lat="45.18484" lon="0.7201">
        <ele>112.2</ele>
        <time>2021-10-24T11:46:55Z</time>
      </trkpt>
      <trkpt lat="45.18484" lon="0.7201">
        <ele>112.2</ele>
        <time>2021-10-24T11:46:57Z</time>
      </trkpt>
      <trkpt lat="45.18484" lon="0.7201">
        <ele>112.2</ele>
        <time>2021-10-24T11:46:59Z</time>
      </trkpt>
      <trkpt lat="45.18484" lon="0.7201">
        <ele>112.2</ele>
        <time>2021-10-24T11:47:01Z</time>
      </trkpt>
      <trkpt lat="45.18484" lon="0.7201">
        <ele>112.2</ele>
        <time>2021-10-24T11:47:02Z</time>
      </trkpt>
      <trkpt lat="45.18484" lon="0.7201">
        <ele>112.2</ele>
        <time>2021-10-24T11:47:03Z</time>
      </trkpt>
      <trkpt lat="45.18484" lon="0.7201">
        <ele>112.2</ele>
        <time>2021-10-24T11:47:05Z</time>
      </trkpt>
      <trkpt lat="45.18484" lon="0.7201">
        <ele>112.2</ele>
        <time>2021-10-24T11:47:06Z</time>
      </trkpt>
      <trkpt lat="45.18484" lon="0.7201">
        <ele>112.2</ele>
        <time>2021-10-24T11:47:08Z</time>
      </trkpt>
      <trkpt lat="45.18484" lon="0.7201">
        <ele>112.2</ele>
        <time>2021-10-24T11:47:10Z</time>
      </trkpt>
      <trkpt lat="45.18484" lon="0.7201">
        <ele>112.2</ele>
        <time>2021-10-24T11:47:11Z</time>
      </trkpt>
      <trkpt lat="45.18484" lon="0.7201">
        <ele>112.2</ele>
        <time>2021-10-24T11:47:13Z</time>
      </trkpt>
      <trkpt lat="45.18484" lon="0.7201">
        <ele>112.2</ele>
        <time>2021-10-24T11:47:15Z</time>
      </trkpt>
      <trkpt lat="45.18484" lon="0.7201">
        <ele>112.2</ele>
        <time>2021-10-24T11:47:17Z</time>
      </trkpt>
      <trkpt lat="45.18484" lon="0.7201">
        <ele>112.2</ele>
        <time>2021-10-24T11:47:18Z</time>
      </trkpt>
      <trkpt lat="45.18484" lon="0.7201">
        <ele>112.2</ele>
        <time>2021-10-24T11:47:20Z</time>
      </trkpt>
      <trkpt lat="45.18484" lon="0.7201">
        <ele>112.2</ele>
        <time>2021-10-24T11:47:21Z</time>
      </trkpt>
      <trkpt lat="45.18484" lon="0.7201">
        <ele>112.2</ele>
        <time>2021-10-24T11:47:23Z</time>
      </trkpt>
      <trkpt lat="45.18484" lon="0.7201">
        <ele>112.2</ele>
        <time>2021-10-24T11:47:25Z</time>
      </trkpt>
      <trkpt lat="45.18484" lon="0.7201">
        <ele>112.2</ele>
        <time>2021-10-24T11:47:26Z</time>
      </trkpt>
      <trkpt lat="45.18484" lon="0.7201">
        <ele>112.2</ele>
        <time>2021-10-24T11:47:28Z</time>
      </trkpt>
      <trkpt lat="45.18484" lon="0.7201">
        <ele>112.2</ele>
        <time>2021-10-24T11:47:29Z</time>
      </trkpt>
      <trkpt lat="45.18484" lon="0.7201">
        <ele>112.2</ele>
        <time>2021-10-24T11:47:30Z</time>
      </trkpt>
      <trkpt lat="45.18484" lon="0.7201">
        <ele>112.2</ele>
        <time>2021-10-24T11:47:31Z</time>
      </trkpt>
      <trkpt lat="45.18484" lon="0.7201">
        <ele>112.2</ele>
        <time>2021-10-24T11:47:33Z</time>
      </trkpt>
      <trkpt lat="45.18484" lon="0.7201">
        <ele>112.2</ele>
        <time>2021-10-24T11:47:35Z</time>
      </trkpt>
      <trkpt lat="45.18484" lon="0.7201">
        <ele>112.2</ele>
        <time>2021-10-24T11:47:36Z</time>
      </trkpt>
      <trkpt lat="45.18484" lon="0.7201">
        <ele>112.2</ele>
        <time>2021-10-24T11:47:37Z</time>
      </trkpt>
      <trkpt lat="45.18484" lon="0.7201">
        <ele>112.2</ele>
        <time>2021-10-24T11:47:38Z</time>
      </trkpt>
      <trkpt lat="45.18484" lon="0.7201">
        <ele>112.2</ele>
        <time>2021-10-24T11:47:39Z</time>
      </trkpt>
      <trkpt lat="45.18484" lon="0.7201">
        <ele>112.2</ele>
        <time>2021-10-24T11:47:41Z</time>
      </trkpt>
      <trkpt lat="45.18484" lon="0.7201">
        <ele>112.2</ele>
        <time>2021-10-24T11:47:42Z</time>
      </trkpt>
      <trkpt lat="45.18484" lon="0.7201">
        <ele>112.2</ele>
        <time>2021-10-24T11:47:44Z</time>
      </trkpt>
      <trkpt lat="45.18484" lon="0.7201">
        <ele>112.2</ele>
        <time>2021-10-24T11:47:45Z</time>
      </trkpt>
      <trkpt lat="45.18484" lon="0.7201">
        <ele>112.2</ele>
        <time>2021-10-24T11:47:47Z</time>
      </trkpt>
      <trkpt lat="45.18484" lon="0.7201">
        <ele>112.2</ele>
        <time>2021-10-24T11:47:49Z</time>
      </trkpt>
      <trkpt lat="45.18484" lon="0.7201">
        <ele>112.2</ele>
        <time>2021-10-24T11:47:50Z</time>
      </trkpt>
      <trkpt lat="45.18484" lon="0.7201">
        <ele>112.2</ele>
        <time>2021-10-24T11:47:52Z</time>
      </trkpt>
      <trkpt lat="45.18484" lon="0.7201">
        <ele>112.2</ele>
        <time>2021-10-24T11:47:54Z</time>
      </trkpt>
      <trkpt lat="45.18484" lon="0.7201">
        <ele>112.2</ele>
        <time>2021-10-24T11:47:56Z</time>
      </trkpt>
      <trkpt lat="45.18484" lon="0.72009">
        <ele>112.2</ele>
        <time>2021-10-24T11:47:57Z</time>
      </trkpt>
      <trkpt lat="45.18484" lon="0.72009">
        <ele>112.2</ele>
        <time>2021-10-24T11:47:58Z</time>
      </trkpt>
      <trkpt lat="45.18484" lon="0.72008">
        <ele>112.2</ele>
        <time>2021-10-24T11:48:00Z</time>
      </trkpt>
      <trkpt lat="45.18484" lon="0.72008">
        <ele>112.2</ele>
        <time>2021-10-24T11:48:02Z</time>
      </trkpt>
      <trkpt lat="45.18484" lon="0.72008">
        <ele>112.2</ele>
        <time>2021-10-24T11:48:04Z</time>
      </trkpt>
      <trkpt lat="45.18484" lon="0.72008">
        <ele>112.2</ele>
        <time>2021-10-24T11:48:06Z</time>
      </trkpt>
      <trkpt lat="45.18484" lon="0.72008">
        <ele>112.2</ele>
        <time>2021-10-24T11:48:07Z</time>
      </trkpt>
      <trkpt lat="45.18484" lon="0.72008">
        <ele>112.2</ele>
        <time>2021-10-24T11:48:09Z</time>
      </trkpt>
      <trkpt lat="45.18484" lon="0.72008">
        <ele>112.2</ele>
        <time>2021-10-24T11:48:11Z</time>
      </trkpt>
      <trkpt lat="45.18484" lon="0.72008">
        <ele>112.2</ele>
        <time>2021-10-24T11:48:13Z</time>
      </trkpt>
      <trkpt lat="45.18484" lon="0.72008">
        <ele>112.2</ele>
        <time>2021-10-24T11:48:15Z</time>
      </trkpt>
      <trkpt lat="45.18484" lon="0.72008">
        <ele>112.2</ele>
        <time>2021-10-24T11:48:17Z</time>
      </trkpt>
      <trkpt lat="45.18484" lon="0.72008">
        <ele>112.2</ele>
        <time>2021-10-24T11:48:19Z</time>
      </trkpt>
      <trkpt lat="45.18484" lon="0.72009">
        <ele>112.2</ele>
        <time>2021-10-24T11:48:21Z</time>
      </trkpt>
      <trkpt lat="45.18484" lon="0.72008">
        <ele>112.2</ele>
        <time>2021-10-24T11:48:23Z</time>
      </trkpt>
      <trkpt lat="45.18484" lon="0.72008">
        <ele>112.2</ele>
        <time>2021-10-24T11:48:24Z</time>
      </trkpt>
      <trkpt lat="45.18485" lon="0.72006">
        <ele>112.2</ele>
        <time>2021-10-24T11:48:26Z</time>
      </trkpt>
      <trkpt lat="45.18485" lon="0.72006">
        <ele>112.2</ele>
        <time>2021-10-24T11:48:27Z</time>
      </trkpt>
      <trkpt lat="45.18486" lon="0.72005">
        <ele>112.2</ele>
        <time>2021-10-24T11:48:28Z</time>
      </trkpt>
      <trkpt lat="45.18486" lon="0.72005">
        <ele>112.2</ele>
        <time>2021-10-24T11:48:29Z</time>
      </trkpt>
      <trkpt lat="45.18486" lon="0.72006">
        <ele>112.2</ele>
        <time>2021-10-24T11:48:31Z</time>
      </trkpt>
      <trkpt lat="45.18487" lon="0.72006">
        <ele>112.2</ele>
        <time>2021-10-24T11:48:33Z</time>
      </trkpt>
      <trkpt lat="45.18488" lon="0.72006">
        <ele>112.2</ele>
        <time>2021-10-24T11:48:35Z</time>
      </trkpt>
      <trkpt lat="45.18488" lon="0.72007">
        <ele>112.2</ele>
        <time>2021-10-24T11:48:37Z</time>
      </trkpt>
      <trkpt lat="45.18488" lon="0.72007">
        <ele>112.2</ele>
        <time>2021-10-24T11:48:38Z</time>
      </trkpt>
      <trkpt lat="45.18488" lon="0.72007">
        <ele>112.2</ele>
        <time>2021-10-24T11:48:39Z</time>
      </trkpt>
      <trkpt lat="45.18488" lon="0.72007">
        <ele>112.2</ele>
        <time>2021-10-24T11:48:41Z</time>
      </trkpt>
      <trkpt lat="45.18488" lon="0.72007">
        <ele>112.2</ele>
        <time>2021-10-24T11:48:42Z</time>
      </trkpt>
      <trkpt lat="45.18488" lon="0.72007">
        <ele>112.2</ele>
        <time>2021-10-24T11:48:44Z</time>
      </trkpt>
      <trkpt lat="45.18488" lon="0.72007">
        <ele>112.2</ele>
        <time>2021-10-24T11:48:46Z</time>
      </trkpt>
      <trkpt lat="45.18488" lon="0.72007">
        <ele>112.2</ele>
        <time>2021-10-24T11:48:47Z</time>
      </trkpt>
      <trkpt lat="45.18488" lon="0.72007">
        <ele>112.2</ele>
        <time>2021-10-24T11:48:49Z</time>
      </trkpt>
      <trkpt lat="45.18488" lon="0.72007">
        <ele>112.2</ele>
        <time>2021-10-24T11:48:50Z</time>
      </trkpt>
      <trkpt lat="45.18488" lon="0.72007">
        <ele>112.2</ele>
        <time>2021-10-24T11:48:51Z</time>
      </trkpt>
      <trkpt lat="45.18488" lon="0.72007">
        <ele>112.2</ele>
        <time>2021-10-24T11:48:53Z</time>
      </trkpt>
      <trkpt lat="45.18489" lon="0.72008">
        <ele>112.2</ele>
        <time>2021-10-24T11:48:55Z</time>
      </trkpt>
      <trkpt lat="45.18489" lon="0.72009">
        <ele>112.2</ele>
        <time>2021-10-24T11:48:56Z</time>
      </trkpt>
      <trkpt lat="45.1849" lon="0.7201">
        <ele>112.2</ele>
        <time>2021-10-24T11:48:58Z</time>
      </trkpt>
      <trkpt lat="45.1849" lon="0.72011">
        <ele>112.2</ele>
        <time>2021-10-24T11:48:59Z</time>
      </trkpt>
      <trkpt lat="45.1849" lon="0.72011">
        <ele>112.2</ele>
        <time>2021-10-24T11:49:00Z</time>
      </trkpt>
      <trkpt lat="45.1849" lon="0.72011">
        <ele>112.2</ele>
        <time>2021-10-24T11:49:02Z</time>
      </trkpt>
      <trkpt lat="45.1849" lon="0.72011">
        <ele>112.2</ele>
        <time>2021-10-24T11:49:03Z</time>
      </trkpt>
      <trkpt lat="45.1849" lon="0.72011">
        <ele>112.2</ele>
        <time>2021-10-24T11:49:05Z</time>
      </trkpt>
      <trkpt lat="45.1849" lon="0.72011">
        <ele>112.2</ele>
        <time>2021-10-24T11:49:07Z</time>
      </trkpt>
      <trkpt lat="45.1849" lon="0.72011">
        <ele>112.2</ele>
        <time>2021-10-24T11:49:08Z</time>
      </trkpt>
      <trkpt lat="45.1849" lon="0.72011">
        <ele>112.2</ele>
        <time>2021-10-24T11:49:10Z</time>
      </trkpt>
      <trkpt lat="45.1849" lon="0.72011">
        <ele>112.2</ele>
        <time>2021-10-24T11:49:12Z</time>
      </trkpt>
      <trkpt lat="45.1849" lon="0.72011">
        <ele>112.2</ele>
        <time>2021-10-24T11:49:14Z</time>
      </trkpt>
      <trkpt lat="45.1849" lon="0.72011">
        <ele>112.2</ele>
        <time>2021-10-24T11:49:16Z</time>
      </trkpt>
      <trkpt lat="45.1849" lon="0.72011">
        <ele>112.2</ele>
        <time>2021-10-24T11:49:18Z</time>
      </trkpt>
      <trkpt lat="45.1849" lon="0.72011">
        <ele>112.2</ele>
        <time>2021-10-24T11:49:19Z</time>
      </trkpt>
      <trkpt lat="45.1849" lon="0.72011">
        <ele>112.2</ele>
        <time>2021-10-24T11:49:20Z</time>
      </trkpt>
      <trkpt lat="45.1849" lon="0.72011">
        <ele>112.2</ele>
        <time>2021-10-24T11:49:22Z</time>
      </trkpt>
      <trkpt lat="45.1849" lon="0.72011">
        <ele>112.2</ele>
        <time>2021-10-24T11:49:23Z</time>
      </trkpt>
      <trkpt lat="45.1849" lon="0.72011">
        <ele>112.2</ele>
        <time>2021-10-24T11:49:24Z</time>
      </trkpt>
      <trkpt lat="45.1849" lon="0.72011">
        <ele>112.2</ele>
        <time>2021-10-24T11:49:25Z</time>
      </trkpt>
      <trkpt lat="45.1849" lon="0.72011">
        <ele>112.2</ele>
        <time>2021-10-24T11:49:27Z</time>
      </trkpt>
      <trkpt lat="45.1849" lon="0.72011">
        <ele>112.2</ele>
        <time>2021-10-24T11:49:28Z</time>
      </trkpt>
      <trkpt lat="45.1849" lon="0.72011">
        <ele>112.2</ele>
        <time>2021-10-24T11:49:29Z</time>
      </trkpt>
      <trkpt lat="45.1849" lon="0.72011">
        <ele>112.2</ele>
        <time>2021-10-24T11:49:30Z</time>
      </trkpt>
      <trkpt lat="45.1849" lon="0.72011">
        <ele>112.2</ele>
        <time>2021-10-24T11:49:32Z</time>
      </trkpt>
      <trkpt lat="45.1849" lon="0.72011">
        <ele>112.2</ele>
        <time>2021-10-24T11:49:33Z</time>
      </trkpt>
      <trkpt lat="45.1849" lon="0.72011">
        <ele>112.2</ele>
        <time>2021-10-24T11:49:35Z</time>
      </trkpt>
      <trkpt lat="45.1849" lon="0.72011">
        <ele>112.2</ele>
        <time>2021-10-24T11:49:37Z</time>
      </trkpt>
      <trkpt lat="45.1849" lon="0.72011">
        <ele>112.2</ele>
        <time>2021-10-24T11:49:38Z</time>
      </trkpt>
      <trkpt lat="45.1849" lon="0.72011">
        <ele>112.2</ele>
        <time>2021-10-24T11:49:40Z</time>
      </trkpt>
      <trkpt lat="45.1849" lon="0.72011">
        <ele>112.2</ele>
        <time>2021-10-24T11:49:41Z</time>
      </trkpt>
      <trkpt lat="45.1849" lon="0.72011">
        <ele>112.2</ele>
        <time>2021-10-24T11:49:43Z</time>
      </trkpt>
      <trkpt lat="45.1849" lon="0.72011">
        <ele>112.2</ele>
        <time>2021-10-24T11:49:45Z</time>
      </trkpt>
      <trkpt lat="45.1849" lon="0.72011">
        <ele>112.2</ele>
        <time>2021-10-24T11:49:46Z</time>
      </trkpt>
      <trkpt lat="45.1849" lon="0.72011">
        <ele>112.2</ele>
        <time>2021-10-24T11:49:47Z</time>
      </trkpt>
      <trkpt lat="45.1849" lon="0.72011">
        <ele>112.2</ele>
        <time>2021-10-24T11:49:49Z</time>
      </trkpt>
      <trkpt lat="45.1849" lon="0.72011">
        <ele>112.2</ele>
        <time>2021-10-24T11:49:50Z</time>
      </trkpt>
      <trkpt lat="45.1849" lon="0.72011">
        <ele>112.2</ele>
        <time>2021-10-24T11:49:52Z</time>
      </trkpt>
      <trkpt lat="45.1849" lon="0.72011">
        <ele>112.2</ele>
        <time>2021-10-24T11:49:53Z</time>
      </trkpt>
      <trkpt lat="45.1849" lon="0.72011">
        <ele>112.2</ele>
        <time>2021-10-24T11:49:54Z</time>
      </trkpt>
      <trkpt lat="45.1849" lon="0.72011">
        <ele>112.2</ele>
        <time>2021-10-24T11:49:56Z</time>
      </trkpt>
      <trkpt lat="45.1849" lon="0.72011">
        <ele>112.2</ele>
        <time>2021-10-24T11:49:58Z</time>
      </trkpt>
      <trkpt lat="45.1849" lon="0.72011">
        <ele>112.2</ele>
        <time>2021-10-24T11:50:00Z</time>
      </trkpt>
      <trkpt lat="45.1849" lon="0.72011">
        <ele>112.2</ele>
        <time>2021-10-24T11:50:02Z</time>
      </trkpt>
      <trkpt lat="45.1849" lon="0.72011">
        <ele>112.2</ele>
        <time>2021-10-24T11:50:03Z</time>
      </trkpt>
      <trkpt lat="45.1849" lon="0.72011">
        <ele>112.2</ele>
        <time>2021-10-24T11:50:04Z</time>
      </trkpt>
      <trkpt lat="45.1849" lon="0.72011">
        <ele>112.2</ele>
        <time>2021-10-24T11:50:06Z</time>
      </trkpt>
      <trkpt lat="45.1849" lon="0.72011">
        <ele>112.2</ele>
        <time>2021-10-24T11:50:08Z</time>
      </trkpt>
      <trkpt lat="45.1849" lon="0.72011">
        <ele>112.2</ele>
        <time>2021-10-24T11:50:09Z</time>
      </trkpt>
      <trkpt lat="45.1849" lon="0.72011">
        <ele>112.2</ele>
        <time>2021-10-24T11:50:10Z</time>
      </trkpt>
      <trkpt lat="45.1849" lon="0.72011">
        <ele>112.2</ele>
        <time>2021-10-24T11:50:11Z</time>
      </trkpt>
      <trkpt lat="45.1849" lon="0.72011">
        <ele>112.2</ele>
        <time>2021-10-24T11:50:13Z</time>
      </trkpt>
      <trkpt lat="45.1849" lon="0.72011">
        <ele>112.2</ele>
        <time>2021-10-24T11:50:14Z</time>
      </trkpt>
      <trkpt lat="45.1849" lon="0.72011">
        <ele>112.2</ele>
        <time>2021-10-24T11:50:15Z</time>
      </trkpt>
      <trkpt lat="45.1849" lon="0.72011">
        <ele>112.2</ele>
        <time>2021-10-24T11:50:17Z</time>
      </trkpt>
      <trkpt lat="45.1849" lon="0.72011">
        <ele>112.2</ele>
        <time>2021-10-24T11:50:19Z</time>
      </trkpt>
      <trkpt lat="45.1849" lon="0.72011">
        <ele>112.2</ele>
        <time>2021-10-24T11:50:20Z</time>
      </trkpt>
      <trkpt lat="45.1849" lon="0.72011">
        <ele>112.2</ele>
        <time>2021-10-24T11:50:22Z</time>
      </trkpt>
      <trkpt lat="45.1849" lon="0.72011">
        <ele>112.2</ele>
        <time>2021-10-24T11:50:23Z</time>
      </trkpt>
      <trkpt lat="45.1849" lon="0.72011">
        <ele>112.2</ele>
        <time>2021-10-24T11:50:25Z</time>
      </trkpt>
      <trkpt lat="45.1849" lon="0.72011">
        <ele>112.2</ele>
        <time>2021-10-24T11:50:27Z</time>
      </trkpt>
      <trkpt lat="45.1849" lon="0.72011">
        <ele>112.2</ele>
        <time>2021-10-24T11:50:28Z</time>
      </trkpt>
      <trkpt lat="45.1849" lon="0.72011">
        <ele>112.2</ele>
        <time>2021-10-24T11:50:30Z</time>
      </trkpt>
      <trkpt lat="45.1849" lon="0.72011">
        <ele>112.2</ele>
        <time>2021-10-24T11:50:31Z</time>
      </trkpt>
      <trkpt lat="45.1849" lon="0.72011">
        <ele>112.2</ele>
        <time>2021-10-24T11:50:33Z</time>
      </trkpt>
      <trkpt lat="45.1849" lon="0.72011">
        <ele>112.2</ele>
        <time>2021-10-24T11:50:35Z</time>
      </trkpt>
      <trkpt lat="45.1849" lon="0.72011">
        <ele>112.2</ele>
        <time>2021-10-24T11:50:37Z</time>
      </trkpt>
      <trkpt lat="45.1849" lon="0.72011">
        <ele>112.2</ele>
        <time>2021-10-24T11:50:38Z</time>
      </trkpt>
      <trkpt lat="45.1849" lon="0.72011">
        <ele>112.2</ele>
        <time>2021-10-24T11:50:40Z</time>
      </trkpt>
      <trkpt lat="45.1849" lon="0.72011">
        <ele>112.2</ele>
        <time>2021-10-24T11:50:42Z</time>
      </trkpt>
      <trkpt lat="45.1849" lon="0.72011">
        <ele>112.2</ele>
        <time>2021-10-24T11:50:43Z</time>
      </trkpt>
      <trkpt lat="45.1849" lon="0.72011">
        <ele>112.2</ele>
        <time>2021-10-24T11:50:45Z</time>
      </trkpt>
      <trkpt lat="45.1849" lon="0.72011">
        <ele>112.2</ele>
        <time>2021-10-24T11:50:47Z</time>
      </trkpt>
      <trkpt lat="45.1849" lon="0.72011">
        <ele>112.2</ele>
        <time>2021-10-24T11:50:48Z</time>
      </trkpt>
      <trkpt lat="45.1849" lon="0.72011">
        <ele>112.2</ele>
        <time>2021-10-24T11:50:50Z</time>
      </trkpt>
      <trkpt lat="45.1849" lon="0.72011">
        <ele>112.2</ele>
        <time>2021-10-24T11:50:52Z</time>
      </trkpt>
      <trkpt lat="45.1849" lon="0.72011">
        <ele>112.2</ele>
        <time>2021-10-24T11:50:53Z</time>
      </trkpt>
      <trkpt lat="45.1849" lon="0.72011">
        <ele>112.2</ele>
        <time>2021-10-24T11:50:55Z</time>
      </trkpt>
      <trkpt lat="45.1849" lon="0.72011">
        <ele>112.2</ele>
        <time>2021-10-24T11:50:56Z</time>
      </trkpt>
      <trkpt lat="45.18489" lon="0.7201">
        <ele>112.2</ele>
        <time>2021-10-24T11:50:58Z</time>
      </trkpt>
      <trkpt lat="45.18488" lon="0.7201">
        <ele>112.2</ele>
        <time>2021-10-24T11:50:59Z</time>
      </trkpt>
      <trkpt lat="45.18488" lon="0.72009">
        <ele>112.2</ele>
        <time>2021-10-24T11:51:00Z</time>
      </trkpt>
      <trkpt lat="45.18487" lon="0.72008">
        <ele>112.2</ele>
        <time>2021-10-24T11:51:01Z</time>
      </trkpt>
      <trkpt lat="45.18486" lon="0.72008">
        <ele>112.2</ele>
        <time>2021-10-24T11:51:03Z</time>
      </trkpt>
      <trkpt lat="45.18485" lon="0.72007">
        <ele>112.2</ele>
        <time>2021-10-24T11:51:05Z</time>
      </trkpt>
      <trkpt lat="45.18485" lon="0.72007">
        <ele>112.2</ele>
        <time>2021-10-24T11:51:07Z</time>
      </trkpt>
      <trkpt lat="45.18485" lon="0.72006">
        <ele>112.2</ele>
        <time>2021-10-24T11:51:09Z</time>
      </trkpt>
      <trkpt lat="45.18484" lon="0.72006">
        <ele>112.2</ele>
        <time>2021-10-24T11:51:11Z</time>
      </trkpt>
      <trkpt lat="45.18484" lon="0.72005">
        <ele>112.2</ele>
        <time>2021-10-24T11:51:12Z</time>
      </trkpt>
      <trkpt lat="45.18483" lon="0.72005">
        <ele>112.2</ele>
        <time>2021-10-24T11:51:14Z</time>
      </trkpt>
      <trkpt lat="45.18483" lon="0.72004">
        <ele>112.2</ele>
        <time>2021-10-24T11:51:16Z</time>
      </trkpt>
      <trkpt lat="45.18482" lon="0.72004">
        <ele>112.2</ele>
        <time>2021-10-24T11:51:18Z</time>
      </trkpt>
      <trkpt lat="45.18482" lon="0.72005">
        <ele>112.2</ele>
        <time>2021-10-24T11:51:20Z</time>
      </trkpt>
      <trkpt lat="45.18482" lon="0.72006">
        <ele>112.2</ele>
        <time>2021-10-24T11:51:21Z</time>
      </trkpt>
      <trkpt lat="45.18482" lon="0.72006">
        <ele>112.2</ele>
        <time>2021-10-24T11:51:23Z</time>
      </trkpt>
      <trkpt lat="45.18482" lon="0.72006">
        <ele>112.2</ele>
        <time>2021-10-24T11:51:24Z</time>
      </trkpt>
      <trkpt lat="45.18482" lon="0.72006">
        <ele>112.2</ele>
        <time>2021-10-24T11:51:26Z</time>
      </trkpt>
      <trkpt lat="45.18482" lon="0.72006">
        <ele>112.2</ele>
        <time>2021-10-24T11:51:28Z</time>
      </trkpt>
      <trkpt lat="45.18482" lon="0.72006">
        <ele>112.2</ele>
        <time>2021-10-24T11:51:30Z</time>
      </trkpt>
      <trkpt lat="45.18482" lon="0.72006">
        <ele>112.2</ele>
        <time>2021-10-24T11:51:31Z</time>
      </trkpt>
      <trkpt lat="45.18482" lon="0.72006">
        <ele>112.2</ele>
        <time>2021-10-24T11:51:33Z</time>
      </trkpt>
      <trkpt lat="45.18482" lon="0.72006">
        <ele>112.2</ele>
        <time>2021-10-24T11:51:35Z</time>
      </trkpt>
      <trkpt lat="45.18482" lon="0.72006">
        <ele>112.2</ele>
        <time>2021-10-24T11:51:37Z</time>
      </trkpt>
      <trkpt lat="45.18482" lon="0.72006">
        <ele>112.2</ele>
        <time>2021-10-24T11:51:39Z</time>
      </trkpt>
      <trkpt lat="45.18482" lon="0.72006">
        <ele>112.2</ele>
        <time>2021-10-24T11:51:40Z</time>
      </trkpt>
      <trkpt lat="45.18482" lon="0.72006">
        <ele>112.2</ele>
        <time>2021-10-24T11:51:41Z</time>
      </trkpt>
      <trkpt lat="45.18482" lon="0.72006">
        <ele>112.2</ele>
        <time>2021-10-24T11:51:42Z</time>
      </trkpt>
      <trkpt lat="45.18482" lon="0.72006">
        <ele>112.2</ele>
        <time>2021-10-24T11:51:44Z</time>
      </trkpt>
      <trkpt lat="45.18482" lon="0.72006">
        <ele>112.2</ele>
        <time>2021-10-24T11:51:46Z</time>
      </trkpt>
      <trkpt lat="45.18482" lon="0.72006">
        <ele>112.2</ele>
        <time>2021-10-24T11:51:48Z</time>
      </trkpt>
      <trkpt lat="45.18482" lon="0.72006">
        <ele>112.2</ele>
        <time>2021-10-24T11:51:50Z</time>
      </trkpt>
      <trkpt lat="45.18482" lon="0.72006">
        <ele>112.2</ele>
        <time>2021-10-24T11:51:51Z</time>
      </trkpt>
      <trkpt lat="45.18482" lon="0.72006">
        <ele>112.2</ele>
        <time>2021-10-24T11:51:53Z</time>
      </trkpt>
      <trkpt lat="45.18482" lon="0.72006">
        <ele>112.2</ele>
        <time>2021-10-24T11:51:55Z</time>
      </trkpt>
      <trkpt lat="45.18482" lon="0.72006">
        <ele>112.2</ele>
        <time>2021-10-24T11:51:57Z</time>
      </trkpt>
      <trkpt lat="45.18482" lon="0.72006">
        <ele>112.2</ele>
        <time>2021-10-24T11:51:58Z</time>
      </trkpt>
      <trkpt lat="45.18482" lon="0.72006">
        <ele>112.2</ele>
        <time>2021-10-24T11:52:00Z</time>
      </trkpt>
      <trkpt lat="45.18482" lon="0.72006">
        <ele>112.2</ele>
        <time>2021-10-24T11:52:01Z</time>
      </trkpt>
      <trkpt lat="45.18482" lon="0.72006">
        <ele>112.2</ele>
        <time>2021-10-24T11:52:02Z</time>
      </trkpt>
      <trkpt lat="45.18482" lon="0.72006">
        <ele>112.2</ele>
        <time>2021-10-24T11:52:04Z</time>
      </trkpt>
      <trkpt lat="45.18482" lon="0.72006">
        <ele>112.2</ele>
        <time>2021-10-24T11:52:05Z</time>
      </trkpt>
      <trkpt lat="45.18482" lon="0.72006">
        <ele>112.2</ele>
        <time>2021-10-24T11:52:06Z</time>
      </trkpt>
      <trkpt lat="45.18482" lon="0.72006">
        <ele>112.2</ele>
        <time>2021-10-24T11:52:08Z</time>
      </trkpt>
      <trkpt lat="45.18482" lon="0.72006">
        <ele>112.2</ele>
        <time>2021-10-24T11:52:10Z</time>
      </trkpt>
      <trkpt lat="45.18482" lon="0.72006">
        <ele>112.2</ele>
        <time>2021-10-24T11:52:11Z</time>
      </trkpt>
      <trkpt lat="45.18482" lon="0.72006">
        <ele>112.2</ele>
        <time>2021-10-24T11:52:13Z</time>
      </trkpt>
      <trkpt lat="45.18482" lon="0.72006">
        <ele>112.2</ele>
        <time>2021-10-24T11:52:15Z</time>
      </trkpt>
      <trkpt lat="45.18482" lon="0.72006">
        <ele>112.2</ele>
        <time>2021-10-24T11:52:17Z</time>
      </trkpt>
      <trkpt lat="45.18482" lon="0.72006">
        <ele>112.2</ele>
        <time>2021-10-24T11:52:19Z</time>
      </trkpt>
      <trkpt lat="45.18482" lon="0.72006">
        <ele>112.2</ele>
        <time>2021-10-24T11:52:20Z</time>
      </trkpt>
      <trkpt lat="45.18481" lon="0.72006">
        <ele>112.2</ele>
        <time>2021-10-24T11:52:22Z</time>
      </trkpt>
      <trkpt lat="45.18481" lon="0.72005">
        <ele>112.2</ele>
        <time>2021-10-24T11:52:23Z</time>
      </trkpt>
      <trkpt lat="45.18481" lon="0.72006">
        <ele>112.2</ele>
        <time>2021-10-24T11:52:24Z</time>
      </trkpt>
      <trkpt lat="45.18481" lon="0.72006">
        <ele>112.2</ele>
        <time>2021-10-24T11:52:26Z</time>
      </trkpt>
      <trkpt lat="45.18481" lon="0.72007">
        <ele>112.2</ele>
        <time>2021-10-24T11:52:27Z</time>
      </trkpt>
      <trkpt lat="45.1848" lon="0.72008">
        <ele>112.2</ele>
        <time>2021-10-24T11:52:28Z</time>
      </trkpt>
      <trkpt lat="45.1848" lon="0.72009">
        <ele>112.2</ele>
        <time>2021-10-24T11:52:30Z</time>
      </trkpt>
      <trkpt lat="45.1848" lon="0.72009">
        <ele>112.2</ele>
        <time>2021-10-24T11:52:31Z</time>
      </trkpt>
      <trkpt lat="45.18479" lon="0.72011">
        <ele>112.2</ele>
        <time>2021-10-24T11:52:33Z</time>
      </trkpt>
      <trkpt lat="45.18477" lon="0.72013">
        <ele>112.2</ele>
        <time>2021-10-24T11:52:35Z</time>
      </trkpt>
      <trkpt lat="45.18477" lon="0.72014">
        <ele>112.2</ele>
        <time>2021-10-24T11:52:36Z</time>
      </trkpt>
      <trkpt lat="45.18476" lon="0.72015">
        <ele>112.2</ele>
        <time>2021-10-24T11:52:37Z</time>
      </trkpt>
      <trkpt lat="45.18476" lon="0.72017">
        <ele>112.2</ele>
        <time>2021-10-24T11:52:39Z</time>
      </trkpt>
      <trkpt lat="45.18476" lon="0.72017">
        <ele>112.2</ele>
        <time>2021-10-24T11:52:40Z</time>
      </trkpt>
      <trkpt lat="45.18476" lon="0.72017">
        <ele>112.2</ele>
        <time>2021-10-24T11:52:42Z</time>
      </trkpt>
      <trkpt lat="45.18476" lon="0.72017">
        <ele>112.2</ele>
        <time>2021-10-24T11:52:43Z</time>
      </trkpt>
      <trkpt lat="45.18476" lon="0.72017">
        <ele>112.2</ele>
        <time>2021-10-24T11:52:45Z</time>
      </trkpt>
      <trkpt lat="45.18476" lon="0.72017">
        <ele>112.2</ele>
        <time>2021-10-24T11:52:47Z</time>
      </trkpt>
      <trkpt lat="45.18476" lon="0.72017">
        <ele>112.2</ele>
        <time>2021-10-24T11:52:49Z</time>
      </trkpt>
      <trkpt lat="45.18476" lon="0.72017">
        <ele>112.2</ele>
        <time>2021-10-24T11:52:51Z</time>
      </trkpt>
      <trkpt lat="45.18476" lon="0.72017">
        <ele>112.2</ele>
        <time>2021-10-24T11:52:53Z</time>
      </trkpt>
      <trkpt lat="45.18476" lon="0.72017">
        <ele>112.2</ele>
        <time>2021-10-24T11:52:54Z</time>
      </trkpt>
      <trkpt lat="45.18476" lon="0.72017">
        <ele>112.2</ele>
        <time>2021-10-24T11:52:56Z</time>
      </trkpt>
      <trkpt lat="45.18476" lon="0.72017">
        <ele>112.2</ele>
        <time>2021-10-24T11:52:58Z</time>
      </trkpt>
      <trkpt lat="45.18476" lon="0.72017">
        <ele>112.2</ele>
        <time>2021-10-24T11:52:59Z</time>
      </trkpt>
      <trkpt lat="45.18476" lon="0.72017">
        <ele>112.2</ele>
        <time>2021-10-24T11:53:00Z</time>
      </trkpt>
      <trkpt lat="45.18476" lon="0.72017">
        <ele>112.2</ele>
        <time>2021-10-24T11:53:01Z</time>
      </trkpt>
      <trkpt lat="45.18476" lon="0.72017">
        <ele>112.2</ele>
        <time>2021-10-24T11:53:02Z</time>
      </trkpt>
      <trkpt lat="45.18476" lon="0.72017">
        <ele>112.2</ele>
        <time>2021-10-24T11:53:03Z</time>
      </trkpt>
      <trkpt lat="45.18476" lon="0.72017">
        <ele>112.2</ele>
        <time>2021-10-24T11:53:05Z</time>
      </trkpt>
      <trkpt lat="45.18476" lon="0.72017">
        <ele>112.2</ele>
        <time>2021-10-24T11:53:06Z</time>
      </trkpt>
      <trkpt lat="45.18476" lon="0.72017">
        <ele>112.2</ele>
        <time>2021-10-24T11:53:08Z</time>
      </trkpt>
      <trkpt lat="45.18476" lon="0.72017">
        <ele>112.2</ele>
        <time>2021-10-24T11:53:09Z</time>
      </trkpt>
      <trkpt lat="45.18476" lon="0.72017">
        <ele>112.2</ele>
        <time>2021-10-24T11:53:11Z</time>
      </trkpt>
      <trkpt lat="45.18476" lon="0.72017">
        <ele>112.2</ele>
        <time>2021-10-24T11:53:12Z</time>
      </trkpt>
      <trkpt lat="45.18476" lon="0.72017">
        <ele>112.2</ele>
        <time>2021-10-24T11:53:13Z</time>
      </trkpt>
      <trkpt lat="45.18476" lon="0.72017">
        <ele>112.2</ele>
        <time>2021-10-24T11:53:14Z</time>
      </trkpt>
      <trkpt lat="45.18476" lon="0.72017">
        <ele>112.2</ele>
        <time>2021-10-24T11:53:16Z</time>
      </trkpt>
      <trkpt lat="45.18476" lon="0.72017">
        <ele>112.2</ele>
        <time>2021-10-24T11:53:17Z</time>
      </trkpt>
      <trkpt lat="45.18476" lon="0.72017">
        <ele>112.2</ele>
        <time>2021-10-24T11:53:18Z</time>
      </trkpt>
      <trkpt lat="45.18476" lon="0.72017">
        <ele>112.2</ele>
        <time>2021-10-24T11:53:19Z</time>
      </trkpt>
      <trkpt lat="45.18476" lon="0.72017">
        <ele>112.2</ele>
        <time>2021-10-24T11:53:21Z</time>
      </trkpt>
      <trkpt lat="45.18476" lon="0.72017">
        <ele>112.2</ele>
        <time>2021-10-24T11:53:23Z</time>
      </trkpt>
      <trkpt lat="45.18476" lon="0.72017">
        <ele>112.2</ele>
        <time>2021-10-24T11:53:24Z</time>
      </trkpt>
      <trkpt lat="45.18476" lon="0.72017">
        <ele>112.2</ele>
        <time>2021-10-24T11:53:26Z</time>
      </trkpt>
      <trkpt lat="45.18476" lon="0.72017">
        <ele>112.2</ele>
        <time>2021-10-24T11:53:27Z</time>
      </trkpt>
      <trkpt lat="45.18476" lon="0.72017">
        <ele>112.2</ele>
        <time>2021-10-24T11:53:28Z</time>
      </trkpt>
      <trkpt lat="45.18476" lon="0.72017">
        <ele>112.2</ele>
        <time>2021-10-24T11:53:29Z</time>
      </trkpt>
      <trkpt lat="45.18476" lon="0.72017">
        <ele>112.2</ele>
        <time>2021-10-24T11:53:31Z</time>
      </trkpt>
      <trkpt lat="45.18476" lon="0.72017">
        <ele>112.2</ele>
        <time>2021-10-24T11:53:32Z</time>
      </trkpt>
      <trkpt lat="45.18476" lon="0.72017">
        <ele>112.2</ele>
        <time>2021-10-24T11:53:33Z</time>
      </trkpt>
      <trkpt lat="45.18476" lon="0.72017">
        <ele>112.2</ele>
        <time>2021-10-24T11:53:35Z</time>
      </trkpt>
      <trkpt lat="45.18476" lon="0.72017">
        <ele>112.2</ele>
        <time>2021-10-24T11:53:37Z</time>
      </trkpt>
      <trkpt lat="45.18476" lon="0.72017">
        <ele>112.2</ele>
        <time>2021-10-24T11:53:38Z</time>
      </trkpt>
      <trkpt lat="45.18476" lon="0.72017">
        <ele>112.2</ele>
        <time>2021-10-24T11:53:39Z</time>
      </trkpt>
      <trkpt lat="45.18476" lon="0.72017">
        <ele>112.2</ele>
        <time>2021-10-24T11:53:41Z</time>
      </trkpt>
      <trkpt lat="45.18476" lon="0.72017">
        <ele>112.2</ele>
        <time>2021-10-24T11:53:43Z</time>
      </trkpt>
      <trkpt lat="45.18476" lon="0.72017">
        <ele>112.2</ele>
        <time>2021-10-24T11:53:44Z</time>
      </trkpt>
      <trkpt lat="45.18476" lon="0.72017">
        <ele>112.2</ele>
        <time>2021-10-24T11:53:46Z</time>
      </trkpt>
      <trkpt lat="45.18476" lon="0.72017">
        <ele>112.2</ele>
        <time>2021-10-24T11:53:48Z</time>
      </trkpt>
      <trkpt lat="45.18476" lon="0.72017">
        <ele>112.2</ele>
        <time>2021-10-24T11:53:49Z</time>
      </trkpt>
      <trkpt lat="45.18476" lon="0.72017">
        <ele>112.2</ele>
        <time>2021-10-24T11:53:50Z</time>
      </trkpt>
      <trkpt lat="45.18476" lon="0.72017">
        <ele>112.2</ele>
        <time>2021-10-24T11:53:51Z</time>
      </trkpt>
      <trkpt lat="45.18476" lon="0.72017">
        <ele>112.2</ele>
        <time>2021-10-24T11:53:53Z</time>
      </trkpt>
      <trkpt lat="45.18476" lon="0.72017">
        <ele>112.2</ele>
        <time>2021-10-24T11:53:54Z</time>
      </trkpt>
      <trkpt lat="45.18476" lon="0.72017">
        <ele>112.2</ele>
        <time>2021-10-24T11:53:55Z</time>
      </trkpt>
      <trkpt lat="45.18476" lon="0.72017">
        <ele>112.2</ele>
        <time>2021-10-24T11:53:57Z</time>
      </trkpt>
      <trkpt lat="45.18476" lon="0.72017">
        <ele>112.2</ele>
        <time>2021-10-24T11:53:59Z</time>
      </trkpt>
      <trkpt lat="45.18476" lon="0.72017">
        <ele>112.2</ele>
        <time>2021-10-24T11:54:00Z</time>
      </trkpt>
      <trkpt lat="45.18476" lon="0.72017">
        <ele>112.2</ele>
        <time>2021-10-24T11:54:01Z</time>
      </trkpt>
      <trkpt lat="45.18476" lon="0.72017">
        <ele>112.2</ele>
        <time>2021-10-24T11:54:03Z</time>
      </trkpt>
      <trkpt lat="45.18476" lon="0.72017">
        <ele>112.2</ele>
        <time>2021-10-24T11:54:05Z</time>
      </trkpt>
      <trkpt lat="45.18476" lon="0.72017">
        <ele>112.2</ele>
        <time>2021-10-24T11:54:07Z</time>
      </trkpt>
      <trkpt lat="45.18476" lon="0.72017">
        <ele>112.2</ele>
        <time>2021-10-24T11:54:09Z</time>
      </trkpt>
      <trkpt lat="45.18476" lon="0.72017">
        <ele>112.2</ele>
        <time>2021-10-24T11:54:11Z</time>
      </trkpt>
      <trkpt lat="45.18476" lon="0.72017">
        <ele>112.2</ele>
        <time>2021-10-24T11:54:12Z</time>
      </trkpt>
      <trkpt lat="45.18476" lon="0.72017">
        <ele>112.2</ele>
        <time>2021-10-24T11:54:13Z</time>
      </trkpt>
      <trkpt lat="45.18476" lon="0.72017">
        <ele>112.2</ele>
        <time>2021-10-24T11:54:14Z</time>
      </trkpt>
      <trkpt lat="45.18476" lon="0.72017">
        <ele>112.2</ele>
        <time>2021-10-24T11:54:16Z</time>
      </trkpt>
      <trkpt lat="45.18476" lon="0.72017">
        <ele>112.2</ele>
        <time>2021-10-24T11:54:18Z</time>
      </trkpt>
      <trkpt lat="45.18476" lon="0.72017">
        <ele>112.2</ele>
        <time>2021-10-24T11:54:19Z</time>
      </trkpt>
      <trkpt lat="45.18476" lon="0.72017">
        <ele>112.2</ele>
        <time>2021-10-24T11:54:21Z</time>
      </trkpt>
      <trkpt lat="45.18476" lon="0.72017">
        <ele>112.2</ele>
        <time>2021-10-24T11:54:23Z</time>
      </trkpt>
      <trkpt lat="45.18476" lon="0.72017">
        <ele>112.2</ele>
        <time>2021-10-24T11:54:25Z</time>
      </trkpt>
      <trkpt lat="45.18476" lon="0.72017">
        <ele>112.2</ele>
        <time>2021-10-24T11:54:26Z</time>
      </trkpt>
      <trkpt lat="45.18476" lon="0.72017">
        <ele>112.2</ele>
        <time>2021-10-24T11:54:27Z</time>
      </trkpt>
      <trkpt lat="45.18476" lon="0.72017">
        <ele>112.2</ele>
        <time>2021-10-24T11:54:29Z</time>
      </trkpt>
      <trkpt lat="45.18476" lon="0.72017">
        <ele>112.2</ele>
        <time>2021-10-24T11:54:31Z</time>
      </trkpt>
      <trkpt lat="45.18476" lon="0.72017">
        <ele>112.2</ele>
        <time>2021-10-24T11:54:32Z</time>
      </trkpt>
      <trkpt lat="45.18476" lon="0.72017">
        <ele>112.2</ele>
        <time>2021-10-24T11:54:33Z</time>
      </trkpt>
      <trkpt lat="45.18476" lon="0.72017">
        <ele>112.2</ele>
        <time>2021-10-24T11:54:35Z</time>
      </trkpt>
      <trkpt lat="45.18476" lon="0.72017">
        <ele>112.2</ele>
        <time>2021-10-24T11:54:36Z</time>
      </trkpt>
      <trkpt lat="45.18476" lon="0.72017">
        <ele>112.2</ele>
        <time>2021-10-24T11:54:38Z</time>
      </trkpt>
      <trkpt lat="45.18476" lon="0.72017">
        <ele>112.2</ele>
        <time>2021-10-24T11:54:39Z</time>
      </trkpt>
      <trkpt lat="45.18476" lon="0.72017">
        <ele>112.2</ele>
        <time>2021-10-24T11:54:40Z</time>
      </trkpt>
      <trkpt lat="45.18476" lon="0.72017">
        <ele>112.2</ele>
        <time>2021-10-24T11:54:42Z</time>
      </trkpt>
      <trkpt lat="45.18476" lon="0.72017">
        <ele>112.2</ele>
        <time>2021-10-24T11:54:43Z</time>
      </trkpt>
      <trkpt lat="45.18476" lon="0.72017">
        <ele>112.2</ele>
        <time>2021-10-24T11:54:45Z</time>
      </trkpt>
      <trkpt lat="45.18476" lon="0.72017">
        <ele>112.2</ele>
        <time>2021-10-24T11:54:47Z</time>
      </trkpt>
      <trkpt lat="45.18476" lon="0.72017">
        <ele>112.2</ele>
        <time>2021-10-24T11:54:49Z</time>
      </trkpt>
      <trkpt lat="45.18476" lon="0.72017">
        <ele>112.2</ele>
        <time>2021-10-24T11:54:51Z</time>
      </trkpt>
      <trkpt lat="45.18476" lon="0.72017">
        <ele>112.2</ele>
        <time>2021-10-24T11:54:53Z</time>
      </trkpt>
      <trkpt lat="45.18476" lon="0.72017">
        <ele>112.2</ele>
        <time>2021-10-24T11:54:55Z</time>
      </trkpt>
      <trkpt lat="45.18476" lon="0.72017">
        <ele>112.2</ele>
        <time>2021-10-24T11:54:57Z</time>
      </trkpt>
      <trkpt lat="45.18476" lon="0.72017">
        <ele>112.2</ele>
        <time>2021-10-24T11:54:58Z</time>
      </trkpt>
      <trkpt lat="45.18476" lon="0.72017">
        <ele>112.2</ele>
        <time>2021-10-24T11:54:59Z</time>
      </trkpt>
      <trkpt lat="45.18476" lon="0.72017">
        <ele>112.2</ele>
        <time>2021-10-24T11:55:01Z</time>
      </trkpt>
      <trkpt lat="45.18476" lon="0.72017">
        <ele>112.2</ele>
        <time>2021-10-24T11:55:02Z</time>
      </trkpt>
      <trkpt lat="45.18476" lon="0.72017">
        <ele>112.2</ele>
        <time>2021-10-24T11:55:04Z</time>
      </trkpt>
      <trkpt lat="45.18476" lon="0.72017">
        <ele>112.2</ele>
        <time>2021-10-24T11:55:05Z</time>
      </trkpt>
      <trkpt lat="45.18476" lon="0.72017">
        <ele>112.2</ele>
        <time>2021-10-24T11:55:07Z</time>
      </trkpt>
      <trkpt lat="45.18476" lon="0.72017">
        <ele>112.2</ele>
        <time>2021-10-24T11:55:09Z</time>
      </trkpt>
      <trkpt lat="45.18476" lon="0.72017">
        <ele>112.2</ele>
        <time>2021-10-24T11:55:10Z</time>
      </trkpt>
      <trkpt lat="45.18476" lon="0.72017">
        <ele>112.2</ele>
        <time>2021-10-24T11:55:11Z</time>
      </trkpt>
      <trkpt lat="45.18476" lon="0.72017">
        <ele>112.2</ele>
        <time>2021-10-24T11:55:12Z</time>
      </trkpt>
      <trkpt lat="45.18476" lon="0.72017">
        <ele>112.2</ele>
        <time>2021-10-24T11:55:13Z</time>
      </trkpt>
      <trkpt lat="45.18476" lon="0.72017">
        <ele>112.2</ele>
        <time>2021-10-24T11:55:15Z</time>
      </trkpt>
      <trkpt lat="45.18476" lon="0.72017">
        <ele>112.2</ele>
        <time>2021-10-24T11:55:17Z</time>
      </trkpt>
      <trkpt lat="45.18476" lon="0.72017">
        <ele>112.2</ele>
        <time>2021-10-24T11:55:18Z</time>
      </trkpt>
      <trkpt lat="45.18476" lon="0.72017">
        <ele>112.2</ele>
        <time>2021-10-24T11:55:20Z</time>
      </trkpt>
      <trkpt lat="45.18476" lon="0.72017">
        <ele>112.2</ele>
        <time>2021-10-24T11:55:21Z</time>
      </trkpt>
      <trkpt lat="45.18476" lon="0.72017">
        <ele>112.2</ele>
        <time>2021-10-24T11:55:23Z</time>
      </trkpt>
      <trkpt lat="45.18476" lon="0.72017">
        <ele>112.2</ele>
        <time>2021-10-24T11:55:24Z</time>
      </trkpt>
      <trkpt lat="45.18476" lon="0.72017">
        <ele>112.2</ele>
        <time>2021-10-24T11:55:26Z</time>
      </trkpt>
      <trkpt lat="45.18476" lon="0.72017">
        <ele>112.2</ele>
        <time>2021-10-24T11:55:28Z</time>
      </trkpt>
      <trkpt lat="45.18476" lon="0.72017">
        <ele>112.2</ele>
        <time>2021-10-24T11:55:29Z</time>
      </trkpt>
      <trkpt lat="45.18476" lon="0.72017">
        <ele>112.2</ele>
        <time>2021-10-24T11:55:31Z</time>
      </trkpt>
      <trkpt lat="45.18476" lon="0.72017">
        <ele>112.2</ele>
        <time>2021-10-24T11:55:32Z</time>
      </trkpt>
      <trkpt lat="45.18476" lon="0.72017">
        <ele>112.2</ele>
        <time>2021-10-24T11:55:34Z</time>
      </trkpt>
      <trkpt lat="45.18476" lon="0.72017">
        <ele>112.2</ele>
        <time>2021-10-24T11:55:36Z</time>
      </trkpt>
      <trkpt lat="45.18476" lon="0.72017">
        <ele>112.2</ele>
        <time>2021-10-24T11:55:38Z</time>
      </trkpt>
      <trkpt lat="45.18476" lon="0.72017">
        <ele>112.2</ele>
        <time>2021-10-24T11:55:39Z</time>
      </trkpt>
      <trkpt lat="45.18476" lon="0.72017">
        <ele>112.2</ele>
        <time>2021-10-24T11:55:41Z</time>
      </trkpt>
      <trkpt lat="45.18476" lon="0.72017">
        <ele>112.2</ele>
        <time>2021-10-24T11:55:42Z</time>
      </trkpt>
      <trkpt lat="45.18476" lon="0.72017">
        <ele>112.2</ele>
        <time>2021-10-24T11:55:43Z</time>
      </trkpt>
      <trkpt lat="45.18476" lon="0.72017">
        <ele>112.2</ele>
        <time>2021-10-24T11:55:45Z</time>
      </trkpt>
      <trkpt lat="45.18476" lon="0.72017">
        <ele>112.2</ele>
        <time>2021-10-24T11:55:47Z</time>
      </trkpt>
      <trkpt lat="45.18476" lon="0.72017">
        <ele>112.2</ele>
        <time>2021-10-24T11:55:49Z</time>
      </trkpt>
      <trkpt lat="45.18476" lon="0.72017">
        <ele>112.2</ele>
        <time>2021-10-24T11:55:50Z</time>
      </trkpt>
      <trkpt lat="45.18476" lon="0.72017">
        <ele>112.2</ele>
        <time>2021-10-24T11:55:51Z</time>
      </trkpt>
      <trkpt lat="45.18476" lon="0.72017">
        <ele>112.2</ele>
        <time>2021-10-24T11:55:53Z</time>
      </trkpt>
      <trkpt lat="45.18476" lon="0.72017">
        <ele>112.2</ele>
        <time>2021-10-24T11:55:55Z</time>
      </trkpt>
      <trkpt lat="45.18476" lon="0.72017">
        <ele>112.2</ele>
        <time>2021-10-24T11:55:57Z</time>
      </trkpt>
      <trkpt lat="45.18476" lon="0.72017">
        <ele>112.2</ele>
        <time>2021-10-24T11:55:59Z</time>
      </trkpt>
      <trkpt lat="45.18476" lon="0.72017">
        <ele>112.2</ele>
        <time>2021-10-24T11:56:00Z</time>
      </trkpt>
      <trkpt lat="45.18476" lon="0.72017">
        <ele>112.2</ele>
        <time>2021-10-24T11:56:02Z</time>
      </trkpt>
      <trkpt lat="45.18476" lon="0.72017">
        <ele>112.2</ele>
        <time>2021-10-24T11:56:04Z</time>
      </trkpt>
      <trkpt lat="45.18476" lon="0.72017">
        <ele>112.2</ele>
        <time>2021-10-24T11:56:06Z</time>
      </trkpt>
      <trkpt lat="45.18476" lon="0.72017">
        <ele>112.2</ele>
        <time>2021-10-24T11:56:07Z</time>
      </trkpt>
      <trkpt lat="45.18476" lon="0.72017">
        <ele>112.2</ele>
        <time>2021-10-24T11:56:09Z</time>
      </trkpt>
      <trkpt lat="45.18476" lon="0.72017">
        <ele>112.2</ele>
        <time>2021-10-24T11:56:11Z</time>
      </trkpt>
      <trkpt lat="45.18476" lon="0.72017">
        <ele>112.2</ele>
        <time>2021-10-24T11:56:13Z</time>
      </trkpt>
      <trkpt lat="45.18476" lon="0.72017">
        <ele>112.2</ele>
        <time>2021-10-24T11:56:15Z</time>
      </trkpt>
      <trkpt lat="45.18476" lon="0.72017">
        <ele>112.2</ele>
        <time>2021-10-24T11:56:17Z</time>
      </trkpt>
      <trkpt lat="45.18476" lon="0.72017">
        <ele>112.2</ele>
        <time>2021-10-24T11:56:19Z</time>
      </trkpt>
      <trkpt lat="45.18476" lon="0.72017">
        <ele>112.2</ele>
        <time>2021-10-24T11:56:21Z</time>
      </trkpt>
      <trkpt lat="45.18476" lon="0.72017">
        <ele>112.2</ele>
        <time>2021-10-24T11:56:22Z</time>
      </trkpt>
      <trkpt lat="45.18476" lon="0.72017">
        <ele>112.2</ele>
        <time>2021-10-24T11:56:24Z</time>
      </trkpt>
      <trkpt lat="45.18476" lon="0.72017">
        <ele>112.2</ele>
        <time>2021-10-24T11:56:25Z</time>
      </trkpt>
      <trkpt lat="45.18477" lon="0.72017">
        <ele>112.2</ele>
        <time>2021-10-24T11:56:27Z</time>
      </trkpt>
      <trkpt lat="45.18478" lon="0.72017">
        <ele>112.2</ele>
        <time>2021-10-24T11:56:29Z</time>
      </trkpt>
      <trkpt lat="45.18478" lon="0.72017">
        <ele>112.2</ele>
        <time>2021-10-24T11:56:30Z</time>
      </trkpt>
      <trkpt lat="45.18479" lon="0.72016">
        <ele>112.2</ele>
        <time>2021-10-24T11:56:32Z</time>
      </trkpt>
      <trkpt lat="45.18479" lon="0.72015">
        <ele>112.2</ele>
        <time>2021-10-24T11:56:34Z</time>
      </trkpt>
      <trkpt lat="45.18479" lon="0.72015">
        <ele>112.2</ele>
        <time>2021-10-24T11:56:35Z</time>
      </trkpt>
      <trkpt lat="45.1848" lon="0.72013">
        <ele>112.2</ele>
        <time>2021-10-24T11:56:37Z</time>
      </trkpt>
      <trkpt lat="45.1848" lon="0.72013">
        <ele>112.2</ele>
        <time>2021-10-24T11:56:38Z</time>
      </trkpt>
      <trkpt lat="45.1848" lon="0.72012">
        <ele>112.2</ele>
        <time>2021-10-24T11:56:40Z</time>
      </trkpt>
      <trkpt lat="45.18479" lon="0.72012">
        <ele>112.2</ele>
        <time>2021-10-24T11:56:42Z</time>
      </trkpt>
      <trkpt lat="45.18479" lon="0.72011">
        <ele>112.2</ele>
        <time>2021-10-24T11:56:44Z</time>
      </trkpt>
      <trkpt lat="45.18479" lon="0.7201">
        <ele>112.2</ele>
        <time>2021-10-24T11:56:45Z</time>
      </trkpt>
      <trkpt lat="45.18479" lon="0.72009">
        <ele>112.2</ele>
        <time>2021-10-24T11:56:47Z</time>
      </trkpt>
      <trkpt lat="45.18479" lon="0.72009">
        <ele>112.2</ele>
        <time>2021-10-24T11:56:49Z</time>
      </trkpt>
      <trkpt lat="45.18479" lon="0.72009">
        <ele>112.2</ele>
        <time>2021-10-24T11:56:51Z</time>
      </trkpt>
      <trkpt lat="45.18479" lon="0.72009">
        <ele>112.2</ele>
        <time>2021-10-24T11:56:53Z</time>
      </trkpt>
      <trkpt lat="45.18479" lon="0.72009">
        <ele>112.2</ele>
        <time>2021-10-24T11:56:55Z</time>
      </trkpt>
      <trkpt lat="45.18479" lon="0.72009">
        <ele>112.2</ele>
        <time>2021-10-24T11:56:56Z</time>
      </trkpt>
      <trkpt lat="45.18479" lon="0.72009">
        <ele>112.2</ele>
        <time>2021-10-24T11:56:57Z</time>
      </trkpt>
      <trkpt lat="45.18479" lon="0.72009">
        <ele>112.2</ele>
        <time>2021-10-24T11:56:59Z</time>
      </trkpt>
      <trkpt lat="45.18479" lon="0.72009">
        <ele>112.2</ele>
        <time>2021-10-24T11:57:01Z</time>
      </trkpt>
      <trkpt lat="45.18479" lon="0.72009">
        <ele>112.2</ele>
        <time>2021-10-24T11:57:02Z</time>
      </trkpt>
      <trkpt lat="45.18479" lon="0.72009">
        <ele>112.2</ele>
        <time>2021-10-24T11:57:03Z</time>
      </trkpt>
      <trkpt lat="45.18479" lon="0.72009">
        <ele>112.2</ele>
        <time>2021-10-24T11:57:05Z</time>
      </trkpt>
      <trkpt lat="45.18479" lon="0.72009">
        <ele>112.2</ele>
        <time>2021-10-24T11:57:07Z</time>
      </trkpt>
      <trkpt lat="45.18479" lon="0.72009">
        <ele>112.2</ele>
        <time>2021-10-24T11:57:09Z</time>
      </trkpt>
      <trkpt lat="45.18479" lon="0.72009">
        <ele>112.2</ele>
        <time>2021-10-24T11:57:11Z</time>
      </trkpt>
      <trkpt lat="45.18479" lon="0.72009">
        <ele>112.2</ele>
        <time>2021-10-24T11:57:12Z</time>
      </trkpt>
      <trkpt lat="45.18479" lon="0.72009">
        <ele>112.2</ele>
        <time>2021-10-24T11:57:14Z</time>
      </trkpt>
      <trkpt lat="45.18479" lon="0.72009">
        <ele>112.2</ele>
        <time>2021-10-24T11:57:15Z</time>
      </trkpt>
      <trkpt lat="45.18479" lon="0.72009">
        <ele>112.2</ele>
        <time>2021-10-24T11:57:16Z</time>
      </trkpt>
      <trkpt lat="45.18479" lon="0.72009">
        <ele>112.2</ele>
        <time>2021-10-24T11:57:17Z</time>
      </trkpt>
      <trkpt lat="45.18479" lon="0.72009">
        <ele>112.2</ele>
        <time>2021-10-24T11:57:19Z</time>
      </trkpt>
      <trkpt lat="45.18479" lon="0.72009">
        <ele>112.2</ele>
        <time>2021-10-24T11:57:20Z</time>
      </trkpt>
      <trkpt lat="45.18469" lon="0.72009">
        <ele>112.2</ele>
        <time>2021-10-24T12:23:30Z</time>
      </trkpt>
      <trkpt lat="45.18467" lon="0.72009">
        <ele>112.2</ele>
        <time>2021-10-24T12:23:31Z</time>
      </trkpt>
      <trkpt lat="45.18471" lon="0.72013">
        <ele>112.2</ele>
        <time>2021-10-24T12:23:32Z</time>
      </trkpt>
      <trkpt lat="45.18472" lon="0.72017">
        <ele>112.2</ele>
        <time>2021-10-24T12:23:33Z</time>
      </trkpt>
      <trkpt lat="45.18473" lon="0.72018">
        <ele>112.2</ele>
        <time>2021-10-24T12:23:34Z</time>
      </trkpt>
      <trkpt lat="45.18473" lon="0.72016">
        <ele>112.2</ele>
        <time>2021-10-24T12:23:36Z</time>
      </trkpt>
      <trkpt lat="45.18473" lon="0.72016">
        <ele>112.2</ele>
        <time>2021-10-24T12:23:38Z</time>
      </trkpt>
      <trkpt lat="45.18474" lon="0.72015">
        <ele>112.2</ele>
        <time>2021-10-24T12:23:39Z</time>
      </trkpt>
      <trkpt lat="45.18475" lon="0.72014">
        <ele>112.2</ele>
        <time>2021-10-24T12:23:41Z</time>
      </trkpt>
      <trkpt lat="45.18476" lon="0.72013">
        <ele>112.2</ele>
        <time>2021-10-24T12:23:43Z</time>
      </trkpt>
      <trkpt lat="45.18476" lon="0.72013">
        <ele>112.2</ele>
        <time>2021-10-24T12:23:44Z</time>
      </trkpt>
      <trkpt lat="45.18477" lon="0.72012">
        <ele>112.2</ele>
        <time>2021-10-24T12:23:45Z</time>
      </trkpt>
      <trkpt lat="45.18478" lon="0.72012">
        <ele>112.2</ele>
        <time>2021-10-24T12:23:46Z</time>
      </trkpt>
      <trkpt lat="45.18477" lon="0.72012">
        <ele>112.2</ele>
        <time>2021-10-24T12:23:48Z</time>
      </trkpt>
      <trkpt lat="45.18477" lon="0.72012">
        <ele>112.2</ele>
        <time>2021-10-24T12:23:49Z</time>
      </trkpt>
      <trkpt lat="45.18478" lon="0.72012">
        <ele>112.2</ele>
        <time>2021-10-24T12:23:50Z</time>
      </trkpt>
      <trkpt lat="45.18478" lon="0.72011">
        <ele>112.2</ele>
        <time>2021-10-24T12:23:52Z</time>
      </trkpt>
      <trkpt lat="45.18479" lon="0.7201">
        <ele>112.2</ele>
        <time>2021-10-24T12:23:53Z</time>
      </trkpt>
      <trkpt lat="45.18479" lon="0.7201">
        <ele>112.2</ele>
        <time>2021-10-24T12:23:54Z</time>
      </trkpt>
      <trkpt lat="45.1848" lon="0.7201">
        <ele>112.2</ele>
        <time>2021-10-24T12:23:56Z</time>
      </trkpt>
      <trkpt lat="45.1848" lon="0.7201">
        <ele>112.2</ele>
        <time>2021-10-24T12:23:58Z</time>
      </trkpt>
      <trkpt lat="45.1848" lon="0.7201">
        <ele>112.2</ele>
        <time>2021-10-24T12:23:59Z</time>
      </trkpt>
      <trkpt lat="45.18481" lon="0.7201">
        <ele>112.2</ele>
        <time>2021-10-24T12:24:01Z</time>
      </trkpt>
      <trkpt lat="45.18481" lon="0.7201">
        <ele>112.2</ele>
        <time>2021-10-24T12:24:02Z</time>
      </trkpt>
      <trkpt lat="45.18482" lon="0.72011">
        <ele>112.2</ele>
        <time>2021-10-24T12:24:04Z</time>
      </trkpt>
      <trkpt lat="45.18482" lon="0.72012">
        <ele>112.2</ele>
        <time>2021-10-24T12:24:06Z</time>
      </trkpt>
      <trkpt lat="45.18483" lon="0.72012">
        <ele>112.2</ele>
        <time>2021-10-24T12:24:07Z</time>
      </trkpt>
      <trkpt lat="45.18483" lon="0.72013">
        <ele>112.2</ele>
        <time>2021-10-24T12:24:09Z</time>
      </trkpt>
      <trkpt lat="45.18483" lon="0.72013">
        <ele>112.2</ele>
        <time>2021-10-24T12:24:10Z</time>
      </trkpt>
      <trkpt lat="45.18483" lon="0.72013">
        <ele>112.2</ele>
        <time>2021-10-24T12:24:12Z</time>
      </trkpt>
      <trkpt lat="45.18483" lon="0.72013">
        <ele>112.2</ele>
        <time>2021-10-24T12:24:14Z</time>
      </trkpt>
      <trkpt lat="45.18483" lon="0.72013">
        <ele>112.2</ele>
        <time>2021-10-24T12:24:15Z</time>
      </trkpt>
      <trkpt lat="45.18483" lon="0.72013">
        <ele>112.2</ele>
        <time>2021-10-24T12:24:17Z</time>
      </trkpt>
      <trkpt lat="45.18483" lon="0.72013">
        <ele>112.2</ele>
        <time>2021-10-24T12:24:18Z</time>
      </trkpt>
      <trkpt lat="45.18483" lon="0.72013">
        <ele>112.2</ele>
        <time>2021-10-24T12:24:20Z</time>
      </trkpt>
      <trkpt lat="45.18483" lon="0.72013">
        <ele>112.2</ele>
        <time>2021-10-24T12:24:22Z</time>
      </trkpt>
      <trkpt lat="45.18483" lon="0.72012">
        <ele>112.2</ele>
        <time>2021-10-24T12:24:24Z</time>
      </trkpt>
      <trkpt lat="45.18483" lon="0.72012">
        <ele>112.2</ele>
        <time>2021-10-24T12:24:25Z</time>
      </trkpt>
      <trkpt lat="45.18483" lon="0.72012">
        <ele>112.2</ele>
        <time>2021-10-24T12:24:26Z</time>
      </trkpt>
      <trkpt lat="45.18482" lon="0.72012">
        <ele>112.2</ele>
        <time>2021-10-24T12:24:28Z</time>
      </trkpt>
      <trkpt lat="45.18482" lon="0.72012">
        <ele>112.2</ele>
        <time>2021-10-24T12:24:29Z</time>
      </trkpt>
      <trkpt lat="45.18481" lon="0.72012">
        <ele>112.2</ele>
        <time>2021-10-24T12:24:31Z</time>
      </trkpt>
      <trkpt lat="45.1848" lon="0.72012">
        <ele>112.2</ele>
        <time>2021-10-24T12:24:32Z</time>
      </trkpt>
      <trkpt lat="45.1848" lon="0.72012">
        <ele>112.2</ele>
        <time>2021-10-24T12:24:33Z</time>
      </trkpt>
      <trkpt lat="45.18479" lon="0.72013">
        <ele>112.2</ele>
        <time>2021-10-24T12:24:35Z</time>
      </trkpt>
      <trkpt lat="45.18478" lon="0.72013">
        <ele>112.2</ele>
        <time>2021-10-24T12:24:37Z</time>
      </trkpt>
      <trkpt lat="45.18478" lon="0.72013">
        <ele>112.2</ele>
        <time>2021-10-24T12:24:38Z</time>
      </trkpt>
      <trkpt lat="45.18478" lon="0.72013">
        <ele>112.2</ele>
        <time>2021-10-24T12:24:40Z</time>
      </trkpt>
      <trkpt lat="45.18478" lon="0.72013">
        <ele>112.2</ele>
        <time>2021-10-24T12:24:42Z</time>
      </trkpt>
      <trkpt lat="45.18477" lon="0.72013">
        <ele>112.2</ele>
        <time>2021-10-24T12:24:44Z</time>
      </trkpt>
      <trkpt lat="45.18477" lon="0.72013">
        <ele>112.2</ele>
        <time>2021-10-24T12:24:45Z</time>
      </trkpt>
      <trkpt lat="45.18477" lon="0.72013">
        <ele>112.2</ele>
        <time>2021-10-24T12:24:47Z</time>
      </trkpt>
      <trkpt lat="45.18477" lon="0.72013">
        <ele>112.2</ele>
        <time>2021-10-24T12:24:48Z</time>
      </trkpt>
      <trkpt lat="45.18477" lon="0.72013">
        <ele>112.2</ele>
        <time>2021-10-24T12:24:50Z</time>
      </trkpt>
      <trkpt lat="45.18478" lon="0.72013">
        <ele>112.2</ele>
        <time>2021-10-24T12:24:51Z</time>
      </trkpt>
      <trkpt lat="45.18479" lon="0.72013">
        <ele>112.2</ele>
        <time>2021-10-24T12:24:53Z</time>
      </trkpt>
      <trkpt lat="45.1848" lon="0.72012">
        <ele>112.2</ele>
        <time>2021-10-24T12:24:55Z</time>
      </trkpt>
      <trkpt lat="45.18479" lon="0.72014">
        <ele>112.2</ele>
        <time>2021-10-24T12:24:56Z</time>
      </trkpt>
      <trkpt lat="45.18479" lon="0.72016">
        <ele>112.2</ele>
        <time>2021-10-24T12:24:58Z</time>
      </trkpt>
      <trkpt lat="45.1848" lon="0.72017">
        <ele>112.2</ele>
        <time>2021-10-24T12:24:59Z</time>
      </trkpt>
      <trkpt lat="45.18481" lon="0.72018">
        <ele>112.2</ele>
        <time>2021-10-24T12:25:01Z</time>
      </trkpt>
      <trkpt lat="45.18482" lon="0.72018">
        <ele>112.2</ele>
        <time>2021-10-24T12:25:02Z</time>
      </trkpt>
      <trkpt lat="45.18483" lon="0.72019">
        <ele>112.2</ele>
        <time>2021-10-24T12:25:04Z</time>
      </trkpt>
      <trkpt lat="45.18484" lon="0.72018">
        <ele>112.2</ele>
        <time>2021-10-24T12:25:05Z</time>
      </trkpt>
      <trkpt lat="45.18485" lon="0.72017">
        <ele>112.2</ele>
        <time>2021-10-24T12:25:07Z</time>
      </trkpt>
      <trkpt lat="45.18485" lon="0.72017">
        <ele>112.2</ele>
        <time>2021-10-24T12:25:09Z</time>
      </trkpt>
      <trkpt lat="45.18485" lon="0.72017">
        <ele>112.2</ele>
        <time>2021-10-24T12:25:10Z</time>
      </trkpt>
      <trkpt lat="45.18484" lon="0.72017">
        <ele>112.2</ele>
        <time>2021-10-24T12:25:12Z</time>
      </trkpt>
      <trkpt lat="45.18484" lon="0.72017">
        <ele>112.2</ele>
        <time>2021-10-24T12:25:13Z</time>
      </trkpt>
      <trkpt lat="45.18484" lon="0.72017">
        <ele>112.2</ele>
        <time>2021-10-24T12:25:14Z</time>
      </trkpt>
      <trkpt lat="45.18484" lon="0.72017">
        <ele>112.2</ele>
        <time>2021-10-24T12:25:16Z</time>
      </trkpt>
      <trkpt lat="45.18484" lon="0.72017">
        <ele>112.2</ele>
        <time>2021-10-24T12:25:17Z</time>
      </trkpt>
      <trkpt lat="45.18484" lon="0.72017">
        <ele>112.2</ele>
        <time>2021-10-24T12:25:19Z</time>
      </trkpt>
      <trkpt lat="45.18483" lon="0.72017">
        <ele>112.2</ele>
        <time>2021-10-24T12:25:20Z</time>
      </trkpt>
      <trkpt lat="45.18483" lon="0.72017">
        <ele>112.2</ele>
        <time>2021-10-24T12:25:21Z</time>
      </trkpt>
      <trkpt lat="45.18483" lon="0.72017">
        <ele>112.2</ele>
        <time>2021-10-24T12:25:22Z</time>
      </trkpt>
      <trkpt lat="45.18482" lon="0.72017">
        <ele>112.2</ele>
        <time>2021-10-24T12:25:24Z</time>
      </trkpt>
      <trkpt lat="45.18482" lon="0.72017">
        <ele>112.2</ele>
        <time>2021-10-24T12:25:25Z</time>
      </trkpt>
      <trkpt lat="45.18482" lon="0.72016">
        <ele>112.2</ele>
        <time>2021-10-24T12:25:26Z</time>
      </trkpt>
      <trkpt lat="45.18483" lon="0.72015">
        <ele>112.2</ele>
        <time>2021-10-24T12:25:28Z</time>
      </trkpt>
      <trkpt lat="45.18483" lon="0.72015">
        <ele>112.2</ele>
        <time>2021-10-24T12:25:29Z</time>
      </trkpt>
      <trkpt lat="45.18484" lon="0.72015">
        <ele>112.2</ele>
        <time>2021-10-24T12:25:30Z</time>
      </trkpt>
      <trkpt lat="45.18484" lon="0.72015">
        <ele>112.2</ele>
        <time>2021-10-24T12:25:31Z</time>
      </trkpt>
      <trkpt lat="45.18484" lon="0.72015">
        <ele>112.2</ele>
        <time>2021-10-24T12:25:33Z</time>
      </trkpt>
      <trkpt lat="45.18484" lon="0.72015">
        <ele>112.2</ele>
        <time>2021-10-24T12:25:35Z</time>
      </trkpt>
      <trkpt lat="45.18485" lon="0.72014">
        <ele>112.2</ele>
        <time>2021-10-24T12:25:36Z</time>
      </trkpt>
      <trkpt lat="45.18485" lon="0.72014">
        <ele>112.2</ele>
        <time>2021-10-24T12:25:37Z</time>
      </trkpt>
      <trkpt lat="45.18487" lon="0.72013">
        <ele>112.2</ele>
        <time>2021-10-24T12:25:38Z</time>
      </trkpt>
      <trkpt lat="45.18487" lon="0.72014">
        <ele>112.2</ele>
        <time>2021-10-24T12:25:40Z</time>
      </trkpt>
      <trkpt lat="45.18488" lon="0.72014">
        <ele>112.2</ele>
        <time>2021-10-24T12:25:41Z</time>
      </trkpt>
      <trkpt lat="45.18488" lon="0.72015">
        <ele>112.2</ele>
        <time>2021-10-24T12:25:43Z</time>
      </trkpt>
      <trkpt lat="45.18488" lon="0.72015">
        <ele>112.2</ele>
        <time>2021-10-24T12:25:45Z</time>
      </trkpt>
      <trkpt lat="45.18488" lon="0.72015">
        <ele>112.2</ele>
        <time>2021-10-24T12:25:46Z</time>
      </trkpt>
      <trkpt lat="45.18488" lon="0.72015">
        <ele>112.2</ele>
        <time>2021-10-24T12:25:47Z</time>
      </trkpt>
      <trkpt lat="45.18488" lon="0.72015">
        <ele>112.2</ele>
        <time>2021-10-24T12:25:49Z</time>
      </trkpt>
      <trkpt lat="45.18487" lon="0.72016">
        <ele>112.2</ele>
        <time>2021-10-24T12:25:50Z</time>
      </trkpt>
      <trkpt lat="45.18488" lon="0.72016">
        <ele>112.2</ele>
        <time>2021-10-24T12:25:52Z</time>
      </trkpt>
      <trkpt lat="45.18488" lon="0.72016">
        <ele>112.2</ele>
        <time>2021-10-24T12:25:53Z</time>
      </trkpt>
      <trkpt lat="45.18488" lon="0.72017">
        <ele>112.2</ele>
        <time>2021-10-24T12:25:54Z</time>
      </trkpt>
      <trkpt lat="45.18489" lon="0.72018">
        <ele>112.2</ele>
        <time>2021-10-24T12:25:55Z</time>
      </trkpt>
      <trkpt lat="45.18489" lon="0.72018">
        <ele>112.2</ele>
        <time>2021-10-24T12:25:56Z</time>
      </trkpt>
      <trkpt lat="45.1849" lon="0.72019">
        <ele>112.2</ele>
        <time>2021-10-24T12:25:58Z</time>
      </trkpt>
      <trkpt lat="45.1849" lon="0.72019">
        <ele>112.2</ele>
        <time>2021-10-24T12:25:59Z</time>
      </trkpt>
      <trkpt lat="45.18491" lon="0.72019">
        <ele>112.2</ele>
        <time>2021-10-24T12:26:00Z</time>
      </trkpt>
      <trkpt lat="45.18492" lon="0.72018">
        <ele>112.2</ele>
        <time>2021-10-24T12:26:01Z</time>
      </trkpt>
      <trkpt lat="45.18493" lon="0.72018">
        <ele>112.2</ele>
        <time>2021-10-24T12:26:02Z</time>
      </trkpt>
      <trkpt lat="45.18494" lon="0.72017">
        <ele>112.2</ele>
        <time>2021-10-24T12:26:04Z</time>
      </trkpt>
      <trkpt lat="45.18495" lon="0.72018">
        <ele>112.2</ele>
        <time>2021-10-24T12:26:05Z</time>
      </trkpt>
      <trkpt lat="45.18497" lon="0.72019">
        <ele>112.2</ele>
        <time>2021-10-24T12:26:06Z</time>
      </trkpt>
      <trkpt lat="45.18497" lon="0.72019">
        <ele>112.2</ele>
        <time>2021-10-24T12:26:07Z</time>
      </trkpt>
      <trkpt lat="45.18499" lon="0.72018">
        <ele>112.2</ele>
        <time>2021-10-24T12:26:08Z</time>
      </trkpt>
      <trkpt lat="45.185" lon="0.72018">
        <ele>112.1</ele>
        <time>2021-10-24T12:26:09Z</time>
      </trkpt>
      <trkpt lat="45.18502" lon="0.72019">
        <ele>111.6</ele>
        <time>2021-10-24T12:26:11Z</time>
      </trkpt>
      <trkpt lat="45.18503" lon="0.7202">
        <ele>111.3</ele>
        <time>2021-10-24T12:26:12Z</time>
      </trkpt>
      <trkpt lat="45.18504" lon="0.7202">
        <ele>111.1</ele>
        <time>2021-10-24T12:26:13Z</time>
      </trkpt>
      <trkpt lat="45.18505" lon="0.72021">
        <ele>110.9</ele>
        <time>2021-10-24T12:26:14Z</time>
      </trkpt>
      <trkpt lat="45.18506" lon="0.72021">
        <ele>110.6</ele>
        <time>2021-10-24T12:26:15Z</time>
      </trkpt>
      <trkpt lat="45.18508" lon="0.72023">
        <ele>110.2</ele>
        <time>2021-10-24T12:26:17Z</time>
      </trkpt>
      <trkpt lat="45.18508" lon="0.72024">
        <ele>110</ele>
        <time>2021-10-24T12:26:18Z</time>
      </trkpt>
      <trkpt lat="45.18509" lon="0.72025">
        <ele>109.8</ele>
        <time>2021-10-24T12:26:19Z</time>
      </trkpt>
      <trkpt lat="45.1851" lon="0.72026">
        <ele>109.6</ele>
        <time>2021-10-24T12:26:20Z</time>
      </trkpt>
      <trkpt lat="45.18511" lon="0.72026">
        <ele>109.3</ele>
        <time>2021-10-24T12:26:21Z</time>
      </trkpt>
      <trkpt lat="45.18512" lon="0.72027">
        <ele>109.1</ele>
        <time>2021-10-24T12:26:22Z</time>
      </trkpt>
      <trkpt lat="45.18513" lon="0.72029">
        <ele>108.9</ele>
        <time>2021-10-24T12:26:23Z</time>
      </trkpt>
      <trkpt lat="45.18514" lon="0.7203">
        <ele>108.6</ele>
        <time>2021-10-24T12:26:24Z</time>
      </trkpt>
      <trkpt lat="45.18515" lon="0.72031">
        <ele>108.4</ele>
        <time>2021-10-24T12:26:26Z</time>
      </trkpt>
      <trkpt lat="45.18516" lon="0.72032">
        <ele>108.3</ele>
        <time>2021-10-24T12:26:27Z</time>
      </trkpt>
      <trkpt lat="45.18517" lon="0.72033">
        <ele>107.6</ele>
        <time>2021-10-24T12:26:28Z</time>
      </trkpt>
      <trkpt lat="45.18518" lon="0.72034">
        <ele>107.6</ele>
        <time>2021-10-24T12:26:29Z</time>
      </trkpt>
      <trkpt lat="45.18518" lon="0.72034">
        <ele>107.6</ele>
        <time>2021-10-24T12:26:30Z</time>
      </trkpt>
      <trkpt lat="45.18519" lon="0.72035">
        <ele>107.7</ele>
        <time>2021-10-24T12:26:31Z</time>
      </trkpt>
      <trkpt lat="45.18519" lon="0.72036">
        <ele>107.7</ele>
        <time>2021-10-24T12:26:32Z</time>
      </trkpt>
      <trkpt lat="45.18519" lon="0.72037">
        <ele>107.7</ele>
        <time>2021-10-24T12:26:33Z</time>
      </trkpt>
      <trkpt lat="45.18519" lon="0.72039">
        <ele>107.7</ele>
        <time>2021-10-24T12:26:34Z</time>
      </trkpt>
      <trkpt lat="45.18519" lon="0.72041">
        <ele>107.8</ele>
        <time>2021-10-24T12:26:36Z</time>
      </trkpt>
      <trkpt lat="45.18518" lon="0.72043">
        <ele>107.8</ele>
        <time>2021-10-24T12:26:37Z</time>
      </trkpt>
      <trkpt lat="45.18517" lon="0.72045">
        <ele>107.8</ele>
        <time>2021-10-24T12:26:38Z</time>
      </trkpt>
      <trkpt lat="45.18516" lon="0.72046">
        <ele>107.9</ele>
        <time>2021-10-24T12:26:39Z</time>
      </trkpt>
      <trkpt lat="45.18515" lon="0.72048">
        <ele>107.9</ele>
        <time>2021-10-24T12:26:40Z</time>
      </trkpt>
      <trkpt lat="45.18514" lon="0.7205">
        <ele>107.9</ele>
        <time>2021-10-24T12:26:42Z</time>
      </trkpt>
      <trkpt lat="45.18513" lon="0.72052">
        <ele>107.9</ele>
        <time>2021-10-24T12:26:43Z</time>
      </trkpt>
      <trkpt lat="45.18513" lon="0.72053">
        <ele>108</ele>
        <time>2021-10-24T12:26:44Z</time>
      </trkpt>
      <trkpt lat="45.18513" lon="0.72056">
        <ele>108</ele>
        <time>2021-10-24T12:26:46Z</time>
      </trkpt>
      <trkpt lat="45.18512" lon="0.72058">
        <ele>108</ele>
        <time>2021-10-24T12:26:47Z</time>
      </trkpt>
      <trkpt lat="45.18512" lon="0.7206">
        <ele>108</ele>
        <time>2021-10-24T12:26:48Z</time>
      </trkpt>
      <trkpt lat="45.18512" lon="0.72061">
        <ele>108.1</ele>
        <time>2021-10-24T12:26:49Z</time>
      </trkpt>
      <trkpt lat="45.18511" lon="0.72063">
        <ele>108.1</ele>
        <time>2021-10-24T12:26:51Z</time>
      </trkpt>
      <trkpt lat="45.18511" lon="0.72064">
        <ele>108.1</ele>
        <time>2021-10-24T12:26:52Z</time>
      </trkpt>
      <trkpt lat="45.18511" lon="0.72065">
        <ele>108.1</ele>
        <time>2021-10-24T12:26:53Z</time>
      </trkpt>
      <trkpt lat="45.1851" lon="0.72066">
        <ele>108.1</ele>
        <time>2021-10-24T12:26:54Z</time>
      </trkpt>
      <trkpt lat="45.18509" lon="0.72067">
        <ele>108.1</ele>
        <time>2021-10-24T12:26:55Z</time>
      </trkpt>
      <trkpt lat="45.18509" lon="0.72069">
        <ele>108.2</ele>
        <time>2021-10-24T12:26:56Z</time>
      </trkpt>
      <trkpt lat="45.18509" lon="0.7207">
        <ele>108.2</ele>
        <time>2021-10-24T12:26:57Z</time>
      </trkpt>
      <trkpt lat="45.18509" lon="0.72073">
        <ele>108.2</ele>
        <time>2021-10-24T12:26:59Z</time>
      </trkpt>
      <trkpt lat="45.18509" lon="0.72074">
        <ele>108.2</ele>
        <time>2021-10-24T12:27:00Z</time>
      </trkpt>
      <trkpt lat="45.18509" lon="0.72076">
        <ele>108.3</ele>
        <time>2021-10-24T12:27:01Z</time>
      </trkpt>
      <trkpt lat="45.18509" lon="0.72078">
        <ele>108.3</ele>
        <time>2021-10-24T12:27:03Z</time>
      </trkpt>
      <trkpt lat="45.18508" lon="0.7208">
        <ele>108.3</ele>
        <time>2021-10-24T12:27:04Z</time>
      </trkpt>
      <trkpt lat="45.18508" lon="0.72082">
        <ele>108.4</ele>
        <time>2021-10-24T12:27:05Z</time>
      </trkpt>
      <trkpt lat="45.18508" lon="0.72083">
        <ele>108.4</ele>
        <time>2021-10-24T12:27:06Z</time>
      </trkpt>
      <trkpt lat="45.18506" lon="0.72085">
        <ele>108.4</ele>
        <time>2021-10-24T12:27:08Z</time>
      </trkpt>
      <trkpt lat="45.18506" lon="0.72087">
        <ele>108.5</ele>
        <time>2021-10-24T12:27:09Z</time>
      </trkpt>
      <trkpt lat="45.18506" lon="0.72089">
        <ele>108.5</ele>
        <time>2021-10-24T12:27:10Z</time>
      </trkpt>
      <trkpt lat="45.18505" lon="0.72091">
        <ele>108.6</ele>
        <time>2021-10-24T12:27:11Z</time>
      </trkpt>
      <trkpt lat="45.18505" lon="0.72092">
        <ele>108.6</ele>
        <time>2021-10-24T12:27:12Z</time>
      </trkpt>
      <trkpt lat="45.18505" lon="0.72094">
        <ele>108.6</ele>
        <time>2021-10-24T12:27:13Z</time>
      </trkpt>
      <trkpt lat="45.18505" lon="0.72096">
        <ele>108.6</ele>
        <time>2021-10-24T12:27:15Z</time>
      </trkpt>
      <trkpt lat="45.18504" lon="0.72098">
        <ele>108.7</ele>
        <time>2021-10-24T12:27:16Z</time>
      </trkpt>
      <trkpt lat="45.18504" lon="0.721">
        <ele>108.7</ele>
        <time>2021-10-24T12:27:17Z</time>
      </trkpt>
      <trkpt lat="45.18504" lon="0.72101">
        <ele>108.7</ele>
        <time>2021-10-24T12:27:18Z</time>
      </trkpt>
      <trkpt lat="45.18503" lon="0.72104">
        <ele>108.8</ele>
        <time>2021-10-24T12:27:19Z</time>
      </trkpt>
      <trkpt lat="45.18503" lon="0.72105">
        <ele>108.8</ele>
        <time>2021-10-24T12:27:20Z</time>
      </trkpt>
      <trkpt lat="45.18503" lon="0.72107">
        <ele>108.8</ele>
        <time>2021-10-24T12:27:21Z</time>
      </trkpt>
      <trkpt lat="45.18503" lon="0.72109">
        <ele>108.9</ele>
        <time>2021-10-24T12:27:23Z</time>
      </trkpt>
      <trkpt lat="45.18503" lon="0.72111">
        <ele>108.9</ele>
        <time>2021-10-24T12:27:24Z</time>
      </trkpt>
      <trkpt lat="45.18503" lon="0.72112">
        <ele>108.9</ele>
        <time>2021-10-24T12:27:25Z</time>
      </trkpt>
      <trkpt lat="45.18503" lon="0.72113">
        <ele>109</ele>
        <time>2021-10-24T12:27:26Z</time>
      </trkpt>
      <trkpt lat="45.18504" lon="0.72114">
        <ele>109</ele>
        <time>2021-10-24T12:27:27Z</time>
      </trkpt>
      <trkpt lat="45.18504" lon="0.72116">
        <ele>109</ele>
        <time>2021-10-24T12:27:28Z</time>
      </trkpt>
      <trkpt lat="45.18504" lon="0.72119">
        <ele>109.1</ele>
        <time>2021-10-24T12:27:29Z</time>
      </trkpt>
      <trkpt lat="45.18505" lon="0.72121">
        <ele>109.1</ele>
        <time>2021-10-24T12:27:31Z</time>
      </trkpt>
      <trkpt lat="45.18505" lon="0.72122">
        <ele>109.1</ele>
        <time>2021-10-24T12:27:32Z</time>
      </trkpt>
      <trkpt lat="45.18505" lon="0.72124">
        <ele>109.2</ele>
        <time>2021-10-24T12:27:33Z</time>
      </trkpt>
      <trkpt lat="45.18506" lon="0.72125">
        <ele>109.2</ele>
        <time>2021-10-24T12:27:34Z</time>
      </trkpt>
      <trkpt lat="45.18506" lon="0.72127">
        <ele>109.2</ele>
        <time>2021-10-24T12:27:36Z</time>
      </trkpt>
      <trkpt lat="45.18507" lon="0.72129">
        <ele>109.3</ele>
        <time>2021-10-24T12:27:37Z</time>
      </trkpt>
      <trkpt lat="45.18507" lon="0.7213">
        <ele>109.3</ele>
        <time>2021-10-24T12:27:38Z</time>
      </trkpt>
      <trkpt lat="45.18508" lon="0.72131">
        <ele>109.3</ele>
        <time>2021-10-24T12:27:40Z</time>
      </trkpt>
      <trkpt lat="45.18508" lon="0.72133">
        <ele>109.4</ele>
        <time>2021-10-24T12:27:41Z</time>
      </trkpt>
      <trkpt lat="45.18507" lon="0.72136">
        <ele>109.5</ele>
        <time>2021-10-24T12:27:42Z</time>
      </trkpt>
      <trkpt lat="45.18507" lon="0.72137">
        <ele>109.6</ele>
        <time>2021-10-24T12:27:43Z</time>
      </trkpt>
      <trkpt lat="45.18507" lon="0.72138">
        <ele>109.6</ele>
        <time>2021-10-24T12:27:44Z</time>
      </trkpt>
      <trkpt lat="45.18507" lon="0.7214">
        <ele>109.6</ele>
        <time>2021-10-24T12:27:45Z</time>
      </trkpt>
      <trkpt lat="45.18507" lon="0.72141">
        <ele>109.7</ele>
        <time>2021-10-24T12:27:47Z</time>
      </trkpt>
      <trkpt lat="45.18506" lon="0.72143">
        <ele>109.8</ele>
        <time>2021-10-24T12:27:48Z</time>
      </trkpt>
      <trkpt lat="45.18506" lon="0.72145">
        <ele>109.9</ele>
        <time>2021-10-24T12:27:49Z</time>
      </trkpt>
      <trkpt lat="45.18506" lon="0.72147">
        <ele>109.9</ele>
        <time>2021-10-24T12:27:50Z</time>
      </trkpt>
      <trkpt lat="45.18506" lon="0.72148">
        <ele>110</ele>
        <time>2021-10-24T12:27:51Z</time>
      </trkpt>
      <trkpt lat="45.18506" lon="0.72151">
        <ele>110</ele>
        <time>2021-10-24T12:27:53Z</time>
      </trkpt>
      <trkpt lat="45.18506" lon="0.72152">
        <ele>110.1</ele>
        <time>2021-10-24T12:27:54Z</time>
      </trkpt>
      <trkpt lat="45.18506" lon="0.72152">
        <ele>110.1</ele>
        <time>2021-10-24T12:27:55Z</time>
      </trkpt>
      <trkpt lat="45.18506" lon="0.72152">
        <ele>110.1</ele>
        <time>2021-10-24T12:27:56Z</time>
      </trkpt>
      <trkpt lat="45.18506" lon="0.72152">
        <ele>110.1</ele>
        <time>2021-10-24T12:27:57Z</time>
      </trkpt>
      <trkpt lat="45.18505" lon="0.72154">
        <ele>110.3</ele>
        <time>2021-10-24T12:27:59Z</time>
      </trkpt>
      <trkpt lat="45.18504" lon="0.72156">
        <ele>110.6</ele>
        <time>2021-10-24T12:28:00Z</time>
      </trkpt>
      <trkpt lat="45.18503" lon="0.72158">
        <ele>110.8</ele>
        <time>2021-10-24T12:28:01Z</time>
      </trkpt>
      <trkpt lat="45.18503" lon="0.7216">
        <ele>111</ele>
        <time>2021-10-24T12:28:02Z</time>
      </trkpt>
      <trkpt lat="45.18502" lon="0.72161">
        <ele>111.2</ele>
        <time>2021-10-24T12:28:03Z</time>
      </trkpt>
      <trkpt lat="45.18502" lon="0.72162">
        <ele>111.4</ele>
        <time>2021-10-24T12:28:04Z</time>
      </trkpt>
      <trkpt lat="45.18501" lon="0.72164">
        <ele>111.6</ele>
        <time>2021-10-24T12:28:05Z</time>
      </trkpt>
      <trkpt lat="45.18501" lon="0.72166">
        <ele>111.4</ele>
        <time>2021-10-24T12:28:06Z</time>
      </trkpt>
      <trkpt lat="45.18501" lon="0.72168">
        <ele>111.3</ele>
        <time>2021-10-24T12:28:08Z</time>
      </trkpt>
      <trkpt lat="45.18501" lon="0.72169">
        <ele>111.2</ele>
        <time>2021-10-24T12:28:09Z</time>
      </trkpt>
      <trkpt lat="45.18501" lon="0.72171">
        <ele>111.1</ele>
        <time>2021-10-24T12:28:10Z</time>
      </trkpt>
      <trkpt lat="45.18502" lon="0.72172">
        <ele>111.1</ele>
        <time>2021-10-24T12:28:11Z</time>
      </trkpt>
      <trkpt lat="45.18502" lon="0.72174">
        <ele>111</ele>
        <time>2021-10-24T12:28:12Z</time>
      </trkpt>
      <trkpt lat="45.18502" lon="0.72176">
        <ele>110.9</ele>
        <time>2021-10-24T12:28:13Z</time>
      </trkpt>
      <trkpt lat="45.18502" lon="0.72177">
        <ele>110.8</ele>
        <time>2021-10-24T12:28:14Z</time>
      </trkpt>
      <trkpt lat="45.18502" lon="0.7218">
        <ele>110.6</ele>
        <time>2021-10-24T12:28:16Z</time>
      </trkpt>
      <trkpt lat="45.18501" lon="0.72182">
        <ele>110.6</ele>
        <time>2021-10-24T12:28:17Z</time>
      </trkpt>
      <trkpt lat="45.18501" lon="0.72185">
        <ele>110.4</ele>
        <time>2021-10-24T12:28:18Z</time>
      </trkpt>
      <trkpt lat="45.18501" lon="0.72187">
        <ele>110.3</ele>
        <time>2021-10-24T12:28:20Z</time>
      </trkpt>
      <trkpt lat="45.185" lon="0.72188">
        <ele>110.2</ele>
        <time>2021-10-24T12:28:21Z</time>
      </trkpt>
      <trkpt lat="45.185" lon="0.7219">
        <ele>110.1</ele>
        <time>2021-10-24T12:28:22Z</time>
      </trkpt>
      <trkpt lat="45.185" lon="0.72191">
        <ele>110</ele>
        <time>2021-10-24T12:28:23Z</time>
      </trkpt>
      <trkpt lat="45.185" lon="0.72193">
        <ele>109.9</ele>
        <time>2021-10-24T12:28:24Z</time>
      </trkpt>
      <trkpt lat="45.18499" lon="0.72194">
        <ele>109.8</ele>
        <time>2021-10-24T12:28:25Z</time>
      </trkpt>
      <trkpt lat="45.18499" lon="0.72196">
        <ele>109.7</ele>
        <time>2021-10-24T12:28:26Z</time>
      </trkpt>
      <trkpt lat="45.18498" lon="0.72198">
        <ele>109.6</ele>
        <time>2021-10-24T12:28:28Z</time>
      </trkpt>
      <trkpt lat="45.18498" lon="0.72199">
        <ele>109.5</ele>
        <time>2021-10-24T12:28:29Z</time>
      </trkpt>
      <trkpt lat="45.18498" lon="0.722">
        <ele>109.5</ele>
        <time>2021-10-24T12:28:30Z</time>
      </trkpt>
      <trkpt lat="45.18498" lon="0.72201">
        <ele>109.3</ele>
        <time>2021-10-24T12:28:32Z</time>
      </trkpt>
      <trkpt lat="45.18499" lon="0.72201">
        <ele>109.3</ele>
        <time>2021-10-24T12:28:33Z</time>
      </trkpt>
      <trkpt lat="45.18499" lon="0.72201">
        <ele>109.3</ele>
        <time>2021-10-24T12:28:34Z</time>
      </trkpt>
      <trkpt lat="45.185" lon="0.722">
        <ele>109.3</ele>
        <time>2021-10-24T12:28:36Z</time>
      </trkpt>
      <trkpt lat="45.185" lon="0.722">
        <ele>109.3</ele>
        <time>2021-10-24T12:28:37Z</time>
      </trkpt>
      <trkpt lat="45.185" lon="0.722">
        <ele>109.3</ele>
        <time>2021-10-24T12:28:38Z</time>
      </trkpt>
      <trkpt lat="45.18501" lon="0.722">
        <ele>109.4</ele>
        <time>2021-10-24T12:28:39Z</time>
      </trkpt>
      <trkpt lat="45.18503" lon="0.72201">
        <ele>109.4</ele>
        <time>2021-10-24T12:28:40Z</time>
      </trkpt>
      <trkpt lat="45.18504" lon="0.72201">
        <ele>109.5</ele>
        <time>2021-10-24T12:28:41Z</time>
      </trkpt>
      <trkpt lat="45.18505" lon="0.72201">
        <ele>109.5</ele>
        <time>2021-10-24T12:28:42Z</time>
      </trkpt>
      <trkpt lat="45.18506" lon="0.72202">
        <ele>109.5</ele>
        <time>2021-10-24T12:28:44Z</time>
      </trkpt>
      <trkpt lat="45.18507" lon="0.72202">
        <ele>109.6</ele>
        <time>2021-10-24T12:28:45Z</time>
      </trkpt>
      <trkpt lat="45.18509" lon="0.72203">
        <ele>109.6</ele>
        <time>2021-10-24T12:28:46Z</time>
      </trkpt>
      <trkpt lat="45.1851" lon="0.72203">
        <ele>109.6</ele>
        <time>2021-10-24T12:28:47Z</time>
      </trkpt>
      <trkpt lat="45.18511" lon="0.72203">
        <ele>109.7</ele>
        <time>2021-10-24T12:28:48Z</time>
      </trkpt>
      <trkpt lat="45.18513" lon="0.72204">
        <ele>109.7</ele>
        <time>2021-10-24T12:28:49Z</time>
      </trkpt>
      <trkpt lat="45.18514" lon="0.72204">
        <ele>109.7</ele>
        <time>2021-10-24T12:28:50Z</time>
      </trkpt>
      <trkpt lat="45.18515" lon="0.72205">
        <ele>109.8</ele>
        <time>2021-10-24T12:28:51Z</time>
      </trkpt>
      <trkpt lat="45.18516" lon="0.72205">
        <ele>109.8</ele>
        <time>2021-10-24T12:28:52Z</time>
      </trkpt>
      <trkpt lat="45.18518" lon="0.72204">
        <ele>109.9</ele>
        <time>2021-10-24T12:28:53Z</time>
      </trkpt>
      <trkpt lat="45.18519" lon="0.72203">
        <ele>109.9</ele>
        <time>2021-10-24T12:28:54Z</time>
      </trkpt>
      <trkpt lat="45.1852" lon="0.72201">
        <ele>110</ele>
        <time>2021-10-24T12:28:55Z</time>
      </trkpt>
      <trkpt lat="45.18522" lon="0.72197">
        <ele>110.1</ele>
        <time>2021-10-24T12:28:57Z</time>
      </trkpt>
      <trkpt lat="45.18523" lon="0.72196">
        <ele>110.1</ele>
        <time>2021-10-24T12:28:58Z</time>
      </trkpt>
      <trkpt lat="45.18524" lon="0.72194">
        <ele>110.1</ele>
        <time>2021-10-24T12:28:59Z</time>
      </trkpt>
      <trkpt lat="45.18524" lon="0.72193">
        <ele>110.2</ele>
        <time>2021-10-24T12:29:00Z</time>
      </trkpt>
      <trkpt lat="45.18525" lon="0.72192">
        <ele>110.2</ele>
        <time>2021-10-24T12:29:02Z</time>
      </trkpt>
      <trkpt lat="45.18527" lon="0.72191">
        <ele>110.3</ele>
        <time>2021-10-24T12:29:04Z</time>
      </trkpt>
      <trkpt lat="45.18529" lon="0.72192">
        <ele>110.3</ele>
        <time>2021-10-24T12:29:05Z</time>
      </trkpt>
      <trkpt lat="45.1853" lon="0.72192">
        <ele>110.4</ele>
        <time>2021-10-24T12:29:06Z</time>
      </trkpt>
      <trkpt lat="45.18532" lon="0.72194">
        <ele>110.4</ele>
        <time>2021-10-24T12:29:07Z</time>
      </trkpt>
      <trkpt lat="45.18534" lon="0.72197">
        <ele>110.4</ele>
        <time>2021-10-24T12:29:09Z</time>
      </trkpt>
      <trkpt lat="45.18534" lon="0.72198">
        <ele>110.4</ele>
        <time>2021-10-24T12:29:10Z</time>
      </trkpt>
      <trkpt lat="45.18535" lon="0.72199">
        <ele>110.4</ele>
        <time>2021-10-24T12:29:11Z</time>
      </trkpt>
      <trkpt lat="45.18536" lon="0.722">
        <ele>110.4</ele>
        <time>2021-10-24T12:29:12Z</time>
      </trkpt>
      <trkpt lat="45.18537" lon="0.72202">
        <ele>110.4</ele>
        <time>2021-10-24T12:29:14Z</time>
      </trkpt>
      <trkpt lat="45.18539" lon="0.72203">
        <ele>110.4</ele>
        <time>2021-10-24T12:29:15Z</time>
      </trkpt>
      <trkpt lat="45.1854" lon="0.72204">
        <ele>110.4</ele>
        <time>2021-10-24T12:29:16Z</time>
      </trkpt>
      <trkpt lat="45.1854" lon="0.72204">
        <ele>110.4</ele>
        <time>2021-10-24T12:29:17Z</time>
      </trkpt>
      <trkpt lat="45.18541" lon="0.72205">
        <ele>110.4</ele>
        <time>2021-10-24T12:29:18Z</time>
      </trkpt>
      <trkpt lat="45.18542" lon="0.72206">
        <ele>110.4</ele>
        <time>2021-10-24T12:29:20Z</time>
      </trkpt>
      <trkpt lat="45.18543" lon="0.72206">
        <ele>110.4</ele>
        <time>2021-10-24T12:29:21Z</time>
      </trkpt>
      <trkpt lat="45.18544" lon="0.72206">
        <ele>110.5</ele>
        <time>2021-10-24T12:29:22Z</time>
      </trkpt>
      <trkpt lat="45.18545" lon="0.72207">
        <ele>110.5</ele>
        <time>2021-10-24T12:29:23Z</time>
      </trkpt>
      <trkpt lat="45.18546" lon="0.72207">
        <ele>110.5</ele>
        <time>2021-10-24T12:29:24Z</time>
      </trkpt>
      <trkpt lat="45.18547" lon="0.72208">
        <ele>110.5</ele>
        <time>2021-10-24T12:29:25Z</time>
      </trkpt>
      <trkpt lat="45.18548" lon="0.72209">
        <ele>110.5</ele>
        <time>2021-10-24T12:29:26Z</time>
      </trkpt>
      <trkpt lat="45.18549" lon="0.72209">
        <ele>110.5</ele>
        <time>2021-10-24T12:29:27Z</time>
      </trkpt>
      <trkpt lat="45.18551" lon="0.72209">
        <ele>110.5</ele>
        <time>2021-10-24T12:29:28Z</time>
      </trkpt>
      <trkpt lat="45.18551" lon="0.7221">
        <ele>110.5</ele>
        <time>2021-10-24T12:29:30Z</time>
      </trkpt>
      <trkpt lat="45.18552" lon="0.7221">
        <ele>110.5</ele>
        <time>2021-10-24T12:29:31Z</time>
      </trkpt>
      <trkpt lat="45.18553" lon="0.7221">
        <ele>110.5</ele>
        <time>2021-10-24T12:29:32Z</time>
      </trkpt>
      <trkpt lat="45.18555" lon="0.7221">
        <ele>110.6</ele>
        <time>2021-10-24T12:29:33Z</time>
      </trkpt>
      <trkpt lat="45.18556" lon="0.7221">
        <ele>110.6</ele>
        <time>2021-10-24T12:29:34Z</time>
      </trkpt>
      <trkpt lat="45.18557" lon="0.72211">
        <ele>110.6</ele>
        <time>2021-10-24T12:29:35Z</time>
      </trkpt>
      <trkpt lat="45.18558" lon="0.72211">
        <ele>110.6</ele>
        <time>2021-10-24T12:29:36Z</time>
      </trkpt>
      <trkpt lat="45.1856" lon="0.72211">
        <ele>110.7</ele>
        <time>2021-10-24T12:29:37Z</time>
      </trkpt>
      <trkpt lat="45.18561" lon="0.72211">
        <ele>110.7</ele>
        <time>2021-10-24T12:29:38Z</time>
      </trkpt>
      <trkpt lat="45.18563" lon="0.72211">
        <ele>110.7</ele>
        <time>2021-10-24T12:29:40Z</time>
      </trkpt>
      <trkpt lat="45.18564" lon="0.72211">
        <ele>110.7</ele>
        <time>2021-10-24T12:29:41Z</time>
      </trkpt>
      <trkpt lat="45.18565" lon="0.7221">
        <ele>110.8</ele>
        <time>2021-10-24T12:29:42Z</time>
      </trkpt>
      <trkpt lat="45.18566" lon="0.7221">
        <ele>110.8</ele>
        <time>2021-10-24T12:29:43Z</time>
      </trkpt>
      <trkpt lat="45.18568" lon="0.72208">
        <ele>110.8</ele>
        <time>2021-10-24T12:29:44Z</time>
      </trkpt>
      <trkpt lat="45.18568" lon="0.72207">
        <ele>110.8</ele>
        <time>2021-10-24T12:29:45Z</time>
      </trkpt>
      <trkpt lat="45.18569" lon="0.72207">
        <ele>110.8</ele>
        <time>2021-10-24T12:29:46Z</time>
      </trkpt>
      <trkpt lat="45.1857" lon="0.72206">
        <ele>110.8</ele>
        <time>2021-10-24T12:29:47Z</time>
      </trkpt>
      <trkpt lat="45.18571" lon="0.72206">
        <ele>110.8</ele>
        <time>2021-10-24T12:29:48Z</time>
      </trkpt>
      <trkpt lat="45.18572" lon="0.72205">
        <ele>110.8</ele>
        <time>2021-10-24T12:29:49Z</time>
      </trkpt>
      <trkpt lat="45.18573" lon="0.72205">
        <ele>110.8</ele>
        <time>2021-10-24T12:29:51Z</time>
      </trkpt>
      <trkpt lat="45.18574" lon="0.72206">
        <ele>110.9</ele>
        <time>2021-10-24T12:29:52Z</time>
      </trkpt>
      <trkpt lat="45.18575" lon="0.72206">
        <ele>110.9</ele>
        <time>2021-10-24T12:29:53Z</time>
      </trkpt>
      <trkpt lat="45.18577" lon="0.72206">
        <ele>110.9</ele>
        <time>2021-10-24T12:29:54Z</time>
      </trkpt>
      <trkpt lat="45.18577" lon="0.72206">
        <ele>110.9</ele>
        <time>2021-10-24T12:29:55Z</time>
      </trkpt>
      <trkpt lat="45.18579" lon="0.72206">
        <ele>110.9</ele>
        <time>2021-10-24T12:29:56Z</time>
      </trkpt>
      <trkpt lat="45.1858" lon="0.72206">
        <ele>110.8</ele>
        <time>2021-10-24T12:29:57Z</time>
      </trkpt>
      <trkpt lat="45.18581" lon="0.72206">
        <ele>110.8</ele>
        <time>2021-10-24T12:29:58Z</time>
      </trkpt>
      <trkpt lat="45.18582" lon="0.72206">
        <ele>110.8</ele>
        <time>2021-10-24T12:29:59Z</time>
      </trkpt>
      <trkpt lat="45.18583" lon="0.72206">
        <ele>110.8</ele>
        <time>2021-10-24T12:30:00Z</time>
      </trkpt>
      <trkpt lat="45.18584" lon="0.72206">
        <ele>110.8</ele>
        <time>2021-10-24T12:30:01Z</time>
      </trkpt>
      <trkpt lat="45.18585" lon="0.72205">
        <ele>110.8</ele>
        <time>2021-10-24T12:30:03Z</time>
      </trkpt>
      <trkpt lat="45.18587" lon="0.72204">
        <ele>110.8</ele>
        <time>2021-10-24T12:30:04Z</time>
      </trkpt>
      <trkpt lat="45.18589" lon="0.72204">
        <ele>110.8</ele>
        <time>2021-10-24T12:30:05Z</time>
      </trkpt>
      <trkpt lat="45.18591" lon="0.72203">
        <ele>110.8</ele>
        <time>2021-10-24T12:30:06Z</time>
      </trkpt>
      <trkpt lat="45.18591" lon="0.72203">
        <ele>110.8</ele>
        <time>2021-10-24T12:30:07Z</time>
      </trkpt>
      <trkpt lat="45.18592" lon="0.72203">
        <ele>110.8</ele>
        <time>2021-10-24T12:30:08Z</time>
      </trkpt>
      <trkpt lat="45.18594" lon="0.72202">
        <ele>110.8</ele>
        <time>2021-10-24T12:30:09Z</time>
      </trkpt>
      <trkpt lat="45.18595" lon="0.72202">
        <ele>110.8</ele>
        <time>2021-10-24T12:30:10Z</time>
      </trkpt>
      <trkpt lat="45.18596" lon="0.72201">
        <ele>110.7</ele>
        <time>2021-10-24T12:30:11Z</time>
      </trkpt>
      <trkpt lat="45.18597" lon="0.72201">
        <ele>110.7</ele>
        <time>2021-10-24T12:30:12Z</time>
      </trkpt>
      <trkpt lat="45.18598" lon="0.72201">
        <ele>110.7</ele>
        <time>2021-10-24T12:30:13Z</time>
      </trkpt>
      <trkpt lat="45.186" lon="0.722">
        <ele>110.7</ele>
        <time>2021-10-24T12:30:15Z</time>
      </trkpt>
      <trkpt lat="45.18601" lon="0.72199">
        <ele>110.7</ele>
        <time>2021-10-24T12:30:16Z</time>
      </trkpt>
      <trkpt lat="45.18603" lon="0.72198">
        <ele>110.6</ele>
        <time>2021-10-24T12:30:17Z</time>
      </trkpt>
      <trkpt lat="45.18604" lon="0.72198">
        <ele>110.6</ele>
        <time>2021-10-24T12:30:18Z</time>
      </trkpt>
      <trkpt lat="45.18604" lon="0.72198">
        <ele>110.6</ele>
        <time>2021-10-24T12:30:19Z</time>
      </trkpt>
      <trkpt lat="45.18607" lon="0.72197">
        <ele>110.5</ele>
        <time>2021-10-24T12:30:20Z</time>
      </trkpt>
      <trkpt lat="45.18607" lon="0.72197">
        <ele>110.5</ele>
        <time>2021-10-24T12:30:21Z</time>
      </trkpt>
      <trkpt lat="45.18608" lon="0.72196">
        <ele>110.5</ele>
        <time>2021-10-24T12:30:22Z</time>
      </trkpt>
      <trkpt lat="45.18611" lon="0.72196">
        <ele>110.4</ele>
        <time>2021-10-24T12:30:23Z</time>
      </trkpt>
      <trkpt lat="45.18612" lon="0.72196">
        <ele>110.4</ele>
        <time>2021-10-24T12:30:25Z</time>
      </trkpt>
      <trkpt lat="45.18613" lon="0.72196">
        <ele>110.3</ele>
        <time>2021-10-24T12:30:26Z</time>
      </trkpt>
      <trkpt lat="45.18615" lon="0.72197">
        <ele>110.3</ele>
        <time>2021-10-24T12:30:27Z</time>
      </trkpt>
      <trkpt lat="45.18616" lon="0.72197">
        <ele>110.3</ele>
        <time>2021-10-24T12:30:28Z</time>
      </trkpt>
      <trkpt lat="45.18617" lon="0.72197">
        <ele>110.2</ele>
        <time>2021-10-24T12:30:29Z</time>
      </trkpt>
      <trkpt lat="45.18618" lon="0.72197">
        <ele>110.2</ele>
        <time>2021-10-24T12:30:30Z</time>
      </trkpt>
      <trkpt lat="45.18619" lon="0.72197">
        <ele>110.2</ele>
        <time>2021-10-24T12:30:32Z</time>
      </trkpt>
      <trkpt lat="45.1862" lon="0.72197">
        <ele>110.1</ele>
        <time>2021-10-24T12:30:33Z</time>
      </trkpt>
      <trkpt lat="45.18621" lon="0.72197">
        <ele>110.1</ele>
        <time>2021-10-24T12:30:34Z</time>
      </trkpt>
      <trkpt lat="45.18622" lon="0.72198">
        <ele>110.1</ele>
        <time>2021-10-24T12:30:35Z</time>
      </trkpt>
      <trkpt lat="45.18624" lon="0.72199">
        <ele>110</ele>
        <time>2021-10-24T12:30:36Z</time>
      </trkpt>
      <trkpt lat="45.18625" lon="0.72199">
        <ele>110</ele>
        <time>2021-10-24T12:30:37Z</time>
      </trkpt>
      <trkpt lat="45.18626" lon="0.72199">
        <ele>110</ele>
        <time>2021-10-24T12:30:38Z</time>
      </trkpt>
      <trkpt lat="45.18626" lon="0.722">
        <ele>110</ele>
        <time>2021-10-24T12:30:39Z</time>
      </trkpt>
      <trkpt lat="45.18627" lon="0.722">
        <ele>109.9</ele>
        <time>2021-10-24T12:30:40Z</time>
      </trkpt>
      <trkpt lat="45.18628" lon="0.722">
        <ele>109.9</ele>
        <time>2021-10-24T12:30:41Z</time>
      </trkpt>
      <trkpt lat="45.18628" lon="0.72201">
        <ele>109.9</ele>
        <time>2021-10-24T12:30:43Z</time>
      </trkpt>
      <trkpt lat="45.18629" lon="0.72203">
        <ele>109.6</ele>
        <time>2021-10-24T12:30:44Z</time>
      </trkpt>
      <trkpt lat="45.18629" lon="0.72205">
        <ele>109.6</ele>
        <time>2021-10-24T12:30:45Z</time>
      </trkpt>
      <trkpt lat="45.1863" lon="0.72206">
        <ele>109.6</ele>
        <time>2021-10-24T12:30:46Z</time>
      </trkpt>
      <trkpt lat="45.1863" lon="0.72207">
        <ele>109.5</ele>
        <time>2021-10-24T12:30:47Z</time>
      </trkpt>
      <trkpt lat="45.1863" lon="0.72209">
        <ele>109.5</ele>
        <time>2021-10-24T12:30:48Z</time>
      </trkpt>
      <trkpt lat="45.1863" lon="0.7221">
        <ele>109.5</ele>
        <time>2021-10-24T12:30:49Z</time>
      </trkpt>
      <trkpt lat="45.1863" lon="0.72212">
        <ele>109.5</ele>
        <time>2021-10-24T12:30:50Z</time>
      </trkpt>
      <trkpt lat="45.18631" lon="0.72214">
        <ele>109.5</ele>
        <time>2021-10-24T12:30:51Z</time>
      </trkpt>
      <trkpt lat="45.18631" lon="0.72215">
        <ele>109.5</ele>
        <time>2021-10-24T12:30:52Z</time>
      </trkpt>
      <trkpt lat="45.18631" lon="0.72217">
        <ele>109.5</ele>
        <time>2021-10-24T12:30:54Z</time>
      </trkpt>
      <trkpt lat="45.18632" lon="0.72218">
        <ele>109.5</ele>
        <time>2021-10-24T12:30:55Z</time>
      </trkpt>
      <trkpt lat="45.18632" lon="0.7222">
        <ele>109.5</ele>
        <time>2021-10-24T12:30:56Z</time>
      </trkpt>
      <trkpt lat="45.18632" lon="0.72221">
        <ele>109.5</ele>
        <time>2021-10-24T12:30:57Z</time>
      </trkpt>
      <trkpt lat="45.18633" lon="0.72223">
        <ele>109.5</ele>
        <time>2021-10-24T12:30:58Z</time>
      </trkpt>
      <trkpt lat="45.18633" lon="0.72224">
        <ele>109.5</ele>
        <time>2021-10-24T12:30:59Z</time>
      </trkpt>
      <trkpt lat="45.18633" lon="0.72226">
        <ele>109.5</ele>
        <time>2021-10-24T12:31:00Z</time>
      </trkpt>
      <trkpt lat="45.18634" lon="0.72227">
        <ele>109.5</ele>
        <time>2021-10-24T12:31:01Z</time>
      </trkpt>
      <trkpt lat="45.18634" lon="0.72228">
        <ele>109.5</ele>
        <time>2021-10-24T12:31:02Z</time>
      </trkpt>
      <trkpt lat="45.18636" lon="0.72231">
        <ele>109.5</ele>
        <time>2021-10-24T12:31:03Z</time>
      </trkpt>
      <trkpt lat="45.18636" lon="0.72232">
        <ele>109.5</ele>
        <time>2021-10-24T12:31:05Z</time>
      </trkpt>
      <trkpt lat="45.18636" lon="0.72233">
        <ele>109.5</ele>
        <time>2021-10-24T12:31:06Z</time>
      </trkpt>
      <trkpt lat="45.18638" lon="0.72235">
        <ele>109.5</ele>
        <time>2021-10-24T12:31:07Z</time>
      </trkpt>
      <trkpt lat="45.18638" lon="0.72236">
        <ele>109.5</ele>
        <time>2021-10-24T12:31:08Z</time>
      </trkpt>
      <trkpt lat="45.18639" lon="0.72237">
        <ele>109.5</ele>
        <time>2021-10-24T12:31:09Z</time>
      </trkpt>
      <trkpt lat="45.1864" lon="0.72239">
        <ele>109.5</ele>
        <time>2021-10-24T12:31:11Z</time>
      </trkpt>
      <trkpt lat="45.1864" lon="0.72241">
        <ele>109.5</ele>
        <time>2021-10-24T12:31:12Z</time>
      </trkpt>
      <trkpt lat="45.18641" lon="0.72242">
        <ele>109.5</ele>
        <time>2021-10-24T12:31:13Z</time>
      </trkpt>
      <trkpt lat="45.18641" lon="0.72243">
        <ele>109.5</ele>
        <time>2021-10-24T12:31:14Z</time>
      </trkpt>
      <trkpt lat="45.18642" lon="0.72245">
        <ele>109.5</ele>
        <time>2021-10-24T12:31:15Z</time>
      </trkpt>
      <trkpt lat="45.18642" lon="0.72246">
        <ele>109.5</ele>
        <time>2021-10-24T12:31:16Z</time>
      </trkpt>
      <trkpt lat="45.18642" lon="0.72248">
        <ele>109.5</ele>
        <time>2021-10-24T12:31:17Z</time>
      </trkpt>
      <trkpt lat="45.18642" lon="0.7225">
        <ele>109.5</ele>
        <time>2021-10-24T12:31:18Z</time>
      </trkpt>
      <trkpt lat="45.18643" lon="0.72253">
        <ele>109.5</ele>
        <time>2021-10-24T12:31:19Z</time>
      </trkpt>
      <trkpt lat="45.18643" lon="0.72255">
        <ele>109.5</ele>
        <time>2021-10-24T12:31:20Z</time>
      </trkpt>
      <trkpt lat="45.18643" lon="0.72256">
        <ele>109.5</ele>
        <time>2021-10-24T12:31:21Z</time>
      </trkpt>
      <trkpt lat="45.18642" lon="0.72258">
        <ele>109.5</ele>
        <time>2021-10-24T12:31:22Z</time>
      </trkpt>
      <trkpt lat="45.18641" lon="0.7226">
        <ele>109.5</ele>
        <time>2021-10-24T12:31:23Z</time>
      </trkpt>
      <trkpt lat="45.1864" lon="0.72263">
        <ele>109.5</ele>
        <time>2021-10-24T12:31:25Z</time>
      </trkpt>
      <trkpt lat="45.18639" lon="0.72264">
        <ele>109.4</ele>
        <time>2021-10-24T12:31:26Z</time>
      </trkpt>
      <trkpt lat="45.18637" lon="0.72266">
        <ele>109.4</ele>
        <time>2021-10-24T12:31:27Z</time>
      </trkpt>
      <trkpt lat="45.18637" lon="0.72267">
        <ele>109.4</ele>
        <time>2021-10-24T12:31:29Z</time>
      </trkpt>
      <trkpt lat="45.18637" lon="0.72268">
        <ele>109.4</ele>
        <time>2021-10-24T12:31:30Z</time>
      </trkpt>
      <trkpt lat="45.18637" lon="0.7227">
        <ele>109.4</ele>
        <time>2021-10-24T12:31:31Z</time>
      </trkpt>
      <trkpt lat="45.18637" lon="0.72271">
        <ele>109.4</ele>
        <time>2021-10-24T12:31:32Z</time>
      </trkpt>
      <trkpt lat="45.18637" lon="0.72272">
        <ele>109.4</ele>
        <time>2021-10-24T12:31:33Z</time>
      </trkpt>
      <trkpt lat="45.18638" lon="0.72273">
        <ele>109.4</ele>
        <time>2021-10-24T12:31:34Z</time>
      </trkpt>
      <trkpt lat="45.18638" lon="0.72273">
        <ele>109.4</ele>
        <time>2021-10-24T12:31:36Z</time>
      </trkpt>
      <trkpt lat="45.18638" lon="0.72273">
        <ele>109.4</ele>
        <time>2021-10-24T12:31:37Z</time>
      </trkpt>
      <trkpt lat="45.18638" lon="0.72274">
        <ele>109.4</ele>
        <time>2021-10-24T12:31:38Z</time>
      </trkpt>
      <trkpt lat="45.18638" lon="0.72274">
        <ele>109.4</ele>
        <time>2021-10-24T12:31:39Z</time>
      </trkpt>
      <trkpt lat="45.18637" lon="0.72275">
        <ele>109.4</ele>
        <time>2021-10-24T12:31:41Z</time>
      </trkpt>
      <trkpt lat="45.18637" lon="0.72276">
        <ele>109.4</ele>
        <time>2021-10-24T12:31:43Z</time>
      </trkpt>
      <trkpt lat="45.18637" lon="0.72276">
        <ele>109.4</ele>
        <time>2021-10-24T12:31:44Z</time>
      </trkpt>
      <trkpt lat="45.18636" lon="0.72277">
        <ele>109.4</ele>
        <time>2021-10-24T12:31:46Z</time>
      </trkpt>
      <trkpt lat="45.18636" lon="0.72278">
        <ele>109.4</ele>
        <time>2021-10-24T12:31:47Z</time>
      </trkpt>
      <trkpt lat="45.18635" lon="0.7228">
        <ele>109.3</ele>
        <time>2021-10-24T12:31:48Z</time>
      </trkpt>
      <trkpt lat="45.18633" lon="0.72283">
        <ele>109.3</ele>
        <time>2021-10-24T12:31:49Z</time>
      </trkpt>
      <trkpt lat="45.18633" lon="0.72284">
        <ele>109.3</ele>
        <time>2021-10-24T12:31:50Z</time>
      </trkpt>
      <trkpt lat="45.1863" lon="0.72287">
        <ele>109.3</ele>
        <time>2021-10-24T12:31:51Z</time>
      </trkpt>
      <trkpt lat="45.18629" lon="0.72287">
        <ele>109.3</ele>
        <time>2021-10-24T12:31:52Z</time>
      </trkpt>
      <trkpt lat="45.18626" lon="0.72289">
        <ele>109.3</ele>
        <time>2021-10-24T12:31:54Z</time>
      </trkpt>
      <trkpt lat="45.18625" lon="0.72291">
        <ele>109.2</ele>
        <time>2021-10-24T12:31:55Z</time>
      </trkpt>
      <trkpt lat="45.18623" lon="0.72293">
        <ele>109.2</ele>
        <time>2021-10-24T12:31:57Z</time>
      </trkpt>
      <trkpt lat="45.18622" lon="0.72294">
        <ele>109.2</ele>
        <time>2021-10-24T12:31:58Z</time>
      </trkpt>
      <trkpt lat="45.18622" lon="0.72296">
        <ele>109.2</ele>
        <time>2021-10-24T12:31:59Z</time>
      </trkpt>
      <trkpt lat="45.18622" lon="0.72297">
        <ele>109.2</ele>
        <time>2021-10-24T12:32:00Z</time>
      </trkpt>
      <trkpt lat="45.18622" lon="0.72299">
        <ele>109.2</ele>
        <time>2021-10-24T12:32:01Z</time>
      </trkpt>
      <trkpt lat="45.18623" lon="0.723">
        <ele>109.2</ele>
        <time>2021-10-24T12:32:02Z</time>
      </trkpt>
      <trkpt lat="45.18624" lon="0.72301">
        <ele>109.1</ele>
        <time>2021-10-24T12:32:03Z</time>
      </trkpt>
      <trkpt lat="45.18625" lon="0.72302">
        <ele>109.1</ele>
        <time>2021-10-24T12:32:04Z</time>
      </trkpt>
      <trkpt lat="45.18626" lon="0.72303">
        <ele>109.1</ele>
        <time>2021-10-24T12:32:05Z</time>
      </trkpt>
      <trkpt lat="45.18627" lon="0.72304">
        <ele>109.1</ele>
        <time>2021-10-24T12:32:07Z</time>
      </trkpt>
      <trkpt lat="45.18628" lon="0.72305">
        <ele>109.1</ele>
        <time>2021-10-24T12:32:08Z</time>
      </trkpt>
      <trkpt lat="45.18629" lon="0.72305">
        <ele>109.1</ele>
        <time>2021-10-24T12:32:09Z</time>
      </trkpt>
      <trkpt lat="45.18629" lon="0.72306">
        <ele>109.1</ele>
        <time>2021-10-24T12:32:10Z</time>
      </trkpt>
      <trkpt lat="45.1863" lon="0.72307">
        <ele>109.1</ele>
        <time>2021-10-24T12:32:11Z</time>
      </trkpt>
      <trkpt lat="45.1863" lon="0.72309">
        <ele>109</ele>
        <time>2021-10-24T12:32:12Z</time>
      </trkpt>
      <trkpt lat="45.18631" lon="0.7231">
        <ele>109</ele>
        <time>2021-10-24T12:32:14Z</time>
      </trkpt>
      <trkpt lat="45.18631" lon="0.72312">
        <ele>109</ele>
        <time>2021-10-24T12:32:15Z</time>
      </trkpt>
      <trkpt lat="45.18632" lon="0.72313">
        <ele>109</ele>
        <time>2021-10-24T12:32:16Z</time>
      </trkpt>
      <trkpt lat="45.18632" lon="0.72314">
        <ele>109</ele>
        <time>2021-10-24T12:32:17Z</time>
      </trkpt>
      <trkpt lat="45.18633" lon="0.72316">
        <ele>109</ele>
        <time>2021-10-24T12:32:18Z</time>
      </trkpt>
      <trkpt lat="45.18633" lon="0.72317">
        <ele>109</ele>
        <time>2021-10-24T12:32:19Z</time>
      </trkpt>
      <trkpt lat="45.18633" lon="0.72318">
        <ele>109</ele>
        <time>2021-10-24T12:32:20Z</time>
      </trkpt>
      <trkpt lat="45.18633" lon="0.7232">
        <ele>108.9</ele>
        <time>2021-10-24T12:32:22Z</time>
      </trkpt>
      <trkpt lat="45.18633" lon="0.72321">
        <ele>108.9</ele>
        <time>2021-10-24T12:32:23Z</time>
      </trkpt>
      <trkpt lat="45.18633" lon="0.72322">
        <ele>108.9</ele>
        <time>2021-10-24T12:32:24Z</time>
      </trkpt>
      <trkpt lat="45.18633" lon="0.72322">
        <ele>108.9</ele>
        <time>2021-10-24T12:32:25Z</time>
      </trkpt>
      <trkpt lat="45.18633" lon="0.72323">
        <ele>108.9</ele>
        <time>2021-10-24T12:32:27Z</time>
      </trkpt>
      <trkpt lat="45.18633" lon="0.72325">
        <ele>108.9</ele>
        <time>2021-10-24T12:32:29Z</time>
      </trkpt>
      <trkpt lat="45.18634" lon="0.72326">
        <ele>108.9</ele>
        <time>2021-10-24T12:32:30Z</time>
      </trkpt>
      <trkpt lat="45.18634" lon="0.72327">
        <ele>108.9</ele>
        <time>2021-10-24T12:32:31Z</time>
      </trkpt>
      <trkpt lat="45.18635" lon="0.72328">
        <ele>108.9</ele>
        <time>2021-10-24T12:32:33Z</time>
      </trkpt>
      <trkpt lat="45.18635" lon="0.72329">
        <ele>108.9</ele>
        <time>2021-10-24T12:32:34Z</time>
      </trkpt>
      <trkpt lat="45.18635" lon="0.72329">
        <ele>108.9</ele>
        <time>2021-10-24T12:32:35Z</time>
      </trkpt>
      <trkpt lat="45.18635" lon="0.72331">
        <ele>108.8</ele>
        <time>2021-10-24T12:32:36Z</time>
      </trkpt>
      <trkpt lat="45.18635" lon="0.72332">
        <ele>108.8</ele>
        <time>2021-10-24T12:32:37Z</time>
      </trkpt>
      <trkpt lat="45.18635" lon="0.72333">
        <ele>108.8</ele>
        <time>2021-10-24T12:32:39Z</time>
      </trkpt>
      <trkpt lat="45.18636" lon="0.72334">
        <ele>108.8</ele>
        <time>2021-10-24T12:32:40Z</time>
      </trkpt>
      <trkpt lat="45.18637" lon="0.72335">
        <ele>108.8</ele>
        <time>2021-10-24T12:32:41Z</time>
      </trkpt>
      <trkpt lat="45.18638" lon="0.72336">
        <ele>108.8</ele>
        <time>2021-10-24T12:32:42Z</time>
      </trkpt>
      <trkpt lat="45.18639" lon="0.72336">
        <ele>108.8</ele>
        <time>2021-10-24T12:32:44Z</time>
      </trkpt>
      <trkpt lat="45.18639" lon="0.72337">
        <ele>108.8</ele>
        <time>2021-10-24T12:32:45Z</time>
      </trkpt>
      <trkpt lat="45.1864" lon="0.72338">
        <ele>108.7</ele>
        <time>2021-10-24T12:32:46Z</time>
      </trkpt>
      <trkpt lat="45.1864" lon="0.7234">
        <ele>108.7</ele>
        <time>2021-10-24T12:32:47Z</time>
      </trkpt>
      <trkpt lat="45.18641" lon="0.72342">
        <ele>108.7</ele>
        <time>2021-10-24T12:32:48Z</time>
      </trkpt>
      <trkpt lat="45.18641" lon="0.72344">
        <ele>108.7</ele>
        <time>2021-10-24T12:32:50Z</time>
      </trkpt>
      <trkpt lat="45.18641" lon="0.72347">
        <ele>108.7</ele>
        <time>2021-10-24T12:32:51Z</time>
      </trkpt>
      <trkpt lat="45.18641" lon="0.72348">
        <ele>108.7</ele>
        <time>2021-10-24T12:32:52Z</time>
      </trkpt>
      <trkpt lat="45.18641" lon="0.7235">
        <ele>108.6</ele>
        <time>2021-10-24T12:32:54Z</time>
      </trkpt>
      <trkpt lat="45.18642" lon="0.72351">
        <ele>108.6</ele>
        <time>2021-10-24T12:32:55Z</time>
      </trkpt>
      <trkpt lat="45.18642" lon="0.72352">
        <ele>108.6</ele>
        <time>2021-10-24T12:32:56Z</time>
      </trkpt>
      <trkpt lat="45.18642" lon="0.72353">
        <ele>108.6</ele>
        <time>2021-10-24T12:32:57Z</time>
      </trkpt>
      <trkpt lat="45.18643" lon="0.72354">
        <ele>108.6</ele>
        <time>2021-10-24T12:32:58Z</time>
      </trkpt>
      <trkpt lat="45.18643" lon="0.72355">
        <ele>108.6</ele>
        <time>2021-10-24T12:32:59Z</time>
      </trkpt>
      <trkpt lat="45.18642" lon="0.72356">
        <ele>108.6</ele>
        <time>2021-10-24T12:33:00Z</time>
      </trkpt>
      <trkpt lat="45.18642" lon="0.72358">
        <ele>108.6</ele>
        <time>2021-10-24T12:33:02Z</time>
      </trkpt>
      <trkpt lat="45.18642" lon="0.72359">
        <ele>108.6</ele>
        <time>2021-10-24T12:33:03Z</time>
      </trkpt>
      <trkpt lat="45.18642" lon="0.7236">
        <ele>108.5</ele>
        <time>2021-10-24T12:33:04Z</time>
      </trkpt>
      <trkpt lat="45.18641" lon="0.72361">
        <ele>108.5</ele>
        <time>2021-10-24T12:33:05Z</time>
      </trkpt>
      <trkpt lat="45.18641" lon="0.72362">
        <ele>108.5</ele>
        <time>2021-10-24T12:33:06Z</time>
      </trkpt>
      <trkpt lat="45.18641" lon="0.72363">
        <ele>108.5</ele>
        <time>2021-10-24T12:33:08Z</time>
      </trkpt>
      <trkpt lat="45.1864" lon="0.72364">
        <ele>108.5</ele>
        <time>2021-10-24T12:33:09Z</time>
      </trkpt>
      <trkpt lat="45.1864" lon="0.72366">
        <ele>108.5</ele>
        <time>2021-10-24T12:33:10Z</time>
      </trkpt>
      <trkpt lat="45.18641" lon="0.72367">
        <ele>108.5</ele>
        <time>2021-10-24T12:33:11Z</time>
      </trkpt>
      <trkpt lat="45.18641" lon="0.72369">
        <ele>108.5</ele>
        <time>2021-10-24T12:33:12Z</time>
      </trkpt>
      <trkpt lat="45.18642" lon="0.72371">
        <ele>108.4</ele>
        <time>2021-10-24T12:33:13Z</time>
      </trkpt>
      <trkpt lat="45.18643" lon="0.72373">
        <ele>108.4</ele>
        <time>2021-10-24T12:33:14Z</time>
      </trkpt>
      <trkpt lat="45.18644" lon="0.72374">
        <ele>108.4</ele>
        <time>2021-10-24T12:33:15Z</time>
      </trkpt>
      <trkpt lat="45.18645" lon="0.72377">
        <ele>108.4</ele>
        <time>2021-10-24T12:33:17Z</time>
      </trkpt>
      <trkpt lat="45.18646" lon="0.72379">
        <ele>108.3</ele>
        <time>2021-10-24T12:33:18Z</time>
      </trkpt>
      <trkpt lat="45.18646" lon="0.72381">
        <ele>108.3</ele>
        <time>2021-10-24T12:33:19Z</time>
      </trkpt>
      <trkpt lat="45.18646" lon="0.72382">
        <ele>108.3</ele>
        <time>2021-10-24T12:33:20Z</time>
      </trkpt>
      <trkpt lat="45.18646" lon="0.72385">
        <ele>108.3</ele>
        <time>2021-10-24T12:33:22Z</time>
      </trkpt>
      <trkpt lat="45.18646" lon="0.72387">
        <ele>108.3</ele>
        <time>2021-10-24T12:33:23Z</time>
      </trkpt>
      <trkpt lat="45.18645" lon="0.72388">
        <ele>108.2</ele>
        <time>2021-10-24T12:33:24Z</time>
      </trkpt>
      <trkpt lat="45.18645" lon="0.7239">
        <ele>108.2</ele>
        <time>2021-10-24T12:33:25Z</time>
      </trkpt>
      <trkpt lat="45.18644" lon="0.72392">
        <ele>108.2</ele>
        <time>2021-10-24T12:33:27Z</time>
      </trkpt>
      <trkpt lat="45.18644" lon="0.72393">
        <ele>108.2</ele>
        <time>2021-10-24T12:33:28Z</time>
      </trkpt>
      <trkpt lat="45.18643" lon="0.72395">
        <ele>108.2</ele>
        <time>2021-10-24T12:33:29Z</time>
      </trkpt>
      <trkpt lat="45.18643" lon="0.72396">
        <ele>108.1</ele>
        <time>2021-10-24T12:33:30Z</time>
      </trkpt>
      <trkpt lat="45.18643" lon="0.72399">
        <ele>108.1</ele>
        <time>2021-10-24T12:33:32Z</time>
      </trkpt>
      <trkpt lat="45.18642" lon="0.724">
        <ele>108.1</ele>
        <time>2021-10-24T12:33:33Z</time>
      </trkpt>
      <trkpt lat="45.18642" lon="0.72402">
        <ele>108.1</ele>
        <time>2021-10-24T12:33:34Z</time>
      </trkpt>
      <trkpt lat="45.18642" lon="0.72403">
        <ele>108</ele>
        <time>2021-10-24T12:33:35Z</time>
      </trkpt>
      <trkpt lat="45.18642" lon="0.72405">
        <ele>108</ele>
        <time>2021-10-24T12:33:36Z</time>
      </trkpt>
      <trkpt lat="45.18642" lon="0.72407">
        <ele>108</ele>
        <time>2021-10-24T12:33:37Z</time>
      </trkpt>
      <trkpt lat="45.18641" lon="0.7241">
        <ele>108</ele>
        <time>2021-10-24T12:33:39Z</time>
      </trkpt>
      <trkpt lat="45.18641" lon="0.72413">
        <ele>107.9</ele>
        <time>2021-10-24T12:33:40Z</time>
      </trkpt>
      <trkpt lat="45.1864" lon="0.72414">
        <ele>107.9</ele>
        <time>2021-10-24T12:33:41Z</time>
      </trkpt>
      <trkpt lat="45.1864" lon="0.72415">
        <ele>107.9</ele>
        <time>2021-10-24T12:33:42Z</time>
      </trkpt>
      <trkpt lat="45.1864" lon="0.72417">
        <ele>107.9</ele>
        <time>2021-10-24T12:33:43Z</time>
      </trkpt>
      <trkpt lat="45.1864" lon="0.72418">
        <ele>107.8</ele>
        <time>2021-10-24T12:33:44Z</time>
      </trkpt>
      <trkpt lat="45.18639" lon="0.7242">
        <ele>107.8</ele>
        <time>2021-10-24T12:33:45Z</time>
      </trkpt>
      <trkpt lat="45.18639" lon="0.72423">
        <ele>107.8</ele>
        <time>2021-10-24T12:33:46Z</time>
      </trkpt>
      <trkpt lat="45.18639" lon="0.72424">
        <ele>107.8</ele>
        <time>2021-10-24T12:33:48Z</time>
      </trkpt>
      <trkpt lat="45.18638" lon="0.72425">
        <ele>107.8</ele>
        <time>2021-10-24T12:33:49Z</time>
      </trkpt>
      <trkpt lat="45.18637" lon="0.72428">
        <ele>107.7</ele>
        <time>2021-10-24T12:33:50Z</time>
      </trkpt>
      <trkpt lat="45.18637" lon="0.72429">
        <ele>107.7</ele>
        <time>2021-10-24T12:33:51Z</time>
      </trkpt>
      <trkpt lat="45.18637" lon="0.7243">
        <ele>107.7</ele>
        <time>2021-10-24T12:33:52Z</time>
      </trkpt>
      <trkpt lat="45.18636" lon="0.72431">
        <ele>107.7</ele>
        <time>2021-10-24T12:33:53Z</time>
      </trkpt>
      <trkpt lat="45.18635" lon="0.72432">
        <ele>107.7</ele>
        <time>2021-10-24T12:33:54Z</time>
      </trkpt>
      <trkpt lat="45.18635" lon="0.72433">
        <ele>107.7</ele>
        <time>2021-10-24T12:33:55Z</time>
      </trkpt>
      <trkpt lat="45.18635" lon="0.72436">
        <ele>107.6</ele>
        <time>2021-10-24T12:33:57Z</time>
      </trkpt>
      <trkpt lat="45.18634" lon="0.72437">
        <ele>107.6</ele>
        <time>2021-10-24T12:33:58Z</time>
      </trkpt>
      <trkpt lat="45.18634" lon="0.7244">
        <ele>107.6</ele>
        <time>2021-10-24T12:33:59Z</time>
      </trkpt>
      <trkpt lat="45.18634" lon="0.72441">
        <ele>107.6</ele>
        <time>2021-10-24T12:34:00Z</time>
      </trkpt>
      <trkpt lat="45.18634" lon="0.72442">
        <ele>107.6</ele>
        <time>2021-10-24T12:34:01Z</time>
      </trkpt>
      <trkpt lat="45.18634" lon="0.72444">
        <ele>107.6</ele>
        <time>2021-10-24T12:34:02Z</time>
      </trkpt>
      <trkpt lat="45.18634" lon="0.72446">
        <ele>107.5</ele>
        <time>2021-10-24T12:34:04Z</time>
      </trkpt>
      <trkpt lat="45.18633" lon="0.72447">
        <ele>107.5</ele>
        <time>2021-10-24T12:34:05Z</time>
      </trkpt>
      <trkpt lat="45.18633" lon="0.72449">
        <ele>107.5</ele>
        <time>2021-10-24T12:34:06Z</time>
      </trkpt>
      <trkpt lat="45.18633" lon="0.7245">
        <ele>107.5</ele>
        <time>2021-10-24T12:34:07Z</time>
      </trkpt>
      <trkpt lat="45.18632" lon="0.72452">
        <ele>107.4</ele>
        <time>2021-10-24T12:34:08Z</time>
      </trkpt>
      <trkpt lat="45.18631" lon="0.72455">
        <ele>107.4</ele>
        <time>2021-10-24T12:34:09Z</time>
      </trkpt>
      <trkpt lat="45.18631" lon="0.72456">
        <ele>107.4</ele>
        <time>2021-10-24T12:34:10Z</time>
      </trkpt>
      <trkpt lat="45.18631" lon="0.72456">
        <ele>107.4</ele>
        <time>2021-10-24T12:34:11Z</time>
      </trkpt>
      <trkpt lat="45.1863" lon="0.72458">
        <ele>107.3</ele>
        <time>2021-10-24T12:34:12Z</time>
      </trkpt>
      <trkpt lat="45.1863" lon="0.72459">
        <ele>107.3</ele>
        <time>2021-10-24T12:34:13Z</time>
      </trkpt>
      <trkpt lat="45.18629" lon="0.72461">
        <ele>107.3</ele>
        <time>2021-10-24T12:34:14Z</time>
      </trkpt>
      <trkpt lat="45.18628" lon="0.72463">
        <ele>107.3</ele>
        <time>2021-10-24T12:34:15Z</time>
      </trkpt>
      <trkpt lat="45.18628" lon="0.72465">
        <ele>107.2</ele>
        <time>2021-10-24T12:34:17Z</time>
      </trkpt>
      <trkpt lat="45.18627" lon="0.72466">
        <ele>107.2</ele>
        <time>2021-10-24T12:34:18Z</time>
      </trkpt>
      <trkpt lat="45.18626" lon="0.72467">
        <ele>107.2</ele>
        <time>2021-10-24T12:34:19Z</time>
      </trkpt>
      <trkpt lat="45.18625" lon="0.72468">
        <ele>107.2</ele>
        <time>2021-10-24T12:34:20Z</time>
      </trkpt>
      <trkpt lat="45.18625" lon="0.72469">
        <ele>107.2</ele>
        <time>2021-10-24T12:34:21Z</time>
      </trkpt>
      <trkpt lat="45.18624" lon="0.72472">
        <ele>107.1</ele>
        <time>2021-10-24T12:34:22Z</time>
      </trkpt>
      <trkpt lat="45.18624" lon="0.72472">
        <ele>107.1</ele>
        <time>2021-10-24T12:34:23Z</time>
      </trkpt>
      <trkpt lat="45.18624" lon="0.72473">
        <ele>107.1</ele>
        <time>2021-10-24T12:34:25Z</time>
      </trkpt>
      <trkpt lat="45.18624" lon="0.72474">
        <ele>107.1</ele>
        <time>2021-10-24T12:34:26Z</time>
      </trkpt>
      <trkpt lat="45.18624" lon="0.72475">
        <ele>107.1</ele>
        <time>2021-10-24T12:34:27Z</time>
      </trkpt>
      <trkpt lat="45.18624" lon="0.72475">
        <ele>107.1</ele>
        <time>2021-10-24T12:34:29Z</time>
      </trkpt>
      <trkpt lat="45.18624" lon="0.72476">
        <ele>107.1</ele>
        <time>2021-10-24T12:34:31Z</time>
      </trkpt>
      <trkpt lat="45.18624" lon="0.72477">
        <ele>107.1</ele>
        <time>2021-10-24T12:34:32Z</time>
      </trkpt>
      <trkpt lat="45.18624" lon="0.72477">
        <ele>107.1</ele>
        <time>2021-10-24T12:34:34Z</time>
      </trkpt>
      <trkpt lat="45.18624" lon="0.72478">
        <ele>107.1</ele>
        <time>2021-10-24T12:34:35Z</time>
      </trkpt>
      <trkpt lat="45.18624" lon="0.72479">
        <ele>107</ele>
        <time>2021-10-24T12:34:36Z</time>
      </trkpt>
      <trkpt lat="45.18624" lon="0.72479">
        <ele>107</ele>
        <time>2021-10-24T12:34:38Z</time>
      </trkpt>
      <trkpt lat="45.18624" lon="0.7248">
        <ele>107</ele>
        <time>2021-10-24T12:34:39Z</time>
      </trkpt>
      <trkpt lat="45.18624" lon="0.72481">
        <ele>107</ele>
        <time>2021-10-24T12:34:40Z</time>
      </trkpt>
      <trkpt lat="45.18624" lon="0.72482">
        <ele>107</ele>
        <time>2021-10-24T12:34:41Z</time>
      </trkpt>
      <trkpt lat="45.18624" lon="0.72482">
        <ele>107</ele>
        <time>2021-10-24T12:34:42Z</time>
      </trkpt>
      <trkpt lat="45.18624" lon="0.72483">
        <ele>107</ele>
        <time>2021-10-24T12:34:43Z</time>
      </trkpt>
      <trkpt lat="45.18624" lon="0.72485">
        <ele>107</ele>
        <time>2021-10-24T12:34:44Z</time>
      </trkpt>
      <trkpt lat="45.18625" lon="0.72487">
        <ele>106.9</ele>
        <time>2021-10-24T12:34:45Z</time>
      </trkpt>
      <trkpt lat="45.18626" lon="0.72488">
        <ele>106.9</ele>
        <time>2021-10-24T12:34:46Z</time>
      </trkpt>
      <trkpt lat="45.18627" lon="0.72489">
        <ele>106.9</ele>
        <time>2021-10-24T12:34:47Z</time>
      </trkpt>
      <trkpt lat="45.18627" lon="0.7249">
        <ele>106.9</ele>
        <time>2021-10-24T12:34:48Z</time>
      </trkpt>
      <trkpt lat="45.18628" lon="0.72491">
        <ele>106.9</ele>
        <time>2021-10-24T12:34:49Z</time>
      </trkpt>
      <trkpt lat="45.18628" lon="0.72491">
        <ele>106.8</ele>
        <time>2021-10-24T12:34:50Z</time>
      </trkpt>
      <trkpt lat="45.18629" lon="0.72491">
        <ele>106.8</ele>
        <time>2021-10-24T12:34:52Z</time>
      </trkpt>
      <trkpt lat="45.18629" lon="0.72491">
        <ele>106.8</ele>
        <time>2021-10-24T12:34:53Z</time>
      </trkpt>
      <trkpt lat="45.1863" lon="0.72492">
        <ele>106.8</ele>
        <time>2021-10-24T12:34:55Z</time>
      </trkpt>
      <trkpt lat="45.1863" lon="0.72493">
        <ele>106.8</ele>
        <time>2021-10-24T12:34:56Z</time>
      </trkpt>
      <trkpt lat="45.1863" lon="0.72494">
        <ele>106.8</ele>
        <time>2021-10-24T12:34:58Z</time>
      </trkpt>
      <trkpt lat="45.1863" lon="0.72494">
        <ele>106.8</ele>
        <time>2021-10-24T12:34:59Z</time>
      </trkpt>
      <trkpt lat="45.1863" lon="0.72494">
        <ele>106.8</ele>
        <time>2021-10-24T12:35:00Z</time>
      </trkpt>
      <trkpt lat="45.18631" lon="0.72494">
        <ele>106.8</ele>
        <time>2021-10-24T12:35:01Z</time>
      </trkpt>
      <trkpt lat="45.18631" lon="0.72495">
        <ele>106.8</ele>
        <time>2021-10-24T12:35:03Z</time>
      </trkpt>
      <trkpt lat="45.18631" lon="0.72495">
        <ele>106.8</ele>
        <time>2021-10-24T12:35:04Z</time>
      </trkpt>
      <trkpt lat="45.18631" lon="0.72495">
        <ele>106.8</ele>
        <time>2021-10-24T12:35:06Z</time>
      </trkpt>
      <trkpt lat="45.18631" lon="0.72495">
        <ele>106.8</ele>
        <time>2021-10-24T12:35:08Z</time>
      </trkpt>
      <trkpt lat="45.18631" lon="0.72495">
        <ele>106.8</ele>
        <time>2021-10-24T12:35:09Z</time>
      </trkpt>
      <trkpt lat="45.18632" lon="0.72495">
        <ele>106.7</ele>
        <time>2021-10-24T12:35:10Z</time>
      </trkpt>
      <trkpt lat="45.18632" lon="0.72495">
        <ele>106.7</ele>
        <time>2021-10-24T12:35:12Z</time>
      </trkpt>
      <trkpt lat="45.18632" lon="0.72495">
        <ele>106.7</ele>
        <time>2021-10-24T12:35:14Z</time>
      </trkpt>
      <trkpt lat="45.18632" lon="0.72495">
        <ele>106.7</ele>
        <time>2021-10-24T12:35:15Z</time>
      </trkpt>
      <trkpt lat="45.18632" lon="0.72495">
        <ele>106.7</ele>
        <time>2021-10-24T12:35:16Z</time>
      </trkpt>
      <trkpt lat="45.18632" lon="0.72495">
        <ele>106.7</ele>
        <time>2021-10-24T12:35:17Z</time>
      </trkpt>
      <trkpt lat="45.18632" lon="0.72495">
        <ele>106.7</ele>
        <time>2021-10-24T12:35:19Z</time>
      </trkpt>
      <trkpt lat="45.18632" lon="0.72495">
        <ele>106.7</ele>
        <time>2021-10-24T12:35:20Z</time>
      </trkpt>
      <trkpt lat="45.18632" lon="0.72495">
        <ele>106.7</ele>
        <time>2021-10-24T12:35:21Z</time>
      </trkpt>
      <trkpt lat="45.18632" lon="0.72495">
        <ele>106.7</ele>
        <time>2021-10-24T12:35:22Z</time>
      </trkpt>
      <trkpt lat="45.18632" lon="0.72495">
        <ele>106.7</ele>
        <time>2021-10-24T12:35:24Z</time>
      </trkpt>
      <trkpt lat="45.18632" lon="0.72496">
        <ele>106.7</ele>
        <time>2021-10-24T12:35:25Z</time>
      </trkpt>
      <trkpt lat="45.18633" lon="0.72497">
        <ele>106.7</ele>
        <time>2021-10-24T12:35:26Z</time>
      </trkpt>
      <trkpt lat="45.18633" lon="0.72499">
        <ele>106.7</ele>
        <time>2021-10-24T12:35:28Z</time>
      </trkpt>
      <trkpt lat="45.18633" lon="0.72499">
        <ele>106.7</ele>
        <time>2021-10-24T12:35:29Z</time>
      </trkpt>
      <trkpt lat="45.18633" lon="0.72499">
        <ele>106.7</ele>
        <time>2021-10-24T12:35:31Z</time>
      </trkpt>
      <trkpt lat="45.18633" lon="0.72499">
        <ele>106.7</ele>
        <time>2021-10-24T12:35:32Z</time>
      </trkpt>
      <trkpt lat="45.18633" lon="0.72499">
        <ele>106.7</ele>
        <time>2021-10-24T12:35:34Z</time>
      </trkpt>
      <trkpt lat="45.18633" lon="0.72499">
        <ele>106.7</ele>
        <time>2021-10-24T12:35:36Z</time>
      </trkpt>
      <trkpt lat="45.18633" lon="0.72499">
        <ele>106.7</ele>
        <time>2021-10-24T12:35:38Z</time>
      </trkpt>
      <trkpt lat="45.18633" lon="0.72499">
        <ele>106.7</ele>
        <time>2021-10-24T12:35:39Z</time>
      </trkpt>
      <trkpt lat="45.18633" lon="0.72498">
        <ele>106.7</ele>
        <time>2021-10-24T12:35:40Z</time>
      </trkpt>
      <trkpt lat="45.18633" lon="0.72499">
        <ele>106.6</ele>
        <time>2021-10-24T12:35:41Z</time>
      </trkpt>
      <trkpt lat="45.18633" lon="0.72499">
        <ele>106.6</ele>
        <time>2021-10-24T12:35:43Z</time>
      </trkpt>
      <trkpt lat="45.18633" lon="0.72499">
        <ele>106.6</ele>
        <time>2021-10-24T12:35:44Z</time>
      </trkpt>
      <trkpt lat="45.18633" lon="0.72499">
        <ele>106.6</ele>
        <time>2021-10-24T12:35:45Z</time>
      </trkpt>
      <trkpt lat="45.18633" lon="0.72499">
        <ele>106.6</ele>
        <time>2021-10-24T12:35:47Z</time>
      </trkpt>
      <trkpt lat="45.18633" lon="0.725">
        <ele>106.6</ele>
        <time>2021-10-24T12:35:49Z</time>
      </trkpt>
      <trkpt lat="45.18633" lon="0.725">
        <ele>106.6</ele>
        <time>2021-10-24T12:35:51Z</time>
      </trkpt>
      <trkpt lat="45.18633" lon="0.725">
        <ele>106.6</ele>
        <time>2021-10-24T12:35:53Z</time>
      </trkpt>
      <trkpt lat="45.18633" lon="0.725">
        <ele>106.6</ele>
        <time>2021-10-24T12:35:55Z</time>
      </trkpt>
      <trkpt lat="45.18633" lon="0.72501">
        <ele>106.6</ele>
        <time>2021-10-24T12:35:56Z</time>
      </trkpt>
      <trkpt lat="45.18633" lon="0.725">
        <ele>106.6</ele>
        <time>2021-10-24T12:35:58Z</time>
      </trkpt>
      <trkpt lat="45.18633" lon="0.725">
        <ele>106.6</ele>
        <time>2021-10-24T12:35:59Z</time>
      </trkpt>
      <trkpt lat="45.18633" lon="0.725">
        <ele>106.6</ele>
        <time>2021-10-24T12:36:00Z</time>
      </trkpt>
      <trkpt lat="45.18634" lon="0.725">
        <ele>106.6</ele>
        <time>2021-10-24T12:36:02Z</time>
      </trkpt>
      <trkpt lat="45.18634" lon="0.725">
        <ele>106.6</ele>
        <time>2021-10-24T12:36:03Z</time>
      </trkpt>
      <trkpt lat="45.18634" lon="0.72501">
        <ele>106.6</ele>
        <time>2021-10-24T12:36:05Z</time>
      </trkpt>
      <trkpt lat="45.18634" lon="0.72501">
        <ele>106.6</ele>
        <time>2021-10-24T12:36:07Z</time>
      </trkpt>
      <trkpt lat="45.18634" lon="0.72501">
        <ele>106.6</ele>
        <time>2021-10-24T12:36:09Z</time>
      </trkpt>
      <trkpt lat="45.18634" lon="0.725">
        <ele>106.6</ele>
        <time>2021-10-24T12:36:10Z</time>
      </trkpt>
      <trkpt lat="45.18634" lon="0.725">
        <ele>106.6</ele>
        <time>2021-10-24T12:36:11Z</time>
      </trkpt>
      <trkpt lat="45.18634" lon="0.725">
        <ele>106.6</ele>
        <time>2021-10-24T12:36:12Z</time>
      </trkpt>
      <trkpt lat="45.18634" lon="0.725">
        <ele>106.6</ele>
        <time>2021-10-24T12:36:14Z</time>
      </trkpt>
      <trkpt lat="45.18634" lon="0.725">
        <ele>106.6</ele>
        <time>2021-10-24T12:36:15Z</time>
      </trkpt>
      <trkpt lat="45.18634" lon="0.725">
        <ele>106.6</ele>
        <time>2021-10-24T12:36:17Z</time>
      </trkpt>
      <trkpt lat="45.18633" lon="0.725">
        <ele>106.6</ele>
        <time>2021-10-24T12:36:19Z</time>
      </trkpt>
      <trkpt lat="45.18632" lon="0.72499">
        <ele>106.5</ele>
        <time>2021-10-24T12:36:20Z</time>
      </trkpt>
      <trkpt lat="45.18632" lon="0.72499">
        <ele>106.5</ele>
        <time>2021-10-24T12:36:21Z</time>
      </trkpt>
      <trkpt lat="45.18631" lon="0.72499">
        <ele>106.5</ele>
        <time>2021-10-24T12:36:22Z</time>
      </trkpt>
      <trkpt lat="45.18631" lon="0.72499">
        <ele>106.5</ele>
        <time>2021-10-24T12:36:23Z</time>
      </trkpt>
      <trkpt lat="45.1863" lon="0.72498">
        <ele>106.5</ele>
        <time>2021-10-24T12:36:25Z</time>
      </trkpt>
      <trkpt lat="45.18629" lon="0.72497">
        <ele>106.5</ele>
        <time>2021-10-24T12:36:26Z</time>
      </trkpt>
      <trkpt lat="45.18628" lon="0.72497">
        <ele>106.4</ele>
        <time>2021-10-24T12:36:27Z</time>
      </trkpt>
      <trkpt lat="45.18627" lon="0.72496">
        <ele>106.4</ele>
        <time>2021-10-24T12:36:28Z</time>
      </trkpt>
      <trkpt lat="45.18626" lon="0.72495">
        <ele>106.4</ele>
        <time>2021-10-24T12:36:30Z</time>
      </trkpt>
      <trkpt lat="45.18626" lon="0.72495">
        <ele>106.4</ele>
        <time>2021-10-24T12:36:31Z</time>
      </trkpt>
      <trkpt lat="45.18626" lon="0.72495">
        <ele>106.4</ele>
        <time>2021-10-24T12:36:33Z</time>
      </trkpt>
      <trkpt lat="45.18626" lon="0.72494">
        <ele>106.4</ele>
        <time>2021-10-24T12:36:35Z</time>
      </trkpt>
      <trkpt lat="45.18626" lon="0.72494">
        <ele>106.4</ele>
        <time>2021-10-24T12:36:36Z</time>
      </trkpt>
      <trkpt lat="45.18626" lon="0.72494">
        <ele>106.4</ele>
        <time>2021-10-24T12:36:37Z</time>
      </trkpt>
      <trkpt lat="45.18626" lon="0.72494">
        <ele>106.4</ele>
        <time>2021-10-24T12:36:39Z</time>
      </trkpt>
      <trkpt lat="45.18626" lon="0.72494">
        <ele>106.4</ele>
        <time>2021-10-24T12:36:40Z</time>
      </trkpt>
      <trkpt lat="45.18626" lon="0.72494">
        <ele>106.4</ele>
        <time>2021-10-24T12:36:41Z</time>
      </trkpt>
      <trkpt lat="45.18626" lon="0.72493">
        <ele>106.4</ele>
        <time>2021-10-24T12:36:43Z</time>
      </trkpt>
      <trkpt lat="45.18626" lon="0.72493">
        <ele>106.3</ele>
        <time>2021-10-24T12:36:45Z</time>
      </trkpt>
      <trkpt lat="45.18626" lon="0.72492">
        <ele>106.3</ele>
        <time>2021-10-24T12:36:47Z</time>
      </trkpt>
      <trkpt lat="45.18626" lon="0.72492">
        <ele>106.3</ele>
        <time>2021-10-24T12:36:48Z</time>
      </trkpt>
      <trkpt lat="45.18626" lon="0.72492">
        <ele>106.3</ele>
        <time>2021-10-24T12:36:50Z</time>
      </trkpt>
      <trkpt lat="45.18627" lon="0.72492">
        <ele>106.3</ele>
        <time>2021-10-24T12:36:51Z</time>
      </trkpt>
      <trkpt lat="45.18627" lon="0.72492">
        <ele>106.3</ele>
        <time>2021-10-24T12:36:52Z</time>
      </trkpt>
      <trkpt lat="45.18627" lon="0.72492">
        <ele>106.3</ele>
        <time>2021-10-24T12:36:53Z</time>
      </trkpt>
      <trkpt lat="45.18627" lon="0.72492">
        <ele>106.3</ele>
        <time>2021-10-24T12:36:54Z</time>
      </trkpt>
      <trkpt lat="45.18627" lon="0.72492">
        <ele>106.3</ele>
        <time>2021-10-24T12:36:56Z</time>
      </trkpt>
      <trkpt lat="45.18627" lon="0.72492">
        <ele>106.3</ele>
        <time>2021-10-24T12:36:57Z</time>
      </trkpt>
      <trkpt lat="45.18627" lon="0.72492">
        <ele>106.3</ele>
        <time>2021-10-24T12:36:59Z</time>
      </trkpt>
      <trkpt lat="45.18627" lon="0.72492">
        <ele>106.3</ele>
        <time>2021-10-24T12:37:01Z</time>
      </trkpt>
      <trkpt lat="45.18627" lon="0.72492">
        <ele>106.3</ele>
        <time>2021-10-24T12:37:02Z</time>
      </trkpt>
      <trkpt lat="45.18627" lon="0.72492">
        <ele>106.3</ele>
        <time>2021-10-24T12:37:04Z</time>
      </trkpt>
      <trkpt lat="45.18627" lon="0.72491">
        <ele>106.3</ele>
        <time>2021-10-24T12:37:06Z</time>
      </trkpt>
      <trkpt lat="45.18627" lon="0.72491">
        <ele>106.3</ele>
        <time>2021-10-24T12:37:07Z</time>
      </trkpt>
      <trkpt lat="45.18626" lon="0.72491">
        <ele>106.3</ele>
        <time>2021-10-24T12:37:09Z</time>
      </trkpt>
      <trkpt lat="45.18626" lon="0.72491">
        <ele>106.3</ele>
        <time>2021-10-24T12:37:11Z</time>
      </trkpt>
      <trkpt lat="45.18626" lon="0.72491">
        <ele>106.3</ele>
        <time>2021-10-24T12:37:12Z</time>
      </trkpt>
      <trkpt lat="45.18626" lon="0.72491">
        <ele>106.3</ele>
        <time>2021-10-24T12:37:13Z</time>
      </trkpt>
      <trkpt lat="45.18626" lon="0.72491">
        <ele>106.3</ele>
        <time>2021-10-24T12:37:14Z</time>
      </trkpt>
      <trkpt lat="45.18626" lon="0.72491">
        <ele>106.3</ele>
        <time>2021-10-24T12:37:16Z</time>
      </trkpt>
      <trkpt lat="45.18626" lon="0.72491">
        <ele>106.3</ele>
        <time>2021-10-24T12:37:17Z</time>
      </trkpt>
      <trkpt lat="45.18625" lon="0.72491">
        <ele>106.3</ele>
        <time>2021-10-24T12:37:19Z</time>
      </trkpt>
      <trkpt lat="45.18626" lon="0.72491">
        <ele>106.3</ele>
        <time>2021-10-24T12:37:21Z</time>
      </trkpt>
      <trkpt lat="45.18626" lon="0.72491">
        <ele>106.3</ele>
        <time>2021-10-24T12:37:23Z</time>
      </trkpt>
      <trkpt lat="45.18626" lon="0.72491">
        <ele>106.3</ele>
        <time>2021-10-24T12:37:25Z</time>
      </trkpt>
      <trkpt lat="45.18626" lon="0.72491">
        <ele>106.3</ele>
        <time>2021-10-24T12:37:27Z</time>
      </trkpt>
      <trkpt lat="45.18626" lon="0.72491">
        <ele>106.3</ele>
        <time>2021-10-24T12:37:29Z</time>
      </trkpt>
      <trkpt lat="45.18626" lon="0.72491">
        <ele>106.3</ele>
        <time>2021-10-24T12:37:31Z</time>
      </trkpt>
      <trkpt lat="45.18626" lon="0.72491">
        <ele>106.3</ele>
        <time>2021-10-24T12:37:33Z</time>
      </trkpt>
      <trkpt lat="45.18626" lon="0.72491">
        <ele>106.3</ele>
        <time>2021-10-24T12:37:35Z</time>
      </trkpt>
      <trkpt lat="45.18626" lon="0.72491">
        <ele>106.3</ele>
        <time>2021-10-24T12:37:37Z</time>
      </trkpt>
      <trkpt lat="45.18626" lon="0.72491">
        <ele>106.3</ele>
        <time>2021-10-24T12:37:39Z</time>
      </trkpt>
      <trkpt lat="45.18625" lon="0.72491">
        <ele>106.3</ele>
        <time>2021-10-24T12:37:41Z</time>
      </trkpt>
      <trkpt lat="45.18623" lon="0.72489">
        <ele>106.2</ele>
        <time>2021-10-24T12:37:43Z</time>
      </trkpt>
      <trkpt lat="45.18623" lon="0.72489">
        <ele>106.2</ele>
        <time>2021-10-24T12:37:44Z</time>
      </trkpt>
      <trkpt lat="45.18622" lon="0.72487">
        <ele>106.2</ele>
        <time>2021-10-24T12:37:46Z</time>
      </trkpt>
      <trkpt lat="45.18622" lon="0.72487">
        <ele>106.2</ele>
        <time>2021-10-24T12:37:48Z</time>
      </trkpt>
      <trkpt lat="45.18622" lon="0.72487">
        <ele>106.2</ele>
        <time>2021-10-24T12:37:49Z</time>
      </trkpt>
      <trkpt lat="45.18622" lon="0.72486">
        <ele>106.2</ele>
        <time>2021-10-24T12:37:50Z</time>
      </trkpt>
      <trkpt lat="45.18621" lon="0.72485">
        <ele>106.2</ele>
        <time>2021-10-24T12:37:52Z</time>
      </trkpt>
      <trkpt lat="45.1862" lon="0.72484">
        <ele>106.2</ele>
        <time>2021-10-24T12:37:53Z</time>
      </trkpt>
      <trkpt lat="45.1862" lon="0.72484">
        <ele>106.2</ele>
        <time>2021-10-24T12:37:54Z</time>
      </trkpt>
      <trkpt lat="45.1862" lon="0.72483">
        <ele>106.3</ele>
        <time>2021-10-24T12:37:56Z</time>
      </trkpt>
      <trkpt lat="45.18619" lon="0.72482">
        <ele>106.3</ele>
        <time>2021-10-24T12:37:57Z</time>
      </trkpt>
      <trkpt lat="45.18619" lon="0.72481">
        <ele>106.3</ele>
        <time>2021-10-24T12:37:58Z</time>
      </trkpt>
      <trkpt lat="45.18618" lon="0.7248">
        <ele>106.4</ele>
        <time>2021-10-24T12:37:59Z</time>
      </trkpt>
      <trkpt lat="45.18617" lon="0.72478">
        <ele>106.4</ele>
        <time>2021-10-24T12:38:01Z</time>
      </trkpt>
      <trkpt lat="45.18617" lon="0.72476">
        <ele>106.4</ele>
        <time>2021-10-24T12:38:02Z</time>
      </trkpt>
      <trkpt lat="45.18617" lon="0.72474">
        <ele>106.5</ele>
        <time>2021-10-24T12:38:03Z</time>
      </trkpt>
      <trkpt lat="45.18617" lon="0.72473">
        <ele>106.5</ele>
        <time>2021-10-24T12:38:05Z</time>
      </trkpt>
      <trkpt lat="45.18616" lon="0.72472">
        <ele>106.5</ele>
        <time>2021-10-24T12:38:06Z</time>
      </trkpt>
      <trkpt lat="45.18616" lon="0.7247">
        <ele>106.6</ele>
        <time>2021-10-24T12:38:07Z</time>
      </trkpt>
      <trkpt lat="45.18615" lon="0.72469">
        <ele>106.6</ele>
        <time>2021-10-24T12:38:08Z</time>
      </trkpt>
      <trkpt lat="45.18615" lon="0.72468">
        <ele>106.6</ele>
        <time>2021-10-24T12:38:09Z</time>
      </trkpt>
      <trkpt lat="45.18614" lon="0.72467">
        <ele>106.7</ele>
        <time>2021-10-24T12:38:11Z</time>
      </trkpt>
      <trkpt lat="45.18614" lon="0.72466">
        <ele>106.7</ele>
        <time>2021-10-24T12:38:12Z</time>
      </trkpt>
      <trkpt lat="45.18614" lon="0.72466">
        <ele>106.7</ele>
        <time>2021-10-24T12:38:13Z</time>
      </trkpt>
      <trkpt lat="45.18613" lon="0.72465">
        <ele>106.7</ele>
        <time>2021-10-24T12:38:14Z</time>
      </trkpt>
      <trkpt lat="45.18613" lon="0.72464">
        <ele>106.7</ele>
        <time>2021-10-24T12:38:16Z</time>
      </trkpt>
      <trkpt lat="45.18613" lon="0.72463">
        <ele>106.8</ele>
        <time>2021-10-24T12:38:17Z</time>
      </trkpt>
      <trkpt lat="45.18613" lon="0.72463">
        <ele>106.8</ele>
        <time>2021-10-24T12:38:18Z</time>
      </trkpt>
      <trkpt lat="45.18612" lon="0.72461">
        <ele>106.8</ele>
        <time>2021-10-24T12:38:19Z</time>
      </trkpt>
      <trkpt lat="45.18612" lon="0.7246">
        <ele>106.8</ele>
        <time>2021-10-24T12:38:20Z</time>
      </trkpt>
      <trkpt lat="45.18611" lon="0.72459">
        <ele>106.9</ele>
        <time>2021-10-24T12:38:22Z</time>
      </trkpt>
      <trkpt lat="45.18611" lon="0.72459">
        <ele>106.9</ele>
        <time>2021-10-24T12:38:23Z</time>
      </trkpt>
      <trkpt lat="45.18611" lon="0.72457">
        <ele>106.9</ele>
        <time>2021-10-24T12:38:24Z</time>
      </trkpt>
      <trkpt lat="45.18611" lon="0.72455">
        <ele>107</ele>
        <time>2021-10-24T12:38:25Z</time>
      </trkpt>
      <trkpt lat="45.1861" lon="0.72453">
        <ele>107</ele>
        <time>2021-10-24T12:38:27Z</time>
      </trkpt>
      <trkpt lat="45.1861" lon="0.72451">
        <ele>107.1</ele>
        <time>2021-10-24T12:38:28Z</time>
      </trkpt>
      <trkpt lat="45.1861" lon="0.72449">
        <ele>107.1</ele>
        <time>2021-10-24T12:38:29Z</time>
      </trkpt>
      <trkpt lat="45.1861" lon="0.72448">
        <ele>107.1</ele>
        <time>2021-10-24T12:38:30Z</time>
      </trkpt>
      <trkpt lat="45.1861" lon="0.72447">
        <ele>107.1</ele>
        <time>2021-10-24T12:38:31Z</time>
      </trkpt>
      <trkpt lat="45.18609" lon="0.72447">
        <ele>107.1</ele>
        <time>2021-10-24T12:38:33Z</time>
      </trkpt>
      <trkpt lat="45.18609" lon="0.72446">
        <ele>107.2</ele>
        <time>2021-10-24T12:38:34Z</time>
      </trkpt>
      <trkpt lat="45.18608" lon="0.72445">
        <ele>107.2</ele>
        <time>2021-10-24T12:38:35Z</time>
      </trkpt>
      <trkpt lat="45.18607" lon="0.72444">
        <ele>107.2</ele>
        <time>2021-10-24T12:38:36Z</time>
      </trkpt>
      <trkpt lat="45.18606" lon="0.72443">
        <ele>107.3</ele>
        <time>2021-10-24T12:38:37Z</time>
      </trkpt>
      <trkpt lat="45.18606" lon="0.72443">
        <ele>107.3</ele>
        <time>2021-10-24T12:38:38Z</time>
      </trkpt>
      <trkpt lat="45.18606" lon="0.72442">
        <ele>107.3</ele>
        <time>2021-10-24T12:38:39Z</time>
      </trkpt>
      <trkpt lat="45.18606" lon="0.72442">
        <ele>107.3</ele>
        <time>2021-10-24T12:38:40Z</time>
      </trkpt>
      <trkpt lat="45.18605" lon="0.72441">
        <ele>107.3</ele>
        <time>2021-10-24T12:38:41Z</time>
      </trkpt>
      <trkpt lat="45.18603" lon="0.72439">
        <ele>107.5</ele>
        <time>2021-10-24T12:38:43Z</time>
      </trkpt>
      <trkpt lat="45.18603" lon="0.72438">
        <ele>107.5</ele>
        <time>2021-10-24T12:38:44Z</time>
      </trkpt>
      <trkpt lat="45.18602" lon="0.72437">
        <ele>107.6</ele>
        <time>2021-10-24T12:38:45Z</time>
      </trkpt>
      <trkpt lat="45.18601" lon="0.72436">
        <ele>107.6</ele>
        <time>2021-10-24T12:38:46Z</time>
      </trkpt>
      <trkpt lat="45.186" lon="0.72435">
        <ele>107.7</ele>
        <time>2021-10-24T12:38:47Z</time>
      </trkpt>
      <trkpt lat="45.186" lon="0.72435">
        <ele>107.7</ele>
        <time>2021-10-24T12:38:48Z</time>
      </trkpt>
      <trkpt lat="45.18599" lon="0.72434">
        <ele>107.7</ele>
        <time>2021-10-24T12:38:50Z</time>
      </trkpt>
      <trkpt lat="45.18599" lon="0.72434">
        <ele>107.8</ele>
        <time>2021-10-24T12:38:51Z</time>
      </trkpt>
      <trkpt lat="45.18598" lon="0.72434">
        <ele>107.8</ele>
        <time>2021-10-24T12:38:52Z</time>
      </trkpt>
      <trkpt lat="45.18598" lon="0.72434">
        <ele>107.8</ele>
        <time>2021-10-24T12:38:53Z</time>
      </trkpt>
      <trkpt lat="45.18598" lon="0.72433">
        <ele>107.8</ele>
        <time>2021-10-24T12:38:55Z</time>
      </trkpt>
      <trkpt lat="45.18597" lon="0.72433">
        <ele>107.9</ele>
        <time>2021-10-24T12:38:56Z</time>
      </trkpt>
      <trkpt lat="45.18595" lon="0.72431">
        <ele>108</ele>
        <time>2021-10-24T12:38:57Z</time>
      </trkpt>
      <trkpt lat="45.18594" lon="0.72431">
        <ele>108</ele>
        <time>2021-10-24T12:38:59Z</time>
      </trkpt>
      <trkpt lat="45.18593" lon="0.72431">
        <ele>108.1</ele>
        <time>2021-10-24T12:39:00Z</time>
      </trkpt>
      <trkpt lat="45.18591" lon="0.7243">
        <ele>108.1</ele>
        <time>2021-10-24T12:39:01Z</time>
      </trkpt>
      <trkpt lat="45.1859" lon="0.7243">
        <ele>108.2</ele>
        <time>2021-10-24T12:39:02Z</time>
      </trkpt>
      <trkpt lat="45.18587" lon="0.72429">
        <ele>108.3</ele>
        <time>2021-10-24T12:39:04Z</time>
      </trkpt>
      <trkpt lat="45.18586" lon="0.72429">
        <ele>108.4</ele>
        <time>2021-10-24T12:39:05Z</time>
      </trkpt>
      <trkpt lat="45.18584" lon="0.72428">
        <ele>108.4</ele>
        <time>2021-10-24T12:39:06Z</time>
      </trkpt>
      <trkpt lat="45.18583" lon="0.72428">
        <ele>108.5</ele>
        <time>2021-10-24T12:39:08Z</time>
      </trkpt>
      <trkpt lat="45.1858" lon="0.72428">
        <ele>108.6</ele>
        <time>2021-10-24T12:39:09Z</time>
      </trkpt>
      <trkpt lat="45.18579" lon="0.72427">
        <ele>108.6</ele>
        <time>2021-10-24T12:39:10Z</time>
      </trkpt>
      <trkpt lat="45.18578" lon="0.72427">
        <ele>108.7</ele>
        <time>2021-10-24T12:39:11Z</time>
      </trkpt>
      <trkpt lat="45.18577" lon="0.72427">
        <ele>108.7</ele>
        <time>2021-10-24T12:39:13Z</time>
      </trkpt>
      <trkpt lat="45.18575" lon="0.72427">
        <ele>108.8</ele>
        <time>2021-10-24T12:39:14Z</time>
      </trkpt>
      <trkpt lat="45.18574" lon="0.72427">
        <ele>108.8</ele>
        <time>2021-10-24T12:39:15Z</time>
      </trkpt>
      <trkpt lat="45.18573" lon="0.72427">
        <ele>108.8</ele>
        <time>2021-10-24T12:39:16Z</time>
      </trkpt>
      <trkpt lat="45.18572" lon="0.72427">
        <ele>108.8</ele>
        <time>2021-10-24T12:39:17Z</time>
      </trkpt>
      <trkpt lat="45.1857" lon="0.72427">
        <ele>108.8</ele>
        <time>2021-10-24T12:39:18Z</time>
      </trkpt>
      <trkpt lat="45.18569" lon="0.72426">
        <ele>108.8</ele>
        <time>2021-10-24T12:39:19Z</time>
      </trkpt>
      <trkpt lat="45.18567" lon="0.72426">
        <ele>108.8</ele>
        <time>2021-10-24T12:39:20Z</time>
      </trkpt>
      <trkpt lat="45.18566" lon="0.72425">
        <ele>108.8</ele>
        <time>2021-10-24T12:39:21Z</time>
      </trkpt>
      <trkpt lat="45.18564" lon="0.72424">
        <ele>108.8</ele>
        <time>2021-10-24T12:39:22Z</time>
      </trkpt>
      <trkpt lat="45.18563" lon="0.72423">
        <ele>108.8</ele>
        <time>2021-10-24T12:39:24Z</time>
      </trkpt>
      <trkpt lat="45.18563" lon="0.72422">
        <ele>108.8</ele>
        <time>2021-10-24T12:39:25Z</time>
      </trkpt>
      <trkpt lat="45.18562" lon="0.72421">
        <ele>108.8</ele>
        <time>2021-10-24T12:39:26Z</time>
      </trkpt>
      <trkpt lat="45.18561" lon="0.72419">
        <ele>108.8</ele>
        <time>2021-10-24T12:39:27Z</time>
      </trkpt>
      <trkpt lat="45.1856" lon="0.72418">
        <ele>108.8</ele>
        <time>2021-10-24T12:39:28Z</time>
      </trkpt>
      <trkpt lat="45.18559" lon="0.72417">
        <ele>108.8</ele>
        <time>2021-10-24T12:39:29Z</time>
      </trkpt>
      <trkpt lat="45.18558" lon="0.72415">
        <ele>108.8</ele>
        <time>2021-10-24T12:39:31Z</time>
      </trkpt>
      <trkpt lat="45.18557" lon="0.72414">
        <ele>108.8</ele>
        <time>2021-10-24T12:39:32Z</time>
      </trkpt>
      <trkpt lat="45.18556" lon="0.72413">
        <ele>108.8</ele>
        <time>2021-10-24T12:39:33Z</time>
      </trkpt>
      <trkpt lat="45.18555" lon="0.7241">
        <ele>108.8</ele>
        <time>2021-10-24T12:39:35Z</time>
      </trkpt>
      <trkpt lat="45.18554" lon="0.72409">
        <ele>108.8</ele>
        <time>2021-10-24T12:39:36Z</time>
      </trkpt>
      <trkpt lat="45.18553" lon="0.72408">
        <ele>108.8</ele>
        <time>2021-10-24T12:39:37Z</time>
      </trkpt>
      <trkpt lat="45.18552" lon="0.72407">
        <ele>108.8</ele>
        <time>2021-10-24T12:39:38Z</time>
      </trkpt>
      <trkpt lat="45.18551" lon="0.72407">
        <ele>108.7</ele>
        <time>2021-10-24T12:39:39Z</time>
      </trkpt>
      <trkpt lat="45.1855" lon="0.72407">
        <ele>108.7</ele>
        <time>2021-10-24T12:39:40Z</time>
      </trkpt>
      <trkpt lat="45.18548" lon="0.72406">
        <ele>108.7</ele>
        <time>2021-10-24T12:39:42Z</time>
      </trkpt>
      <trkpt lat="45.18545" lon="0.72407">
        <ele>108.7</ele>
        <time>2021-10-24T12:39:43Z</time>
      </trkpt>
      <trkpt lat="45.18544" lon="0.72407">
        <ele>108.7</ele>
        <time>2021-10-24T12:39:45Z</time>
      </trkpt>
      <trkpt lat="45.18543" lon="0.72407">
        <ele>108.6</ele>
        <time>2021-10-24T12:39:46Z</time>
      </trkpt>
      <trkpt lat="45.18542" lon="0.72407">
        <ele>108.6</ele>
        <time>2021-10-24T12:39:47Z</time>
      </trkpt>
      <trkpt lat="45.18541" lon="0.72407">
        <ele>108.6</ele>
        <time>2021-10-24T12:39:48Z</time>
      </trkpt>
      <trkpt lat="45.1854" lon="0.72406">
        <ele>108.6</ele>
        <time>2021-10-24T12:39:49Z</time>
      </trkpt>
      <trkpt lat="45.18539" lon="0.72406">
        <ele>108.6</ele>
        <time>2021-10-24T12:39:50Z</time>
      </trkpt>
      <trkpt lat="45.18538" lon="0.72406">
        <ele>108.6</ele>
        <time>2021-10-24T12:39:52Z</time>
      </trkpt>
      <trkpt lat="45.18538" lon="0.72405">
        <ele>108.6</ele>
        <time>2021-10-24T12:39:53Z</time>
      </trkpt>
      <trkpt lat="45.18537" lon="0.72405">
        <ele>108.5</ele>
        <time>2021-10-24T12:39:54Z</time>
      </trkpt>
      <trkpt lat="45.18536" lon="0.72405">
        <ele>108.5</ele>
        <time>2021-10-24T12:39:55Z</time>
      </trkpt>
      <trkpt lat="45.18535" lon="0.72405">
        <ele>108.5</ele>
        <time>2021-10-24T12:39:56Z</time>
      </trkpt>
      <trkpt lat="45.18534" lon="0.72405">
        <ele>108.5</ele>
        <time>2021-10-24T12:39:58Z</time>
      </trkpt>
      <trkpt lat="45.18533" lon="0.72405">
        <ele>108.5</ele>
        <time>2021-10-24T12:39:59Z</time>
      </trkpt>
      <trkpt lat="45.18532" lon="0.72405">
        <ele>108.5</ele>
        <time>2021-10-24T12:40:00Z</time>
      </trkpt>
      <trkpt lat="45.18531" lon="0.72405">
        <ele>108.4</ele>
        <time>2021-10-24T12:40:01Z</time>
      </trkpt>
      <trkpt lat="45.1853" lon="0.72405">
        <ele>108.4</ele>
        <time>2021-10-24T12:40:02Z</time>
      </trkpt>
      <trkpt lat="45.18528" lon="0.72404">
        <ele>108.4</ele>
        <time>2021-10-24T12:40:03Z</time>
      </trkpt>
      <trkpt lat="45.18526" lon="0.72404">
        <ele>108.3</ele>
        <time>2021-10-24T12:40:05Z</time>
      </trkpt>
      <trkpt lat="45.18525" lon="0.72404">
        <ele>108.3</ele>
        <time>2021-10-24T12:40:06Z</time>
      </trkpt>
      <trkpt lat="45.18524" lon="0.72404">
        <ele>108.3</ele>
        <time>2021-10-24T12:40:08Z</time>
      </trkpt>
      <trkpt lat="45.18523" lon="0.72404">
        <ele>108.3</ele>
        <time>2021-10-24T12:40:09Z</time>
      </trkpt>
      <trkpt lat="45.18522" lon="0.72404">
        <ele>108.3</ele>
        <time>2021-10-24T12:40:10Z</time>
      </trkpt>
      <trkpt lat="45.18521" lon="0.72403">
        <ele>108.2</ele>
        <time>2021-10-24T12:40:11Z</time>
      </trkpt>
      <trkpt lat="45.18521" lon="0.72403">
        <ele>108.2</ele>
        <time>2021-10-24T12:40:12Z</time>
      </trkpt>
      <trkpt lat="45.1852" lon="0.72402">
        <ele>108.2</ele>
        <time>2021-10-24T12:40:13Z</time>
      </trkpt>
      <trkpt lat="45.18519" lon="0.72402">
        <ele>108.2</ele>
        <time>2021-10-24T12:40:14Z</time>
      </trkpt>
      <trkpt lat="45.18518" lon="0.72401">
        <ele>108.2</ele>
        <time>2021-10-24T12:40:15Z</time>
      </trkpt>
      <trkpt lat="45.18518" lon="0.72401">
        <ele>108.1</ele>
        <time>2021-10-24T12:40:16Z</time>
      </trkpt>
      <trkpt lat="45.18517" lon="0.72401">
        <ele>108.1</ele>
        <time>2021-10-24T12:40:17Z</time>
      </trkpt>
      <trkpt lat="45.18516" lon="0.724">
        <ele>108.1</ele>
        <time>2021-10-24T12:40:19Z</time>
      </trkpt>
      <trkpt lat="45.18515" lon="0.724">
        <ele>108.1</ele>
        <time>2021-10-24T12:40:20Z</time>
      </trkpt>
      <trkpt lat="45.18515" lon="0.724">
        <ele>108.1</ele>
        <time>2021-10-24T12:40:21Z</time>
      </trkpt>
      <trkpt lat="45.18515" lon="0.724">
        <ele>108.1</ele>
        <time>2021-10-24T12:40:22Z</time>
      </trkpt>
      <trkpt lat="45.18515" lon="0.724">
        <ele>108.1</ele>
        <time>2021-10-24T12:40:24Z</time>
      </trkpt>
      <trkpt lat="45.18516" lon="0.724">
        <ele>108.1</ele>
        <time>2021-10-24T12:40:25Z</time>
      </trkpt>
      <trkpt lat="45.18516" lon="0.724">
        <ele>108.1</ele>
        <time>2021-10-24T12:40:27Z</time>
      </trkpt>
      <trkpt lat="45.18516" lon="0.724">
        <ele>108.1</ele>
        <time>2021-10-24T12:40:29Z</time>
      </trkpt>
      <trkpt lat="45.18516" lon="0.724">
        <ele>108.1</ele>
        <time>2021-10-24T12:40:30Z</time>
      </trkpt>
      <trkpt lat="45.18515" lon="0.724">
        <ele>108</ele>
        <time>2021-10-24T12:40:32Z</time>
      </trkpt>
      <trkpt lat="45.18515" lon="0.724">
        <ele>108</ele>
        <time>2021-10-24T12:40:33Z</time>
      </trkpt>
      <trkpt lat="45.18515" lon="0.724">
        <ele>108</ele>
        <time>2021-10-24T12:40:35Z</time>
      </trkpt>
      <trkpt lat="45.18515" lon="0.72399">
        <ele>108</ele>
        <time>2021-10-24T12:40:36Z</time>
      </trkpt>
      <trkpt lat="45.18515" lon="0.72399">
        <ele>108</ele>
        <time>2021-10-24T12:40:38Z</time>
      </trkpt>
      <trkpt lat="45.18514" lon="0.72399">
        <ele>108</ele>
        <time>2021-10-24T12:40:39Z</time>
      </trkpt>
      <trkpt lat="45.18513" lon="0.72399">
        <ele>108</ele>
        <time>2021-10-24T12:40:40Z</time>
      </trkpt>
      <trkpt lat="45.18512" lon="0.72398">
        <ele>108</ele>
        <time>2021-10-24T12:40:41Z</time>
      </trkpt>
      <trkpt lat="45.1851" lon="0.72398">
        <ele>107.9</ele>
        <time>2021-10-24T12:40:43Z</time>
      </trkpt>
      <trkpt lat="45.18509" lon="0.72397">
        <ele>107.9</ele>
        <time>2021-10-24T12:40:44Z</time>
      </trkpt>
      <trkpt lat="45.18508" lon="0.72397">
        <ele>107.9</ele>
        <time>2021-10-24T12:40:45Z</time>
      </trkpt>
      <trkpt lat="45.18508" lon="0.72396">
        <ele>107.8</ele>
        <time>2021-10-24T12:40:46Z</time>
      </trkpt>
      <trkpt lat="45.18508" lon="0.72396">
        <ele>107.8</ele>
        <time>2021-10-24T12:40:48Z</time>
      </trkpt>
      <trkpt lat="45.18508" lon="0.72396">
        <ele>107.8</ele>
        <time>2021-10-24T12:40:50Z</time>
      </trkpt>
      <trkpt lat="45.18508" lon="0.72396">
        <ele>107.8</ele>
        <time>2021-10-24T12:40:51Z</time>
      </trkpt>
      <trkpt lat="45.18508" lon="0.72396">
        <ele>107.8</ele>
        <time>2021-10-24T12:40:52Z</time>
      </trkpt>
      <trkpt lat="45.18508" lon="0.72396">
        <ele>107.8</ele>
        <time>2021-10-24T12:40:53Z</time>
      </trkpt>
      <trkpt lat="45.18508" lon="0.72397">
        <ele>107.8</ele>
        <time>2021-10-24T12:40:55Z</time>
      </trkpt>
      <trkpt lat="45.18508" lon="0.72397">
        <ele>107.8</ele>
        <time>2021-10-24T12:40:57Z</time>
      </trkpt>
      <trkpt lat="45.18508" lon="0.72397">
        <ele>107.8</ele>
        <time>2021-10-24T12:40:58Z</time>
      </trkpt>
      <trkpt lat="45.18508" lon="0.72397">
        <ele>107.8</ele>
        <time>2021-10-24T12:40:59Z</time>
      </trkpt>
      <trkpt lat="45.18509" lon="0.72397">
        <ele>107.8</ele>
        <time>2021-10-24T12:41:01Z</time>
      </trkpt>
      <trkpt lat="45.18509" lon="0.72397">
        <ele>107.8</ele>
        <time>2021-10-24T12:41:03Z</time>
      </trkpt>
      <trkpt lat="45.18509" lon="0.72397">
        <ele>107.8</ele>
        <time>2021-10-24T12:41:05Z</time>
      </trkpt>
      <trkpt lat="45.18509" lon="0.72397">
        <ele>107.7</ele>
        <time>2021-10-24T12:41:06Z</time>
      </trkpt>
      <trkpt lat="45.18509" lon="0.72398">
        <ele>107.7</ele>
        <time>2021-10-24T12:41:07Z</time>
      </trkpt>
      <trkpt lat="45.18509" lon="0.72398">
        <ele>107.7</ele>
        <time>2021-10-24T12:41:09Z</time>
      </trkpt>
      <trkpt lat="45.18509" lon="0.72398">
        <ele>107.7</ele>
        <time>2021-10-24T12:41:10Z</time>
      </trkpt>
      <trkpt lat="45.18511" lon="0.72398">
        <ele>107.7</ele>
        <time>2021-10-24T12:41:11Z</time>
      </trkpt>
      <trkpt lat="45.18511" lon="0.72398">
        <ele>107.6</ele>
        <time>2021-10-24T12:41:13Z</time>
      </trkpt>
      <trkpt lat="45.18511" lon="0.72397">
        <ele>107.6</ele>
        <time>2021-10-24T12:41:14Z</time>
      </trkpt>
      <trkpt lat="45.18511" lon="0.72397">
        <ele>107.6</ele>
        <time>2021-10-24T12:41:16Z</time>
      </trkpt>
      <trkpt lat="45.18511" lon="0.72397">
        <ele>107.6</ele>
        <time>2021-10-24T12:41:18Z</time>
      </trkpt>
      <trkpt lat="45.18511" lon="0.72397">
        <ele>107.6</ele>
        <time>2021-10-24T12:41:20Z</time>
      </trkpt>
      <trkpt lat="45.18511" lon="0.72396">
        <ele>107.6</ele>
        <time>2021-10-24T12:41:21Z</time>
      </trkpt>
      <trkpt lat="45.18511" lon="0.72396">
        <ele>107.6</ele>
        <time>2021-10-24T12:41:23Z</time>
      </trkpt>
      <trkpt lat="45.18511" lon="0.72394">
        <ele>107.5</ele>
        <time>2021-10-24T12:41:24Z</time>
      </trkpt>
      <trkpt lat="45.1851" lon="0.72392">
        <ele>107.5</ele>
        <time>2021-10-24T12:41:25Z</time>
      </trkpt>
      <trkpt lat="45.1851" lon="0.7239">
        <ele>107.4</ele>
        <time>2021-10-24T12:41:26Z</time>
      </trkpt>
      <trkpt lat="45.1851" lon="0.72389">
        <ele>107.4</ele>
        <time>2021-10-24T12:41:28Z</time>
      </trkpt>
      <trkpt lat="45.1851" lon="0.72388">
        <ele>107.4</ele>
        <time>2021-10-24T12:41:29Z</time>
      </trkpt>
      <trkpt lat="45.18509" lon="0.72386">
        <ele>107.3</ele>
        <time>2021-10-24T12:41:31Z</time>
      </trkpt>
      <trkpt lat="45.18509" lon="0.72385">
        <ele>107.3</ele>
        <time>2021-10-24T12:41:32Z</time>
      </trkpt>
      <trkpt lat="45.18508" lon="0.72382">
        <ele>107.2</ele>
        <time>2021-10-24T12:41:33Z</time>
      </trkpt>
      <trkpt lat="45.18508" lon="0.7238">
        <ele>107.1</ele>
        <time>2021-10-24T12:41:34Z</time>
      </trkpt>
      <trkpt lat="45.18508" lon="0.72379">
        <ele>107.1</ele>
        <time>2021-10-24T12:41:36Z</time>
      </trkpt>
      <trkpt lat="45.18508" lon="0.72378">
        <ele>107.1</ele>
        <time>2021-10-24T12:41:37Z</time>
      </trkpt>
      <trkpt lat="45.18508" lon="0.72376">
        <ele>107.2</ele>
        <time>2021-10-24T12:41:38Z</time>
      </trkpt>
      <trkpt lat="45.18508" lon="0.72375">
        <ele>107.3</ele>
        <time>2021-10-24T12:41:39Z</time>
      </trkpt>
      <trkpt lat="45.18509" lon="0.72372">
        <ele>107.6</ele>
        <time>2021-10-24T12:41:40Z</time>
      </trkpt>
      <trkpt lat="45.18509" lon="0.72371">
        <ele>107.7</ele>
        <time>2021-10-24T12:41:42Z</time>
      </trkpt>
      <trkpt lat="45.18509" lon="0.7237">
        <ele>107.9</ele>
        <time>2021-10-24T12:41:43Z</time>
      </trkpt>
      <trkpt lat="45.18509" lon="0.72368">
        <ele>108</ele>
        <time>2021-10-24T12:41:44Z</time>
      </trkpt>
      <trkpt lat="45.18508" lon="0.72367">
        <ele>108.1</ele>
        <time>2021-10-24T12:41:45Z</time>
      </trkpt>
      <trkpt lat="45.18508" lon="0.72365">
        <ele>108.3</ele>
        <time>2021-10-24T12:41:46Z</time>
      </trkpt>
      <trkpt lat="45.18508" lon="0.72363">
        <ele>108.5</ele>
        <time>2021-10-24T12:41:48Z</time>
      </trkpt>
      <trkpt lat="45.18508" lon="0.72362">
        <ele>108.6</ele>
        <time>2021-10-24T12:41:49Z</time>
      </trkpt>
      <trkpt lat="45.18508" lon="0.72361">
        <ele>108.7</ele>
        <time>2021-10-24T12:41:50Z</time>
      </trkpt>
      <trkpt lat="45.18508" lon="0.72359">
        <ele>108.8</ele>
        <time>2021-10-24T12:41:52Z</time>
      </trkpt>
      <trkpt lat="45.18508" lon="0.72358">
        <ele>108.9</ele>
        <time>2021-10-24T12:41:53Z</time>
      </trkpt>
      <trkpt lat="45.18508" lon="0.72356">
        <ele>109</ele>
        <time>2021-10-24T12:41:54Z</time>
      </trkpt>
      <trkpt lat="45.18508" lon="0.72354">
        <ele>109</ele>
        <time>2021-10-24T12:41:55Z</time>
      </trkpt>
      <trkpt lat="45.18508" lon="0.72353">
        <ele>109.1</ele>
        <time>2021-10-24T12:41:56Z</time>
      </trkpt>
      <trkpt lat="45.18508" lon="0.72352">
        <ele>109.1</ele>
        <time>2021-10-24T12:41:57Z</time>
      </trkpt>
      <trkpt lat="45.18508" lon="0.7235">
        <ele>109.2</ele>
        <time>2021-10-24T12:41:58Z</time>
      </trkpt>
      <trkpt lat="45.18508" lon="0.72348">
        <ele>109.3</ele>
        <time>2021-10-24T12:41:59Z</time>
      </trkpt>
      <trkpt lat="45.18507" lon="0.72347">
        <ele>109.4</ele>
        <time>2021-10-24T12:42:00Z</time>
      </trkpt>
      <trkpt lat="45.18507" lon="0.72345">
        <ele>109.5</ele>
        <time>2021-10-24T12:42:01Z</time>
      </trkpt>
      <trkpt lat="45.18506" lon="0.72343">
        <ele>109.5</ele>
        <time>2021-10-24T12:42:02Z</time>
      </trkpt>
      <trkpt lat="45.18506" lon="0.72342">
        <ele>109.6</ele>
        <time>2021-10-24T12:42:03Z</time>
      </trkpt>
      <trkpt lat="45.18505" lon="0.7234">
        <ele>109.7</ele>
        <time>2021-10-24T12:42:05Z</time>
      </trkpt>
      <trkpt lat="45.18504" lon="0.72338">
        <ele>109.7</ele>
        <time>2021-10-24T12:42:06Z</time>
      </trkpt>
      <trkpt lat="45.18504" lon="0.72337">
        <ele>109.8</ele>
        <time>2021-10-24T12:42:07Z</time>
      </trkpt>
      <trkpt lat="45.18503" lon="0.72335">
        <ele>109.9</ele>
        <time>2021-10-24T12:42:08Z</time>
      </trkpt>
      <trkpt lat="45.18503" lon="0.72333">
        <ele>110.1</ele>
        <time>2021-10-24T12:42:09Z</time>
      </trkpt>
      <trkpt lat="45.18503" lon="0.72332">
        <ele>110.1</ele>
        <time>2021-10-24T12:42:10Z</time>
      </trkpt>
      <trkpt lat="45.18503" lon="0.7233">
        <ele>110.1</ele>
        <time>2021-10-24T12:42:11Z</time>
      </trkpt>
      <trkpt lat="45.18502" lon="0.72329">
        <ele>110.2</ele>
        <time>2021-10-24T12:42:12Z</time>
      </trkpt>
      <trkpt lat="45.18502" lon="0.72328">
        <ele>110.2</ele>
        <time>2021-10-24T12:42:13Z</time>
      </trkpt>
      <trkpt lat="45.18501" lon="0.72327">
        <ele>110.2</ele>
        <time>2021-10-24T12:42:15Z</time>
      </trkpt>
      <trkpt lat="45.18501" lon="0.72326">
        <ele>110.3</ele>
        <time>2021-10-24T12:42:16Z</time>
      </trkpt>
      <trkpt lat="45.18501" lon="0.72325">
        <ele>110.3</ele>
        <time>2021-10-24T12:42:17Z</time>
      </trkpt>
      <trkpt lat="45.18501" lon="0.72324">
        <ele>110.3</ele>
        <time>2021-10-24T12:42:18Z</time>
      </trkpt>
      <trkpt lat="45.18501" lon="0.72324">
        <ele>110.3</ele>
        <time>2021-10-24T12:42:19Z</time>
      </trkpt>
      <trkpt lat="45.18501" lon="0.72324">
        <ele>110.3</ele>
        <time>2021-10-24T12:42:21Z</time>
      </trkpt>
      <trkpt lat="45.18501" lon="0.72324">
        <ele>110.3</ele>
        <time>2021-10-24T12:42:23Z</time>
      </trkpt>
      <trkpt lat="45.18502" lon="0.72324">
        <ele>110.3</ele>
        <time>2021-10-24T12:42:25Z</time>
      </trkpt>
      <trkpt lat="45.18502" lon="0.72325">
        <ele>110.3</ele>
        <time>2021-10-24T12:42:26Z</time>
      </trkpt>
      <trkpt lat="45.18502" lon="0.72325">
        <ele>110.3</ele>
        <time>2021-10-24T12:42:27Z</time>
      </trkpt>
      <trkpt lat="45.18502" lon="0.72325">
        <ele>110.4</ele>
        <time>2021-10-24T12:42:29Z</time>
      </trkpt>
      <trkpt lat="45.18502" lon="0.72325">
        <ele>110.4</ele>
        <time>2021-10-24T12:42:30Z</time>
      </trkpt>
      <trkpt lat="45.18502" lon="0.72325">
        <ele>110.4</ele>
        <time>2021-10-24T12:42:31Z</time>
      </trkpt>
      <trkpt lat="45.18502" lon="0.72325">
        <ele>110.4</ele>
        <time>2021-10-24T12:42:33Z</time>
      </trkpt>
      <trkpt lat="45.18502" lon="0.72326">
        <ele>110.4</ele>
        <time>2021-10-24T12:42:34Z</time>
      </trkpt>
      <trkpt lat="45.18503" lon="0.72326">
        <ele>110.4</ele>
        <time>2021-10-24T12:42:35Z</time>
      </trkpt>
      <trkpt lat="45.18503" lon="0.72327">
        <ele>110.4</ele>
        <time>2021-10-24T12:42:36Z</time>
      </trkpt>
      <trkpt lat="45.18504" lon="0.72327">
        <ele>110.4</ele>
        <time>2021-10-24T12:42:37Z</time>
      </trkpt>
      <trkpt lat="45.18505" lon="0.72327">
        <ele>110.4</ele>
        <time>2021-10-24T12:42:38Z</time>
      </trkpt>
      <trkpt lat="45.18505" lon="0.72327">
        <ele>110.4</ele>
        <time>2021-10-24T12:42:39Z</time>
      </trkpt>
      <trkpt lat="45.18506" lon="0.72327">
        <ele>110.5</ele>
        <time>2021-10-24T12:42:41Z</time>
      </trkpt>
      <trkpt lat="45.18506" lon="0.72327">
        <ele>110.5</ele>
        <time>2021-10-24T12:42:42Z</time>
      </trkpt>
      <trkpt lat="45.18507" lon="0.72327">
        <ele>110.5</ele>
        <time>2021-10-24T12:42:43Z</time>
      </trkpt>
      <trkpt lat="45.18507" lon="0.72327">
        <ele>110.5</ele>
        <time>2021-10-24T12:42:44Z</time>
      </trkpt>
      <trkpt lat="45.18508" lon="0.72326">
        <ele>110.5</ele>
        <time>2021-10-24T12:42:45Z</time>
      </trkpt>
      <trkpt lat="45.18508" lon="0.72326">
        <ele>110.5</ele>
        <time>2021-10-24T12:42:46Z</time>
      </trkpt>
      <trkpt lat="45.18509" lon="0.72326">
        <ele>110.5</ele>
        <time>2021-10-24T12:42:48Z</time>
      </trkpt>
      <trkpt lat="45.18509" lon="0.72326">
        <ele>110.5</ele>
        <time>2021-10-24T12:42:49Z</time>
      </trkpt>
      <trkpt lat="45.1851" lon="0.72326">
        <ele>110.5</ele>
        <time>2021-10-24T12:42:50Z</time>
      </trkpt>
      <trkpt lat="45.18511" lon="0.72326">
        <ele>110.5</ele>
        <time>2021-10-24T12:42:51Z</time>
      </trkpt>
      <trkpt lat="45.18512" lon="0.72325">
        <ele>110.5</ele>
        <time>2021-10-24T12:42:52Z</time>
      </trkpt>
      <trkpt lat="45.18513" lon="0.72325">
        <ele>110.6</ele>
        <time>2021-10-24T12:42:53Z</time>
      </trkpt>
      <trkpt lat="45.18515" lon="0.72325">
        <ele>110.6</ele>
        <time>2021-10-24T12:42:54Z</time>
      </trkpt>
      <trkpt lat="45.18516" lon="0.72326">
        <ele>110.6</ele>
        <time>2021-10-24T12:42:55Z</time>
      </trkpt>
      <trkpt lat="45.18518" lon="0.72327">
        <ele>110.6</ele>
        <time>2021-10-24T12:42:57Z</time>
      </trkpt>
      <trkpt lat="45.1852" lon="0.72327">
        <ele>110.7</ele>
        <time>2021-10-24T12:42:58Z</time>
      </trkpt>
      <trkpt lat="45.18521" lon="0.72328">
        <ele>110.7</ele>
        <time>2021-10-24T12:42:59Z</time>
      </trkpt>
      <trkpt lat="45.18523" lon="0.72329">
        <ele>110.7</ele>
        <time>2021-10-24T12:43:00Z</time>
      </trkpt>
      <trkpt lat="45.18524" lon="0.7233">
        <ele>110.8</ele>
        <time>2021-10-24T12:43:01Z</time>
      </trkpt>
      <trkpt lat="45.18525" lon="0.72331">
        <ele>110.8</ele>
        <time>2021-10-24T12:43:02Z</time>
      </trkpt>
      <trkpt lat="45.18527" lon="0.72331">
        <ele>110.8</ele>
        <time>2021-10-24T12:43:03Z</time>
      </trkpt>
      <trkpt lat="45.18528" lon="0.72331">
        <ele>110.9</ele>
        <time>2021-10-24T12:43:05Z</time>
      </trkpt>
      <trkpt lat="45.18529" lon="0.72332">
        <ele>110.9</ele>
        <time>2021-10-24T12:43:06Z</time>
      </trkpt>
      <trkpt lat="45.1853" lon="0.72332">
        <ele>110.9</ele>
        <time>2021-10-24T12:43:07Z</time>
      </trkpt>
      <trkpt lat="45.18531" lon="0.72333">
        <ele>111</ele>
        <time>2021-10-24T12:43:08Z</time>
      </trkpt>
      <trkpt lat="45.18532" lon="0.72333">
        <ele>111</ele>
        <time>2021-10-24T12:43:09Z</time>
      </trkpt>
      <trkpt lat="45.18533" lon="0.72333">
        <ele>111</ele>
        <time>2021-10-24T12:43:10Z</time>
      </trkpt>
      <trkpt lat="45.18534" lon="0.72333">
        <ele>111</ele>
        <time>2021-10-24T12:43:11Z</time>
      </trkpt>
      <trkpt lat="45.18535" lon="0.72334">
        <ele>111.1</ele>
        <time>2021-10-24T12:43:13Z</time>
      </trkpt>
      <trkpt lat="45.18536" lon="0.72334">
        <ele>111.1</ele>
        <time>2021-10-24T12:43:14Z</time>
      </trkpt>
      <trkpt lat="45.18536" lon="0.72333">
        <ele>111.1</ele>
        <time>2021-10-24T12:43:15Z</time>
      </trkpt>
      <trkpt lat="45.18537" lon="0.72333">
        <ele>111.2</ele>
        <time>2021-10-24T12:43:16Z</time>
      </trkpt>
      <trkpt lat="45.18538" lon="0.72333">
        <ele>111.2</ele>
        <time>2021-10-24T12:43:18Z</time>
      </trkpt>
      <trkpt lat="45.18538" lon="0.72334">
        <ele>111.2</ele>
        <time>2021-10-24T12:43:19Z</time>
      </trkpt>
      <trkpt lat="45.1854" lon="0.72334">
        <ele>111.3</ele>
        <time>2021-10-24T12:43:20Z</time>
      </trkpt>
      <trkpt lat="45.1854" lon="0.72335">
        <ele>111.3</ele>
        <time>2021-10-24T12:43:21Z</time>
      </trkpt>
      <trkpt lat="45.18541" lon="0.72335">
        <ele>111.4</ele>
        <time>2021-10-24T12:43:22Z</time>
      </trkpt>
      <trkpt lat="45.18542" lon="0.72336">
        <ele>111.4</ele>
        <time>2021-10-24T12:43:24Z</time>
      </trkpt>
      <trkpt lat="45.18543" lon="0.72336">
        <ele>111.5</ele>
        <time>2021-10-24T12:43:25Z</time>
      </trkpt>
      <trkpt lat="45.18544" lon="0.72337">
        <ele>111.5</ele>
        <time>2021-10-24T12:43:26Z</time>
      </trkpt>
      <trkpt lat="45.18545" lon="0.72337">
        <ele>111.5</ele>
        <time>2021-10-24T12:43:27Z</time>
      </trkpt>
      <trkpt lat="45.18545" lon="0.72337">
        <ele>111.5</ele>
        <time>2021-10-24T12:43:29Z</time>
      </trkpt>
      <trkpt lat="45.18545" lon="0.72337">
        <ele>111.5</ele>
        <time>2021-10-24T12:43:30Z</time>
      </trkpt>
      <trkpt lat="45.18545" lon="0.72337">
        <ele>111.6</ele>
        <time>2021-10-24T12:43:31Z</time>
      </trkpt>
      <trkpt lat="45.18546" lon="0.72338">
        <ele>111.6</ele>
        <time>2021-10-24T12:43:32Z</time>
      </trkpt>
      <trkpt lat="45.18547" lon="0.72339">
        <ele>111.6</ele>
        <time>2021-10-24T12:43:34Z</time>
      </trkpt>
      <trkpt lat="45.18548" lon="0.7234">
        <ele>111.7</ele>
        <time>2021-10-24T12:43:35Z</time>
      </trkpt>
      <trkpt lat="45.18549" lon="0.72341">
        <ele>111.7</ele>
        <time>2021-10-24T12:43:36Z</time>
      </trkpt>
      <trkpt lat="45.1855" lon="0.72341">
        <ele>111.8</ele>
        <time>2021-10-24T12:43:37Z</time>
      </trkpt>
      <trkpt lat="45.18551" lon="0.72342">
        <ele>111.9</ele>
        <time>2021-10-24T12:43:38Z</time>
      </trkpt>
      <trkpt lat="45.18552" lon="0.72343">
        <ele>111.9</ele>
        <time>2021-10-24T12:43:40Z</time>
      </trkpt>
      <trkpt lat="45.18553" lon="0.72343">
        <ele>112</ele>
        <time>2021-10-24T12:43:41Z</time>
      </trkpt>
      <trkpt lat="45.18554" lon="0.72343">
        <ele>112</ele>
        <time>2021-10-24T12:43:42Z</time>
      </trkpt>
      <trkpt lat="45.18555" lon="0.72343">
        <ele>112</ele>
        <time>2021-10-24T12:43:43Z</time>
      </trkpt>
      <trkpt lat="45.18555" lon="0.72343">
        <ele>112.2</ele>
        <time>2021-10-24T12:43:45Z</time>
      </trkpt>
      <trkpt lat="45.18556" lon="0.72342">
        <ele>112.2</ele>
        <time>2021-10-24T12:43:47Z</time>
      </trkpt>
      <trkpt lat="45.18556" lon="0.72342">
        <ele>112.2</ele>
        <time>2021-10-24T12:43:49Z</time>
      </trkpt>
      <trkpt lat="45.18556" lon="0.72342">
        <ele>112.2</ele>
        <time>2021-10-24T12:43:50Z</time>
      </trkpt>
      <trkpt lat="45.18556" lon="0.72342">
        <ele>112.2</ele>
        <time>2021-10-24T12:43:52Z</time>
      </trkpt>
      <trkpt lat="45.18557" lon="0.72342">
        <ele>112.2</ele>
        <time>2021-10-24T12:43:54Z</time>
      </trkpt>
      <trkpt lat="45.18557" lon="0.72342">
        <ele>112.2</ele>
        <time>2021-10-24T12:43:55Z</time>
      </trkpt>
      <trkpt lat="45.18557" lon="0.72342">
        <ele>112.2</ele>
        <time>2021-10-24T12:43:56Z</time>
      </trkpt>
      <trkpt lat="45.18557" lon="0.72341">
        <ele>112.2</ele>
        <time>2021-10-24T12:43:57Z</time>
      </trkpt>
      <trkpt lat="45.18557" lon="0.72341">
        <ele>112.2</ele>
        <time>2021-10-24T12:43:59Z</time>
      </trkpt>
      <trkpt lat="45.18557" lon="0.7234">
        <ele>112.2</ele>
        <time>2021-10-24T12:44:00Z</time>
      </trkpt>
      <trkpt lat="45.18557" lon="0.7234">
        <ele>112.2</ele>
        <time>2021-10-24T12:44:02Z</time>
      </trkpt>
      <trkpt lat="45.18557" lon="0.7234">
        <ele>112.2</ele>
        <time>2021-10-24T12:44:03Z</time>
      </trkpt>
      <trkpt lat="45.18557" lon="0.72339">
        <ele>112.2</ele>
        <time>2021-10-24T12:44:04Z</time>
      </trkpt>
      <trkpt lat="45.18557" lon="0.72339">
        <ele>112.2</ele>
        <time>2021-10-24T12:44:06Z</time>
      </trkpt>
      <trkpt lat="45.18557" lon="0.72339">
        <ele>112.2</ele>
        <time>2021-10-24T12:44:07Z</time>
      </trkpt>
      <trkpt lat="45.18558" lon="0.72338">
        <ele>112.2</ele>
        <time>2021-10-24T12:44:08Z</time>
      </trkpt>
      <trkpt lat="45.18558" lon="0.72338">
        <ele>112.2</ele>
        <time>2021-10-24T12:44:10Z</time>
      </trkpt>
      <trkpt lat="45.18558" lon="0.72339">
        <ele>112.3</ele>
        <time>2021-10-24T12:44:12Z</time>
      </trkpt>
      <trkpt lat="45.18558" lon="0.72339">
        <ele>112.3</ele>
        <time>2021-10-24T12:44:13Z</time>
      </trkpt>
      <trkpt lat="45.18558" lon="0.72339">
        <ele>112.3</ele>
        <time>2021-10-24T12:44:15Z</time>
      </trkpt>
      <trkpt lat="45.18559" lon="0.72339">
        <ele>112.3</ele>
        <time>2021-10-24T12:44:16Z</time>
      </trkpt>
      <trkpt lat="45.18559" lon="0.72339">
        <ele>112.3</ele>
        <time>2021-10-24T12:44:17Z</time>
      </trkpt>
      <trkpt lat="45.18559" lon="0.72339">
        <ele>112.3</ele>
        <time>2021-10-24T12:44:18Z</time>
      </trkpt>
      <trkpt lat="45.18559" lon="0.72339">
        <ele>112.3</ele>
        <time>2021-10-24T12:44:20Z</time>
      </trkpt>
      <trkpt lat="45.18559" lon="0.72339">
        <ele>112.3</ele>
        <time>2021-10-24T12:44:21Z</time>
      </trkpt>
      <trkpt lat="45.1856" lon="0.72339">
        <ele>112.3</ele>
        <time>2021-10-24T12:44:23Z</time>
      </trkpt>
      <trkpt lat="45.1856" lon="0.72339">
        <ele>112.3</ele>
        <time>2021-10-24T12:44:24Z</time>
      </trkpt>
      <trkpt lat="45.18559" lon="0.72338">
        <ele>112.3</ele>
        <time>2021-10-24T12:44:25Z</time>
      </trkpt>
      <trkpt lat="45.18559" lon="0.72337">
        <ele>112.3</ele>
        <time>2021-10-24T12:44:26Z</time>
      </trkpt>
      <trkpt lat="45.18559" lon="0.72335">
        <ele>112.3</ele>
        <time>2021-10-24T12:44:28Z</time>
      </trkpt>
      <trkpt lat="45.18558" lon="0.72333">
        <ele>112.3</ele>
        <time>2021-10-24T12:44:29Z</time>
      </trkpt>
      <trkpt lat="45.18557" lon="0.72332">
        <ele>112.3</ele>
        <time>2021-10-24T12:44:30Z</time>
      </trkpt>
      <trkpt lat="45.18558" lon="0.7233">
        <ele>112.4</ele>
        <time>2021-10-24T12:44:31Z</time>
      </trkpt>
      <trkpt lat="45.18558" lon="0.72329">
        <ele>112.4</ele>
        <time>2021-10-24T12:44:32Z</time>
      </trkpt>
      <trkpt lat="45.18558" lon="0.72329">
        <ele>112.4</ele>
        <time>2021-10-24T12:44:33Z</time>
      </trkpt>
      <trkpt lat="45.18558" lon="0.72328">
        <ele>112.4</ele>
        <time>2021-10-24T12:44:34Z</time>
      </trkpt>
      <trkpt lat="45.18559" lon="0.72327">
        <ele>112.4</ele>
        <time>2021-10-24T12:44:35Z</time>
      </trkpt>
      <trkpt lat="45.1856" lon="0.72323">
        <ele>112.4</ele>
        <time>2021-10-24T12:44:37Z</time>
      </trkpt>
      <trkpt lat="45.18561" lon="0.72321">
        <ele>112.4</ele>
        <time>2021-10-24T12:44:38Z</time>
      </trkpt>
      <trkpt lat="45.18562" lon="0.72318">
        <ele>112.4</ele>
        <time>2021-10-24T12:44:39Z</time>
      </trkpt>
      <trkpt lat="45.18562" lon="0.72317">
        <ele>112.3</ele>
        <time>2021-10-24T12:44:40Z</time>
      </trkpt>
      <trkpt lat="45.18562" lon="0.72315">
        <ele>112.1</ele>
        <time>2021-10-24T12:44:41Z</time>
      </trkpt>
      <trkpt lat="45.18563" lon="0.72313">
        <ele>111.9</ele>
        <time>2021-10-24T12:44:42Z</time>
      </trkpt>
      <trkpt lat="45.18563" lon="0.72311">
        <ele>111.7</ele>
        <time>2021-10-24T12:44:43Z</time>
      </trkpt>
      <trkpt lat="45.18563" lon="0.72308">
        <ele>111.5</ele>
        <time>2021-10-24T12:44:44Z</time>
      </trkpt>
      <trkpt lat="45.18563" lon="0.72306">
        <ele>111.3</ele>
        <time>2021-10-24T12:44:45Z</time>
      </trkpt>
      <trkpt lat="45.18563" lon="0.72305">
        <ele>111.1</ele>
        <time>2021-10-24T12:44:47Z</time>
      </trkpt>
      <trkpt lat="45.18563" lon="0.72302">
        <ele>110.9</ele>
        <time>2021-10-24T12:44:48Z</time>
      </trkpt>
      <trkpt lat="45.18562" lon="0.723">
        <ele>110.6</ele>
        <time>2021-10-24T12:44:49Z</time>
      </trkpt>
      <trkpt lat="45.18561" lon="0.72298">
        <ele>110.4</ele>
        <time>2021-10-24T12:44:50Z</time>
      </trkpt>
      <trkpt lat="45.18561" lon="0.72298">
        <ele>110.3</ele>
        <time>2021-10-24T12:44:51Z</time>
      </trkpt>
      <trkpt lat="45.1856" lon="0.72297">
        <ele>110.1</ele>
        <time>2021-10-24T12:44:53Z</time>
      </trkpt>
      <trkpt lat="45.18559" lon="0.72296">
        <ele>110</ele>
        <time>2021-10-24T12:44:55Z</time>
      </trkpt>
      <trkpt lat="45.18559" lon="0.72296">
        <ele>110</ele>
        <time>2021-10-24T12:44:56Z</time>
      </trkpt>
      <trkpt lat="45.18558" lon="0.72296">
        <ele>109.9</ele>
        <time>2021-10-24T12:44:58Z</time>
      </trkpt>
      <trkpt lat="45.18558" lon="0.72296">
        <ele>109.9</ele>
        <time>2021-10-24T12:44:59Z</time>
      </trkpt>
      <trkpt lat="45.18558" lon="0.72295">
        <ele>109.8</ele>
        <time>2021-10-24T12:45:00Z</time>
      </trkpt>
      <trkpt lat="45.18558" lon="0.72295">
        <ele>109.8</ele>
        <time>2021-10-24T12:45:02Z</time>
      </trkpt>
      <trkpt lat="45.18558" lon="0.72295">
        <ele>109.7</ele>
        <time>2021-10-24T12:45:04Z</time>
      </trkpt>
      <trkpt lat="45.18558" lon="0.72295">
        <ele>109.7</ele>
        <time>2021-10-24T12:45:05Z</time>
      </trkpt>
      <trkpt lat="45.18559" lon="0.72295">
        <ele>109.7</ele>
        <time>2021-10-24T12:45:06Z</time>
      </trkpt>
      <trkpt lat="45.18559" lon="0.72295">
        <ele>109.7</ele>
        <time>2021-10-24T12:45:07Z</time>
      </trkpt>
      <trkpt lat="45.18559" lon="0.72294">
        <ele>109.7</ele>
        <time>2021-10-24T12:45:09Z</time>
      </trkpt>
      <trkpt lat="45.18559" lon="0.72294">
        <ele>109.7</ele>
        <time>2021-10-24T12:45:10Z</time>
      </trkpt>
      <trkpt lat="45.18559" lon="0.72294">
        <ele>109.6</ele>
        <time>2021-10-24T12:45:12Z</time>
      </trkpt>
      <trkpt lat="45.18559" lon="0.72293">
        <ele>109.6</ele>
        <time>2021-10-24T12:45:13Z</time>
      </trkpt>
      <trkpt lat="45.18558" lon="0.72293">
        <ele>109.5</ele>
        <time>2021-10-24T12:45:15Z</time>
      </trkpt>
      <trkpt lat="45.18558" lon="0.72293">
        <ele>109.5</ele>
        <time>2021-10-24T12:45:17Z</time>
      </trkpt>
      <trkpt lat="45.18558" lon="0.72292">
        <ele>109.4</ele>
        <time>2021-10-24T12:45:18Z</time>
      </trkpt>
      <trkpt lat="45.18557" lon="0.72292">
        <ele>109.3</ele>
        <time>2021-10-24T12:45:19Z</time>
      </trkpt>
      <trkpt lat="45.18557" lon="0.72291">
        <ele>109.2</ele>
        <time>2021-10-24T12:45:20Z</time>
      </trkpt>
      <trkpt lat="45.18556" lon="0.72289">
        <ele>108.2</ele>
        <time>2021-10-24T12:45:21Z</time>
      </trkpt>
      <trkpt lat="45.18556" lon="0.72288">
        <ele>108.2</ele>
        <time>2021-10-24T12:45:22Z</time>
      </trkpt>
      <trkpt lat="45.18556" lon="0.72288">
        <ele>108.2</ele>
        <time>2021-10-24T12:45:23Z</time>
      </trkpt>
      <trkpt lat="45.18556" lon="0.72288">
        <ele>108.2</ele>
        <time>2021-10-24T12:45:25Z</time>
      </trkpt>
      <trkpt lat="45.18556" lon="0.72287">
        <ele>108.2</ele>
        <time>2021-10-24T12:45:27Z</time>
      </trkpt>
      <trkpt lat="45.18556" lon="0.72287">
        <ele>108.2</ele>
        <time>2021-10-24T12:45:28Z</time>
      </trkpt>
      <trkpt lat="45.18556" lon="0.72287">
        <ele>108.2</ele>
        <time>2021-10-24T12:45:29Z</time>
      </trkpt>
      <trkpt lat="45.18557" lon="0.72287">
        <ele>108.2</ele>
        <time>2021-10-24T12:45:31Z</time>
      </trkpt>
      <trkpt lat="45.18557" lon="0.72286">
        <ele>108.2</ele>
        <time>2021-10-24T12:45:33Z</time>
      </trkpt>
      <trkpt lat="45.18557" lon="0.72285">
        <ele>108.2</ele>
        <time>2021-10-24T12:45:35Z</time>
      </trkpt>
      <trkpt lat="45.18558" lon="0.72285">
        <ele>108.2</ele>
        <time>2021-10-24T12:45:37Z</time>
      </trkpt>
      <trkpt lat="45.18558" lon="0.72285">
        <ele>108.2</ele>
        <time>2021-10-24T12:45:38Z</time>
      </trkpt>
      <trkpt lat="45.18558" lon="0.72285">
        <ele>108.2</ele>
        <time>2021-10-24T12:45:40Z</time>
      </trkpt>
      <trkpt lat="45.18558" lon="0.72284">
        <ele>108.2</ele>
        <time>2021-10-24T12:45:41Z</time>
      </trkpt>
      <trkpt lat="45.18559" lon="0.72284">
        <ele>108.2</ele>
        <time>2021-10-24T12:45:43Z</time>
      </trkpt>
      <trkpt lat="45.18559" lon="0.72283">
        <ele>108.2</ele>
        <time>2021-10-24T12:45:45Z</time>
      </trkpt>
      <trkpt lat="45.18559" lon="0.72283">
        <ele>108.2</ele>
        <time>2021-10-24T12:45:46Z</time>
      </trkpt>
      <trkpt lat="45.18559" lon="0.72282">
        <ele>108.2</ele>
        <time>2021-10-24T12:45:48Z</time>
      </trkpt>
      <trkpt lat="45.18559" lon="0.72281">
        <ele>108.3</ele>
        <time>2021-10-24T12:45:49Z</time>
      </trkpt>
      <trkpt lat="45.18559" lon="0.72279">
        <ele>108.3</ele>
        <time>2021-10-24T12:45:50Z</time>
      </trkpt>
      <trkpt lat="45.18559" lon="0.72278">
        <ele>108.4</ele>
        <time>2021-10-24T12:45:51Z</time>
      </trkpt>
      <trkpt lat="45.18559" lon="0.72275">
        <ele>108.5</ele>
        <time>2021-10-24T12:45:52Z</time>
      </trkpt>
      <trkpt lat="45.18559" lon="0.72275">
        <ele>108.5</ele>
        <time>2021-10-24T12:45:53Z</time>
      </trkpt>
      <trkpt lat="45.18559" lon="0.72273">
        <ele>108.5</ele>
        <time>2021-10-24T12:45:55Z</time>
      </trkpt>
      <trkpt lat="45.18559" lon="0.72272">
        <ele>108.6</ele>
        <time>2021-10-24T12:45:56Z</time>
      </trkpt>
      <trkpt lat="45.18558" lon="0.72271">
        <ele>108.6</ele>
        <time>2021-10-24T12:45:57Z</time>
      </trkpt>
      <trkpt lat="45.18557" lon="0.72269">
        <ele>108.7</ele>
        <time>2021-10-24T12:45:58Z</time>
      </trkpt>
      <trkpt lat="45.18556" lon="0.72268">
        <ele>108.8</ele>
        <time>2021-10-24T12:45:59Z</time>
      </trkpt>
      <trkpt lat="45.18555" lon="0.72266">
        <ele>108.8</ele>
        <time>2021-10-24T12:46:00Z</time>
      </trkpt>
      <trkpt lat="45.18555" lon="0.72264">
        <ele>108.9</ele>
        <time>2021-10-24T12:46:01Z</time>
      </trkpt>
      <trkpt lat="45.18555" lon="0.72262">
        <ele>108.9</ele>
        <time>2021-10-24T12:46:02Z</time>
      </trkpt>
      <trkpt lat="45.18556" lon="0.72259">
        <ele>108.9</ele>
        <time>2021-10-24T12:46:04Z</time>
      </trkpt>
      <trkpt lat="45.18556" lon="0.72258">
        <ele>109</ele>
        <time>2021-10-24T12:46:05Z</time>
      </trkpt>
      <trkpt lat="45.18557" lon="0.72257">
        <ele>109</ele>
        <time>2021-10-24T12:46:06Z</time>
      </trkpt>
      <trkpt lat="45.18558" lon="0.72256">
        <ele>109</ele>
        <time>2021-10-24T12:46:07Z</time>
      </trkpt>
      <trkpt lat="45.18558" lon="0.72255">
        <ele>109</ele>
        <time>2021-10-24T12:46:08Z</time>
      </trkpt>
      <trkpt lat="45.18559" lon="0.72254">
        <ele>109.1</ele>
        <time>2021-10-24T12:46:09Z</time>
      </trkpt>
      <trkpt lat="45.1856" lon="0.72253">
        <ele>109.1</ele>
        <time>2021-10-24T12:46:10Z</time>
      </trkpt>
      <trkpt lat="45.1856" lon="0.72251">
        <ele>109.1</ele>
        <time>2021-10-24T12:46:11Z</time>
      </trkpt>
      <trkpt lat="45.18561" lon="0.72249">
        <ele>109.2</ele>
        <time>2021-10-24T12:46:13Z</time>
      </trkpt>
      <trkpt lat="45.18562" lon="0.72247">
        <ele>109.2</ele>
        <time>2021-10-24T12:46:14Z</time>
      </trkpt>
      <trkpt lat="45.18562" lon="0.72245">
        <ele>109.2</ele>
        <time>2021-10-24T12:46:15Z</time>
      </trkpt>
      <trkpt lat="45.18563" lon="0.72243">
        <ele>109.3</ele>
        <time>2021-10-24T12:46:16Z</time>
      </trkpt>
      <trkpt lat="45.18563" lon="0.7224">
        <ele>109.4</ele>
        <time>2021-10-24T12:46:17Z</time>
      </trkpt>
      <trkpt lat="45.18564" lon="0.72238">
        <ele>109.4</ele>
        <time>2021-10-24T12:46:18Z</time>
      </trkpt>
      <trkpt lat="45.18564" lon="0.72236">
        <ele>109.5</ele>
        <time>2021-10-24T12:46:19Z</time>
      </trkpt>
      <trkpt lat="45.18564" lon="0.72234">
        <ele>109.6</ele>
        <time>2021-10-24T12:46:21Z</time>
      </trkpt>
      <trkpt lat="45.18565" lon="0.72232">
        <ele>109.6</ele>
        <time>2021-10-24T12:46:22Z</time>
      </trkpt>
      <trkpt lat="45.18565" lon="0.72231">
        <ele>109.7</ele>
        <time>2021-10-24T12:46:23Z</time>
      </trkpt>
      <trkpt lat="45.18565" lon="0.72229">
        <ele>109.7</ele>
        <time>2021-10-24T12:46:24Z</time>
      </trkpt>
      <trkpt lat="45.18565" lon="0.72227">
        <ele>109.8</ele>
        <time>2021-10-24T12:46:25Z</time>
      </trkpt>
      <trkpt lat="45.18565" lon="0.72224">
        <ele>109.9</ele>
        <time>2021-10-24T12:46:27Z</time>
      </trkpt>
      <trkpt lat="45.18565" lon="0.72223">
        <ele>109.9</ele>
        <time>2021-10-24T12:46:28Z</time>
      </trkpt>
      <trkpt lat="45.18564" lon="0.72222">
        <ele>110</ele>
        <time>2021-10-24T12:46:29Z</time>
      </trkpt>
      <trkpt lat="45.18564" lon="0.7222">
        <ele>110</ele>
        <time>2021-10-24T12:46:31Z</time>
      </trkpt>
      <trkpt lat="45.18564" lon="0.72219">
        <ele>110.1</ele>
        <time>2021-10-24T12:46:32Z</time>
      </trkpt>
      <trkpt lat="45.18564" lon="0.72218">
        <ele>110.1</ele>
        <time>2021-10-24T12:46:34Z</time>
      </trkpt>
      <trkpt lat="45.18564" lon="0.72217">
        <ele>110.2</ele>
        <time>2021-10-24T12:46:35Z</time>
      </trkpt>
      <trkpt lat="45.18563" lon="0.72217">
        <ele>110.2</ele>
        <time>2021-10-24T12:46:36Z</time>
      </trkpt>
      <trkpt lat="45.18563" lon="0.72216">
        <ele>110.2</ele>
        <time>2021-10-24T12:46:37Z</time>
      </trkpt>
      <trkpt lat="45.18562" lon="0.72216">
        <ele>110.3</ele>
        <time>2021-10-24T12:46:38Z</time>
      </trkpt>
      <trkpt lat="45.18562" lon="0.72217">
        <ele>110.3</ele>
        <time>2021-10-24T12:46:39Z</time>
      </trkpt>
      <trkpt lat="45.18562" lon="0.72217">
        <ele>110.3</ele>
        <time>2021-10-24T12:46:41Z</time>
      </trkpt>
      <trkpt lat="45.18562" lon="0.72217">
        <ele>110.3</ele>
        <time>2021-10-24T12:46:42Z</time>
      </trkpt>
      <trkpt lat="45.18562" lon="0.72216">
        <ele>110.4</ele>
        <time>2021-10-24T12:46:43Z</time>
      </trkpt>
      <trkpt lat="45.18562" lon="0.72215">
        <ele>110.4</ele>
        <time>2021-10-24T12:46:45Z</time>
      </trkpt>
      <trkpt lat="45.18563" lon="0.72214">
        <ele>110.4</ele>
        <time>2021-10-24T12:46:46Z</time>
      </trkpt>
      <trkpt lat="45.18563" lon="0.72214">
        <ele>110.5</ele>
        <time>2021-10-24T12:46:47Z</time>
      </trkpt>
      <trkpt lat="45.18563" lon="0.72213">
        <ele>110.5</ele>
        <time>2021-10-24T12:46:48Z</time>
      </trkpt>
      <trkpt lat="45.18563" lon="0.72212">
        <ele>110.5</ele>
        <time>2021-10-24T12:46:50Z</time>
      </trkpt>
      <trkpt lat="45.18563" lon="0.72212">
        <ele>110.5</ele>
        <time>2021-10-24T12:46:51Z</time>
      </trkpt>
      <trkpt lat="45.18563" lon="0.72212">
        <ele>110.5</ele>
        <time>2021-10-24T12:46:52Z</time>
      </trkpt>
      <trkpt lat="45.18563" lon="0.72212">
        <ele>110.6</ele>
        <time>2021-10-24T12:46:53Z</time>
      </trkpt>
      <trkpt lat="45.18562" lon="0.72211">
        <ele>110.6</ele>
        <time>2021-10-24T12:46:55Z</time>
      </trkpt>
      <trkpt lat="45.18562" lon="0.72211">
        <ele>110.6</ele>
        <time>2021-10-24T12:46:56Z</time>
      </trkpt>
      <trkpt lat="45.18562" lon="0.7221">
        <ele>110.6</ele>
        <time>2021-10-24T12:46:57Z</time>
      </trkpt>
      <trkpt lat="45.18562" lon="0.7221">
        <ele>110.7</ele>
        <time>2021-10-24T12:46:58Z</time>
      </trkpt>
      <trkpt lat="45.18562" lon="0.72208">
        <ele>110.7</ele>
        <time>2021-10-24T12:47:00Z</time>
      </trkpt>
      <trkpt lat="45.18562" lon="0.72206">
        <ele>110.7</ele>
        <time>2021-10-24T12:47:01Z</time>
      </trkpt>
      <trkpt lat="45.18561" lon="0.72204">
        <ele>110.7</ele>
        <time>2021-10-24T12:47:03Z</time>
      </trkpt>
      <trkpt lat="45.18561" lon="0.72203">
        <ele>110.7</ele>
        <time>2021-10-24T12:47:04Z</time>
      </trkpt>
      <trkpt lat="45.18562" lon="0.72202">
        <ele>111</ele>
        <time>2021-10-24T12:47:06Z</time>
      </trkpt>
      <trkpt lat="45.18562" lon="0.72201">
        <ele>111</ele>
        <time>2021-10-24T12:47:08Z</time>
      </trkpt>
      <trkpt lat="45.18562" lon="0.72201">
        <ele>111.1</ele>
        <time>2021-10-24T12:47:09Z</time>
      </trkpt>
      <trkpt lat="45.18562" lon="0.722">
        <ele>111.1</ele>
        <time>2021-10-24T12:47:11Z</time>
      </trkpt>
      <trkpt lat="45.18563" lon="0.72199">
        <ele>111.1</ele>
        <time>2021-10-24T12:47:12Z</time>
      </trkpt>
      <trkpt lat="45.18563" lon="0.72197">
        <ele>111.1</ele>
        <time>2021-10-24T12:47:13Z</time>
      </trkpt>
      <trkpt lat="45.18564" lon="0.72195">
        <ele>111.2</ele>
        <time>2021-10-24T12:47:15Z</time>
      </trkpt>
      <trkpt lat="45.18565" lon="0.72193">
        <ele>111.2</ele>
        <time>2021-10-24T12:47:16Z</time>
      </trkpt>
      <trkpt lat="45.18565" lon="0.72191">
        <ele>111.2</ele>
        <time>2021-10-24T12:47:17Z</time>
      </trkpt>
      <trkpt lat="45.18566" lon="0.72189">
        <ele>111.2</ele>
        <time>2021-10-24T12:47:18Z</time>
      </trkpt>
      <trkpt lat="45.18566" lon="0.72187">
        <ele>111.3</ele>
        <time>2021-10-24T12:47:20Z</time>
      </trkpt>
      <trkpt lat="45.18566" lon="0.72185">
        <ele>111.2</ele>
        <time>2021-10-24T12:47:21Z</time>
      </trkpt>
      <trkpt lat="45.18566" lon="0.72184">
        <ele>111.2</ele>
        <time>2021-10-24T12:47:22Z</time>
      </trkpt>
      <trkpt lat="45.18567" lon="0.72184">
        <ele>111.2</ele>
        <time>2021-10-24T12:47:23Z</time>
      </trkpt>
      <trkpt lat="45.18567" lon="0.72183">
        <ele>111.2</ele>
        <time>2021-10-24T12:47:24Z</time>
      </trkpt>
      <trkpt lat="45.18567" lon="0.72182">
        <ele>111.2</ele>
        <time>2021-10-24T12:47:25Z</time>
      </trkpt>
      <trkpt lat="45.18568" lon="0.72181">
        <ele>111.2</ele>
        <time>2021-10-24T12:47:27Z</time>
      </trkpt>
      <trkpt lat="45.18568" lon="0.7218">
        <ele>111.2</ele>
        <time>2021-10-24T12:47:28Z</time>
      </trkpt>
      <trkpt lat="45.18568" lon="0.7218">
        <ele>111.2</ele>
        <time>2021-10-24T12:47:29Z</time>
      </trkpt>
      <trkpt lat="45.18568" lon="0.72179">
        <ele>111.2</ele>
        <time>2021-10-24T12:47:30Z</time>
      </trkpt>
      <trkpt lat="45.18568" lon="0.72179">
        <ele>111.2</ele>
        <time>2021-10-24T12:47:31Z</time>
      </trkpt>
      <trkpt lat="45.18568" lon="0.72177">
        <ele>111.1</ele>
        <time>2021-10-24T12:47:32Z</time>
      </trkpt>
      <trkpt lat="45.18568" lon="0.72176">
        <ele>111.1</ele>
        <time>2021-10-24T12:47:33Z</time>
      </trkpt>
      <trkpt lat="45.18569" lon="0.72175">
        <ele>111.1</ele>
        <time>2021-10-24T12:47:35Z</time>
      </trkpt>
      <trkpt lat="45.18569" lon="0.72174">
        <ele>111.1</ele>
        <time>2021-10-24T12:47:36Z</time>
      </trkpt>
      <trkpt lat="45.18569" lon="0.72173">
        <ele>111.1</ele>
        <time>2021-10-24T12:47:38Z</time>
      </trkpt>
      <trkpt lat="45.1857" lon="0.72172">
        <ele>111.1</ele>
        <time>2021-10-24T12:47:39Z</time>
      </trkpt>
      <trkpt lat="45.1857" lon="0.72171">
        <ele>111</ele>
        <time>2021-10-24T12:47:40Z</time>
      </trkpt>
      <trkpt lat="45.1857" lon="0.7217">
        <ele>111</ele>
        <time>2021-10-24T12:47:41Z</time>
      </trkpt>
      <trkpt lat="45.18571" lon="0.72169">
        <ele>111</ele>
        <time>2021-10-24T12:47:42Z</time>
      </trkpt>
      <trkpt lat="45.18571" lon="0.72168">
        <ele>111</ele>
        <time>2021-10-24T12:47:44Z</time>
      </trkpt>
      <trkpt lat="45.18572" lon="0.72167">
        <ele>110.9</ele>
        <time>2021-10-24T12:47:45Z</time>
      </trkpt>
      <trkpt lat="45.18573" lon="0.72165">
        <ele>110.9</ele>
        <time>2021-10-24T12:47:46Z</time>
      </trkpt>
      <trkpt lat="45.18573" lon="0.72164">
        <ele>110.9</ele>
        <time>2021-10-24T12:47:47Z</time>
      </trkpt>
      <trkpt lat="45.18573" lon="0.72162">
        <ele>110.9</ele>
        <time>2021-10-24T12:47:49Z</time>
      </trkpt>
      <trkpt lat="45.18573" lon="0.72161">
        <ele>110.9</ele>
        <time>2021-10-24T12:47:50Z</time>
      </trkpt>
      <trkpt lat="45.18573" lon="0.72159">
        <ele>110.9</ele>
        <time>2021-10-24T12:47:51Z</time>
      </trkpt>
      <trkpt lat="45.18573" lon="0.72157">
        <ele>110.9</ele>
        <time>2021-10-24T12:47:52Z</time>
      </trkpt>
      <trkpt lat="45.18573" lon="0.72154">
        <ele>110.9</ele>
        <time>2021-10-24T12:47:53Z</time>
      </trkpt>
      <trkpt lat="45.18573" lon="0.72153">
        <ele>110.9</ele>
        <time>2021-10-24T12:47:54Z</time>
      </trkpt>
      <trkpt lat="45.18573" lon="0.72151">
        <ele>110.9</ele>
        <time>2021-10-24T12:47:56Z</time>
      </trkpt>
      <trkpt lat="45.18573" lon="0.7215">
        <ele>110.9</ele>
        <time>2021-10-24T12:47:57Z</time>
      </trkpt>
      <trkpt lat="45.18574" lon="0.72149">
        <ele>110.9</ele>
        <time>2021-10-24T12:47:58Z</time>
      </trkpt>
      <trkpt lat="45.18574" lon="0.72148">
        <ele>110.9</ele>
        <time>2021-10-24T12:48:00Z</time>
      </trkpt>
      <trkpt lat="45.18574" lon="0.72148">
        <ele>110.9</ele>
        <time>2021-10-24T12:48:02Z</time>
      </trkpt>
      <trkpt lat="45.18574" lon="0.72148">
        <ele>110.9</ele>
        <time>2021-10-24T12:48:03Z</time>
      </trkpt>
      <trkpt lat="45.18574" lon="0.72149">
        <ele>110.9</ele>
        <time>2021-10-24T12:48:05Z</time>
      </trkpt>
      <trkpt lat="45.18575" lon="0.7215">
        <ele>110.9</ele>
        <time>2021-10-24T12:48:06Z</time>
      </trkpt>
      <trkpt lat="45.18575" lon="0.72151">
        <ele>110.9</ele>
        <time>2021-10-24T12:48:07Z</time>
      </trkpt>
      <trkpt lat="45.18575" lon="0.72152">
        <ele>110.9</ele>
        <time>2021-10-24T12:48:08Z</time>
      </trkpt>
      <trkpt lat="45.18575" lon="0.72154">
        <ele>110.9</ele>
        <time>2021-10-24T12:48:09Z</time>
      </trkpt>
      <trkpt lat="45.18575" lon="0.72155">
        <ele>110.9</ele>
        <time>2021-10-24T12:48:10Z</time>
      </trkpt>
      <trkpt lat="45.18574" lon="0.72156">
        <ele>110.9</ele>
        <time>2021-10-24T12:48:11Z</time>
      </trkpt>
      <trkpt lat="45.18574" lon="0.72158">
        <ele>110.9</ele>
        <time>2021-10-24T12:48:13Z</time>
      </trkpt>
      <trkpt lat="45.18574" lon="0.7216">
        <ele>110.9</ele>
        <time>2021-10-24T12:48:14Z</time>
      </trkpt>
      <trkpt lat="45.18573" lon="0.7216">
        <ele>110.9</ele>
        <time>2021-10-24T12:48:15Z</time>
      </trkpt>
      <trkpt lat="45.18573" lon="0.72161">
        <ele>110.9</ele>
        <time>2021-10-24T12:48:16Z</time>
      </trkpt>
      <trkpt lat="45.18573" lon="0.72161">
        <ele>111</ele>
        <time>2021-10-24T12:48:18Z</time>
      </trkpt>
      <trkpt lat="45.18573" lon="0.72161">
        <ele>111</ele>
        <time>2021-10-24T12:48:19Z</time>
      </trkpt>
      <trkpt lat="45.18573" lon="0.72161">
        <ele>111</ele>
        <time>2021-10-24T12:48:20Z</time>
      </trkpt>
      <trkpt lat="45.18573" lon="0.7216">
        <ele>111</ele>
        <time>2021-10-24T12:48:22Z</time>
      </trkpt>
      <trkpt lat="45.18573" lon="0.7216">
        <ele>111</ele>
        <time>2021-10-24T12:48:23Z</time>
      </trkpt>
      <trkpt lat="45.18572" lon="0.7216">
        <ele>111</ele>
        <time>2021-10-24T12:48:24Z</time>
      </trkpt>
      <trkpt lat="45.18571" lon="0.7216">
        <ele>111</ele>
        <time>2021-10-24T12:48:25Z</time>
      </trkpt>
      <trkpt lat="45.1857" lon="0.72161">
        <ele>111</ele>
        <time>2021-10-24T12:48:26Z</time>
      </trkpt>
      <trkpt lat="45.18569" lon="0.72161">
        <ele>111</ele>
        <time>2021-10-24T12:48:28Z</time>
      </trkpt>
      <trkpt lat="45.18568" lon="0.72161">
        <ele>111</ele>
        <time>2021-10-24T12:48:29Z</time>
      </trkpt>
      <trkpt lat="45.18566" lon="0.72161">
        <ele>111</ele>
        <time>2021-10-24T12:48:30Z</time>
      </trkpt>
      <trkpt lat="45.18565" lon="0.72162">
        <ele>111</ele>
        <time>2021-10-24T12:48:31Z</time>
      </trkpt>
      <trkpt lat="45.18564" lon="0.72162">
        <ele>111</ele>
        <time>2021-10-24T12:48:32Z</time>
      </trkpt>
      <trkpt lat="45.18563" lon="0.72162">
        <ele>111</ele>
        <time>2021-10-24T12:48:33Z</time>
      </trkpt>
      <trkpt lat="45.18562" lon="0.72162">
        <ele>111</ele>
        <time>2021-10-24T12:48:34Z</time>
      </trkpt>
      <trkpt lat="45.18561" lon="0.72162">
        <ele>111</ele>
        <time>2021-10-24T12:48:35Z</time>
      </trkpt>
      <trkpt lat="45.18559" lon="0.72161">
        <ele>111</ele>
        <time>2021-10-24T12:48:37Z</time>
      </trkpt>
      <trkpt lat="45.18557" lon="0.72161">
        <ele>111</ele>
        <time>2021-10-24T12:48:38Z</time>
      </trkpt>
      <trkpt lat="45.18556" lon="0.72161">
        <ele>111</ele>
        <time>2021-10-24T12:48:39Z</time>
      </trkpt>
      <trkpt lat="45.18555" lon="0.72161">
        <ele>111</ele>
        <time>2021-10-24T12:48:40Z</time>
      </trkpt>
      <trkpt lat="45.18554" lon="0.72161">
        <ele>111</ele>
        <time>2021-10-24T12:48:42Z</time>
      </trkpt>
      <trkpt lat="45.18553" lon="0.7216">
        <ele>111</ele>
        <time>2021-10-24T12:48:43Z</time>
      </trkpt>
      <trkpt lat="45.18552" lon="0.72158">
        <ele>111</ele>
        <time>2021-10-24T12:48:45Z</time>
      </trkpt>
      <trkpt lat="45.18552" lon="0.72157">
        <ele>111</ele>
        <time>2021-10-24T12:48:46Z</time>
      </trkpt>
      <trkpt lat="45.18552" lon="0.72157">
        <ele>111</ele>
        <time>2021-10-24T12:48:47Z</time>
      </trkpt>
      <trkpt lat="45.18551" lon="0.72157">
        <ele>111</ele>
        <time>2021-10-24T12:48:49Z</time>
      </trkpt>
      <trkpt lat="45.18551" lon="0.72157">
        <ele>111</ele>
        <time>2021-10-24T12:48:50Z</time>
      </trkpt>
      <trkpt lat="45.1855" lon="0.72157">
        <ele>111.1</ele>
        <time>2021-10-24T12:48:51Z</time>
      </trkpt>
      <trkpt lat="45.1855" lon="0.72157">
        <ele>111.1</ele>
        <time>2021-10-24T12:48:52Z</time>
      </trkpt>
      <trkpt lat="45.18549" lon="0.72157">
        <ele>111.1</ele>
        <time>2021-10-24T12:48:53Z</time>
      </trkpt>
      <trkpt lat="45.18549" lon="0.72157">
        <ele>111.1</ele>
        <time>2021-10-24T12:48:54Z</time>
      </trkpt>
      <trkpt lat="45.18548" lon="0.72157">
        <ele>111</ele>
        <time>2021-10-24T12:48:56Z</time>
      </trkpt>
      <trkpt lat="45.18547" lon="0.72157">
        <ele>110.9</ele>
        <time>2021-10-24T12:48:57Z</time>
      </trkpt>
      <trkpt lat="45.18545" lon="0.72156">
        <ele>110.8</ele>
        <time>2021-10-24T12:48:58Z</time>
      </trkpt>
      <trkpt lat="45.18544" lon="0.72156">
        <ele>110.8</ele>
        <time>2021-10-24T12:48:59Z</time>
      </trkpt>
      <trkpt lat="45.18543" lon="0.72156">
        <ele>110.7</ele>
        <time>2021-10-24T12:49:00Z</time>
      </trkpt>
      <trkpt lat="45.18543" lon="0.72157">
        <ele>110.7</ele>
        <time>2021-10-24T12:49:01Z</time>
      </trkpt>
      <trkpt lat="45.18542" lon="0.72156">
        <ele>110.7</ele>
        <time>2021-10-24T12:49:02Z</time>
      </trkpt>
      <trkpt lat="45.18542" lon="0.72156">
        <ele>110.7</ele>
        <time>2021-10-24T12:49:04Z</time>
      </trkpt>
      <trkpt lat="45.18541" lon="0.72155">
        <ele>110.6</ele>
        <time>2021-10-24T12:49:05Z</time>
      </trkpt>
      <trkpt lat="45.18539" lon="0.72153">
        <ele>110.5</ele>
        <time>2021-10-24T12:49:06Z</time>
      </trkpt>
      <trkpt lat="45.18538" lon="0.72153">
        <ele>110.5</ele>
        <time>2021-10-24T12:49:07Z</time>
      </trkpt>
      <trkpt lat="45.18538" lon="0.72152">
        <ele>110.5</ele>
        <time>2021-10-24T12:49:08Z</time>
      </trkpt>
      <trkpt lat="45.18536" lon="0.72151">
        <ele>110.4</ele>
        <time>2021-10-24T12:49:10Z</time>
      </trkpt>
      <trkpt lat="45.18535" lon="0.72151">
        <ele>110.4</ele>
        <time>2021-10-24T12:49:11Z</time>
      </trkpt>
      <trkpt lat="45.18534" lon="0.72151">
        <ele>110.4</ele>
        <time>2021-10-24T12:49:12Z</time>
      </trkpt>
      <trkpt lat="45.18533" lon="0.7215">
        <ele>110.3</ele>
        <time>2021-10-24T12:49:13Z</time>
      </trkpt>
      <trkpt lat="45.18531" lon="0.7215">
        <ele>110.3</ele>
        <time>2021-10-24T12:49:15Z</time>
      </trkpt>
      <trkpt lat="45.18529" lon="0.7215">
        <ele>110.2</ele>
        <time>2021-10-24T12:49:16Z</time>
      </trkpt>
      <trkpt lat="45.18528" lon="0.72151">
        <ele>110.2</ele>
        <time>2021-10-24T12:49:17Z</time>
      </trkpt>
      <trkpt lat="45.18527" lon="0.72151">
        <ele>110.2</ele>
        <time>2021-10-24T12:49:18Z</time>
      </trkpt>
      <trkpt lat="45.18526" lon="0.72151">
        <ele>110.1</ele>
        <time>2021-10-24T12:49:20Z</time>
      </trkpt>
      <trkpt lat="45.18525" lon="0.72151">
        <ele>110.1</ele>
        <time>2021-10-24T12:49:21Z</time>
      </trkpt>
      <trkpt lat="45.18523" lon="0.72151">
        <ele>110.1</ele>
        <time>2021-10-24T12:49:22Z</time>
      </trkpt>
      <trkpt lat="45.18522" lon="0.72151">
        <ele>110</ele>
        <time>2021-10-24T12:49:23Z</time>
      </trkpt>
      <trkpt lat="45.18521" lon="0.72151">
        <ele>110</ele>
        <time>2021-10-24T12:49:24Z</time>
      </trkpt>
      <trkpt lat="45.18519" lon="0.72151">
        <ele>110</ele>
        <time>2021-10-24T12:49:25Z</time>
      </trkpt>
      <trkpt lat="45.18519" lon="0.7215">
        <ele>109.9</ele>
        <time>2021-10-24T12:49:27Z</time>
      </trkpt>
      <trkpt lat="45.18518" lon="0.7215">
        <ele>109.9</ele>
        <time>2021-10-24T12:49:29Z</time>
      </trkpt>
      <trkpt lat="45.18518" lon="0.72149">
        <ele>109.9</ele>
        <time>2021-10-24T12:49:30Z</time>
      </trkpt>
      <trkpt lat="45.18517" lon="0.72149">
        <ele>109.9</ele>
        <time>2021-10-24T12:49:31Z</time>
      </trkpt>
      <trkpt lat="45.18516" lon="0.72147">
        <ele>109.8</ele>
        <time>2021-10-24T12:49:32Z</time>
      </trkpt>
      <trkpt lat="45.18515" lon="0.72146">
        <ele>109.8</ele>
        <time>2021-10-24T12:49:34Z</time>
      </trkpt>
      <trkpt lat="45.18515" lon="0.72145">
        <ele>109.8</ele>
        <time>2021-10-24T12:49:35Z</time>
      </trkpt>
      <trkpt lat="45.18514" lon="0.72144">
        <ele>109.8</ele>
        <time>2021-10-24T12:49:36Z</time>
      </trkpt>
      <trkpt lat="45.18513" lon="0.72143">
        <ele>109.7</ele>
        <time>2021-10-24T12:49:37Z</time>
      </trkpt>
      <trkpt lat="45.18513" lon="0.72143">
        <ele>109.7</ele>
        <time>2021-10-24T12:49:38Z</time>
      </trkpt>
      <trkpt lat="45.18512" lon="0.72143">
        <ele>109.7</ele>
        <time>2021-10-24T12:49:40Z</time>
      </trkpt>
      <trkpt lat="45.18512" lon="0.72143">
        <ele>109.7</ele>
        <time>2021-10-24T12:49:41Z</time>
      </trkpt>
      <trkpt lat="45.18511" lon="0.72142">
        <ele>109.6</ele>
        <time>2021-10-24T12:49:42Z</time>
      </trkpt>
      <trkpt lat="45.18509" lon="0.72141">
        <ele>109.6</ele>
        <time>2021-10-24T12:49:44Z</time>
      </trkpt>
      <trkpt lat="45.18508" lon="0.7214">
        <ele>109.6</ele>
        <time>2021-10-24T12:49:46Z</time>
      </trkpt>
      <trkpt lat="45.18507" lon="0.7214">
        <ele>109.5</ele>
        <time>2021-10-24T12:49:47Z</time>
      </trkpt>
      <trkpt lat="45.18506" lon="0.72139">
        <ele>109.5</ele>
        <time>2021-10-24T12:49:48Z</time>
      </trkpt>
      <trkpt lat="45.18506" lon="0.72138">
        <ele>109.5</ele>
        <time>2021-10-24T12:49:49Z</time>
      </trkpt>
      <trkpt lat="45.18506" lon="0.72138">
        <ele>109.5</ele>
        <time>2021-10-24T12:49:50Z</time>
      </trkpt>
      <trkpt lat="45.18506" lon="0.72138">
        <ele>109.5</ele>
        <time>2021-10-24T12:49:52Z</time>
      </trkpt>
      <trkpt lat="45.18506" lon="0.72138">
        <ele>109.5</ele>
        <time>2021-10-24T12:49:53Z</time>
      </trkpt>
      <trkpt lat="45.18506" lon="0.72138">
        <ele>109.5</ele>
        <time>2021-10-24T12:49:54Z</time>
      </trkpt>
      <trkpt lat="45.18506" lon="0.72137">
        <ele>109.4</ele>
        <time>2021-10-24T12:49:55Z</time>
      </trkpt>
      <trkpt lat="45.18506" lon="0.72134">
        <ele>109.4</ele>
        <time>2021-10-24T12:49:56Z</time>
      </trkpt>
      <trkpt lat="45.18506" lon="0.72132">
        <ele>109.3</ele>
        <time>2021-10-24T12:49:58Z</time>
      </trkpt>
      <trkpt lat="45.18506" lon="0.7213">
        <ele>109.2</ele>
        <time>2021-10-24T12:49:59Z</time>
      </trkpt>
      <trkpt lat="45.18507" lon="0.72128">
        <ele>109.2</ele>
        <time>2021-10-24T12:50:00Z</time>
      </trkpt>
      <trkpt lat="45.18506" lon="0.72126">
        <ele>109.2</ele>
        <time>2021-10-24T12:50:01Z</time>
      </trkpt>
      <trkpt lat="45.18506" lon="0.72125">
        <ele>109.2</ele>
        <time>2021-10-24T12:50:03Z</time>
      </trkpt>
      <trkpt lat="45.18506" lon="0.72125">
        <ele>109.1</ele>
        <time>2021-10-24T12:50:04Z</time>
      </trkpt>
      <trkpt lat="45.18506" lon="0.72123">
        <ele>109.1</ele>
        <time>2021-10-24T12:50:05Z</time>
      </trkpt>
      <trkpt lat="45.18506" lon="0.72121">
        <ele>109.1</ele>
        <time>2021-10-24T12:50:07Z</time>
      </trkpt>
      <trkpt lat="45.18506" lon="0.7212">
        <ele>109.1</ele>
        <time>2021-10-24T12:50:08Z</time>
      </trkpt>
      <trkpt lat="45.18506" lon="0.72118">
        <ele>109</ele>
        <time>2021-10-24T12:50:09Z</time>
      </trkpt>
      <trkpt lat="45.18506" lon="0.72117">
        <ele>109</ele>
        <time>2021-10-24T12:50:10Z</time>
      </trkpt>
      <trkpt lat="45.18506" lon="0.72117">
        <ele>109</ele>
        <time>2021-10-24T12:50:11Z</time>
      </trkpt>
      <trkpt lat="45.18506" lon="0.72117">
        <ele>109</ele>
        <time>2021-10-24T12:50:12Z</time>
      </trkpt>
      <trkpt lat="45.18506" lon="0.72116">
        <ele>109</ele>
        <time>2021-10-24T12:50:14Z</time>
      </trkpt>
      <trkpt lat="45.18507" lon="0.72115">
        <ele>109</ele>
        <time>2021-10-24T12:50:15Z</time>
      </trkpt>
      <trkpt lat="45.18508" lon="0.72114">
        <ele>109</ele>
        <time>2021-10-24T12:50:17Z</time>
      </trkpt>
      <trkpt lat="45.18509" lon="0.72113">
        <ele>108.9</ele>
        <time>2021-10-24T12:50:18Z</time>
      </trkpt>
      <trkpt lat="45.18509" lon="0.72111">
        <ele>108.9</ele>
        <time>2021-10-24T12:50:20Z</time>
      </trkpt>
      <trkpt lat="45.18509" lon="0.72111">
        <ele>108.9</ele>
        <time>2021-10-24T12:50:21Z</time>
      </trkpt>
      <trkpt lat="45.18509" lon="0.7211">
        <ele>108.9</ele>
        <time>2021-10-24T12:50:22Z</time>
      </trkpt>
      <trkpt lat="45.18509" lon="0.72109">
        <ele>108.9</ele>
        <time>2021-10-24T12:50:23Z</time>
      </trkpt>
      <trkpt lat="45.18509" lon="0.72108">
        <ele>108.9</ele>
        <time>2021-10-24T12:50:25Z</time>
      </trkpt>
      <trkpt lat="45.18509" lon="0.72107">
        <ele>108.8</ele>
        <time>2021-10-24T12:50:27Z</time>
      </trkpt>
      <trkpt lat="45.18509" lon="0.72106">
        <ele>108.8</ele>
        <time>2021-10-24T12:50:29Z</time>
      </trkpt>
      <trkpt lat="45.18509" lon="0.72105">
        <ele>108.8</ele>
        <time>2021-10-24T12:50:30Z</time>
      </trkpt>
      <trkpt lat="45.18509" lon="0.72105">
        <ele>108.8</ele>
        <time>2021-10-24T12:50:32Z</time>
      </trkpt>
      <trkpt lat="45.18509" lon="0.72104">
        <ele>108.8</ele>
        <time>2021-10-24T12:50:33Z</time>
      </trkpt>
      <trkpt lat="45.18509" lon="0.72103">
        <ele>108.8</ele>
        <time>2021-10-24T12:50:34Z</time>
      </trkpt>
      <trkpt lat="45.18509" lon="0.72102">
        <ele>108.8</ele>
        <time>2021-10-24T12:50:36Z</time>
      </trkpt>
      <trkpt lat="45.18509" lon="0.72101">
        <ele>108.8</ele>
        <time>2021-10-24T12:50:37Z</time>
      </trkpt>
      <trkpt lat="45.1851" lon="0.721">
        <ele>108.7</ele>
        <time>2021-10-24T12:50:38Z</time>
      </trkpt>
      <trkpt lat="45.1851" lon="0.72099">
        <ele>108.7</ele>
        <time>2021-10-24T12:50:39Z</time>
      </trkpt>
      <trkpt lat="45.1851" lon="0.72097">
        <ele>108.7</ele>
        <time>2021-10-24T12:50:40Z</time>
      </trkpt>
      <trkpt lat="45.1851" lon="0.72096">
        <ele>108.7</ele>
        <time>2021-10-24T12:50:42Z</time>
      </trkpt>
      <trkpt lat="45.18511" lon="0.72095">
        <ele>108.7</ele>
        <time>2021-10-24T12:50:43Z</time>
      </trkpt>
      <trkpt lat="45.18511" lon="0.72094">
        <ele>108.6</ele>
        <time>2021-10-24T12:50:44Z</time>
      </trkpt>
      <trkpt lat="45.18511" lon="0.72093">
        <ele>108.6</ele>
        <time>2021-10-24T12:50:45Z</time>
      </trkpt>
      <trkpt lat="45.18511" lon="0.72092">
        <ele>108.6</ele>
        <time>2021-10-24T12:50:47Z</time>
      </trkpt>
      <trkpt lat="45.18511" lon="0.72092">
        <ele>108.6</ele>
        <time>2021-10-24T12:50:48Z</time>
      </trkpt>
      <trkpt lat="45.18511" lon="0.7209">
        <ele>108.6</ele>
        <time>2021-10-24T12:50:49Z</time>
      </trkpt>
      <trkpt lat="45.18511" lon="0.72089">
        <ele>108.6</ele>
        <time>2021-10-24T12:50:50Z</time>
      </trkpt>
      <trkpt lat="45.18511" lon="0.72088">
        <ele>108.5</ele>
        <time>2021-10-24T12:50:51Z</time>
      </trkpt>
      <trkpt lat="45.18511" lon="0.72087">
        <ele>108.5</ele>
        <time>2021-10-24T12:50:52Z</time>
      </trkpt>
      <trkpt lat="45.18511" lon="0.72087">
        <ele>108.5</ele>
        <time>2021-10-24T12:50:53Z</time>
      </trkpt>
      <trkpt lat="45.18512" lon="0.72086">
        <ele>108.5</ele>
        <time>2021-10-24T12:50:55Z</time>
      </trkpt>
      <trkpt lat="45.18512" lon="0.72085">
        <ele>108.5</ele>
        <time>2021-10-24T12:50:56Z</time>
      </trkpt>
      <trkpt lat="45.18512" lon="0.72083">
        <ele>108.5</ele>
        <time>2021-10-24T12:50:58Z</time>
      </trkpt>
      <trkpt lat="45.18513" lon="0.72082">
        <ele>108.4</ele>
        <time>2021-10-24T12:50:59Z</time>
      </trkpt>
      <trkpt lat="45.18513" lon="0.72078">
        <ele>108.4</ele>
        <time>2021-10-24T12:51:00Z</time>
      </trkpt>
      <trkpt lat="45.18513" lon="0.72077">
        <ele>108.4</ele>
        <time>2021-10-24T12:51:01Z</time>
      </trkpt>
      <trkpt lat="45.18513" lon="0.72076">
        <ele>108.4</ele>
        <time>2021-10-24T12:51:02Z</time>
      </trkpt>
      <trkpt lat="45.18513" lon="0.72073">
        <ele>108.3</ele>
        <time>2021-10-24T12:51:03Z</time>
      </trkpt>
      <trkpt lat="45.18513" lon="0.72072">
        <ele>108.3</ele>
        <time>2021-10-24T12:51:04Z</time>
      </trkpt>
      <trkpt lat="45.18513" lon="0.72071">
        <ele>108.3</ele>
        <time>2021-10-24T12:51:05Z</time>
      </trkpt>
      <trkpt lat="45.18513" lon="0.72069">
        <ele>108.3</ele>
        <time>2021-10-24T12:51:06Z</time>
      </trkpt>
      <trkpt lat="45.18514" lon="0.72068">
        <ele>108.2</ele>
        <time>2021-10-24T12:51:07Z</time>
      </trkpt>
      <trkpt lat="45.18514" lon="0.72066">
        <ele>108.2</ele>
        <time>2021-10-24T12:51:08Z</time>
      </trkpt>
      <trkpt lat="45.18515" lon="0.72064">
        <ele>108.2</ele>
        <time>2021-10-24T12:51:10Z</time>
      </trkpt>
      <trkpt lat="45.18515" lon="0.72063">
        <ele>108.2</ele>
        <time>2021-10-24T12:51:11Z</time>
      </trkpt>
      <trkpt lat="45.18516" lon="0.72062">
        <ele>108.2</ele>
        <time>2021-10-24T12:51:12Z</time>
      </trkpt>
      <trkpt lat="45.18516" lon="0.7206">
        <ele>108.1</ele>
        <time>2021-10-24T12:51:13Z</time>
      </trkpt>
      <trkpt lat="45.18516" lon="0.72059">
        <ele>108.1</ele>
        <time>2021-10-24T12:51:14Z</time>
      </trkpt>
      <trkpt lat="45.18516" lon="0.72058">
        <ele>108.1</ele>
        <time>2021-10-24T12:51:15Z</time>
      </trkpt>
      <trkpt lat="45.18516" lon="0.72057">
        <ele>108.1</ele>
        <time>2021-10-24T12:51:16Z</time>
      </trkpt>
      <trkpt lat="45.18516" lon="0.72057">
        <ele>108.1</ele>
        <time>2021-10-24T12:51:17Z</time>
      </trkpt>
      <trkpt lat="45.18516" lon="0.72057">
        <ele>108.1</ele>
        <time>2021-10-24T12:51:19Z</time>
      </trkpt>
      <trkpt lat="45.18516" lon="0.72056">
        <ele>108.1</ele>
        <time>2021-10-24T12:51:20Z</time>
      </trkpt>
      <trkpt lat="45.18516" lon="0.72055">
        <ele>108.1</ele>
        <time>2021-10-24T12:51:22Z</time>
      </trkpt>
      <trkpt lat="45.18516" lon="0.72054">
        <ele>108.1</ele>
        <time>2021-10-24T12:51:23Z</time>
      </trkpt>
      <trkpt lat="45.18517" lon="0.72051">
        <ele>108</ele>
        <time>2021-10-24T12:51:24Z</time>
      </trkpt>
      <trkpt lat="45.18518" lon="0.7205">
        <ele>108</ele>
        <time>2021-10-24T12:51:25Z</time>
      </trkpt>
      <trkpt lat="45.18518" lon="0.72048">
        <ele>108</ele>
        <time>2021-10-24T12:51:26Z</time>
      </trkpt>
      <trkpt lat="45.18519" lon="0.72047">
        <ele>108</ele>
        <time>2021-10-24T12:51:27Z</time>
      </trkpt>
      <trkpt lat="45.1852" lon="0.72045">
        <ele>108</ele>
        <time>2021-10-24T12:51:28Z</time>
      </trkpt>
      <trkpt lat="45.1852" lon="0.72044">
        <ele>107.9</ele>
        <time>2021-10-24T12:51:30Z</time>
      </trkpt>
      <trkpt lat="45.18521" lon="0.72042">
        <ele>107.9</ele>
        <time>2021-10-24T12:51:31Z</time>
      </trkpt>
      <trkpt lat="45.18521" lon="0.72041">
        <ele>107.9</ele>
        <time>2021-10-24T12:51:32Z</time>
      </trkpt>
      <trkpt lat="45.18522" lon="0.72039">
        <ele>107.9</ele>
        <time>2021-10-24T12:51:33Z</time>
      </trkpt>
      <trkpt lat="45.18522" lon="0.72038">
        <ele>107.9</ele>
        <time>2021-10-24T12:51:34Z</time>
      </trkpt>
      <trkpt lat="45.18523" lon="0.72036">
        <ele>108</ele>
        <time>2021-10-24T12:51:35Z</time>
      </trkpt>
      <trkpt lat="45.18522" lon="0.72034">
        <ele>108.2</ele>
        <time>2021-10-24T12:51:37Z</time>
      </trkpt>
      <trkpt lat="45.18522" lon="0.72033">
        <ele>108.3</ele>
        <time>2021-10-24T12:51:38Z</time>
      </trkpt>
      <trkpt lat="45.18522" lon="0.72032">
        <ele>108.3</ele>
        <time>2021-10-24T12:51:39Z</time>
      </trkpt>
      <trkpt lat="45.18522" lon="0.72031">
        <ele>108.4</ele>
        <time>2021-10-24T12:51:41Z</time>
      </trkpt>
      <trkpt lat="45.18522" lon="0.72031">
        <ele>108.4</ele>
        <time>2021-10-24T12:51:42Z</time>
      </trkpt>
      <trkpt lat="45.18521" lon="0.72031">
        <ele>108.4</ele>
        <time>2021-10-24T12:51:44Z</time>
      </trkpt>
      <trkpt lat="45.18521" lon="0.72031">
        <ele>108.5</ele>
        <time>2021-10-24T12:51:45Z</time>
      </trkpt>
      <trkpt lat="45.1852" lon="0.72031">
        <ele>108.5</ele>
        <time>2021-10-24T12:51:46Z</time>
      </trkpt>
      <trkpt lat="45.1852" lon="0.72032">
        <ele>108.6</ele>
        <time>2021-10-24T12:51:48Z</time>
      </trkpt>
      <trkpt lat="45.18519" lon="0.72032">
        <ele>108.7</ele>
        <time>2021-10-24T12:51:49Z</time>
      </trkpt>
      <trkpt lat="45.18517" lon="0.72032">
        <ele>108.9</ele>
        <time>2021-10-24T12:51:50Z</time>
      </trkpt>
      <trkpt lat="45.18516" lon="0.72032">
        <ele>108.9</ele>
        <time>2021-10-24T12:51:51Z</time>
      </trkpt>
      <trkpt lat="45.18515" lon="0.72032">
        <ele>109</ele>
        <time>2021-10-24T12:51:52Z</time>
      </trkpt>
      <trkpt lat="45.18513" lon="0.72032">
        <ele>109.2</ele>
        <time>2021-10-24T12:51:53Z</time>
      </trkpt>
      <trkpt lat="45.18511" lon="0.72032">
        <ele>109.4</ele>
        <time>2021-10-24T12:51:55Z</time>
      </trkpt>
      <trkpt lat="45.1851" lon="0.72032">
        <ele>109.5</ele>
        <time>2021-10-24T12:51:56Z</time>
      </trkpt>
      <trkpt lat="45.1851" lon="0.72033">
        <ele>109.6</ele>
        <time>2021-10-24T12:51:57Z</time>
      </trkpt>
      <trkpt lat="45.18509" lon="0.72032">
        <ele>109.6</ele>
        <time>2021-10-24T12:51:58Z</time>
      </trkpt>
      <trkpt lat="45.18508" lon="0.72032">
        <ele>109.7</ele>
        <time>2021-10-24T12:51:59Z</time>
      </trkpt>
      <trkpt lat="45.18506" lon="0.72031">
        <ele>109.9</ele>
        <time>2021-10-24T12:52:00Z</time>
      </trkpt>
      <trkpt lat="45.18505" lon="0.7203">
        <ele>110</ele>
        <time>2021-10-24T12:52:02Z</time>
      </trkpt>
      <trkpt lat="45.18505" lon="0.72029">
        <ele>110.1</ele>
        <time>2021-10-24T12:52:03Z</time>
      </trkpt>
      <trkpt lat="45.18504" lon="0.72028">
        <ele>110.3</ele>
        <time>2021-10-24T12:52:04Z</time>
      </trkpt>
      <trkpt lat="45.18503" lon="0.72026">
        <ele>110.5</ele>
        <time>2021-10-24T12:52:06Z</time>
      </trkpt>
      <trkpt lat="45.18501" lon="0.72025">
        <ele>110.6</ele>
        <time>2021-10-24T12:52:07Z</time>
      </trkpt>
      <trkpt lat="45.185" lon="0.72024">
        <ele>110.8</ele>
        <time>2021-10-24T12:52:08Z</time>
      </trkpt>
      <trkpt lat="45.18499" lon="0.72023">
        <ele>110.9</ele>
        <time>2021-10-24T12:52:09Z</time>
      </trkpt>
      <trkpt lat="45.18498" lon="0.72021">
        <ele>111.1</ele>
        <time>2021-10-24T12:52:10Z</time>
      </trkpt>
      <trkpt lat="45.18496" lon="0.7202">
        <ele>111.3</ele>
        <time>2021-10-24T12:52:12Z</time>
      </trkpt>
      <trkpt lat="45.18496" lon="0.72019">
        <ele>111.4</ele>
        <time>2021-10-24T12:52:13Z</time>
      </trkpt>
      <trkpt lat="45.18495" lon="0.72019">
        <ele>111.5</ele>
        <time>2021-10-24T12:52:14Z</time>
      </trkpt>
      <trkpt lat="45.18494" lon="0.72019">
        <ele>111.5</ele>
        <time>2021-10-24T12:52:16Z</time>
      </trkpt>
      <trkpt lat="45.18493" lon="0.7202">
        <ele>111.6</ele>
        <time>2021-10-24T12:52:17Z</time>
      </trkpt>
      <trkpt lat="45.18492" lon="0.7202">
        <ele>111.7</ele>
        <time>2021-10-24T12:52:18Z</time>
      </trkpt>
      <trkpt lat="45.18492" lon="0.72021">
        <ele>111.8</ele>
        <time>2021-10-24T12:52:20Z</time>
      </trkpt>
      <trkpt lat="45.18492" lon="0.72022">
        <ele>111.9</ele>
        <time>2021-10-24T12:52:22Z</time>
      </trkpt>
      <trkpt lat="45.18492" lon="0.72022">
        <ele>111.9</ele>
        <time>2021-10-24T12:52:23Z</time>
      </trkpt>
      <trkpt lat="45.18492" lon="0.72022">
        <ele>112</ele>
        <time>2021-10-24T12:52:24Z</time>
      </trkpt>
      <trkpt lat="45.18491" lon="0.72023">
        <ele>112</ele>
        <time>2021-10-24T12:52:25Z</time>
      </trkpt>
      <trkpt lat="45.1849" lon="0.72023">
        <ele>112.1</ele>
        <time>2021-10-24T12:52:26Z</time>
      </trkpt>
      <trkpt lat="45.18488" lon="0.72023">
        <ele>112.3</ele>
        <time>2021-10-24T12:52:28Z</time>
      </trkpt>
      <trkpt lat="45.18487" lon="0.72023">
        <ele>112.5</ele>
        <time>2021-10-24T12:52:29Z</time>
      </trkpt>
      <trkpt lat="45.18486" lon="0.72023">
        <ele>112.6</ele>
        <time>2021-10-24T12:52:30Z</time>
      </trkpt>
      <trkpt lat="45.18484" lon="0.72024">
        <ele>112.4</ele>
        <time>2021-10-24T12:52:31Z</time>
      </trkpt>
      <trkpt lat="45.18484" lon="0.72024">
        <ele>112.3</ele>
        <time>2021-10-24T12:52:32Z</time>
      </trkpt>
      <trkpt lat="45.18482" lon="0.72024">
        <ele>112.2</ele>
        <time>2021-10-24T12:52:33Z</time>
      </trkpt>
      <trkpt lat="45.18481" lon="0.72024">
        <ele>112</ele>
        <time>2021-10-24T12:52:35Z</time>
      </trkpt>
      <trkpt lat="45.18479" lon="0.72023">
        <ele>111.9</ele>
        <time>2021-10-24T12:52:36Z</time>
      </trkpt>
      <trkpt lat="45.18478" lon="0.72023">
        <ele>111.7</ele>
        <time>2021-10-24T12:52:37Z</time>
      </trkpt>
      <trkpt lat="45.18478" lon="0.72023">
        <ele>111.6</ele>
        <time>2021-10-24T12:52:38Z</time>
      </trkpt>
      <trkpt lat="45.18477" lon="0.72022">
        <ele>111.5</ele>
        <time>2021-10-24T12:52:39Z</time>
      </trkpt>
      <trkpt lat="45.18475" lon="0.72021">
        <ele>111.4</ele>
        <time>2021-10-24T12:52:41Z</time>
      </trkpt>
      <trkpt lat="45.18474" lon="0.72021">
        <ele>111.3</ele>
        <time>2021-10-24T12:52:42Z</time>
      </trkpt>
      <trkpt lat="45.18473" lon="0.72019">
        <ele>111.2</ele>
        <time>2021-10-24T12:52:43Z</time>
      </trkpt>
      <trkpt lat="45.18473" lon="0.72019">
        <ele>111.1</ele>
        <time>2021-10-24T12:52:44Z</time>
      </trkpt>
      <trkpt lat="45.18473" lon="0.72018">
        <ele>111</ele>
        <time>2021-10-24T12:52:45Z</time>
      </trkpt>
      <trkpt lat="45.18472" lon="0.72018">
        <ele>111</ele>
        <time>2021-10-24T12:52:47Z</time>
      </trkpt>
      <trkpt lat="45.18471" lon="0.72017">
        <ele>110.9</ele>
        <time>2021-10-24T12:52:49Z</time>
      </trkpt>
      <trkpt lat="45.18471" lon="0.72017">
        <ele>110.8</ele>
        <time>2021-10-24T12:52:50Z</time>
      </trkpt>
      <trkpt lat="45.1847" lon="0.72017">
        <ele>110.8</ele>
        <time>2021-10-24T12:52:52Z</time>
      </trkpt>
      <trkpt lat="45.1847" lon="0.72017">
        <ele>110.8</ele>
        <time>2021-10-24T12:52:53Z</time>
      </trkpt>
      <trkpt lat="45.1847" lon="0.72018">
        <ele>110.8</ele>
        <time>2021-10-24T12:52:55Z</time>
      </trkpt>
      <trkpt lat="45.1847" lon="0.72018">
        <ele>110.7</ele>
        <time>2021-10-24T12:52:56Z</time>
      </trkpt>
      <trkpt lat="45.1847" lon="0.72018">
        <ele>110.7</ele>
        <time>2021-10-24T12:52:58Z</time>
      </trkpt>
      <trkpt lat="45.1847" lon="0.72018">
        <ele>110.7</ele>
        <time>2021-10-24T12:52:59Z</time>
      </trkpt>
      <trkpt lat="45.1847" lon="0.72018">
        <ele>110.7</ele>
        <time>2021-10-24T12:53:00Z</time>
      </trkpt>
      <trkpt lat="45.18469" lon="0.72019">
        <ele>110.6</ele>
        <time>2021-10-24T12:53:02Z</time>
      </trkpt>
      <trkpt lat="45.18469" lon="0.7202">
        <ele>110.5</ele>
        <time>2021-10-24T12:53:03Z</time>
      </trkpt>
      <trkpt lat="45.18468" lon="0.72021">
        <ele>110.4</ele>
        <time>2021-10-24T12:53:04Z</time>
      </trkpt>
      <trkpt lat="45.18468" lon="0.72021">
        <ele>110.4</ele>
        <time>2021-10-24T12:53:05Z</time>
      </trkpt>
      <trkpt lat="45.18467" lon="0.72021">
        <ele>110.3</ele>
        <time>2021-10-24T12:53:07Z</time>
      </trkpt>
      <trkpt lat="45.18467" lon="0.72021">
        <ele>110.3</ele>
        <time>2021-10-24T12:53:08Z</time>
      </trkpt>
      <trkpt lat="45.18467" lon="0.72021">
        <ele>110.3</ele>
        <time>2021-10-24T12:53:09Z</time>
      </trkpt>
      <trkpt lat="45.18467" lon="0.72021">
        <ele>110.3</ele>
        <time>2021-10-24T12:53:11Z</time>
      </trkpt>
      <trkpt lat="45.18467" lon="0.72021">
        <ele>110.3</ele>
        <time>2021-10-24T12:53:12Z</time>
      </trkpt>
      <trkpt lat="45.18467" lon="0.72021">
        <ele>110.3</ele>
        <time>2021-10-24T12:53:14Z</time>
      </trkpt>
      <trkpt lat="45.18466" lon="0.72021">
        <ele>110.3</ele>
        <time>2021-10-24T12:53:15Z</time>
      </trkpt>
      <trkpt lat="45.18466" lon="0.72021">
        <ele>110.3</ele>
        <time>2021-10-24T12:53:16Z</time>
      </trkpt>
      <trkpt lat="45.18466" lon="0.72021">
        <ele>110.2</ele>
        <time>2021-10-24T12:53:18Z</time>
      </trkpt>
      <trkpt lat="45.18466" lon="0.72021">
        <ele>110.2</ele>
        <time>2021-10-24T12:53:20Z</time>
      </trkpt>
      <trkpt lat="45.18466" lon="0.72021">
        <ele>110.2</ele>
        <time>2021-10-24T12:53:22Z</time>
      </trkpt>
      <trkpt lat="45.18466" lon="0.72021">
        <ele>110.2</ele>
        <time>2021-10-24T12:53:23Z</time>
      </trkpt>
      <trkpt lat="45.18466" lon="0.72021">
        <ele>110.2</ele>
        <time>2021-10-24T12:53:25Z</time>
      </trkpt>
      <trkpt lat="45.18466" lon="0.72022">
        <ele>110.1</ele>
        <time>2021-10-24T12:53:26Z</time>
      </trkpt>
      <trkpt lat="45.18465" lon="0.72023">
        <ele>110</ele>
        <time>2021-10-24T12:53:27Z</time>
      </trkpt>
      <trkpt lat="45.18465" lon="0.72025">
        <ele>109.9</ele>
        <time>2021-10-24T12:53:28Z</time>
      </trkpt>
      <trkpt lat="45.18465" lon="0.72026">
        <ele>109.8</ele>
        <time>2021-10-24T12:53:30Z</time>
      </trkpt>
      <trkpt lat="45.18465" lon="0.72027">
        <ele>109.8</ele>
        <time>2021-10-24T12:53:31Z</time>
      </trkpt>
      <trkpt lat="45.18465" lon="0.72028">
        <ele>109.7</ele>
        <time>2021-10-24T12:53:32Z</time>
      </trkpt>
      <trkpt lat="45.18464" lon="0.72029">
        <ele>109.5</ele>
        <time>2021-10-24T12:53:34Z</time>
      </trkpt>
      <trkpt lat="45.18464" lon="0.72031">
        <ele>109.5</ele>
        <time>2021-10-24T12:53:35Z</time>
      </trkpt>
      <trkpt lat="45.18464" lon="0.72032">
        <ele>109.2</ele>
        <time>2021-10-24T12:53:36Z</time>
      </trkpt>
      <trkpt lat="45.18463" lon="0.72034">
        <ele>109.2</ele>
        <time>2021-10-24T12:53:37Z</time>
      </trkpt>
      <trkpt lat="45.18463" lon="0.72035">
        <ele>109.1</ele>
        <time>2021-10-24T12:53:39Z</time>
      </trkpt>
      <trkpt lat="45.18463" lon="0.72036">
        <ele>109</ele>
        <time>2021-10-24T12:53:40Z</time>
      </trkpt>
      <trkpt lat="45.18462" lon="0.72038">
        <ele>109</ele>
        <time>2021-10-24T12:53:41Z</time>
      </trkpt>
      <trkpt lat="45.18462" lon="0.72039">
        <ele>108.9</ele>
        <time>2021-10-24T12:53:42Z</time>
      </trkpt>
      <trkpt lat="45.18461" lon="0.7204">
        <ele>108.9</ele>
        <time>2021-10-24T12:53:44Z</time>
      </trkpt>
      <trkpt lat="45.18461" lon="0.72042">
        <ele>108.9</ele>
        <time>2021-10-24T12:53:45Z</time>
      </trkpt>
      <trkpt lat="45.1846" lon="0.72045">
        <ele>108.9</ele>
        <time>2021-10-24T12:53:46Z</time>
      </trkpt>
      <trkpt lat="45.1846" lon="0.72046">
        <ele>108.9</ele>
        <time>2021-10-24T12:53:47Z</time>
      </trkpt>
      <trkpt lat="45.1846" lon="0.72047">
        <ele>108.9</ele>
        <time>2021-10-24T12:53:48Z</time>
      </trkpt>
      <trkpt lat="45.1846" lon="0.72049">
        <ele>108.9</ele>
        <time>2021-10-24T12:53:50Z</time>
      </trkpt>
      <trkpt lat="45.18459" lon="0.7205">
        <ele>109</ele>
        <time>2021-10-24T12:53:51Z</time>
      </trkpt>
      <trkpt lat="45.18459" lon="0.72051">
        <ele>109</ele>
        <time>2021-10-24T12:53:52Z</time>
      </trkpt>
      <trkpt lat="45.18458" lon="0.72054">
        <ele>109</ele>
        <time>2021-10-24T12:53:53Z</time>
      </trkpt>
      <trkpt lat="45.18458" lon="0.72055">
        <ele>109</ele>
        <time>2021-10-24T12:53:55Z</time>
      </trkpt>
      <trkpt lat="45.18457" lon="0.72056">
        <ele>109</ele>
        <time>2021-10-24T12:53:56Z</time>
      </trkpt>
      <trkpt lat="45.18457" lon="0.72057">
        <ele>109</ele>
        <time>2021-10-24T12:53:57Z</time>
      </trkpt>
      <trkpt lat="45.18456" lon="0.72058">
        <ele>109</ele>
        <time>2021-10-24T12:53:58Z</time>
      </trkpt>
      <trkpt lat="45.18456" lon="0.72059">
        <ele>109.1</ele>
        <time>2021-10-24T12:53:59Z</time>
      </trkpt>
      <trkpt lat="45.18456" lon="0.7206">
        <ele>109.1</ele>
        <time>2021-10-24T12:54:00Z</time>
      </trkpt>
      <trkpt lat="45.18456" lon="0.72062">
        <ele>109.1</ele>
        <time>2021-10-24T12:54:02Z</time>
      </trkpt>
      <trkpt lat="45.18455" lon="0.72063">
        <ele>109.1</ele>
        <time>2021-10-24T12:54:03Z</time>
      </trkpt>
      <trkpt lat="45.18455" lon="0.72064">
        <ele>109.1</ele>
        <time>2021-10-24T12:54:04Z</time>
      </trkpt>
      <trkpt lat="45.18454" lon="0.72066">
        <ele>109.1</ele>
        <time>2021-10-24T12:54:06Z</time>
      </trkpt>
      <trkpt lat="45.18453" lon="0.72066">
        <ele>109.1</ele>
        <time>2021-10-24T12:54:07Z</time>
      </trkpt>
      <trkpt lat="45.18453" lon="0.72067">
        <ele>109.1</ele>
        <time>2021-10-24T12:54:08Z</time>
      </trkpt>
      <trkpt lat="45.18453" lon="0.72068">
        <ele>109.1</ele>
        <time>2021-10-24T12:54:09Z</time>
      </trkpt>
      <trkpt lat="45.18452" lon="0.72069">
        <ele>109.1</ele>
        <time>2021-10-24T12:54:10Z</time>
      </trkpt>
      <trkpt lat="45.18452" lon="0.72071">
        <ele>109.2</ele>
        <time>2021-10-24T12:54:12Z</time>
      </trkpt>
      <trkpt lat="45.18451" lon="0.72072">
        <ele>109.2</ele>
        <time>2021-10-24T12:54:13Z</time>
      </trkpt>
      <trkpt lat="45.18451" lon="0.72074">
        <ele>109.2</ele>
        <time>2021-10-24T12:54:14Z</time>
      </trkpt>
      <trkpt lat="45.18451" lon="0.72075">
        <ele>109.2</ele>
        <time>2021-10-24T12:54:15Z</time>
      </trkpt>
      <trkpt lat="45.1845" lon="0.72076">
        <ele>109.2</ele>
        <time>2021-10-24T12:54:17Z</time>
      </trkpt>
      <trkpt lat="45.1845" lon="0.72077">
        <ele>109.2</ele>
        <time>2021-10-24T12:54:18Z</time>
      </trkpt>
      <trkpt lat="45.1845" lon="0.72078">
        <ele>109.2</ele>
        <time>2021-10-24T12:54:19Z</time>
      </trkpt>
      <trkpt lat="45.18449" lon="0.72079">
        <ele>109.3</ele>
        <time>2021-10-24T12:54:20Z</time>
      </trkpt>
      <trkpt lat="45.18448" lon="0.7208">
        <ele>109.3</ele>
        <time>2021-10-24T12:54:21Z</time>
      </trkpt>
      <trkpt lat="45.18447" lon="0.7208">
        <ele>109.3</ele>
        <time>2021-10-24T12:54:22Z</time>
      </trkpt>
      <trkpt lat="45.18447" lon="0.72081">
        <ele>109.3</ele>
        <time>2021-10-24T12:54:24Z</time>
      </trkpt>
      <trkpt lat="45.18447" lon="0.72083">
        <ele>109.3</ele>
        <time>2021-10-24T12:54:25Z</time>
      </trkpt>
      <trkpt lat="45.18447" lon="0.72085">
        <ele>109.3</ele>
        <time>2021-10-24T12:54:26Z</time>
      </trkpt>
      <trkpt lat="45.18447" lon="0.72086">
        <ele>109.3</ele>
        <time>2021-10-24T12:54:27Z</time>
      </trkpt>
      <trkpt lat="45.18447" lon="0.72087">
        <ele>109.3</ele>
        <time>2021-10-24T12:54:29Z</time>
      </trkpt>
      <trkpt lat="45.18448" lon="0.72088">
        <ele>109.4</ele>
        <time>2021-10-24T12:54:31Z</time>
      </trkpt>
      <trkpt lat="45.18449" lon="0.72088">
        <ele>109.4</ele>
        <time>2021-10-24T12:54:32Z</time>
      </trkpt>
      <trkpt lat="45.1845" lon="0.72089">
        <ele>109.4</ele>
        <time>2021-10-24T12:54:34Z</time>
      </trkpt>
      <trkpt lat="45.18451" lon="0.7209">
        <ele>109.4</ele>
        <time>2021-10-24T12:54:35Z</time>
      </trkpt>
      <trkpt lat="45.18451" lon="0.72091">
        <ele>109.4</ele>
        <time>2021-10-24T12:54:37Z</time>
      </trkpt>
      <trkpt lat="45.18452" lon="0.72092">
        <ele>109.4</ele>
        <time>2021-10-24T12:54:38Z</time>
      </trkpt>
      <trkpt lat="45.18452" lon="0.72093">
        <ele>109.5</ele>
        <time>2021-10-24T12:54:39Z</time>
      </trkpt>
      <trkpt lat="45.18452" lon="0.72095">
        <ele>109.5</ele>
        <time>2021-10-24T12:54:41Z</time>
      </trkpt>
      <trkpt lat="45.18451" lon="0.72097">
        <ele>109.5</ele>
        <time>2021-10-24T12:54:42Z</time>
      </trkpt>
      <trkpt lat="45.18451" lon="0.72097">
        <ele>109.5</ele>
        <time>2021-10-24T12:54:43Z</time>
      </trkpt>
      <trkpt lat="45.18451" lon="0.72097">
        <ele>109.5</ele>
        <time>2021-10-24T12:54:45Z</time>
      </trkpt>
      <trkpt lat="45.1845" lon="0.72097">
        <ele>109.5</ele>
        <time>2021-10-24T12:54:47Z</time>
      </trkpt>
      <trkpt lat="45.1845" lon="0.72097">
        <ele>109.5</ele>
        <time>2021-10-24T12:54:48Z</time>
      </trkpt>
      <trkpt lat="45.1845" lon="0.72097">
        <ele>109.5</ele>
        <time>2021-10-24T12:54:49Z</time>
      </trkpt>
      <trkpt lat="45.1845" lon="0.72098">
        <ele>109.5</ele>
        <time>2021-10-24T12:54:50Z</time>
      </trkpt>
      <trkpt lat="45.18449" lon="0.72098">
        <ele>109.5</ele>
        <time>2021-10-24T12:54:52Z</time>
      </trkpt>
      <trkpt lat="45.1845" lon="0.721">
        <ele>109.6</ele>
        <time>2021-10-24T12:54:53Z</time>
      </trkpt>
      <trkpt lat="45.1845" lon="0.72101">
        <ele>109.6</ele>
        <time>2021-10-24T12:54:54Z</time>
      </trkpt>
      <trkpt lat="45.1845" lon="0.72102">
        <ele>109.6</ele>
        <time>2021-10-24T12:54:55Z</time>
      </trkpt>
      <trkpt lat="45.18449" lon="0.72104">
        <ele>109.6</ele>
        <time>2021-10-24T12:54:56Z</time>
      </trkpt>
      <trkpt lat="45.18448" lon="0.72107">
        <ele>109.6</ele>
        <time>2021-10-24T12:54:58Z</time>
      </trkpt>
      <trkpt lat="45.18447" lon="0.72108">
        <ele>109.6</ele>
        <time>2021-10-24T12:54:59Z</time>
      </trkpt>
      <trkpt lat="45.18447" lon="0.72109">
        <ele>109.6</ele>
        <time>2021-10-24T12:55:00Z</time>
      </trkpt>
      <trkpt lat="45.18446" lon="0.7211">
        <ele>109.6</ele>
        <time>2021-10-24T12:55:01Z</time>
      </trkpt>
      <trkpt lat="45.18446" lon="0.7211">
        <ele>109.6</ele>
        <time>2021-10-24T12:55:03Z</time>
      </trkpt>
      <trkpt lat="45.18445" lon="0.72111">
        <ele>109.7</ele>
        <time>2021-10-24T12:55:04Z</time>
      </trkpt>
      <trkpt lat="45.18445" lon="0.72114">
        <ele>109.7</ele>
        <time>2021-10-24T12:55:05Z</time>
      </trkpt>
      <trkpt lat="45.18445" lon="0.72115">
        <ele>109.7</ele>
        <time>2021-10-24T12:55:07Z</time>
      </trkpt>
      <trkpt lat="45.18445" lon="0.72116">
        <ele>109.7</ele>
        <time>2021-10-24T12:55:08Z</time>
      </trkpt>
      <trkpt lat="45.18445" lon="0.72118">
        <ele>109.7</ele>
        <time>2021-10-24T12:55:09Z</time>
      </trkpt>
      <trkpt lat="45.18445" lon="0.72119">
        <ele>109.7</ele>
        <time>2021-10-24T12:55:10Z</time>
      </trkpt>
      <trkpt lat="45.18445" lon="0.7212">
        <ele>109.7</ele>
        <time>2021-10-24T12:55:11Z</time>
      </trkpt>
      <trkpt lat="45.18445" lon="0.72122">
        <ele>109.7</ele>
        <time>2021-10-24T12:55:13Z</time>
      </trkpt>
      <trkpt lat="45.18445" lon="0.72123">
        <ele>109.7</ele>
        <time>2021-10-24T12:55:14Z</time>
      </trkpt>
      <trkpt lat="45.18445" lon="0.72124">
        <ele>109.8</ele>
        <time>2021-10-24T12:55:15Z</time>
      </trkpt>
      <trkpt lat="45.18444" lon="0.72125">
        <ele>109.8</ele>
        <time>2021-10-24T12:55:17Z</time>
      </trkpt>
      <trkpt lat="45.18444" lon="0.72126">
        <ele>109.8</ele>
        <time>2021-10-24T12:55:18Z</time>
      </trkpt>
      <trkpt lat="45.18443" lon="0.72127">
        <ele>109.8</ele>
        <time>2021-10-24T12:55:19Z</time>
      </trkpt>
      <trkpt lat="45.18442" lon="0.72128">
        <ele>109.8</ele>
        <time>2021-10-24T12:55:20Z</time>
      </trkpt>
      <trkpt lat="45.18442" lon="0.72128">
        <ele>109.8</ele>
        <time>2021-10-24T12:55:21Z</time>
      </trkpt>
      <trkpt lat="45.18442" lon="0.72128">
        <ele>109.8</ele>
        <time>2021-10-24T12:55:23Z</time>
      </trkpt>
      <trkpt lat="45.18442" lon="0.72128">
        <ele>109.8</ele>
        <time>2021-10-24T12:55:25Z</time>
      </trkpt>
      <trkpt lat="45.18442" lon="0.72128">
        <ele>109.8</ele>
        <time>2021-10-24T12:55:26Z</time>
      </trkpt>
      <trkpt lat="45.18442" lon="0.72129">
        <ele>109.8</ele>
        <time>2021-10-24T12:55:28Z</time>
      </trkpt>
      <trkpt lat="45.18442" lon="0.72129">
        <ele>109.8</ele>
        <time>2021-10-24T12:55:30Z</time>
      </trkpt>
      <trkpt lat="45.18442" lon="0.72129">
        <ele>109.8</ele>
        <time>2021-10-24T12:55:32Z</time>
      </trkpt>
      <trkpt lat="45.18441" lon="0.72129">
        <ele>109.8</ele>
        <time>2021-10-24T12:55:34Z</time>
      </trkpt>
      <trkpt lat="45.18441" lon="0.72129">
        <ele>109.8</ele>
        <time>2021-10-24T12:55:35Z</time>
      </trkpt>
      <trkpt lat="45.18441" lon="0.7213">
        <ele>109.8</ele>
        <time>2021-10-24T12:55:36Z</time>
      </trkpt>
      <trkpt lat="45.1844" lon="0.7213">
        <ele>109.8</ele>
        <time>2021-10-24T12:55:38Z</time>
      </trkpt>
      <trkpt lat="45.18439" lon="0.72131">
        <ele>109.8</ele>
        <time>2021-10-24T12:55:39Z</time>
      </trkpt>
      <trkpt lat="45.18437" lon="0.72131">
        <ele>109.8</ele>
        <time>2021-10-24T12:55:41Z</time>
      </trkpt>
      <trkpt lat="45.18436" lon="0.72131">
        <ele>109.7</ele>
        <time>2021-10-24T12:55:42Z</time>
      </trkpt>
      <trkpt lat="45.18433" lon="0.72131">
        <ele>109.7</ele>
        <time>2021-10-24T12:55:43Z</time>
      </trkpt>
      <trkpt lat="45.18432" lon="0.72131">
        <ele>109.7</ele>
        <time>2021-10-24T12:55:44Z</time>
      </trkpt>
      <trkpt lat="45.18432" lon="0.72131">
        <ele>109.7</ele>
        <time>2021-10-24T12:55:45Z</time>
      </trkpt>
      <trkpt lat="45.1843" lon="0.72132">
        <ele>109.6</ele>
        <time>2021-10-24T12:55:46Z</time>
      </trkpt>
      <trkpt lat="45.18428" lon="0.72132">
        <ele>109.6</ele>
        <time>2021-10-24T12:55:48Z</time>
      </trkpt>
      <trkpt lat="45.18427" lon="0.72132">
        <ele>109.6</ele>
        <time>2021-10-24T12:55:49Z</time>
      </trkpt>
      <trkpt lat="45.18426" lon="0.72131">
        <ele>109.5</ele>
        <time>2021-10-24T12:55:50Z</time>
      </trkpt>
      <trkpt lat="45.18424" lon="0.72131">
        <ele>109.5</ele>
        <time>2021-10-24T12:55:51Z</time>
      </trkpt>
      <trkpt lat="45.18423" lon="0.72131">
        <ele>109.5</ele>
        <time>2021-10-24T12:55:52Z</time>
      </trkpt>
      <trkpt lat="45.18422" lon="0.7213">
        <ele>109.5</ele>
        <time>2021-10-24T12:55:53Z</time>
      </trkpt>
      <trkpt lat="45.18422" lon="0.7213">
        <ele>109.4</ele>
        <time>2021-10-24T12:55:54Z</time>
      </trkpt>
      <trkpt lat="45.18421" lon="0.72129">
        <ele>109.4</ele>
        <time>2021-10-24T12:55:55Z</time>
      </trkpt>
      <trkpt lat="45.1842" lon="0.72129">
        <ele>109.4</ele>
        <time>2021-10-24T12:55:57Z</time>
      </trkpt>
      <trkpt lat="45.18419" lon="0.72128">
        <ele>109.4</ele>
        <time>2021-10-24T12:55:58Z</time>
      </trkpt>
      <trkpt lat="45.18418" lon="0.72128">
        <ele>109.3</ele>
        <time>2021-10-24T12:55:59Z</time>
      </trkpt>
      <trkpt lat="45.18418" lon="0.72127">
        <ele>109.3</ele>
        <time>2021-10-24T12:56:00Z</time>
      </trkpt>
      <trkpt lat="45.18417" lon="0.72126">
        <ele>109.3</ele>
        <time>2021-10-24T12:56:02Z</time>
      </trkpt>
      <trkpt lat="45.18417" lon="0.72125">
        <ele>109.3</ele>
        <time>2021-10-24T12:56:03Z</time>
      </trkpt>
      <trkpt lat="45.18417" lon="0.72125">
        <ele>109.3</ele>
        <time>2021-10-24T12:56:05Z</time>
      </trkpt>
      <trkpt lat="45.18417" lon="0.72125">
        <ele>109.3</ele>
        <time>2021-10-24T12:56:06Z</time>
      </trkpt>
      <trkpt lat="45.18417" lon="0.72125">
        <ele>109.3</ele>
        <time>2021-10-24T12:56:07Z</time>
      </trkpt>
      <trkpt lat="45.18416" lon="0.72126">
        <ele>109.4</ele>
        <time>2021-10-24T12:56:09Z</time>
      </trkpt>
      <trkpt lat="45.18416" lon="0.72126">
        <ele>109.4</ele>
        <time>2021-10-24T12:56:10Z</time>
      </trkpt>
      <trkpt lat="45.18416" lon="0.72127">
        <ele>109.4</ele>
        <time>2021-10-24T12:56:12Z</time>
      </trkpt>
      <trkpt lat="45.18416" lon="0.72126">
        <ele>109.4</ele>
        <time>2021-10-24T12:56:13Z</time>
      </trkpt>
      <trkpt lat="45.18416" lon="0.72124">
        <ele>109.4</ele>
        <time>2021-10-24T12:56:15Z</time>
      </trkpt>
      <trkpt lat="45.18415" lon="0.72123">
        <ele>109.4</ele>
        <time>2021-10-24T12:56:16Z</time>
      </trkpt>
      <trkpt lat="45.18414" lon="0.72119">
        <ele>109.5</ele>
        <time>2021-10-24T12:56:18Z</time>
      </trkpt>
      <trkpt lat="45.18414" lon="0.72118">
        <ele>109.5</ele>
        <time>2021-10-24T12:56:19Z</time>
      </trkpt>
      <trkpt lat="45.18414" lon="0.72118">
        <ele>109.5</ele>
        <time>2021-10-24T12:56:20Z</time>
      </trkpt>
      <trkpt lat="45.18414" lon="0.72116">
        <ele>109.5</ele>
        <time>2021-10-24T12:56:21Z</time>
      </trkpt>
      <trkpt lat="45.18413" lon="0.72114">
        <ele>109.5</ele>
        <time>2021-10-24T12:56:22Z</time>
      </trkpt>
      <trkpt lat="45.18413" lon="0.72111">
        <ele>109.6</ele>
        <time>2021-10-24T12:56:24Z</time>
      </trkpt>
      <trkpt lat="45.18412" lon="0.7211">
        <ele>109.6</ele>
        <time>2021-10-24T12:56:25Z</time>
      </trkpt>
      <trkpt lat="45.18412" lon="0.72109">
        <ele>109.6</ele>
        <time>2021-10-24T12:56:26Z</time>
      </trkpt>
      <trkpt lat="45.18413" lon="0.72108">
        <ele>109.6</ele>
        <time>2021-10-24T12:56:27Z</time>
      </trkpt>
      <trkpt lat="45.18413" lon="0.72107">
        <ele>109.6</ele>
        <time>2021-10-24T12:56:28Z</time>
      </trkpt>
      <trkpt lat="45.18412" lon="0.72106">
        <ele>109.6</ele>
        <time>2021-10-24T12:56:30Z</time>
      </trkpt>
      <trkpt lat="45.18412" lon="0.72105">
        <ele>109.7</ele>
        <time>2021-10-24T12:56:31Z</time>
      </trkpt>
      <trkpt lat="45.18412" lon="0.72104">
        <ele>109.7</ele>
        <time>2021-10-24T12:56:32Z</time>
      </trkpt>
      <trkpt lat="45.18411" lon="0.72103">
        <ele>109.7</ele>
        <time>2021-10-24T12:56:33Z</time>
      </trkpt>
      <trkpt lat="45.18409" lon="0.72101">
        <ele>109.7</ele>
        <time>2021-10-24T12:56:35Z</time>
      </trkpt>
      <trkpt lat="45.18408" lon="0.72099">
        <ele>109.8</ele>
        <time>2021-10-24T12:56:36Z</time>
      </trkpt>
      <trkpt lat="45.18407" lon="0.72098">
        <ele>109.9</ele>
        <time>2021-10-24T12:56:37Z</time>
      </trkpt>
      <trkpt lat="45.18406" lon="0.72097">
        <ele>109.9</ele>
        <time>2021-10-24T12:56:39Z</time>
      </trkpt>
      <trkpt lat="45.18405" lon="0.72096">
        <ele>110</ele>
        <time>2021-10-24T12:56:40Z</time>
      </trkpt>
      <trkpt lat="45.18404" lon="0.72095">
        <ele>110</ele>
        <time>2021-10-24T12:56:41Z</time>
      </trkpt>
      <trkpt lat="45.18404" lon="0.72095">
        <ele>110</ele>
        <time>2021-10-24T12:56:42Z</time>
      </trkpt>
      <trkpt lat="45.18404" lon="0.72095">
        <ele>110</ele>
        <time>2021-10-24T12:56:43Z</time>
      </trkpt>
      <trkpt lat="45.18404" lon="0.72095">
        <ele>110</ele>
        <time>2021-10-24T12:56:45Z</time>
      </trkpt>
      <trkpt lat="45.18404" lon="0.72095">
        <ele>110</ele>
        <time>2021-10-24T12:56:46Z</time>
      </trkpt>
      <trkpt lat="45.18404" lon="0.72094">
        <ele>110</ele>
        <time>2021-10-24T12:56:47Z</time>
      </trkpt>
      <trkpt lat="45.18404" lon="0.72094">
        <ele>110</ele>
        <time>2021-10-24T12:56:48Z</time>
      </trkpt>
      <trkpt lat="45.18404" lon="0.72094">
        <ele>110</ele>
        <time>2021-10-24T12:56:50Z</time>
      </trkpt>
      <trkpt lat="45.18404" lon="0.72094">
        <ele>110</ele>
        <time>2021-10-24T12:56:51Z</time>
      </trkpt>
      <trkpt lat="45.18404" lon="0.72094">
        <ele>110</ele>
        <time>2021-10-24T12:56:53Z</time>
      </trkpt>
      <trkpt lat="45.18404" lon="0.72094">
        <ele>110</ele>
        <time>2021-10-24T12:56:54Z</time>
      </trkpt>
      <trkpt lat="45.18404" lon="0.72094">
        <ele>110</ele>
        <time>2021-10-24T12:56:56Z</time>
      </trkpt>
      <trkpt lat="45.18404" lon="0.72094">
        <ele>110</ele>
        <time>2021-10-24T12:56:57Z</time>
      </trkpt>
      <trkpt lat="45.18404" lon="0.72094">
        <ele>110</ele>
        <time>2021-10-24T12:56:58Z</time>
      </trkpt>
      <trkpt lat="45.18404" lon="0.72094">
        <ele>110</ele>
        <time>2021-10-24T12:57:00Z</time>
      </trkpt>
      <trkpt lat="45.18404" lon="0.72093">
        <ele>110</ele>
        <time>2021-10-24T12:57:02Z</time>
      </trkpt>
      <trkpt lat="45.18404" lon="0.72092">
        <ele>110</ele>
        <time>2021-10-24T12:57:03Z</time>
      </trkpt>
      <trkpt lat="45.18404" lon="0.72092">
        <ele>110</ele>
        <time>2021-10-24T12:57:04Z</time>
      </trkpt>
      <trkpt lat="45.18404" lon="0.72091">
        <ele>110</ele>
        <time>2021-10-24T12:57:05Z</time>
      </trkpt>
      <trkpt lat="45.18403" lon="0.72089">
        <ele>110</ele>
        <time>2021-10-24T12:57:07Z</time>
      </trkpt>
      <trkpt lat="45.18403" lon="0.72088">
        <ele>110</ele>
        <time>2021-10-24T12:57:08Z</time>
      </trkpt>
      <trkpt lat="45.18403" lon="0.72088">
        <ele>110</ele>
        <time>2021-10-24T12:57:09Z</time>
      </trkpt>
      <trkpt lat="45.18402" lon="0.72087">
        <ele>110</ele>
        <time>2021-10-24T12:57:10Z</time>
      </trkpt>
      <trkpt lat="45.18402" lon="0.72086">
        <ele>110</ele>
        <time>2021-10-24T12:57:11Z</time>
      </trkpt>
      <trkpt lat="45.18401" lon="0.72083">
        <ele>110.1</ele>
        <time>2021-10-24T12:57:12Z</time>
      </trkpt>
      <trkpt lat="45.18401" lon="0.72081">
        <ele>110.1</ele>
        <time>2021-10-24T12:57:14Z</time>
      </trkpt>
      <trkpt lat="45.18401" lon="0.72079">
        <ele>110.1</ele>
        <time>2021-10-24T12:57:15Z</time>
      </trkpt>
      <trkpt lat="45.184" lon="0.72078">
        <ele>110.1</ele>
        <time>2021-10-24T12:57:16Z</time>
      </trkpt>
      <trkpt lat="45.184" lon="0.72076">
        <ele>110.1</ele>
        <time>2021-10-24T12:57:17Z</time>
      </trkpt>
      <trkpt lat="45.184" lon="0.72074">
        <ele>110.1</ele>
        <time>2021-10-24T12:57:19Z</time>
      </trkpt>
      <trkpt lat="45.184" lon="0.72072">
        <ele>110.1</ele>
        <time>2021-10-24T12:57:20Z</time>
      </trkpt>
      <trkpt lat="45.18399" lon="0.7207">
        <ele>110.1</ele>
        <time>2021-10-24T12:57:21Z</time>
      </trkpt>
      <trkpt lat="45.18399" lon="0.72068">
        <ele>110.1</ele>
        <time>2021-10-24T12:57:22Z</time>
      </trkpt>
      <trkpt lat="45.18398" lon="0.72063">
        <ele>110.1</ele>
        <time>2021-10-24T12:57:24Z</time>
      </trkpt>
      <trkpt lat="45.18398" lon="0.72062">
        <ele>110.1</ele>
        <time>2021-10-24T12:57:25Z</time>
      </trkpt>
      <trkpt lat="45.18398" lon="0.72059">
        <ele>110.2</ele>
        <time>2021-10-24T12:57:27Z</time>
      </trkpt>
      <trkpt lat="45.18398" lon="0.72058">
        <ele>110.2</ele>
        <time>2021-10-24T12:57:28Z</time>
      </trkpt>
      <trkpt lat="45.18398" lon="0.72056">
        <ele>110.3</ele>
        <time>2021-10-24T12:57:29Z</time>
      </trkpt>
      <trkpt lat="45.18398" lon="0.72054">
        <ele>110.3</ele>
        <time>2021-10-24T12:57:31Z</time>
      </trkpt>
      <trkpt lat="45.18398" lon="0.72055">
        <ele>110.3</ele>
        <time>2021-10-24T12:57:32Z</time>
      </trkpt>
      <trkpt lat="45.18398" lon="0.72055">
        <ele>110.3</ele>
        <time>2021-10-24T12:57:34Z</time>
      </trkpt>
      <trkpt lat="45.18398" lon="0.72055">
        <ele>110.3</ele>
        <time>2021-10-24T12:57:36Z</time>
      </trkpt>
      <trkpt lat="45.18398" lon="0.72055">
        <ele>110.3</ele>
        <time>2021-10-24T12:57:37Z</time>
      </trkpt>
      <trkpt lat="45.18397" lon="0.72055">
        <ele>110.3</ele>
        <time>2021-10-24T12:57:39Z</time>
      </trkpt>
      <trkpt lat="45.18396" lon="0.72054">
        <ele>110.3</ele>
        <time>2021-10-24T12:57:40Z</time>
      </trkpt>
      <trkpt lat="45.18394" lon="0.72054">
        <ele>110.4</ele>
        <time>2021-10-24T12:57:41Z</time>
      </trkpt>
      <trkpt lat="45.18394" lon="0.72054">
        <ele>110.4</ele>
        <time>2021-10-24T12:57:42Z</time>
      </trkpt>
      <trkpt lat="45.18393" lon="0.72054">
        <ele>110.4</ele>
        <time>2021-10-24T12:57:44Z</time>
      </trkpt>
      <trkpt lat="45.18392" lon="0.72054">
        <ele>110.4</ele>
        <time>2021-10-24T12:57:45Z</time>
      </trkpt>
      <trkpt lat="45.18391" lon="0.72053">
        <ele>110.4</ele>
        <time>2021-10-24T12:57:47Z</time>
      </trkpt>
      <trkpt lat="45.1839" lon="0.72053">
        <ele>110.4</ele>
        <time>2021-10-24T12:57:48Z</time>
      </trkpt>
      <trkpt lat="45.18389" lon="0.72053">
        <ele>110.4</ele>
        <time>2021-10-24T12:57:49Z</time>
      </trkpt>
      <trkpt lat="45.18388" lon="0.72054">
        <ele>110.3</ele>
        <time>2021-10-24T12:57:51Z</time>
      </trkpt>
      <trkpt lat="45.18387" lon="0.72054">
        <ele>110.3</ele>
        <time>2021-10-24T12:57:52Z</time>
      </trkpt>
      <trkpt lat="45.18386" lon="0.72054">
        <ele>110.3</ele>
        <time>2021-10-24T12:57:53Z</time>
      </trkpt>
      <trkpt lat="45.18384" lon="0.72054">
        <ele>110.2</ele>
        <time>2021-10-24T12:57:54Z</time>
      </trkpt>
      <trkpt lat="45.18383" lon="0.72055">
        <ele>110.2</ele>
        <time>2021-10-24T12:57:56Z</time>
      </trkpt>
      <trkpt lat="45.18382" lon="0.72055">
        <ele>110.2</ele>
        <time>2021-10-24T12:57:57Z</time>
      </trkpt>
      <trkpt lat="45.18381" lon="0.72055">
        <ele>110.1</ele>
        <time>2021-10-24T12:57:58Z</time>
      </trkpt>
      <trkpt lat="45.18381" lon="0.72056">
        <ele>110.1</ele>
        <time>2021-10-24T12:58:00Z</time>
      </trkpt>
      <trkpt lat="45.1838" lon="0.72056">
        <ele>110.1</ele>
        <time>2021-10-24T12:58:01Z</time>
      </trkpt>
      <trkpt lat="45.1838" lon="0.72056">
        <ele>110.1</ele>
        <time>2021-10-24T12:58:02Z</time>
      </trkpt>
      <trkpt lat="45.1838" lon="0.72055">
        <ele>110.1</ele>
        <time>2021-10-24T12:58:03Z</time>
      </trkpt>
      <trkpt lat="45.1838" lon="0.72055">
        <ele>110.1</ele>
        <time>2021-10-24T12:58:05Z</time>
      </trkpt>
      <trkpt lat="45.1838" lon="0.72055">
        <ele>110.1</ele>
        <time>2021-10-24T12:58:07Z</time>
      </trkpt>
      <trkpt lat="45.1838" lon="0.72055">
        <ele>110.1</ele>
        <time>2021-10-24T12:58:08Z</time>
      </trkpt>
      <trkpt lat="45.1838" lon="0.72055">
        <ele>110.1</ele>
        <time>2021-10-24T12:58:10Z</time>
      </trkpt>
      <trkpt lat="45.18381" lon="0.72055">
        <ele>110.1</ele>
        <time>2021-10-24T12:58:11Z</time>
      </trkpt>
      <trkpt lat="45.18381" lon="0.72054">
        <ele>110</ele>
        <time>2021-10-24T12:58:12Z</time>
      </trkpt>
      <trkpt lat="45.18381" lon="0.72054">
        <ele>110</ele>
        <time>2021-10-24T12:58:13Z</time>
      </trkpt>
      <trkpt lat="45.18381" lon="0.72055">
        <ele>110</ele>
        <time>2021-10-24T12:58:15Z</time>
      </trkpt>
      <trkpt lat="45.18379" lon="0.72056">
        <ele>110</ele>
        <time>2021-10-24T12:58:16Z</time>
      </trkpt>
      <trkpt lat="45.18379" lon="0.72057">
        <ele>109.9</ele>
        <time>2021-10-24T12:58:17Z</time>
      </trkpt>
      <trkpt lat="45.18378" lon="0.72058">
        <ele>109.9</ele>
        <time>2021-10-24T12:58:18Z</time>
      </trkpt>
      <trkpt lat="45.18377" lon="0.72059">
        <ele>109.8</ele>
        <time>2021-10-24T12:58:20Z</time>
      </trkpt>
      <trkpt lat="45.18376" lon="0.7206">
        <ele>109.8</ele>
        <time>2021-10-24T12:58:21Z</time>
      </trkpt>
      <trkpt lat="45.18376" lon="0.7206">
        <ele>109.8</ele>
        <time>2021-10-24T12:58:22Z</time>
      </trkpt>
      <trkpt lat="45.18375" lon="0.72061">
        <ele>109.8</ele>
        <time>2021-10-24T12:58:23Z</time>
      </trkpt>
      <trkpt lat="45.18374" lon="0.72061">
        <ele>109.7</ele>
        <time>2021-10-24T12:58:24Z</time>
      </trkpt>
      <trkpt lat="45.18372" lon="0.72062">
        <ele>109.7</ele>
        <time>2021-10-24T12:58:25Z</time>
      </trkpt>
      <trkpt lat="45.18371" lon="0.72062">
        <ele>109.6</ele>
        <time>2021-10-24T12:58:26Z</time>
      </trkpt>
      <trkpt lat="45.1837" lon="0.72062">
        <ele>109.6</ele>
        <time>2021-10-24T12:58:28Z</time>
      </trkpt>
      <trkpt lat="45.18369" lon="0.72062">
        <ele>109.6</ele>
        <time>2021-10-24T12:58:29Z</time>
      </trkpt>
      <trkpt lat="45.18368" lon="0.72062">
        <ele>109.5</ele>
        <time>2021-10-24T12:58:30Z</time>
      </trkpt>
      <trkpt lat="45.18367" lon="0.72062">
        <ele>109.5</ele>
        <time>2021-10-24T12:58:31Z</time>
      </trkpt>
      <trkpt lat="45.18365" lon="0.72062">
        <ele>109.4</ele>
        <time>2021-10-24T12:58:32Z</time>
      </trkpt>
      <trkpt lat="45.18364" lon="0.72062">
        <ele>109.3</ele>
        <time>2021-10-24T12:58:33Z</time>
      </trkpt>
      <trkpt lat="45.18363" lon="0.72063">
        <ele>109.3</ele>
        <time>2021-10-24T12:58:35Z</time>
      </trkpt>
      <trkpt lat="45.18362" lon="0.72063">
        <ele>109.2</ele>
        <time>2021-10-24T12:58:36Z</time>
      </trkpt>
      <trkpt lat="45.18361" lon="0.72063">
        <ele>109.2</ele>
        <time>2021-10-24T12:58:37Z</time>
      </trkpt>
      <trkpt lat="45.1836" lon="0.72064">
        <ele>109.2</ele>
        <time>2021-10-24T12:58:38Z</time>
      </trkpt>
      <trkpt lat="45.18358" lon="0.72064">
        <ele>109.1</ele>
        <time>2021-10-24T12:58:39Z</time>
      </trkpt>
      <trkpt lat="45.18357" lon="0.72064">
        <ele>109</ele>
        <time>2021-10-24T12:58:40Z</time>
      </trkpt>
      <trkpt lat="45.18356" lon="0.72064">
        <ele>109</ele>
        <time>2021-10-24T12:58:41Z</time>
      </trkpt>
      <trkpt lat="45.18355" lon="0.72063">
        <ele>108.9</ele>
        <time>2021-10-24T12:58:43Z</time>
      </trkpt>
      <trkpt lat="45.18354" lon="0.72063">
        <ele>108.9</ele>
        <time>2021-10-24T12:58:44Z</time>
      </trkpt>
      <trkpt lat="45.18354" lon="0.72063">
        <ele>108.5</ele>
        <time>2021-10-24T12:58:45Z</time>
      </trkpt>
      <trkpt lat="45.18353" lon="0.72063">
        <ele>108.5</ele>
        <time>2021-10-24T12:58:47Z</time>
      </trkpt>
      <trkpt lat="45.18353" lon="0.72063">
        <ele>108.5</ele>
        <time>2021-10-24T12:58:49Z</time>
      </trkpt>
      <trkpt lat="45.18353" lon="0.72062">
        <ele>108.5</ele>
        <time>2021-10-24T12:58:50Z</time>
      </trkpt>
      <trkpt lat="45.18353" lon="0.72062">
        <ele>108.5</ele>
        <time>2021-10-24T12:58:52Z</time>
      </trkpt>
      <trkpt lat="45.18352" lon="0.72061">
        <ele>108.5</ele>
        <time>2021-10-24T12:58:53Z</time>
      </trkpt>
      <trkpt lat="45.18352" lon="0.72061">
        <ele>108.5</ele>
        <time>2021-10-24T12:58:54Z</time>
      </trkpt>
      <trkpt lat="45.18352" lon="0.72061">
        <ele>108.5</ele>
        <time>2021-10-24T12:58:56Z</time>
      </trkpt>
      <trkpt lat="45.18352" lon="0.7206">
        <ele>108.5</ele>
        <time>2021-10-24T12:58:57Z</time>
      </trkpt>
      <trkpt lat="45.18351" lon="0.7206">
        <ele>108.5</ele>
        <time>2021-10-24T12:58:59Z</time>
      </trkpt>
      <trkpt lat="45.18351" lon="0.72059">
        <ele>108.5</ele>
        <time>2021-10-24T12:59:00Z</time>
      </trkpt>
      <trkpt lat="45.18351" lon="0.72058">
        <ele>108.5</ele>
        <time>2021-10-24T12:59:01Z</time>
      </trkpt>
      <trkpt lat="45.18351" lon="0.72057">
        <ele>108.5</ele>
        <time>2021-10-24T12:59:03Z</time>
      </trkpt>
      <trkpt lat="45.1835" lon="0.72055">
        <ele>108.5</ele>
        <time>2021-10-24T12:59:04Z</time>
      </trkpt>
      <trkpt lat="45.18349" lon="0.72053">
        <ele>108.5</ele>
        <time>2021-10-24T12:59:05Z</time>
      </trkpt>
      <trkpt lat="45.18349" lon="0.72051">
        <ele>108.5</ele>
        <time>2021-10-24T12:59:06Z</time>
      </trkpt>
      <trkpt lat="45.18348" lon="0.7205">
        <ele>108.5</ele>
        <time>2021-10-24T12:59:07Z</time>
      </trkpt>
      <trkpt lat="45.18347" lon="0.72048">
        <ele>108.4</ele>
        <time>2021-10-24T12:59:08Z</time>
      </trkpt>
      <trkpt lat="45.18347" lon="0.72046">
        <ele>108.4</ele>
        <time>2021-10-24T12:59:10Z</time>
      </trkpt>
      <trkpt lat="45.18347" lon="0.72045">
        <ele>108.4</ele>
        <time>2021-10-24T12:59:11Z</time>
      </trkpt>
      <trkpt lat="45.18347" lon="0.72043">
        <ele>108.4</ele>
        <time>2021-10-24T12:59:12Z</time>
      </trkpt>
      <trkpt lat="45.18346" lon="0.72042">
        <ele>108.4</ele>
        <time>2021-10-24T12:59:13Z</time>
      </trkpt>
      <trkpt lat="45.18346" lon="0.7204">
        <ele>108.4</ele>
        <time>2021-10-24T12:59:15Z</time>
      </trkpt>
      <trkpt lat="45.18346" lon="0.72039">
        <ele>108.4</ele>
        <time>2021-10-24T12:59:16Z</time>
      </trkpt>
      <trkpt lat="45.18346" lon="0.72039">
        <ele>108.4</ele>
        <time>2021-10-24T12:59:17Z</time>
      </trkpt>
      <trkpt lat="45.18346" lon="0.72037">
        <ele>108.4</ele>
        <time>2021-10-24T12:59:18Z</time>
      </trkpt>
      <trkpt lat="45.18346" lon="0.72036">
        <ele>108.3</ele>
        <time>2021-10-24T12:59:19Z</time>
      </trkpt>
      <trkpt lat="45.18346" lon="0.72034">
        <ele>108.3</ele>
        <time>2021-10-24T12:59:21Z</time>
      </trkpt>
      <trkpt lat="45.18347" lon="0.72033">
        <ele>108.3</ele>
        <time>2021-10-24T12:59:22Z</time>
      </trkpt>
      <trkpt lat="45.18347" lon="0.72031">
        <ele>108.3</ele>
        <time>2021-10-24T12:59:23Z</time>
      </trkpt>
      <trkpt lat="45.18348" lon="0.7203">
        <ele>108.3</ele>
        <time>2021-10-24T12:59:24Z</time>
      </trkpt>
      <trkpt lat="45.18348" lon="0.72028">
        <ele>108.3</ele>
        <time>2021-10-24T12:59:25Z</time>
      </trkpt>
      <trkpt lat="45.18348" lon="0.72027">
        <ele>108.2</ele>
        <time>2021-10-24T12:59:26Z</time>
      </trkpt>
      <trkpt lat="45.18348" lon="0.72025">
        <ele>108.2</ele>
        <time>2021-10-24T12:59:27Z</time>
      </trkpt>
      <trkpt lat="45.18348" lon="0.72023">
        <ele>108.2</ele>
        <time>2021-10-24T12:59:29Z</time>
      </trkpt>
      <trkpt lat="45.18348" lon="0.72022">
        <ele>108.2</ele>
        <time>2021-10-24T12:59:30Z</time>
      </trkpt>
      <trkpt lat="45.18348" lon="0.7202">
        <ele>108.2</ele>
        <time>2021-10-24T12:59:31Z</time>
      </trkpt>
      <trkpt lat="45.18348" lon="0.72018">
        <ele>108.1</ele>
        <time>2021-10-24T12:59:32Z</time>
      </trkpt>
      <trkpt lat="45.18349" lon="0.72017">
        <ele>108.1</ele>
        <time>2021-10-24T12:59:33Z</time>
      </trkpt>
      <trkpt lat="45.18349" lon="0.72015">
        <ele>108.1</ele>
        <time>2021-10-24T12:59:35Z</time>
      </trkpt>
      <trkpt lat="45.18349" lon="0.72013">
        <ele>108</ele>
        <time>2021-10-24T12:59:36Z</time>
      </trkpt>
      <trkpt lat="45.18349" lon="0.72012">
        <ele>108</ele>
        <time>2021-10-24T12:59:37Z</time>
      </trkpt>
      <trkpt lat="45.18349" lon="0.7201">
        <ele>108</ele>
        <time>2021-10-24T12:59:38Z</time>
      </trkpt>
      <trkpt lat="45.18349" lon="0.72009">
        <ele>108</ele>
        <time>2021-10-24T12:59:40Z</time>
      </trkpt>
      <trkpt lat="45.18348" lon="0.72008">
        <ele>108</ele>
        <time>2021-10-24T12:59:42Z</time>
      </trkpt>
      <trkpt lat="45.18348" lon="0.72008">
        <ele>108</ele>
        <time>2021-10-24T12:59:43Z</time>
      </trkpt>
      <trkpt lat="45.18348" lon="0.72007">
        <ele>108</ele>
        <time>2021-10-24T12:59:44Z</time>
      </trkpt>
      <trkpt lat="45.18348" lon="0.72005">
        <ele>108</ele>
        <time>2021-10-24T12:59:45Z</time>
      </trkpt>
      <trkpt lat="45.18348" lon="0.72003">
        <ele>108</ele>
        <time>2021-10-24T12:59:47Z</time>
      </trkpt>
      <trkpt lat="45.18348" lon="0.72002">
        <ele>108</ele>
        <time>2021-10-24T12:59:48Z</time>
      </trkpt>
      <trkpt lat="45.18348" lon="0.72001">
        <ele>108</ele>
        <time>2021-10-24T12:59:49Z</time>
      </trkpt>
      <trkpt lat="45.18348" lon="0.71999">
        <ele>108</ele>
        <time>2021-10-24T12:59:51Z</time>
      </trkpt>
      <trkpt lat="45.18348" lon="0.71997">
        <ele>108</ele>
        <time>2021-10-24T12:59:53Z</time>
      </trkpt>
      <trkpt lat="45.18348" lon="0.71997">
        <ele>108</ele>
        <time>2021-10-24T12:59:54Z</time>
      </trkpt>
      <trkpt lat="45.18347" lon="0.71997">
        <ele>108</ele>
        <time>2021-10-24T12:59:56Z</time>
      </trkpt>
      <trkpt lat="45.18347" lon="0.71997">
        <ele>108</ele>
        <time>2021-10-24T12:59:58Z</time>
      </trkpt>
      <trkpt lat="45.18346" lon="0.71998">
        <ele>108</ele>
        <time>2021-10-24T12:59:59Z</time>
      </trkpt>
      <trkpt lat="45.18346" lon="0.71999">
        <ele>108</ele>
        <time>2021-10-24T13:00:00Z</time>
      </trkpt>
      <trkpt lat="45.18346" lon="0.72001">
        <ele>108</ele>
        <time>2021-10-24T13:00:02Z</time>
      </trkpt>
      <trkpt lat="45.18346" lon="0.72002">
        <ele>108</ele>
        <time>2021-10-24T13:00:03Z</time>
      </trkpt>
      <trkpt lat="45.18347" lon="0.72003">
        <ele>108</ele>
        <time>2021-10-24T13:00:04Z</time>
      </trkpt>
      <trkpt lat="45.18347" lon="0.72005">
        <ele>108</ele>
        <time>2021-10-24T13:00:05Z</time>
      </trkpt>
      <trkpt lat="45.18347" lon="0.72007">
        <ele>108</ele>
        <time>2021-10-24T13:00:07Z</time>
      </trkpt>
      <trkpt lat="45.18347" lon="0.72008">
        <ele>108</ele>
        <time>2021-10-24T13:00:08Z</time>
      </trkpt>
      <trkpt lat="45.18347" lon="0.7201">
        <ele>108.1</ele>
        <time>2021-10-24T13:00:09Z</time>
      </trkpt>
      <trkpt lat="45.18347" lon="0.72011">
        <ele>108.1</ele>
        <time>2021-10-24T13:00:10Z</time>
      </trkpt>
      <trkpt lat="45.18347" lon="0.72013">
        <ele>108.1</ele>
        <time>2021-10-24T13:00:11Z</time>
      </trkpt>
      <trkpt lat="45.18347" lon="0.72015">
        <ele>108.1</ele>
        <time>2021-10-24T13:00:13Z</time>
      </trkpt>
      <trkpt lat="45.18347" lon="0.72016">
        <ele>108.1</ele>
        <time>2021-10-24T13:00:14Z</time>
      </trkpt>
      <trkpt lat="45.18348" lon="0.72017">
        <ele>108.1</ele>
        <time>2021-10-24T13:00:15Z</time>
      </trkpt>
      <trkpt lat="45.18348" lon="0.72019">
        <ele>108.1</ele>
        <time>2021-10-24T13:00:16Z</time>
      </trkpt>
      <trkpt lat="45.18348" lon="0.7202">
        <ele>108.2</ele>
        <time>2021-10-24T13:00:17Z</time>
      </trkpt>
      <trkpt lat="45.18349" lon="0.72022">
        <ele>108.2</ele>
        <time>2021-10-24T13:00:19Z</time>
      </trkpt>
      <trkpt lat="45.18349" lon="0.72023">
        <ele>108.2</ele>
        <time>2021-10-24T13:00:20Z</time>
      </trkpt>
      <trkpt lat="45.18349" lon="0.72025">
        <ele>108.2</ele>
        <time>2021-10-24T13:00:21Z</time>
      </trkpt>
      <trkpt lat="45.18349" lon="0.72026">
        <ele>108.2</ele>
        <time>2021-10-24T13:00:22Z</time>
      </trkpt>
      <trkpt lat="45.18349" lon="0.72028">
        <ele>108.3</ele>
        <time>2021-10-24T13:00:24Z</time>
      </trkpt>
      <trkpt lat="45.18349" lon="0.7203">
        <ele>108.3</ele>
        <time>2021-10-24T13:00:25Z</time>
      </trkpt>
      <trkpt lat="45.18349" lon="0.72032">
        <ele>108.3</ele>
        <time>2021-10-24T13:00:26Z</time>
      </trkpt>
      <trkpt lat="45.18349" lon="0.72033">
        <ele>108.3</ele>
        <time>2021-10-24T13:00:27Z</time>
      </trkpt>
      <trkpt lat="45.18349" lon="0.72035">
        <ele>108.3</ele>
        <time>2021-10-24T13:00:29Z</time>
      </trkpt>
      <trkpt lat="45.18349" lon="0.72036">
        <ele>108.4</ele>
        <time>2021-10-24T13:00:30Z</time>
      </trkpt>
      <trkpt lat="45.18349" lon="0.72037">
        <ele>108.4</ele>
        <time>2021-10-24T13:00:31Z</time>
      </trkpt>
      <trkpt lat="45.18348" lon="0.72039">
        <ele>108.4</ele>
        <time>2021-10-24T13:00:32Z</time>
      </trkpt>
      <trkpt lat="45.18348" lon="0.7204">
        <ele>108.4</ele>
        <time>2021-10-24T13:00:33Z</time>
      </trkpt>
      <trkpt lat="45.18349" lon="0.72042">
        <ele>108.4</ele>
        <time>2021-10-24T13:00:34Z</time>
      </trkpt>
      <trkpt lat="45.18349" lon="0.72044">
        <ele>108.4</ele>
        <time>2021-10-24T13:00:35Z</time>
      </trkpt>
      <trkpt lat="45.18349" lon="0.72045">
        <ele>108.4</ele>
        <time>2021-10-24T13:00:36Z</time>
      </trkpt>
      <trkpt lat="45.18349" lon="0.72045">
        <ele>108.4</ele>
        <time>2021-10-24T13:00:38Z</time>
      </trkpt>
      <trkpt lat="45.1835" lon="0.72046">
        <ele>108.4</ele>
        <time>2021-10-24T13:00:39Z</time>
      </trkpt>
      <trkpt lat="45.1835" lon="0.72046">
        <ele>108.4</ele>
        <time>2021-10-24T13:00:41Z</time>
      </trkpt>
      <trkpt lat="45.1835" lon="0.72047">
        <ele>108.5</ele>
        <time>2021-10-24T13:00:42Z</time>
      </trkpt>
      <trkpt lat="45.1835" lon="0.72048">
        <ele>108.5</ele>
        <time>2021-10-24T13:00:43Z</time>
      </trkpt>
      <trkpt lat="45.1835" lon="0.72048">
        <ele>108.5</ele>
        <time>2021-10-24T13:00:44Z</time>
      </trkpt>
      <trkpt lat="45.1835" lon="0.72049">
        <ele>108.5</ele>
        <time>2021-10-24T13:00:46Z</time>
      </trkpt>
      <trkpt lat="45.18351" lon="0.72049">
        <ele>108.5</ele>
        <time>2021-10-24T13:00:47Z</time>
      </trkpt>
      <trkpt lat="45.18351" lon="0.7205">
        <ele>108.5</ele>
        <time>2021-10-24T13:00:49Z</time>
      </trkpt>
      <trkpt lat="45.18351" lon="0.72051">
        <ele>108.5</ele>
        <time>2021-10-24T13:00:50Z</time>
      </trkpt>
      <trkpt lat="45.18351" lon="0.72051">
        <ele>108.5</ele>
        <time>2021-10-24T13:00:51Z</time>
      </trkpt>
      <trkpt lat="45.18351" lon="0.72053">
        <ele>108.5</ele>
        <time>2021-10-24T13:00:52Z</time>
      </trkpt>
      <trkpt lat="45.18351" lon="0.72055">
        <ele>108.5</ele>
        <time>2021-10-24T13:00:53Z</time>
      </trkpt>
      <trkpt lat="45.18351" lon="0.72056">
        <ele>108.5</ele>
        <time>2021-10-24T13:00:54Z</time>
      </trkpt>
      <trkpt lat="45.18351" lon="0.72059">
        <ele>108.5</ele>
        <time>2021-10-24T13:00:55Z</time>
      </trkpt>
      <trkpt lat="45.18351" lon="0.7206">
        <ele>108.5</ele>
        <time>2021-10-24T13:00:56Z</time>
      </trkpt>
      <trkpt lat="45.18351" lon="0.72061">
        <ele>108.5</ele>
        <time>2021-10-24T13:00:57Z</time>
      </trkpt>
      <trkpt lat="45.18352" lon="0.72063">
        <ele>108.5</ele>
        <time>2021-10-24T13:00:58Z</time>
      </trkpt>
      <trkpt lat="45.18352" lon="0.72065">
        <ele>108.5</ele>
        <time>2021-10-24T13:00:59Z</time>
      </trkpt>
      <trkpt lat="45.18352" lon="0.72066">
        <ele>108.5</ele>
        <time>2021-10-24T13:01:01Z</time>
      </trkpt>
      <trkpt lat="45.18352" lon="0.72068">
        <ele>108.5</ele>
        <time>2021-10-24T13:01:02Z</time>
      </trkpt>
      <trkpt lat="45.18353" lon="0.72069">
        <ele>108.5</ele>
        <time>2021-10-24T13:01:03Z</time>
      </trkpt>
      <trkpt lat="45.18353" lon="0.7207">
        <ele>108.5</ele>
        <time>2021-10-24T13:01:04Z</time>
      </trkpt>
      <trkpt lat="45.18353" lon="0.72071">
        <ele>108.5</ele>
        <time>2021-10-24T13:01:05Z</time>
      </trkpt>
      <trkpt lat="45.18353" lon="0.72072">
        <ele>108.5</ele>
        <time>2021-10-24T13:01:06Z</time>
      </trkpt>
      <trkpt lat="45.18352" lon="0.72074">
        <ele>108.5</ele>
        <time>2021-10-24T13:01:07Z</time>
      </trkpt>
      <trkpt lat="45.18352" lon="0.72075">
        <ele>108.5</ele>
        <time>2021-10-24T13:01:08Z</time>
      </trkpt>
      <trkpt lat="45.18351" lon="0.72077">
        <ele>108.5</ele>
        <time>2021-10-24T13:01:09Z</time>
      </trkpt>
      <trkpt lat="45.18351" lon="0.72078">
        <ele>108.5</ele>
        <time>2021-10-24T13:01:11Z</time>
      </trkpt>
      <trkpt lat="45.18351" lon="0.7208">
        <ele>108.5</ele>
        <time>2021-10-24T13:01:12Z</time>
      </trkpt>
      <trkpt lat="45.1835" lon="0.72081">
        <ele>108.5</ele>
        <time>2021-10-24T13:01:13Z</time>
      </trkpt>
      <trkpt lat="45.1835" lon="0.72082">
        <ele>108.5</ele>
        <time>2021-10-24T13:01:14Z</time>
      </trkpt>
      <trkpt lat="45.1835" lon="0.72084">
        <ele>108.5</ele>
        <time>2021-10-24T13:01:15Z</time>
      </trkpt>
      <trkpt lat="45.1835" lon="0.72085">
        <ele>108.5</ele>
        <time>2021-10-24T13:01:16Z</time>
      </trkpt>
      <trkpt lat="45.18351" lon="0.72087">
        <ele>108.5</ele>
        <time>2021-10-24T13:01:17Z</time>
      </trkpt>
      <trkpt lat="45.18351" lon="0.72089">
        <ele>108.5</ele>
        <time>2021-10-24T13:01:19Z</time>
      </trkpt>
      <trkpt lat="45.18351" lon="0.7209">
        <ele>108.5</ele>
        <time>2021-10-24T13:01:20Z</time>
      </trkpt>
      <trkpt lat="45.18351" lon="0.72091">
        <ele>108.5</ele>
        <time>2021-10-24T13:01:21Z</time>
      </trkpt>
      <trkpt lat="45.18351" lon="0.72093">
        <ele>108.5</ele>
        <time>2021-10-24T13:01:23Z</time>
      </trkpt>
      <trkpt lat="45.1835" lon="0.72093">
        <ele>108.5</ele>
        <time>2021-10-24T13:01:24Z</time>
      </trkpt>
      <trkpt lat="45.1835" lon="0.72092">
        <ele>108.5</ele>
        <time>2021-10-24T13:01:26Z</time>
      </trkpt>
      <trkpt lat="45.1835" lon="0.72092">
        <ele>108.5</ele>
        <time>2021-10-24T13:01:27Z</time>
      </trkpt>
      <trkpt lat="45.1835" lon="0.72093">
        <ele>108.5</ele>
        <time>2021-10-24T13:01:28Z</time>
      </trkpt>
      <trkpt lat="45.1835" lon="0.72093">
        <ele>108.5</ele>
        <time>2021-10-24T13:01:30Z</time>
      </trkpt>
      <trkpt lat="45.1835" lon="0.72094">
        <ele>108.5</ele>
        <time>2021-10-24T13:01:31Z</time>
      </trkpt>
      <trkpt lat="45.1835" lon="0.72095">
        <ele>108.5</ele>
        <time>2021-10-24T13:01:32Z</time>
      </trkpt>
      <trkpt lat="45.1835" lon="0.72095">
        <ele>108.5</ele>
        <time>2021-10-24T13:01:33Z</time>
      </trkpt>
      <trkpt lat="45.1835" lon="0.72095">
        <ele>108.5</ele>
        <time>2021-10-24T13:01:34Z</time>
      </trkpt>
      <trkpt lat="45.1835" lon="0.72096">
        <ele>108.5</ele>
        <time>2021-10-24T13:01:35Z</time>
      </trkpt>
      <trkpt lat="45.1835" lon="0.72097">
        <ele>108.5</ele>
        <time>2021-10-24T13:01:36Z</time>
      </trkpt>
      <trkpt lat="45.18349" lon="0.72098">
        <ele>108.5</ele>
        <time>2021-10-24T13:01:38Z</time>
      </trkpt>
      <trkpt lat="45.18348" lon="0.72099">
        <ele>108.5</ele>
        <time>2021-10-24T13:01:39Z</time>
      </trkpt>
      <trkpt lat="45.18347" lon="0.72099">
        <ele>108.5</ele>
        <time>2021-10-24T13:01:40Z</time>
      </trkpt>
      <trkpt lat="45.18346" lon="0.721">
        <ele>108.5</ele>
        <time>2021-10-24T13:01:41Z</time>
      </trkpt>
      <trkpt lat="45.18345" lon="0.721">
        <ele>108.5</ele>
        <time>2021-10-24T13:01:42Z</time>
      </trkpt>
      <trkpt lat="45.18344" lon="0.721">
        <ele>108.4</ele>
        <time>2021-10-24T13:01:43Z</time>
      </trkpt>
      <trkpt lat="45.18344" lon="0.72101">
        <ele>108.4</ele>
        <time>2021-10-24T13:01:44Z</time>
      </trkpt>
      <trkpt lat="45.18341" lon="0.72101">
        <ele>108.3</ele>
        <time>2021-10-24T13:01:46Z</time>
      </trkpt>
      <trkpt lat="45.18339" lon="0.72102">
        <ele>108.2</ele>
        <time>2021-10-24T13:01:48Z</time>
      </trkpt>
      <trkpt lat="45.18337" lon="0.72102">
        <ele>108.2</ele>
        <time>2021-10-24T13:01:50Z</time>
      </trkpt>
      <trkpt lat="45.18337" lon="0.72102">
        <ele>108.1</ele>
        <time>2021-10-24T13:01:51Z</time>
      </trkpt>
      <trkpt lat="45.18336" lon="0.72101">
        <ele>108.1</ele>
        <time>2021-10-24T13:01:53Z</time>
      </trkpt>
      <trkpt lat="45.18336" lon="0.72101">
        <ele>108.1</ele>
        <time>2021-10-24T13:01:54Z</time>
      </trkpt>
      <trkpt lat="45.18335" lon="0.721">
        <ele>108.1</ele>
        <time>2021-10-24T13:01:55Z</time>
      </trkpt>
      <trkpt lat="45.18334" lon="0.721">
        <ele>108</ele>
        <time>2021-10-24T13:01:56Z</time>
      </trkpt>
      <trkpt lat="45.18334" lon="0.721">
        <ele>108</ele>
        <time>2021-10-24T13:01:58Z</time>
      </trkpt>
      <trkpt lat="45.18333" lon="0.721">
        <ele>108</ele>
        <time>2021-10-24T13:01:59Z</time>
      </trkpt>
      <trkpt lat="45.18333" lon="0.721">
        <ele>108</ele>
        <time>2021-10-24T13:02:00Z</time>
      </trkpt>
      <trkpt lat="45.18332" lon="0.721">
        <ele>108</ele>
        <time>2021-10-24T13:02:02Z</time>
      </trkpt>
      <trkpt lat="45.18331" lon="0.721">
        <ele>107.9</ele>
        <time>2021-10-24T13:02:03Z</time>
      </trkpt>
      <trkpt lat="45.18331" lon="0.721">
        <ele>107.8</ele>
        <time>2021-10-24T13:02:04Z</time>
      </trkpt>
      <trkpt lat="45.1833" lon="0.721">
        <ele>107.7</ele>
        <time>2021-10-24T13:02:05Z</time>
      </trkpt>
      <trkpt lat="45.1833" lon="0.721">
        <ele>107.6</ele>
        <time>2021-10-24T13:02:07Z</time>
      </trkpt>
      <trkpt lat="45.18329" lon="0.721">
        <ele>107.6</ele>
        <time>2021-10-24T13:02:08Z</time>
      </trkpt>
      <trkpt lat="45.18328" lon="0.72102">
        <ele>107.3</ele>
        <time>2021-10-24T13:02:09Z</time>
      </trkpt>
      <trkpt lat="45.18327" lon="0.72103">
        <ele>107.2</ele>
        <time>2021-10-24T13:02:10Z</time>
      </trkpt>
      <trkpt lat="45.18326" lon="0.72104">
        <ele>107</ele>
        <time>2021-10-24T13:02:11Z</time>
      </trkpt>
      <trkpt lat="45.18323" lon="0.72107">
        <ele>106.6</ele>
        <time>2021-10-24T13:02:13Z</time>
      </trkpt>
      <trkpt lat="45.18323" lon="0.72107">
        <ele>106.5</ele>
        <time>2021-10-24T13:02:14Z</time>
      </trkpt>
      <trkpt lat="45.18321" lon="0.72109">
        <ele>106.2</ele>
        <time>2021-10-24T13:02:15Z</time>
      </trkpt>
      <trkpt lat="45.1832" lon="0.7211">
        <ele>106</ele>
        <time>2021-10-24T13:02:16Z</time>
      </trkpt>
      <trkpt lat="45.18318" lon="0.72112">
        <ele>105.7</ele>
        <time>2021-10-24T13:02:18Z</time>
      </trkpt>
      <trkpt lat="45.18317" lon="0.72112">
        <ele>105.5</ele>
        <time>2021-10-24T13:02:19Z</time>
      </trkpt>
      <trkpt lat="45.18316" lon="0.72113">
        <ele>105.4</ele>
        <time>2021-10-24T13:02:20Z</time>
      </trkpt>
      <trkpt lat="45.18315" lon="0.72113">
        <ele>105.3</ele>
        <time>2021-10-24T13:02:21Z</time>
      </trkpt>
      <trkpt lat="45.18315" lon="0.72113">
        <ele>105.1</ele>
        <time>2021-10-24T13:02:22Z</time>
      </trkpt>
      <trkpt lat="45.18314" lon="0.72114">
        <ele>105</ele>
        <time>2021-10-24T13:02:23Z</time>
      </trkpt>
      <trkpt lat="45.18312" lon="0.72114">
        <ele>104.8</ele>
        <time>2021-10-24T13:02:24Z</time>
      </trkpt>
      <trkpt lat="45.18311" lon="0.72114">
        <ele>104.6</ele>
        <time>2021-10-24T13:02:26Z</time>
      </trkpt>
      <trkpt lat="45.1831" lon="0.72114">
        <ele>104.4</ele>
        <time>2021-10-24T13:02:27Z</time>
      </trkpt>
      <trkpt lat="45.18309" lon="0.72115">
        <ele>104.3</ele>
        <time>2021-10-24T13:02:28Z</time>
      </trkpt>
      <trkpt lat="45.18308" lon="0.72115">
        <ele>104.2</ele>
        <time>2021-10-24T13:02:29Z</time>
      </trkpt>
      <trkpt lat="45.18306" lon="0.72115">
        <ele>103.9</ele>
        <time>2021-10-24T13:02:31Z</time>
      </trkpt>
      <trkpt lat="45.18305" lon="0.72114">
        <ele>103.7</ele>
        <time>2021-10-24T13:02:32Z</time>
      </trkpt>
      <trkpt lat="45.18303" lon="0.72114">
        <ele>103.5</ele>
        <time>2021-10-24T13:02:33Z</time>
      </trkpt>
      <trkpt lat="45.18301" lon="0.72114">
        <ele>103.2</ele>
        <time>2021-10-24T13:02:34Z</time>
      </trkpt>
      <trkpt lat="45.183" lon="0.72114">
        <ele>103</ele>
        <time>2021-10-24T13:02:35Z</time>
      </trkpt>
      <trkpt lat="45.18299" lon="0.72115">
        <ele>102.9</ele>
        <time>2021-10-24T13:02:36Z</time>
      </trkpt>
      <trkpt lat="45.18298" lon="0.72115">
        <ele>102.7</ele>
        <time>2021-10-24T13:02:37Z</time>
      </trkpt>
      <trkpt lat="45.18297" lon="0.72115">
        <ele>102.6</ele>
        <time>2021-10-24T13:02:39Z</time>
      </trkpt>
      <trkpt lat="45.18296" lon="0.72115">
        <ele>102.4</ele>
        <time>2021-10-24T13:02:40Z</time>
      </trkpt>
      <trkpt lat="45.18295" lon="0.72115">
        <ele>102.3</ele>
        <time>2021-10-24T13:02:41Z</time>
      </trkpt>
      <trkpt lat="45.18295" lon="0.72114">
        <ele>102.2</ele>
        <time>2021-10-24T13:02:42Z</time>
      </trkpt>
      <trkpt lat="45.18294" lon="0.72113">
        <ele>102</ele>
        <time>2021-10-24T13:02:43Z</time>
      </trkpt>
      <trkpt lat="45.18293" lon="0.72112">
        <ele>101.9</ele>
        <time>2021-10-24T13:02:44Z</time>
      </trkpt>
      <trkpt lat="45.18293" lon="0.72112">
        <ele>101.9</ele>
        <time>2021-10-24T13:02:45Z</time>
      </trkpt>
      <trkpt lat="45.18293" lon="0.72112">
        <ele>101.9</ele>
        <time>2021-10-24T13:02:47Z</time>
      </trkpt>
      <trkpt lat="45.18293" lon="0.72112">
        <ele>101.8</ele>
        <time>2021-10-24T13:02:48Z</time>
      </trkpt>
      <trkpt lat="45.18292" lon="0.72112">
        <ele>101.7</ele>
        <time>2021-10-24T13:02:49Z</time>
      </trkpt>
      <trkpt lat="45.18291" lon="0.72111">
        <ele>101.5</ele>
        <time>2021-10-24T13:02:50Z</time>
      </trkpt>
      <trkpt lat="45.1829" lon="0.7211">
        <ele>101.3</ele>
        <time>2021-10-24T13:02:51Z</time>
      </trkpt>
      <trkpt lat="45.18289" lon="0.7211">
        <ele>101.3</ele>
        <time>2021-10-24T13:02:52Z</time>
      </trkpt>
      <trkpt lat="45.18289" lon="0.7211">
        <ele>101.1</ele>
        <time>2021-10-24T13:02:54Z</time>
      </trkpt>
      <trkpt lat="45.18288" lon="0.72109">
        <ele>101.1</ele>
        <time>2021-10-24T13:02:55Z</time>
      </trkpt>
      <trkpt lat="45.18288" lon="0.7211">
        <ele>101.1</ele>
        <time>2021-10-24T13:02:56Z</time>
      </trkpt>
      <trkpt lat="45.18288" lon="0.72111">
        <ele>101.1</ele>
        <time>2021-10-24T13:02:57Z</time>
      </trkpt>
      <trkpt lat="45.18287" lon="0.72111">
        <ele>101.1</ele>
        <time>2021-10-24T13:02:58Z</time>
      </trkpt>
      <trkpt lat="45.18288" lon="0.72111">
        <ele>101.1</ele>
        <time>2021-10-24T13:02:59Z</time>
      </trkpt>
      <trkpt lat="45.18288" lon="0.72111">
        <ele>101.1</ele>
        <time>2021-10-24T13:03:00Z</time>
      </trkpt>
      <trkpt lat="45.18288" lon="0.72111">
        <ele>101.1</ele>
        <time>2021-10-24T13:03:02Z</time>
      </trkpt>
      <trkpt lat="45.18288" lon="0.72111">
        <ele>101.1</ele>
        <time>2021-10-24T13:03:04Z</time>
      </trkpt>
      <trkpt lat="45.18288" lon="0.7211">
        <ele>101.1</ele>
        <time>2021-10-24T13:03:05Z</time>
      </trkpt>
      <trkpt lat="45.18288" lon="0.7211">
        <ele>101.1</ele>
        <time>2021-10-24T13:03:06Z</time>
      </trkpt>
      <trkpt lat="45.18288" lon="0.7211">
        <ele>101.1</ele>
        <time>2021-10-24T13:03:08Z</time>
      </trkpt>
      <trkpt lat="45.18288" lon="0.7211">
        <ele>101.1</ele>
        <time>2021-10-24T13:03:09Z</time>
      </trkpt>
      <trkpt lat="45.18288" lon="0.7211">
        <ele>101.1</ele>
        <time>2021-10-24T13:03:11Z</time>
      </trkpt>
      <trkpt lat="45.18288" lon="0.7211">
        <ele>101.1</ele>
        <time>2021-10-24T13:03:12Z</time>
      </trkpt>
      <trkpt lat="45.18288" lon="0.72109">
        <ele>101.1</ele>
        <time>2021-10-24T13:03:14Z</time>
      </trkpt>
      <trkpt lat="45.18288" lon="0.72109">
        <ele>101.1</ele>
        <time>2021-10-24T13:03:15Z</time>
      </trkpt>
      <trkpt lat="45.18288" lon="0.72109">
        <ele>101.1</ele>
        <time>2021-10-24T13:03:16Z</time>
      </trkpt>
      <trkpt lat="45.18289" lon="0.72109">
        <ele>101.1</ele>
        <time>2021-10-24T13:03:18Z</time>
      </trkpt>
      <trkpt lat="45.18289" lon="0.72109">
        <ele>101.1</ele>
        <time>2021-10-24T13:03:19Z</time>
      </trkpt>
      <trkpt lat="45.18289" lon="0.72109">
        <ele>101.1</ele>
        <time>2021-10-24T13:03:20Z</time>
      </trkpt>
      <trkpt lat="45.18289" lon="0.72109">
        <ele>101.1</ele>
        <time>2021-10-24T13:03:22Z</time>
      </trkpt>
      <trkpt lat="45.18288" lon="0.72108">
        <ele>101.1</ele>
        <time>2021-10-24T13:03:24Z</time>
      </trkpt>
      <trkpt lat="45.18288" lon="0.72108">
        <ele>101.1</ele>
        <time>2021-10-24T13:03:25Z</time>
      </trkpt>
      <trkpt lat="45.18288" lon="0.72107">
        <ele>101.1</ele>
        <time>2021-10-24T13:03:27Z</time>
      </trkpt>
      <trkpt lat="45.18288" lon="0.72107">
        <ele>101.1</ele>
        <time>2021-10-24T13:03:28Z</time>
      </trkpt>
      <trkpt lat="45.18287" lon="0.72107">
        <ele>101.2</ele>
        <time>2021-10-24T13:03:29Z</time>
      </trkpt>
      <trkpt lat="45.18286" lon="0.72106">
        <ele>101.2</ele>
        <time>2021-10-24T13:03:31Z</time>
      </trkpt>
      <trkpt lat="45.18285" lon="0.72105">
        <ele>101.2</ele>
        <time>2021-10-24T13:03:33Z</time>
      </trkpt>
      <trkpt lat="45.18284" lon="0.72105">
        <ele>101.2</ele>
        <time>2021-10-24T13:03:34Z</time>
      </trkpt>
      <trkpt lat="45.18284" lon="0.72104">
        <ele>101.2</ele>
        <time>2021-10-24T13:03:35Z</time>
      </trkpt>
      <trkpt lat="45.18284" lon="0.72103">
        <ele>101.2</ele>
        <time>2021-10-24T13:03:37Z</time>
      </trkpt>
      <trkpt lat="45.18284" lon="0.72101">
        <ele>101.2</ele>
        <time>2021-10-24T13:03:38Z</time>
      </trkpt>
      <trkpt lat="45.18283" lon="0.721">
        <ele>101.2</ele>
        <time>2021-10-24T13:03:39Z</time>
      </trkpt>
      <trkpt lat="45.18283" lon="0.72098">
        <ele>101.2</ele>
        <time>2021-10-24T13:03:40Z</time>
      </trkpt>
      <trkpt lat="45.18282" lon="0.72096">
        <ele>101.3</ele>
        <time>2021-10-24T13:03:42Z</time>
      </trkpt>
      <trkpt lat="45.18282" lon="0.72095">
        <ele>101.3</ele>
        <time>2021-10-24T13:03:43Z</time>
      </trkpt>
      <trkpt lat="45.18281" lon="0.72094">
        <ele>101.3</ele>
        <time>2021-10-24T13:03:44Z</time>
      </trkpt>
      <trkpt lat="45.18281" lon="0.72093">
        <ele>101.3</ele>
        <time>2021-10-24T13:03:45Z</time>
      </trkpt>
      <trkpt lat="45.1828" lon="0.72091">
        <ele>101.3</ele>
        <time>2021-10-24T13:03:46Z</time>
      </trkpt>
      <trkpt lat="45.1828" lon="0.7209">
        <ele>101.3</ele>
        <time>2021-10-24T13:03:47Z</time>
      </trkpt>
      <trkpt lat="45.1828" lon="0.72087">
        <ele>101.3</ele>
        <time>2021-10-24T13:03:48Z</time>
      </trkpt>
      <trkpt lat="45.1828" lon="0.72086">
        <ele>101.2</ele>
        <time>2021-10-24T13:03:50Z</time>
      </trkpt>
      <trkpt lat="45.1828" lon="0.72084">
        <ele>101.2</ele>
        <time>2021-10-24T13:03:51Z</time>
      </trkpt>
      <trkpt lat="45.1828" lon="0.72082">
        <ele>101.2</ele>
        <time>2021-10-24T13:03:52Z</time>
      </trkpt>
      <trkpt lat="45.1828" lon="0.72081">
        <ele>101.2</ele>
        <time>2021-10-24T13:03:53Z</time>
      </trkpt>
      <trkpt lat="45.18279" lon="0.72079">
        <ele>101.2</ele>
        <time>2021-10-24T13:03:55Z</time>
      </trkpt>
      <trkpt lat="45.18279" lon="0.72078">
        <ele>101.2</ele>
        <time>2021-10-24T13:03:56Z</time>
      </trkpt>
      <trkpt lat="45.18279" lon="0.72076">
        <ele>101.3</ele>
        <time>2021-10-24T13:03:57Z</time>
      </trkpt>
      <trkpt lat="45.18278" lon="0.72075">
        <ele>101.3</ele>
        <time>2021-10-24T13:03:58Z</time>
      </trkpt>
      <trkpt lat="45.18278" lon="0.72073">
        <ele>101.3</ele>
        <time>2021-10-24T13:03:59Z</time>
      </trkpt>
      <trkpt lat="45.18277" lon="0.72071">
        <ele>101.4</ele>
        <time>2021-10-24T13:04:01Z</time>
      </trkpt>
      <trkpt lat="45.18277" lon="0.7207">
        <ele>101.4</ele>
        <time>2021-10-24T13:04:02Z</time>
      </trkpt>
      <trkpt lat="45.18276" lon="0.72068">
        <ele>101.5</ele>
        <time>2021-10-24T13:04:03Z</time>
      </trkpt>
      <trkpt lat="45.18276" lon="0.72066">
        <ele>101.5</ele>
        <time>2021-10-24T13:04:05Z</time>
      </trkpt>
      <trkpt lat="45.18276" lon="0.72065">
        <ele>101.6</ele>
        <time>2021-10-24T13:04:06Z</time>
      </trkpt>
      <trkpt lat="45.18276" lon="0.72064">
        <ele>101.6</ele>
        <time>2021-10-24T13:04:07Z</time>
      </trkpt>
      <trkpt lat="45.18276" lon="0.72062">
        <ele>101.7</ele>
        <time>2021-10-24T13:04:08Z</time>
      </trkpt>
      <trkpt lat="45.18276" lon="0.72059">
        <ele>102</ele>
        <time>2021-10-24T13:04:09Z</time>
      </trkpt>
      <trkpt lat="45.18277" lon="0.72058">
        <ele>102</ele>
        <time>2021-10-24T13:04:11Z</time>
      </trkpt>
      <trkpt lat="45.18277" lon="0.72057">
        <ele>102</ele>
        <time>2021-10-24T13:04:12Z</time>
      </trkpt>
      <trkpt lat="45.18277" lon="0.72056">
        <ele>102</ele>
        <time>2021-10-24T13:04:13Z</time>
      </trkpt>
      <trkpt lat="45.18277" lon="0.72055">
        <ele>102</ele>
        <time>2021-10-24T13:04:14Z</time>
      </trkpt>
      <trkpt lat="45.18276" lon="0.72054">
        <ele>102</ele>
        <time>2021-10-24T13:04:16Z</time>
      </trkpt>
      <trkpt lat="45.18275" lon="0.72053">
        <ele>101.6</ele>
        <time>2021-10-24T13:04:17Z</time>
      </trkpt>
      <trkpt lat="45.18275" lon="0.72053">
        <ele>101.5</ele>
        <time>2021-10-24T13:04:18Z</time>
      </trkpt>
      <trkpt lat="45.18274" lon="0.72053">
        <ele>101.5</ele>
        <time>2021-10-24T13:04:19Z</time>
      </trkpt>
      <trkpt lat="45.18272" lon="0.72053">
        <ele>101.4</ele>
        <time>2021-10-24T13:04:20Z</time>
      </trkpt>
      <trkpt lat="45.18272" lon="0.72053">
        <ele>101.3</ele>
        <time>2021-10-24T13:04:21Z</time>
      </trkpt>
      <trkpt lat="45.1827" lon="0.72053">
        <ele>101.2</ele>
        <time>2021-10-24T13:04:23Z</time>
      </trkpt>
      <trkpt lat="45.18269" lon="0.72054">
        <ele>101.1</ele>
        <time>2021-10-24T13:04:24Z</time>
      </trkpt>
      <trkpt lat="45.18268" lon="0.72054">
        <ele>101</ele>
        <time>2021-10-24T13:04:25Z</time>
      </trkpt>
      <trkpt lat="45.18267" lon="0.72054">
        <ele>100.9</ele>
        <time>2021-10-24T13:04:26Z</time>
      </trkpt>
      <trkpt lat="45.18266" lon="0.72054">
        <ele>100.9</ele>
        <time>2021-10-24T13:04:28Z</time>
      </trkpt>
      <trkpt lat="45.18265" lon="0.72054">
        <ele>100.7</ele>
        <time>2021-10-24T13:04:29Z</time>
      </trkpt>
      <trkpt lat="45.18264" lon="0.72055">
        <ele>100.7</ele>
        <time>2021-10-24T13:04:30Z</time>
      </trkpt>
      <trkpt lat="45.18263" lon="0.72055">
        <ele>100.6</ele>
        <time>2021-10-24T13:04:31Z</time>
      </trkpt>
      <trkpt lat="45.18262" lon="0.72055">
        <ele>100.5</ele>
        <time>2021-10-24T13:04:32Z</time>
      </trkpt>
      <trkpt lat="45.18261" lon="0.72054">
        <ele>100.4</ele>
        <time>2021-10-24T13:04:34Z</time>
      </trkpt>
      <trkpt lat="45.18261" lon="0.72054">
        <ele>100.4</ele>
        <time>2021-10-24T13:04:35Z</time>
      </trkpt>
      <trkpt lat="45.18261" lon="0.72054">
        <ele>100.4</ele>
        <time>2021-10-24T13:04:36Z</time>
      </trkpt>
      <trkpt lat="45.18261" lon="0.72054">
        <ele>100.4</ele>
        <time>2021-10-24T13:04:37Z</time>
      </trkpt>
      <trkpt lat="45.1826" lon="0.72055">
        <ele>100.3</ele>
        <time>2021-10-24T13:04:38Z</time>
      </trkpt>
      <trkpt lat="45.1826" lon="0.72056">
        <ele>100.2</ele>
        <time>2021-10-24T13:04:39Z</time>
      </trkpt>
      <trkpt lat="45.18259" lon="0.72057">
        <ele>100.2</ele>
        <time>2021-10-24T13:04:41Z</time>
      </trkpt>
      <trkpt lat="45.18258" lon="0.72058">
        <ele>99.6</ele>
        <time>2021-10-24T13:04:42Z</time>
      </trkpt>
      <trkpt lat="45.18258" lon="0.72059">
        <ele>99.5</ele>
        <time>2021-10-24T13:04:43Z</time>
      </trkpt>
      <trkpt lat="45.18257" lon="0.7206">
        <ele>99.4</ele>
        <time>2021-10-24T13:04:44Z</time>
      </trkpt>
      <trkpt lat="45.18257" lon="0.7206">
        <ele>99.4</ele>
        <time>2021-10-24T13:04:45Z</time>
      </trkpt>
      <trkpt lat="45.18256" lon="0.72062">
        <ele>99.3</ele>
        <time>2021-10-24T13:04:47Z</time>
      </trkpt>
      <trkpt lat="45.18255" lon="0.72062">
        <ele>99.2</ele>
        <time>2021-10-24T13:04:48Z</time>
      </trkpt>
      <trkpt lat="45.18255" lon="0.72063">
        <ele>99.2</ele>
        <time>2021-10-24T13:04:49Z</time>
      </trkpt>
      <trkpt lat="45.18255" lon="0.72064">
        <ele>99.2</ele>
        <time>2021-10-24T13:04:50Z</time>
      </trkpt>
      <trkpt lat="45.18256" lon="0.72064">
        <ele>99.2</ele>
        <time>2021-10-24T13:04:51Z</time>
      </trkpt>
      <trkpt lat="45.18255" lon="0.72064">
        <ele>99.1</ele>
        <time>2021-10-24T13:04:52Z</time>
      </trkpt>
      <trkpt lat="45.18255" lon="0.72065">
        <ele>99.1</ele>
        <time>2021-10-24T13:04:54Z</time>
      </trkpt>
      <trkpt lat="45.18255" lon="0.72067">
        <ele>99</ele>
        <time>2021-10-24T13:04:55Z</time>
      </trkpt>
      <trkpt lat="45.18254" lon="0.72068">
        <ele>99</ele>
        <time>2021-10-24T13:04:56Z</time>
      </trkpt>
      <trkpt lat="45.18254" lon="0.72069">
        <ele>98.9</ele>
        <time>2021-10-24T13:04:57Z</time>
      </trkpt>
      <trkpt lat="45.18253" lon="0.7207">
        <ele>98.8</ele>
        <time>2021-10-24T13:04:58Z</time>
      </trkpt>
      <trkpt lat="45.18252" lon="0.72072">
        <ele>98.7</ele>
        <time>2021-10-24T13:05:00Z</time>
      </trkpt>
      <trkpt lat="45.18251" lon="0.72072">
        <ele>98.7</ele>
        <time>2021-10-24T13:05:01Z</time>
      </trkpt>
      <trkpt lat="45.1825" lon="0.72073">
        <ele>98.6</ele>
        <time>2021-10-24T13:05:02Z</time>
      </trkpt>
      <trkpt lat="45.1825" lon="0.72074">
        <ele>98.6</ele>
        <time>2021-10-24T13:05:03Z</time>
      </trkpt>
      <trkpt lat="45.18249" lon="0.72074">
        <ele>98.5</ele>
        <time>2021-10-24T13:05:04Z</time>
      </trkpt>
      <trkpt lat="45.18248" lon="0.72075">
        <ele>98.4</ele>
        <time>2021-10-24T13:05:05Z</time>
      </trkpt>
      <trkpt lat="45.18247" lon="0.72075">
        <ele>98.4</ele>
        <time>2021-10-24T13:05:06Z</time>
      </trkpt>
      <trkpt lat="45.18246" lon="0.72075">
        <ele>98.3</ele>
        <time>2021-10-24T13:05:07Z</time>
      </trkpt>
      <trkpt lat="45.18245" lon="0.72075">
        <ele>98.2</ele>
        <time>2021-10-24T13:05:08Z</time>
      </trkpt>
      <trkpt lat="45.18243" lon="0.72076">
        <ele>98.1</ele>
        <time>2021-10-24T13:05:09Z</time>
      </trkpt>
      <trkpt lat="45.18242" lon="0.72075">
        <ele>98</ele>
        <time>2021-10-24T13:05:10Z</time>
      </trkpt>
      <trkpt lat="45.18241" lon="0.72075">
        <ele>98</ele>
        <time>2021-10-24T13:05:11Z</time>
      </trkpt>
      <trkpt lat="45.1824" lon="0.72075">
        <ele>97.9</ele>
        <time>2021-10-24T13:05:13Z</time>
      </trkpt>
      <trkpt lat="45.18238" lon="0.72074">
        <ele>97.9</ele>
        <time>2021-10-24T13:05:14Z</time>
      </trkpt>
      <trkpt lat="45.18237" lon="0.72074">
        <ele>98</ele>
        <time>2021-10-24T13:05:15Z</time>
      </trkpt>
      <trkpt lat="45.18236" lon="0.72073">
        <ele>98</ele>
        <time>2021-10-24T13:05:16Z</time>
      </trkpt>
      <trkpt lat="45.18235" lon="0.72073">
        <ele>98</ele>
        <time>2021-10-24T13:05:17Z</time>
      </trkpt>
      <trkpt lat="45.18233" lon="0.72073">
        <ele>98</ele>
        <time>2021-10-24T13:05:18Z</time>
      </trkpt>
      <trkpt lat="45.18232" lon="0.72072">
        <ele>98</ele>
        <time>2021-10-24T13:05:19Z</time>
      </trkpt>
      <trkpt lat="45.1823" lon="0.72071">
        <ele>98</ele>
        <time>2021-10-24T13:05:20Z</time>
      </trkpt>
      <trkpt lat="45.18229" lon="0.7207">
        <ele>98</ele>
        <time>2021-10-24T13:05:21Z</time>
      </trkpt>
      <trkpt lat="45.18229" lon="0.7207">
        <ele>98</ele>
        <time>2021-10-24T13:05:22Z</time>
      </trkpt>
      <trkpt lat="45.18226" lon="0.72069">
        <ele>98.1</ele>
        <time>2021-10-24T13:05:23Z</time>
      </trkpt>
      <trkpt lat="45.18226" lon="0.72068">
        <ele>98.1</ele>
        <time>2021-10-24T13:05:24Z</time>
      </trkpt>
      <trkpt lat="45.18225" lon="0.72068">
        <ele>98.1</ele>
        <time>2021-10-24T13:05:25Z</time>
      </trkpt>
      <trkpt lat="45.18223" lon="0.72067">
        <ele>98.2</ele>
        <time>2021-10-24T13:05:27Z</time>
      </trkpt>
      <trkpt lat="45.18222" lon="0.72067">
        <ele>98.2</ele>
        <time>2021-10-24T13:05:28Z</time>
      </trkpt>
      <trkpt lat="45.1822" lon="0.72066">
        <ele>98.3</ele>
        <time>2021-10-24T13:05:29Z</time>
      </trkpt>
      <trkpt lat="45.18219" lon="0.72066">
        <ele>98.3</ele>
        <time>2021-10-24T13:05:30Z</time>
      </trkpt>
      <trkpt lat="45.18218" lon="0.72066">
        <ele>98.3</ele>
        <time>2021-10-24T13:05:31Z</time>
      </trkpt>
      <trkpt lat="45.18216" lon="0.72066">
        <ele>98.3</ele>
        <time>2021-10-24T13:05:32Z</time>
      </trkpt>
      <trkpt lat="45.18215" lon="0.72066">
        <ele>98.4</ele>
        <time>2021-10-24T13:05:33Z</time>
      </trkpt>
      <trkpt lat="45.18214" lon="0.72066">
        <ele>98.4</ele>
        <time>2021-10-24T13:05:34Z</time>
      </trkpt>
      <trkpt lat="45.18212" lon="0.72066">
        <ele>98.4</ele>
        <time>2021-10-24T13:05:35Z</time>
      </trkpt>
      <trkpt lat="45.1821" lon="0.72067">
        <ele>98.4</ele>
        <time>2021-10-24T13:05:37Z</time>
      </trkpt>
      <trkpt lat="45.18209" lon="0.72067">
        <ele>98.5</ele>
        <time>2021-10-24T13:05:38Z</time>
      </trkpt>
      <trkpt lat="45.18208" lon="0.72067">
        <ele>98.5</ele>
        <time>2021-10-24T13:05:39Z</time>
      </trkpt>
      <trkpt lat="45.18207" lon="0.72068">
        <ele>98.2</ele>
        <time>2021-10-24T13:05:40Z</time>
      </trkpt>
      <trkpt lat="45.18205" lon="0.72068">
        <ele>97.6</ele>
        <time>2021-10-24T13:05:42Z</time>
      </trkpt>
      <trkpt lat="45.18204" lon="0.72068">
        <ele>97.3</ele>
        <time>2021-10-24T13:05:43Z</time>
      </trkpt>
      <trkpt lat="45.18202" lon="0.72067">
        <ele>96.9</ele>
        <time>2021-10-24T13:05:44Z</time>
      </trkpt>
      <trkpt lat="45.182" lon="0.72066">
        <ele>96.4</ele>
        <time>2021-10-24T13:05:46Z</time>
      </trkpt>
      <trkpt lat="45.182" lon="0.72064">
        <ele>96</ele>
        <time>2021-10-24T13:05:47Z</time>
      </trkpt>
      <trkpt lat="45.18199" lon="0.72063">
        <ele>95.8</ele>
        <time>2021-10-24T13:05:48Z</time>
      </trkpt>
      <trkpt lat="45.18198" lon="0.72062">
        <ele>95.5</ele>
        <time>2021-10-24T13:05:50Z</time>
      </trkpt>
      <trkpt lat="45.18197" lon="0.72062">
        <ele>95.3</ele>
        <time>2021-10-24T13:05:51Z</time>
      </trkpt>
      <trkpt lat="45.18196" lon="0.72062">
        <ele>93.3</ele>
        <time>2021-10-24T13:05:52Z</time>
      </trkpt>
      <trkpt lat="45.18196" lon="0.72062">
        <ele>93.3</ele>
        <time>2021-10-24T13:05:53Z</time>
      </trkpt>
      <trkpt lat="45.18196" lon="0.72063">
        <ele>93.3</ele>
        <time>2021-10-24T13:05:54Z</time>
      </trkpt>
      <trkpt lat="45.18195" lon="0.72063">
        <ele>93.3</ele>
        <time>2021-10-24T13:05:56Z</time>
      </trkpt>
      <trkpt lat="45.18194" lon="0.72065">
        <ele>93.2</ele>
        <time>2021-10-24T13:05:57Z</time>
      </trkpt>
      <trkpt lat="45.18194" lon="0.72065">
        <ele>93.2</ele>
        <time>2021-10-24T13:05:58Z</time>
      </trkpt>
      <trkpt lat="45.18193" lon="0.72067">
        <ele>93.2</ele>
        <time>2021-10-24T13:05:59Z</time>
      </trkpt>
      <trkpt lat="45.18193" lon="0.72068">
        <ele>93.2</ele>
        <time>2021-10-24T13:06:00Z</time>
      </trkpt>
      <trkpt lat="45.18192" lon="0.72069">
        <ele>93.1</ele>
        <time>2021-10-24T13:06:01Z</time>
      </trkpt>
      <trkpt lat="45.18191" lon="0.72071">
        <ele>93.1</ele>
        <time>2021-10-24T13:06:03Z</time>
      </trkpt>
      <trkpt lat="45.18191" lon="0.72073">
        <ele>93.1</ele>
        <time>2021-10-24T13:06:04Z</time>
      </trkpt>
      <trkpt lat="45.1819" lon="0.72073">
        <ele>93</ele>
        <time>2021-10-24T13:06:05Z</time>
      </trkpt>
      <trkpt lat="45.18189" lon="0.72075">
        <ele>93</ele>
        <time>2021-10-24T13:06:07Z</time>
      </trkpt>
      <trkpt lat="45.18188" lon="0.72076">
        <ele>93</ele>
        <time>2021-10-24T13:06:08Z</time>
      </trkpt>
      <trkpt lat="45.18187" lon="0.72077">
        <ele>93</ele>
        <time>2021-10-24T13:06:09Z</time>
      </trkpt>
      <trkpt lat="45.18187" lon="0.72078">
        <ele>92.9</ele>
        <time>2021-10-24T13:06:10Z</time>
      </trkpt>
      <trkpt lat="45.18186" lon="0.72079">
        <ele>92.9</ele>
        <time>2021-10-24T13:06:11Z</time>
      </trkpt>
      <trkpt lat="45.18185" lon="0.7208">
        <ele>92.9</ele>
        <time>2021-10-24T13:06:13Z</time>
      </trkpt>
      <trkpt lat="45.18184" lon="0.72081">
        <ele>92.9</ele>
        <time>2021-10-24T13:06:14Z</time>
      </trkpt>
      <trkpt lat="45.18183" lon="0.72082">
        <ele>92.8</ele>
        <time>2021-10-24T13:06:15Z</time>
      </trkpt>
      <trkpt lat="45.18182" lon="0.72083">
        <ele>92.8</ele>
        <time>2021-10-24T13:06:16Z</time>
      </trkpt>
      <trkpt lat="45.18181" lon="0.72084">
        <ele>92.8</ele>
        <time>2021-10-24T13:06:18Z</time>
      </trkpt>
      <trkpt lat="45.1818" lon="0.72085">
        <ele>92.8</ele>
        <time>2021-10-24T13:06:19Z</time>
      </trkpt>
      <trkpt lat="45.1818" lon="0.72087">
        <ele>92.7</ele>
        <time>2021-10-24T13:06:20Z</time>
      </trkpt>
      <trkpt lat="45.18179" lon="0.72088">
        <ele>92.7</ele>
        <time>2021-10-24T13:06:21Z</time>
      </trkpt>
      <trkpt lat="45.18178" lon="0.72089">
        <ele>92.7</ele>
        <time>2021-10-24T13:06:22Z</time>
      </trkpt>
      <trkpt lat="45.18177" lon="0.72091">
        <ele>92.7</ele>
        <time>2021-10-24T13:06:23Z</time>
      </trkpt>
      <trkpt lat="45.18177" lon="0.72092">
        <ele>92.7</ele>
        <time>2021-10-24T13:06:24Z</time>
      </trkpt>
      <trkpt lat="45.18177" lon="0.72093">
        <ele>92.6</ele>
        <time>2021-10-24T13:06:25Z</time>
      </trkpt>
      <trkpt lat="45.18177" lon="0.72095">
        <ele>92.6</ele>
        <time>2021-10-24T13:06:26Z</time>
      </trkpt>
      <trkpt lat="45.18176" lon="0.72096">
        <ele>92.6</ele>
        <time>2021-10-24T13:06:28Z</time>
      </trkpt>
      <trkpt lat="45.18176" lon="0.72098">
        <ele>92.6</ele>
        <time>2021-10-24T13:06:29Z</time>
      </trkpt>
      <trkpt lat="45.18176" lon="0.721">
        <ele>92.6</ele>
        <time>2021-10-24T13:06:30Z</time>
      </trkpt>
      <trkpt lat="45.18175" lon="0.72101">
        <ele>92.6</ele>
        <time>2021-10-24T13:06:31Z</time>
      </trkpt>
      <trkpt lat="45.18175" lon="0.72102">
        <ele>92.5</ele>
        <time>2021-10-24T13:06:32Z</time>
      </trkpt>
      <trkpt lat="45.18174" lon="0.72103">
        <ele>92.5</ele>
        <time>2021-10-24T13:06:33Z</time>
      </trkpt>
      <trkpt lat="45.18174" lon="0.72105">
        <ele>92.5</ele>
        <time>2021-10-24T13:06:34Z</time>
      </trkpt>
      <trkpt lat="45.18173" lon="0.72106">
        <ele>92.5</ele>
        <time>2021-10-24T13:06:35Z</time>
      </trkpt>
      <trkpt lat="45.18172" lon="0.72107">
        <ele>92.5</ele>
        <time>2021-10-24T13:06:36Z</time>
      </trkpt>
      <trkpt lat="45.18171" lon="0.72109">
        <ele>92.5</ele>
        <time>2021-10-24T13:06:37Z</time>
      </trkpt>
      <trkpt lat="45.1817" lon="0.7211">
        <ele>92.5</ele>
        <time>2021-10-24T13:06:39Z</time>
      </trkpt>
      <trkpt lat="45.1817" lon="0.72111">
        <ele>92.4</ele>
        <time>2021-10-24T13:06:40Z</time>
      </trkpt>
      <trkpt lat="45.18169" lon="0.72113">
        <ele>92.4</ele>
        <time>2021-10-24T13:06:41Z</time>
      </trkpt>
      <trkpt lat="45.1817" lon="0.72114">
        <ele>92.4</ele>
        <time>2021-10-24T13:06:42Z</time>
      </trkpt>
      <trkpt lat="45.1817" lon="0.72114">
        <ele>92.4</ele>
        <time>2021-10-24T13:06:43Z</time>
      </trkpt>
      <trkpt lat="45.1817" lon="0.72114">
        <ele>92.9</ele>
        <time>2021-10-24T13:06:45Z</time>
      </trkpt>
      <trkpt lat="45.18171" lon="0.72114">
        <ele>92.9</ele>
        <time>2021-10-24T13:06:47Z</time>
      </trkpt>
      <trkpt lat="45.18171" lon="0.72114">
        <ele>93</ele>
        <time>2021-10-24T13:06:49Z</time>
      </trkpt>
      <trkpt lat="45.18171" lon="0.72115">
        <ele>93</ele>
        <time>2021-10-24T13:06:50Z</time>
      </trkpt>
      <trkpt lat="45.18171" lon="0.72115">
        <ele>93</ele>
        <time>2021-10-24T13:06:51Z</time>
      </trkpt>
      <trkpt lat="45.18171" lon="0.72115">
        <ele>93</ele>
        <time>2021-10-24T13:06:53Z</time>
      </trkpt>
      <trkpt lat="45.18171" lon="0.72115">
        <ele>93</ele>
        <time>2021-10-24T13:06:55Z</time>
      </trkpt>
      <trkpt lat="45.18172" lon="0.72115">
        <ele>93</ele>
        <time>2021-10-24T13:06:56Z</time>
      </trkpt>
      <trkpt lat="45.18172" lon="0.72116">
        <ele>93</ele>
        <time>2021-10-24T13:06:57Z</time>
      </trkpt>
      <trkpt lat="45.18172" lon="0.72116">
        <ele>93</ele>
        <time>2021-10-24T13:06:59Z</time>
      </trkpt>
      <trkpt lat="45.18173" lon="0.72116">
        <ele>93</ele>
        <time>2021-10-24T13:07:00Z</time>
      </trkpt>
      <trkpt lat="45.18173" lon="0.72116">
        <ele>93.1</ele>
        <time>2021-10-24T13:07:02Z</time>
      </trkpt>
      <trkpt lat="45.18173" lon="0.72117">
        <ele>93.1</ele>
        <time>2021-10-24T13:07:04Z</time>
      </trkpt>
      <trkpt lat="45.18173" lon="0.72117">
        <ele>93.1</ele>
        <time>2021-10-24T13:07:06Z</time>
      </trkpt>
      <trkpt lat="45.18173" lon="0.72117">
        <ele>93.1</ele>
        <time>2021-10-24T13:07:07Z</time>
      </trkpt>
      <trkpt lat="45.18173" lon="0.72117">
        <ele>93.1</ele>
        <time>2021-10-24T13:07:08Z</time>
      </trkpt>
      <trkpt lat="45.18173" lon="0.72117">
        <ele>93.1</ele>
        <time>2021-10-24T13:07:09Z</time>
      </trkpt>
      <trkpt lat="45.18173" lon="0.72117">
        <ele>93.1</ele>
        <time>2021-10-24T13:07:11Z</time>
      </trkpt>
      <trkpt lat="45.18173" lon="0.72117">
        <ele>93.1</ele>
        <time>2021-10-24T13:07:12Z</time>
      </trkpt>
      <trkpt lat="45.18173" lon="0.72117">
        <ele>93.1</ele>
        <time>2021-10-24T13:07:14Z</time>
      </trkpt>
      <trkpt lat="45.18173" lon="0.72117">
        <ele>93.1</ele>
        <time>2021-10-24T13:07:15Z</time>
      </trkpt>
      <trkpt lat="45.18172" lon="0.72117">
        <ele>93.1</ele>
        <time>2021-10-24T13:07:16Z</time>
      </trkpt>
      <trkpt lat="45.18172" lon="0.72116">
        <ele>93.1</ele>
        <time>2021-10-24T13:07:17Z</time>
      </trkpt>
      <trkpt lat="45.18172" lon="0.72116">
        <ele>93.1</ele>
        <time>2021-10-24T13:07:18Z</time>
      </trkpt>
      <trkpt lat="45.18172" lon="0.72116">
        <ele>93.1</ele>
        <time>2021-10-24T13:07:19Z</time>
      </trkpt>
      <trkpt lat="45.18172" lon="0.72116">
        <ele>93.1</ele>
        <time>2021-10-24T13:07:21Z</time>
      </trkpt>
      <trkpt lat="45.18172" lon="0.72116">
        <ele>93.1</ele>
        <time>2021-10-24T13:07:22Z</time>
      </trkpt>
      <trkpt lat="45.18172" lon="0.72116">
        <ele>93.1</ele>
        <time>2021-10-24T13:07:24Z</time>
      </trkpt>
      <trkpt lat="45.18172" lon="0.72116">
        <ele>93.1</ele>
        <time>2021-10-24T13:07:26Z</time>
      </trkpt>
      <trkpt lat="45.18172" lon="0.72116">
        <ele>93.1</ele>
        <time>2021-10-24T13:07:27Z</time>
      </trkpt>
      <trkpt lat="45.18172" lon="0.72116">
        <ele>93.1</ele>
        <time>2021-10-24T13:07:29Z</time>
      </trkpt>
      <trkpt lat="45.18172" lon="0.72116">
        <ele>93.1</ele>
        <time>2021-10-24T13:07:31Z</time>
      </trkpt>
      <trkpt lat="45.18172" lon="0.72116">
        <ele>93.1</ele>
        <time>2021-10-24T13:07:33Z</time>
      </trkpt>
      <trkpt lat="45.18172" lon="0.72116">
        <ele>93.1</ele>
        <time>2021-10-24T13:07:34Z</time>
      </trkpt>
      <trkpt lat="45.18172" lon="0.72116">
        <ele>93.1</ele>
        <time>2021-10-24T13:07:36Z</time>
      </trkpt>
      <trkpt lat="45.18172" lon="0.72116">
        <ele>93.1</ele>
        <time>2021-10-24T13:07:38Z</time>
      </trkpt>
      <trkpt lat="45.18172" lon="0.72116">
        <ele>93.1</ele>
        <time>2021-10-24T13:07:40Z</time>
      </trkpt>
      <trkpt lat="45.18173" lon="0.72117">
        <ele>93.2</ele>
        <time>2021-10-24T13:07:42Z</time>
      </trkpt>
      <trkpt lat="45.18174" lon="0.72118">
        <ele>93.2</ele>
        <time>2021-10-24T13:07:43Z</time>
      </trkpt>
      <trkpt lat="45.18175" lon="0.72119">
        <ele>93.3</ele>
        <time>2021-10-24T13:07:45Z</time>
      </trkpt>
      <trkpt lat="45.18176" lon="0.7212">
        <ele>93.4</ele>
        <time>2021-10-24T13:07:46Z</time>
      </trkpt>
      <trkpt lat="45.18176" lon="0.72121">
        <ele>93.4</ele>
        <time>2021-10-24T13:07:47Z</time>
      </trkpt>
      <trkpt lat="45.18176" lon="0.72121">
        <ele>93.4</ele>
        <time>2021-10-24T13:07:49Z</time>
      </trkpt>
      <trkpt lat="45.18177" lon="0.72121">
        <ele>93.4</ele>
        <time>2021-10-24T13:07:51Z</time>
      </trkpt>
      <trkpt lat="45.18177" lon="0.72121">
        <ele>93.4</ele>
        <time>2021-10-24T13:07:52Z</time>
      </trkpt>
      <trkpt lat="45.18177" lon="0.72121">
        <ele>93.4</ele>
        <time>2021-10-24T13:07:54Z</time>
      </trkpt>
      <trkpt lat="45.18177" lon="0.72121">
        <ele>93.4</ele>
        <time>2021-10-24T13:07:56Z</time>
      </trkpt>
      <trkpt lat="45.18177" lon="0.72121">
        <ele>93.5</ele>
        <time>2021-10-24T13:07:57Z</time>
      </trkpt>
      <trkpt lat="45.18177" lon="0.72121">
        <ele>93.5</ele>
        <time>2021-10-24T13:07:59Z</time>
      </trkpt>
      <trkpt lat="45.18177" lon="0.72121">
        <ele>93.5</ele>
        <time>2021-10-24T13:08:00Z</time>
      </trkpt>
      <trkpt lat="45.18177" lon="0.72121">
        <ele>93.5</ele>
        <time>2021-10-24T13:08:01Z</time>
      </trkpt>
      <trkpt lat="45.18177" lon="0.72121">
        <ele>93.5</ele>
        <time>2021-10-24T13:08:02Z</time>
      </trkpt>
      <trkpt lat="45.18177" lon="0.72121">
        <ele>93.5</ele>
        <time>2021-10-24T13:08:04Z</time>
      </trkpt>
      <trkpt lat="45.18176" lon="0.72121">
        <ele>93.5</ele>
        <time>2021-10-24T13:08:05Z</time>
      </trkpt>
      <trkpt lat="45.18177" lon="0.72121">
        <ele>93.5</ele>
        <time>2021-10-24T13:08:07Z</time>
      </trkpt>
      <trkpt lat="45.18177" lon="0.72121">
        <ele>93.5</ele>
        <time>2021-10-24T13:08:09Z</time>
      </trkpt>
      <trkpt lat="45.18177" lon="0.72121">
        <ele>93.5</ele>
        <time>2021-10-24T13:08:10Z</time>
      </trkpt>
      <trkpt lat="45.18177" lon="0.72121">
        <ele>93.5</ele>
        <time>2021-10-24T13:08:12Z</time>
      </trkpt>
      <trkpt lat="45.18177" lon="0.72121">
        <ele>93.5</ele>
        <time>2021-10-24T13:08:14Z</time>
      </trkpt>
      <trkpt lat="45.18177" lon="0.72121">
        <ele>93.5</ele>
        <time>2021-10-24T13:08:15Z</time>
      </trkpt>
      <trkpt lat="45.18177" lon="0.72121">
        <ele>93.5</ele>
        <time>2021-10-24T13:08:16Z</time>
      </trkpt>
      <trkpt lat="45.18177" lon="0.72121">
        <ele>93.5</ele>
        <time>2021-10-24T13:08:17Z</time>
      </trkpt>
      <trkpt lat="45.18177" lon="0.72121">
        <ele>93.5</ele>
        <time>2021-10-24T13:08:19Z</time>
      </trkpt>
      <trkpt lat="45.18177" lon="0.72121">
        <ele>93.5</ele>
        <time>2021-10-24T13:08:21Z</time>
      </trkpt>
      <trkpt lat="45.18177" lon="0.72121">
        <ele>93.5</ele>
        <time>2021-10-24T13:08:22Z</time>
      </trkpt>
      <trkpt lat="45.18177" lon="0.72121">
        <ele>93.5</ele>
        <time>2021-10-24T13:08:23Z</time>
      </trkpt>
      <trkpt lat="45.18177" lon="0.72121">
        <ele>93.5</ele>
        <time>2021-10-24T13:08:25Z</time>
      </trkpt>
      <trkpt lat="45.18177" lon="0.72121">
        <ele>93.5</ele>
        <time>2021-10-24T13:08:26Z</time>
      </trkpt>
      <trkpt lat="45.18177" lon="0.72121">
        <ele>93.5</ele>
        <time>2021-10-24T13:08:27Z</time>
      </trkpt>
      <trkpt lat="45.18177" lon="0.72121">
        <ele>93.5</ele>
        <time>2021-10-24T13:08:28Z</time>
      </trkpt>
      <trkpt lat="45.18177" lon="0.72121">
        <ele>93.5</ele>
        <time>2021-10-24T13:08:30Z</time>
      </trkpt>
      <trkpt lat="45.18177" lon="0.72121">
        <ele>93.5</ele>
        <time>2021-10-24T13:08:31Z</time>
      </trkpt>
      <trkpt lat="45.18177" lon="0.72121">
        <ele>93.5</ele>
        <time>2021-10-24T13:08:33Z</time>
      </trkpt>
      <trkpt lat="45.18177" lon="0.72121">
        <ele>93.5</ele>
        <time>2021-10-24T13:08:34Z</time>
      </trkpt>
      <trkpt lat="45.18178" lon="0.72121">
        <ele>93.6</ele>
        <time>2021-10-24T13:08:35Z</time>
      </trkpt>
      <trkpt lat="45.18178" lon="0.72121">
        <ele>93.6</ele>
        <time>2021-10-24T13:08:36Z</time>
      </trkpt>
      <trkpt lat="45.18178" lon="0.72122">
        <ele>93.6</ele>
        <time>2021-10-24T13:08:38Z</time>
      </trkpt>
      <trkpt lat="45.18179" lon="0.72122">
        <ele>93.7</ele>
        <time>2021-10-24T13:08:39Z</time>
      </trkpt>
      <trkpt lat="45.18181" lon="0.72122">
        <ele>93.7</ele>
        <time>2021-10-24T13:08:40Z</time>
      </trkpt>
      <trkpt lat="45.18183" lon="0.72121">
        <ele>93.8</ele>
        <time>2021-10-24T13:08:41Z</time>
      </trkpt>
      <trkpt lat="45.18185" lon="0.7212">
        <ele>93.9</ele>
        <time>2021-10-24T13:08:42Z</time>
      </trkpt>
      <trkpt lat="45.18186" lon="0.7212">
        <ele>94</ele>
        <time>2021-10-24T13:08:44Z</time>
      </trkpt>
      <trkpt lat="45.18187" lon="0.72121">
        <ele>94</ele>
        <time>2021-10-24T13:08:45Z</time>
      </trkpt>
      <trkpt lat="45.18187" lon="0.72121">
        <ele>94</ele>
        <time>2021-10-24T13:08:46Z</time>
      </trkpt>
      <trkpt lat="45.18188" lon="0.72121">
        <ele>94.1</ele>
        <time>2021-10-24T13:08:48Z</time>
      </trkpt>
      <trkpt lat="45.18189" lon="0.7212">
        <ele>94.1</ele>
        <time>2021-10-24T13:08:49Z</time>
      </trkpt>
      <trkpt lat="45.1819" lon="0.7212">
        <ele>94.2</ele>
        <time>2021-10-24T13:08:50Z</time>
      </trkpt>
      <trkpt lat="45.18191" lon="0.72119">
        <ele>94.2</ele>
        <time>2021-10-24T13:08:51Z</time>
      </trkpt>
      <trkpt lat="45.18191" lon="0.72119">
        <ele>94.2</ele>
        <time>2021-10-24T13:08:52Z</time>
      </trkpt>
      <trkpt lat="45.18192" lon="0.7212">
        <ele>94.3</ele>
        <time>2021-10-24T13:08:53Z</time>
      </trkpt>
      <trkpt lat="45.18194" lon="0.72119">
        <ele>94.3</ele>
        <time>2021-10-24T13:08:55Z</time>
      </trkpt>
      <trkpt lat="45.18195" lon="0.72119">
        <ele>94.4</ele>
        <time>2021-10-24T13:08:56Z</time>
      </trkpt>
      <trkpt lat="45.18196" lon="0.72119">
        <ele>94.4</ele>
        <time>2021-10-24T13:08:57Z</time>
      </trkpt>
      <trkpt lat="45.18197" lon="0.72119">
        <ele>94.4</ele>
        <time>2021-10-24T13:08:58Z</time>
      </trkpt>
      <trkpt lat="45.18197" lon="0.7212">
        <ele>94.4</ele>
        <time>2021-10-24T13:08:59Z</time>
      </trkpt>
      <trkpt lat="45.18199" lon="0.72121">
        <ele>94.5</ele>
        <time>2021-10-24T13:09:01Z</time>
      </trkpt>
      <trkpt lat="45.182" lon="0.72121">
        <ele>94.5</ele>
        <time>2021-10-24T13:09:02Z</time>
      </trkpt>
      <trkpt lat="45.18201" lon="0.72122">
        <ele>94.5</ele>
        <time>2021-10-24T13:09:03Z</time>
      </trkpt>
      <trkpt lat="45.18202" lon="0.72123">
        <ele>94.6</ele>
        <time>2021-10-24T13:09:05Z</time>
      </trkpt>
      <trkpt lat="45.18203" lon="0.72123">
        <ele>94.6</ele>
        <time>2021-10-24T13:09:06Z</time>
      </trkpt>
      <trkpt lat="45.18204" lon="0.72124">
        <ele>94.6</ele>
        <time>2021-10-24T13:09:07Z</time>
      </trkpt>
      <trkpt lat="45.18205" lon="0.72124">
        <ele>94.6</ele>
        <time>2021-10-24T13:09:08Z</time>
      </trkpt>
      <trkpt lat="45.18205" lon="0.72125">
        <ele>94.7</ele>
        <time>2021-10-24T13:09:09Z</time>
      </trkpt>
      <trkpt lat="45.18206" lon="0.72125">
        <ele>94.7</ele>
        <time>2021-10-24T13:09:10Z</time>
      </trkpt>
      <trkpt lat="45.18208" lon="0.72125">
        <ele>94.8</ele>
        <time>2021-10-24T13:09:12Z</time>
      </trkpt>
      <trkpt lat="45.18209" lon="0.72125">
        <ele>94.8</ele>
        <time>2021-10-24T13:09:13Z</time>
      </trkpt>
      <trkpt lat="45.1821" lon="0.72125">
        <ele>94.9</ele>
        <time>2021-10-24T13:09:14Z</time>
      </trkpt>
      <trkpt lat="45.18212" lon="0.72125">
        <ele>94.9</ele>
        <time>2021-10-24T13:09:15Z</time>
      </trkpt>
      <trkpt lat="45.18214" lon="0.72124">
        <ele>95</ele>
        <time>2021-10-24T13:09:17Z</time>
      </trkpt>
      <trkpt lat="45.18216" lon="0.72124">
        <ele>95.1</ele>
        <time>2021-10-24T13:09:18Z</time>
      </trkpt>
      <trkpt lat="45.18216" lon="0.72124">
        <ele>95.1</ele>
        <time>2021-10-24T13:09:19Z</time>
      </trkpt>
      <trkpt lat="45.18217" lon="0.72124">
        <ele>95.2</ele>
        <time>2021-10-24T13:09:21Z</time>
      </trkpt>
      <trkpt lat="45.18218" lon="0.72124">
        <ele>95.2</ele>
        <time>2021-10-24T13:09:22Z</time>
      </trkpt>
      <trkpt lat="45.18219" lon="0.72124">
        <ele>95.2</ele>
        <time>2021-10-24T13:09:23Z</time>
      </trkpt>
      <trkpt lat="45.1822" lon="0.72124">
        <ele>95.3</ele>
        <time>2021-10-24T13:09:24Z</time>
      </trkpt>
      <trkpt lat="45.1822" lon="0.72124">
        <ele>95.3</ele>
        <time>2021-10-24T13:09:25Z</time>
      </trkpt>
      <trkpt lat="45.18221" lon="0.72124">
        <ele>95.4</ele>
        <time>2021-10-24T13:09:26Z</time>
      </trkpt>
      <trkpt lat="45.18223" lon="0.72124">
        <ele>95.4</ele>
        <time>2021-10-24T13:09:28Z</time>
      </trkpt>
      <trkpt lat="45.18224" lon="0.72125">
        <ele>95.5</ele>
        <time>2021-10-24T13:09:29Z</time>
      </trkpt>
      <trkpt lat="45.18225" lon="0.72125">
        <ele>95.6</ele>
        <time>2021-10-24T13:09:30Z</time>
      </trkpt>
      <trkpt lat="45.18226" lon="0.72126">
        <ele>95.7</ele>
        <time>2021-10-24T13:09:31Z</time>
      </trkpt>
      <trkpt lat="45.18227" lon="0.72127">
        <ele>95.7</ele>
        <time>2021-10-24T13:09:33Z</time>
      </trkpt>
      <trkpt lat="45.18229" lon="0.72128">
        <ele>95.8</ele>
        <time>2021-10-24T13:09:34Z</time>
      </trkpt>
      <trkpt lat="45.18229" lon="0.72128">
        <ele>95.8</ele>
        <time>2021-10-24T13:09:35Z</time>
      </trkpt>
      <trkpt lat="45.1823" lon="0.72129">
        <ele>95.9</ele>
        <time>2021-10-24T13:09:37Z</time>
      </trkpt>
      <trkpt lat="45.1823" lon="0.72129">
        <ele>95.9</ele>
        <time>2021-10-24T13:09:38Z</time>
      </trkpt>
      <trkpt lat="45.18231" lon="0.72129">
        <ele>95.9</ele>
        <time>2021-10-24T13:09:39Z</time>
      </trkpt>
      <trkpt lat="45.18233" lon="0.72128">
        <ele>96</ele>
        <time>2021-10-24T13:09:41Z</time>
      </trkpt>
      <trkpt lat="45.18234" lon="0.72128">
        <ele>96.1</ele>
        <time>2021-10-24T13:09:42Z</time>
      </trkpt>
      <trkpt lat="45.18235" lon="0.72128">
        <ele>96.1</ele>
        <time>2021-10-24T13:09:43Z</time>
      </trkpt>
      <trkpt lat="45.18236" lon="0.72127">
        <ele>96.2</ele>
        <time>2021-10-24T13:09:45Z</time>
      </trkpt>
      <trkpt lat="45.18237" lon="0.72128">
        <ele>96.2</ele>
        <time>2021-10-24T13:09:46Z</time>
      </trkpt>
      <trkpt lat="45.18238" lon="0.72128">
        <ele>96.3</ele>
        <time>2021-10-24T13:09:47Z</time>
      </trkpt>
      <trkpt lat="45.18239" lon="0.72127">
        <ele>96.3</ele>
        <time>2021-10-24T13:09:48Z</time>
      </trkpt>
      <trkpt lat="45.18241" lon="0.72126">
        <ele>96.4</ele>
        <time>2021-10-24T13:09:50Z</time>
      </trkpt>
      <trkpt lat="45.18242" lon="0.72126">
        <ele>96.5</ele>
        <time>2021-10-24T13:09:51Z</time>
      </trkpt>
      <trkpt lat="45.18242" lon="0.72126">
        <ele>96.5</ele>
        <time>2021-10-24T13:09:52Z</time>
      </trkpt>
      <trkpt lat="45.18244" lon="0.72125">
        <ele>96.6</ele>
        <time>2021-10-24T13:09:53Z</time>
      </trkpt>
      <trkpt lat="45.18245" lon="0.72125">
        <ele>96.7</ele>
        <time>2021-10-24T13:09:54Z</time>
      </trkpt>
      <trkpt lat="45.18246" lon="0.72126">
        <ele>96.7</ele>
        <time>2021-10-24T13:09:55Z</time>
      </trkpt>
      <trkpt lat="45.18246" lon="0.72126">
        <ele>96.8</ele>
        <time>2021-10-24T13:09:57Z</time>
      </trkpt>
      <trkpt lat="45.18247" lon="0.72127">
        <ele>97.2</ele>
        <time>2021-10-24T13:09:58Z</time>
      </trkpt>
      <trkpt lat="45.18248" lon="0.72128">
        <ele>97.3</ele>
        <time>2021-10-24T13:10:00Z</time>
      </trkpt>
      <trkpt lat="45.18247" lon="0.72128">
        <ele>97.3</ele>
        <time>2021-10-24T13:10:01Z</time>
      </trkpt>
      <trkpt lat="45.18247" lon="0.72127">
        <ele>97.3</ele>
        <time>2021-10-24T13:10:03Z</time>
      </trkpt>
      <trkpt lat="45.18248" lon="0.72127">
        <ele>97.3</ele>
        <time>2021-10-24T13:10:04Z</time>
      </trkpt>
      <trkpt lat="45.18248" lon="0.72126">
        <ele>97.3</ele>
        <time>2021-10-24T13:10:05Z</time>
      </trkpt>
      <trkpt lat="45.18248" lon="0.72127">
        <ele>97.3</ele>
        <time>2021-10-24T13:10:07Z</time>
      </trkpt>
      <trkpt lat="45.18249" lon="0.72128">
        <ele>97.4</ele>
        <time>2021-10-24T13:10:08Z</time>
      </trkpt>
      <trkpt lat="45.18249" lon="0.72129">
        <ele>97.4</ele>
        <time>2021-10-24T13:10:09Z</time>
      </trkpt>
      <trkpt lat="45.18249" lon="0.72131">
        <ele>97.5</ele>
        <time>2021-10-24T13:10:10Z</time>
      </trkpt>
      <trkpt lat="45.1825" lon="0.72134">
        <ele>97.6</ele>
        <time>2021-10-24T13:10:12Z</time>
      </trkpt>
      <trkpt lat="45.1825" lon="0.72135">
        <ele>97.6</ele>
        <time>2021-10-24T13:10:13Z</time>
      </trkpt>
      <trkpt lat="45.18251" lon="0.72138">
        <ele>97.7</ele>
        <time>2021-10-24T13:10:15Z</time>
      </trkpt>
      <trkpt lat="45.18252" lon="0.72139">
        <ele>97.8</ele>
        <time>2021-10-24T13:10:16Z</time>
      </trkpt>
      <trkpt lat="45.18253" lon="0.72142">
        <ele>97.9</ele>
        <time>2021-10-24T13:10:17Z</time>
      </trkpt>
      <trkpt lat="45.18253" lon="0.72144">
        <ele>98</ele>
        <time>2021-10-24T13:10:19Z</time>
      </trkpt>
      <trkpt lat="45.18255" lon="0.72145">
        <ele>98</ele>
        <time>2021-10-24T13:10:20Z</time>
      </trkpt>
      <trkpt lat="45.18255" lon="0.72147">
        <ele>98.1</ele>
        <time>2021-10-24T13:10:21Z</time>
      </trkpt>
      <trkpt lat="45.18256" lon="0.72149">
        <ele>98.2</ele>
        <time>2021-10-24T13:10:22Z</time>
      </trkpt>
      <trkpt lat="45.18257" lon="0.7215">
        <ele>98.2</ele>
        <time>2021-10-24T13:10:23Z</time>
      </trkpt>
      <trkpt lat="45.18258" lon="0.72152">
        <ele>98.3</ele>
        <time>2021-10-24T13:10:25Z</time>
      </trkpt>
      <trkpt lat="45.18259" lon="0.72153">
        <ele>98.4</ele>
        <time>2021-10-24T13:10:26Z</time>
      </trkpt>
      <trkpt lat="45.18259" lon="0.72155">
        <ele>98.5</ele>
        <time>2021-10-24T13:10:27Z</time>
      </trkpt>
      <trkpt lat="45.1826" lon="0.72156">
        <ele>98.5</ele>
        <time>2021-10-24T13:10:28Z</time>
      </trkpt>
      <trkpt lat="45.1826" lon="0.72157">
        <ele>98.6</ele>
        <time>2021-10-24T13:10:29Z</time>
      </trkpt>
      <trkpt lat="45.1826" lon="0.72158">
        <ele>98.6</ele>
        <time>2021-10-24T13:10:30Z</time>
      </trkpt>
      <trkpt lat="45.18261" lon="0.72159">
        <ele>98.6</ele>
        <time>2021-10-24T13:10:31Z</time>
      </trkpt>
      <trkpt lat="45.18261" lon="0.7216">
        <ele>98.7</ele>
        <time>2021-10-24T13:10:32Z</time>
      </trkpt>
      <trkpt lat="45.18262" lon="0.72162">
        <ele>98.8</ele>
        <time>2021-10-24T13:10:33Z</time>
      </trkpt>
      <trkpt lat="45.18263" lon="0.72163">
        <ele>98.9</ele>
        <time>2021-10-24T13:10:35Z</time>
      </trkpt>
      <trkpt lat="45.18264" lon="0.72164">
        <ele>98.9</ele>
        <time>2021-10-24T13:10:36Z</time>
      </trkpt>
      <trkpt lat="45.18264" lon="0.72165">
        <ele>99</ele>
        <time>2021-10-24T13:10:37Z</time>
      </trkpt>
      <trkpt lat="45.18265" lon="0.72167">
        <ele>99</ele>
        <time>2021-10-24T13:10:38Z</time>
      </trkpt>
      <trkpt lat="45.18265" lon="0.72168">
        <ele>99.1</ele>
        <time>2021-10-24T13:10:40Z</time>
      </trkpt>
      <trkpt lat="45.18266" lon="0.72168">
        <ele>99.1</ele>
        <time>2021-10-24T13:10:41Z</time>
      </trkpt>
      <trkpt lat="45.18266" lon="0.72169">
        <ele>99.2</ele>
        <time>2021-10-24T13:10:43Z</time>
      </trkpt>
      <trkpt lat="45.18267" lon="0.72169">
        <ele>99.2</ele>
        <time>2021-10-24T13:10:45Z</time>
      </trkpt>
      <trkpt lat="45.18267" lon="0.72169">
        <ele>99.2</ele>
        <time>2021-10-24T13:10:46Z</time>
      </trkpt>
      <trkpt lat="45.18267" lon="0.72169">
        <ele>99.2</ele>
        <time>2021-10-24T13:10:48Z</time>
      </trkpt>
      <trkpt lat="45.18267" lon="0.72169">
        <ele>99.2</ele>
        <time>2021-10-24T13:10:50Z</time>
      </trkpt>
      <trkpt lat="45.18268" lon="0.72169">
        <ele>99.2</ele>
        <time>2021-10-24T13:10:51Z</time>
      </trkpt>
      <trkpt lat="45.18269" lon="0.72169">
        <ele>99.3</ele>
        <time>2021-10-24T13:10:52Z</time>
      </trkpt>
      <trkpt lat="45.1827" lon="0.72169">
        <ele>99.3</ele>
        <time>2021-10-24T13:10:53Z</time>
      </trkpt>
      <trkpt lat="45.18271" lon="0.7217">
        <ele>99.4</ele>
        <time>2021-10-24T13:10:55Z</time>
      </trkpt>
      <trkpt lat="45.18273" lon="0.7217">
        <ele>99.5</ele>
        <time>2021-10-24T13:10:56Z</time>
      </trkpt>
      <trkpt lat="45.18274" lon="0.7217">
        <ele>99.6</ele>
        <time>2021-10-24T13:10:57Z</time>
      </trkpt>
      <trkpt lat="45.18275" lon="0.7217">
        <ele>99.7</ele>
        <time>2021-10-24T13:10:59Z</time>
      </trkpt>
      <trkpt lat="45.18276" lon="0.7217">
        <ele>99.8</ele>
        <time>2021-10-24T13:11:00Z</time>
      </trkpt>
      <trkpt lat="45.18277" lon="0.7217">
        <ele>99.9</ele>
        <time>2021-10-24T13:11:01Z</time>
      </trkpt>
      <trkpt lat="45.18278" lon="0.7217">
        <ele>100</ele>
        <time>2021-10-24T13:11:03Z</time>
      </trkpt>
      <trkpt lat="45.1828" lon="0.7217">
        <ele>100.1</ele>
        <time>2021-10-24T13:11:04Z</time>
      </trkpt>
      <trkpt lat="45.18281" lon="0.7217">
        <ele>100.3</ele>
        <time>2021-10-24T13:11:05Z</time>
      </trkpt>
      <trkpt lat="45.18283" lon="0.72169">
        <ele>100.5</ele>
        <time>2021-10-24T13:11:07Z</time>
      </trkpt>
      <trkpt lat="45.18284" lon="0.72168">
        <ele>100.6</ele>
        <time>2021-10-24T13:11:08Z</time>
      </trkpt>
      <trkpt lat="45.18284" lon="0.72168">
        <ele>100.7</ele>
        <time>2021-10-24T13:11:10Z</time>
      </trkpt>
      <trkpt lat="45.18285" lon="0.72168">
        <ele>100.8</ele>
        <time>2021-10-24T13:11:11Z</time>
      </trkpt>
      <trkpt lat="45.18286" lon="0.72169">
        <ele>100.9</ele>
        <time>2021-10-24T13:11:12Z</time>
      </trkpt>
      <trkpt lat="45.18286" lon="0.72169">
        <ele>101</ele>
        <time>2021-10-24T13:11:14Z</time>
      </trkpt>
      <trkpt lat="45.18288" lon="0.72169">
        <ele>101.1</ele>
        <time>2021-10-24T13:11:15Z</time>
      </trkpt>
      <trkpt lat="45.18289" lon="0.72169">
        <ele>101.2</ele>
        <time>2021-10-24T13:11:17Z</time>
      </trkpt>
      <trkpt lat="45.1829" lon="0.72169">
        <ele>101.4</ele>
        <time>2021-10-24T13:11:18Z</time>
      </trkpt>
      <trkpt lat="45.1829" lon="0.72169">
        <ele>101.5</ele>
        <time>2021-10-24T13:11:19Z</time>
      </trkpt>
      <trkpt lat="45.18291" lon="0.7217">
        <ele>101.6</ele>
        <time>2021-10-24T13:11:20Z</time>
      </trkpt>
      <trkpt lat="45.18292" lon="0.7217">
        <ele>101.8</ele>
        <time>2021-10-24T13:11:22Z</time>
      </trkpt>
      <trkpt lat="45.18294" lon="0.72171">
        <ele>102.1</ele>
        <time>2021-10-24T13:11:23Z</time>
      </trkpt>
      <trkpt lat="45.18295" lon="0.72171">
        <ele>102.3</ele>
        <time>2021-10-24T13:11:24Z</time>
      </trkpt>
      <trkpt lat="45.18297" lon="0.72171">
        <ele>102.5</ele>
        <time>2021-10-24T13:11:26Z</time>
      </trkpt>
      <trkpt lat="45.18298" lon="0.72171">
        <ele>102.7</ele>
        <time>2021-10-24T13:11:27Z</time>
      </trkpt>
      <trkpt lat="45.18298" lon="0.72171">
        <ele>102.8</ele>
        <time>2021-10-24T13:11:28Z</time>
      </trkpt>
      <trkpt lat="45.183" lon="0.7217">
        <ele>103</ele>
        <time>2021-10-24T13:11:30Z</time>
      </trkpt>
      <trkpt lat="45.18301" lon="0.7217">
        <ele>103.2</ele>
        <time>2021-10-24T13:11:31Z</time>
      </trkpt>
      <trkpt lat="45.18301" lon="0.7217">
        <ele>103.3</ele>
        <time>2021-10-24T13:11:32Z</time>
      </trkpt>
      <trkpt lat="45.18303" lon="0.72169">
        <ele>103.5</ele>
        <time>2021-10-24T13:11:33Z</time>
      </trkpt>
      <trkpt lat="45.18304" lon="0.72169">
        <ele>103.7</ele>
        <time>2021-10-24T13:11:35Z</time>
      </trkpt>
      <trkpt lat="45.18305" lon="0.72169">
        <ele>103.8</ele>
        <time>2021-10-24T13:11:36Z</time>
      </trkpt>
      <trkpt lat="45.18306" lon="0.72169">
        <ele>104</ele>
        <time>2021-10-24T13:11:37Z</time>
      </trkpt>
      <trkpt lat="45.18307" lon="0.7217">
        <ele>104.2</ele>
        <time>2021-10-24T13:11:38Z</time>
      </trkpt>
      <trkpt lat="45.18308" lon="0.7217">
        <ele>104.4</ele>
        <time>2021-10-24T13:11:40Z</time>
      </trkpt>
      <trkpt lat="45.18309" lon="0.72169">
        <ele>104.6</ele>
        <time>2021-10-24T13:11:41Z</time>
      </trkpt>
      <trkpt lat="45.1831" lon="0.72169">
        <ele>104.8</ele>
        <time>2021-10-24T13:11:42Z</time>
      </trkpt>
      <trkpt lat="45.18311" lon="0.72169">
        <ele>105</ele>
        <time>2021-10-24T13:11:43Z</time>
      </trkpt>
      <trkpt lat="45.18312" lon="0.72169">
        <ele>105.1</ele>
        <time>2021-10-24T13:11:45Z</time>
      </trkpt>
      <trkpt lat="45.18314" lon="0.72169">
        <ele>105.3</ele>
        <time>2021-10-24T13:11:46Z</time>
      </trkpt>
      <trkpt lat="45.18315" lon="0.72169">
        <ele>105.4</ele>
        <time>2021-10-24T13:11:47Z</time>
      </trkpt>
      <trkpt lat="45.18315" lon="0.7217">
        <ele>105.6</ele>
        <time>2021-10-24T13:11:49Z</time>
      </trkpt>
      <trkpt lat="45.18317" lon="0.7217">
        <ele>105.8</ele>
        <time>2021-10-24T13:11:50Z</time>
      </trkpt>
      <trkpt lat="45.18318" lon="0.72171">
        <ele>106</ele>
        <time>2021-10-24T13:11:51Z</time>
      </trkpt>
      <trkpt lat="45.18318" lon="0.72171">
        <ele>106.1</ele>
        <time>2021-10-24T13:11:52Z</time>
      </trkpt>
      <trkpt lat="45.18319" lon="0.72172">
        <ele>106.3</ele>
        <time>2021-10-24T13:11:53Z</time>
      </trkpt>
      <trkpt lat="45.1832" lon="0.72173">
        <ele>106.5</ele>
        <time>2021-10-24T13:11:54Z</time>
      </trkpt>
      <trkpt lat="45.18321" lon="0.72174">
        <ele>106.7</ele>
        <time>2021-10-24T13:11:56Z</time>
      </trkpt>
      <trkpt lat="45.18323" lon="0.72175">
        <ele>107</ele>
        <time>2021-10-24T13:11:57Z</time>
      </trkpt>
      <trkpt lat="45.18324" lon="0.72175">
        <ele>107.2</ele>
        <time>2021-10-24T13:11:59Z</time>
      </trkpt>
      <trkpt lat="45.18325" lon="0.72175">
        <ele>107.3</ele>
        <time>2021-10-24T13:12:00Z</time>
      </trkpt>
      <trkpt lat="45.18326" lon="0.72175">
        <ele>107.5</ele>
        <time>2021-10-24T13:12:02Z</time>
      </trkpt>
      <trkpt lat="45.18326" lon="0.72174">
        <ele>107.6</ele>
        <time>2021-10-24T13:12:03Z</time>
      </trkpt>
      <trkpt lat="45.18327" lon="0.72174">
        <ele>107.6</ele>
        <time>2021-10-24T13:12:04Z</time>
      </trkpt>
      <trkpt lat="45.18327" lon="0.72174">
        <ele>107.7</ele>
        <time>2021-10-24T13:12:06Z</time>
      </trkpt>
      <trkpt lat="45.18327" lon="0.72173">
        <ele>107.7</ele>
        <time>2021-10-24T13:12:07Z</time>
      </trkpt>
      <trkpt lat="45.18327" lon="0.72173">
        <ele>107.8</ele>
        <time>2021-10-24T13:12:09Z</time>
      </trkpt>
      <trkpt lat="45.18327" lon="0.72173">
        <ele>107.8</ele>
        <time>2021-10-24T13:12:10Z</time>
      </trkpt>
      <trkpt lat="45.18326" lon="0.72173">
        <ele>107.8</ele>
        <time>2021-10-24T13:12:11Z</time>
      </trkpt>
      <trkpt lat="45.18326" lon="0.72173">
        <ele>107.9</ele>
        <time>2021-10-24T13:12:13Z</time>
      </trkpt>
      <trkpt lat="45.18326" lon="0.72172">
        <ele>107.9</ele>
        <time>2021-10-24T13:12:14Z</time>
      </trkpt>
      <trkpt lat="45.18327" lon="0.72173">
        <ele>108</ele>
        <time>2021-10-24T13:12:16Z</time>
      </trkpt>
      <trkpt lat="45.18327" lon="0.72174">
        <ele>108.5</ele>
        <time>2021-10-24T13:12:17Z</time>
      </trkpt>
      <trkpt lat="45.18328" lon="0.72175">
        <ele>108.5</ele>
        <time>2021-10-24T13:12:18Z</time>
      </trkpt>
      <trkpt lat="45.18329" lon="0.72176">
        <ele>108.5</ele>
        <time>2021-10-24T13:12:20Z</time>
      </trkpt>
      <trkpt lat="45.1833" lon="0.72177">
        <ele>108.4</ele>
        <time>2021-10-24T13:12:21Z</time>
      </trkpt>
      <trkpt lat="45.1833" lon="0.72179">
        <ele>108.4</ele>
        <time>2021-10-24T13:12:22Z</time>
      </trkpt>
      <trkpt lat="45.1833" lon="0.7218">
        <ele>108.4</ele>
        <time>2021-10-24T13:12:23Z</time>
      </trkpt>
      <trkpt lat="45.18331" lon="0.72182">
        <ele>108.3</ele>
        <time>2021-10-24T13:12:25Z</time>
      </trkpt>
      <trkpt lat="45.18331" lon="0.72184">
        <ele>108.3</ele>
        <time>2021-10-24T13:12:27Z</time>
      </trkpt>
      <trkpt lat="45.18332" lon="0.72185">
        <ele>108.3</ele>
        <time>2021-10-24T13:12:29Z</time>
      </trkpt>
      <trkpt lat="45.18332" lon="0.72186">
        <ele>108.3</ele>
        <time>2021-10-24T13:12:30Z</time>
      </trkpt>
      <trkpt lat="45.18332" lon="0.72186">
        <ele>108.2</ele>
        <time>2021-10-24T13:12:31Z</time>
      </trkpt>
      <trkpt lat="45.18333" lon="0.72186">
        <ele>108.2</ele>
        <time>2021-10-24T13:12:32Z</time>
      </trkpt>
      <trkpt lat="45.18333" lon="0.72187">
        <ele>108.2</ele>
        <time>2021-10-24T13:12:34Z</time>
      </trkpt>
      <trkpt lat="45.18333" lon="0.72188">
        <ele>108.2</ele>
        <time>2021-10-24T13:12:36Z</time>
      </trkpt>
      <trkpt lat="45.18333" lon="0.72188">
        <ele>108.2</ele>
        <time>2021-10-24T13:12:37Z</time>
      </trkpt>
      <trkpt lat="45.18333" lon="0.72189">
        <ele>108.2</ele>
        <time>2021-10-24T13:12:39Z</time>
      </trkpt>
      <trkpt lat="45.18333" lon="0.7219">
        <ele>108.1</ele>
        <time>2021-10-24T13:12:41Z</time>
      </trkpt>
      <trkpt lat="45.18333" lon="0.7219">
        <ele>108.1</ele>
        <time>2021-10-24T13:12:43Z</time>
      </trkpt>
      <trkpt lat="45.18333" lon="0.7219">
        <ele>108.1</ele>
        <time>2021-10-24T13:12:44Z</time>
      </trkpt>
      <trkpt lat="45.18333" lon="0.72191">
        <ele>108.1</ele>
        <time>2021-10-24T13:12:46Z</time>
      </trkpt>
      <trkpt lat="45.18333" lon="0.72191">
        <ele>108.1</ele>
        <time>2021-10-24T13:12:48Z</time>
      </trkpt>
      <trkpt lat="45.18333" lon="0.72191">
        <ele>108.1</ele>
        <time>2021-10-24T13:12:50Z</time>
      </trkpt>
      <trkpt lat="45.18333" lon="0.72191">
        <ele>108.1</ele>
        <time>2021-10-24T13:12:51Z</time>
      </trkpt>
      <trkpt lat="45.18333" lon="0.72191">
        <ele>108.1</ele>
        <time>2021-10-24T13:12:52Z</time>
      </trkpt>
      <trkpt lat="45.18333" lon="0.7219">
        <ele>108.1</ele>
        <time>2021-10-24T13:12:54Z</time>
      </trkpt>
      <trkpt lat="45.18333" lon="0.7219">
        <ele>108.1</ele>
        <time>2021-10-24T13:12:55Z</time>
      </trkpt>
      <trkpt lat="45.18333" lon="0.7219">
        <ele>108.1</ele>
        <time>2021-10-24T13:12:57Z</time>
      </trkpt>
      <trkpt lat="45.18333" lon="0.7219">
        <ele>108.1</ele>
        <time>2021-10-24T13:12:58Z</time>
      </trkpt>
      <trkpt lat="45.18333" lon="0.7219">
        <ele>108.1</ele>
        <time>2021-10-24T13:12:59Z</time>
      </trkpt>
      <trkpt lat="45.18332" lon="0.7219">
        <ele>108.1</ele>
        <time>2021-10-24T13:13:00Z</time>
      </trkpt>
      <trkpt lat="45.18332" lon="0.7219">
        <ele>108.1</ele>
        <time>2021-10-24T13:13:01Z</time>
      </trkpt>
      <trkpt lat="45.18334" lon="0.72191">
        <ele>108</ele>
        <time>2021-10-24T13:13:03Z</time>
      </trkpt>
      <trkpt lat="45.18334" lon="0.72192">
        <ele>107.9</ele>
        <time>2021-10-24T13:13:04Z</time>
      </trkpt>
      <trkpt lat="45.18335" lon="0.72192">
        <ele>107.9</ele>
        <time>2021-10-24T13:13:06Z</time>
      </trkpt>
      <trkpt lat="45.18336" lon="0.72193">
        <ele>107.9</ele>
        <time>2021-10-24T13:13:07Z</time>
      </trkpt>
      <trkpt lat="45.18337" lon="0.72194">
        <ele>107.9</ele>
        <time>2021-10-24T13:13:08Z</time>
      </trkpt>
      <trkpt lat="45.18338" lon="0.72195">
        <ele>107.9</ele>
        <time>2021-10-24T13:13:09Z</time>
      </trkpt>
      <trkpt lat="45.18339" lon="0.72196">
        <ele>107.9</ele>
        <time>2021-10-24T13:13:10Z</time>
      </trkpt>
      <trkpt lat="45.1834" lon="0.72197">
        <ele>107.8</ele>
        <time>2021-10-24T13:13:12Z</time>
      </trkpt>
      <trkpt lat="45.18341" lon="0.72197">
        <ele>107.8</ele>
        <time>2021-10-24T13:13:13Z</time>
      </trkpt>
      <trkpt lat="45.18342" lon="0.72197">
        <ele>107.8</ele>
        <time>2021-10-24T13:13:14Z</time>
      </trkpt>
      <trkpt lat="45.18344" lon="0.72198">
        <ele>107.8</ele>
        <time>2021-10-24T13:13:15Z</time>
      </trkpt>
      <trkpt lat="45.18344" lon="0.72198">
        <ele>107.8</ele>
        <time>2021-10-24T13:13:16Z</time>
      </trkpt>
      <trkpt lat="45.18346" lon="0.72199">
        <ele>107.8</ele>
        <time>2021-10-24T13:13:18Z</time>
      </trkpt>
      <trkpt lat="45.18347" lon="0.72199">
        <ele>107.8</ele>
        <time>2021-10-24T13:13:19Z</time>
      </trkpt>
      <trkpt lat="45.18348" lon="0.72199">
        <ele>107.8</ele>
        <time>2021-10-24T13:13:20Z</time>
      </trkpt>
      <trkpt lat="45.18349" lon="0.72199">
        <ele>107.8</ele>
        <time>2021-10-24T13:13:21Z</time>
      </trkpt>
      <trkpt lat="45.1835" lon="0.72199">
        <ele>107.9</ele>
        <time>2021-10-24T13:13:22Z</time>
      </trkpt>
      <trkpt lat="45.18351" lon="0.72199">
        <ele>107.9</ele>
        <time>2021-10-24T13:13:24Z</time>
      </trkpt>
      <trkpt lat="45.18351" lon="0.722">
        <ele>107.9</ele>
        <time>2021-10-24T13:13:25Z</time>
      </trkpt>
      <trkpt lat="45.18352" lon="0.722">
        <ele>107.9</ele>
        <time>2021-10-24T13:13:26Z</time>
      </trkpt>
      <trkpt lat="45.18352" lon="0.72201">
        <ele>107.9</ele>
        <time>2021-10-24T13:13:27Z</time>
      </trkpt>
      <trkpt lat="45.18352" lon="0.72201">
        <ele>107.9</ele>
        <time>2021-10-24T13:13:29Z</time>
      </trkpt>
      <trkpt lat="45.18353" lon="0.72202">
        <ele>107.9</ele>
        <time>2021-10-24T13:13:30Z</time>
      </trkpt>
      <trkpt lat="45.18353" lon="0.72202">
        <ele>107.9</ele>
        <time>2021-10-24T13:13:31Z</time>
      </trkpt>
      <trkpt lat="45.18354" lon="0.72203">
        <ele>107.9</ele>
        <time>2021-10-24T13:13:33Z</time>
      </trkpt>
      <trkpt lat="45.18354" lon="0.72203">
        <ele>107.9</ele>
        <time>2021-10-24T13:13:34Z</time>
      </trkpt>
      <trkpt lat="45.18354" lon="0.72203">
        <ele>107.9</ele>
        <time>2021-10-24T13:13:35Z</time>
      </trkpt>
      <trkpt lat="45.18354" lon="0.72203">
        <ele>107.9</ele>
        <time>2021-10-24T13:13:36Z</time>
      </trkpt>
      <trkpt lat="45.18354" lon="0.72203">
        <ele>107.9</ele>
        <time>2021-10-24T13:13:37Z</time>
      </trkpt>
      <trkpt lat="45.18356" lon="0.72205">
        <ele>107.9</ele>
        <time>2021-10-24T13:13:39Z</time>
      </trkpt>
      <trkpt lat="45.18356" lon="0.72206">
        <ele>107.9</ele>
        <time>2021-10-24T13:13:40Z</time>
      </trkpt>
      <trkpt lat="45.18357" lon="0.72207">
        <ele>108</ele>
        <time>2021-10-24T13:13:41Z</time>
      </trkpt>
      <trkpt lat="45.18357" lon="0.72207">
        <ele>108</ele>
        <time>2021-10-24T13:13:43Z</time>
      </trkpt>
      <trkpt lat="45.18358" lon="0.72208">
        <ele>108</ele>
        <time>2021-10-24T13:13:44Z</time>
      </trkpt>
      <trkpt lat="45.18358" lon="0.72209">
        <ele>108</ele>
        <time>2021-10-24T13:13:45Z</time>
      </trkpt>
      <trkpt lat="45.18358" lon="0.72209">
        <ele>108</ele>
        <time>2021-10-24T13:13:46Z</time>
      </trkpt>
      <trkpt lat="45.18359" lon="0.72209">
        <ele>108</ele>
        <time>2021-10-24T13:13:48Z</time>
      </trkpt>
      <trkpt lat="45.18359" lon="0.7221">
        <ele>108</ele>
        <time>2021-10-24T13:13:50Z</time>
      </trkpt>
      <trkpt lat="45.1836" lon="0.7221">
        <ele>108</ele>
        <time>2021-10-24T13:13:52Z</time>
      </trkpt>
      <trkpt lat="45.1836" lon="0.7221">
        <ele>108</ele>
        <time>2021-10-24T13:13:53Z</time>
      </trkpt>
      <trkpt lat="45.1836" lon="0.7221">
        <ele>108</ele>
        <time>2021-10-24T13:13:55Z</time>
      </trkpt>
      <trkpt lat="45.1836" lon="0.7221">
        <ele>108</ele>
        <time>2021-10-24T13:13:56Z</time>
      </trkpt>
      <trkpt lat="45.1836" lon="0.72211">
        <ele>108</ele>
        <time>2021-10-24T13:13:57Z</time>
      </trkpt>
      <trkpt lat="45.1836" lon="0.72211">
        <ele>108</ele>
        <time>2021-10-24T13:13:58Z</time>
      </trkpt>
      <trkpt lat="45.1836" lon="0.72212">
        <ele>108</ele>
        <time>2021-10-24T13:14:00Z</time>
      </trkpt>
      <trkpt lat="45.1836" lon="0.72212">
        <ele>108</ele>
        <time>2021-10-24T13:14:01Z</time>
      </trkpt>
      <trkpt lat="45.1836" lon="0.72212">
        <ele>108</ele>
        <time>2021-10-24T13:14:02Z</time>
      </trkpt>
      <trkpt lat="45.1836" lon="0.72213">
        <ele>108</ele>
        <time>2021-10-24T13:14:04Z</time>
      </trkpt>
      <trkpt lat="45.1836" lon="0.72213">
        <ele>108</ele>
        <time>2021-10-24T13:14:06Z</time>
      </trkpt>
      <trkpt lat="45.1836" lon="0.72213">
        <ele>108</ele>
        <time>2021-10-24T13:14:07Z</time>
      </trkpt>
      <trkpt lat="45.1836" lon="0.72214">
        <ele>108</ele>
        <time>2021-10-24T13:14:08Z</time>
      </trkpt>
      <trkpt lat="45.1836" lon="0.72214">
        <ele>108</ele>
        <time>2021-10-24T13:14:09Z</time>
      </trkpt>
      <trkpt lat="45.1836" lon="0.72214">
        <ele>108</ele>
        <time>2021-10-24T13:14:10Z</time>
      </trkpt>
      <trkpt lat="45.1836" lon="0.72215">
        <ele>108</ele>
        <time>2021-10-24T13:14:11Z</time>
      </trkpt>
      <trkpt lat="45.1836" lon="0.72215">
        <ele>108</ele>
        <time>2021-10-24T13:14:13Z</time>
      </trkpt>
      <trkpt lat="45.1836" lon="0.72215">
        <ele>108</ele>
        <time>2021-10-24T13:14:14Z</time>
      </trkpt>
      <trkpt lat="45.1836" lon="0.72216">
        <ele>108</ele>
        <time>2021-10-24T13:14:15Z</time>
      </trkpt>
      <trkpt lat="45.1836" lon="0.72216">
        <ele>108</ele>
        <time>2021-10-24T13:14:16Z</time>
      </trkpt>
      <trkpt lat="45.18361" lon="0.72217">
        <ele>108</ele>
        <time>2021-10-24T13:14:17Z</time>
      </trkpt>
      <trkpt lat="45.1836" lon="0.72219">
        <ele>108</ele>
        <time>2021-10-24T13:14:19Z</time>
      </trkpt>
      <trkpt lat="45.1836" lon="0.7222">
        <ele>108</ele>
        <time>2021-10-24T13:14:20Z</time>
      </trkpt>
      <trkpt lat="45.1836" lon="0.72222">
        <ele>108</ele>
        <time>2021-10-24T13:14:21Z</time>
      </trkpt>
      <trkpt lat="45.1836" lon="0.72223">
        <ele>108</ele>
        <time>2021-10-24T13:14:23Z</time>
      </trkpt>
      <trkpt lat="45.18361" lon="0.72224">
        <ele>108</ele>
        <time>2021-10-24T13:14:24Z</time>
      </trkpt>
      <trkpt lat="45.18361" lon="0.72225">
        <ele>108</ele>
        <time>2021-10-24T13:14:25Z</time>
      </trkpt>
      <trkpt lat="45.18361" lon="0.72225">
        <ele>108</ele>
        <time>2021-10-24T13:14:26Z</time>
      </trkpt>
      <trkpt lat="45.1836" lon="0.72225">
        <ele>108</ele>
        <time>2021-10-24T13:14:28Z</time>
      </trkpt>
      <trkpt lat="45.1836" lon="0.72226">
        <ele>108</ele>
        <time>2021-10-24T13:14:29Z</time>
      </trkpt>
      <trkpt lat="45.1836" lon="0.72227">
        <ele>108</ele>
        <time>2021-10-24T13:14:30Z</time>
      </trkpt>
      <trkpt lat="45.1836" lon="0.72228">
        <ele>108</ele>
        <time>2021-10-24T13:14:32Z</time>
      </trkpt>
      <trkpt lat="45.18358" lon="0.72227">
        <ele>108</ele>
        <time>2021-10-24T13:14:33Z</time>
      </trkpt>
      <trkpt lat="45.18359" lon="0.72226">
        <ele>108</ele>
        <time>2021-10-24T13:14:35Z</time>
      </trkpt>
      <trkpt lat="45.18358" lon="0.72225">
        <ele>108</ele>
        <time>2021-10-24T13:14:37Z</time>
      </trkpt>
      <trkpt lat="45.18359" lon="0.72225">
        <ele>108</ele>
        <time>2021-10-24T13:14:38Z</time>
      </trkpt>
      <trkpt lat="45.18359" lon="0.72225">
        <ele>108</ele>
        <time>2021-10-24T13:14:40Z</time>
      </trkpt>
      <trkpt lat="45.18359" lon="0.72224">
        <ele>108</ele>
        <time>2021-10-24T13:14:41Z</time>
      </trkpt>
      <trkpt lat="45.18359" lon="0.72224">
        <ele>108</ele>
        <time>2021-10-24T13:14:42Z</time>
      </trkpt>
      <trkpt lat="45.18359" lon="0.72224">
        <ele>108</ele>
        <time>2021-10-24T13:14:43Z</time>
      </trkpt>
      <trkpt lat="45.18359" lon="0.72224">
        <ele>108</ele>
        <time>2021-10-24T13:14:44Z</time>
      </trkpt>
      <trkpt lat="45.1836" lon="0.72223">
        <ele>108</ele>
        <time>2021-10-24T13:14:46Z</time>
      </trkpt>
      <trkpt lat="45.1836" lon="0.72223">
        <ele>108</ele>
        <time>2021-10-24T13:14:48Z</time>
      </trkpt>
      <trkpt lat="45.1836" lon="0.72223">
        <ele>108</ele>
        <time>2021-10-24T13:14:49Z</time>
      </trkpt>
      <trkpt lat="45.18361" lon="0.72223">
        <ele>108</ele>
        <time>2021-10-24T13:14:51Z</time>
      </trkpt>
      <trkpt lat="45.18361" lon="0.72223">
        <ele>108</ele>
        <time>2021-10-24T13:14:53Z</time>
      </trkpt>
      <trkpt lat="45.1836" lon="0.72224">
        <ele>108</ele>
        <time>2021-10-24T13:14:55Z</time>
      </trkpt>
      <trkpt lat="45.1836" lon="0.72225">
        <ele>108</ele>
        <time>2021-10-24T13:14:56Z</time>
      </trkpt>
      <trkpt lat="45.1836" lon="0.72226">
        <ele>108</ele>
        <time>2021-10-24T13:14:57Z</time>
      </trkpt>
      <trkpt lat="45.18361" lon="0.72226">
        <ele>108</ele>
        <time>2021-10-24T13:14:59Z</time>
      </trkpt>
      <trkpt lat="45.18361" lon="0.72226">
        <ele>108</ele>
        <time>2021-10-24T13:15:01Z</time>
      </trkpt>
      <trkpt lat="45.18361" lon="0.72226">
        <ele>108</ele>
        <time>2021-10-24T13:15:02Z</time>
      </trkpt>
      <trkpt lat="45.18361" lon="0.72226">
        <ele>108</ele>
        <time>2021-10-24T13:15:03Z</time>
      </trkpt>
      <trkpt lat="45.18361" lon="0.72226">
        <ele>108</ele>
        <time>2021-10-24T13:15:05Z</time>
      </trkpt>
      <trkpt lat="45.18361" lon="0.72226">
        <ele>108</ele>
        <time>2021-10-24T13:15:06Z</time>
      </trkpt>
      <trkpt lat="45.18361" lon="0.72226">
        <ele>108</ele>
        <time>2021-10-24T13:15:07Z</time>
      </trkpt>
      <trkpt lat="45.18361" lon="0.72226">
        <ele>108</ele>
        <time>2021-10-24T13:15:08Z</time>
      </trkpt>
      <trkpt lat="45.18361" lon="0.72226">
        <ele>108</ele>
        <time>2021-10-24T13:15:10Z</time>
      </trkpt>
      <trkpt lat="45.18361" lon="0.72226">
        <ele>108</ele>
        <time>2021-10-24T13:15:11Z</time>
      </trkpt>
      <trkpt lat="45.18362" lon="0.72225">
        <ele>108</ele>
        <time>2021-10-24T13:15:12Z</time>
      </trkpt>
      <trkpt lat="45.18364" lon="0.72225">
        <ele>108</ele>
        <time>2021-10-24T13:15:14Z</time>
      </trkpt>
      <trkpt lat="45.18362" lon="0.72227">
        <ele>108</ele>
        <time>2021-10-24T13:15:16Z</time>
      </trkpt>
      <trkpt lat="45.18363" lon="0.72228">
        <ele>108</ele>
        <time>2021-10-24T13:15:17Z</time>
      </trkpt>
      <trkpt lat="45.18363" lon="0.72228">
        <ele>108</ele>
        <time>2021-10-24T13:15:19Z</time>
      </trkpt>
      <trkpt lat="45.18364" lon="0.72229">
        <ele>108</ele>
        <time>2021-10-24T13:15:21Z</time>
      </trkpt>
      <trkpt lat="45.18365" lon="0.72229">
        <ele>108</ele>
        <time>2021-10-24T13:15:24Z</time>
      </trkpt>
      <trkpt lat="45.18365" lon="0.7223">
        <ele>108</ele>
        <time>2021-10-24T13:15:26Z</time>
      </trkpt>
      <trkpt lat="45.18365" lon="0.7223">
        <ele>108</ele>
        <time>2021-10-24T13:15:27Z</time>
      </trkpt>
      <trkpt lat="45.18363" lon="0.72225">
        <ele>108</ele>
        <time>2021-10-24T13:26:21Z</time>
      </trkpt>
      <trkpt lat="45.18359" lon="0.7222">
        <ele>108</ele>
        <time>2021-10-24T13:26:23Z</time>
      </trkpt>
      <trkpt lat="45.18355" lon="0.72217">
        <ele>108</ele>
        <time>2021-10-24T13:26:25Z</time>
      </trkpt>
      <trkpt lat="45.18352" lon="0.72218">
        <ele>108</ele>
        <time>2021-10-24T13:26:27Z</time>
      </trkpt>
      <trkpt lat="45.18352" lon="0.72218">
        <ele>108</ele>
        <time>2021-10-24T13:26:28Z</time>
      </trkpt>
      <trkpt lat="45.18351" lon="0.72219">
        <ele>108</ele>
        <time>2021-10-24T13:26:30Z</time>
      </trkpt>
      <trkpt lat="45.1835" lon="0.72219">
        <ele>108</ele>
        <time>2021-10-24T13:26:31Z</time>
      </trkpt>
      <trkpt lat="45.18349" lon="0.7222">
        <ele>108</ele>
        <time>2021-10-24T13:26:33Z</time>
      </trkpt>
      <trkpt lat="45.18349" lon="0.72221">
        <ele>108</ele>
        <time>2021-10-24T13:26:34Z</time>
      </trkpt>
      <trkpt lat="45.1835" lon="0.72222">
        <ele>108</ele>
        <time>2021-10-24T13:26:36Z</time>
      </trkpt>
      <trkpt lat="45.1835" lon="0.72222">
        <ele>108</ele>
        <time>2021-10-24T13:26:37Z</time>
      </trkpt>
      <trkpt lat="45.18351" lon="0.72222">
        <ele>108</ele>
        <time>2021-10-24T13:26:38Z</time>
      </trkpt>
      <trkpt lat="45.18352" lon="0.72222">
        <ele>108</ele>
        <time>2021-10-24T13:26:40Z</time>
      </trkpt>
      <trkpt lat="45.18352" lon="0.72221">
        <ele>108</ele>
        <time>2021-10-24T13:26:41Z</time>
      </trkpt>
      <trkpt lat="45.18353" lon="0.72221">
        <ele>108</ele>
        <time>2021-10-24T13:26:42Z</time>
      </trkpt>
      <trkpt lat="45.18353" lon="0.72221">
        <ele>108</ele>
        <time>2021-10-24T13:26:44Z</time>
      </trkpt>
      <trkpt lat="45.18353" lon="0.7222">
        <ele>108</ele>
        <time>2021-10-24T13:26:45Z</time>
      </trkpt>
      <trkpt lat="45.18354" lon="0.7222">
        <ele>108</ele>
        <time>2021-10-24T13:26:46Z</time>
      </trkpt>
      <trkpt lat="45.18356" lon="0.7222">
        <ele>108</ele>
        <time>2021-10-24T13:26:48Z</time>
      </trkpt>
      <trkpt lat="45.18357" lon="0.7222">
        <ele>108</ele>
        <time>2021-10-24T13:26:49Z</time>
      </trkpt>
      <trkpt lat="45.18357" lon="0.7222">
        <ele>108</ele>
        <time>2021-10-24T13:26:51Z</time>
      </trkpt>
      <trkpt lat="45.18358" lon="0.7222">
        <ele>108</ele>
        <time>2021-10-24T13:26:52Z</time>
      </trkpt>
      <trkpt lat="45.18358" lon="0.7222">
        <ele>108</ele>
        <time>2021-10-24T13:26:53Z</time>
      </trkpt>
      <trkpt lat="45.18358" lon="0.7222">
        <ele>108</ele>
        <time>2021-10-24T13:26:55Z</time>
      </trkpt>
      <trkpt lat="45.18357" lon="0.72219">
        <ele>108</ele>
        <time>2021-10-24T13:26:56Z</time>
      </trkpt>
      <trkpt lat="45.18357" lon="0.72218">
        <ele>108</ele>
        <time>2021-10-24T13:26:58Z</time>
      </trkpt>
      <trkpt lat="45.18357" lon="0.72218">
        <ele>108</ele>
        <time>2021-10-24T13:26:59Z</time>
      </trkpt>
      <trkpt lat="45.18357" lon="0.72218">
        <ele>108</ele>
        <time>2021-10-24T13:27:00Z</time>
      </trkpt>
      <trkpt lat="45.18357" lon="0.72218">
        <ele>108</ele>
        <time>2021-10-24T13:27:01Z</time>
      </trkpt>
      <trkpt lat="45.18356" lon="0.72218">
        <ele>108</ele>
        <time>2021-10-24T13:27:03Z</time>
      </trkpt>
      <trkpt lat="45.18356" lon="0.72218">
        <ele>108</ele>
        <time>2021-10-24T13:27:04Z</time>
      </trkpt>
      <trkpt lat="45.18356" lon="0.72218">
        <ele>108</ele>
        <time>2021-10-24T13:27:05Z</time>
      </trkpt>
      <trkpt lat="45.18356" lon="0.72218">
        <ele>108</ele>
        <time>2021-10-24T13:27:07Z</time>
      </trkpt>
      <trkpt lat="45.18357" lon="0.72218">
        <ele>108</ele>
        <time>2021-10-24T13:27:08Z</time>
      </trkpt>
      <trkpt lat="45.18357" lon="0.72218">
        <ele>108</ele>
        <time>2021-10-24T13:27:10Z</time>
      </trkpt>
      <trkpt lat="45.18357" lon="0.72218">
        <ele>108</ele>
        <time>2021-10-24T13:27:11Z</time>
      </trkpt>
      <trkpt lat="45.18357" lon="0.72218">
        <ele>108</ele>
        <time>2021-10-24T13:27:13Z</time>
      </trkpt>
      <trkpt lat="45.18358" lon="0.72217">
        <ele>108</ele>
        <time>2021-10-24T13:27:15Z</time>
      </trkpt>
      <trkpt lat="45.18359" lon="0.72216">
        <ele>108</ele>
        <time>2021-10-24T13:27:16Z</time>
      </trkpt>
      <trkpt lat="45.1836" lon="0.72213">
        <ele>108</ele>
        <time>2021-10-24T13:27:18Z</time>
      </trkpt>
      <trkpt lat="45.18361" lon="0.72213">
        <ele>108</ele>
        <time>2021-10-24T13:27:19Z</time>
      </trkpt>
      <trkpt lat="45.18361" lon="0.72212">
        <ele>108</ele>
        <time>2021-10-24T13:27:20Z</time>
      </trkpt>
      <trkpt lat="45.18362" lon="0.72209">
        <ele>108</ele>
        <time>2021-10-24T13:27:22Z</time>
      </trkpt>
      <trkpt lat="45.18363" lon="0.72208">
        <ele>108</ele>
        <time>2021-10-24T13:27:23Z</time>
      </trkpt>
      <trkpt lat="45.18364" lon="0.72208">
        <ele>108</ele>
        <time>2021-10-24T13:27:25Z</time>
      </trkpt>
      <trkpt lat="45.18364" lon="0.72207">
        <ele>108</ele>
        <time>2021-10-24T13:27:26Z</time>
      </trkpt>
      <trkpt lat="45.18365" lon="0.72206">
        <ele>108</ele>
        <time>2021-10-24T13:27:27Z</time>
      </trkpt>
      <trkpt lat="45.18365" lon="0.72205">
        <ele>108</ele>
        <time>2021-10-24T13:27:29Z</time>
      </trkpt>
      <trkpt lat="45.18366" lon="0.72204">
        <ele>108</ele>
        <time>2021-10-24T13:27:30Z</time>
      </trkpt>
      <trkpt lat="45.18367" lon="0.72204">
        <ele>108.3</ele>
        <time>2021-10-24T13:27:32Z</time>
      </trkpt>
      <trkpt lat="45.18367" lon="0.72204">
        <ele>108.3</ele>
        <time>2021-10-24T13:27:33Z</time>
      </trkpt>
      <trkpt lat="45.18368" lon="0.72205">
        <ele>108.2</ele>
        <time>2021-10-24T13:27:35Z</time>
      </trkpt>
      <trkpt lat="45.18368" lon="0.72206">
        <ele>108.2</ele>
        <time>2021-10-24T13:27:36Z</time>
      </trkpt>
      <trkpt lat="45.18369" lon="0.72206">
        <ele>108.2</ele>
        <time>2021-10-24T13:27:38Z</time>
      </trkpt>
      <trkpt lat="45.18369" lon="0.72207">
        <ele>108.2</ele>
        <time>2021-10-24T13:27:40Z</time>
      </trkpt>
      <trkpt lat="45.18369" lon="0.72207">
        <ele>108.2</ele>
        <time>2021-10-24T13:27:41Z</time>
      </trkpt>
      <trkpt lat="45.1837" lon="0.72208">
        <ele>108.2</ele>
        <time>2021-10-24T13:27:43Z</time>
      </trkpt>
      <trkpt lat="45.1837" lon="0.72209">
        <ele>108.2</ele>
        <time>2021-10-24T13:27:45Z</time>
      </trkpt>
      <trkpt lat="45.1837" lon="0.7221">
        <ele>108.2</ele>
        <time>2021-10-24T13:27:46Z</time>
      </trkpt>
      <trkpt lat="45.1837" lon="0.7221">
        <ele>108.1</ele>
        <time>2021-10-24T13:27:47Z</time>
      </trkpt>
      <trkpt lat="45.18371" lon="0.7221">
        <ele>108.1</ele>
        <time>2021-10-24T13:27:48Z</time>
      </trkpt>
      <trkpt lat="45.18372" lon="0.7221">
        <ele>108.1</ele>
        <time>2021-10-24T13:27:50Z</time>
      </trkpt>
      <trkpt lat="45.18372" lon="0.72211">
        <ele>108.1</ele>
        <time>2021-10-24T13:27:51Z</time>
      </trkpt>
      <trkpt lat="45.18373" lon="0.72212">
        <ele>108.1</ele>
        <time>2021-10-24T13:27:52Z</time>
      </trkpt>
      <trkpt lat="45.18373" lon="0.72213">
        <ele>108.1</ele>
        <time>2021-10-24T13:27:53Z</time>
      </trkpt>
      <trkpt lat="45.18373" lon="0.72216">
        <ele>108</ele>
        <time>2021-10-24T13:27:55Z</time>
      </trkpt>
      <trkpt lat="45.18374" lon="0.72217">
        <ele>107.9</ele>
        <time>2021-10-24T13:27:56Z</time>
      </trkpt>
      <trkpt lat="45.18374" lon="0.72219">
        <ele>107.9</ele>
        <time>2021-10-24T13:27:57Z</time>
      </trkpt>
      <trkpt lat="45.18374" lon="0.72222">
        <ele>107.9</ele>
        <time>2021-10-24T13:27:59Z</time>
      </trkpt>
      <trkpt lat="45.18374" lon="0.72224">
        <ele>107.8</ele>
        <time>2021-10-24T13:28:00Z</time>
      </trkpt>
      <trkpt lat="45.18374" lon="0.72225">
        <ele>107.8</ele>
        <time>2021-10-24T13:28:01Z</time>
      </trkpt>
      <trkpt lat="45.18374" lon="0.72227">
        <ele>107.8</ele>
        <time>2021-10-24T13:28:03Z</time>
      </trkpt>
      <trkpt lat="45.18375" lon="0.72228">
        <ele>107.8</ele>
        <time>2021-10-24T13:28:04Z</time>
      </trkpt>
      <trkpt lat="45.18376" lon="0.72229">
        <ele>107.7</ele>
        <time>2021-10-24T13:28:05Z</time>
      </trkpt>
      <trkpt lat="45.18376" lon="0.7223">
        <ele>107.6</ele>
        <time>2021-10-24T13:28:06Z</time>
      </trkpt>
      <trkpt lat="45.18377" lon="0.72231">
        <ele>107.6</ele>
        <time>2021-10-24T13:28:07Z</time>
      </trkpt>
      <trkpt lat="45.18377" lon="0.72231">
        <ele>107.6</ele>
        <time>2021-10-24T13:28:09Z</time>
      </trkpt>
      <trkpt lat="45.18377" lon="0.72232">
        <ele>107.6</ele>
        <time>2021-10-24T13:28:10Z</time>
      </trkpt>
      <trkpt lat="45.18378" lon="0.72233">
        <ele>107.5</ele>
        <time>2021-10-24T13:28:11Z</time>
      </trkpt>
      <trkpt lat="45.18378" lon="0.72235">
        <ele>107.5</ele>
        <time>2021-10-24T13:28:12Z</time>
      </trkpt>
      <trkpt lat="45.18378" lon="0.72236">
        <ele>107.5</ele>
        <time>2021-10-24T13:28:13Z</time>
      </trkpt>
      <trkpt lat="45.18379" lon="0.72237">
        <ele>107.4</ele>
        <time>2021-10-24T13:28:14Z</time>
      </trkpt>
      <trkpt lat="45.1838" lon="0.72239">
        <ele>107.4</ele>
        <time>2021-10-24T13:28:16Z</time>
      </trkpt>
      <trkpt lat="45.18381" lon="0.7224">
        <ele>107.3</ele>
        <time>2021-10-24T13:28:17Z</time>
      </trkpt>
      <trkpt lat="45.18381" lon="0.72241">
        <ele>107.3</ele>
        <time>2021-10-24T13:28:18Z</time>
      </trkpt>
      <trkpt lat="45.18382" lon="0.72242">
        <ele>107.3</ele>
        <time>2021-10-24T13:28:19Z</time>
      </trkpt>
      <trkpt lat="45.18382" lon="0.72243">
        <ele>107.2</ele>
        <time>2021-10-24T13:28:20Z</time>
      </trkpt>
      <trkpt lat="45.18383" lon="0.72243">
        <ele>107.1</ele>
        <time>2021-10-24T13:28:22Z</time>
      </trkpt>
      <trkpt lat="45.18383" lon="0.72244">
        <ele>107.1</ele>
        <time>2021-10-24T13:28:23Z</time>
      </trkpt>
      <trkpt lat="45.18383" lon="0.72245">
        <ele>107.1</ele>
        <time>2021-10-24T13:28:24Z</time>
      </trkpt>
      <trkpt lat="45.18383" lon="0.72246">
        <ele>107.1</ele>
        <time>2021-10-24T13:28:25Z</time>
      </trkpt>
      <trkpt lat="45.18383" lon="0.72246">
        <ele>107</ele>
        <time>2021-10-24T13:28:27Z</time>
      </trkpt>
      <trkpt lat="45.18383" lon="0.72247">
        <ele>107</ele>
        <time>2021-10-24T13:28:28Z</time>
      </trkpt>
      <trkpt lat="45.18382" lon="0.72248">
        <ele>107</ele>
        <time>2021-10-24T13:28:29Z</time>
      </trkpt>
      <trkpt lat="45.18382" lon="0.72249">
        <ele>106.9</ele>
        <time>2021-10-24T13:28:30Z</time>
      </trkpt>
      <trkpt lat="45.18381" lon="0.72251">
        <ele>106.9</ele>
        <time>2021-10-24T13:28:32Z</time>
      </trkpt>
      <trkpt lat="45.1838" lon="0.72252">
        <ele>106.8</ele>
        <time>2021-10-24T13:28:33Z</time>
      </trkpt>
      <trkpt lat="45.18381" lon="0.72253">
        <ele>106.8</ele>
        <time>2021-10-24T13:28:35Z</time>
      </trkpt>
      <trkpt lat="45.18381" lon="0.72255">
        <ele>106.7</ele>
        <time>2021-10-24T13:28:36Z</time>
      </trkpt>
      <trkpt lat="45.18382" lon="0.72256">
        <ele>106.6</ele>
        <time>2021-10-24T13:28:37Z</time>
      </trkpt>
      <trkpt lat="45.18383" lon="0.72256">
        <ele>106.6</ele>
        <time>2021-10-24T13:28:38Z</time>
      </trkpt>
      <trkpt lat="45.18384" lon="0.72257">
        <ele>106.6</ele>
        <time>2021-10-24T13:28:39Z</time>
      </trkpt>
      <trkpt lat="45.18384" lon="0.72257">
        <ele>106.5</ele>
        <time>2021-10-24T13:28:40Z</time>
      </trkpt>
      <trkpt lat="45.18385" lon="0.72257">
        <ele>106.5</ele>
        <time>2021-10-24T13:28:41Z</time>
      </trkpt>
      <trkpt lat="45.18386" lon="0.72257">
        <ele>106.4</ele>
        <time>2021-10-24T13:28:43Z</time>
      </trkpt>
      <trkpt lat="45.18386" lon="0.72256">
        <ele>106.4</ele>
        <time>2021-10-24T13:28:44Z</time>
      </trkpt>
      <trkpt lat="45.18386" lon="0.72256">
        <ele>106.4</ele>
        <time>2021-10-24T13:28:46Z</time>
      </trkpt>
      <trkpt lat="45.18387" lon="0.72256">
        <ele>106.3</ele>
        <time>2021-10-24T13:28:47Z</time>
      </trkpt>
      <trkpt lat="45.18388" lon="0.72255">
        <ele>106.3</ele>
        <time>2021-10-24T13:28:48Z</time>
      </trkpt>
      <trkpt lat="45.18388" lon="0.72255">
        <ele>106.3</ele>
        <time>2021-10-24T13:28:49Z</time>
      </trkpt>
      <trkpt lat="45.18389" lon="0.72254">
        <ele>106.2</ele>
        <time>2021-10-24T13:28:50Z</time>
      </trkpt>
      <trkpt lat="45.18389" lon="0.72254">
        <ele>106.2</ele>
        <time>2021-10-24T13:28:51Z</time>
      </trkpt>
      <trkpt lat="45.1839" lon="0.72253">
        <ele>106.1</ele>
        <time>2021-10-24T13:28:53Z</time>
      </trkpt>
      <trkpt lat="45.1839" lon="0.72253">
        <ele>106.1</ele>
        <time>2021-10-24T13:28:54Z</time>
      </trkpt>
      <trkpt lat="45.18391" lon="0.72254">
        <ele>106.1</ele>
        <time>2021-10-24T13:28:55Z</time>
      </trkpt>
      <trkpt lat="45.18392" lon="0.72255">
        <ele>106</ele>
        <time>2021-10-24T13:28:56Z</time>
      </trkpt>
      <trkpt lat="45.18393" lon="0.72256">
        <ele>106</ele>
        <time>2021-10-24T13:28:58Z</time>
      </trkpt>
      <trkpt lat="45.18393" lon="0.72256">
        <ele>106</ele>
        <time>2021-10-24T13:28:59Z</time>
      </trkpt>
      <trkpt lat="45.18394" lon="0.72257">
        <ele>106</ele>
        <time>2021-10-24T13:29:00Z</time>
      </trkpt>
      <trkpt lat="45.18394" lon="0.72258">
        <ele>105.9</ele>
        <time>2021-10-24T13:29:01Z</time>
      </trkpt>
      <trkpt lat="45.18396" lon="0.7226">
        <ele>105.8</ele>
        <time>2021-10-24T13:29:03Z</time>
      </trkpt>
      <trkpt lat="45.18398" lon="0.72262">
        <ele>105.8</ele>
        <time>2021-10-24T13:29:04Z</time>
      </trkpt>
      <trkpt lat="45.18399" lon="0.72263">
        <ele>105.7</ele>
        <time>2021-10-24T13:29:06Z</time>
      </trkpt>
      <trkpt lat="45.18399" lon="0.72265">
        <ele>105.6</ele>
        <time>2021-10-24T13:29:07Z</time>
      </trkpt>
      <trkpt lat="45.184" lon="0.72266">
        <ele>105.6</ele>
        <time>2021-10-24T13:29:08Z</time>
      </trkpt>
      <trkpt lat="45.184" lon="0.72267">
        <ele>105.5</ele>
        <time>2021-10-24T13:29:10Z</time>
      </trkpt>
      <trkpt lat="45.18401" lon="0.72268">
        <ele>105.5</ele>
        <time>2021-10-24T13:29:11Z</time>
      </trkpt>
      <trkpt lat="45.18401" lon="0.72269">
        <ele>105.5</ele>
        <time>2021-10-24T13:29:12Z</time>
      </trkpt>
      <trkpt lat="45.18402" lon="0.7227">
        <ele>105.5</ele>
        <time>2021-10-24T13:29:14Z</time>
      </trkpt>
      <trkpt lat="45.18403" lon="0.72272">
        <ele>105.1</ele>
        <time>2021-10-24T13:29:15Z</time>
      </trkpt>
      <trkpt lat="45.18404" lon="0.72274">
        <ele>104.8</ele>
        <time>2021-10-24T13:29:17Z</time>
      </trkpt>
      <trkpt lat="45.18405" lon="0.72275">
        <ele>104.6</ele>
        <time>2021-10-24T13:29:18Z</time>
      </trkpt>
      <trkpt lat="45.18405" lon="0.72277">
        <ele>104.4</ele>
        <time>2021-10-24T13:29:19Z</time>
      </trkpt>
      <trkpt lat="45.18406" lon="0.72278">
        <ele>104.3</ele>
        <time>2021-10-24T13:29:20Z</time>
      </trkpt>
      <trkpt lat="45.18406" lon="0.7228">
        <ele>104</ele>
        <time>2021-10-24T13:29:22Z</time>
      </trkpt>
      <trkpt lat="45.18406" lon="0.72281">
        <ele>104</ele>
        <time>2021-10-24T13:29:23Z</time>
      </trkpt>
      <trkpt lat="45.18406" lon="0.72281">
        <ele>104</ele>
        <time>2021-10-24T13:29:25Z</time>
      </trkpt>
      <trkpt lat="45.18406" lon="0.72281">
        <ele>104</ele>
        <time>2021-10-24T13:29:26Z</time>
      </trkpt>
      <trkpt lat="45.18406" lon="0.72281">
        <ele>104</ele>
        <time>2021-10-24T13:29:27Z</time>
      </trkpt>
      <trkpt lat="45.18406" lon="0.72281">
        <ele>104</ele>
        <time>2021-10-24T13:29:29Z</time>
      </trkpt>
      <trkpt lat="45.18406" lon="0.72281">
        <ele>104</ele>
        <time>2021-10-24T13:29:30Z</time>
      </trkpt>
      <trkpt lat="45.18406" lon="0.72282">
        <ele>104</ele>
        <time>2021-10-24T13:29:32Z</time>
      </trkpt>
      <trkpt lat="45.18406" lon="0.72283">
        <ele>103.9</ele>
        <time>2021-10-24T13:29:33Z</time>
      </trkpt>
      <trkpt lat="45.18406" lon="0.72284">
        <ele>103.9</ele>
        <time>2021-10-24T13:29:34Z</time>
      </trkpt>
      <trkpt lat="45.18405" lon="0.72285">
        <ele>103.9</ele>
        <time>2021-10-24T13:29:35Z</time>
      </trkpt>
      <trkpt lat="45.18405" lon="0.72286">
        <ele>103.9</ele>
        <time>2021-10-24T13:29:36Z</time>
      </trkpt>
      <trkpt lat="45.18405" lon="0.72289">
        <ele>103.8</ele>
        <time>2021-10-24T13:29:38Z</time>
      </trkpt>
      <trkpt lat="45.18405" lon="0.72291">
        <ele>103.5</ele>
        <time>2021-10-24T13:29:39Z</time>
      </trkpt>
      <trkpt lat="45.18405" lon="0.72292">
        <ele>103.5</ele>
        <time>2021-10-24T13:29:40Z</time>
      </trkpt>
      <trkpt lat="45.18405" lon="0.72293">
        <ele>103.4</ele>
        <time>2021-10-24T13:29:41Z</time>
      </trkpt>
      <trkpt lat="45.18405" lon="0.72294">
        <ele>103.3</ele>
        <time>2021-10-24T13:29:42Z</time>
      </trkpt>
      <trkpt lat="45.18405" lon="0.72296">
        <ele>103.2</ele>
        <time>2021-10-24T13:29:44Z</time>
      </trkpt>
      <trkpt lat="45.18404" lon="0.72297">
        <ele>103.1</ele>
        <time>2021-10-24T13:29:45Z</time>
      </trkpt>
      <trkpt lat="45.18404" lon="0.72298">
        <ele>103</ele>
        <time>2021-10-24T13:29:46Z</time>
      </trkpt>
      <trkpt lat="45.18403" lon="0.72299">
        <ele>103</ele>
        <time>2021-10-24T13:29:47Z</time>
      </trkpt>
      <trkpt lat="45.18403" lon="0.723">
        <ele>102.9</ele>
        <time>2021-10-24T13:29:48Z</time>
      </trkpt>
      <trkpt lat="45.18403" lon="0.723">
        <ele>102.9</ele>
        <time>2021-10-24T13:29:49Z</time>
      </trkpt>
      <trkpt lat="45.18403" lon="0.72301">
        <ele>102.9</ele>
        <time>2021-10-24T13:29:51Z</time>
      </trkpt>
      <trkpt lat="45.18403" lon="0.72302">
        <ele>102.8</ele>
        <time>2021-10-24T13:29:52Z</time>
      </trkpt>
      <trkpt lat="45.18403" lon="0.72304">
        <ele>102.7</ele>
        <time>2021-10-24T13:29:53Z</time>
      </trkpt>
      <trkpt lat="45.18403" lon="0.72305">
        <ele>102.6</ele>
        <time>2021-10-24T13:29:54Z</time>
      </trkpt>
      <trkpt lat="45.18403" lon="0.72307">
        <ele>102.5</ele>
        <time>2021-10-24T13:29:55Z</time>
      </trkpt>
      <trkpt lat="45.18403" lon="0.72308">
        <ele>102.4</ele>
        <time>2021-10-24T13:29:56Z</time>
      </trkpt>
      <trkpt lat="45.18403" lon="0.7231">
        <ele>102.3</ele>
        <time>2021-10-24T13:29:58Z</time>
      </trkpt>
      <trkpt lat="45.18403" lon="0.72311">
        <ele>102.2</ele>
        <time>2021-10-24T13:29:59Z</time>
      </trkpt>
      <trkpt lat="45.18403" lon="0.72312">
        <ele>102.1</ele>
        <time>2021-10-24T13:30:00Z</time>
      </trkpt>
      <trkpt lat="45.18403" lon="0.72314">
        <ele>102</ele>
        <time>2021-10-24T13:30:01Z</time>
      </trkpt>
      <trkpt lat="45.18404" lon="0.72315">
        <ele>101.9</ele>
        <time>2021-10-24T13:30:02Z</time>
      </trkpt>
      <trkpt lat="45.18404" lon="0.72317">
        <ele>101.8</ele>
        <time>2021-10-24T13:30:03Z</time>
      </trkpt>
      <trkpt lat="45.18403" lon="0.72318">
        <ele>101.7</ele>
        <time>2021-10-24T13:30:04Z</time>
      </trkpt>
      <trkpt lat="45.18403" lon="0.7232">
        <ele>101.6</ele>
        <time>2021-10-24T13:30:05Z</time>
      </trkpt>
      <trkpt lat="45.18403" lon="0.72322">
        <ele>101.4</ele>
        <time>2021-10-24T13:30:07Z</time>
      </trkpt>
      <trkpt lat="45.18403" lon="0.72324">
        <ele>101.3</ele>
        <time>2021-10-24T13:30:08Z</time>
      </trkpt>
      <trkpt lat="45.18402" lon="0.72325">
        <ele>101.2</ele>
        <time>2021-10-24T13:30:09Z</time>
      </trkpt>
      <trkpt lat="45.18402" lon="0.72326">
        <ele>101.1</ele>
        <time>2021-10-24T13:30:10Z</time>
      </trkpt>
      <trkpt lat="45.18402" lon="0.72328">
        <ele>101</ele>
        <time>2021-10-24T13:30:11Z</time>
      </trkpt>
      <trkpt lat="45.18401" lon="0.72329">
        <ele>100.9</ele>
        <time>2021-10-24T13:30:12Z</time>
      </trkpt>
      <trkpt lat="45.18401" lon="0.7233">
        <ele>100.8</ele>
        <time>2021-10-24T13:30:14Z</time>
      </trkpt>
      <trkpt lat="45.18401" lon="0.72332">
        <ele>100.7</ele>
        <time>2021-10-24T13:30:15Z</time>
      </trkpt>
      <trkpt lat="45.18401" lon="0.72333">
        <ele>100.6</ele>
        <time>2021-10-24T13:30:16Z</time>
      </trkpt>
      <trkpt lat="45.18401" lon="0.72334">
        <ele>100.5</ele>
        <time>2021-10-24T13:30:17Z</time>
      </trkpt>
      <trkpt lat="45.18401" lon="0.72335">
        <ele>100.5</ele>
        <time>2021-10-24T13:30:18Z</time>
      </trkpt>
      <trkpt lat="45.18401" lon="0.72336">
        <ele>100.4</ele>
        <time>2021-10-24T13:30:19Z</time>
      </trkpt>
      <trkpt lat="45.18401" lon="0.72337">
        <ele>100.3</ele>
        <time>2021-10-24T13:30:20Z</time>
      </trkpt>
      <trkpt lat="45.184" lon="0.72338">
        <ele>100.2</ele>
        <time>2021-10-24T13:30:22Z</time>
      </trkpt>
      <trkpt lat="45.184" lon="0.72339">
        <ele>100.2</ele>
        <time>2021-10-24T13:30:23Z</time>
      </trkpt>
      <trkpt lat="45.18401" lon="0.7234">
        <ele>100.1</ele>
        <time>2021-10-24T13:30:24Z</time>
      </trkpt>
      <trkpt lat="45.18401" lon="0.72342">
        <ele>99.9</ele>
        <time>2021-10-24T13:30:25Z</time>
      </trkpt>
      <trkpt lat="45.18401" lon="0.72344">
        <ele>99.8</ele>
        <time>2021-10-24T13:30:27Z</time>
      </trkpt>
      <trkpt lat="45.18401" lon="0.72346">
        <ele>99.6</ele>
        <time>2021-10-24T13:30:28Z</time>
      </trkpt>
      <trkpt lat="45.184" lon="0.72347">
        <ele>99.6</ele>
        <time>2021-10-24T13:30:29Z</time>
      </trkpt>
      <trkpt lat="45.184" lon="0.72349">
        <ele>99.5</ele>
        <time>2021-10-24T13:30:30Z</time>
      </trkpt>
      <trkpt lat="45.184" lon="0.7235">
        <ele>99.5</ele>
        <time>2021-10-24T13:30:31Z</time>
      </trkpt>
      <trkpt lat="45.184" lon="0.72351">
        <ele>99.4</ele>
        <time>2021-10-24T13:30:33Z</time>
      </trkpt>
      <trkpt lat="45.184" lon="0.72353">
        <ele>99.4</ele>
        <time>2021-10-24T13:30:34Z</time>
      </trkpt>
      <trkpt lat="45.184" lon="0.72354">
        <ele>99.4</ele>
        <time>2021-10-24T13:30:35Z</time>
      </trkpt>
      <trkpt lat="45.18399" lon="0.72355">
        <ele>99.3</ele>
        <time>2021-10-24T13:30:36Z</time>
      </trkpt>
      <trkpt lat="45.18399" lon="0.72355">
        <ele>99.3</ele>
        <time>2021-10-24T13:30:37Z</time>
      </trkpt>
      <trkpt lat="45.18399" lon="0.72355">
        <ele>99.3</ele>
        <time>2021-10-24T13:30:39Z</time>
      </trkpt>
      <trkpt lat="45.18399" lon="0.72355">
        <ele>99.3</ele>
        <time>2021-10-24T13:30:41Z</time>
      </trkpt>
      <trkpt lat="45.18398" lon="0.72356">
        <ele>99.3</ele>
        <time>2021-10-24T13:30:43Z</time>
      </trkpt>
      <trkpt lat="45.18398" lon="0.72356">
        <ele>99.3</ele>
        <time>2021-10-24T13:30:44Z</time>
      </trkpt>
      <trkpt lat="45.18398" lon="0.72356">
        <ele>99.3</ele>
        <time>2021-10-24T13:30:46Z</time>
      </trkpt>
      <trkpt lat="45.18398" lon="0.72356">
        <ele>99.3</ele>
        <time>2021-10-24T13:30:47Z</time>
      </trkpt>
      <trkpt lat="45.18398" lon="0.72356">
        <ele>99.3</ele>
        <time>2021-10-24T13:30:49Z</time>
      </trkpt>
      <trkpt lat="45.18398" lon="0.72356">
        <ele>99.3</ele>
        <time>2021-10-24T13:30:50Z</time>
      </trkpt>
      <trkpt lat="45.18399" lon="0.72356">
        <ele>99.3</ele>
        <time>2021-10-24T13:30:51Z</time>
      </trkpt>
      <trkpt lat="45.18399" lon="0.72356">
        <ele>99.3</ele>
        <time>2021-10-24T13:30:52Z</time>
      </trkpt>
      <trkpt lat="45.18399" lon="0.72356">
        <ele>99.3</ele>
        <time>2021-10-24T13:30:53Z</time>
      </trkpt>
      <trkpt lat="45.18399" lon="0.72356">
        <ele>99.3</ele>
        <time>2021-10-24T13:30:55Z</time>
      </trkpt>
      <trkpt lat="45.18399" lon="0.72356">
        <ele>99.3</ele>
        <time>2021-10-24T13:30:56Z</time>
      </trkpt>
      <trkpt lat="45.18399" lon="0.72356">
        <ele>99.3</ele>
        <time>2021-10-24T13:30:58Z</time>
      </trkpt>
      <trkpt lat="45.18399" lon="0.72357">
        <ele>99.3</ele>
        <time>2021-10-24T13:30:59Z</time>
      </trkpt>
      <trkpt lat="45.18399" lon="0.72357">
        <ele>99.1</ele>
        <time>2021-10-24T13:31:00Z</time>
      </trkpt>
      <trkpt lat="45.18399" lon="0.72358">
        <ele>99.1</ele>
        <time>2021-10-24T13:31:01Z</time>
      </trkpt>
      <trkpt lat="45.18399" lon="0.72359">
        <ele>99</ele>
        <time>2021-10-24T13:31:02Z</time>
      </trkpt>
      <trkpt lat="45.18399" lon="0.7236">
        <ele>99</ele>
        <time>2021-10-24T13:31:03Z</time>
      </trkpt>
      <trkpt lat="45.18399" lon="0.72362">
        <ele>98.9</ele>
        <time>2021-10-24T13:31:05Z</time>
      </trkpt>
      <trkpt lat="45.18398" lon="0.72363">
        <ele>98.8</ele>
        <time>2021-10-24T13:31:06Z</time>
      </trkpt>
      <trkpt lat="45.18397" lon="0.72364">
        <ele>98.8</ele>
        <time>2021-10-24T13:31:07Z</time>
      </trkpt>
      <trkpt lat="45.18397" lon="0.72366">
        <ele>98.7</ele>
        <time>2021-10-24T13:31:08Z</time>
      </trkpt>
      <trkpt lat="45.18397" lon="0.72367">
        <ele>98.6</ele>
        <time>2021-10-24T13:31:09Z</time>
      </trkpt>
      <trkpt lat="45.18397" lon="0.72369">
        <ele>98.5</ele>
        <time>2021-10-24T13:31:10Z</time>
      </trkpt>
      <trkpt lat="45.18397" lon="0.7237">
        <ele>98.5</ele>
        <time>2021-10-24T13:31:11Z</time>
      </trkpt>
      <trkpt lat="45.18397" lon="0.72372">
        <ele>98.4</ele>
        <time>2021-10-24T13:31:12Z</time>
      </trkpt>
      <trkpt lat="45.18397" lon="0.72374">
        <ele>98.3</ele>
        <time>2021-10-24T13:31:14Z</time>
      </trkpt>
      <trkpt lat="45.18397" lon="0.72377">
        <ele>98.2</ele>
        <time>2021-10-24T13:31:15Z</time>
      </trkpt>
      <trkpt lat="45.18397" lon="0.72378">
        <ele>98.1</ele>
        <time>2021-10-24T13:31:16Z</time>
      </trkpt>
      <trkpt lat="45.18396" lon="0.72381">
        <ele>97.9</ele>
        <time>2021-10-24T13:31:17Z</time>
      </trkpt>
      <trkpt lat="45.18395" lon="0.72382">
        <ele>97.8</ele>
        <time>2021-10-24T13:31:18Z</time>
      </trkpt>
      <trkpt lat="45.18395" lon="0.72383">
        <ele>97.7</ele>
        <time>2021-10-24T13:31:19Z</time>
      </trkpt>
      <trkpt lat="45.18395" lon="0.72384">
        <ele>97.7</ele>
        <time>2021-10-24T13:31:20Z</time>
      </trkpt>
      <trkpt lat="45.18394" lon="0.72386">
        <ele>97.6</ele>
        <time>2021-10-24T13:31:22Z</time>
      </trkpt>
      <trkpt lat="45.18394" lon="0.72386">
        <ele>97.5</ele>
        <time>2021-10-24T13:31:24Z</time>
      </trkpt>
      <trkpt lat="45.18394" lon="0.72387">
        <ele>97.5</ele>
        <time>2021-10-24T13:31:25Z</time>
      </trkpt>
      <trkpt lat="45.18395" lon="0.72388">
        <ele>97.4</ele>
        <time>2021-10-24T13:31:26Z</time>
      </trkpt>
      <trkpt lat="45.18394" lon="0.72389">
        <ele>97.4</ele>
        <time>2021-10-24T13:31:27Z</time>
      </trkpt>
      <trkpt lat="45.18394" lon="0.72389">
        <ele>97.3</ele>
        <time>2021-10-24T13:31:28Z</time>
      </trkpt>
      <trkpt lat="45.18394" lon="0.7239">
        <ele>97.3</ele>
        <time>2021-10-24T13:31:29Z</time>
      </trkpt>
      <trkpt lat="45.18394" lon="0.7239">
        <ele>97.2</ele>
        <time>2021-10-24T13:31:31Z</time>
      </trkpt>
      <trkpt lat="45.18394" lon="0.72391">
        <ele>97.2</ele>
        <time>2021-10-24T13:31:32Z</time>
      </trkpt>
      <trkpt lat="45.18393" lon="0.72391">
        <ele>97.2</ele>
        <time>2021-10-24T13:31:33Z</time>
      </trkpt>
      <trkpt lat="45.18393" lon="0.72392">
        <ele>97.1</ele>
        <time>2021-10-24T13:31:34Z</time>
      </trkpt>
      <trkpt lat="45.18393" lon="0.72393">
        <ele>97.1</ele>
        <time>2021-10-24T13:31:35Z</time>
      </trkpt>
      <trkpt lat="45.18393" lon="0.72394">
        <ele>97</ele>
        <time>2021-10-24T13:31:36Z</time>
      </trkpt>
      <trkpt lat="45.18392" lon="0.72395">
        <ele>96.9</ele>
        <time>2021-10-24T13:31:38Z</time>
      </trkpt>
      <trkpt lat="45.18391" lon="0.72396">
        <ele>96.8</ele>
        <time>2021-10-24T13:31:39Z</time>
      </trkpt>
      <trkpt lat="45.1839" lon="0.72398">
        <ele>96.7</ele>
        <time>2021-10-24T13:31:40Z</time>
      </trkpt>
      <trkpt lat="45.1839" lon="0.72399">
        <ele>96.6</ele>
        <time>2021-10-24T13:31:41Z</time>
      </trkpt>
      <trkpt lat="45.18389" lon="0.724">
        <ele>96.5</ele>
        <time>2021-10-24T13:31:42Z</time>
      </trkpt>
      <trkpt lat="45.18388" lon="0.72402">
        <ele>96.4</ele>
        <time>2021-10-24T13:31:43Z</time>
      </trkpt>
      <trkpt lat="45.18388" lon="0.72403">
        <ele>96.3</ele>
        <time>2021-10-24T13:31:44Z</time>
      </trkpt>
      <trkpt lat="45.18388" lon="0.72404">
        <ele>96.2</ele>
        <time>2021-10-24T13:31:45Z</time>
      </trkpt>
      <trkpt lat="45.18387" lon="0.72406">
        <ele>96.2</ele>
        <time>2021-10-24T13:31:46Z</time>
      </trkpt>
      <trkpt lat="45.18387" lon="0.72407">
        <ele>96.1</ele>
        <time>2021-10-24T13:31:48Z</time>
      </trkpt>
      <trkpt lat="45.18387" lon="0.72409">
        <ele>96</ele>
        <time>2021-10-24T13:31:49Z</time>
      </trkpt>
      <trkpt lat="45.18386" lon="0.7241">
        <ele>95.9</ele>
        <time>2021-10-24T13:31:50Z</time>
      </trkpt>
      <trkpt lat="45.18386" lon="0.72412">
        <ele>95.8</ele>
        <time>2021-10-24T13:31:51Z</time>
      </trkpt>
      <trkpt lat="45.18385" lon="0.72413">
        <ele>95.7</ele>
        <time>2021-10-24T13:31:52Z</time>
      </trkpt>
      <trkpt lat="45.18384" lon="0.72415">
        <ele>95.6</ele>
        <time>2021-10-24T13:31:53Z</time>
      </trkpt>
      <trkpt lat="45.18383" lon="0.72416">
        <ele>95.5</ele>
        <time>2021-10-24T13:31:54Z</time>
      </trkpt>
      <trkpt lat="45.18383" lon="0.72417">
        <ele>95.5</ele>
        <time>2021-10-24T13:31:55Z</time>
      </trkpt>
      <trkpt lat="45.18382" lon="0.72418">
        <ele>95.4</ele>
        <time>2021-10-24T13:31:56Z</time>
      </trkpt>
      <trkpt lat="45.18382" lon="0.72419">
        <ele>95.4</ele>
        <time>2021-10-24T13:31:58Z</time>
      </trkpt>
      <trkpt lat="45.18381" lon="0.72421">
        <ele>95.3</ele>
        <time>2021-10-24T13:31:59Z</time>
      </trkpt>
      <trkpt lat="45.18381" lon="0.72422">
        <ele>95.3</ele>
        <time>2021-10-24T13:32:00Z</time>
      </trkpt>
      <trkpt lat="45.18381" lon="0.72423">
        <ele>95.2</ele>
        <time>2021-10-24T13:32:01Z</time>
      </trkpt>
      <trkpt lat="45.1838" lon="0.72425">
        <ele>95.2</ele>
        <time>2021-10-24T13:32:02Z</time>
      </trkpt>
      <trkpt lat="45.1838" lon="0.72426">
        <ele>95.2</ele>
        <time>2021-10-24T13:32:03Z</time>
      </trkpt>
      <trkpt lat="45.18381" lon="0.72427">
        <ele>95.1</ele>
        <time>2021-10-24T13:32:04Z</time>
      </trkpt>
      <trkpt lat="45.18381" lon="0.72429">
        <ele>95.1</ele>
        <time>2021-10-24T13:32:05Z</time>
      </trkpt>
      <trkpt lat="45.18381" lon="0.7243">
        <ele>95</ele>
        <time>2021-10-24T13:32:07Z</time>
      </trkpt>
      <trkpt lat="45.18381" lon="0.7243">
        <ele>95</ele>
        <time>2021-10-24T13:32:08Z</time>
      </trkpt>
      <trkpt lat="45.1838" lon="0.72432">
        <ele>95</ele>
        <time>2021-10-24T13:32:09Z</time>
      </trkpt>
      <trkpt lat="45.1838" lon="0.72432">
        <ele>94.9</ele>
        <time>2021-10-24T13:32:10Z</time>
      </trkpt>
      <trkpt lat="45.18379" lon="0.72432">
        <ele>94.9</ele>
        <time>2021-10-24T13:32:12Z</time>
      </trkpt>
      <trkpt lat="45.18378" lon="0.72432">
        <ele>94.9</ele>
        <time>2021-10-24T13:32:13Z</time>
      </trkpt>
      <trkpt lat="45.18378" lon="0.72432">
        <ele>94.8</ele>
        <time>2021-10-24T13:32:14Z</time>
      </trkpt>
      <trkpt lat="45.18377" lon="0.72432">
        <ele>94.8</ele>
        <time>2021-10-24T13:32:16Z</time>
      </trkpt>
      <trkpt lat="45.18377" lon="0.72432">
        <ele>94.8</ele>
        <time>2021-10-24T13:32:17Z</time>
      </trkpt>
      <trkpt lat="45.18376" lon="0.72433">
        <ele>94.7</ele>
        <time>2021-10-24T13:32:19Z</time>
      </trkpt>
      <trkpt lat="45.18376" lon="0.72433">
        <ele>94.7</ele>
        <time>2021-10-24T13:32:21Z</time>
      </trkpt>
      <trkpt lat="45.18374" lon="0.72433">
        <ele>94.7</ele>
        <time>2021-10-24T13:32:22Z</time>
      </trkpt>
      <trkpt lat="45.18374" lon="0.72432">
        <ele>94.6</ele>
        <time>2021-10-24T13:32:23Z</time>
      </trkpt>
      <trkpt lat="45.18373" lon="0.72432">
        <ele>94.6</ele>
        <time>2021-10-24T13:32:25Z</time>
      </trkpt>
      <trkpt lat="45.18372" lon="0.72432">
        <ele>94.5</ele>
        <time>2021-10-24T13:32:26Z</time>
      </trkpt>
      <trkpt lat="45.1837" lon="0.72432">
        <ele>94.5</ele>
        <time>2021-10-24T13:32:27Z</time>
      </trkpt>
      <trkpt lat="45.18369" lon="0.72432">
        <ele>94.4</ele>
        <time>2021-10-24T13:32:28Z</time>
      </trkpt>
      <trkpt lat="45.18367" lon="0.72432">
        <ele>94.3</ele>
        <time>2021-10-24T13:32:30Z</time>
      </trkpt>
      <trkpt lat="45.18367" lon="0.72432">
        <ele>94.3</ele>
        <time>2021-10-24T13:32:31Z</time>
      </trkpt>
      <trkpt lat="45.18366" lon="0.72433">
        <ele>94.3</ele>
        <time>2021-10-24T13:32:32Z</time>
      </trkpt>
      <trkpt lat="45.18364" lon="0.72434">
        <ele>94.2</ele>
        <time>2021-10-24T13:32:34Z</time>
      </trkpt>
      <trkpt lat="45.18363" lon="0.72435">
        <ele>94.1</ele>
        <time>2021-10-24T13:32:35Z</time>
      </trkpt>
      <trkpt lat="45.18362" lon="0.72436">
        <ele>94.1</ele>
        <time>2021-10-24T13:32:36Z</time>
      </trkpt>
      <trkpt lat="45.18361" lon="0.72437">
        <ele>94</ele>
        <time>2021-10-24T13:32:37Z</time>
      </trkpt>
      <trkpt lat="45.1836" lon="0.72438">
        <ele>94</ele>
        <time>2021-10-24T13:32:38Z</time>
      </trkpt>
      <trkpt lat="45.18359" lon="0.72438">
        <ele>93.9</ele>
        <time>2021-10-24T13:32:39Z</time>
      </trkpt>
      <trkpt lat="45.18358" lon="0.72439">
        <ele>93.9</ele>
        <time>2021-10-24T13:32:40Z</time>
      </trkpt>
      <trkpt lat="45.18357" lon="0.72439">
        <ele>93.9</ele>
        <time>2021-10-24T13:32:42Z</time>
      </trkpt>
      <trkpt lat="45.18357" lon="0.72439">
        <ele>93.9</ele>
        <time>2021-10-24T13:32:43Z</time>
      </trkpt>
      <trkpt lat="45.18357" lon="0.72439">
        <ele>93.9</ele>
        <time>2021-10-24T13:32:45Z</time>
      </trkpt>
      <trkpt lat="45.18357" lon="0.72439">
        <ele>93.9</ele>
        <time>2021-10-24T13:32:46Z</time>
      </trkpt>
      <trkpt lat="45.18358" lon="0.7244">
        <ele>93.9</ele>
        <time>2021-10-24T13:32:48Z</time>
      </trkpt>
      <trkpt lat="45.18358" lon="0.7244">
        <ele>93.9</ele>
        <time>2021-10-24T13:32:49Z</time>
      </trkpt>
      <trkpt lat="45.18358" lon="0.72441">
        <ele>93.9</ele>
        <time>2021-10-24T13:32:51Z</time>
      </trkpt>
      <trkpt lat="45.18358" lon="0.72441">
        <ele>93.9</ele>
        <time>2021-10-24T13:32:53Z</time>
      </trkpt>
      <trkpt lat="45.18358" lon="0.72441">
        <ele>93.9</ele>
        <time>2021-10-24T13:32:55Z</time>
      </trkpt>
      <trkpt lat="45.18358" lon="0.72441">
        <ele>93.9</ele>
        <time>2021-10-24T13:32:57Z</time>
      </trkpt>
      <trkpt lat="45.18358" lon="0.72441">
        <ele>93.9</ele>
        <time>2021-10-24T13:32:58Z</time>
      </trkpt>
      <trkpt lat="45.18358" lon="0.72441">
        <ele>93.9</ele>
        <time>2021-10-24T13:33:00Z</time>
      </trkpt>
      <trkpt lat="45.18358" lon="0.72441">
        <ele>93.9</ele>
        <time>2021-10-24T13:33:01Z</time>
      </trkpt>
      <trkpt lat="45.18358" lon="0.72441">
        <ele>93.9</ele>
        <time>2021-10-24T13:33:03Z</time>
      </trkpt>
      <trkpt lat="45.18358" lon="0.72441">
        <ele>93.9</ele>
        <time>2021-10-24T13:33:04Z</time>
      </trkpt>
      <trkpt lat="45.18358" lon="0.72441">
        <ele>93.9</ele>
        <time>2021-10-24T13:33:06Z</time>
      </trkpt>
      <trkpt lat="45.18359" lon="0.72441">
        <ele>93.9</ele>
        <time>2021-10-24T13:33:07Z</time>
      </trkpt>
      <trkpt lat="45.1836" lon="0.72442">
        <ele>93.9</ele>
        <time>2021-10-24T13:33:09Z</time>
      </trkpt>
      <trkpt lat="45.1836" lon="0.72442">
        <ele>93.9</ele>
        <time>2021-10-24T13:33:10Z</time>
      </trkpt>
      <trkpt lat="45.1836" lon="0.72442">
        <ele>93.9</ele>
        <time>2021-10-24T13:33:12Z</time>
      </trkpt>
      <trkpt lat="45.1836" lon="0.72442">
        <ele>93.9</ele>
        <time>2021-10-24T13:33:13Z</time>
      </trkpt>
      <trkpt lat="45.1836" lon="0.72442">
        <ele>93.9</ele>
        <time>2021-10-24T13:33:15Z</time>
      </trkpt>
      <trkpt lat="45.1836" lon="0.72443">
        <ele>93.9</ele>
        <time>2021-10-24T13:33:16Z</time>
      </trkpt>
      <trkpt lat="45.18361" lon="0.72444">
        <ele>93.8</ele>
        <time>2021-10-24T13:33:18Z</time>
      </trkpt>
      <trkpt lat="45.18361" lon="0.72446">
        <ele>93.8</ele>
        <time>2021-10-24T13:33:19Z</time>
      </trkpt>
      <trkpt lat="45.18361" lon="0.72447">
        <ele>93.8</ele>
        <time>2021-10-24T13:33:20Z</time>
      </trkpt>
      <trkpt lat="45.18361" lon="0.72449">
        <ele>93.8</ele>
        <time>2021-10-24T13:33:21Z</time>
      </trkpt>
      <trkpt lat="45.18361" lon="0.72451">
        <ele>93.8</ele>
        <time>2021-10-24T13:33:22Z</time>
      </trkpt>
      <trkpt lat="45.18361" lon="0.72452">
        <ele>93.8</ele>
        <time>2021-10-24T13:33:24Z</time>
      </trkpt>
      <trkpt lat="45.18361" lon="0.72452">
        <ele>93.8</ele>
        <time>2021-10-24T13:33:25Z</time>
      </trkpt>
      <trkpt lat="45.18361" lon="0.72452">
        <ele>93.8</ele>
        <time>2021-10-24T13:33:27Z</time>
      </trkpt>
      <trkpt lat="45.18361" lon="0.72452">
        <ele>93.8</ele>
        <time>2021-10-24T13:33:28Z</time>
      </trkpt>
      <trkpt lat="45.18361" lon="0.72452">
        <ele>93.8</ele>
        <time>2021-10-24T13:33:29Z</time>
      </trkpt>
      <trkpt lat="45.18361" lon="0.72452">
        <ele>93.8</ele>
        <time>2021-10-24T13:33:30Z</time>
      </trkpt>
      <trkpt lat="45.18361" lon="0.72453">
        <ele>93.8</ele>
        <time>2021-10-24T13:33:32Z</time>
      </trkpt>
      <trkpt lat="45.18361" lon="0.72453">
        <ele>93.8</ele>
        <time>2021-10-24T13:33:33Z</time>
      </trkpt>
      <trkpt lat="45.18361" lon="0.72453">
        <ele>93.8</ele>
        <time>2021-10-24T13:33:35Z</time>
      </trkpt>
      <trkpt lat="45.18361" lon="0.72453">
        <ele>93.8</ele>
        <time>2021-10-24T13:33:36Z</time>
      </trkpt>
      <trkpt lat="45.18361" lon="0.72453">
        <ele>93.8</ele>
        <time>2021-10-24T13:33:37Z</time>
      </trkpt>
      <trkpt lat="45.18361" lon="0.72453">
        <ele>93.8</ele>
        <time>2021-10-24T13:33:39Z</time>
      </trkpt>
      <trkpt lat="45.18362" lon="0.72453">
        <ele>93.8</ele>
        <time>2021-10-24T13:33:40Z</time>
      </trkpt>
      <trkpt lat="45.18363" lon="0.72454">
        <ele>93.8</ele>
        <time>2021-10-24T13:33:41Z</time>
      </trkpt>
      <trkpt lat="45.18365" lon="0.72455">
        <ele>93.8</ele>
        <time>2021-10-24T13:33:42Z</time>
      </trkpt>
      <trkpt lat="45.18366" lon="0.72456">
        <ele>93.8</ele>
        <time>2021-10-24T13:33:43Z</time>
      </trkpt>
      <trkpt lat="45.18367" lon="0.72456">
        <ele>93.8</ele>
        <time>2021-10-24T13:33:44Z</time>
      </trkpt>
      <trkpt lat="45.18368" lon="0.72456">
        <ele>93.8</ele>
        <time>2021-10-24T13:33:45Z</time>
      </trkpt>
      <trkpt lat="45.18368" lon="0.72456">
        <ele>93.8</ele>
        <time>2021-10-24T13:33:46Z</time>
      </trkpt>
      <trkpt lat="45.18368" lon="0.72456">
        <ele>93.8</ele>
        <time>2021-10-24T13:33:48Z</time>
      </trkpt>
      <trkpt lat="45.18368" lon="0.72456">
        <ele>93.8</ele>
        <time>2021-10-24T13:33:49Z</time>
      </trkpt>
      <trkpt lat="45.18368" lon="0.72458">
        <ele>93.8</ele>
        <time>2021-10-24T13:33:51Z</time>
      </trkpt>
      <trkpt lat="45.18368" lon="0.72459">
        <ele>93.8</ele>
        <time>2021-10-24T13:33:52Z</time>
      </trkpt>
      <trkpt lat="45.18368" lon="0.72461">
        <ele>93.8</ele>
        <time>2021-10-24T13:33:53Z</time>
      </trkpt>
      <trkpt lat="45.18367" lon="0.72462">
        <ele>93.8</ele>
        <time>2021-10-24T13:33:54Z</time>
      </trkpt>
      <trkpt lat="45.18366" lon="0.72464">
        <ele>93.8</ele>
        <time>2021-10-24T13:33:55Z</time>
      </trkpt>
      <trkpt lat="45.18365" lon="0.72465">
        <ele>93.8</ele>
        <time>2021-10-24T13:33:57Z</time>
      </trkpt>
      <trkpt lat="45.18365" lon="0.72465">
        <ele>93.8</ele>
        <time>2021-10-24T13:33:58Z</time>
      </trkpt>
      <trkpt lat="45.18364" lon="0.72466">
        <ele>93.8</ele>
        <time>2021-10-24T13:33:59Z</time>
      </trkpt>
      <trkpt lat="45.18363" lon="0.72467">
        <ele>93.8</ele>
        <time>2021-10-24T13:34:00Z</time>
      </trkpt>
      <trkpt lat="45.18362" lon="0.72468">
        <ele>93.8</ele>
        <time>2021-10-24T13:34:01Z</time>
      </trkpt>
      <trkpt lat="45.18362" lon="0.7247">
        <ele>93.8</ele>
        <time>2021-10-24T13:34:03Z</time>
      </trkpt>
      <trkpt lat="45.18361" lon="0.72471">
        <ele>93.8</ele>
        <time>2021-10-24T13:34:04Z</time>
      </trkpt>
      <trkpt lat="45.18361" lon="0.72471">
        <ele>93.8</ele>
        <time>2021-10-24T13:34:06Z</time>
      </trkpt>
      <trkpt lat="45.1836" lon="0.72472">
        <ele>93.8</ele>
        <time>2021-10-24T13:34:07Z</time>
      </trkpt>
      <trkpt lat="45.18359" lon="0.72472">
        <ele>93.7</ele>
        <time>2021-10-24T13:34:08Z</time>
      </trkpt>
      <trkpt lat="45.18358" lon="0.72473">
        <ele>93.7</ele>
        <time>2021-10-24T13:34:10Z</time>
      </trkpt>
      <trkpt lat="45.18358" lon="0.72474">
        <ele>93.7</ele>
        <time>2021-10-24T13:34:11Z</time>
      </trkpt>
      <trkpt lat="45.18357" lon="0.72476">
        <ele>93.7</ele>
        <time>2021-10-24T13:34:12Z</time>
      </trkpt>
      <trkpt lat="45.18357" lon="0.72477">
        <ele>93.7</ele>
        <time>2021-10-24T13:34:13Z</time>
      </trkpt>
      <trkpt lat="45.18356" lon="0.72479">
        <ele>93.7</ele>
        <time>2021-10-24T13:34:15Z</time>
      </trkpt>
      <trkpt lat="45.18356" lon="0.7248">
        <ele>93.7</ele>
        <time>2021-10-24T13:34:16Z</time>
      </trkpt>
      <trkpt lat="45.18356" lon="0.72482">
        <ele>93.7</ele>
        <time>2021-10-24T13:34:17Z</time>
      </trkpt>
      <trkpt lat="45.18355" lon="0.72483">
        <ele>93.7</ele>
        <time>2021-10-24T13:34:18Z</time>
      </trkpt>
      <trkpt lat="45.18355" lon="0.72484">
        <ele>93.7</ele>
        <time>2021-10-24T13:34:19Z</time>
      </trkpt>
      <trkpt lat="45.18354" lon="0.72486">
        <ele>93.7</ele>
        <time>2021-10-24T13:34:21Z</time>
      </trkpt>
      <trkpt lat="45.18354" lon="0.72488">
        <ele>93.6</ele>
        <time>2021-10-24T13:34:22Z</time>
      </trkpt>
      <trkpt lat="45.18354" lon="0.72489">
        <ele>93.6</ele>
        <time>2021-10-24T13:34:23Z</time>
      </trkpt>
      <trkpt lat="45.18354" lon="0.7249">
        <ele>93.6</ele>
        <time>2021-10-24T13:34:24Z</time>
      </trkpt>
      <trkpt lat="45.18353" lon="0.72492">
        <ele>93.6</ele>
        <time>2021-10-24T13:34:26Z</time>
      </trkpt>
      <trkpt lat="45.18353" lon="0.72493">
        <ele>93.6</ele>
        <time>2021-10-24T13:34:27Z</time>
      </trkpt>
      <trkpt lat="45.18352" lon="0.72494">
        <ele>93.6</ele>
        <time>2021-10-24T13:34:28Z</time>
      </trkpt>
      <trkpt lat="45.18351" lon="0.72495">
        <ele>93.6</ele>
        <time>2021-10-24T13:34:29Z</time>
      </trkpt>
      <trkpt lat="45.18351" lon="0.72496">
        <ele>93.6</ele>
        <time>2021-10-24T13:34:30Z</time>
      </trkpt>
      <trkpt lat="45.1835" lon="0.72497">
        <ele>93.6</ele>
        <time>2021-10-24T13:34:32Z</time>
      </trkpt>
      <trkpt lat="45.1835" lon="0.72498">
        <ele>93.5</ele>
        <time>2021-10-24T13:34:33Z</time>
      </trkpt>
      <trkpt lat="45.18349" lon="0.725">
        <ele>93.5</ele>
        <time>2021-10-24T13:34:34Z</time>
      </trkpt>
      <trkpt lat="45.18348" lon="0.72502">
        <ele>93.5</ele>
        <time>2021-10-24T13:34:35Z</time>
      </trkpt>
      <trkpt lat="45.18348" lon="0.72503">
        <ele>93.5</ele>
        <time>2021-10-24T13:34:36Z</time>
      </trkpt>
      <trkpt lat="45.18348" lon="0.72504">
        <ele>93.5</ele>
        <time>2021-10-24T13:34:38Z</time>
      </trkpt>
      <trkpt lat="45.18347" lon="0.72505">
        <ele>93.5</ele>
        <time>2021-10-24T13:34:39Z</time>
      </trkpt>
      <trkpt lat="45.18347" lon="0.72506">
        <ele>93.5</ele>
        <time>2021-10-24T13:34:40Z</time>
      </trkpt>
      <trkpt lat="45.18346" lon="0.72507">
        <ele>93.4</ele>
        <time>2021-10-24T13:34:41Z</time>
      </trkpt>
      <trkpt lat="45.18346" lon="0.72508">
        <ele>93.4</ele>
        <time>2021-10-24T13:34:42Z</time>
      </trkpt>
      <trkpt lat="45.18346" lon="0.7251">
        <ele>93.4</ele>
        <time>2021-10-24T13:34:43Z</time>
      </trkpt>
      <trkpt lat="45.18345" lon="0.72511">
        <ele>93.4</ele>
        <time>2021-10-24T13:34:45Z</time>
      </trkpt>
      <trkpt lat="45.18345" lon="0.72511">
        <ele>93.4</ele>
        <time>2021-10-24T13:34:46Z</time>
      </trkpt>
      <trkpt lat="45.18345" lon="0.72512">
        <ele>93.4</ele>
        <time>2021-10-24T13:34:48Z</time>
      </trkpt>
      <trkpt lat="45.18345" lon="0.72512">
        <ele>93.4</ele>
        <time>2021-10-24T13:34:49Z</time>
      </trkpt>
      <trkpt lat="45.18345" lon="0.72513">
        <ele>93.4</ele>
        <time>2021-10-24T13:34:50Z</time>
      </trkpt>
      <trkpt lat="45.18344" lon="0.72514">
        <ele>93.4</ele>
        <time>2021-10-24T13:34:51Z</time>
      </trkpt>
      <trkpt lat="45.18344" lon="0.72516">
        <ele>93.3</ele>
        <time>2021-10-24T13:34:52Z</time>
      </trkpt>
      <trkpt lat="45.18344" lon="0.72517">
        <ele>93.3</ele>
        <time>2021-10-24T13:34:53Z</time>
      </trkpt>
      <trkpt lat="45.18344" lon="0.72518">
        <ele>93.3</ele>
        <time>2021-10-24T13:34:54Z</time>
      </trkpt>
      <trkpt lat="45.18343" lon="0.72521">
        <ele>93.3</ele>
        <time>2021-10-24T13:34:56Z</time>
      </trkpt>
      <trkpt lat="45.18342" lon="0.72522">
        <ele>92.3</ele>
        <time>2021-10-24T13:34:57Z</time>
      </trkpt>
      <trkpt lat="45.18342" lon="0.72524">
        <ele>92.2</ele>
        <time>2021-10-24T13:34:58Z</time>
      </trkpt>
      <trkpt lat="45.18341" lon="0.72525">
        <ele>92.1</ele>
        <time>2021-10-24T13:35:00Z</time>
      </trkpt>
      <trkpt lat="45.18341" lon="0.72526">
        <ele>92</ele>
        <time>2021-10-24T13:35:01Z</time>
      </trkpt>
      <trkpt lat="45.18343" lon="0.72526">
        <ele>91.8</ele>
        <time>2021-10-24T13:35:03Z</time>
      </trkpt>
      <trkpt lat="45.18343" lon="0.72526">
        <ele>91.8</ele>
        <time>2021-10-24T13:35:04Z</time>
      </trkpt>
      <trkpt lat="45.18344" lon="0.72526">
        <ele>91.7</ele>
        <time>2021-10-24T13:35:06Z</time>
      </trkpt>
      <trkpt lat="45.18344" lon="0.72526">
        <ele>91.7</ele>
        <time>2021-10-24T13:35:07Z</time>
      </trkpt>
      <trkpt lat="45.18344" lon="0.72526">
        <ele>91.6</ele>
        <time>2021-10-24T13:35:08Z</time>
      </trkpt>
      <trkpt lat="45.18345" lon="0.72527">
        <ele>91.5</ele>
        <time>2021-10-24T13:35:09Z</time>
      </trkpt>
      <trkpt lat="45.18346" lon="0.72528">
        <ele>91.4</ele>
        <time>2021-10-24T13:35:10Z</time>
      </trkpt>
      <trkpt lat="45.18346" lon="0.72529">
        <ele>91.3</ele>
        <time>2021-10-24T13:35:11Z</time>
      </trkpt>
      <trkpt lat="45.18347" lon="0.7253">
        <ele>91.2</ele>
        <time>2021-10-24T13:35:13Z</time>
      </trkpt>
      <trkpt lat="45.18348" lon="0.72531">
        <ele>91</ele>
        <time>2021-10-24T13:35:14Z</time>
      </trkpt>
      <trkpt lat="45.18349" lon="0.72532">
        <ele>90.9</ele>
        <time>2021-10-24T13:35:15Z</time>
      </trkpt>
      <trkpt lat="45.1835" lon="0.72532">
        <ele>90.7</ele>
        <time>2021-10-24T13:35:17Z</time>
      </trkpt>
      <trkpt lat="45.18351" lon="0.72533">
        <ele>90.6</ele>
        <time>2021-10-24T13:35:18Z</time>
      </trkpt>
      <trkpt lat="45.18352" lon="0.72534">
        <ele>90.4</ele>
        <time>2021-10-24T13:35:19Z</time>
      </trkpt>
      <trkpt lat="45.18353" lon="0.72536">
        <ele>90.2</ele>
        <time>2021-10-24T13:35:21Z</time>
      </trkpt>
      <trkpt lat="45.18354" lon="0.72536">
        <ele>90.1</ele>
        <time>2021-10-24T13:35:22Z</time>
      </trkpt>
      <trkpt lat="45.18354" lon="0.72536">
        <ele>90.1</ele>
        <time>2021-10-24T13:35:24Z</time>
      </trkpt>
      <trkpt lat="45.18354" lon="0.72537">
        <ele>90.1</ele>
        <time>2021-10-24T13:35:25Z</time>
      </trkpt>
      <trkpt lat="45.18355" lon="0.72537">
        <ele>89.9</ele>
        <time>2021-10-24T13:35:26Z</time>
      </trkpt>
      <trkpt lat="45.18356" lon="0.72538">
        <ele>89.8</ele>
        <time>2021-10-24T13:35:27Z</time>
      </trkpt>
      <trkpt lat="45.18357" lon="0.72538">
        <ele>89.7</ele>
        <time>2021-10-24T13:35:28Z</time>
      </trkpt>
      <trkpt lat="45.18358" lon="0.72539">
        <ele>89.5</ele>
        <time>2021-10-24T13:35:29Z</time>
      </trkpt>
      <trkpt lat="45.18359" lon="0.72539">
        <ele>89.4</ele>
        <time>2021-10-24T13:35:30Z</time>
      </trkpt>
      <trkpt lat="45.1836" lon="0.7254">
        <ele>89.4</ele>
        <time>2021-10-24T13:35:31Z</time>
      </trkpt>
      <trkpt lat="45.18361" lon="0.72541">
        <ele>89.2</ele>
        <time>2021-10-24T13:35:33Z</time>
      </trkpt>
      <trkpt lat="45.18361" lon="0.72542">
        <ele>89.1</ele>
        <time>2021-10-24T13:35:34Z</time>
      </trkpt>
      <trkpt lat="45.18362" lon="0.72542">
        <ele>89.1</ele>
        <time>2021-10-24T13:35:35Z</time>
      </trkpt>
      <trkpt lat="45.18362" lon="0.72543">
        <ele>89</ele>
        <time>2021-10-24T13:35:36Z</time>
      </trkpt>
      <trkpt lat="45.18363" lon="0.72544">
        <ele>88.8</ele>
        <time>2021-10-24T13:35:37Z</time>
      </trkpt>
      <trkpt lat="45.18364" lon="0.72545">
        <ele>88.7</ele>
        <time>2021-10-24T13:35:38Z</time>
      </trkpt>
      <trkpt lat="45.18365" lon="0.72546">
        <ele>88.6</ele>
        <time>2021-10-24T13:35:40Z</time>
      </trkpt>
      <trkpt lat="45.18367" lon="0.72546">
        <ele>88.5</ele>
        <time>2021-10-24T13:35:41Z</time>
      </trkpt>
      <trkpt lat="45.18367" lon="0.72547">
        <ele>88.4</ele>
        <time>2021-10-24T13:35:42Z</time>
      </trkpt>
      <trkpt lat="45.18368" lon="0.72548">
        <ele>88.3</ele>
        <time>2021-10-24T13:35:43Z</time>
      </trkpt>
      <trkpt lat="45.18369" lon="0.72548">
        <ele>88.1</ele>
        <time>2021-10-24T13:35:44Z</time>
      </trkpt>
      <trkpt lat="45.18371" lon="0.72548">
        <ele>88</ele>
        <time>2021-10-24T13:35:46Z</time>
      </trkpt>
      <trkpt lat="45.18372" lon="0.72549">
        <ele>87.9</ele>
        <time>2021-10-24T13:35:47Z</time>
      </trkpt>
      <trkpt lat="45.18372" lon="0.72549">
        <ele>87.8</ele>
        <time>2021-10-24T13:35:48Z</time>
      </trkpt>
      <trkpt lat="45.18373" lon="0.7255">
        <ele>87.7</ele>
        <time>2021-10-24T13:35:50Z</time>
      </trkpt>
      <trkpt lat="45.18374" lon="0.7255">
        <ele>87.6</ele>
        <time>2021-10-24T13:35:51Z</time>
      </trkpt>
      <trkpt lat="45.18376" lon="0.72551">
        <ele>87.4</ele>
        <time>2021-10-24T13:35:52Z</time>
      </trkpt>
      <trkpt lat="45.18377" lon="0.72551">
        <ele>87.2</ele>
        <time>2021-10-24T13:35:53Z</time>
      </trkpt>
      <trkpt lat="45.18377" lon="0.72551">
        <ele>87.2</ele>
        <time>2021-10-24T13:35:55Z</time>
      </trkpt>
      <trkpt lat="45.18377" lon="0.7255">
        <ele>87.2</ele>
        <time>2021-10-24T13:35:57Z</time>
      </trkpt>
      <trkpt lat="45.18377" lon="0.7255">
        <ele>87.2</ele>
        <time>2021-10-24T13:35:58Z</time>
      </trkpt>
      <trkpt lat="45.18377" lon="0.7255">
        <ele>87.2</ele>
        <time>2021-10-24T13:35:59Z</time>
      </trkpt>
      <trkpt lat="45.18377" lon="0.7255">
        <ele>87.2</ele>
        <time>2021-10-24T13:36:00Z</time>
      </trkpt>
      <trkpt lat="45.18378" lon="0.72549">
        <ele>87.2</ele>
        <time>2021-10-24T13:36:02Z</time>
      </trkpt>
      <trkpt lat="45.18378" lon="0.72549">
        <ele>87.2</ele>
        <time>2021-10-24T13:36:03Z</time>
      </trkpt>
      <trkpt lat="45.18378" lon="0.7255">
        <ele>87.2</ele>
        <time>2021-10-24T13:36:05Z</time>
      </trkpt>
      <trkpt lat="45.18379" lon="0.72551">
        <ele>87.2</ele>
        <time>2021-10-24T13:36:06Z</time>
      </trkpt>
      <trkpt lat="45.18379" lon="0.72551">
        <ele>87.2</ele>
        <time>2021-10-24T13:36:07Z</time>
      </trkpt>
      <trkpt lat="45.18379" lon="0.72551">
        <ele>87.2</ele>
        <time>2021-10-24T13:36:08Z</time>
      </trkpt>
      <trkpt lat="45.18379" lon="0.72551">
        <ele>87.2</ele>
        <time>2021-10-24T13:36:09Z</time>
      </trkpt>
      <trkpt lat="45.18379" lon="0.72551">
        <ele>87.2</ele>
        <time>2021-10-24T13:36:11Z</time>
      </trkpt>
      <trkpt lat="45.18379" lon="0.72551">
        <ele>87.2</ele>
        <time>2021-10-24T13:36:12Z</time>
      </trkpt>
      <trkpt lat="45.18378" lon="0.72551">
        <ele>87.2</ele>
        <time>2021-10-24T13:36:14Z</time>
      </trkpt>
      <trkpt lat="45.18378" lon="0.7255">
        <ele>87.2</ele>
        <time>2021-10-24T13:36:15Z</time>
      </trkpt>
      <trkpt lat="45.18377" lon="0.72549">
        <ele>87.2</ele>
        <time>2021-10-24T13:36:16Z</time>
      </trkpt>
      <trkpt lat="45.18377" lon="0.72548">
        <ele>87.2</ele>
        <time>2021-10-24T13:36:17Z</time>
      </trkpt>
      <trkpt lat="45.18377" lon="0.72548">
        <ele>87.2</ele>
        <time>2021-10-24T13:36:18Z</time>
      </trkpt>
      <trkpt lat="45.18377" lon="0.72548">
        <ele>87.2</ele>
        <time>2021-10-24T13:36:20Z</time>
      </trkpt>
      <trkpt lat="45.18376" lon="0.72548">
        <ele>87.2</ele>
        <time>2021-10-24T13:36:21Z</time>
      </trkpt>
      <trkpt lat="45.18376" lon="0.72548">
        <ele>87.1</ele>
        <time>2021-10-24T13:36:22Z</time>
      </trkpt>
      <trkpt lat="45.18376" lon="0.72548">
        <ele>87.1</ele>
        <time>2021-10-24T13:36:24Z</time>
      </trkpt>
      <trkpt lat="45.18376" lon="0.72547">
        <ele>87.1</ele>
        <time>2021-10-24T13:36:25Z</time>
      </trkpt>
      <trkpt lat="45.18375" lon="0.72547">
        <ele>87.1</ele>
        <time>2021-10-24T13:36:27Z</time>
      </trkpt>
      <trkpt lat="45.18375" lon="0.72547">
        <ele>87.1</ele>
        <time>2021-10-24T13:36:28Z</time>
      </trkpt>
      <trkpt lat="45.18375" lon="0.72547">
        <ele>87.1</ele>
        <time>2021-10-24T13:36:30Z</time>
      </trkpt>
      <trkpt lat="45.18375" lon="0.72547">
        <ele>87.1</ele>
        <time>2021-10-24T13:36:32Z</time>
      </trkpt>
      <trkpt lat="45.18375" lon="0.72547">
        <ele>87.1</ele>
        <time>2021-10-24T13:36:33Z</time>
      </trkpt>
      <trkpt lat="45.18374" lon="0.72547">
        <ele>87.1</ele>
        <time>2021-10-24T13:36:35Z</time>
      </trkpt>
      <trkpt lat="45.18374" lon="0.72547">
        <ele>87.1</ele>
        <time>2021-10-24T13:36:36Z</time>
      </trkpt>
      <trkpt lat="45.18374" lon="0.72547">
        <ele>87.1</ele>
        <time>2021-10-24T13:36:37Z</time>
      </trkpt>
      <trkpt lat="45.18374" lon="0.72546">
        <ele>87.1</ele>
        <time>2021-10-24T13:36:38Z</time>
      </trkpt>
      <trkpt lat="45.18374" lon="0.72547">
        <ele>87.1</ele>
        <time>2021-10-24T13:36:40Z</time>
      </trkpt>
      <trkpt lat="45.18374" lon="0.72547">
        <ele>87.1</ele>
        <time>2021-10-24T13:36:42Z</time>
      </trkpt>
      <trkpt lat="45.18374" lon="0.72546">
        <ele>87.1</ele>
        <time>2021-10-24T13:36:44Z</time>
      </trkpt>
      <trkpt lat="45.18374" lon="0.72546">
        <ele>87.1</ele>
        <time>2021-10-24T13:36:45Z</time>
      </trkpt>
      <trkpt lat="45.18374" lon="0.72545">
        <ele>86.9</ele>
        <time>2021-10-24T13:36:47Z</time>
      </trkpt>
      <trkpt lat="45.18374" lon="0.72544">
        <ele>86.9</ele>
        <time>2021-10-24T13:36:49Z</time>
      </trkpt>
      <trkpt lat="45.18374" lon="0.72544">
        <ele>86.9</ele>
        <time>2021-10-24T13:36:50Z</time>
      </trkpt>
      <trkpt lat="45.18374" lon="0.72543">
        <ele>86.9</ele>
        <time>2021-10-24T13:36:51Z</time>
      </trkpt>
      <trkpt lat="45.18374" lon="0.72541">
        <ele>86.9</ele>
        <time>2021-10-24T13:36:53Z</time>
      </trkpt>
      <trkpt lat="45.18374" lon="0.72541">
        <ele>86.9</ele>
        <time>2021-10-24T13:36:55Z</time>
      </trkpt>
      <trkpt lat="45.18374" lon="0.72541">
        <ele>86.9</ele>
        <time>2021-10-24T13:36:56Z</time>
      </trkpt>
      <trkpt lat="45.18375" lon="0.7254">
        <ele>86.9</ele>
        <time>2021-10-24T13:36:58Z</time>
      </trkpt>
      <trkpt lat="45.18375" lon="0.7254">
        <ele>86.9</ele>
        <time>2021-10-24T13:36:59Z</time>
      </trkpt>
      <trkpt lat="45.18375" lon="0.7254">
        <ele>86.9</ele>
        <time>2021-10-24T13:37:01Z</time>
      </trkpt>
      <trkpt lat="45.18375" lon="0.72539">
        <ele>86.9</ele>
        <time>2021-10-24T13:37:02Z</time>
      </trkpt>
      <trkpt lat="45.18375" lon="0.72539">
        <ele>86.9</ele>
        <time>2021-10-24T13:37:04Z</time>
      </trkpt>
      <trkpt lat="45.18374" lon="0.72539">
        <ele>86.9</ele>
        <time>2021-10-24T13:37:05Z</time>
      </trkpt>
      <trkpt lat="45.18374" lon="0.72539">
        <ele>86.9</ele>
        <time>2021-10-24T13:37:07Z</time>
      </trkpt>
      <trkpt lat="45.18374" lon="0.72539">
        <ele>86.9</ele>
        <time>2021-10-24T13:37:09Z</time>
      </trkpt>
      <trkpt lat="45.18374" lon="0.72539">
        <ele>86.9</ele>
        <time>2021-10-24T13:37:10Z</time>
      </trkpt>
      <trkpt lat="45.18374" lon="0.72539">
        <ele>86.9</ele>
        <time>2021-10-24T13:37:11Z</time>
      </trkpt>
      <trkpt lat="45.18374" lon="0.7254">
        <ele>86.8</ele>
        <time>2021-10-24T13:37:13Z</time>
      </trkpt>
      <trkpt lat="45.18374" lon="0.7254">
        <ele>86.8</ele>
        <time>2021-10-24T13:37:15Z</time>
      </trkpt>
      <trkpt lat="45.18374" lon="0.7254">
        <ele>86.8</ele>
        <time>2021-10-24T13:37:16Z</time>
      </trkpt>
      <trkpt lat="45.18373" lon="0.72539">
        <ele>86.8</ele>
        <time>2021-10-24T13:37:18Z</time>
      </trkpt>
      <trkpt lat="45.18373" lon="0.72538">
        <ele>86.8</ele>
        <time>2021-10-24T13:37:19Z</time>
      </trkpt>
      <trkpt lat="45.18372" lon="0.72537">
        <ele>86.8</ele>
        <time>2021-10-24T13:37:20Z</time>
      </trkpt>
      <trkpt lat="45.18371" lon="0.72536">
        <ele>86.8</ele>
        <time>2021-10-24T13:37:21Z</time>
      </trkpt>
      <trkpt lat="45.1837" lon="0.72535">
        <ele>86.8</ele>
        <time>2021-10-24T13:37:22Z</time>
      </trkpt>
      <trkpt lat="45.18369" lon="0.72534">
        <ele>86.8</ele>
        <time>2021-10-24T13:37:23Z</time>
      </trkpt>
      <trkpt lat="45.18368" lon="0.72532">
        <ele>86.8</ele>
        <time>2021-10-24T13:37:24Z</time>
      </trkpt>
      <trkpt lat="45.18367" lon="0.72532">
        <ele>86.8</ele>
        <time>2021-10-24T13:37:25Z</time>
      </trkpt>
      <trkpt lat="45.18367" lon="0.72531">
        <ele>86.8</ele>
        <time>2021-10-24T13:37:27Z</time>
      </trkpt>
      <trkpt lat="45.18367" lon="0.72531">
        <ele>86.8</ele>
        <time>2021-10-24T13:37:28Z</time>
      </trkpt>
      <trkpt lat="45.18366" lon="0.7253">
        <ele>86.8</ele>
        <time>2021-10-24T13:37:30Z</time>
      </trkpt>
      <trkpt lat="45.18366" lon="0.7253">
        <ele>86.8</ele>
        <time>2021-10-24T13:37:31Z</time>
      </trkpt>
      <trkpt lat="45.18365" lon="0.72529">
        <ele>86.8</ele>
        <time>2021-10-24T13:37:32Z</time>
      </trkpt>
      <trkpt lat="45.18365" lon="0.72528">
        <ele>86.8</ele>
        <time>2021-10-24T13:37:33Z</time>
      </trkpt>
      <trkpt lat="45.18364" lon="0.72528">
        <ele>86.8</ele>
        <time>2021-10-24T13:37:34Z</time>
      </trkpt>
      <trkpt lat="45.18364" lon="0.72528">
        <ele>86.8</ele>
        <time>2021-10-24T13:37:36Z</time>
      </trkpt>
      <trkpt lat="45.18363" lon="0.72527">
        <ele>86.8</ele>
        <time>2021-10-24T13:37:37Z</time>
      </trkpt>
      <trkpt lat="45.18363" lon="0.72526">
        <ele>86.8</ele>
        <time>2021-10-24T13:37:38Z</time>
      </trkpt>
      <trkpt lat="45.18363" lon="0.72526">
        <ele>86.8</ele>
        <time>2021-10-24T13:37:39Z</time>
      </trkpt>
      <trkpt lat="45.18362" lon="0.72525">
        <ele>86.8</ele>
        <time>2021-10-24T13:37:40Z</time>
      </trkpt>
      <trkpt lat="45.18362" lon="0.72525">
        <ele>86.8</ele>
        <time>2021-10-24T13:37:41Z</time>
      </trkpt>
      <trkpt lat="45.1836" lon="0.72524">
        <ele>86.8</ele>
        <time>2021-10-24T13:37:42Z</time>
      </trkpt>
      <trkpt lat="45.18359" lon="0.72522">
        <ele>86.8</ele>
        <time>2021-10-24T13:37:43Z</time>
      </trkpt>
      <trkpt lat="45.18358" lon="0.72521">
        <ele>86.7</ele>
        <time>2021-10-24T13:37:45Z</time>
      </trkpt>
      <trkpt lat="45.18357" lon="0.72521">
        <ele>86.7</ele>
        <time>2021-10-24T13:37:46Z</time>
      </trkpt>
      <trkpt lat="45.18356" lon="0.7252">
        <ele>86.7</ele>
        <time>2021-10-24T13:37:48Z</time>
      </trkpt>
      <trkpt lat="45.18354" lon="0.72519">
        <ele>86.7</ele>
        <time>2021-10-24T13:37:49Z</time>
      </trkpt>
      <trkpt lat="45.18353" lon="0.72519">
        <ele>86.7</ele>
        <time>2021-10-24T13:37:51Z</time>
      </trkpt>
      <trkpt lat="45.18352" lon="0.72518">
        <ele>86.7</ele>
        <time>2021-10-24T13:37:52Z</time>
      </trkpt>
      <trkpt lat="45.18351" lon="0.72517">
        <ele>86.7</ele>
        <time>2021-10-24T13:37:53Z</time>
      </trkpt>
      <trkpt lat="45.18351" lon="0.72516">
        <ele>86.7</ele>
        <time>2021-10-24T13:37:54Z</time>
      </trkpt>
      <trkpt lat="45.18351" lon="0.72515">
        <ele>86.7</ele>
        <time>2021-10-24T13:37:56Z</time>
      </trkpt>
      <trkpt lat="45.1835" lon="0.72514">
        <ele>86.7</ele>
        <time>2021-10-24T13:37:57Z</time>
      </trkpt>
      <trkpt lat="45.1835" lon="0.72514">
        <ele>86.7</ele>
        <time>2021-10-24T13:37:58Z</time>
      </trkpt>
      <trkpt lat="45.1835" lon="0.72514">
        <ele>86.7</ele>
        <time>2021-10-24T13:38:00Z</time>
      </trkpt>
      <trkpt lat="45.1835" lon="0.72514">
        <ele>86.7</ele>
        <time>2021-10-24T13:38:01Z</time>
      </trkpt>
      <trkpt lat="45.1835" lon="0.72514">
        <ele>86.7</ele>
        <time>2021-10-24T13:38:03Z</time>
      </trkpt>
      <trkpt lat="45.1835" lon="0.72514">
        <ele>86.7</ele>
        <time>2021-10-24T13:38:04Z</time>
      </trkpt>
      <trkpt lat="45.1835" lon="0.72513">
        <ele>86.7</ele>
        <time>2021-10-24T13:38:05Z</time>
      </trkpt>
      <trkpt lat="45.18349" lon="0.72513">
        <ele>86.7</ele>
        <time>2021-10-24T13:38:06Z</time>
      </trkpt>
      <trkpt lat="45.18348" lon="0.72512">
        <ele>86.7</ele>
        <time>2021-10-24T13:38:07Z</time>
      </trkpt>
      <trkpt lat="45.18347" lon="0.7251">
        <ele>86.7</ele>
        <time>2021-10-24T13:38:08Z</time>
      </trkpt>
      <trkpt lat="45.18345" lon="0.72509">
        <ele>86.7</ele>
        <time>2021-10-24T13:38:10Z</time>
      </trkpt>
      <trkpt lat="45.18344" lon="0.72507">
        <ele>86.7</ele>
        <time>2021-10-24T13:38:11Z</time>
      </trkpt>
      <trkpt lat="45.18343" lon="0.72506">
        <ele>86.7</ele>
        <time>2021-10-24T13:38:12Z</time>
      </trkpt>
      <trkpt lat="45.18341" lon="0.72504">
        <ele>86.7</ele>
        <time>2021-10-24T13:38:13Z</time>
      </trkpt>
      <trkpt lat="45.1834" lon="0.72504">
        <ele>86.7</ele>
        <time>2021-10-24T13:38:15Z</time>
      </trkpt>
      <trkpt lat="45.18339" lon="0.72503">
        <ele>86.7</ele>
        <time>2021-10-24T13:38:16Z</time>
      </trkpt>
      <trkpt lat="45.18338" lon="0.72503">
        <ele>86.7</ele>
        <time>2021-10-24T13:38:17Z</time>
      </trkpt>
      <trkpt lat="45.18337" lon="0.72503">
        <ele>86.7</ele>
        <time>2021-10-24T13:38:18Z</time>
      </trkpt>
      <trkpt lat="45.18335" lon="0.72503">
        <ele>86.7</ele>
        <time>2021-10-24T13:38:19Z</time>
      </trkpt>
      <trkpt lat="45.18334" lon="0.72503">
        <ele>86.7</ele>
        <time>2021-10-24T13:38:21Z</time>
      </trkpt>
      <trkpt lat="45.18333" lon="0.72503">
        <ele>86.7</ele>
        <time>2021-10-24T13:38:22Z</time>
      </trkpt>
      <trkpt lat="45.18332" lon="0.72505">
        <ele>86.7</ele>
        <time>2021-10-24T13:38:23Z</time>
      </trkpt>
      <trkpt lat="45.18331" lon="0.72505">
        <ele>86.7</ele>
        <time>2021-10-24T13:38:24Z</time>
      </trkpt>
      <trkpt lat="45.18329" lon="0.72506">
        <ele>86.7</ele>
        <time>2021-10-24T13:38:25Z</time>
      </trkpt>
      <trkpt lat="45.18328" lon="0.72506">
        <ele>86.7</ele>
        <time>2021-10-24T13:38:27Z</time>
      </trkpt>
      <trkpt lat="45.18327" lon="0.72506">
        <ele>86.7</ele>
        <time>2021-10-24T13:38:28Z</time>
      </trkpt>
      <trkpt lat="45.18325" lon="0.72506">
        <ele>86.7</ele>
        <time>2021-10-24T13:38:29Z</time>
      </trkpt>
      <trkpt lat="45.18324" lon="0.72506">
        <ele>86.7</ele>
        <time>2021-10-24T13:38:30Z</time>
      </trkpt>
      <trkpt lat="45.18323" lon="0.72506">
        <ele>86.7</ele>
        <time>2021-10-24T13:38:31Z</time>
      </trkpt>
      <trkpt lat="45.18323" lon="0.72506">
        <ele>86.7</ele>
        <time>2021-10-24T13:38:32Z</time>
      </trkpt>
      <trkpt lat="45.18322" lon="0.72506">
        <ele>86.8</ele>
        <time>2021-10-24T13:38:34Z</time>
      </trkpt>
      <trkpt lat="45.18321" lon="0.72506">
        <ele>86.8</ele>
        <time>2021-10-24T13:38:35Z</time>
      </trkpt>
      <trkpt lat="45.18321" lon="0.72506">
        <ele>86.8</ele>
        <time>2021-10-24T13:38:36Z</time>
      </trkpt>
      <trkpt lat="45.1832" lon="0.72505">
        <ele>86.8</ele>
        <time>2021-10-24T13:38:38Z</time>
      </trkpt>
      <trkpt lat="45.18319" lon="0.72505">
        <ele>86.8</ele>
        <time>2021-10-24T13:38:39Z</time>
      </trkpt>
      <trkpt lat="45.18318" lon="0.72504">
        <ele>86.8</ele>
        <time>2021-10-24T13:38:40Z</time>
      </trkpt>
      <trkpt lat="45.18318" lon="0.72504">
        <ele>86.8</ele>
        <time>2021-10-24T13:38:41Z</time>
      </trkpt>
      <trkpt lat="45.18317" lon="0.72504">
        <ele>86.8</ele>
        <time>2021-10-24T13:38:43Z</time>
      </trkpt>
      <trkpt lat="45.18317" lon="0.72504">
        <ele>86.8</ele>
        <time>2021-10-24T13:38:44Z</time>
      </trkpt>
      <trkpt lat="45.18316" lon="0.72503">
        <ele>86.8</ele>
        <time>2021-10-24T13:38:45Z</time>
      </trkpt>
      <trkpt lat="45.18315" lon="0.72502">
        <ele>86.8</ele>
        <time>2021-10-24T13:38:46Z</time>
      </trkpt>
      <trkpt lat="45.18314" lon="0.72502">
        <ele>86.8</ele>
        <time>2021-10-24T13:38:47Z</time>
      </trkpt>
      <trkpt lat="45.18313" lon="0.72501">
        <ele>86.8</ele>
        <time>2021-10-24T13:38:49Z</time>
      </trkpt>
      <trkpt lat="45.18312" lon="0.72501">
        <ele>86.8</ele>
        <time>2021-10-24T13:38:50Z</time>
      </trkpt>
      <trkpt lat="45.18311" lon="0.725">
        <ele>86.8</ele>
        <time>2021-10-24T13:38:51Z</time>
      </trkpt>
      <trkpt lat="45.1831" lon="0.72499">
        <ele>86.8</ele>
        <time>2021-10-24T13:38:53Z</time>
      </trkpt>
      <trkpt lat="45.18309" lon="0.72499">
        <ele>86.8</ele>
        <time>2021-10-24T13:38:54Z</time>
      </trkpt>
      <trkpt lat="45.18307" lon="0.72499">
        <ele>86.8</ele>
        <time>2021-10-24T13:38:56Z</time>
      </trkpt>
      <trkpt lat="45.18306" lon="0.72498">
        <ele>86.8</ele>
        <time>2021-10-24T13:38:57Z</time>
      </trkpt>
      <trkpt lat="45.18305" lon="0.72497">
        <ele>86.8</ele>
        <time>2021-10-24T13:38:58Z</time>
      </trkpt>
      <trkpt lat="45.18305" lon="0.72497">
        <ele>86.8</ele>
        <time>2021-10-24T13:38:59Z</time>
      </trkpt>
      <trkpt lat="45.18304" lon="0.72497">
        <ele>86.8</ele>
        <time>2021-10-24T13:39:00Z</time>
      </trkpt>
      <trkpt lat="45.18303" lon="0.72497">
        <ele>86.7</ele>
        <time>2021-10-24T13:39:01Z</time>
      </trkpt>
      <trkpt lat="45.18303" lon="0.72498">
        <ele>86.7</ele>
        <time>2021-10-24T13:39:03Z</time>
      </trkpt>
      <trkpt lat="45.18302" lon="0.72498">
        <ele>86.7</ele>
        <time>2021-10-24T13:39:04Z</time>
      </trkpt>
      <trkpt lat="45.18302" lon="0.72498">
        <ele>86.7</ele>
        <time>2021-10-24T13:39:05Z</time>
      </trkpt>
      <trkpt lat="45.18301" lon="0.72498">
        <ele>86.7</ele>
        <time>2021-10-24T13:39:06Z</time>
      </trkpt>
      <trkpt lat="45.18298" lon="0.72499">
        <ele>86.7</ele>
        <time>2021-10-24T13:39:08Z</time>
      </trkpt>
      <trkpt lat="45.18297" lon="0.72498">
        <ele>86.7</ele>
        <time>2021-10-24T13:39:10Z</time>
      </trkpt>
      <trkpt lat="45.18296" lon="0.72498">
        <ele>86.7</ele>
        <time>2021-10-24T13:39:11Z</time>
      </trkpt>
      <trkpt lat="45.18295" lon="0.72498">
        <ele>86.7</ele>
        <time>2021-10-24T13:39:12Z</time>
      </trkpt>
      <trkpt lat="45.18294" lon="0.72498">
        <ele>86.7</ele>
        <time>2021-10-24T13:39:13Z</time>
      </trkpt>
      <trkpt lat="45.18292" lon="0.72498">
        <ele>86.7</ele>
        <time>2021-10-24T13:39:15Z</time>
      </trkpt>
      <trkpt lat="45.18291" lon="0.72497">
        <ele>86.7</ele>
        <time>2021-10-24T13:39:16Z</time>
      </trkpt>
      <trkpt lat="45.1829" lon="0.72497">
        <ele>86.7</ele>
        <time>2021-10-24T13:39:17Z</time>
      </trkpt>
      <trkpt lat="45.18288" lon="0.72496">
        <ele>86.7</ele>
        <time>2021-10-24T13:39:18Z</time>
      </trkpt>
      <trkpt lat="45.18288" lon="0.72495">
        <ele>86.7</ele>
        <time>2021-10-24T13:39:20Z</time>
      </trkpt>
      <trkpt lat="45.18287" lon="0.72494">
        <ele>86.7</ele>
        <time>2021-10-24T13:39:21Z</time>
      </trkpt>
      <trkpt lat="45.18287" lon="0.72493">
        <ele>86.7</ele>
        <time>2021-10-24T13:39:22Z</time>
      </trkpt>
      <trkpt lat="45.18287" lon="0.72493">
        <ele>86.7</ele>
        <time>2021-10-24T13:39:24Z</time>
      </trkpt>
      <trkpt lat="45.18287" lon="0.72493">
        <ele>86.7</ele>
        <time>2021-10-24T13:39:25Z</time>
      </trkpt>
      <trkpt lat="45.18287" lon="0.72493">
        <ele>86.7</ele>
        <time>2021-10-24T13:39:27Z</time>
      </trkpt>
      <trkpt lat="45.18286" lon="0.72493">
        <ele>86.7</ele>
        <time>2021-10-24T13:39:28Z</time>
      </trkpt>
      <trkpt lat="45.18286" lon="0.72493">
        <ele>86.7</ele>
        <time>2021-10-24T13:39:29Z</time>
      </trkpt>
      <trkpt lat="45.18286" lon="0.72493">
        <ele>86.7</ele>
        <time>2021-10-24T13:39:31Z</time>
      </trkpt>
      <trkpt lat="45.18286" lon="0.72493">
        <ele>86.7</ele>
        <time>2021-10-24T13:39:32Z</time>
      </trkpt>
      <trkpt lat="45.18286" lon="0.72493">
        <ele>86.6</ele>
        <time>2021-10-24T13:39:34Z</time>
      </trkpt>
      <trkpt lat="45.18286" lon="0.72492">
        <ele>86.6</ele>
        <time>2021-10-24T13:39:36Z</time>
      </trkpt>
      <trkpt lat="45.18286" lon="0.72493">
        <ele>86.6</ele>
        <time>2021-10-24T13:39:38Z</time>
      </trkpt>
      <trkpt lat="45.18286" lon="0.72493">
        <ele>86.6</ele>
        <time>2021-10-24T13:39:39Z</time>
      </trkpt>
      <trkpt lat="45.18286" lon="0.72493">
        <ele>86.6</ele>
        <time>2021-10-24T13:39:40Z</time>
      </trkpt>
      <trkpt lat="45.18286" lon="0.72493">
        <ele>86.6</ele>
        <time>2021-10-24T13:39:41Z</time>
      </trkpt>
      <trkpt lat="45.18285" lon="0.72493">
        <ele>86.6</ele>
        <time>2021-10-24T13:39:43Z</time>
      </trkpt>
      <trkpt lat="45.18285" lon="0.72492">
        <ele>86.6</ele>
        <time>2021-10-24T13:39:45Z</time>
      </trkpt>
      <trkpt lat="45.18285" lon="0.72492">
        <ele>86.6</ele>
        <time>2021-10-24T13:39:47Z</time>
      </trkpt>
      <trkpt lat="45.18284" lon="0.72492">
        <ele>86.6</ele>
        <time>2021-10-24T13:39:48Z</time>
      </trkpt>
      <trkpt lat="45.18284" lon="0.72492">
        <ele>86.6</ele>
        <time>2021-10-24T13:39:49Z</time>
      </trkpt>
      <trkpt lat="45.18283" lon="0.72492">
        <ele>86.6</ele>
        <time>2021-10-24T13:39:51Z</time>
      </trkpt>
      <trkpt lat="45.18282" lon="0.72492">
        <ele>86.6</ele>
        <time>2021-10-24T13:39:52Z</time>
      </trkpt>
      <trkpt lat="45.18282" lon="0.72492">
        <ele>86.6</ele>
        <time>2021-10-24T13:39:53Z</time>
      </trkpt>
      <trkpt lat="45.18281" lon="0.72491">
        <ele>86.6</ele>
        <time>2021-10-24T13:39:54Z</time>
      </trkpt>
      <trkpt lat="45.18279" lon="0.72491">
        <ele>86.6</ele>
        <time>2021-10-24T13:39:55Z</time>
      </trkpt>
      <trkpt lat="45.18279" lon="0.7249">
        <ele>86.6</ele>
        <time>2021-10-24T13:39:57Z</time>
      </trkpt>
      <trkpt lat="45.18278" lon="0.7249">
        <ele>86.6</ele>
        <time>2021-10-24T13:39:58Z</time>
      </trkpt>
      <trkpt lat="45.18276" lon="0.7249">
        <ele>86.6</ele>
        <time>2021-10-24T13:39:59Z</time>
      </trkpt>
      <trkpt lat="45.18275" lon="0.72489">
        <ele>86.6</ele>
        <time>2021-10-24T13:40:00Z</time>
      </trkpt>
      <trkpt lat="45.18274" lon="0.72489">
        <ele>86.6</ele>
        <time>2021-10-24T13:40:01Z</time>
      </trkpt>
      <trkpt lat="45.18274" lon="0.72488">
        <ele>86.6</ele>
        <time>2021-10-24T13:40:03Z</time>
      </trkpt>
      <trkpt lat="45.18273" lon="0.72488">
        <ele>86.6</ele>
        <time>2021-10-24T13:40:04Z</time>
      </trkpt>
      <trkpt lat="45.18272" lon="0.72488">
        <ele>86.6</ele>
        <time>2021-10-24T13:40:06Z</time>
      </trkpt>
      <trkpt lat="45.18271" lon="0.72488">
        <ele>86.6</ele>
        <time>2021-10-24T13:40:07Z</time>
      </trkpt>
      <trkpt lat="45.1827" lon="0.72488">
        <ele>86.6</ele>
        <time>2021-10-24T13:40:08Z</time>
      </trkpt>
      <trkpt lat="45.18269" lon="0.72488">
        <ele>86.5</ele>
        <time>2021-10-24T13:40:09Z</time>
      </trkpt>
      <trkpt lat="45.18267" lon="0.72488">
        <ele>86.5</ele>
        <time>2021-10-24T13:40:11Z</time>
      </trkpt>
      <trkpt lat="45.18266" lon="0.72487">
        <ele>86.5</ele>
        <time>2021-10-24T13:40:12Z</time>
      </trkpt>
      <trkpt lat="45.18265" lon="0.72487">
        <ele>86.5</ele>
        <time>2021-10-24T13:40:14Z</time>
      </trkpt>
      <trkpt lat="45.18264" lon="0.72487">
        <ele>86.5</ele>
        <time>2021-10-24T13:40:16Z</time>
      </trkpt>
      <trkpt lat="45.18264" lon="0.72487">
        <ele>86.5</ele>
        <time>2021-10-24T13:40:18Z</time>
      </trkpt>
      <trkpt lat="45.18264" lon="0.72486">
        <ele>86.5</ele>
        <time>2021-10-24T13:40:19Z</time>
      </trkpt>
      <trkpt lat="45.18263" lon="0.72486">
        <ele>86.5</ele>
        <time>2021-10-24T13:40:20Z</time>
      </trkpt>
      <trkpt lat="45.18262" lon="0.72485">
        <ele>86.5</ele>
        <time>2021-10-24T13:40:21Z</time>
      </trkpt>
      <trkpt lat="45.18261" lon="0.72484">
        <ele>86.5</ele>
        <time>2021-10-24T13:40:23Z</time>
      </trkpt>
      <trkpt lat="45.1826" lon="0.72484">
        <ele>86.5</ele>
        <time>2021-10-24T13:40:24Z</time>
      </trkpt>
      <trkpt lat="45.18259" lon="0.72483">
        <ele>86.5</ele>
        <time>2021-10-24T13:40:25Z</time>
      </trkpt>
      <trkpt lat="45.18258" lon="0.72482">
        <ele>86.5</ele>
        <time>2021-10-24T13:40:27Z</time>
      </trkpt>
      <trkpt lat="45.18257" lon="0.72482">
        <ele>86.5</ele>
        <time>2021-10-24T13:40:28Z</time>
      </trkpt>
      <trkpt lat="45.18256" lon="0.72482">
        <ele>86.5</ele>
        <time>2021-10-24T13:40:29Z</time>
      </trkpt>
      <trkpt lat="45.18255" lon="0.72482">
        <ele>86.5</ele>
        <time>2021-10-24T13:40:30Z</time>
      </trkpt>
      <trkpt lat="45.18254" lon="0.72481">
        <ele>86.5</ele>
        <time>2021-10-24T13:40:31Z</time>
      </trkpt>
      <trkpt lat="45.18253" lon="0.72481">
        <ele>86.5</ele>
        <time>2021-10-24T13:40:33Z</time>
      </trkpt>
      <trkpt lat="45.18252" lon="0.7248">
        <ele>86.5</ele>
        <time>2021-10-24T13:40:34Z</time>
      </trkpt>
      <trkpt lat="45.18251" lon="0.7248">
        <ele>86.5</ele>
        <time>2021-10-24T13:40:35Z</time>
      </trkpt>
      <trkpt lat="45.1825" lon="0.72479">
        <ele>86.5</ele>
        <time>2021-10-24T13:40:36Z</time>
      </trkpt>
      <trkpt lat="45.18249" lon="0.72479">
        <ele>86.5</ele>
        <time>2021-10-24T13:40:37Z</time>
      </trkpt>
      <trkpt lat="45.18248" lon="0.72479">
        <ele>86.5</ele>
        <time>2021-10-24T13:40:39Z</time>
      </trkpt>
      <trkpt lat="45.18248" lon="0.72479">
        <ele>86.5</ele>
        <time>2021-10-24T13:40:40Z</time>
      </trkpt>
      <trkpt lat="45.18247" lon="0.72478">
        <ele>86.5</ele>
        <time>2021-10-24T13:40:41Z</time>
      </trkpt>
      <trkpt lat="45.18246" lon="0.72477">
        <ele>86.6</ele>
        <time>2021-10-24T13:40:42Z</time>
      </trkpt>
      <trkpt lat="45.18245" lon="0.72476">
        <ele>86.6</ele>
        <time>2021-10-24T13:40:44Z</time>
      </trkpt>
      <trkpt lat="45.18245" lon="0.72476">
        <ele>86.6</ele>
        <time>2021-10-24T13:40:45Z</time>
      </trkpt>
      <trkpt lat="45.18245" lon="0.72475">
        <ele>86.6</ele>
        <time>2021-10-24T13:40:47Z</time>
      </trkpt>
      <trkpt lat="45.18245" lon="0.72475">
        <ele>86.6</ele>
        <time>2021-10-24T13:40:48Z</time>
      </trkpt>
      <trkpt lat="45.18245" lon="0.72475">
        <ele>86.6</ele>
        <time>2021-10-24T13:40:49Z</time>
      </trkpt>
      <trkpt lat="45.18245" lon="0.72475">
        <ele>86.6</ele>
        <time>2021-10-24T13:40:50Z</time>
      </trkpt>
      <trkpt lat="45.18245" lon="0.72475">
        <ele>86.6</ele>
        <time>2021-10-24T13:40:52Z</time>
      </trkpt>
      <trkpt lat="45.18245" lon="0.72475">
        <ele>86.6</ele>
        <time>2021-10-24T13:40:53Z</time>
      </trkpt>
      <trkpt lat="45.18244" lon="0.72475">
        <ele>86.6</ele>
        <time>2021-10-24T13:40:54Z</time>
      </trkpt>
      <trkpt lat="45.18242" lon="0.72475">
        <ele>86.6</ele>
        <time>2021-10-24T13:40:56Z</time>
      </trkpt>
      <trkpt lat="45.1824" lon="0.72475">
        <ele>86.6</ele>
        <time>2021-10-24T13:40:57Z</time>
      </trkpt>
      <trkpt lat="45.18239" lon="0.72475">
        <ele>86.6</ele>
        <time>2021-10-24T13:40:58Z</time>
      </trkpt>
      <trkpt lat="45.18236" lon="0.72475">
        <ele>86.6</ele>
        <time>2021-10-24T13:41:00Z</time>
      </trkpt>
      <trkpt lat="45.18236" lon="0.72475">
        <ele>86.6</ele>
        <time>2021-10-24T13:41:01Z</time>
      </trkpt>
      <trkpt lat="45.18235" lon="0.72474">
        <ele>86.6</ele>
        <time>2021-10-24T13:41:02Z</time>
      </trkpt>
      <trkpt lat="45.18234" lon="0.72474">
        <ele>86.6</ele>
        <time>2021-10-24T13:41:03Z</time>
      </trkpt>
      <trkpt lat="45.18233" lon="0.72474">
        <ele>86.6</ele>
        <time>2021-10-24T13:41:04Z</time>
      </trkpt>
      <trkpt lat="45.18231" lon="0.72473">
        <ele>86.6</ele>
        <time>2021-10-24T13:41:05Z</time>
      </trkpt>
      <trkpt lat="45.18229" lon="0.72472">
        <ele>86.6</ele>
        <time>2021-10-24T13:41:06Z</time>
      </trkpt>
      <trkpt lat="45.18228" lon="0.72472">
        <ele>86.6</ele>
        <time>2021-10-24T13:41:08Z</time>
      </trkpt>
      <trkpt lat="45.18227" lon="0.72471">
        <ele>86.6</ele>
        <time>2021-10-24T13:41:09Z</time>
      </trkpt>
      <trkpt lat="45.18226" lon="0.7247">
        <ele>86.6</ele>
        <time>2021-10-24T13:41:10Z</time>
      </trkpt>
      <trkpt lat="45.18225" lon="0.72469">
        <ele>86.6</ele>
        <time>2021-10-24T13:41:11Z</time>
      </trkpt>
      <trkpt lat="45.18223" lon="0.72468">
        <ele>86.6</ele>
        <time>2021-10-24T13:41:12Z</time>
      </trkpt>
      <trkpt lat="45.18223" lon="0.72467">
        <ele>86.6</ele>
        <time>2021-10-24T13:41:14Z</time>
      </trkpt>
      <trkpt lat="45.18222" lon="0.72466">
        <ele>86.6</ele>
        <time>2021-10-24T13:41:15Z</time>
      </trkpt>
      <trkpt lat="45.18221" lon="0.72466">
        <ele>86.6</ele>
        <time>2021-10-24T13:41:16Z</time>
      </trkpt>
      <trkpt lat="45.1822" lon="0.72466">
        <ele>86.6</ele>
        <time>2021-10-24T13:41:17Z</time>
      </trkpt>
      <trkpt lat="45.18219" lon="0.72466">
        <ele>86.6</ele>
        <time>2021-10-24T13:41:18Z</time>
      </trkpt>
      <trkpt lat="45.18218" lon="0.72466">
        <ele>86.6</ele>
        <time>2021-10-24T13:41:19Z</time>
      </trkpt>
      <trkpt lat="45.18218" lon="0.72466">
        <ele>86.6</ele>
        <time>2021-10-24T13:41:21Z</time>
      </trkpt>
      <trkpt lat="45.18217" lon="0.72466">
        <ele>86.6</ele>
        <time>2021-10-24T13:41:22Z</time>
      </trkpt>
      <trkpt lat="45.18217" lon="0.72466">
        <ele>86.6</ele>
        <time>2021-10-24T13:41:23Z</time>
      </trkpt>
      <trkpt lat="45.18216" lon="0.72466">
        <ele>86.6</ele>
        <time>2021-10-24T13:41:24Z</time>
      </trkpt>
      <trkpt lat="45.18214" lon="0.72466">
        <ele>86.6</ele>
        <time>2021-10-24T13:41:26Z</time>
      </trkpt>
      <trkpt lat="45.18213" lon="0.72466">
        <ele>86.6</ele>
        <time>2021-10-24T13:41:27Z</time>
      </trkpt>
      <trkpt lat="45.18212" lon="0.72466">
        <ele>86.6</ele>
        <time>2021-10-24T13:41:28Z</time>
      </trkpt>
      <trkpt lat="45.18211" lon="0.72466">
        <ele>86.6</ele>
        <time>2021-10-24T13:41:29Z</time>
      </trkpt>
      <trkpt lat="45.18209" lon="0.72466">
        <ele>86.6</ele>
        <time>2021-10-24T13:41:31Z</time>
      </trkpt>
      <trkpt lat="45.18208" lon="0.72466">
        <ele>86.7</ele>
        <time>2021-10-24T13:41:32Z</time>
      </trkpt>
      <trkpt lat="45.18206" lon="0.72466">
        <ele>86.7</ele>
        <time>2021-10-24T13:41:33Z</time>
      </trkpt>
      <trkpt lat="45.18205" lon="0.72465">
        <ele>86.7</ele>
        <time>2021-10-24T13:41:34Z</time>
      </trkpt>
      <trkpt lat="45.18204" lon="0.72465">
        <ele>86.7</ele>
        <time>2021-10-24T13:41:35Z</time>
      </trkpt>
      <trkpt lat="45.18203" lon="0.72465">
        <ele>86.7</ele>
        <time>2021-10-24T13:41:37Z</time>
      </trkpt>
      <trkpt lat="45.18202" lon="0.72465">
        <ele>86.7</ele>
        <time>2021-10-24T13:41:38Z</time>
      </trkpt>
      <trkpt lat="45.18201" lon="0.72465">
        <ele>86.7</ele>
        <time>2021-10-24T13:41:39Z</time>
      </trkpt>
      <trkpt lat="45.182" lon="0.72464">
        <ele>86.7</ele>
        <time>2021-10-24T13:41:40Z</time>
      </trkpt>
      <trkpt lat="45.182" lon="0.72464">
        <ele>86.7</ele>
        <time>2021-10-24T13:41:41Z</time>
      </trkpt>
      <trkpt lat="45.18199" lon="0.72463">
        <ele>86.7</ele>
        <time>2021-10-24T13:41:42Z</time>
      </trkpt>
      <trkpt lat="45.18197" lon="0.72463">
        <ele>86.7</ele>
        <time>2021-10-24T13:41:44Z</time>
      </trkpt>
      <trkpt lat="45.18196" lon="0.72462">
        <ele>86.7</ele>
        <time>2021-10-24T13:41:45Z</time>
      </trkpt>
      <trkpt lat="45.18195" lon="0.72462">
        <ele>86.7</ele>
        <time>2021-10-24T13:41:46Z</time>
      </trkpt>
      <trkpt lat="45.18194" lon="0.72462">
        <ele>86.7</ele>
        <time>2021-10-24T13:41:47Z</time>
      </trkpt>
      <trkpt lat="45.18193" lon="0.72462">
        <ele>86.7</ele>
        <time>2021-10-24T13:41:48Z</time>
      </trkpt>
      <trkpt lat="45.18193" lon="0.72461">
        <ele>86.7</ele>
        <time>2021-10-24T13:41:49Z</time>
      </trkpt>
      <trkpt lat="45.18191" lon="0.72461">
        <ele>86.7</ele>
        <time>2021-10-24T13:41:51Z</time>
      </trkpt>
      <trkpt lat="45.1819" lon="0.7246">
        <ele>86.7</ele>
        <time>2021-10-24T13:41:52Z</time>
      </trkpt>
      <trkpt lat="45.18189" lon="0.72459">
        <ele>86.7</ele>
        <time>2021-10-24T13:41:53Z</time>
      </trkpt>
      <trkpt lat="45.18188" lon="0.72458">
        <ele>86.7</ele>
        <time>2021-10-24T13:41:54Z</time>
      </trkpt>
      <trkpt lat="45.18187" lon="0.72458">
        <ele>86.7</ele>
        <time>2021-10-24T13:41:55Z</time>
      </trkpt>
      <trkpt lat="45.18186" lon="0.72457">
        <ele>86.7</ele>
        <time>2021-10-24T13:41:56Z</time>
      </trkpt>
      <trkpt lat="45.18184" lon="0.72457">
        <ele>86.6</ele>
        <time>2021-10-24T13:41:58Z</time>
      </trkpt>
      <trkpt lat="45.18184" lon="0.72457">
        <ele>86.6</ele>
        <time>2021-10-24T13:41:59Z</time>
      </trkpt>
      <trkpt lat="45.18182" lon="0.72457">
        <ele>86.6</ele>
        <time>2021-10-24T13:42:01Z</time>
      </trkpt>
      <trkpt lat="45.18181" lon="0.72456">
        <ele>86.6</ele>
        <time>2021-10-24T13:42:02Z</time>
      </trkpt>
      <trkpt lat="45.1818" lon="0.72456">
        <ele>86.6</ele>
        <time>2021-10-24T13:42:03Z</time>
      </trkpt>
      <trkpt lat="45.18179" lon="0.72455">
        <ele>86.6</ele>
        <time>2021-10-24T13:42:04Z</time>
      </trkpt>
      <trkpt lat="45.18178" lon="0.72454">
        <ele>86.6</ele>
        <time>2021-10-24T13:42:06Z</time>
      </trkpt>
      <trkpt lat="45.18177" lon="0.72453">
        <ele>86.6</ele>
        <time>2021-10-24T13:42:07Z</time>
      </trkpt>
      <trkpt lat="45.18176" lon="0.72453">
        <ele>86.6</ele>
        <time>2021-10-24T13:42:08Z</time>
      </trkpt>
      <trkpt lat="45.18175" lon="0.72452">
        <ele>86.6</ele>
        <time>2021-10-24T13:42:09Z</time>
      </trkpt>
      <trkpt lat="45.18174" lon="0.72451">
        <ele>86.6</ele>
        <time>2021-10-24T13:42:10Z</time>
      </trkpt>
      <trkpt lat="45.18173" lon="0.7245">
        <ele>86.5</ele>
        <time>2021-10-24T13:42:11Z</time>
      </trkpt>
      <trkpt lat="45.18172" lon="0.72449">
        <ele>86.5</ele>
        <time>2021-10-24T13:42:13Z</time>
      </trkpt>
      <trkpt lat="45.18171" lon="0.72449">
        <ele>86.5</ele>
        <time>2021-10-24T13:42:14Z</time>
      </trkpt>
      <trkpt lat="45.1817" lon="0.72448">
        <ele>86.5</ele>
        <time>2021-10-24T13:42:15Z</time>
      </trkpt>
      <trkpt lat="45.1817" lon="0.72447">
        <ele>86.5</ele>
        <time>2021-10-24T13:42:16Z</time>
      </trkpt>
      <trkpt lat="45.18169" lon="0.72446">
        <ele>86.5</ele>
        <time>2021-10-24T13:42:18Z</time>
      </trkpt>
      <trkpt lat="45.18168" lon="0.72445">
        <ele>86.5</ele>
        <time>2021-10-24T13:42:19Z</time>
      </trkpt>
      <trkpt lat="45.18168" lon="0.72444">
        <ele>86.5</ele>
        <time>2021-10-24T13:42:21Z</time>
      </trkpt>
      <trkpt lat="45.18167" lon="0.72443">
        <ele>86.5</ele>
        <time>2021-10-24T13:42:22Z</time>
      </trkpt>
      <trkpt lat="45.18168" lon="0.72443">
        <ele>86.5</ele>
        <time>2021-10-24T13:42:23Z</time>
      </trkpt>
      <trkpt lat="45.18168" lon="0.72442">
        <ele>86.5</ele>
        <time>2021-10-24T13:42:24Z</time>
      </trkpt>
      <trkpt lat="45.18168" lon="0.72442">
        <ele>86.5</ele>
        <time>2021-10-24T13:42:26Z</time>
      </trkpt>
      <trkpt lat="45.18167" lon="0.72442">
        <ele>86.5</ele>
        <time>2021-10-24T13:42:27Z</time>
      </trkpt>
      <trkpt lat="45.18167" lon="0.72443">
        <ele>86.5</ele>
        <time>2021-10-24T13:42:29Z</time>
      </trkpt>
      <trkpt lat="45.18167" lon="0.72443">
        <ele>86.5</ele>
        <time>2021-10-24T13:42:30Z</time>
      </trkpt>
      <trkpt lat="45.18166" lon="0.72443">
        <ele>86.5</ele>
        <time>2021-10-24T13:42:31Z</time>
      </trkpt>
      <trkpt lat="45.18165" lon="0.72443">
        <ele>86.5</ele>
        <time>2021-10-24T13:42:32Z</time>
      </trkpt>
      <trkpt lat="45.18164" lon="0.72443">
        <ele>86.4</ele>
        <time>2021-10-24T13:42:33Z</time>
      </trkpt>
      <trkpt lat="45.18163" lon="0.72443">
        <ele>86.4</ele>
        <time>2021-10-24T13:42:34Z</time>
      </trkpt>
      <trkpt lat="45.18161" lon="0.72444">
        <ele>86.4</ele>
        <time>2021-10-24T13:42:36Z</time>
      </trkpt>
      <trkpt lat="45.1816" lon="0.72444">
        <ele>86.4</ele>
        <time>2021-10-24T13:42:37Z</time>
      </trkpt>
      <trkpt lat="45.18159" lon="0.72443">
        <ele>86.4</ele>
        <time>2021-10-24T13:42:38Z</time>
      </trkpt>
      <trkpt lat="45.18159" lon="0.72443">
        <ele>86.4</ele>
        <time>2021-10-24T13:42:39Z</time>
      </trkpt>
      <trkpt lat="45.18159" lon="0.72443">
        <ele>86.4</ele>
        <time>2021-10-24T13:42:41Z</time>
      </trkpt>
      <trkpt lat="45.18159" lon="0.72442">
        <ele>86.4</ele>
        <time>2021-10-24T13:42:42Z</time>
      </trkpt>
      <trkpt lat="45.18158" lon="0.72442">
        <ele>86.4</ele>
        <time>2021-10-24T13:42:43Z</time>
      </trkpt>
      <trkpt lat="45.18157" lon="0.72441">
        <ele>86.4</ele>
        <time>2021-10-24T13:42:44Z</time>
      </trkpt>
      <trkpt lat="45.18157" lon="0.7244">
        <ele>86.4</ele>
        <time>2021-10-24T13:42:45Z</time>
      </trkpt>
      <trkpt lat="45.18156" lon="0.7244">
        <ele>86.4</ele>
        <time>2021-10-24T13:42:46Z</time>
      </trkpt>
      <trkpt lat="45.18155" lon="0.72439">
        <ele>86.4</ele>
        <time>2021-10-24T13:42:48Z</time>
      </trkpt>
      <trkpt lat="45.18154" lon="0.72438">
        <ele>86.4</ele>
        <time>2021-10-24T13:42:49Z</time>
      </trkpt>
      <trkpt lat="45.18153" lon="0.72437">
        <ele>86.4</ele>
        <time>2021-10-24T13:42:50Z</time>
      </trkpt>
      <trkpt lat="45.18152" lon="0.72436">
        <ele>86.4</ele>
        <time>2021-10-24T13:42:51Z</time>
      </trkpt>
      <trkpt lat="45.18151" lon="0.72436">
        <ele>86.4</ele>
        <time>2021-10-24T13:42:52Z</time>
      </trkpt>
      <trkpt lat="45.1815" lon="0.72435">
        <ele>86.4</ele>
        <time>2021-10-24T13:42:53Z</time>
      </trkpt>
      <trkpt lat="45.18148" lon="0.72434">
        <ele>86.4</ele>
        <time>2021-10-24T13:42:55Z</time>
      </trkpt>
      <trkpt lat="45.18147" lon="0.72433">
        <ele>86.4</ele>
        <time>2021-10-24T13:42:56Z</time>
      </trkpt>
      <trkpt lat="45.18146" lon="0.72432">
        <ele>86.4</ele>
        <time>2021-10-24T13:42:57Z</time>
      </trkpt>
      <trkpt lat="45.18145" lon="0.72432">
        <ele>86.4</ele>
        <time>2021-10-24T13:42:58Z</time>
      </trkpt>
      <trkpt lat="45.18144" lon="0.72431">
        <ele>86.4</ele>
        <time>2021-10-24T13:42:59Z</time>
      </trkpt>
      <trkpt lat="45.18143" lon="0.72431">
        <ele>86.4</ele>
        <time>2021-10-24T13:43:00Z</time>
      </trkpt>
      <trkpt lat="45.18142" lon="0.7243">
        <ele>86.4</ele>
        <time>2021-10-24T13:43:01Z</time>
      </trkpt>
      <trkpt lat="45.18141" lon="0.7243">
        <ele>86.4</ele>
        <time>2021-10-24T13:43:03Z</time>
      </trkpt>
      <trkpt lat="45.1814" lon="0.72429">
        <ele>86.4</ele>
        <time>2021-10-24T13:43:04Z</time>
      </trkpt>
      <trkpt lat="45.18139" lon="0.72429">
        <ele>86.4</ele>
        <time>2021-10-24T13:43:05Z</time>
      </trkpt>
      <trkpt lat="45.18138" lon="0.72429">
        <ele>86.4</ele>
        <time>2021-10-24T13:43:06Z</time>
      </trkpt>
      <trkpt lat="45.18137" lon="0.72428">
        <ele>86.4</ele>
        <time>2021-10-24T13:43:07Z</time>
      </trkpt>
      <trkpt lat="45.18136" lon="0.72428">
        <ele>86.4</ele>
        <time>2021-10-24T13:43:08Z</time>
      </trkpt>
      <trkpt lat="45.18134" lon="0.72427">
        <ele>86.4</ele>
        <time>2021-10-24T13:43:10Z</time>
      </trkpt>
      <trkpt lat="45.18133" lon="0.72426">
        <ele>86.4</ele>
        <time>2021-10-24T13:43:11Z</time>
      </trkpt>
      <trkpt lat="45.18131" lon="0.72426">
        <ele>86.4</ele>
        <time>2021-10-24T13:43:12Z</time>
      </trkpt>
      <trkpt lat="45.1813" lon="0.72425">
        <ele>86.4</ele>
        <time>2021-10-24T13:43:13Z</time>
      </trkpt>
      <trkpt lat="45.18129" lon="0.72425">
        <ele>86.4</ele>
        <time>2021-10-24T13:43:15Z</time>
      </trkpt>
      <trkpt lat="45.18128" lon="0.72425">
        <ele>86.4</ele>
        <time>2021-10-24T13:43:16Z</time>
      </trkpt>
      <trkpt lat="45.18127" lon="0.72425">
        <ele>86.5</ele>
        <time>2021-10-24T13:43:17Z</time>
      </trkpt>
      <trkpt lat="45.18126" lon="0.72424">
        <ele>86.5</ele>
        <time>2021-10-24T13:43:18Z</time>
      </trkpt>
      <trkpt lat="45.18125" lon="0.72424">
        <ele>86.5</ele>
        <time>2021-10-24T13:43:19Z</time>
      </trkpt>
      <trkpt lat="45.18123" lon="0.72423">
        <ele>86.5</ele>
        <time>2021-10-24T13:43:21Z</time>
      </trkpt>
      <trkpt lat="45.18122" lon="0.72423">
        <ele>86.5</ele>
        <time>2021-10-24T13:43:22Z</time>
      </trkpt>
      <trkpt lat="45.18121" lon="0.72422">
        <ele>86.5</ele>
        <time>2021-10-24T13:43:23Z</time>
      </trkpt>
      <trkpt lat="45.1812" lon="0.72422">
        <ele>86.5</ele>
        <time>2021-10-24T13:43:24Z</time>
      </trkpt>
      <trkpt lat="45.18119" lon="0.72422">
        <ele>86.5</ele>
        <time>2021-10-24T13:43:26Z</time>
      </trkpt>
      <trkpt lat="45.18118" lon="0.72421">
        <ele>86.5</ele>
        <time>2021-10-24T13:43:27Z</time>
      </trkpt>
      <trkpt lat="45.18117" lon="0.7242">
        <ele>86.6</ele>
        <time>2021-10-24T13:43:28Z</time>
      </trkpt>
      <trkpt lat="45.18116" lon="0.7242">
        <ele>86.6</ele>
        <time>2021-10-24T13:43:29Z</time>
      </trkpt>
      <trkpt lat="45.18115" lon="0.72419">
        <ele>86.6</ele>
        <time>2021-10-24T13:43:30Z</time>
      </trkpt>
      <trkpt lat="45.18114" lon="0.72419">
        <ele>86.6</ele>
        <time>2021-10-24T13:43:32Z</time>
      </trkpt>
      <trkpt lat="45.18113" lon="0.72418">
        <ele>86.6</ele>
        <time>2021-10-24T13:43:33Z</time>
      </trkpt>
      <trkpt lat="45.18112" lon="0.72418">
        <ele>86.6</ele>
        <time>2021-10-24T13:43:34Z</time>
      </trkpt>
      <trkpt lat="45.1811" lon="0.72417">
        <ele>86.7</ele>
        <time>2021-10-24T13:43:35Z</time>
      </trkpt>
      <trkpt lat="45.18109" lon="0.72417">
        <ele>86.7</ele>
        <time>2021-10-24T13:43:36Z</time>
      </trkpt>
      <trkpt lat="45.18108" lon="0.72416">
        <ele>86.7</ele>
        <time>2021-10-24T13:43:38Z</time>
      </trkpt>
      <trkpt lat="45.18107" lon="0.72416">
        <ele>86.7</ele>
        <time>2021-10-24T13:43:39Z</time>
      </trkpt>
      <trkpt lat="45.18106" lon="0.72415">
        <ele>86.7</ele>
        <time>2021-10-24T13:43:40Z</time>
      </trkpt>
      <trkpt lat="45.18105" lon="0.72414">
        <ele>86.7</ele>
        <time>2021-10-24T13:43:42Z</time>
      </trkpt>
      <trkpt lat="45.18104" lon="0.72414">
        <ele>86.8</ele>
        <time>2021-10-24T13:43:43Z</time>
      </trkpt>
      <trkpt lat="45.18103" lon="0.72413">
        <ele>86.8</ele>
        <time>2021-10-24T13:43:44Z</time>
      </trkpt>
      <trkpt lat="45.18102" lon="0.72413">
        <ele>86.8</ele>
        <time>2021-10-24T13:43:45Z</time>
      </trkpt>
      <trkpt lat="45.18101" lon="0.72412">
        <ele>86.8</ele>
        <time>2021-10-24T13:43:46Z</time>
      </trkpt>
      <trkpt lat="45.18099" lon="0.72412">
        <ele>86.8</ele>
        <time>2021-10-24T13:43:47Z</time>
      </trkpt>
      <trkpt lat="45.18098" lon="0.72412">
        <ele>86.8</ele>
        <time>2021-10-24T13:43:49Z</time>
      </trkpt>
      <trkpt lat="45.18097" lon="0.72411">
        <ele>86.8</ele>
        <time>2021-10-24T13:43:50Z</time>
      </trkpt>
      <trkpt lat="45.18096" lon="0.72411">
        <ele>86.9</ele>
        <time>2021-10-24T13:43:51Z</time>
      </trkpt>
      <trkpt lat="45.18095" lon="0.7241">
        <ele>86.9</ele>
        <time>2021-10-24T13:43:53Z</time>
      </trkpt>
      <trkpt lat="45.18094" lon="0.7241">
        <ele>86.9</ele>
        <time>2021-10-24T13:43:54Z</time>
      </trkpt>
      <trkpt lat="45.18093" lon="0.72409">
        <ele>86.9</ele>
        <time>2021-10-24T13:43:55Z</time>
      </trkpt>
      <trkpt lat="45.18092" lon="0.72409">
        <ele>86.9</ele>
        <time>2021-10-24T13:43:56Z</time>
      </trkpt>
      <trkpt lat="45.18091" lon="0.72408">
        <ele>86.9</ele>
        <time>2021-10-24T13:43:57Z</time>
      </trkpt>
      <trkpt lat="45.1809" lon="0.72407">
        <ele>86.9</ele>
        <time>2021-10-24T13:43:58Z</time>
      </trkpt>
      <trkpt lat="45.18089" lon="0.72407">
        <ele>86.9</ele>
        <time>2021-10-24T13:43:59Z</time>
      </trkpt>
      <trkpt lat="45.18088" lon="0.72406">
        <ele>87</ele>
        <time>2021-10-24T13:44:00Z</time>
      </trkpt>
      <trkpt lat="45.18087" lon="0.72406">
        <ele>87</ele>
        <time>2021-10-24T13:44:02Z</time>
      </trkpt>
      <trkpt lat="45.18086" lon="0.72405">
        <ele>87</ele>
        <time>2021-10-24T13:44:03Z</time>
      </trkpt>
      <trkpt lat="45.18086" lon="0.72405">
        <ele>87</ele>
        <time>2021-10-24T13:44:04Z</time>
      </trkpt>
      <trkpt lat="45.18085" lon="0.72405">
        <ele>87</ele>
        <time>2021-10-24T13:44:05Z</time>
      </trkpt>
      <trkpt lat="45.18084" lon="0.72405">
        <ele>87</ele>
        <time>2021-10-24T13:44:06Z</time>
      </trkpt>
      <trkpt lat="45.18083" lon="0.72404">
        <ele>87</ele>
        <time>2021-10-24T13:44:07Z</time>
      </trkpt>
      <trkpt lat="45.18082" lon="0.72404">
        <ele>87</ele>
        <time>2021-10-24T13:44:09Z</time>
      </trkpt>
      <trkpt lat="45.18081" lon="0.72404">
        <ele>87</ele>
        <time>2021-10-24T13:44:10Z</time>
      </trkpt>
      <trkpt lat="45.18081" lon="0.72403">
        <ele>87</ele>
        <time>2021-10-24T13:44:11Z</time>
      </trkpt>
      <trkpt lat="45.18081" lon="0.72403">
        <ele>87</ele>
        <time>2021-10-24T13:44:12Z</time>
      </trkpt>
      <trkpt lat="45.1808" lon="0.72402">
        <ele>87</ele>
        <time>2021-10-24T13:44:13Z</time>
      </trkpt>
      <trkpt lat="45.18079" lon="0.72402">
        <ele>87</ele>
        <time>2021-10-24T13:44:14Z</time>
      </trkpt>
      <trkpt lat="45.18078" lon="0.72401">
        <ele>87</ele>
        <time>2021-10-24T13:44:16Z</time>
      </trkpt>
      <trkpt lat="45.18077" lon="0.72401">
        <ele>87</ele>
        <time>2021-10-24T13:44:17Z</time>
      </trkpt>
      <trkpt lat="45.18075" lon="0.72401">
        <ele>86.9</ele>
        <time>2021-10-24T13:44:18Z</time>
      </trkpt>
      <trkpt lat="45.18074" lon="0.724">
        <ele>86.9</ele>
        <time>2021-10-24T13:44:19Z</time>
      </trkpt>
      <trkpt lat="45.18072" lon="0.724">
        <ele>86.9</ele>
        <time>2021-10-24T13:44:21Z</time>
      </trkpt>
      <trkpt lat="45.18071" lon="0.72399">
        <ele>86.9</ele>
        <time>2021-10-24T13:44:22Z</time>
      </trkpt>
      <trkpt lat="45.1807" lon="0.72399">
        <ele>86.9</ele>
        <time>2021-10-24T13:44:23Z</time>
      </trkpt>
      <trkpt lat="45.18069" lon="0.72399">
        <ele>86.9</ele>
        <time>2021-10-24T13:44:24Z</time>
      </trkpt>
      <trkpt lat="45.18067" lon="0.72398">
        <ele>86.9</ele>
        <time>2021-10-24T13:44:26Z</time>
      </trkpt>
      <trkpt lat="45.18066" lon="0.72397">
        <ele>86.9</ele>
        <time>2021-10-24T13:44:27Z</time>
      </trkpt>
      <trkpt lat="45.18066" lon="0.72397">
        <ele>86.9</ele>
        <time>2021-10-24T13:44:28Z</time>
      </trkpt>
      <trkpt lat="45.18064" lon="0.72396">
        <ele>86.8</ele>
        <time>2021-10-24T13:44:30Z</time>
      </trkpt>
      <trkpt lat="45.18063" lon="0.72394">
        <ele>86.8</ele>
        <time>2021-10-24T13:44:31Z</time>
      </trkpt>
      <trkpt lat="45.18062" lon="0.72393">
        <ele>86.8</ele>
        <time>2021-10-24T13:44:32Z</time>
      </trkpt>
      <trkpt lat="45.18061" lon="0.72392">
        <ele>86.8</ele>
        <time>2021-10-24T13:44:33Z</time>
      </trkpt>
      <trkpt lat="45.18061" lon="0.72392">
        <ele>86.8</ele>
        <time>2021-10-24T13:44:34Z</time>
      </trkpt>
      <trkpt lat="45.1806" lon="0.72391">
        <ele>86.7</ele>
        <time>2021-10-24T13:44:35Z</time>
      </trkpt>
      <trkpt lat="45.18059" lon="0.7239">
        <ele>86.7</ele>
        <time>2021-10-24T13:44:36Z</time>
      </trkpt>
      <trkpt lat="45.18059" lon="0.72388">
        <ele>86.7</ele>
        <time>2021-10-24T13:44:37Z</time>
      </trkpt>
      <trkpt lat="45.18058" lon="0.72388">
        <ele>86.7</ele>
        <time>2021-10-24T13:44:39Z</time>
      </trkpt>
      <trkpt lat="45.18057" lon="0.72387">
        <ele>86.7</ele>
        <time>2021-10-24T13:44:40Z</time>
      </trkpt>
      <trkpt lat="45.18056" lon="0.72386">
        <ele>86.7</ele>
        <time>2021-10-24T13:44:41Z</time>
      </trkpt>
      <trkpt lat="45.18055" lon="0.72385">
        <ele>86.7</ele>
        <time>2021-10-24T13:44:42Z</time>
      </trkpt>
      <trkpt lat="45.18054" lon="0.72385">
        <ele>86.6</ele>
        <time>2021-10-24T13:44:43Z</time>
      </trkpt>
      <trkpt lat="45.18053" lon="0.72384">
        <ele>86.6</ele>
        <time>2021-10-24T13:44:44Z</time>
      </trkpt>
      <trkpt lat="45.18052" lon="0.72383">
        <ele>86.6</ele>
        <time>2021-10-24T13:44:45Z</time>
      </trkpt>
      <trkpt lat="45.18052" lon="0.72381">
        <ele>86.6</ele>
        <time>2021-10-24T13:44:47Z</time>
      </trkpt>
      <trkpt lat="45.18052" lon="0.72381">
        <ele>86.6</ele>
        <time>2021-10-24T13:44:48Z</time>
      </trkpt>
      <trkpt lat="45.18052" lon="0.72381">
        <ele>86.6</ele>
        <time>2021-10-24T13:44:49Z</time>
      </trkpt>
      <trkpt lat="45.18052" lon="0.72381">
        <ele>86.6</ele>
        <time>2021-10-24T13:44:51Z</time>
      </trkpt>
      <trkpt lat="45.18051" lon="0.72381">
        <ele>86.6</ele>
        <time>2021-10-24T13:44:52Z</time>
      </trkpt>
      <trkpt lat="45.1805" lon="0.72381">
        <ele>86.6</ele>
        <time>2021-10-24T13:44:54Z</time>
      </trkpt>
      <trkpt lat="45.18049" lon="0.7238">
        <ele>86.6</ele>
        <time>2021-10-24T13:44:55Z</time>
      </trkpt>
      <trkpt lat="45.18048" lon="0.7238">
        <ele>86.5</ele>
        <time>2021-10-24T13:44:56Z</time>
      </trkpt>
      <trkpt lat="45.18047" lon="0.72379">
        <ele>86.5</ele>
        <time>2021-10-24T13:44:57Z</time>
      </trkpt>
      <trkpt lat="45.18046" lon="0.72378">
        <ele>86.5</ele>
        <time>2021-10-24T13:44:58Z</time>
      </trkpt>
      <trkpt lat="45.18045" lon="0.72378">
        <ele>86.5</ele>
        <time>2021-10-24T13:45:00Z</time>
      </trkpt>
      <trkpt lat="45.18044" lon="0.72377">
        <ele>86.5</ele>
        <time>2021-10-24T13:45:01Z</time>
      </trkpt>
      <trkpt lat="45.18042" lon="0.72377">
        <ele>86.5</ele>
        <time>2021-10-24T13:45:02Z</time>
      </trkpt>
      <trkpt lat="45.18042" lon="0.72377">
        <ele>86.5</ele>
        <time>2021-10-24T13:45:03Z</time>
      </trkpt>
      <trkpt lat="45.18041" lon="0.72376">
        <ele>86.5</ele>
        <time>2021-10-24T13:45:05Z</time>
      </trkpt>
      <trkpt lat="45.1804" lon="0.72374">
        <ele>86.5</ele>
        <time>2021-10-24T13:45:06Z</time>
      </trkpt>
      <trkpt lat="45.18039" lon="0.72373">
        <ele>86.5</ele>
        <time>2021-10-24T13:45:07Z</time>
      </trkpt>
      <trkpt lat="45.18039" lon="0.72372">
        <ele>86.5</ele>
        <time>2021-10-24T13:45:08Z</time>
      </trkpt>
      <trkpt lat="45.18038" lon="0.72371">
        <ele>86.5</ele>
        <time>2021-10-24T13:45:09Z</time>
      </trkpt>
      <trkpt lat="45.18037" lon="0.7237">
        <ele>86.5</ele>
        <time>2021-10-24T13:45:10Z</time>
      </trkpt>
      <trkpt lat="45.18037" lon="0.7237">
        <ele>86.5</ele>
        <time>2021-10-24T13:45:11Z</time>
      </trkpt>
      <trkpt lat="45.18036" lon="0.72369">
        <ele>86.5</ele>
        <time>2021-10-24T13:45:13Z</time>
      </trkpt>
      <trkpt lat="45.18036" lon="0.72368">
        <ele>86.5</ele>
        <time>2021-10-24T13:45:14Z</time>
      </trkpt>
      <trkpt lat="45.18036" lon="0.72368">
        <ele>86.5</ele>
        <time>2021-10-24T13:45:15Z</time>
      </trkpt>
      <trkpt lat="45.18036" lon="0.72366">
        <ele>86.5</ele>
        <time>2021-10-24T13:45:16Z</time>
      </trkpt>
      <trkpt lat="45.18035" lon="0.72364">
        <ele>86.5</ele>
        <time>2021-10-24T13:45:18Z</time>
      </trkpt>
      <trkpt lat="45.18033" lon="0.72363">
        <ele>86.5</ele>
        <time>2021-10-24T13:45:19Z</time>
      </trkpt>
      <trkpt lat="45.18033" lon="0.72361">
        <ele>86.5</ele>
        <time>2021-10-24T13:45:21Z</time>
      </trkpt>
      <trkpt lat="45.18032" lon="0.7236">
        <ele>86.5</ele>
        <time>2021-10-24T13:45:22Z</time>
      </trkpt>
      <trkpt lat="45.18032" lon="0.72359">
        <ele>86.5</ele>
        <time>2021-10-24T13:45:23Z</time>
      </trkpt>
      <trkpt lat="45.18031" lon="0.72358">
        <ele>86.5</ele>
        <time>2021-10-24T13:45:24Z</time>
      </trkpt>
      <trkpt lat="45.18031" lon="0.72357">
        <ele>86.5</ele>
        <time>2021-10-24T13:45:25Z</time>
      </trkpt>
      <trkpt lat="45.1803" lon="0.72355">
        <ele>86.6</ele>
        <time>2021-10-24T13:45:26Z</time>
      </trkpt>
      <trkpt lat="45.18028" lon="0.72354">
        <ele>86.6</ele>
        <time>2021-10-24T13:45:28Z</time>
      </trkpt>
      <trkpt lat="45.18027" lon="0.72352">
        <ele>86.6</ele>
        <time>2021-10-24T13:45:29Z</time>
      </trkpt>
      <trkpt lat="45.18025" lon="0.72351">
        <ele>86.6</ele>
        <time>2021-10-24T13:45:30Z</time>
      </trkpt>
      <trkpt lat="45.18025" lon="0.72351">
        <ele>86.6</ele>
        <time>2021-10-24T13:45:31Z</time>
      </trkpt>
      <trkpt lat="45.18024" lon="0.7235">
        <ele>86.6</ele>
        <time>2021-10-24T13:45:32Z</time>
      </trkpt>
      <trkpt lat="45.18022" lon="0.72349">
        <ele>86.6</ele>
        <time>2021-10-24T13:45:33Z</time>
      </trkpt>
      <trkpt lat="45.18021" lon="0.72348">
        <ele>86.6</ele>
        <time>2021-10-24T13:45:34Z</time>
      </trkpt>
      <trkpt lat="45.18021" lon="0.72348">
        <ele>86.6</ele>
        <time>2021-10-24T13:45:35Z</time>
      </trkpt>
      <trkpt lat="45.1802" lon="0.72347">
        <ele>86.6</ele>
        <time>2021-10-24T13:45:36Z</time>
      </trkpt>
      <trkpt lat="45.18019" lon="0.72345">
        <ele>86.6</ele>
        <time>2021-10-24T13:45:37Z</time>
      </trkpt>
      <trkpt lat="45.18018" lon="0.72345">
        <ele>86.6</ele>
        <time>2021-10-24T13:45:39Z</time>
      </trkpt>
      <trkpt lat="45.18017" lon="0.72344">
        <ele>86.6</ele>
        <time>2021-10-24T13:45:40Z</time>
      </trkpt>
      <trkpt lat="45.18016" lon="0.72343">
        <ele>86.6</ele>
        <time>2021-10-24T13:45:41Z</time>
      </trkpt>
      <trkpt lat="45.18015" lon="0.72342">
        <ele>86.6</ele>
        <time>2021-10-24T13:45:42Z</time>
      </trkpt>
      <trkpt lat="45.18014" lon="0.7234">
        <ele>86.6</ele>
        <time>2021-10-24T13:45:43Z</time>
      </trkpt>
      <trkpt lat="45.18013" lon="0.72339">
        <ele>86.6</ele>
        <time>2021-10-24T13:45:44Z</time>
      </trkpt>
      <trkpt lat="45.18012" lon="0.72338">
        <ele>86.6</ele>
        <time>2021-10-24T13:45:45Z</time>
      </trkpt>
      <trkpt lat="45.18011" lon="0.72338">
        <ele>86.6</ele>
        <time>2021-10-24T13:45:46Z</time>
      </trkpt>
      <trkpt lat="45.1801" lon="0.72337">
        <ele>86.6</ele>
        <time>2021-10-24T13:45:48Z</time>
      </trkpt>
      <trkpt lat="45.18009" lon="0.72336">
        <ele>86.6</ele>
        <time>2021-10-24T13:45:49Z</time>
      </trkpt>
      <trkpt lat="45.18008" lon="0.72335">
        <ele>86.6</ele>
        <time>2021-10-24T13:45:50Z</time>
      </trkpt>
      <trkpt lat="45.18006" lon="0.72334">
        <ele>86.5</ele>
        <time>2021-10-24T13:45:52Z</time>
      </trkpt>
      <trkpt lat="45.18006" lon="0.72334">
        <ele>86.5</ele>
        <time>2021-10-24T13:45:53Z</time>
      </trkpt>
      <trkpt lat="45.18005" lon="0.72333">
        <ele>86.5</ele>
        <time>2021-10-24T13:45:54Z</time>
      </trkpt>
      <trkpt lat="45.18004" lon="0.72333">
        <ele>86.5</ele>
        <time>2021-10-24T13:45:55Z</time>
      </trkpt>
      <trkpt lat="45.18003" lon="0.72332">
        <ele>86.5</ele>
        <time>2021-10-24T13:45:57Z</time>
      </trkpt>
      <trkpt lat="45.18001" lon="0.72331">
        <ele>86.5</ele>
        <time>2021-10-24T13:45:58Z</time>
      </trkpt>
      <trkpt lat="45.18" lon="0.72331">
        <ele>86.5</ele>
        <time>2021-10-24T13:45:59Z</time>
      </trkpt>
      <trkpt lat="45.17999" lon="0.7233">
        <ele>86.5</ele>
        <time>2021-10-24T13:46:00Z</time>
      </trkpt>
      <trkpt lat="45.17997" lon="0.72329">
        <ele>86.5</ele>
        <time>2021-10-24T13:46:02Z</time>
      </trkpt>
      <trkpt lat="45.17996" lon="0.72329">
        <ele>86.5</ele>
        <time>2021-10-24T13:46:03Z</time>
      </trkpt>
      <trkpt lat="45.17996" lon="0.72329">
        <ele>86.5</ele>
        <time>2021-10-24T13:46:04Z</time>
      </trkpt>
      <trkpt lat="45.17994" lon="0.72328">
        <ele>86.5</ele>
        <time>2021-10-24T13:46:05Z</time>
      </trkpt>
      <trkpt lat="45.17993" lon="0.72328">
        <ele>86.5</ele>
        <time>2021-10-24T13:46:06Z</time>
      </trkpt>
      <trkpt lat="45.17992" lon="0.72327">
        <ele>86.5</ele>
        <time>2021-10-24T13:46:07Z</time>
      </trkpt>
      <trkpt lat="45.17991" lon="0.72327">
        <ele>86.5</ele>
        <time>2021-10-24T13:46:08Z</time>
      </trkpt>
      <trkpt lat="45.1799" lon="0.72326">
        <ele>86.5</ele>
        <time>2021-10-24T13:46:10Z</time>
      </trkpt>
      <trkpt lat="45.17989" lon="0.72325">
        <ele>86.5</ele>
        <time>2021-10-24T13:46:11Z</time>
      </trkpt>
      <trkpt lat="45.17988" lon="0.72325">
        <ele>86.5</ele>
        <time>2021-10-24T13:46:12Z</time>
      </trkpt>
      <trkpt lat="45.17986" lon="0.72324">
        <ele>86.5</ele>
        <time>2021-10-24T13:46:13Z</time>
      </trkpt>
      <trkpt lat="45.17985" lon="0.72323">
        <ele>86.5</ele>
        <time>2021-10-24T13:46:15Z</time>
      </trkpt>
      <trkpt lat="45.17984" lon="0.72322">
        <ele>86.5</ele>
        <time>2021-10-24T13:46:16Z</time>
      </trkpt>
      <trkpt lat="45.17983" lon="0.72322">
        <ele>86.5</ele>
        <time>2021-10-24T13:46:17Z</time>
      </trkpt>
      <trkpt lat="45.17982" lon="0.72321">
        <ele>86.5</ele>
        <time>2021-10-24T13:46:18Z</time>
      </trkpt>
      <trkpt lat="45.17981" lon="0.72321">
        <ele>86.5</ele>
        <time>2021-10-24T13:46:19Z</time>
      </trkpt>
      <trkpt lat="45.1798" lon="0.72322">
        <ele>86.5</ele>
        <time>2021-10-24T13:46:20Z</time>
      </trkpt>
      <trkpt lat="45.17979" lon="0.72321">
        <ele>86.5</ele>
        <time>2021-10-24T13:46:21Z</time>
      </trkpt>
      <trkpt lat="45.17978" lon="0.7232">
        <ele>86.5</ele>
        <time>2021-10-24T13:46:23Z</time>
      </trkpt>
      <trkpt lat="45.17977" lon="0.72319">
        <ele>86.5</ele>
        <time>2021-10-24T13:46:24Z</time>
      </trkpt>
      <trkpt lat="45.17976" lon="0.72318">
        <ele>86.5</ele>
        <time>2021-10-24T13:46:25Z</time>
      </trkpt>
      <trkpt lat="45.17973" lon="0.72317">
        <ele>86.5</ele>
        <time>2021-10-24T13:46:26Z</time>
      </trkpt>
      <trkpt lat="45.17973" lon="0.72317">
        <ele>86.5</ele>
        <time>2021-10-24T13:46:27Z</time>
      </trkpt>
      <trkpt lat="45.17972" lon="0.72317">
        <ele>86.5</ele>
        <time>2021-10-24T13:46:28Z</time>
      </trkpt>
      <trkpt lat="45.1797" lon="0.72316">
        <ele>86.5</ele>
        <time>2021-10-24T13:46:30Z</time>
      </trkpt>
      <trkpt lat="45.17969" lon="0.72316">
        <ele>86.5</ele>
        <time>2021-10-24T13:46:31Z</time>
      </trkpt>
      <trkpt lat="45.17968" lon="0.72315">
        <ele>86.5</ele>
        <time>2021-10-24T13:46:32Z</time>
      </trkpt>
      <trkpt lat="45.17967" lon="0.72315">
        <ele>86.5</ele>
        <time>2021-10-24T13:46:33Z</time>
      </trkpt>
      <trkpt lat="45.17965" lon="0.72315">
        <ele>86.5</ele>
        <time>2021-10-24T13:46:35Z</time>
      </trkpt>
      <trkpt lat="45.17964" lon="0.72314">
        <ele>86.5</ele>
        <time>2021-10-24T13:46:36Z</time>
      </trkpt>
      <trkpt lat="45.17963" lon="0.72314">
        <ele>86.5</ele>
        <time>2021-10-24T13:46:37Z</time>
      </trkpt>
      <trkpt lat="45.17962" lon="0.72313">
        <ele>86.5</ele>
        <time>2021-10-24T13:46:38Z</time>
      </trkpt>
      <trkpt lat="45.17961" lon="0.72312">
        <ele>86.5</ele>
        <time>2021-10-24T13:46:39Z</time>
      </trkpt>
      <trkpt lat="45.1796" lon="0.72312">
        <ele>86.5</ele>
        <time>2021-10-24T13:46:41Z</time>
      </trkpt>
      <trkpt lat="45.17959" lon="0.72312">
        <ele>86.5</ele>
        <time>2021-10-24T13:46:42Z</time>
      </trkpt>
      <trkpt lat="45.17958" lon="0.72312">
        <ele>86.5</ele>
        <time>2021-10-24T13:46:43Z</time>
      </trkpt>
      <trkpt lat="45.17957" lon="0.72311">
        <ele>86.5</ele>
        <time>2021-10-24T13:46:44Z</time>
      </trkpt>
      <trkpt lat="45.17956" lon="0.72311">
        <ele>86.5</ele>
        <time>2021-10-24T13:46:45Z</time>
      </trkpt>
      <trkpt lat="45.17955" lon="0.7231">
        <ele>86.5</ele>
        <time>2021-10-24T13:46:47Z</time>
      </trkpt>
      <trkpt lat="45.17954" lon="0.72309">
        <ele>86.5</ele>
        <time>2021-10-24T13:46:48Z</time>
      </trkpt>
      <trkpt lat="45.17953" lon="0.72308">
        <ele>86.5</ele>
        <time>2021-10-24T13:46:49Z</time>
      </trkpt>
      <trkpt lat="45.17951" lon="0.72308">
        <ele>86.5</ele>
        <time>2021-10-24T13:46:51Z</time>
      </trkpt>
      <trkpt lat="45.1795" lon="0.72307">
        <ele>86.5</ele>
        <time>2021-10-24T13:46:52Z</time>
      </trkpt>
      <trkpt lat="45.17949" lon="0.72307">
        <ele>86.5</ele>
        <time>2021-10-24T13:46:53Z</time>
      </trkpt>
      <trkpt lat="45.17948" lon="0.72306">
        <ele>86.5</ele>
        <time>2021-10-24T13:46:54Z</time>
      </trkpt>
      <trkpt lat="45.17947" lon="0.72306">
        <ele>86.5</ele>
        <time>2021-10-24T13:46:55Z</time>
      </trkpt>
      <trkpt lat="45.17947" lon="0.72306">
        <ele>86.5</ele>
        <time>2021-10-24T13:46:56Z</time>
      </trkpt>
      <trkpt lat="45.17945" lon="0.72305">
        <ele>86.5</ele>
        <time>2021-10-24T13:46:58Z</time>
      </trkpt>
      <trkpt lat="45.17944" lon="0.72304">
        <ele>86.5</ele>
        <time>2021-10-24T13:46:59Z</time>
      </trkpt>
      <trkpt lat="45.17942" lon="0.72304">
        <ele>86.5</ele>
        <time>2021-10-24T13:47:00Z</time>
      </trkpt>
      <trkpt lat="45.1794" lon="0.72303">
        <ele>86.5</ele>
        <time>2021-10-24T13:47:02Z</time>
      </trkpt>
      <trkpt lat="45.17939" lon="0.72303">
        <ele>86.5</ele>
        <time>2021-10-24T13:47:03Z</time>
      </trkpt>
      <trkpt lat="45.17938" lon="0.72302">
        <ele>86.5</ele>
        <time>2021-10-24T13:47:04Z</time>
      </trkpt>
      <trkpt lat="45.17937" lon="0.72301">
        <ele>86.5</ele>
        <time>2021-10-24T13:47:06Z</time>
      </trkpt>
      <trkpt lat="45.17936" lon="0.72301">
        <ele>86.5</ele>
        <time>2021-10-24T13:47:07Z</time>
      </trkpt>
      <trkpt lat="45.17935" lon="0.723">
        <ele>86.5</ele>
        <time>2021-10-24T13:47:08Z</time>
      </trkpt>
      <trkpt lat="45.17934" lon="0.72299">
        <ele>86.5</ele>
        <time>2021-10-24T13:47:09Z</time>
      </trkpt>
      <trkpt lat="45.17934" lon="0.72299">
        <ele>86.5</ele>
        <time>2021-10-24T13:47:10Z</time>
      </trkpt>
      <trkpt lat="45.17933" lon="0.72298">
        <ele>86.5</ele>
        <time>2021-10-24T13:47:11Z</time>
      </trkpt>
      <trkpt lat="45.17933" lon="0.72298">
        <ele>86.5</ele>
        <time>2021-10-24T13:47:13Z</time>
      </trkpt>
      <trkpt lat="45.17932" lon="0.72298">
        <ele>86.5</ele>
        <time>2021-10-24T13:47:14Z</time>
      </trkpt>
      <trkpt lat="45.17931" lon="0.72297">
        <ele>86.5</ele>
        <time>2021-10-24T13:47:15Z</time>
      </trkpt>
      <trkpt lat="45.1793" lon="0.72297">
        <ele>86.5</ele>
        <time>2021-10-24T13:47:16Z</time>
      </trkpt>
      <trkpt lat="45.17929" lon="0.72297">
        <ele>86.5</ele>
        <time>2021-10-24T13:47:17Z</time>
      </trkpt>
      <trkpt lat="45.17928" lon="0.72296">
        <ele>86.5</ele>
        <time>2021-10-24T13:47:18Z</time>
      </trkpt>
      <trkpt lat="45.17927" lon="0.72296">
        <ele>86.5</ele>
        <time>2021-10-24T13:47:19Z</time>
      </trkpt>
      <trkpt lat="45.17926" lon="0.72296">
        <ele>86.5</ele>
        <time>2021-10-24T13:47:21Z</time>
      </trkpt>
      <trkpt lat="45.17925" lon="0.72296">
        <ele>86.5</ele>
        <time>2021-10-24T13:47:22Z</time>
      </trkpt>
      <trkpt lat="45.17924" lon="0.72295">
        <ele>86.5</ele>
        <time>2021-10-24T13:47:23Z</time>
      </trkpt>
      <trkpt lat="45.17922" lon="0.72294">
        <ele>86.5</ele>
        <time>2021-10-24T13:47:25Z</time>
      </trkpt>
      <trkpt lat="45.17922" lon="0.72293">
        <ele>86.5</ele>
        <time>2021-10-24T13:47:26Z</time>
      </trkpt>
      <trkpt lat="45.17921" lon="0.72293">
        <ele>86.5</ele>
        <time>2021-10-24T13:47:27Z</time>
      </trkpt>
      <trkpt lat="45.17919" lon="0.72292">
        <ele>86.5</ele>
        <time>2021-10-24T13:47:28Z</time>
      </trkpt>
      <trkpt lat="45.17918" lon="0.72291">
        <ele>86.5</ele>
        <time>2021-10-24T13:47:29Z</time>
      </trkpt>
      <trkpt lat="45.17917" lon="0.72291">
        <ele>86.5</ele>
        <time>2021-10-24T13:47:30Z</time>
      </trkpt>
      <trkpt lat="45.17915" lon="0.7229">
        <ele>86.5</ele>
        <time>2021-10-24T13:47:31Z</time>
      </trkpt>
      <trkpt lat="45.17914" lon="0.7229">
        <ele>86.5</ele>
        <time>2021-10-24T13:47:32Z</time>
      </trkpt>
      <trkpt lat="45.17913" lon="0.7229">
        <ele>86.5</ele>
        <time>2021-10-24T13:47:34Z</time>
      </trkpt>
      <trkpt lat="45.17912" lon="0.7229">
        <ele>86.5</ele>
        <time>2021-10-24T13:47:35Z</time>
      </trkpt>
      <trkpt lat="45.17911" lon="0.7229">
        <ele>86.6</ele>
        <time>2021-10-24T13:47:36Z</time>
      </trkpt>
      <trkpt lat="45.17911" lon="0.7229">
        <ele>86.6</ele>
        <time>2021-10-24T13:47:37Z</time>
      </trkpt>
      <trkpt lat="45.1791" lon="0.72289">
        <ele>86.6</ele>
        <time>2021-10-24T13:47:38Z</time>
      </trkpt>
      <trkpt lat="45.17909" lon="0.72288">
        <ele>86.6</ele>
        <time>2021-10-24T13:47:40Z</time>
      </trkpt>
      <trkpt lat="45.17908" lon="0.72287">
        <ele>86.6</ele>
        <time>2021-10-24T13:47:41Z</time>
      </trkpt>
      <trkpt lat="45.17907" lon="0.72286">
        <ele>86.6</ele>
        <time>2021-10-24T13:47:42Z</time>
      </trkpt>
      <trkpt lat="45.17907" lon="0.72285">
        <ele>86.6</ele>
        <time>2021-10-24T13:47:43Z</time>
      </trkpt>
      <trkpt lat="45.17906" lon="0.72285">
        <ele>86.6</ele>
        <time>2021-10-24T13:47:44Z</time>
      </trkpt>
      <trkpt lat="45.17904" lon="0.72284">
        <ele>86.6</ele>
        <time>2021-10-24T13:47:46Z</time>
      </trkpt>
      <trkpt lat="45.17904" lon="0.72284">
        <ele>86.6</ele>
        <time>2021-10-24T13:47:47Z</time>
      </trkpt>
      <trkpt lat="45.17904" lon="0.72283">
        <ele>86.6</ele>
        <time>2021-10-24T13:47:48Z</time>
      </trkpt>
      <trkpt lat="45.17903" lon="0.72283">
        <ele>86.6</ele>
        <time>2021-10-24T13:47:49Z</time>
      </trkpt>
      <trkpt lat="45.17902" lon="0.72282">
        <ele>86.6</ele>
        <time>2021-10-24T13:47:51Z</time>
      </trkpt>
      <trkpt lat="45.17901" lon="0.72282">
        <ele>86.6</ele>
        <time>2021-10-24T13:47:52Z</time>
      </trkpt>
      <trkpt lat="45.17901" lon="0.72281">
        <ele>86.6</ele>
        <time>2021-10-24T13:47:53Z</time>
      </trkpt>
      <trkpt lat="45.179" lon="0.72281">
        <ele>86.6</ele>
        <time>2021-10-24T13:47:54Z</time>
      </trkpt>
      <trkpt lat="45.17898" lon="0.7228">
        <ele>86.6</ele>
        <time>2021-10-24T13:47:55Z</time>
      </trkpt>
      <trkpt lat="45.17897" lon="0.7228">
        <ele>86.6</ele>
        <time>2021-10-24T13:47:57Z</time>
      </trkpt>
      <trkpt lat="45.17896" lon="0.72279">
        <ele>86.6</ele>
        <time>2021-10-24T13:47:58Z</time>
      </trkpt>
      <trkpt lat="45.17895" lon="0.72279">
        <ele>86.6</ele>
        <time>2021-10-24T13:47:59Z</time>
      </trkpt>
      <trkpt lat="45.17893" lon="0.72279">
        <ele>86.6</ele>
        <time>2021-10-24T13:48:01Z</time>
      </trkpt>
      <trkpt lat="45.17893" lon="0.72278">
        <ele>86.6</ele>
        <time>2021-10-24T13:48:03Z</time>
      </trkpt>
      <trkpt lat="45.17893" lon="0.72278">
        <ele>86.6</ele>
        <time>2021-10-24T13:48:04Z</time>
      </trkpt>
      <trkpt lat="45.17893" lon="0.72278">
        <ele>86.6</ele>
        <time>2021-10-24T13:48:06Z</time>
      </trkpt>
      <trkpt lat="45.17893" lon="0.72278">
        <ele>86.6</ele>
        <time>2021-10-24T13:48:08Z</time>
      </trkpt>
      <trkpt lat="45.17893" lon="0.72278">
        <ele>86.6</ele>
        <time>2021-10-24T13:48:10Z</time>
      </trkpt>
      <trkpt lat="45.17893" lon="0.72278">
        <ele>86.6</ele>
        <time>2021-10-24T13:48:11Z</time>
      </trkpt>
      <trkpt lat="45.17892" lon="0.72278">
        <ele>86.6</ele>
        <time>2021-10-24T13:48:13Z</time>
      </trkpt>
      <trkpt lat="45.17891" lon="0.72278">
        <ele>86.6</ele>
        <time>2021-10-24T13:48:14Z</time>
      </trkpt>
      <trkpt lat="45.1789" lon="0.72278">
        <ele>86.6</ele>
        <time>2021-10-24T13:48:15Z</time>
      </trkpt>
      <trkpt lat="45.17888" lon="0.72277">
        <ele>86.6</ele>
        <time>2021-10-24T13:48:17Z</time>
      </trkpt>
      <trkpt lat="45.17887" lon="0.72277">
        <ele>86.6</ele>
        <time>2021-10-24T13:48:18Z</time>
      </trkpt>
      <trkpt lat="45.17886" lon="0.72277">
        <ele>86.7</ele>
        <time>2021-10-24T13:48:19Z</time>
      </trkpt>
      <trkpt lat="45.17885" lon="0.72277">
        <ele>86.7</ele>
        <time>2021-10-24T13:48:20Z</time>
      </trkpt>
      <trkpt lat="45.17884" lon="0.72276">
        <ele>86.7</ele>
        <time>2021-10-24T13:48:22Z</time>
      </trkpt>
      <trkpt lat="45.17883" lon="0.72276">
        <ele>86.7</ele>
        <time>2021-10-24T13:48:23Z</time>
      </trkpt>
      <trkpt lat="45.17882" lon="0.72275">
        <ele>86.7</ele>
        <time>2021-10-24T13:48:24Z</time>
      </trkpt>
      <trkpt lat="45.17881" lon="0.72275">
        <ele>86.7</ele>
        <time>2021-10-24T13:48:25Z</time>
      </trkpt>
      <trkpt lat="45.1788" lon="0.72274">
        <ele>86.7</ele>
        <time>2021-10-24T13:48:27Z</time>
      </trkpt>
      <trkpt lat="45.17879" lon="0.72273">
        <ele>86.7</ele>
        <time>2021-10-24T13:48:28Z</time>
      </trkpt>
      <trkpt lat="45.17878" lon="0.72273">
        <ele>86.7</ele>
        <time>2021-10-24T13:48:29Z</time>
      </trkpt>
      <trkpt lat="45.17876" lon="0.72272">
        <ele>86.7</ele>
        <time>2021-10-24T13:48:31Z</time>
      </trkpt>
      <trkpt lat="45.17875" lon="0.72272">
        <ele>86.7</ele>
        <time>2021-10-24T13:48:32Z</time>
      </trkpt>
      <trkpt lat="45.17874" lon="0.72272">
        <ele>86.7</ele>
        <time>2021-10-24T13:48:33Z</time>
      </trkpt>
      <trkpt lat="45.17872" lon="0.72272">
        <ele>86.7</ele>
        <time>2021-10-24T13:48:35Z</time>
      </trkpt>
      <trkpt lat="45.17871" lon="0.72272">
        <ele>86.7</ele>
        <time>2021-10-24T13:48:36Z</time>
      </trkpt>
      <trkpt lat="45.17869" lon="0.72272">
        <ele>86.7</ele>
        <time>2021-10-24T13:48:37Z</time>
      </trkpt>
      <trkpt lat="45.17869" lon="0.72271">
        <ele>86.7</ele>
        <time>2021-10-24T13:48:38Z</time>
      </trkpt>
      <trkpt lat="45.17867" lon="0.72271">
        <ele>86.8</ele>
        <time>2021-10-24T13:48:40Z</time>
      </trkpt>
      <trkpt lat="45.17865" lon="0.72271">
        <ele>86.8</ele>
        <time>2021-10-24T13:48:41Z</time>
      </trkpt>
      <trkpt lat="45.17863" lon="0.72272">
        <ele>86.8</ele>
        <time>2021-10-24T13:48:42Z</time>
      </trkpt>
      <trkpt lat="45.17863" lon="0.72272">
        <ele>86.8</ele>
        <time>2021-10-24T13:48:43Z</time>
      </trkpt>
      <trkpt lat="45.17862" lon="0.72272">
        <ele>86.8</ele>
        <time>2021-10-24T13:48:45Z</time>
      </trkpt>
      <trkpt lat="45.17862" lon="0.72272">
        <ele>86.8</ele>
        <time>2021-10-24T13:48:46Z</time>
      </trkpt>
      <trkpt lat="45.17861" lon="0.72272">
        <ele>86.8</ele>
        <time>2021-10-24T13:48:47Z</time>
      </trkpt>
      <trkpt lat="45.17861" lon="0.72272">
        <ele>86.8</ele>
        <time>2021-10-24T13:48:49Z</time>
      </trkpt>
      <trkpt lat="45.1786" lon="0.72272">
        <ele>86.8</ele>
        <time>2021-10-24T13:48:51Z</time>
      </trkpt>
      <trkpt lat="45.1786" lon="0.72271">
        <ele>86.8</ele>
        <time>2021-10-24T13:48:52Z</time>
      </trkpt>
      <trkpt lat="45.17859" lon="0.72271">
        <ele>86.8</ele>
        <time>2021-10-24T13:48:54Z</time>
      </trkpt>
      <trkpt lat="45.17858" lon="0.72271">
        <ele>86.8</ele>
        <time>2021-10-24T13:48:55Z</time>
      </trkpt>
      <trkpt lat="45.17858" lon="0.72271">
        <ele>86.8</ele>
        <time>2021-10-24T13:48:56Z</time>
      </trkpt>
      <trkpt lat="45.17858" lon="0.72271">
        <ele>86.8</ele>
        <time>2021-10-24T13:48:58Z</time>
      </trkpt>
      <trkpt lat="45.17857" lon="0.72271">
        <ele>86.8</ele>
        <time>2021-10-24T13:48:59Z</time>
      </trkpt>
      <trkpt lat="45.17856" lon="0.72271">
        <ele>86.8</ele>
        <time>2021-10-24T13:49:00Z</time>
      </trkpt>
      <trkpt lat="45.17856" lon="0.72271">
        <ele>86.8</ele>
        <time>2021-10-24T13:49:01Z</time>
      </trkpt>
      <trkpt lat="45.17854" lon="0.72272">
        <ele>86.8</ele>
        <time>2021-10-24T13:49:03Z</time>
      </trkpt>
      <trkpt lat="45.17853" lon="0.72272">
        <ele>86.8</ele>
        <time>2021-10-24T13:49:04Z</time>
      </trkpt>
      <trkpt lat="45.17853" lon="0.72272">
        <ele>86.9</ele>
        <time>2021-10-24T13:49:05Z</time>
      </trkpt>
      <trkpt lat="45.17852" lon="0.72272">
        <ele>86.9</ele>
        <time>2021-10-24T13:49:06Z</time>
      </trkpt>
      <trkpt lat="45.17852" lon="0.72272">
        <ele>86.9</ele>
        <time>2021-10-24T13:49:07Z</time>
      </trkpt>
      <trkpt lat="45.17852" lon="0.72271">
        <ele>86.9</ele>
        <time>2021-10-24T13:49:09Z</time>
      </trkpt>
      <trkpt lat="45.17852" lon="0.72272">
        <ele>86.9</ele>
        <time>2021-10-24T13:49:11Z</time>
      </trkpt>
      <trkpt lat="45.17852" lon="0.72273">
        <ele>86.9</ele>
        <time>2021-10-24T13:49:12Z</time>
      </trkpt>
      <trkpt lat="45.17852" lon="0.72273">
        <ele>86.9</ele>
        <time>2021-10-24T13:49:13Z</time>
      </trkpt>
      <trkpt lat="45.17851" lon="0.72275">
        <ele>86.9</ele>
        <time>2021-10-24T13:49:15Z</time>
      </trkpt>
      <trkpt lat="45.17851" lon="0.72276">
        <ele>86.9</ele>
        <time>2021-10-24T13:49:16Z</time>
      </trkpt>
      <trkpt lat="45.17851" lon="0.72278">
        <ele>87</ele>
        <time>2021-10-24T13:49:17Z</time>
      </trkpt>
      <trkpt lat="45.17851" lon="0.7228">
        <ele>87</ele>
        <time>2021-10-24T13:49:19Z</time>
      </trkpt>
      <trkpt lat="45.1785" lon="0.72281">
        <ele>87</ele>
        <time>2021-10-24T13:49:20Z</time>
      </trkpt>
      <trkpt lat="45.1785" lon="0.72282">
        <ele>87</ele>
        <time>2021-10-24T13:49:21Z</time>
      </trkpt>
      <trkpt lat="45.1785" lon="0.72284">
        <ele>87</ele>
        <time>2021-10-24T13:49:22Z</time>
      </trkpt>
      <trkpt lat="45.1785" lon="0.72285">
        <ele>87</ele>
        <time>2021-10-24T13:49:23Z</time>
      </trkpt>
      <trkpt lat="45.1785" lon="0.72288">
        <ele>87.1</ele>
        <time>2021-10-24T13:49:25Z</time>
      </trkpt>
      <trkpt lat="45.17849" lon="0.72289">
        <ele>87.1</ele>
        <time>2021-10-24T13:49:26Z</time>
      </trkpt>
      <trkpt lat="45.17849" lon="0.72291">
        <ele>87.1</ele>
        <time>2021-10-24T13:49:27Z</time>
      </trkpt>
      <trkpt lat="45.17849" lon="0.72293">
        <ele>87.2</ele>
        <time>2021-10-24T13:49:28Z</time>
      </trkpt>
      <trkpt lat="45.17849" lon="0.72294">
        <ele>87.2</ele>
        <time>2021-10-24T13:49:29Z</time>
      </trkpt>
      <trkpt lat="45.17849" lon="0.72296">
        <ele>87.2</ele>
        <time>2021-10-24T13:49:31Z</time>
      </trkpt>
      <trkpt lat="45.17849" lon="0.72298">
        <ele>87.2</ele>
        <time>2021-10-24T13:49:32Z</time>
      </trkpt>
      <trkpt lat="45.17849" lon="0.72299">
        <ele>87.3</ele>
        <time>2021-10-24T13:49:33Z</time>
      </trkpt>
      <trkpt lat="45.17849" lon="0.723">
        <ele>87.3</ele>
        <time>2021-10-24T13:49:35Z</time>
      </trkpt>
      <trkpt lat="45.17849" lon="0.72302">
        <ele>87.3</ele>
        <time>2021-10-24T13:49:36Z</time>
      </trkpt>
      <trkpt lat="45.17849" lon="0.72302">
        <ele>87.3</ele>
        <time>2021-10-24T13:49:37Z</time>
      </trkpt>
      <trkpt lat="45.17849" lon="0.72304">
        <ele>87.3</ele>
        <time>2021-10-24T13:49:39Z</time>
      </trkpt>
      <trkpt lat="45.17849" lon="0.72305">
        <ele>87.4</ele>
        <time>2021-10-24T13:49:40Z</time>
      </trkpt>
      <trkpt lat="45.17849" lon="0.72306">
        <ele>87.4</ele>
        <time>2021-10-24T13:49:42Z</time>
      </trkpt>
      <trkpt lat="45.17849" lon="0.72307">
        <ele>87.4</ele>
        <time>2021-10-24T13:49:43Z</time>
      </trkpt>
      <trkpt lat="45.17849" lon="0.72309">
        <ele>87.4</ele>
        <time>2021-10-24T13:49:44Z</time>
      </trkpt>
      <trkpt lat="45.17849" lon="0.72309">
        <ele>87.4</ele>
        <time>2021-10-24T13:49:45Z</time>
      </trkpt>
      <trkpt lat="45.1785" lon="0.7231">
        <ele>87.5</ele>
        <time>2021-10-24T13:49:47Z</time>
      </trkpt>
      <trkpt lat="45.1785" lon="0.72311">
        <ele>87.5</ele>
        <time>2021-10-24T13:49:48Z</time>
      </trkpt>
      <trkpt lat="45.17849" lon="0.72312">
        <ele>87.6</ele>
        <time>2021-10-24T13:49:49Z</time>
      </trkpt>
      <trkpt lat="45.1785" lon="0.72315">
        <ele>87.8</ele>
        <time>2021-10-24T13:49:51Z</time>
      </trkpt>
      <trkpt lat="45.17851" lon="0.72316">
        <ele>87.8</ele>
        <time>2021-10-24T13:49:52Z</time>
      </trkpt>
      <trkpt lat="45.17851" lon="0.72316">
        <ele>87.9</ele>
        <time>2021-10-24T13:49:53Z</time>
      </trkpt>
      <trkpt lat="45.17852" lon="0.72316">
        <ele>87.9</ele>
        <time>2021-10-24T13:49:55Z</time>
      </trkpt>
      <trkpt lat="45.17852" lon="0.72315">
        <ele>87.9</ele>
        <time>2021-10-24T13:49:56Z</time>
      </trkpt>
      <trkpt lat="45.17852" lon="0.72314">
        <ele>87.9</ele>
        <time>2021-10-24T13:49:57Z</time>
      </trkpt>
      <trkpt lat="45.17852" lon="0.72314">
        <ele>87.9</ele>
        <time>2021-10-24T13:49:58Z</time>
      </trkpt>
      <trkpt lat="45.17852" lon="0.72312">
        <ele>88</ele>
        <time>2021-10-24T13:50:00Z</time>
      </trkpt>
      <trkpt lat="45.17852" lon="0.72311">
        <ele>88</ele>
        <time>2021-10-24T13:50:01Z</time>
      </trkpt>
      <trkpt lat="45.17853" lon="0.72309">
        <ele>88</ele>
        <time>2021-10-24T13:50:02Z</time>
      </trkpt>
      <trkpt lat="45.17853" lon="0.72308">
        <ele>88.1</ele>
        <time>2021-10-24T13:50:03Z</time>
      </trkpt>
      <trkpt lat="45.17852" lon="0.72306">
        <ele>88.1</ele>
        <time>2021-10-24T13:50:05Z</time>
      </trkpt>
      <trkpt lat="45.17852" lon="0.72305">
        <ele>88.1</ele>
        <time>2021-10-24T13:50:06Z</time>
      </trkpt>
      <trkpt lat="45.17852" lon="0.72303">
        <ele>88.2</ele>
        <time>2021-10-24T13:50:07Z</time>
      </trkpt>
      <trkpt lat="45.17852" lon="0.72302">
        <ele>88.2</ele>
        <time>2021-10-24T13:50:08Z</time>
      </trkpt>
      <trkpt lat="45.17852" lon="0.723">
        <ele>88.3</ele>
        <time>2021-10-24T13:50:10Z</time>
      </trkpt>
      <trkpt lat="45.17852" lon="0.72298">
        <ele>88.3</ele>
        <time>2021-10-24T13:50:11Z</time>
      </trkpt>
      <trkpt lat="45.17853" lon="0.72297">
        <ele>88.4</ele>
        <time>2021-10-24T13:50:12Z</time>
      </trkpt>
      <trkpt lat="45.17853" lon="0.72295">
        <ele>88.4</ele>
        <time>2021-10-24T13:50:14Z</time>
      </trkpt>
      <trkpt lat="45.17853" lon="0.72294">
        <ele>88.4</ele>
        <time>2021-10-24T13:50:15Z</time>
      </trkpt>
      <trkpt lat="45.17853" lon="0.72292">
        <ele>88.5</ele>
        <time>2021-10-24T13:50:17Z</time>
      </trkpt>
      <trkpt lat="45.17853" lon="0.7229">
        <ele>88.5</ele>
        <time>2021-10-24T13:50:18Z</time>
      </trkpt>
      <trkpt lat="45.17853" lon="0.72289">
        <ele>88.6</ele>
        <time>2021-10-24T13:50:19Z</time>
      </trkpt>
      <trkpt lat="45.17853" lon="0.72286">
        <ele>88.6</ele>
        <time>2021-10-24T13:50:20Z</time>
      </trkpt>
      <trkpt lat="45.17853" lon="0.72285">
        <ele>88.7</ele>
        <time>2021-10-24T13:50:22Z</time>
      </trkpt>
      <trkpt lat="45.17853" lon="0.72284">
        <ele>88.7</ele>
        <time>2021-10-24T13:50:23Z</time>
      </trkpt>
      <trkpt lat="45.17854" lon="0.72282">
        <ele>88.8</ele>
        <time>2021-10-24T13:50:24Z</time>
      </trkpt>
      <trkpt lat="45.17854" lon="0.72281">
        <ele>88.8</ele>
        <time>2021-10-24T13:50:26Z</time>
      </trkpt>
      <trkpt lat="45.17855" lon="0.7228">
        <ele>88.8</ele>
        <time>2021-10-24T13:50:27Z</time>
      </trkpt>
      <trkpt lat="45.17855" lon="0.72279">
        <ele>88.9</ele>
        <time>2021-10-24T13:50:28Z</time>
      </trkpt>
      <trkpt lat="45.17855" lon="0.72277">
        <ele>88.9</ele>
        <time>2021-10-24T13:50:29Z</time>
      </trkpt>
      <trkpt lat="45.17855" lon="0.72276">
        <ele>88.9</ele>
        <time>2021-10-24T13:50:31Z</time>
      </trkpt>
      <trkpt lat="45.17855" lon="0.72274">
        <ele>89</ele>
        <time>2021-10-24T13:50:32Z</time>
      </trkpt>
      <trkpt lat="45.17855" lon="0.72273">
        <ele>89</ele>
        <time>2021-10-24T13:50:33Z</time>
      </trkpt>
      <trkpt lat="45.17856" lon="0.72272">
        <ele>89</ele>
        <time>2021-10-24T13:50:35Z</time>
      </trkpt>
      <trkpt lat="45.17856" lon="0.7227">
        <ele>89.1</ele>
        <time>2021-10-24T13:50:36Z</time>
      </trkpt>
      <trkpt lat="45.17856" lon="0.72269">
        <ele>89.1</ele>
        <time>2021-10-24T13:50:37Z</time>
      </trkpt>
      <trkpt lat="45.17856" lon="0.72267">
        <ele>89.2</ele>
        <time>2021-10-24T13:50:39Z</time>
      </trkpt>
      <trkpt lat="45.17855" lon="0.72266">
        <ele>89.2</ele>
        <time>2021-10-24T13:50:40Z</time>
      </trkpt>
      <trkpt lat="45.17855" lon="0.72264">
        <ele>89.2</ele>
        <time>2021-10-24T13:50:41Z</time>
      </trkpt>
      <trkpt lat="45.17855" lon="0.72262">
        <ele>89.3</ele>
        <time>2021-10-24T13:50:43Z</time>
      </trkpt>
      <trkpt lat="45.17856" lon="0.72261">
        <ele>89.3</ele>
        <time>2021-10-24T13:50:44Z</time>
      </trkpt>
      <trkpt lat="45.17856" lon="0.72259">
        <ele>89.3</ele>
        <time>2021-10-24T13:50:45Z</time>
      </trkpt>
      <trkpt lat="45.17856" lon="0.72258">
        <ele>89.4</ele>
        <time>2021-10-24T13:50:47Z</time>
      </trkpt>
      <trkpt lat="45.17857" lon="0.72256">
        <ele>89.4</ele>
        <time>2021-10-24T13:50:48Z</time>
      </trkpt>
      <trkpt lat="45.17858" lon="0.72254">
        <ele>89.5</ele>
        <time>2021-10-24T13:50:50Z</time>
      </trkpt>
      <trkpt lat="45.17858" lon="0.72253">
        <ele>89.5</ele>
        <time>2021-10-24T13:50:51Z</time>
      </trkpt>
      <trkpt lat="45.17858" lon="0.72252">
        <ele>89.5</ele>
        <time>2021-10-24T13:50:52Z</time>
      </trkpt>
      <trkpt lat="45.17858" lon="0.72252">
        <ele>89.5</ele>
        <time>2021-10-24T13:50:54Z</time>
      </trkpt>
      <trkpt lat="45.17858" lon="0.72252">
        <ele>89.5</ele>
        <time>2021-10-24T13:50:55Z</time>
      </trkpt>
      <trkpt lat="45.17858" lon="0.72252">
        <ele>89.5</ele>
        <time>2021-10-24T13:50:57Z</time>
      </trkpt>
      <trkpt lat="45.17858" lon="0.72252">
        <ele>89.5</ele>
        <time>2021-10-24T13:50:58Z</time>
      </trkpt>
      <trkpt lat="45.17858" lon="0.72252">
        <ele>89.5</ele>
        <time>2021-10-24T13:51:00Z</time>
      </trkpt>
      <trkpt lat="45.17859" lon="0.72252">
        <ele>89.5</ele>
        <time>2021-10-24T13:51:01Z</time>
      </trkpt>
      <trkpt lat="45.1786" lon="0.72252">
        <ele>89.6</ele>
        <time>2021-10-24T13:51:03Z</time>
      </trkpt>
      <trkpt lat="45.1786" lon="0.72251">
        <ele>89.6</ele>
        <time>2021-10-24T13:51:04Z</time>
      </trkpt>
      <trkpt lat="45.1786" lon="0.72251">
        <ele>89.6</ele>
        <time>2021-10-24T13:51:05Z</time>
      </trkpt>
      <trkpt lat="45.1786" lon="0.7225">
        <ele>89.6</ele>
        <time>2021-10-24T13:51:07Z</time>
      </trkpt>
      <trkpt lat="45.1786" lon="0.7225">
        <ele>89.6</ele>
        <time>2021-10-24T13:51:09Z</time>
      </trkpt>
      <trkpt lat="45.17859" lon="0.72249">
        <ele>89.6</ele>
        <time>2021-10-24T13:51:11Z</time>
      </trkpt>
      <trkpt lat="45.17859" lon="0.72249">
        <ele>89.6</ele>
        <time>2021-10-24T13:51:12Z</time>
      </trkpt>
      <trkpt lat="45.17859" lon="0.72249">
        <ele>89.6</ele>
        <time>2021-10-24T13:51:14Z</time>
      </trkpt>
      <trkpt lat="45.17859" lon="0.7225">
        <ele>89.6</ele>
        <time>2021-10-24T13:51:15Z</time>
      </trkpt>
      <trkpt lat="45.17858" lon="0.7225">
        <ele>89.6</ele>
        <time>2021-10-24T13:51:17Z</time>
      </trkpt>
      <trkpt lat="45.17858" lon="0.72249">
        <ele>89.6</ele>
        <time>2021-10-24T13:51:18Z</time>
      </trkpt>
      <trkpt lat="45.17857" lon="0.72249">
        <ele>89.6</ele>
        <time>2021-10-24T13:51:19Z</time>
      </trkpt>
      <trkpt lat="45.17857" lon="0.72249">
        <ele>89.7</ele>
        <time>2021-10-24T13:51:20Z</time>
      </trkpt>
      <trkpt lat="45.17857" lon="0.72249">
        <ele>89.7</ele>
        <time>2021-10-24T13:51:21Z</time>
      </trkpt>
      <trkpt lat="45.17857" lon="0.72249">
        <ele>89.7</ele>
        <time>2021-10-24T13:51:23Z</time>
      </trkpt>
      <trkpt lat="45.17856" lon="0.72249">
        <ele>89.7</ele>
        <time>2021-10-24T13:51:25Z</time>
      </trkpt>
      <trkpt lat="45.17856" lon="0.72249">
        <ele>89.7</ele>
        <time>2021-10-24T13:51:26Z</time>
      </trkpt>
      <trkpt lat="45.17856" lon="0.72249">
        <ele>89.7</ele>
        <time>2021-10-24T13:51:28Z</time>
      </trkpt>
      <trkpt lat="45.17856" lon="0.72249">
        <ele>89.7</ele>
        <time>2021-10-24T13:51:29Z</time>
      </trkpt>
      <trkpt lat="45.17856" lon="0.72249">
        <ele>89.7</ele>
        <time>2021-10-24T13:51:30Z</time>
      </trkpt>
      <trkpt lat="45.17856" lon="0.72249">
        <ele>89.7</ele>
        <time>2021-10-24T13:51:32Z</time>
      </trkpt>
      <trkpt lat="45.17856" lon="0.72249">
        <ele>89.7</ele>
        <time>2021-10-24T13:51:34Z</time>
      </trkpt>
      <trkpt lat="45.17856" lon="0.72249">
        <ele>89.7</ele>
        <time>2021-10-24T13:51:36Z</time>
      </trkpt>
      <trkpt lat="45.17856" lon="0.72249">
        <ele>89.7</ele>
        <time>2021-10-24T13:51:37Z</time>
      </trkpt>
      <trkpt lat="45.17857" lon="0.72248">
        <ele>89.7</ele>
        <time>2021-10-24T13:51:39Z</time>
      </trkpt>
      <trkpt lat="45.17858" lon="0.72249">
        <ele>89.7</ele>
        <time>2021-10-24T13:51:40Z</time>
      </trkpt>
      <trkpt lat="45.17858" lon="0.72249">
        <ele>89.7</ele>
        <time>2021-10-24T13:51:42Z</time>
      </trkpt>
      <trkpt lat="45.17858" lon="0.72249">
        <ele>89.7</ele>
        <time>2021-10-24T13:51:43Z</time>
      </trkpt>
      <trkpt lat="45.17858" lon="0.72248">
        <ele>89.7</ele>
        <time>2021-10-24T13:51:44Z</time>
      </trkpt>
      <trkpt lat="45.17858" lon="0.72248">
        <ele>89.7</ele>
        <time>2021-10-24T13:51:46Z</time>
      </trkpt>
      <trkpt lat="45.17858" lon="0.72248">
        <ele>89.7</ele>
        <time>2021-10-24T13:51:47Z</time>
      </trkpt>
      <trkpt lat="45.17858" lon="0.72247">
        <ele>89.7</ele>
        <time>2021-10-24T13:51:48Z</time>
      </trkpt>
      <trkpt lat="45.17858" lon="0.72245">
        <ele>89.7</ele>
        <time>2021-10-24T13:51:50Z</time>
      </trkpt>
      <trkpt lat="45.17858" lon="0.72243">
        <ele>89.8</ele>
        <time>2021-10-24T13:51:51Z</time>
      </trkpt>
      <trkpt lat="45.17858" lon="0.72242">
        <ele>89.8</ele>
        <time>2021-10-24T13:51:53Z</time>
      </trkpt>
      <trkpt lat="45.17858" lon="0.72242">
        <ele>89.8</ele>
        <time>2021-10-24T13:51:54Z</time>
      </trkpt>
      <trkpt lat="45.17858" lon="0.72242">
        <ele>89.8</ele>
        <time>2021-10-24T13:51:56Z</time>
      </trkpt>
      <trkpt lat="45.17858" lon="0.72243">
        <ele>89.8</ele>
        <time>2021-10-24T13:51:57Z</time>
      </trkpt>
      <trkpt lat="45.17857" lon="0.72244">
        <ele>89.8</ele>
        <time>2021-10-24T13:51:59Z</time>
      </trkpt>
      <trkpt lat="45.17857" lon="0.72245">
        <ele>89.8</ele>
        <time>2021-10-24T13:52:00Z</time>
      </trkpt>
      <trkpt lat="45.17857" lon="0.72246">
        <ele>89.8</ele>
        <time>2021-10-24T13:52:01Z</time>
      </trkpt>
      <trkpt lat="45.17857" lon="0.72246">
        <ele>89.8</ele>
        <time>2021-10-24T13:52:03Z</time>
      </trkpt>
      <trkpt lat="45.17857" lon="0.72246">
        <ele>89.8</ele>
        <time>2021-10-24T13:52:04Z</time>
      </trkpt>
      <trkpt lat="45.17857" lon="0.72246">
        <ele>89.8</ele>
        <time>2021-10-24T13:52:05Z</time>
      </trkpt>
      <trkpt lat="45.17857" lon="0.72246">
        <ele>89.8</ele>
        <time>2021-10-24T13:52:07Z</time>
      </trkpt>
      <trkpt lat="45.17857" lon="0.72246">
        <ele>89.8</ele>
        <time>2021-10-24T13:52:08Z</time>
      </trkpt>
      <trkpt lat="45.17857" lon="0.72246">
        <ele>89.8</ele>
        <time>2021-10-24T13:52:09Z</time>
      </trkpt>
      <trkpt lat="45.17857" lon="0.72245">
        <ele>89.8</ele>
        <time>2021-10-24T13:52:11Z</time>
      </trkpt>
      <trkpt lat="45.17857" lon="0.72245">
        <ele>89.8</ele>
        <time>2021-10-24T13:52:12Z</time>
      </trkpt>
      <trkpt lat="45.17857" lon="0.72246">
        <ele>89.8</ele>
        <time>2021-10-24T13:52:13Z</time>
      </trkpt>
      <trkpt lat="45.17858" lon="0.72245">
        <ele>89.8</ele>
        <time>2021-10-24T13:52:15Z</time>
      </trkpt>
      <trkpt lat="45.17858" lon="0.72245">
        <ele>89.8</ele>
        <time>2021-10-24T13:52:16Z</time>
      </trkpt>
      <trkpt lat="45.17858" lon="0.72245">
        <ele>89.8</ele>
        <time>2021-10-24T13:52:18Z</time>
      </trkpt>
      <trkpt lat="45.17858" lon="0.72245">
        <ele>89.8</ele>
        <time>2021-10-24T13:52:19Z</time>
      </trkpt>
      <trkpt lat="45.17858" lon="0.72245">
        <ele>89.8</ele>
        <time>2021-10-24T13:52:21Z</time>
      </trkpt>
      <trkpt lat="45.17858" lon="0.72245">
        <ele>89.8</ele>
        <time>2021-10-24T13:52:23Z</time>
      </trkpt>
      <trkpt lat="45.17858" lon="0.72245">
        <ele>89.8</ele>
        <time>2021-10-24T13:52:25Z</time>
      </trkpt>
      <trkpt lat="45.17858" lon="0.72245">
        <ele>89.8</ele>
        <time>2021-10-24T13:52:26Z</time>
      </trkpt>
      <trkpt lat="45.17858" lon="0.72245">
        <ele>89.8</ele>
        <time>2021-10-24T13:52:28Z</time>
      </trkpt>
      <trkpt lat="45.17857" lon="0.72244">
        <ele>89.8</ele>
        <time>2021-10-24T13:52:30Z</time>
      </trkpt>
      <trkpt lat="45.17857" lon="0.72243">
        <ele>89.8</ele>
        <time>2021-10-24T13:52:31Z</time>
      </trkpt>
      <trkpt lat="45.17857" lon="0.72242">
        <ele>89.8</ele>
        <time>2021-10-24T13:52:32Z</time>
      </trkpt>
      <trkpt lat="45.17857" lon="0.7224">
        <ele>89.8</ele>
        <time>2021-10-24T13:52:33Z</time>
      </trkpt>
      <trkpt lat="45.17857" lon="0.72238">
        <ele>89.8</ele>
        <time>2021-10-24T13:52:35Z</time>
      </trkpt>
      <trkpt lat="45.17857" lon="0.72235">
        <ele>89.8</ele>
        <time>2021-10-24T13:52:36Z</time>
      </trkpt>
      <trkpt lat="45.17857" lon="0.72234">
        <ele>89.7</ele>
        <time>2021-10-24T13:52:38Z</time>
      </trkpt>
      <trkpt lat="45.17857" lon="0.72232">
        <ele>89.7</ele>
        <time>2021-10-24T13:52:39Z</time>
      </trkpt>
      <trkpt lat="45.17857" lon="0.72231">
        <ele>89.7</ele>
        <time>2021-10-24T13:52:40Z</time>
      </trkpt>
      <trkpt lat="45.17857" lon="0.72229">
        <ele>89.7</ele>
        <time>2021-10-24T13:52:41Z</time>
      </trkpt>
      <trkpt lat="45.17858" lon="0.72227">
        <ele>89.7</ele>
        <time>2021-10-24T13:52:42Z</time>
      </trkpt>
      <trkpt lat="45.17858" lon="0.72226">
        <ele>89.7</ele>
        <time>2021-10-24T13:52:43Z</time>
      </trkpt>
      <trkpt lat="45.17858" lon="0.72224">
        <ele>89.6</ele>
        <time>2021-10-24T13:52:45Z</time>
      </trkpt>
      <trkpt lat="45.17858" lon="0.72223">
        <ele>89.6</ele>
        <time>2021-10-24T13:52:46Z</time>
      </trkpt>
      <trkpt lat="45.17858" lon="0.72222">
        <ele>89.6</ele>
        <time>2021-10-24T13:52:47Z</time>
      </trkpt>
      <trkpt lat="45.17859" lon="0.72221">
        <ele>89.6</ele>
        <time>2021-10-24T13:52:48Z</time>
      </trkpt>
      <trkpt lat="45.17859" lon="0.7222">
        <ele>89.6</ele>
        <time>2021-10-24T13:52:49Z</time>
      </trkpt>
      <trkpt lat="45.17859" lon="0.72219">
        <ele>89.6</ele>
        <time>2021-10-24T13:52:50Z</time>
      </trkpt>
      <trkpt lat="45.17859" lon="0.72217">
        <ele>89.5</ele>
        <time>2021-10-24T13:52:51Z</time>
      </trkpt>
      <trkpt lat="45.17859" lon="0.72216">
        <ele>89.5</ele>
        <time>2021-10-24T13:52:53Z</time>
      </trkpt>
      <trkpt lat="45.17859" lon="0.72214">
        <ele>89.5</ele>
        <time>2021-10-24T13:52:54Z</time>
      </trkpt>
      <trkpt lat="45.17859" lon="0.72212">
        <ele>89.4</ele>
        <time>2021-10-24T13:52:55Z</time>
      </trkpt>
      <trkpt lat="45.1786" lon="0.72211">
        <ele>89.4</ele>
        <time>2021-10-24T13:52:56Z</time>
      </trkpt>
      <trkpt lat="45.1786" lon="0.72209">
        <ele>89.4</ele>
        <time>2021-10-24T13:52:57Z</time>
      </trkpt>
      <trkpt lat="45.17861" lon="0.72208">
        <ele>89.4</ele>
        <time>2021-10-24T13:52:58Z</time>
      </trkpt>
      <trkpt lat="45.17861" lon="0.72207">
        <ele>89.3</ele>
        <time>2021-10-24T13:53:00Z</time>
      </trkpt>
      <trkpt lat="45.1786" lon="0.72206">
        <ele>89.3</ele>
        <time>2021-10-24T13:53:01Z</time>
      </trkpt>
      <trkpt lat="45.1786" lon="0.72206">
        <ele>89.3</ele>
        <time>2021-10-24T13:53:02Z</time>
      </trkpt>
      <trkpt lat="45.1786" lon="0.72206">
        <ele>89.3</ele>
        <time>2021-10-24T13:53:03Z</time>
      </trkpt>
      <trkpt lat="45.17861" lon="0.72206">
        <ele>89.3</ele>
        <time>2021-10-24T13:53:05Z</time>
      </trkpt>
      <trkpt lat="45.17861" lon="0.72205">
        <ele>89.3</ele>
        <time>2021-10-24T13:53:06Z</time>
      </trkpt>
      <trkpt lat="45.17861" lon="0.72204">
        <ele>89.3</ele>
        <time>2021-10-24T13:53:07Z</time>
      </trkpt>
      <trkpt lat="45.17861" lon="0.72204">
        <ele>89.3</ele>
        <time>2021-10-24T13:53:08Z</time>
      </trkpt>
      <trkpt lat="45.17861" lon="0.72204">
        <ele>89.3</ele>
        <time>2021-10-24T13:53:10Z</time>
      </trkpt>
      <trkpt lat="45.17861" lon="0.72204">
        <ele>89.3</ele>
        <time>2021-10-24T13:53:11Z</time>
      </trkpt>
      <trkpt lat="45.17861" lon="0.72203">
        <ele>89.2</ele>
        <time>2021-10-24T13:53:12Z</time>
      </trkpt>
      <trkpt lat="45.17862" lon="0.72202">
        <ele>89.2</ele>
        <time>2021-10-24T13:53:13Z</time>
      </trkpt>
      <trkpt lat="45.17863" lon="0.72201">
        <ele>89.1</ele>
        <time>2021-10-24T13:53:14Z</time>
      </trkpt>
      <trkpt lat="45.17865" lon="0.72201">
        <ele>89.1</ele>
        <time>2021-10-24T13:53:16Z</time>
      </trkpt>
      <trkpt lat="45.17866" lon="0.722">
        <ele>89</ele>
        <time>2021-10-24T13:53:17Z</time>
      </trkpt>
      <trkpt lat="45.17867" lon="0.722">
        <ele>89</ele>
        <time>2021-10-24T13:53:18Z</time>
      </trkpt>
      <trkpt lat="45.17868" lon="0.722">
        <ele>88.4</ele>
        <time>2021-10-24T13:53:19Z</time>
      </trkpt>
      <trkpt lat="45.17869" lon="0.722">
        <ele>88.4</ele>
        <time>2021-10-24T13:53:20Z</time>
      </trkpt>
      <trkpt lat="45.1787" lon="0.722">
        <ele>88.2</ele>
        <time>2021-10-24T13:53:21Z</time>
      </trkpt>
      <trkpt lat="45.17872" lon="0.722">
        <ele>88.2</ele>
        <time>2021-10-24T13:53:23Z</time>
      </trkpt>
      <trkpt lat="45.17873" lon="0.722">
        <ele>88.2</ele>
        <time>2021-10-24T13:53:24Z</time>
      </trkpt>
      <trkpt lat="45.17874" lon="0.722">
        <ele>88.2</ele>
        <time>2021-10-24T13:53:25Z</time>
      </trkpt>
      <trkpt lat="45.17875" lon="0.722">
        <ele>88.2</ele>
        <time>2021-10-24T13:53:26Z</time>
      </trkpt>
      <trkpt lat="45.17875" lon="0.722">
        <ele>88.2</ele>
        <time>2021-10-24T13:53:27Z</time>
      </trkpt>
      <trkpt lat="45.17876" lon="0.72201">
        <ele>88.2</ele>
        <time>2021-10-24T13:53:29Z</time>
      </trkpt>
      <trkpt lat="45.17877" lon="0.72201">
        <ele>88.2</ele>
        <time>2021-10-24T13:53:30Z</time>
      </trkpt>
      <trkpt lat="45.17878" lon="0.72201">
        <ele>88.1</ele>
        <time>2021-10-24T13:53:31Z</time>
      </trkpt>
      <trkpt lat="45.17879" lon="0.72202">
        <ele>88.1</ele>
        <time>2021-10-24T13:53:32Z</time>
      </trkpt>
      <trkpt lat="45.1788" lon="0.72202">
        <ele>88.1</ele>
        <time>2021-10-24T13:53:34Z</time>
      </trkpt>
      <trkpt lat="45.17881" lon="0.72203">
        <ele>88.1</ele>
        <time>2021-10-24T13:53:35Z</time>
      </trkpt>
      <trkpt lat="45.17882" lon="0.72203">
        <ele>88.1</ele>
        <time>2021-10-24T13:53:36Z</time>
      </trkpt>
      <trkpt lat="45.17883" lon="0.72204">
        <ele>88.1</ele>
        <time>2021-10-24T13:53:37Z</time>
      </trkpt>
      <trkpt lat="45.17885" lon="0.72205">
        <ele>88</ele>
        <time>2021-10-24T13:53:39Z</time>
      </trkpt>
      <trkpt lat="45.17885" lon="0.72205">
        <ele>88</ele>
        <time>2021-10-24T13:53:40Z</time>
      </trkpt>
      <trkpt lat="45.17885" lon="0.72205">
        <ele>88</ele>
        <time>2021-10-24T13:53:42Z</time>
      </trkpt>
      <trkpt lat="45.17885" lon="0.72206">
        <ele>88</ele>
        <time>2021-10-24T13:53:44Z</time>
      </trkpt>
      <trkpt lat="45.17886" lon="0.72207">
        <ele>88</ele>
        <time>2021-10-24T13:53:45Z</time>
      </trkpt>
      <trkpt lat="45.17887" lon="0.72208">
        <ele>88</ele>
        <time>2021-10-24T13:53:46Z</time>
      </trkpt>
      <trkpt lat="45.17888" lon="0.72209">
        <ele>87.9</ele>
        <time>2021-10-24T13:53:47Z</time>
      </trkpt>
      <trkpt lat="45.17889" lon="0.72211">
        <ele>87.9</ele>
        <time>2021-10-24T13:53:49Z</time>
      </trkpt>
      <trkpt lat="45.17891" lon="0.72212">
        <ele>87.9</ele>
        <time>2021-10-24T13:53:50Z</time>
      </trkpt>
      <trkpt lat="45.17892" lon="0.72213">
        <ele>87.8</ele>
        <time>2021-10-24T13:53:51Z</time>
      </trkpt>
      <trkpt lat="45.17893" lon="0.72213">
        <ele>87.8</ele>
        <time>2021-10-24T13:53:52Z</time>
      </trkpt>
      <trkpt lat="45.17894" lon="0.72214">
        <ele>87.8</ele>
        <time>2021-10-24T13:53:53Z</time>
      </trkpt>
      <trkpt lat="45.17895" lon="0.72214">
        <ele>87.8</ele>
        <time>2021-10-24T13:53:54Z</time>
      </trkpt>
      <trkpt lat="45.17897" lon="0.72215">
        <ele>87.7</ele>
        <time>2021-10-24T13:53:56Z</time>
      </trkpt>
      <trkpt lat="45.17898" lon="0.72216">
        <ele>87.7</ele>
        <time>2021-10-24T13:53:57Z</time>
      </trkpt>
      <trkpt lat="45.17898" lon="0.72216">
        <ele>87.7</ele>
        <time>2021-10-24T13:53:58Z</time>
      </trkpt>
      <trkpt lat="45.179" lon="0.72216">
        <ele>87.7</ele>
        <time>2021-10-24T13:53:59Z</time>
      </trkpt>
      <trkpt lat="45.17901" lon="0.72216">
        <ele>87.7</ele>
        <time>2021-10-24T13:54:00Z</time>
      </trkpt>
      <trkpt lat="45.17902" lon="0.72216">
        <ele>87.6</ele>
        <time>2021-10-24T13:54:01Z</time>
      </trkpt>
      <trkpt lat="45.17903" lon="0.72216">
        <ele>87.6</ele>
        <time>2021-10-24T13:54:02Z</time>
      </trkpt>
      <trkpt lat="45.17904" lon="0.72216">
        <ele>87.6</ele>
        <time>2021-10-24T13:54:04Z</time>
      </trkpt>
      <trkpt lat="45.17905" lon="0.72216">
        <ele>87.6</ele>
        <time>2021-10-24T13:54:05Z</time>
      </trkpt>
      <trkpt lat="45.17906" lon="0.72216">
        <ele>87.6</ele>
        <time>2021-10-24T13:54:06Z</time>
      </trkpt>
      <trkpt lat="45.17907" lon="0.72217">
        <ele>87.5</ele>
        <time>2021-10-24T13:54:07Z</time>
      </trkpt>
      <trkpt lat="45.17908" lon="0.72217">
        <ele>87.5</ele>
        <time>2021-10-24T13:54:08Z</time>
      </trkpt>
      <trkpt lat="45.17909" lon="0.72218">
        <ele>87.5</ele>
        <time>2021-10-24T13:54:09Z</time>
      </trkpt>
      <trkpt lat="45.1791" lon="0.72218">
        <ele>87.5</ele>
        <time>2021-10-24T13:54:10Z</time>
      </trkpt>
      <trkpt lat="45.17911" lon="0.72219">
        <ele>87.5</ele>
        <time>2021-10-24T13:54:12Z</time>
      </trkpt>
      <trkpt lat="45.17912" lon="0.72219">
        <ele>87.5</ele>
        <time>2021-10-24T13:54:13Z</time>
      </trkpt>
      <trkpt lat="45.17914" lon="0.7222">
        <ele>87.4</ele>
        <time>2021-10-24T13:54:14Z</time>
      </trkpt>
      <trkpt lat="45.17914" lon="0.72221">
        <ele>87.4</ele>
        <time>2021-10-24T13:54:16Z</time>
      </trkpt>
      <trkpt lat="45.17915" lon="0.72221">
        <ele>87.4</ele>
        <time>2021-10-24T13:54:17Z</time>
      </trkpt>
      <trkpt lat="45.17916" lon="0.72222">
        <ele>87.4</ele>
        <time>2021-10-24T13:54:18Z</time>
      </trkpt>
      <trkpt lat="45.17917" lon="0.72222">
        <ele>87.4</ele>
        <time>2021-10-24T13:54:19Z</time>
      </trkpt>
      <trkpt lat="45.17918" lon="0.72222">
        <ele>87.4</ele>
        <time>2021-10-24T13:54:20Z</time>
      </trkpt>
      <trkpt lat="45.17919" lon="0.72222">
        <ele>87.4</ele>
        <time>2021-10-24T13:54:22Z</time>
      </trkpt>
      <trkpt lat="45.1792" lon="0.72223">
        <ele>87.3</ele>
        <time>2021-10-24T13:54:23Z</time>
      </trkpt>
      <trkpt lat="45.1792" lon="0.72223">
        <ele>87.3</ele>
        <time>2021-10-24T13:54:24Z</time>
      </trkpt>
      <trkpt lat="45.17921" lon="0.72223">
        <ele>87.3</ele>
        <time>2021-10-24T13:54:26Z</time>
      </trkpt>
      <trkpt lat="45.17921" lon="0.72223">
        <ele>87.3</ele>
        <time>2021-10-24T13:54:27Z</time>
      </trkpt>
      <trkpt lat="45.17921" lon="0.72223">
        <ele>87.3</ele>
        <time>2021-10-24T13:54:28Z</time>
      </trkpt>
      <trkpt lat="45.17921" lon="0.72223">
        <ele>87.3</ele>
        <time>2021-10-24T13:54:30Z</time>
      </trkpt>
      <trkpt lat="45.17921" lon="0.72223">
        <ele>87.3</ele>
        <time>2021-10-24T13:54:31Z</time>
      </trkpt>
      <trkpt lat="45.17921" lon="0.72223">
        <ele>87.3</ele>
        <time>2021-10-24T13:54:33Z</time>
      </trkpt>
      <trkpt lat="45.17921" lon="0.72223">
        <ele>87.3</ele>
        <time>2021-10-24T13:54:35Z</time>
      </trkpt>
      <trkpt lat="45.17921" lon="0.72223">
        <ele>87.3</ele>
        <time>2021-10-24T13:54:37Z</time>
      </trkpt>
      <trkpt lat="45.17922" lon="0.72223">
        <ele>87.3</ele>
        <time>2021-10-24T13:54:38Z</time>
      </trkpt>
      <trkpt lat="45.17924" lon="0.72223">
        <ele>87.3</ele>
        <time>2021-10-24T13:54:39Z</time>
      </trkpt>
      <trkpt lat="45.17925" lon="0.72223">
        <ele>87.3</ele>
        <time>2021-10-24T13:54:40Z</time>
      </trkpt>
      <trkpt lat="45.17926" lon="0.72223">
        <ele>87.3</ele>
        <time>2021-10-24T13:54:42Z</time>
      </trkpt>
      <trkpt lat="45.17927" lon="0.72223">
        <ele>87.2</ele>
        <time>2021-10-24T13:54:43Z</time>
      </trkpt>
      <trkpt lat="45.17928" lon="0.72223">
        <ele>87.2</ele>
        <time>2021-10-24T13:54:44Z</time>
      </trkpt>
      <trkpt lat="45.17929" lon="0.72223">
        <ele>87.2</ele>
        <time>2021-10-24T13:54:45Z</time>
      </trkpt>
      <trkpt lat="45.1793" lon="0.72224">
        <ele>87.2</ele>
        <time>2021-10-24T13:54:46Z</time>
      </trkpt>
      <trkpt lat="45.17931" lon="0.72224">
        <ele>87.2</ele>
        <time>2021-10-24T13:54:48Z</time>
      </trkpt>
      <trkpt lat="45.17932" lon="0.72224">
        <ele>87.2</ele>
        <time>2021-10-24T13:54:49Z</time>
      </trkpt>
      <trkpt lat="45.17934" lon="0.72225">
        <ele>87.2</ele>
        <time>2021-10-24T13:54:50Z</time>
      </trkpt>
      <trkpt lat="45.17935" lon="0.72226">
        <ele>87.2</ele>
        <time>2021-10-24T13:54:51Z</time>
      </trkpt>
      <trkpt lat="45.17936" lon="0.72226">
        <ele>87.2</ele>
        <time>2021-10-24T13:54:53Z</time>
      </trkpt>
      <trkpt lat="45.17937" lon="0.72227">
        <ele>87.2</ele>
        <time>2021-10-24T13:54:54Z</time>
      </trkpt>
      <trkpt lat="45.17938" lon="0.72227">
        <ele>87.2</ele>
        <time>2021-10-24T13:54:55Z</time>
      </trkpt>
      <trkpt lat="45.17938" lon="0.72228">
        <ele>87.2</ele>
        <time>2021-10-24T13:54:56Z</time>
      </trkpt>
      <trkpt lat="45.1794" lon="0.72228">
        <ele>87.2</ele>
        <time>2021-10-24T13:54:57Z</time>
      </trkpt>
      <trkpt lat="45.17941" lon="0.72229">
        <ele>87.1</ele>
        <time>2021-10-24T13:54:58Z</time>
      </trkpt>
      <trkpt lat="45.17942" lon="0.7223">
        <ele>87.1</ele>
        <time>2021-10-24T13:55:00Z</time>
      </trkpt>
      <trkpt lat="45.17943" lon="0.72231">
        <ele>87.1</ele>
        <time>2021-10-24T13:55:01Z</time>
      </trkpt>
      <trkpt lat="45.17944" lon="0.72231">
        <ele>87.1</ele>
        <time>2021-10-24T13:55:02Z</time>
      </trkpt>
      <trkpt lat="45.17945" lon="0.72232">
        <ele>87.1</ele>
        <time>2021-10-24T13:55:03Z</time>
      </trkpt>
      <trkpt lat="45.17946" lon="0.72232">
        <ele>87.1</ele>
        <time>2021-10-24T13:55:04Z</time>
      </trkpt>
      <trkpt lat="45.17947" lon="0.72233">
        <ele>87.1</ele>
        <time>2021-10-24T13:55:05Z</time>
      </trkpt>
      <trkpt lat="45.17948" lon="0.72233">
        <ele>87.1</ele>
        <time>2021-10-24T13:55:06Z</time>
      </trkpt>
      <trkpt lat="45.17949" lon="0.72233">
        <ele>87.1</ele>
        <time>2021-10-24T13:55:08Z</time>
      </trkpt>
      <trkpt lat="45.1795" lon="0.72234">
        <ele>87.1</ele>
        <time>2021-10-24T13:55:09Z</time>
      </trkpt>
      <trkpt lat="45.1795" lon="0.72234">
        <ele>87.1</ele>
        <time>2021-10-24T13:55:10Z</time>
      </trkpt>
      <trkpt lat="45.17951" lon="0.72234">
        <ele>87.1</ele>
        <time>2021-10-24T13:55:11Z</time>
      </trkpt>
      <trkpt lat="45.17952" lon="0.72235">
        <ele>87.1</ele>
        <time>2021-10-24T13:55:12Z</time>
      </trkpt>
      <trkpt lat="45.17954" lon="0.72235">
        <ele>87.1</ele>
        <time>2021-10-24T13:55:13Z</time>
      </trkpt>
      <trkpt lat="45.17954" lon="0.72236">
        <ele>87.1</ele>
        <time>2021-10-24T13:55:14Z</time>
      </trkpt>
      <trkpt lat="45.17956" lon="0.72236">
        <ele>87.1</ele>
        <time>2021-10-24T13:55:15Z</time>
      </trkpt>
      <trkpt lat="45.17957" lon="0.72236">
        <ele>87.1</ele>
        <time>2021-10-24T13:55:17Z</time>
      </trkpt>
      <trkpt lat="45.17958" lon="0.72236">
        <ele>87.1</ele>
        <time>2021-10-24T13:55:18Z</time>
      </trkpt>
      <trkpt lat="45.17958" lon="0.72237">
        <ele>87.1</ele>
        <time>2021-10-24T13:55:19Z</time>
      </trkpt>
      <trkpt lat="45.17959" lon="0.72237">
        <ele>87.1</ele>
        <time>2021-10-24T13:55:20Z</time>
      </trkpt>
      <trkpt lat="45.1796" lon="0.72237">
        <ele>87.1</ele>
        <time>2021-10-24T13:55:21Z</time>
      </trkpt>
      <trkpt lat="45.17962" lon="0.72237">
        <ele>87.1</ele>
        <time>2021-10-24T13:55:23Z</time>
      </trkpt>
      <trkpt lat="45.17963" lon="0.72237">
        <ele>87.1</ele>
        <time>2021-10-24T13:55:24Z</time>
      </trkpt>
      <trkpt lat="45.17964" lon="0.72237">
        <ele>87.1</ele>
        <time>2021-10-24T13:55:25Z</time>
      </trkpt>
      <trkpt lat="45.17965" lon="0.72238">
        <ele>87.1</ele>
        <time>2021-10-24T13:55:26Z</time>
      </trkpt>
      <trkpt lat="45.17966" lon="0.72239">
        <ele>87.1</ele>
        <time>2021-10-24T13:55:27Z</time>
      </trkpt>
      <trkpt lat="45.17967" lon="0.72239">
        <ele>87.2</ele>
        <time>2021-10-24T13:55:29Z</time>
      </trkpt>
      <trkpt lat="45.17968" lon="0.7224">
        <ele>87.2</ele>
        <time>2021-10-24T13:55:30Z</time>
      </trkpt>
      <trkpt lat="45.17969" lon="0.7224">
        <ele>87.2</ele>
        <time>2021-10-24T13:55:31Z</time>
      </trkpt>
      <trkpt lat="45.1797" lon="0.72241">
        <ele>87.2</ele>
        <time>2021-10-24T13:55:32Z</time>
      </trkpt>
      <trkpt lat="45.17971" lon="0.72242">
        <ele>87.2</ele>
        <time>2021-10-24T13:55:33Z</time>
      </trkpt>
      <trkpt lat="45.17971" lon="0.72242">
        <ele>87.2</ele>
        <time>2021-10-24T13:55:34Z</time>
      </trkpt>
      <trkpt lat="45.17972" lon="0.72243">
        <ele>87.2</ele>
        <time>2021-10-24T13:55:36Z</time>
      </trkpt>
      <trkpt lat="45.17972" lon="0.72243">
        <ele>87.2</ele>
        <time>2021-10-24T13:55:37Z</time>
      </trkpt>
      <trkpt lat="45.17971" lon="0.72242">
        <ele>87.2</ele>
        <time>2021-10-24T13:55:39Z</time>
      </trkpt>
      <trkpt lat="45.17972" lon="0.72243">
        <ele>87.2</ele>
        <time>2021-10-24T13:55:40Z</time>
      </trkpt>
      <trkpt lat="45.17973" lon="0.72244">
        <ele>87.2</ele>
        <time>2021-10-24T13:55:41Z</time>
      </trkpt>
      <trkpt lat="45.17973" lon="0.72244">
        <ele>87.2</ele>
        <time>2021-10-24T13:55:42Z</time>
      </trkpt>
      <trkpt lat="45.17974" lon="0.72245">
        <ele>87.2</ele>
        <time>2021-10-24T13:55:43Z</time>
      </trkpt>
      <trkpt lat="45.17975" lon="0.72246">
        <ele>87.2</ele>
        <time>2021-10-24T13:55:44Z</time>
      </trkpt>
      <trkpt lat="45.17976" lon="0.72247">
        <ele>87.2</ele>
        <time>2021-10-24T13:55:45Z</time>
      </trkpt>
      <trkpt lat="45.17977" lon="0.72247">
        <ele>87.2</ele>
        <time>2021-10-24T13:55:47Z</time>
      </trkpt>
      <trkpt lat="45.17978" lon="0.72248">
        <ele>87.2</ele>
        <time>2021-10-24T13:55:48Z</time>
      </trkpt>
      <trkpt lat="45.17979" lon="0.72249">
        <ele>87.2</ele>
        <time>2021-10-24T13:55:49Z</time>
      </trkpt>
      <trkpt lat="45.17982" lon="0.72251">
        <ele>87.2</ele>
        <time>2021-10-24T13:55:51Z</time>
      </trkpt>
      <trkpt lat="45.17983" lon="0.72251">
        <ele>87.2</ele>
        <time>2021-10-24T13:55:52Z</time>
      </trkpt>
      <trkpt lat="45.17984" lon="0.72252">
        <ele>87.2</ele>
        <time>2021-10-24T13:55:53Z</time>
      </trkpt>
      <trkpt lat="45.17986" lon="0.72252">
        <ele>87.2</ele>
        <time>2021-10-24T13:55:54Z</time>
      </trkpt>
      <trkpt lat="45.17988" lon="0.72253">
        <ele>87.1</ele>
        <time>2021-10-24T13:55:55Z</time>
      </trkpt>
      <trkpt lat="45.17989" lon="0.72254">
        <ele>87.1</ele>
        <time>2021-10-24T13:55:57Z</time>
      </trkpt>
      <trkpt lat="45.1799" lon="0.72254">
        <ele>87.1</ele>
        <time>2021-10-24T13:55:58Z</time>
      </trkpt>
      <trkpt lat="45.17991" lon="0.72255">
        <ele>87.1</ele>
        <time>2021-10-24T13:55:59Z</time>
      </trkpt>
      <trkpt lat="45.17992" lon="0.72255">
        <ele>87.1</ele>
        <time>2021-10-24T13:56:00Z</time>
      </trkpt>
      <trkpt lat="45.17993" lon="0.72256">
        <ele>87.1</ele>
        <time>2021-10-24T13:56:01Z</time>
      </trkpt>
      <trkpt lat="45.17994" lon="0.72256">
        <ele>87.1</ele>
        <time>2021-10-24T13:56:02Z</time>
      </trkpt>
      <trkpt lat="45.17995" lon="0.72257">
        <ele>87.1</ele>
        <time>2021-10-24T13:56:03Z</time>
      </trkpt>
      <trkpt lat="45.17996" lon="0.72258">
        <ele>87.1</ele>
        <time>2021-10-24T13:56:05Z</time>
      </trkpt>
      <trkpt lat="45.17997" lon="0.72258">
        <ele>87.1</ele>
        <time>2021-10-24T13:56:06Z</time>
      </trkpt>
      <trkpt lat="45.17999" lon="0.72259">
        <ele>87.1</ele>
        <time>2021-10-24T13:56:08Z</time>
      </trkpt>
      <trkpt lat="45.18" lon="0.7226">
        <ele>87.1</ele>
        <time>2021-10-24T13:56:09Z</time>
      </trkpt>
      <trkpt lat="45.18001" lon="0.72261">
        <ele>87.1</ele>
        <time>2021-10-24T13:56:10Z</time>
      </trkpt>
      <trkpt lat="45.18002" lon="0.72262">
        <ele>87.1</ele>
        <time>2021-10-24T13:56:11Z</time>
      </trkpt>
      <trkpt lat="45.18004" lon="0.72263">
        <ele>87.1</ele>
        <time>2021-10-24T13:56:13Z</time>
      </trkpt>
      <trkpt lat="45.18006" lon="0.72264">
        <ele>87.1</ele>
        <time>2021-10-24T13:56:14Z</time>
      </trkpt>
      <trkpt lat="45.18007" lon="0.72264">
        <ele>87.1</ele>
        <time>2021-10-24T13:56:15Z</time>
      </trkpt>
      <trkpt lat="45.18009" lon="0.72265">
        <ele>87.1</ele>
        <time>2021-10-24T13:56:16Z</time>
      </trkpt>
      <trkpt lat="45.1801" lon="0.72266">
        <ele>87.1</ele>
        <time>2021-10-24T13:56:18Z</time>
      </trkpt>
      <trkpt lat="45.18011" lon="0.72266">
        <ele>87.1</ele>
        <time>2021-10-24T13:56:19Z</time>
      </trkpt>
      <trkpt lat="45.18012" lon="0.72266">
        <ele>87</ele>
        <time>2021-10-24T13:56:20Z</time>
      </trkpt>
      <trkpt lat="45.18013" lon="0.72267">
        <ele>87</ele>
        <time>2021-10-24T13:56:21Z</time>
      </trkpt>
      <trkpt lat="45.18014" lon="0.72267">
        <ele>87</ele>
        <time>2021-10-24T13:56:22Z</time>
      </trkpt>
      <trkpt lat="45.18015" lon="0.72268">
        <ele>87</ele>
        <time>2021-10-24T13:56:23Z</time>
      </trkpt>
      <trkpt lat="45.18016" lon="0.72268">
        <ele>87</ele>
        <time>2021-10-24T13:56:24Z</time>
      </trkpt>
      <trkpt lat="45.18018" lon="0.7227">
        <ele>87</ele>
        <time>2021-10-24T13:56:26Z</time>
      </trkpt>
      <trkpt lat="45.1802" lon="0.72271">
        <ele>87</ele>
        <time>2021-10-24T13:56:27Z</time>
      </trkpt>
      <trkpt lat="45.1802" lon="0.72272">
        <ele>87</ele>
        <time>2021-10-24T13:56:28Z</time>
      </trkpt>
      <trkpt lat="45.18021" lon="0.72272">
        <ele>87</ele>
        <time>2021-10-24T13:56:29Z</time>
      </trkpt>
      <trkpt lat="45.18022" lon="0.72272">
        <ele>87</ele>
        <time>2021-10-24T13:56:30Z</time>
      </trkpt>
      <trkpt lat="45.18023" lon="0.72273">
        <ele>87</ele>
        <time>2021-10-24T13:56:31Z</time>
      </trkpt>
      <trkpt lat="45.18024" lon="0.72274">
        <ele>87</ele>
        <time>2021-10-24T13:56:32Z</time>
      </trkpt>
      <trkpt lat="45.18026" lon="0.72275">
        <ele>86.9</ele>
        <time>2021-10-24T13:56:33Z</time>
      </trkpt>
      <trkpt lat="45.18027" lon="0.72276">
        <ele>86.9</ele>
        <time>2021-10-24T13:56:35Z</time>
      </trkpt>
      <trkpt lat="45.18028" lon="0.72277">
        <ele>86.9</ele>
        <time>2021-10-24T13:56:36Z</time>
      </trkpt>
      <trkpt lat="45.1803" lon="0.72278">
        <ele>86.9</ele>
        <time>2021-10-24T13:56:37Z</time>
      </trkpt>
      <trkpt lat="45.1803" lon="0.72279">
        <ele>86.9</ele>
        <time>2021-10-24T13:56:38Z</time>
      </trkpt>
      <trkpt lat="45.18031" lon="0.72279">
        <ele>86.9</ele>
        <time>2021-10-24T13:56:39Z</time>
      </trkpt>
      <trkpt lat="45.18032" lon="0.7228">
        <ele>86.9</ele>
        <time>2021-10-24T13:56:41Z</time>
      </trkpt>
      <trkpt lat="45.18033" lon="0.72281">
        <ele>86.9</ele>
        <time>2021-10-24T13:56:42Z</time>
      </trkpt>
      <trkpt lat="45.18033" lon="0.72281">
        <ele>86.9</ele>
        <time>2021-10-24T13:56:43Z</time>
      </trkpt>
      <trkpt lat="45.18034" lon="0.72281">
        <ele>86.9</ele>
        <time>2021-10-24T13:56:44Z</time>
      </trkpt>
      <trkpt lat="45.18035" lon="0.72281">
        <ele>86.9</ele>
        <time>2021-10-24T13:56:45Z</time>
      </trkpt>
      <trkpt lat="45.18035" lon="0.72281">
        <ele>86.9</ele>
        <time>2021-10-24T13:56:47Z</time>
      </trkpt>
      <trkpt lat="45.18035" lon="0.72282">
        <ele>86.9</ele>
        <time>2021-10-24T13:56:48Z</time>
      </trkpt>
      <trkpt lat="45.18035" lon="0.72283">
        <ele>86.9</ele>
        <time>2021-10-24T13:56:50Z</time>
      </trkpt>
      <trkpt lat="45.18035" lon="0.72283">
        <ele>86.9</ele>
        <time>2021-10-24T13:56:51Z</time>
      </trkpt>
      <trkpt lat="45.18035" lon="0.72284">
        <ele>86.9</ele>
        <time>2021-10-24T13:56:52Z</time>
      </trkpt>
      <trkpt lat="45.18037" lon="0.72286">
        <ele>86.9</ele>
        <time>2021-10-24T13:56:54Z</time>
      </trkpt>
      <trkpt lat="45.18039" lon="0.72288">
        <ele>86.9</ele>
        <time>2021-10-24T13:56:55Z</time>
      </trkpt>
      <trkpt lat="45.18039" lon="0.72289">
        <ele>86.9</ele>
        <time>2021-10-24T13:56:56Z</time>
      </trkpt>
      <trkpt lat="45.1804" lon="0.72289">
        <ele>86.9</ele>
        <time>2021-10-24T13:56:57Z</time>
      </trkpt>
      <trkpt lat="45.18041" lon="0.72291">
        <ele>86.9</ele>
        <time>2021-10-24T13:56:58Z</time>
      </trkpt>
      <trkpt lat="45.18042" lon="0.72292">
        <ele>86.9</ele>
        <time>2021-10-24T13:56:59Z</time>
      </trkpt>
      <trkpt lat="45.18043" lon="0.72293">
        <ele>86.9</ele>
        <time>2021-10-24T13:57:01Z</time>
      </trkpt>
      <trkpt lat="45.18045" lon="0.72294">
        <ele>86.9</ele>
        <time>2021-10-24T13:57:02Z</time>
      </trkpt>
      <trkpt lat="45.18046" lon="0.72295">
        <ele>86.9</ele>
        <time>2021-10-24T13:57:03Z</time>
      </trkpt>
      <trkpt lat="45.18047" lon="0.72296">
        <ele>86.9</ele>
        <time>2021-10-24T13:57:04Z</time>
      </trkpt>
      <trkpt lat="45.18048" lon="0.72297">
        <ele>86.9</ele>
        <time>2021-10-24T13:57:05Z</time>
      </trkpt>
      <trkpt lat="45.1805" lon="0.72298">
        <ele>86.8</ele>
        <time>2021-10-24T13:57:06Z</time>
      </trkpt>
      <trkpt lat="45.18051" lon="0.723">
        <ele>86.8</ele>
        <time>2021-10-24T13:57:08Z</time>
      </trkpt>
      <trkpt lat="45.18052" lon="0.72301">
        <ele>86.8</ele>
        <time>2021-10-24T13:57:09Z</time>
      </trkpt>
      <trkpt lat="45.18054" lon="0.72301">
        <ele>86.8</ele>
        <time>2021-10-24T13:57:10Z</time>
      </trkpt>
      <trkpt lat="45.18055" lon="0.72302">
        <ele>86.8</ele>
        <time>2021-10-24T13:57:11Z</time>
      </trkpt>
      <trkpt lat="45.18056" lon="0.72304">
        <ele>86.8</ele>
        <time>2021-10-24T13:57:13Z</time>
      </trkpt>
      <trkpt lat="45.18058" lon="0.72305">
        <ele>86.8</ele>
        <time>2021-10-24T13:57:14Z</time>
      </trkpt>
      <trkpt lat="45.18058" lon="0.72305">
        <ele>86.8</ele>
        <time>2021-10-24T13:57:15Z</time>
      </trkpt>
      <trkpt lat="45.18059" lon="0.72306">
        <ele>86.8</ele>
        <time>2021-10-24T13:57:16Z</time>
      </trkpt>
      <trkpt lat="45.18059" lon="0.72306">
        <ele>86.8</ele>
        <time>2021-10-24T13:57:17Z</time>
      </trkpt>
      <trkpt lat="45.1806" lon="0.72307">
        <ele>86.8</ele>
        <time>2021-10-24T13:57:19Z</time>
      </trkpt>
      <trkpt lat="45.18061" lon="0.72307">
        <ele>86.8</ele>
        <time>2021-10-24T13:57:20Z</time>
      </trkpt>
      <trkpt lat="45.18061" lon="0.72308">
        <ele>86.8</ele>
        <time>2021-10-24T13:57:21Z</time>
      </trkpt>
      <trkpt lat="45.18062" lon="0.72308">
        <ele>86.8</ele>
        <time>2021-10-24T13:57:22Z</time>
      </trkpt>
      <trkpt lat="45.18064" lon="0.72309">
        <ele>86.8</ele>
        <time>2021-10-24T13:57:24Z</time>
      </trkpt>
      <trkpt lat="45.18065" lon="0.7231">
        <ele>86.8</ele>
        <time>2021-10-24T13:57:25Z</time>
      </trkpt>
      <trkpt lat="45.18066" lon="0.72311">
        <ele>86.8</ele>
        <time>2021-10-24T13:57:26Z</time>
      </trkpt>
      <trkpt lat="45.18067" lon="0.72312">
        <ele>86.8</ele>
        <time>2021-10-24T13:57:27Z</time>
      </trkpt>
      <trkpt lat="45.18069" lon="0.72312">
        <ele>86.8</ele>
        <time>2021-10-24T13:57:29Z</time>
      </trkpt>
      <trkpt lat="45.18071" lon="0.72312">
        <ele>86.8</ele>
        <time>2021-10-24T13:57:30Z</time>
      </trkpt>
      <trkpt lat="45.18072" lon="0.72312">
        <ele>86.8</ele>
        <time>2021-10-24T13:57:31Z</time>
      </trkpt>
      <trkpt lat="45.18073" lon="0.72312">
        <ele>86.8</ele>
        <time>2021-10-24T13:57:32Z</time>
      </trkpt>
      <trkpt lat="45.18074" lon="0.72312">
        <ele>86.8</ele>
        <time>2021-10-24T13:57:33Z</time>
      </trkpt>
      <trkpt lat="45.18076" lon="0.72312">
        <ele>86.8</ele>
        <time>2021-10-24T13:57:34Z</time>
      </trkpt>
      <trkpt lat="45.18079" lon="0.72312">
        <ele>86.8</ele>
        <time>2021-10-24T13:57:36Z</time>
      </trkpt>
      <trkpt lat="45.18079" lon="0.72312">
        <ele>86.8</ele>
        <time>2021-10-24T13:57:37Z</time>
      </trkpt>
      <trkpt lat="45.18081" lon="0.72312">
        <ele>86.8</ele>
        <time>2021-10-24T13:57:38Z</time>
      </trkpt>
      <trkpt lat="45.18082" lon="0.72312">
        <ele>86.8</ele>
        <time>2021-10-24T13:57:39Z</time>
      </trkpt>
      <trkpt lat="45.18084" lon="0.72313">
        <ele>86.8</ele>
        <time>2021-10-24T13:57:41Z</time>
      </trkpt>
      <trkpt lat="45.18085" lon="0.72314">
        <ele>86.9</ele>
        <time>2021-10-24T13:57:42Z</time>
      </trkpt>
      <trkpt lat="45.18086" lon="0.72314">
        <ele>86.9</ele>
        <time>2021-10-24T13:57:43Z</time>
      </trkpt>
      <trkpt lat="45.18087" lon="0.72315">
        <ele>86.9</ele>
        <time>2021-10-24T13:57:45Z</time>
      </trkpt>
      <trkpt lat="45.18088" lon="0.72315">
        <ele>86.9</ele>
        <time>2021-10-24T13:57:46Z</time>
      </trkpt>
      <trkpt lat="45.18089" lon="0.72315">
        <ele>86.9</ele>
        <time>2021-10-24T13:57:47Z</time>
      </trkpt>
      <trkpt lat="45.1809" lon="0.72315">
        <ele>86.9</ele>
        <time>2021-10-24T13:57:48Z</time>
      </trkpt>
      <trkpt lat="45.18091" lon="0.72316">
        <ele>86.9</ele>
        <time>2021-10-24T13:57:49Z</time>
      </trkpt>
      <trkpt lat="45.18092" lon="0.72317">
        <ele>86.9</ele>
        <time>2021-10-24T13:57:51Z</time>
      </trkpt>
      <trkpt lat="45.18093" lon="0.72317">
        <ele>86.9</ele>
        <time>2021-10-24T13:57:52Z</time>
      </trkpt>
      <trkpt lat="45.18094" lon="0.72318">
        <ele>86.9</ele>
        <time>2021-10-24T13:57:53Z</time>
      </trkpt>
      <trkpt lat="45.18095" lon="0.72319">
        <ele>86.9</ele>
        <time>2021-10-24T13:57:54Z</time>
      </trkpt>
      <trkpt lat="45.18097" lon="0.72319">
        <ele>87</ele>
        <time>2021-10-24T13:57:56Z</time>
      </trkpt>
      <trkpt lat="45.18098" lon="0.7232">
        <ele>87</ele>
        <time>2021-10-24T13:57:57Z</time>
      </trkpt>
      <trkpt lat="45.18098" lon="0.72321">
        <ele>87</ele>
        <time>2021-10-24T13:57:58Z</time>
      </trkpt>
      <trkpt lat="45.18099" lon="0.72322">
        <ele>87</ele>
        <time>2021-10-24T13:58:00Z</time>
      </trkpt>
      <trkpt lat="45.18101" lon="0.72323">
        <ele>87</ele>
        <time>2021-10-24T13:58:01Z</time>
      </trkpt>
      <trkpt lat="45.18101" lon="0.72323">
        <ele>87</ele>
        <time>2021-10-24T13:58:02Z</time>
      </trkpt>
      <trkpt lat="45.18103" lon="0.72323">
        <ele>87</ele>
        <time>2021-10-24T13:58:03Z</time>
      </trkpt>
      <trkpt lat="45.18104" lon="0.72323">
        <ele>87</ele>
        <time>2021-10-24T13:58:05Z</time>
      </trkpt>
      <trkpt lat="45.18105" lon="0.72324">
        <ele>87</ele>
        <time>2021-10-24T13:58:06Z</time>
      </trkpt>
      <trkpt lat="45.18107" lon="0.72324">
        <ele>87</ele>
        <time>2021-10-24T13:58:07Z</time>
      </trkpt>
      <trkpt lat="45.18108" lon="0.72324">
        <ele>87</ele>
        <time>2021-10-24T13:58:09Z</time>
      </trkpt>
      <trkpt lat="45.18109" lon="0.72325">
        <ele>87</ele>
        <time>2021-10-24T13:58:10Z</time>
      </trkpt>
      <trkpt lat="45.1811" lon="0.72326">
        <ele>87</ele>
        <time>2021-10-24T13:58:11Z</time>
      </trkpt>
      <trkpt lat="45.1811" lon="0.72326">
        <ele>87</ele>
        <time>2021-10-24T13:58:12Z</time>
      </trkpt>
      <trkpt lat="45.18111" lon="0.72326">
        <ele>87</ele>
        <time>2021-10-24T13:58:14Z</time>
      </trkpt>
      <trkpt lat="45.18111" lon="0.72327">
        <ele>87</ele>
        <time>2021-10-24T13:58:16Z</time>
      </trkpt>
      <trkpt lat="45.18111" lon="0.72327">
        <ele>87</ele>
        <time>2021-10-24T13:58:17Z</time>
      </trkpt>
      <trkpt lat="45.18111" lon="0.72327">
        <ele>87</ele>
        <time>2021-10-24T13:58:19Z</time>
      </trkpt>
      <trkpt lat="45.18111" lon="0.72327">
        <ele>87</ele>
        <time>2021-10-24T13:58:20Z</time>
      </trkpt>
      <trkpt lat="45.18111" lon="0.72327">
        <ele>87</ele>
        <time>2021-10-24T13:58:21Z</time>
      </trkpt>
      <trkpt lat="45.18112" lon="0.72327">
        <ele>87</ele>
        <time>2021-10-24T13:58:23Z</time>
      </trkpt>
      <trkpt lat="45.18112" lon="0.72328">
        <ele>87</ele>
        <time>2021-10-24T13:58:24Z</time>
      </trkpt>
      <trkpt lat="45.18112" lon="0.72328">
        <ele>87</ele>
        <time>2021-10-24T13:58:26Z</time>
      </trkpt>
      <trkpt lat="45.18112" lon="0.72328">
        <ele>87</ele>
        <time>2021-10-24T13:58:28Z</time>
      </trkpt>
      <trkpt lat="45.18112" lon="0.72328">
        <ele>87</ele>
        <time>2021-10-24T13:58:30Z</time>
      </trkpt>
      <trkpt lat="45.18112" lon="0.72328">
        <ele>87</ele>
        <time>2021-10-24T13:58:32Z</time>
      </trkpt>
      <trkpt lat="45.18113" lon="0.72328">
        <ele>87</ele>
        <time>2021-10-24T13:58:33Z</time>
      </trkpt>
      <trkpt lat="45.18113" lon="0.72328">
        <ele>87</ele>
        <time>2021-10-24T13:58:34Z</time>
      </trkpt>
      <trkpt lat="45.18113" lon="0.72329">
        <ele>87</ele>
        <time>2021-10-24T13:58:35Z</time>
      </trkpt>
      <trkpt lat="45.18114" lon="0.72331">
        <ele>87</ele>
        <time>2021-10-24T13:58:36Z</time>
      </trkpt>
      <trkpt lat="45.18115" lon="0.72332">
        <ele>87.1</ele>
        <time>2021-10-24T13:58:38Z</time>
      </trkpt>
      <trkpt lat="45.18115" lon="0.72333">
        <ele>87.1</ele>
        <time>2021-10-24T13:58:39Z</time>
      </trkpt>
      <trkpt lat="45.18116" lon="0.72334">
        <ele>87.1</ele>
        <time>2021-10-24T13:58:40Z</time>
      </trkpt>
      <trkpt lat="45.18117" lon="0.72335">
        <ele>87.1</ele>
        <time>2021-10-24T13:58:41Z</time>
      </trkpt>
      <trkpt lat="45.18117" lon="0.72335">
        <ele>87.1</ele>
        <time>2021-10-24T13:58:43Z</time>
      </trkpt>
      <trkpt lat="45.18118" lon="0.72335">
        <ele>87.1</ele>
        <time>2021-10-24T13:58:44Z</time>
      </trkpt>
      <trkpt lat="45.18118" lon="0.72335">
        <ele>87.1</ele>
        <time>2021-10-24T13:58:46Z</time>
      </trkpt>
      <trkpt lat="45.18119" lon="0.72335">
        <ele>87.1</ele>
        <time>2021-10-24T13:58:48Z</time>
      </trkpt>
      <trkpt lat="45.18119" lon="0.72335">
        <ele>87.1</ele>
        <time>2021-10-24T13:58:49Z</time>
      </trkpt>
      <trkpt lat="45.1812" lon="0.72335">
        <ele>87.1</ele>
        <time>2021-10-24T13:58:50Z</time>
      </trkpt>
      <trkpt lat="45.18121" lon="0.72336">
        <ele>87.1</ele>
        <time>2021-10-24T13:58:51Z</time>
      </trkpt>
      <trkpt lat="45.18121" lon="0.72336">
        <ele>87.1</ele>
        <time>2021-10-24T13:58:53Z</time>
      </trkpt>
      <trkpt lat="45.18122" lon="0.72336">
        <ele>87.1</ele>
        <time>2021-10-24T13:58:54Z</time>
      </trkpt>
      <trkpt lat="45.18122" lon="0.72336">
        <ele>87.1</ele>
        <time>2021-10-24T13:58:55Z</time>
      </trkpt>
      <trkpt lat="45.18123" lon="0.72336">
        <ele>87.1</ele>
        <time>2021-10-24T13:58:57Z</time>
      </trkpt>
      <trkpt lat="45.18123" lon="0.72336">
        <ele>87.1</ele>
        <time>2021-10-24T13:58:58Z</time>
      </trkpt>
      <trkpt lat="45.18124" lon="0.72337">
        <ele>87.1</ele>
        <time>2021-10-24T13:59:00Z</time>
      </trkpt>
      <trkpt lat="45.18124" lon="0.72337">
        <ele>87.1</ele>
        <time>2021-10-24T13:59:01Z</time>
      </trkpt>
      <trkpt lat="45.18125" lon="0.72337">
        <ele>87.1</ele>
        <time>2021-10-24T13:59:02Z</time>
      </trkpt>
      <trkpt lat="45.18127" lon="0.72337">
        <ele>87.1</ele>
        <time>2021-10-24T13:59:04Z</time>
      </trkpt>
      <trkpt lat="45.18128" lon="0.72337">
        <ele>87.1</ele>
        <time>2021-10-24T13:59:05Z</time>
      </trkpt>
      <trkpt lat="45.18129" lon="0.72337">
        <ele>87.1</ele>
        <time>2021-10-24T13:59:06Z</time>
      </trkpt>
      <trkpt lat="45.1813" lon="0.72337">
        <ele>87.1</ele>
        <time>2021-10-24T13:59:08Z</time>
      </trkpt>
      <trkpt lat="45.18131" lon="0.72337">
        <ele>87.1</ele>
        <time>2021-10-24T13:59:10Z</time>
      </trkpt>
      <trkpt lat="45.18132" lon="0.72337">
        <ele>87.1</ele>
        <time>2021-10-24T13:59:12Z</time>
      </trkpt>
      <trkpt lat="45.18132" lon="0.72337">
        <ele>87.1</ele>
        <time>2021-10-24T13:59:13Z</time>
      </trkpt>
      <trkpt lat="45.18134" lon="0.72337">
        <ele>87.1</ele>
        <time>2021-10-24T13:59:14Z</time>
      </trkpt>
      <trkpt lat="45.18134" lon="0.72337">
        <ele>87.1</ele>
        <time>2021-10-24T13:59:15Z</time>
      </trkpt>
      <trkpt lat="45.18135" lon="0.72338">
        <ele>87.1</ele>
        <time>2021-10-24T13:59:16Z</time>
      </trkpt>
      <trkpt lat="45.18136" lon="0.72338">
        <ele>87.1</ele>
        <time>2021-10-24T13:59:18Z</time>
      </trkpt>
      <trkpt lat="45.18137" lon="0.72338">
        <ele>87.2</ele>
        <time>2021-10-24T13:59:19Z</time>
      </trkpt>
      <trkpt lat="45.18138" lon="0.72338">
        <ele>87.2</ele>
        <time>2021-10-24T13:59:20Z</time>
      </trkpt>
      <trkpt lat="45.1814" lon="0.72338">
        <ele>87.2</ele>
        <time>2021-10-24T13:59:21Z</time>
      </trkpt>
      <trkpt lat="45.18141" lon="0.72338">
        <ele>87.2</ele>
        <time>2021-10-24T13:59:22Z</time>
      </trkpt>
      <trkpt lat="45.18143" lon="0.72338">
        <ele>87.2</ele>
        <time>2021-10-24T13:59:23Z</time>
      </trkpt>
      <trkpt lat="45.18144" lon="0.72338">
        <ele>87.2</ele>
        <time>2021-10-24T13:59:25Z</time>
      </trkpt>
      <trkpt lat="45.18144" lon="0.72338">
        <ele>87.2</ele>
        <time>2021-10-24T13:59:26Z</time>
      </trkpt>
      <trkpt lat="45.18146" lon="0.72338">
        <ele>87.2</ele>
        <time>2021-10-24T13:59:27Z</time>
      </trkpt>
      <trkpt lat="45.18147" lon="0.72338">
        <ele>87.2</ele>
        <time>2021-10-24T13:59:28Z</time>
      </trkpt>
      <trkpt lat="45.18148" lon="0.72338">
        <ele>87.2</ele>
        <time>2021-10-24T13:59:29Z</time>
      </trkpt>
      <trkpt lat="45.1815" lon="0.72338">
        <ele>87.2</ele>
        <time>2021-10-24T13:59:31Z</time>
      </trkpt>
      <trkpt lat="45.18151" lon="0.72338">
        <ele>87.2</ele>
        <time>2021-10-24T13:59:32Z</time>
      </trkpt>
      <trkpt lat="45.18151" lon="0.72338">
        <ele>87.3</ele>
        <time>2021-10-24T13:59:33Z</time>
      </trkpt>
      <trkpt lat="45.18154" lon="0.7234">
        <ele>87.3</ele>
        <time>2021-10-24T13:59:35Z</time>
      </trkpt>
      <trkpt lat="45.18154" lon="0.7234">
        <ele>87.3</ele>
        <time>2021-10-24T13:59:36Z</time>
      </trkpt>
      <trkpt lat="45.18155" lon="0.72341">
        <ele>87.3</ele>
        <time>2021-10-24T13:59:37Z</time>
      </trkpt>
      <trkpt lat="45.18156" lon="0.72342">
        <ele>87.3</ele>
        <time>2021-10-24T13:59:39Z</time>
      </trkpt>
      <trkpt lat="45.18157" lon="0.72342">
        <ele>87.3</ele>
        <time>2021-10-24T13:59:40Z</time>
      </trkpt>
      <trkpt lat="45.18158" lon="0.72343">
        <ele>87.3</ele>
        <time>2021-10-24T13:59:41Z</time>
      </trkpt>
      <trkpt lat="45.18159" lon="0.72344">
        <ele>87.3</ele>
        <time>2021-10-24T13:59:42Z</time>
      </trkpt>
      <trkpt lat="45.1816" lon="0.72345">
        <ele>87.3</ele>
        <time>2021-10-24T13:59:43Z</time>
      </trkpt>
      <trkpt lat="45.18161" lon="0.72345">
        <ele>87.3</ele>
        <time>2021-10-24T13:59:45Z</time>
      </trkpt>
      <trkpt lat="45.18162" lon="0.72345">
        <ele>87.3</ele>
        <time>2021-10-24T13:59:46Z</time>
      </trkpt>
      <trkpt lat="45.18163" lon="0.72346">
        <ele>87.3</ele>
        <time>2021-10-24T13:59:47Z</time>
      </trkpt>
      <trkpt lat="45.18164" lon="0.72346">
        <ele>87.3</ele>
        <time>2021-10-24T13:59:49Z</time>
      </trkpt>
      <trkpt lat="45.18165" lon="0.72347">
        <ele>87.3</ele>
        <time>2021-10-24T13:59:50Z</time>
      </trkpt>
      <trkpt lat="45.18166" lon="0.72347">
        <ele>87.3</ele>
        <time>2021-10-24T13:59:51Z</time>
      </trkpt>
      <trkpt lat="45.18167" lon="0.72347">
        <ele>87.3</ele>
        <time>2021-10-24T13:59:52Z</time>
      </trkpt>
      <trkpt lat="45.18168" lon="0.72348">
        <ele>87.4</ele>
        <time>2021-10-24T13:59:53Z</time>
      </trkpt>
      <trkpt lat="45.18169" lon="0.72348">
        <ele>87.4</ele>
        <time>2021-10-24T13:59:54Z</time>
      </trkpt>
      <trkpt lat="45.18171" lon="0.72349">
        <ele>87.4</ele>
        <time>2021-10-24T13:59:55Z</time>
      </trkpt>
      <trkpt lat="45.18172" lon="0.7235">
        <ele>87.4</ele>
        <time>2021-10-24T13:59:57Z</time>
      </trkpt>
      <trkpt lat="45.18173" lon="0.7235">
        <ele>87.4</ele>
        <time>2021-10-24T13:59:58Z</time>
      </trkpt>
      <trkpt lat="45.18174" lon="0.7235">
        <ele>87.4</ele>
        <time>2021-10-24T13:59:59Z</time>
      </trkpt>
      <trkpt lat="45.18176" lon="0.72351">
        <ele>87.4</ele>
        <time>2021-10-24T14:00:00Z</time>
      </trkpt>
      <trkpt lat="45.18177" lon="0.72351">
        <ele>87.4</ele>
        <time>2021-10-24T14:00:02Z</time>
      </trkpt>
      <trkpt lat="45.18177" lon="0.72352">
        <ele>87.4</ele>
        <time>2021-10-24T14:00:03Z</time>
      </trkpt>
      <trkpt lat="45.18179" lon="0.72353">
        <ele>87.4</ele>
        <time>2021-10-24T14:00:04Z</time>
      </trkpt>
      <trkpt lat="45.1818" lon="0.72353">
        <ele>87.4</ele>
        <time>2021-10-24T14:00:06Z</time>
      </trkpt>
      <trkpt lat="45.18181" lon="0.72354">
        <ele>87.4</ele>
        <time>2021-10-24T14:00:07Z</time>
      </trkpt>
      <trkpt lat="45.18183" lon="0.72354">
        <ele>87.4</ele>
        <time>2021-10-24T14:00:08Z</time>
      </trkpt>
      <trkpt lat="45.18184" lon="0.72355">
        <ele>87.4</ele>
        <time>2021-10-24T14:00:09Z</time>
      </trkpt>
      <trkpt lat="45.18186" lon="0.72356">
        <ele>87.4</ele>
        <time>2021-10-24T14:00:10Z</time>
      </trkpt>
      <trkpt lat="45.18186" lon="0.72356">
        <ele>87.4</ele>
        <time>2021-10-24T14:00:12Z</time>
      </trkpt>
      <trkpt lat="45.18187" lon="0.72357">
        <ele>87.4</ele>
        <time>2021-10-24T14:00:13Z</time>
      </trkpt>
      <trkpt lat="45.18188" lon="0.72357">
        <ele>87.4</ele>
        <time>2021-10-24T14:00:14Z</time>
      </trkpt>
      <trkpt lat="45.18189" lon="0.72358">
        <ele>87.4</ele>
        <time>2021-10-24T14:00:15Z</time>
      </trkpt>
      <trkpt lat="45.1819" lon="0.72358">
        <ele>87.5</ele>
        <time>2021-10-24T14:00:16Z</time>
      </trkpt>
      <trkpt lat="45.18191" lon="0.72359">
        <ele>87.5</ele>
        <time>2021-10-24T14:00:17Z</time>
      </trkpt>
      <trkpt lat="45.18193" lon="0.72359">
        <ele>87.5</ele>
        <time>2021-10-24T14:00:19Z</time>
      </trkpt>
      <trkpt lat="45.18193" lon="0.7236">
        <ele>87.5</ele>
        <time>2021-10-24T14:00:20Z</time>
      </trkpt>
      <trkpt lat="45.18194" lon="0.7236">
        <ele>87.5</ele>
        <time>2021-10-24T14:00:21Z</time>
      </trkpt>
      <trkpt lat="45.18195" lon="0.7236">
        <ele>87.5</ele>
        <time>2021-10-24T14:00:22Z</time>
      </trkpt>
      <trkpt lat="45.18196" lon="0.72361">
        <ele>87.5</ele>
        <time>2021-10-24T14:00:23Z</time>
      </trkpt>
      <trkpt lat="45.18197" lon="0.72361">
        <ele>87.5</ele>
        <time>2021-10-24T14:00:24Z</time>
      </trkpt>
      <trkpt lat="45.18198" lon="0.72362">
        <ele>87.5</ele>
        <time>2021-10-24T14:00:26Z</time>
      </trkpt>
      <trkpt lat="45.18199" lon="0.72362">
        <ele>87.5</ele>
        <time>2021-10-24T14:00:27Z</time>
      </trkpt>
      <trkpt lat="45.182" lon="0.72363">
        <ele>87.5</ele>
        <time>2021-10-24T14:00:28Z</time>
      </trkpt>
      <trkpt lat="45.18201" lon="0.72363">
        <ele>87.5</ele>
        <time>2021-10-24T14:00:29Z</time>
      </trkpt>
      <trkpt lat="45.18202" lon="0.72363">
        <ele>87.5</ele>
        <time>2021-10-24T14:00:30Z</time>
      </trkpt>
      <trkpt lat="45.18204" lon="0.72364">
        <ele>87.6</ele>
        <time>2021-10-24T14:00:32Z</time>
      </trkpt>
      <trkpt lat="45.18205" lon="0.72364">
        <ele>87.6</ele>
        <time>2021-10-24T14:00:33Z</time>
      </trkpt>
      <trkpt lat="45.18206" lon="0.72364">
        <ele>87.6</ele>
        <time>2021-10-24T14:00:34Z</time>
      </trkpt>
      <trkpt lat="45.18208" lon="0.72365">
        <ele>87.6</ele>
        <time>2021-10-24T14:00:36Z</time>
      </trkpt>
      <trkpt lat="45.18209" lon="0.72366">
        <ele>87.6</ele>
        <time>2021-10-24T14:00:37Z</time>
      </trkpt>
      <trkpt lat="45.1821" lon="0.72366">
        <ele>87.6</ele>
        <time>2021-10-24T14:00:38Z</time>
      </trkpt>
      <trkpt lat="45.18212" lon="0.72366">
        <ele>87.6</ele>
        <time>2021-10-24T14:00:39Z</time>
      </trkpt>
      <trkpt lat="45.18213" lon="0.72367">
        <ele>87.6</ele>
        <time>2021-10-24T14:00:41Z</time>
      </trkpt>
      <trkpt lat="45.18214" lon="0.72367">
        <ele>87.6</ele>
        <time>2021-10-24T14:00:42Z</time>
      </trkpt>
      <trkpt lat="45.18215" lon="0.72367">
        <ele>87.6</ele>
        <time>2021-10-24T14:00:43Z</time>
      </trkpt>
      <trkpt lat="45.18216" lon="0.72367">
        <ele>87.7</ele>
        <time>2021-10-24T14:00:44Z</time>
      </trkpt>
      <trkpt lat="45.18217" lon="0.72368">
        <ele>87.7</ele>
        <time>2021-10-24T14:00:45Z</time>
      </trkpt>
      <trkpt lat="45.18218" lon="0.72368">
        <ele>87.7</ele>
        <time>2021-10-24T14:00:47Z</time>
      </trkpt>
      <trkpt lat="45.18219" lon="0.72369">
        <ele>87.7</ele>
        <time>2021-10-24T14:00:48Z</time>
      </trkpt>
      <trkpt lat="45.1822" lon="0.7237">
        <ele>87.7</ele>
        <time>2021-10-24T14:00:49Z</time>
      </trkpt>
      <trkpt lat="45.18221" lon="0.72371">
        <ele>87.7</ele>
        <time>2021-10-24T14:00:50Z</time>
      </trkpt>
      <trkpt lat="45.18223" lon="0.72371">
        <ele>87.7</ele>
        <time>2021-10-24T14:00:51Z</time>
      </trkpt>
      <trkpt lat="45.18223" lon="0.72372">
        <ele>87.7</ele>
        <time>2021-10-24T14:00:53Z</time>
      </trkpt>
      <trkpt lat="45.18224" lon="0.72372">
        <ele>87.7</ele>
        <time>2021-10-24T14:00:54Z</time>
      </trkpt>
      <trkpt lat="45.18226" lon="0.72373">
        <ele>87.8</ele>
        <time>2021-10-24T14:00:56Z</time>
      </trkpt>
      <trkpt lat="45.18227" lon="0.72374">
        <ele>87.8</ele>
        <time>2021-10-24T14:00:57Z</time>
      </trkpt>
      <trkpt lat="45.18227" lon="0.72374">
        <ele>87.8</ele>
        <time>2021-10-24T14:00:58Z</time>
      </trkpt>
      <trkpt lat="45.18228" lon="0.72374">
        <ele>87.8</ele>
        <time>2021-10-24T14:00:59Z</time>
      </trkpt>
      <trkpt lat="45.18229" lon="0.72375">
        <ele>87.8</ele>
        <time>2021-10-24T14:01:01Z</time>
      </trkpt>
      <trkpt lat="45.1823" lon="0.72375">
        <ele>87.8</ele>
        <time>2021-10-24T14:01:02Z</time>
      </trkpt>
      <trkpt lat="45.18231" lon="0.72376">
        <ele>87.8</ele>
        <time>2021-10-24T14:01:03Z</time>
      </trkpt>
      <trkpt lat="45.18232" lon="0.72376">
        <ele>87.9</ele>
        <time>2021-10-24T14:01:04Z</time>
      </trkpt>
      <trkpt lat="45.18233" lon="0.72377">
        <ele>87.9</ele>
        <time>2021-10-24T14:01:05Z</time>
      </trkpt>
      <trkpt lat="45.18235" lon="0.72377">
        <ele>87.9</ele>
        <time>2021-10-24T14:01:06Z</time>
      </trkpt>
      <trkpt lat="45.18236" lon="0.72377">
        <ele>87.9</ele>
        <time>2021-10-24T14:01:08Z</time>
      </trkpt>
      <trkpt lat="45.18237" lon="0.72378">
        <ele>87.9</ele>
        <time>2021-10-24T14:01:09Z</time>
      </trkpt>
      <trkpt lat="45.18238" lon="0.72378">
        <ele>88</ele>
        <time>2021-10-24T14:01:10Z</time>
      </trkpt>
      <trkpt lat="45.18239" lon="0.72379">
        <ele>88</ele>
        <time>2021-10-24T14:01:11Z</time>
      </trkpt>
      <trkpt lat="45.1824" lon="0.72379">
        <ele>88</ele>
        <time>2021-10-24T14:01:12Z</time>
      </trkpt>
      <trkpt lat="45.18242" lon="0.7238">
        <ele>88.1</ele>
        <time>2021-10-24T14:01:14Z</time>
      </trkpt>
      <trkpt lat="45.18243" lon="0.7238">
        <ele>88.1</ele>
        <time>2021-10-24T14:01:15Z</time>
      </trkpt>
      <trkpt lat="45.18243" lon="0.7238">
        <ele>88.1</ele>
        <time>2021-10-24T14:01:17Z</time>
      </trkpt>
      <trkpt lat="45.18244" lon="0.7238">
        <ele>88.1</ele>
        <time>2021-10-24T14:01:18Z</time>
      </trkpt>
      <trkpt lat="45.18245" lon="0.72381">
        <ele>88.2</ele>
        <time>2021-10-24T14:01:19Z</time>
      </trkpt>
      <trkpt lat="45.18246" lon="0.72381">
        <ele>88.2</ele>
        <time>2021-10-24T14:01:20Z</time>
      </trkpt>
      <trkpt lat="45.18247" lon="0.72381">
        <ele>88.2</ele>
        <time>2021-10-24T14:01:21Z</time>
      </trkpt>
      <trkpt lat="45.18248" lon="0.72381">
        <ele>88.2</ele>
        <time>2021-10-24T14:01:22Z</time>
      </trkpt>
      <trkpt lat="45.18249" lon="0.72381">
        <ele>88.3</ele>
        <time>2021-10-24T14:01:23Z</time>
      </trkpt>
      <trkpt lat="45.1825" lon="0.72381">
        <ele>88.3</ele>
        <time>2021-10-24T14:01:24Z</time>
      </trkpt>
      <trkpt lat="45.18251" lon="0.72381">
        <ele>88.3</ele>
        <time>2021-10-24T14:01:26Z</time>
      </trkpt>
      <trkpt lat="45.18252" lon="0.72382">
        <ele>88.4</ele>
        <time>2021-10-24T14:01:27Z</time>
      </trkpt>
      <trkpt lat="45.18253" lon="0.72382">
        <ele>88.4</ele>
        <time>2021-10-24T14:01:28Z</time>
      </trkpt>
      <trkpt lat="45.18255" lon="0.72383">
        <ele>88.4</ele>
        <time>2021-10-24T14:01:29Z</time>
      </trkpt>
      <trkpt lat="45.18256" lon="0.72383">
        <ele>88.5</ele>
        <time>2021-10-24T14:01:30Z</time>
      </trkpt>
      <trkpt lat="45.18257" lon="0.72383">
        <ele>88.5</ele>
        <time>2021-10-24T14:01:32Z</time>
      </trkpt>
      <trkpt lat="45.18258" lon="0.72383">
        <ele>88.6</ele>
        <time>2021-10-24T14:01:33Z</time>
      </trkpt>
      <trkpt lat="45.18259" lon="0.72383">
        <ele>88.6</ele>
        <time>2021-10-24T14:01:34Z</time>
      </trkpt>
      <trkpt lat="45.1826" lon="0.72384">
        <ele>88.6</ele>
        <time>2021-10-24T14:01:35Z</time>
      </trkpt>
      <trkpt lat="45.18261" lon="0.72384">
        <ele>88.7</ele>
        <time>2021-10-24T14:01:37Z</time>
      </trkpt>
      <trkpt lat="45.18262" lon="0.72384">
        <ele>88.7</ele>
        <time>2021-10-24T14:01:38Z</time>
      </trkpt>
      <trkpt lat="45.18263" lon="0.72384">
        <ele>88.7</ele>
        <time>2021-10-24T14:01:39Z</time>
      </trkpt>
      <trkpt lat="45.18264" lon="0.72384">
        <ele>88.8</ele>
        <time>2021-10-24T14:01:40Z</time>
      </trkpt>
      <trkpt lat="45.18265" lon="0.72384">
        <ele>88.8</ele>
        <time>2021-10-24T14:01:42Z</time>
      </trkpt>
      <trkpt lat="45.18267" lon="0.72384">
        <ele>88.9</ele>
        <time>2021-10-24T14:01:43Z</time>
      </trkpt>
      <trkpt lat="45.18268" lon="0.72384">
        <ele>88.9</ele>
        <time>2021-10-24T14:01:44Z</time>
      </trkpt>
      <trkpt lat="45.18269" lon="0.72384">
        <ele>89</ele>
        <time>2021-10-24T14:01:46Z</time>
      </trkpt>
      <trkpt lat="45.18269" lon="0.72384">
        <ele>89</ele>
        <time>2021-10-24T14:01:47Z</time>
      </trkpt>
      <trkpt lat="45.18271" lon="0.72384">
        <ele>89.1</ele>
        <time>2021-10-24T14:01:48Z</time>
      </trkpt>
      <trkpt lat="45.18272" lon="0.72384">
        <ele>89.1</ele>
        <time>2021-10-24T14:01:49Z</time>
      </trkpt>
      <trkpt lat="45.18273" lon="0.72384">
        <ele>89.1</ele>
        <time>2021-10-24T14:01:50Z</time>
      </trkpt>
      <trkpt lat="45.18274" lon="0.72384">
        <ele>89.2</ele>
        <time>2021-10-24T14:01:52Z</time>
      </trkpt>
      <trkpt lat="45.18275" lon="0.72384">
        <ele>89.2</ele>
        <time>2021-10-24T14:01:53Z</time>
      </trkpt>
      <trkpt lat="45.18276" lon="0.72386">
        <ele>89.3</ele>
        <time>2021-10-24T14:01:54Z</time>
      </trkpt>
      <trkpt lat="45.18277" lon="0.72387">
        <ele>89.3</ele>
        <time>2021-10-24T14:01:55Z</time>
      </trkpt>
      <trkpt lat="45.18278" lon="0.72387">
        <ele>89.4</ele>
        <time>2021-10-24T14:01:57Z</time>
      </trkpt>
      <trkpt lat="45.18279" lon="0.72388">
        <ele>89.4</ele>
        <time>2021-10-24T14:01:58Z</time>
      </trkpt>
      <trkpt lat="45.1828" lon="0.72389">
        <ele>89.5</ele>
        <time>2021-10-24T14:01:59Z</time>
      </trkpt>
      <trkpt lat="45.18281" lon="0.7239">
        <ele>89.6</ele>
        <time>2021-10-24T14:02:00Z</time>
      </trkpt>
      <trkpt lat="45.18282" lon="0.7239">
        <ele>89.6</ele>
        <time>2021-10-24T14:02:01Z</time>
      </trkpt>
      <trkpt lat="45.18283" lon="0.72391">
        <ele>89.7</ele>
        <time>2021-10-24T14:02:03Z</time>
      </trkpt>
      <trkpt lat="45.18284" lon="0.72391">
        <ele>89.7</ele>
        <time>2021-10-24T14:02:04Z</time>
      </trkpt>
      <trkpt lat="45.18286" lon="0.72392">
        <ele>89.8</ele>
        <time>2021-10-24T14:02:05Z</time>
      </trkpt>
      <trkpt lat="45.18287" lon="0.72392">
        <ele>89.9</ele>
        <time>2021-10-24T14:02:06Z</time>
      </trkpt>
      <trkpt lat="45.18288" lon="0.72392">
        <ele>89.9</ele>
        <time>2021-10-24T14:02:07Z</time>
      </trkpt>
      <trkpt lat="45.1829" lon="0.72393">
        <ele>90</ele>
        <time>2021-10-24T14:02:09Z</time>
      </trkpt>
      <trkpt lat="45.18291" lon="0.72393">
        <ele>90</ele>
        <time>2021-10-24T14:02:10Z</time>
      </trkpt>
      <trkpt lat="45.18292" lon="0.72393">
        <ele>90.1</ele>
        <time>2021-10-24T14:02:11Z</time>
      </trkpt>
      <trkpt lat="45.18294" lon="0.72393">
        <ele>90.2</ele>
        <time>2021-10-24T14:02:12Z</time>
      </trkpt>
      <trkpt lat="45.18295" lon="0.72394">
        <ele>90.3</ele>
        <time>2021-10-24T14:02:14Z</time>
      </trkpt>
      <trkpt lat="45.18296" lon="0.72394">
        <ele>90.3</ele>
        <time>2021-10-24T14:02:15Z</time>
      </trkpt>
      <trkpt lat="45.18297" lon="0.72394">
        <ele>90.4</ele>
        <time>2021-10-24T14:02:17Z</time>
      </trkpt>
      <trkpt lat="45.18298" lon="0.72394">
        <ele>90.4</ele>
        <time>2021-10-24T14:02:18Z</time>
      </trkpt>
      <trkpt lat="45.18299" lon="0.72394">
        <ele>90.5</ele>
        <time>2021-10-24T14:02:19Z</time>
      </trkpt>
      <trkpt lat="45.18301" lon="0.72395">
        <ele>90.6</ele>
        <time>2021-10-24T14:02:20Z</time>
      </trkpt>
      <trkpt lat="45.18302" lon="0.72395">
        <ele>90.6</ele>
        <time>2021-10-24T14:02:22Z</time>
      </trkpt>
      <trkpt lat="45.18303" lon="0.72395">
        <ele>90.7</ele>
        <time>2021-10-24T14:02:23Z</time>
      </trkpt>
      <trkpt lat="45.18304" lon="0.72396">
        <ele>90.7</ele>
        <time>2021-10-24T14:02:24Z</time>
      </trkpt>
      <trkpt lat="45.18305" lon="0.72396">
        <ele>90.8</ele>
        <time>2021-10-24T14:02:25Z</time>
      </trkpt>
      <trkpt lat="45.18306" lon="0.72397">
        <ele>90.8</ele>
        <time>2021-10-24T14:02:26Z</time>
      </trkpt>
      <trkpt lat="45.18307" lon="0.72397">
        <ele>90.9</ele>
        <time>2021-10-24T14:02:28Z</time>
      </trkpt>
      <trkpt lat="45.18308" lon="0.72398">
        <ele>90.9</ele>
        <time>2021-10-24T14:02:29Z</time>
      </trkpt>
      <trkpt lat="45.18309" lon="0.72398">
        <ele>91</ele>
        <time>2021-10-24T14:02:30Z</time>
      </trkpt>
      <trkpt lat="45.1831" lon="0.72399">
        <ele>91.1</ele>
        <time>2021-10-24T14:02:31Z</time>
      </trkpt>
      <trkpt lat="45.18311" lon="0.72399">
        <ele>91.1</ele>
        <time>2021-10-24T14:02:33Z</time>
      </trkpt>
      <trkpt lat="45.18312" lon="0.724">
        <ele>91.2</ele>
        <time>2021-10-24T14:02:34Z</time>
      </trkpt>
      <trkpt lat="45.18313" lon="0.724">
        <ele>91.2</ele>
        <time>2021-10-24T14:02:35Z</time>
      </trkpt>
      <trkpt lat="45.18314" lon="0.72402">
        <ele>91.3</ele>
        <time>2021-10-24T14:02:36Z</time>
      </trkpt>
      <trkpt lat="45.18315" lon="0.72403">
        <ele>91.4</ele>
        <time>2021-10-24T14:02:38Z</time>
      </trkpt>
      <trkpt lat="45.18316" lon="0.72404">
        <ele>91.4</ele>
        <time>2021-10-24T14:02:39Z</time>
      </trkpt>
      <trkpt lat="45.18317" lon="0.72404">
        <ele>91.7</ele>
        <time>2021-10-24T14:02:40Z</time>
      </trkpt>
      <trkpt lat="45.18318" lon="0.72404">
        <ele>91.7</ele>
        <time>2021-10-24T14:02:41Z</time>
      </trkpt>
      <trkpt lat="45.18319" lon="0.72405">
        <ele>91.7</ele>
        <time>2021-10-24T14:02:43Z</time>
      </trkpt>
      <trkpt lat="45.1832" lon="0.72405">
        <ele>91.7</ele>
        <time>2021-10-24T14:02:44Z</time>
      </trkpt>
      <trkpt lat="45.18321" lon="0.72406">
        <ele>91.7</ele>
        <time>2021-10-24T14:02:45Z</time>
      </trkpt>
      <trkpt lat="45.18322" lon="0.72406">
        <ele>91.8</ele>
        <time>2021-10-24T14:02:46Z</time>
      </trkpt>
      <trkpt lat="45.18323" lon="0.72405">
        <ele>91.8</ele>
        <time>2021-10-24T14:02:48Z</time>
      </trkpt>
      <trkpt lat="45.18322" lon="0.72405">
        <ele>91.8</ele>
        <time>2021-10-24T14:02:50Z</time>
      </trkpt>
      <trkpt lat="45.18322" lon="0.72404">
        <ele>91.8</ele>
        <time>2021-10-24T14:02:51Z</time>
      </trkpt>
      <trkpt lat="45.18323" lon="0.72403">
        <ele>91.8</ele>
        <time>2021-10-24T14:02:52Z</time>
      </trkpt>
      <trkpt lat="45.18323" lon="0.72403">
        <ele>91.8</ele>
        <time>2021-10-24T14:02:54Z</time>
      </trkpt>
      <trkpt lat="45.18324" lon="0.72402">
        <ele>91.8</ele>
        <time>2021-10-24T14:02:55Z</time>
      </trkpt>
      <trkpt lat="45.18325" lon="0.72401">
        <ele>91.8</ele>
        <time>2021-10-24T14:02:56Z</time>
      </trkpt>
      <trkpt lat="45.18326" lon="0.724">
        <ele>91.8</ele>
        <time>2021-10-24T14:02:57Z</time>
      </trkpt>
      <trkpt lat="45.18327" lon="0.724">
        <ele>91.8</ele>
        <time>2021-10-24T14:02:58Z</time>
      </trkpt>
      <trkpt lat="45.18328" lon="0.72399">
        <ele>91.8</ele>
        <time>2021-10-24T14:02:59Z</time>
      </trkpt>
      <trkpt lat="45.18328" lon="0.72397">
        <ele>91.8</ele>
        <time>2021-10-24T14:03:01Z</time>
      </trkpt>
      <trkpt lat="45.18329" lon="0.72397">
        <ele>91.8</ele>
        <time>2021-10-24T14:03:02Z</time>
      </trkpt>
      <trkpt lat="45.18329" lon="0.72396">
        <ele>91.8</ele>
        <time>2021-10-24T14:03:03Z</time>
      </trkpt>
      <trkpt lat="45.18329" lon="0.72395">
        <ele>91.8</ele>
        <time>2021-10-24T14:03:04Z</time>
      </trkpt>
      <trkpt lat="45.1833" lon="0.72394">
        <ele>91.8</ele>
        <time>2021-10-24T14:03:05Z</time>
      </trkpt>
      <trkpt lat="45.1833" lon="0.72394">
        <ele>91.8</ele>
        <time>2021-10-24T14:03:07Z</time>
      </trkpt>
      <trkpt lat="45.1833" lon="0.72394">
        <ele>91.8</ele>
        <time>2021-10-24T14:03:08Z</time>
      </trkpt>
      <trkpt lat="45.18331" lon="0.72394">
        <ele>91.7</ele>
        <time>2021-10-24T14:03:09Z</time>
      </trkpt>
      <trkpt lat="45.18331" lon="0.72394">
        <ele>91.7</ele>
        <time>2021-10-24T14:03:10Z</time>
      </trkpt>
      <trkpt lat="45.18331" lon="0.72394">
        <ele>91.7</ele>
        <time>2021-10-24T14:03:11Z</time>
      </trkpt>
      <trkpt lat="45.18331" lon="0.72393">
        <ele>91.7</ele>
        <time>2021-10-24T14:03:12Z</time>
      </trkpt>
      <trkpt lat="45.18332" lon="0.72392">
        <ele>91.7</ele>
        <time>2021-10-24T14:03:13Z</time>
      </trkpt>
      <trkpt lat="45.18332" lon="0.72391">
        <ele>91.7</ele>
        <time>2021-10-24T14:03:15Z</time>
      </trkpt>
      <trkpt lat="45.18332" lon="0.7239">
        <ele>91.7</ele>
        <time>2021-10-24T14:03:16Z</time>
      </trkpt>
      <trkpt lat="45.18334" lon="0.72389">
        <ele>91.7</ele>
        <time>2021-10-24T14:03:17Z</time>
      </trkpt>
      <trkpt lat="45.18335" lon="0.72388">
        <ele>91.6</ele>
        <time>2021-10-24T14:03:18Z</time>
      </trkpt>
      <trkpt lat="45.18335" lon="0.72387">
        <ele>91.6</ele>
        <time>2021-10-24T14:03:19Z</time>
      </trkpt>
      <trkpt lat="45.18337" lon="0.72385">
        <ele>91.6</ele>
        <time>2021-10-24T14:03:20Z</time>
      </trkpt>
      <trkpt lat="45.18338" lon="0.72384">
        <ele>91.5</ele>
        <time>2021-10-24T14:03:21Z</time>
      </trkpt>
      <trkpt lat="45.18338" lon="0.72383">
        <ele>91.5</ele>
        <time>2021-10-24T14:03:22Z</time>
      </trkpt>
      <trkpt lat="45.18339" lon="0.72383">
        <ele>91.5</ele>
        <time>2021-10-24T14:03:23Z</time>
      </trkpt>
      <trkpt lat="45.18339" lon="0.72383">
        <ele>91.5</ele>
        <time>2021-10-24T14:03:25Z</time>
      </trkpt>
      <trkpt lat="45.18338" lon="0.72382">
        <ele>91.5</ele>
        <time>2021-10-24T14:03:27Z</time>
      </trkpt>
      <trkpt lat="45.18338" lon="0.72382">
        <ele>91.5</ele>
        <time>2021-10-24T14:03:28Z</time>
      </trkpt>
      <trkpt lat="45.18338" lon="0.72382">
        <ele>91.5</ele>
        <time>2021-10-24T14:03:29Z</time>
      </trkpt>
      <trkpt lat="45.18338" lon="0.72382">
        <ele>91.5</ele>
        <time>2021-10-24T14:03:31Z</time>
      </trkpt>
      <trkpt lat="45.18338" lon="0.72382">
        <ele>91.5</ele>
        <time>2021-10-24T14:03:32Z</time>
      </trkpt>
      <trkpt lat="45.18339" lon="0.72382">
        <ele>91.5</ele>
        <time>2021-10-24T14:03:33Z</time>
      </trkpt>
      <trkpt lat="45.18339" lon="0.72382">
        <ele>91.4</ele>
        <time>2021-10-24T14:03:34Z</time>
      </trkpt>
      <trkpt lat="45.18339" lon="0.72382">
        <ele>91.4</ele>
        <time>2021-10-24T14:03:36Z</time>
      </trkpt>
      <trkpt lat="45.18339" lon="0.72382">
        <ele>91.4</ele>
        <time>2021-10-24T14:03:37Z</time>
      </trkpt>
      <trkpt lat="45.18339" lon="0.72382">
        <ele>91.4</ele>
        <time>2021-10-24T14:03:39Z</time>
      </trkpt>
      <trkpt lat="45.18339" lon="0.72382">
        <ele>91.5</ele>
        <time>2021-10-24T14:03:41Z</time>
      </trkpt>
      <trkpt lat="45.18339" lon="0.72382">
        <ele>91.6</ele>
        <time>2021-10-24T14:03:42Z</time>
      </trkpt>
      <trkpt lat="45.18339" lon="0.72382">
        <ele>91.6</ele>
        <time>2021-10-24T14:03:43Z</time>
      </trkpt>
      <trkpt lat="45.18339" lon="0.72382">
        <ele>91.6</ele>
        <time>2021-10-24T14:03:44Z</time>
      </trkpt>
      <trkpt lat="45.18339" lon="0.72382">
        <ele>91.7</ele>
        <time>2021-10-24T14:03:46Z</time>
      </trkpt>
      <trkpt lat="45.18339" lon="0.72382">
        <ele>91.9</ele>
        <time>2021-10-24T14:03:48Z</time>
      </trkpt>
      <trkpt lat="45.18339" lon="0.72382">
        <ele>92</ele>
        <time>2021-10-24T14:03:49Z</time>
      </trkpt>
      <trkpt lat="45.1834" lon="0.72381">
        <ele>93.3</ele>
        <time>2021-10-24T14:03:51Z</time>
      </trkpt>
      <trkpt lat="45.1834" lon="0.7238">
        <ele>94</ele>
        <time>2021-10-24T14:03:53Z</time>
      </trkpt>
      <trkpt lat="45.1834" lon="0.72379">
        <ele>94.7</ele>
        <time>2021-10-24T14:03:55Z</time>
      </trkpt>
      <trkpt lat="45.1834" lon="0.72378">
        <ele>95.5</ele>
        <time>2021-10-24T14:03:56Z</time>
      </trkpt>
      <trkpt lat="45.18341" lon="0.72377">
        <ele>97.8</ele>
        <time>2021-10-24T14:03:57Z</time>
      </trkpt>
      <trkpt lat="45.18342" lon="0.72376">
        <ele>99.2</ele>
        <time>2021-10-24T14:03:58Z</time>
      </trkpt>
      <trkpt lat="45.18343" lon="0.72375">
        <ele>100.4</ele>
        <time>2021-10-24T14:04:00Z</time>
      </trkpt>
      <trkpt lat="45.18344" lon="0.72375">
        <ele>101.8</ele>
        <time>2021-10-24T14:04:01Z</time>
      </trkpt>
      <trkpt lat="45.18345" lon="0.72374">
        <ele>103.1</ele>
        <time>2021-10-24T14:04:02Z</time>
      </trkpt>
      <trkpt lat="45.18345" lon="0.72373">
        <ele>104.5</ele>
        <time>2021-10-24T14:04:03Z</time>
      </trkpt>
      <trkpt lat="45.18347" lon="0.72372">
        <ele>106.5</ele>
        <time>2021-10-24T14:04:04Z</time>
      </trkpt>
      <trkpt lat="45.18347" lon="0.7237">
        <ele>108.1</ele>
        <time>2021-10-24T14:04:05Z</time>
      </trkpt>
      <trkpt lat="45.18349" lon="0.72368">
        <ele>109</ele>
        <time>2021-10-24T14:04:06Z</time>
      </trkpt>
      <trkpt lat="45.1835" lon="0.72367">
        <ele>109</ele>
        <time>2021-10-24T14:04:08Z</time>
      </trkpt>
      <trkpt lat="45.18351" lon="0.72366">
        <ele>109</ele>
        <time>2021-10-24T14:04:09Z</time>
      </trkpt>
      <trkpt lat="45.18352" lon="0.72365">
        <ele>108.9</ele>
        <time>2021-10-24T14:04:10Z</time>
      </trkpt>
      <trkpt lat="45.18353" lon="0.72364">
        <ele>108.9</ele>
        <time>2021-10-24T14:04:11Z</time>
      </trkpt>
      <trkpt lat="45.18354" lon="0.72363">
        <ele>108.9</ele>
        <time>2021-10-24T14:04:12Z</time>
      </trkpt>
      <trkpt lat="45.18355" lon="0.72362">
        <ele>108.9</ele>
        <time>2021-10-24T14:04:13Z</time>
      </trkpt>
      <trkpt lat="45.18357" lon="0.72361">
        <ele>108.8</ele>
        <time>2021-10-24T14:04:15Z</time>
      </trkpt>
      <trkpt lat="45.18358" lon="0.7236">
        <ele>108.8</ele>
        <time>2021-10-24T14:04:16Z</time>
      </trkpt>
      <trkpt lat="45.18359" lon="0.7236">
        <ele>108.8</ele>
        <time>2021-10-24T14:04:17Z</time>
      </trkpt>
      <trkpt lat="45.1836" lon="0.72358">
        <ele>108.8</ele>
        <time>2021-10-24T14:04:18Z</time>
      </trkpt>
      <trkpt lat="45.18361" lon="0.72357">
        <ele>108.8</ele>
        <time>2021-10-24T14:04:20Z</time>
      </trkpt>
      <trkpt lat="45.18362" lon="0.72355">
        <ele>108.8</ele>
        <time>2021-10-24T14:04:21Z</time>
      </trkpt>
      <trkpt lat="45.18363" lon="0.72354">
        <ele>108.8</ele>
        <time>2021-10-24T14:04:22Z</time>
      </trkpt>
      <trkpt lat="45.18365" lon="0.72352">
        <ele>108.8</ele>
        <time>2021-10-24T14:04:24Z</time>
      </trkpt>
      <trkpt lat="45.18366" lon="0.72352">
        <ele>108.8</ele>
        <time>2021-10-24T14:04:25Z</time>
      </trkpt>
      <trkpt lat="45.18367" lon="0.72351">
        <ele>108.7</ele>
        <time>2021-10-24T14:04:26Z</time>
      </trkpt>
      <trkpt lat="45.18368" lon="0.72351">
        <ele>108.7</ele>
        <time>2021-10-24T14:04:27Z</time>
      </trkpt>
      <trkpt lat="45.18369" lon="0.72351">
        <ele>108.7</ele>
        <time>2021-10-24T14:04:28Z</time>
      </trkpt>
      <trkpt lat="45.1837" lon="0.72351">
        <ele>108.7</ele>
        <time>2021-10-24T14:04:29Z</time>
      </trkpt>
      <trkpt lat="45.18371" lon="0.7235">
        <ele>108.7</ele>
        <time>2021-10-24T14:04:31Z</time>
      </trkpt>
      <trkpt lat="45.18372" lon="0.7235">
        <ele>108.7</ele>
        <time>2021-10-24T14:04:32Z</time>
      </trkpt>
      <trkpt lat="45.18373" lon="0.7235">
        <ele>108.7</ele>
        <time>2021-10-24T14:04:33Z</time>
      </trkpt>
      <trkpt lat="45.18374" lon="0.7235">
        <ele>108.7</ele>
        <time>2021-10-24T14:04:34Z</time>
      </trkpt>
      <trkpt lat="45.18374" lon="0.7235">
        <ele>108.7</ele>
        <time>2021-10-24T14:04:35Z</time>
      </trkpt>
      <trkpt lat="45.18376" lon="0.7235">
        <ele>108.8</ele>
        <time>2021-10-24T14:04:37Z</time>
      </trkpt>
      <trkpt lat="45.18377" lon="0.7235">
        <ele>108.8</ele>
        <time>2021-10-24T14:04:38Z</time>
      </trkpt>
      <trkpt lat="45.18378" lon="0.72351">
        <ele>108.8</ele>
        <time>2021-10-24T14:04:39Z</time>
      </trkpt>
      <trkpt lat="45.1838" lon="0.72351">
        <ele>108.8</ele>
        <time>2021-10-24T14:04:41Z</time>
      </trkpt>
      <trkpt lat="45.18381" lon="0.72351">
        <ele>108.9</ele>
        <time>2021-10-24T14:04:42Z</time>
      </trkpt>
      <trkpt lat="45.18382" lon="0.72351">
        <ele>108.9</ele>
        <time>2021-10-24T14:04:43Z</time>
      </trkpt>
      <trkpt lat="45.18383" lon="0.72351">
        <ele>108.9</ele>
        <time>2021-10-24T14:04:44Z</time>
      </trkpt>
      <trkpt lat="45.18384" lon="0.72351">
        <ele>109</ele>
        <time>2021-10-24T14:04:45Z</time>
      </trkpt>
      <trkpt lat="45.18385" lon="0.72351">
        <ele>109</ele>
        <time>2021-10-24T14:04:47Z</time>
      </trkpt>
      <trkpt lat="45.18386" lon="0.72351">
        <ele>109</ele>
        <time>2021-10-24T14:04:48Z</time>
      </trkpt>
      <trkpt lat="45.18387" lon="0.72351">
        <ele>109.1</ele>
        <time>2021-10-24T14:04:49Z</time>
      </trkpt>
      <trkpt lat="45.18388" lon="0.72351">
        <ele>109.1</ele>
        <time>2021-10-24T14:04:50Z</time>
      </trkpt>
      <trkpt lat="45.18389" lon="0.72352">
        <ele>109.2</ele>
        <time>2021-10-24T14:04:52Z</time>
      </trkpt>
      <trkpt lat="45.1839" lon="0.72352">
        <ele>109.2</ele>
        <time>2021-10-24T14:04:53Z</time>
      </trkpt>
      <trkpt lat="45.1839" lon="0.72351">
        <ele>109.2</ele>
        <time>2021-10-24T14:04:54Z</time>
      </trkpt>
      <trkpt lat="45.1839" lon="0.72352">
        <ele>109.2</ele>
        <time>2021-10-24T14:04:56Z</time>
      </trkpt>
      <trkpt lat="45.1839" lon="0.72351">
        <ele>109.2</ele>
        <time>2021-10-24T14:04:57Z</time>
      </trkpt>
      <trkpt lat="45.1839" lon="0.7235">
        <ele>109.3</ele>
        <time>2021-10-24T14:04:58Z</time>
      </trkpt>
      <trkpt lat="45.1839" lon="0.72349">
        <ele>109.2</ele>
        <time>2021-10-24T14:04:59Z</time>
      </trkpt>
      <trkpt lat="45.18391" lon="0.72348">
        <ele>109.1</ele>
        <time>2021-10-24T14:05:00Z</time>
      </trkpt>
      <trkpt lat="45.18391" lon="0.72347">
        <ele>109.1</ele>
        <time>2021-10-24T14:05:02Z</time>
      </trkpt>
      <trkpt lat="45.18391" lon="0.72345">
        <ele>109</ele>
        <time>2021-10-24T14:05:03Z</time>
      </trkpt>
      <trkpt lat="45.18391" lon="0.72345">
        <ele>109</ele>
        <time>2021-10-24T14:05:05Z</time>
      </trkpt>
      <trkpt lat="45.18391" lon="0.72344">
        <ele>109</ele>
        <time>2021-10-24T14:05:06Z</time>
      </trkpt>
      <trkpt lat="45.18391" lon="0.72342">
        <ele>108.9</ele>
        <time>2021-10-24T14:05:08Z</time>
      </trkpt>
      <trkpt lat="45.18391" lon="0.7234">
        <ele>108.8</ele>
        <time>2021-10-24T14:05:09Z</time>
      </trkpt>
      <trkpt lat="45.18391" lon="0.72339">
        <ele>108.8</ele>
        <time>2021-10-24T14:05:10Z</time>
      </trkpt>
      <trkpt lat="45.18391" lon="0.72339">
        <ele>108.7</ele>
        <time>2021-10-24T14:05:11Z</time>
      </trkpt>
      <trkpt lat="45.18391" lon="0.72338">
        <ele>108.7</ele>
        <time>2021-10-24T14:05:12Z</time>
      </trkpt>
      <trkpt lat="45.18392" lon="0.72337">
        <ele>108.6</ele>
        <time>2021-10-24T14:05:14Z</time>
      </trkpt>
      <trkpt lat="45.18392" lon="0.72335">
        <ele>108.6</ele>
        <time>2021-10-24T14:05:15Z</time>
      </trkpt>
      <trkpt lat="45.18393" lon="0.72334">
        <ele>108.5</ele>
        <time>2021-10-24T14:05:17Z</time>
      </trkpt>
      <trkpt lat="45.18394" lon="0.72334">
        <ele>108.4</ele>
        <time>2021-10-24T14:05:18Z</time>
      </trkpt>
      <trkpt lat="45.18394" lon="0.72334">
        <ele>108.4</ele>
        <time>2021-10-24T14:05:20Z</time>
      </trkpt>
      <trkpt lat="45.18394" lon="0.72333">
        <ele>108.4</ele>
        <time>2021-10-24T14:05:21Z</time>
      </trkpt>
      <trkpt lat="45.18395" lon="0.72331">
        <ele>108.3</ele>
        <time>2021-10-24T14:05:22Z</time>
      </trkpt>
      <trkpt lat="45.18395" lon="0.7233">
        <ele>108.3</ele>
        <time>2021-10-24T14:05:24Z</time>
      </trkpt>
      <trkpt lat="45.18394" lon="0.72329">
        <ele>108</ele>
        <time>2021-10-24T14:05:25Z</time>
      </trkpt>
      <trkpt lat="45.18395" lon="0.72329">
        <ele>107.7</ele>
        <time>2021-10-24T14:05:26Z</time>
      </trkpt>
      <trkpt lat="45.18395" lon="0.72328">
        <ele>107.4</ele>
        <time>2021-10-24T14:05:28Z</time>
      </trkpt>
      <trkpt lat="45.18395" lon="0.72327">
        <ele>107.1</ele>
        <time>2021-10-24T14:05:29Z</time>
      </trkpt>
      <trkpt lat="45.18396" lon="0.72325">
        <ele>106.9</ele>
        <time>2021-10-24T14:05:31Z</time>
      </trkpt>
      <trkpt lat="45.18397" lon="0.72324">
        <ele>106.6</ele>
        <time>2021-10-24T14:05:32Z</time>
      </trkpt>
      <trkpt lat="45.18397" lon="0.72322">
        <ele>106</ele>
        <time>2021-10-24T14:05:34Z</time>
      </trkpt>
      <trkpt lat="45.18398" lon="0.7232">
        <ele>105.7</ele>
        <time>2021-10-24T14:05:35Z</time>
      </trkpt>
      <trkpt lat="45.18398" lon="0.72319">
        <ele>105.4</ele>
        <time>2021-10-24T14:05:36Z</time>
      </trkpt>
      <trkpt lat="45.18398" lon="0.72318">
        <ele>105.2</ele>
        <time>2021-10-24T14:05:37Z</time>
      </trkpt>
      <trkpt lat="45.18398" lon="0.72317">
        <ele>104.9</ele>
        <time>2021-10-24T14:05:39Z</time>
      </trkpt>
      <trkpt lat="45.18398" lon="0.72317">
        <ele>104.6</ele>
        <time>2021-10-24T14:05:40Z</time>
      </trkpt>
      <trkpt lat="45.18399" lon="0.72315">
        <ele>104.4</ele>
        <time>2021-10-24T14:05:42Z</time>
      </trkpt>
      <trkpt lat="45.18399" lon="0.72314">
        <ele>104.1</ele>
        <time>2021-10-24T14:05:44Z</time>
      </trkpt>
      <trkpt lat="45.18399" lon="0.72313">
        <ele>103.8</ele>
        <time>2021-10-24T14:05:45Z</time>
      </trkpt>
      <trkpt lat="45.184" lon="0.72311">
        <ele>103.6</ele>
        <time>2021-10-24T14:05:46Z</time>
      </trkpt>
      <trkpt lat="45.18401" lon="0.72308">
        <ele>103</ele>
        <time>2021-10-24T14:05:47Z</time>
      </trkpt>
      <trkpt lat="45.18401" lon="0.72307">
        <ele>102.8</ele>
        <time>2021-10-24T14:05:49Z</time>
      </trkpt>
      <trkpt lat="45.18402" lon="0.72305">
        <ele>102.5</ele>
        <time>2021-10-24T14:05:50Z</time>
      </trkpt>
      <trkpt lat="45.18402" lon="0.72304">
        <ele>102.6</ele>
        <time>2021-10-24T14:05:52Z</time>
      </trkpt>
      <trkpt lat="45.18403" lon="0.72303">
        <ele>102.7</ele>
        <time>2021-10-24T14:05:53Z</time>
      </trkpt>
      <trkpt lat="45.18403" lon="0.72301">
        <ele>102.8</ele>
        <time>2021-10-24T14:05:54Z</time>
      </trkpt>
      <trkpt lat="45.18403" lon="0.723">
        <ele>102.9</ele>
        <time>2021-10-24T14:05:55Z</time>
      </trkpt>
      <trkpt lat="45.18404" lon="0.72298">
        <ele>103</ele>
        <time>2021-10-24T14:05:57Z</time>
      </trkpt>
      <trkpt lat="45.18404" lon="0.72297">
        <ele>103.1</ele>
        <time>2021-10-24T14:05:58Z</time>
      </trkpt>
      <trkpt lat="45.18404" lon="0.72295">
        <ele>103.2</ele>
        <time>2021-10-24T14:05:59Z</time>
      </trkpt>
      <trkpt lat="45.18404" lon="0.72293">
        <ele>103.4</ele>
        <time>2021-10-24T14:06:01Z</time>
      </trkpt>
      <trkpt lat="45.18404" lon="0.72291">
        <ele>103.5</ele>
        <time>2021-10-24T14:06:02Z</time>
      </trkpt>
      <trkpt lat="45.18404" lon="0.7229">
        <ele>103.6</ele>
        <time>2021-10-24T14:06:04Z</time>
      </trkpt>
      <trkpt lat="45.18404" lon="0.72289">
        <ele>103.6</ele>
        <time>2021-10-24T14:06:05Z</time>
      </trkpt>
      <trkpt lat="45.18404" lon="0.72288">
        <ele>103.7</ele>
        <time>2021-10-24T14:06:06Z</time>
      </trkpt>
      <trkpt lat="45.18404" lon="0.72287">
        <ele>103.8</ele>
        <time>2021-10-24T14:06:08Z</time>
      </trkpt>
      <trkpt lat="45.18404" lon="0.72285">
        <ele>103.9</ele>
        <time>2021-10-24T14:06:09Z</time>
      </trkpt>
      <trkpt lat="45.18404" lon="0.72284">
        <ele>103.9</ele>
        <time>2021-10-24T14:06:10Z</time>
      </trkpt>
      <trkpt lat="45.18405" lon="0.72283">
        <ele>103.9</ele>
        <time>2021-10-24T14:06:12Z</time>
      </trkpt>
      <trkpt lat="45.18405" lon="0.72282">
        <ele>103.9</ele>
        <time>2021-10-24T14:06:13Z</time>
      </trkpt>
      <trkpt lat="45.18406" lon="0.72281">
        <ele>104</ele>
        <time>2021-10-24T14:06:14Z</time>
      </trkpt>
      <trkpt lat="45.18406" lon="0.72281">
        <ele>104</ele>
        <time>2021-10-24T14:06:15Z</time>
      </trkpt>
      <trkpt lat="45.18407" lon="0.7228">
        <ele>104</ele>
        <time>2021-10-24T14:06:17Z</time>
      </trkpt>
      <trkpt lat="45.18408" lon="0.7228">
        <ele>104.1</ele>
        <time>2021-10-24T14:06:18Z</time>
      </trkpt>
      <trkpt lat="45.18409" lon="0.72279">
        <ele>104.1</ele>
        <time>2021-10-24T14:06:19Z</time>
      </trkpt>
      <trkpt lat="45.1841" lon="0.72279">
        <ele>104.1</ele>
        <time>2021-10-24T14:06:21Z</time>
      </trkpt>
      <trkpt lat="45.18411" lon="0.72278">
        <ele>104.1</ele>
        <time>2021-10-24T14:06:22Z</time>
      </trkpt>
      <trkpt lat="45.18412" lon="0.72278">
        <ele>104.2</ele>
        <time>2021-10-24T14:06:23Z</time>
      </trkpt>
      <trkpt lat="45.18413" lon="0.72277">
        <ele>104.2</ele>
        <time>2021-10-24T14:06:24Z</time>
      </trkpt>
      <trkpt lat="45.18414" lon="0.72276">
        <ele>104.2</ele>
        <time>2021-10-24T14:06:26Z</time>
      </trkpt>
      <trkpt lat="45.18415" lon="0.72276">
        <ele>104.2</ele>
        <time>2021-10-24T14:06:27Z</time>
      </trkpt>
      <trkpt lat="45.18416" lon="0.72276">
        <ele>104.3</ele>
        <time>2021-10-24T14:06:28Z</time>
      </trkpt>
      <trkpt lat="45.18417" lon="0.72276">
        <ele>104.3</ele>
        <time>2021-10-24T14:06:30Z</time>
      </trkpt>
      <trkpt lat="45.18418" lon="0.72276">
        <ele>104.3</ele>
        <time>2021-10-24T14:06:31Z</time>
      </trkpt>
      <trkpt lat="45.18419" lon="0.72276">
        <ele>104.3</ele>
        <time>2021-10-24T14:06:32Z</time>
      </trkpt>
      <trkpt lat="45.1842" lon="0.72276">
        <ele>104.4</ele>
        <time>2021-10-24T14:06:33Z</time>
      </trkpt>
      <trkpt lat="45.18421" lon="0.72276">
        <ele>104.4</ele>
        <time>2021-10-24T14:06:34Z</time>
      </trkpt>
      <trkpt lat="45.18422" lon="0.72276">
        <ele>104.4</ele>
        <time>2021-10-24T14:06:36Z</time>
      </trkpt>
      <trkpt lat="45.18423" lon="0.72277">
        <ele>104.5</ele>
        <time>2021-10-24T14:06:37Z</time>
      </trkpt>
      <trkpt lat="45.18424" lon="0.72278">
        <ele>104.5</ele>
        <time>2021-10-24T14:06:38Z</time>
      </trkpt>
      <trkpt lat="45.18425" lon="0.72279">
        <ele>104.5</ele>
        <time>2021-10-24T14:06:40Z</time>
      </trkpt>
      <trkpt lat="45.18426" lon="0.72281">
        <ele>104.5</ele>
        <time>2021-10-24T14:06:41Z</time>
      </trkpt>
      <trkpt lat="45.18427" lon="0.72282">
        <ele>104.6</ele>
        <time>2021-10-24T14:06:42Z</time>
      </trkpt>
      <trkpt lat="45.18428" lon="0.72283">
        <ele>104.6</ele>
        <time>2021-10-24T14:06:43Z</time>
      </trkpt>
      <trkpt lat="45.18429" lon="0.72284">
        <ele>104.6</ele>
        <time>2021-10-24T14:06:45Z</time>
      </trkpt>
      <trkpt lat="45.18429" lon="0.72285">
        <ele>104.6</ele>
        <time>2021-10-24T14:06:46Z</time>
      </trkpt>
      <trkpt lat="45.1843" lon="0.72285">
        <ele>104.6</ele>
        <time>2021-10-24T14:06:47Z</time>
      </trkpt>
      <trkpt lat="45.1843" lon="0.72285">
        <ele>104.6</ele>
        <time>2021-10-24T14:06:48Z</time>
      </trkpt>
      <trkpt lat="45.18431" lon="0.72286">
        <ele>104.7</ele>
        <time>2021-10-24T14:06:50Z</time>
      </trkpt>
      <trkpt lat="45.18432" lon="0.72286">
        <ele>104.7</ele>
        <time>2021-10-24T14:06:51Z</time>
      </trkpt>
      <trkpt lat="45.18433" lon="0.72286">
        <ele>104.7</ele>
        <time>2021-10-24T14:06:52Z</time>
      </trkpt>
      <trkpt lat="45.18433" lon="0.72287">
        <ele>104.7</ele>
        <time>2021-10-24T14:06:53Z</time>
      </trkpt>
      <trkpt lat="45.18433" lon="0.72287">
        <ele>104.7</ele>
        <time>2021-10-24T14:06:55Z</time>
      </trkpt>
      <trkpt lat="45.18434" lon="0.72287">
        <ele>104.7</ele>
        <time>2021-10-24T14:06:56Z</time>
      </trkpt>
      <trkpt lat="45.18435" lon="0.72287">
        <ele>104.8</ele>
        <time>2021-10-24T14:06:57Z</time>
      </trkpt>
      <trkpt lat="45.18436" lon="0.72286">
        <ele>104.8</ele>
        <time>2021-10-24T14:06:58Z</time>
      </trkpt>
      <trkpt lat="45.18438" lon="0.72286">
        <ele>104.8</ele>
        <time>2021-10-24T14:07:00Z</time>
      </trkpt>
      <trkpt lat="45.18439" lon="0.72286">
        <ele>104.8</ele>
        <time>2021-10-24T14:07:01Z</time>
      </trkpt>
      <trkpt lat="45.1844" lon="0.72286">
        <ele>104.9</ele>
        <time>2021-10-24T14:07:02Z</time>
      </trkpt>
      <trkpt lat="45.18441" lon="0.72286">
        <ele>104.9</ele>
        <time>2021-10-24T14:07:03Z</time>
      </trkpt>
      <trkpt lat="45.18443" lon="0.72287">
        <ele>104.9</ele>
        <time>2021-10-24T14:07:04Z</time>
      </trkpt>
      <trkpt lat="45.18444" lon="0.72288">
        <ele>104.9</ele>
        <time>2021-10-24T14:07:06Z</time>
      </trkpt>
      <trkpt lat="45.18446" lon="0.72288">
        <ele>105</ele>
        <time>2021-10-24T14:07:07Z</time>
      </trkpt>
      <trkpt lat="45.18446" lon="0.72288">
        <ele>105</ele>
        <time>2021-10-24T14:07:08Z</time>
      </trkpt>
      <trkpt lat="45.18447" lon="0.72289">
        <ele>105</ele>
        <time>2021-10-24T14:07:09Z</time>
      </trkpt>
      <trkpt lat="45.18449" lon="0.7229">
        <ele>105</ele>
        <time>2021-10-24T14:07:11Z</time>
      </trkpt>
      <trkpt lat="45.1845" lon="0.7229">
        <ele>105.1</ele>
        <time>2021-10-24T14:07:12Z</time>
      </trkpt>
      <trkpt lat="45.18451" lon="0.72291">
        <ele>105.1</ele>
        <time>2021-10-24T14:07:13Z</time>
      </trkpt>
      <trkpt lat="45.18452" lon="0.72291">
        <ele>105.1</ele>
        <time>2021-10-24T14:07:14Z</time>
      </trkpt>
      <trkpt lat="45.18453" lon="0.72292">
        <ele>105.1</ele>
        <time>2021-10-24T14:07:15Z</time>
      </trkpt>
      <trkpt lat="45.18454" lon="0.72292">
        <ele>105.2</ele>
        <time>2021-10-24T14:07:17Z</time>
      </trkpt>
      <trkpt lat="45.18455" lon="0.72293">
        <ele>105.2</ele>
        <time>2021-10-24T14:07:18Z</time>
      </trkpt>
      <trkpt lat="45.18456" lon="0.72292">
        <ele>105.2</ele>
        <time>2021-10-24T14:07:19Z</time>
      </trkpt>
      <trkpt lat="45.18457" lon="0.72291">
        <ele>105.2</ele>
        <time>2021-10-24T14:07:21Z</time>
      </trkpt>
      <trkpt lat="45.18457" lon="0.72291">
        <ele>105.3</ele>
        <time>2021-10-24T14:07:22Z</time>
      </trkpt>
      <trkpt lat="45.18458" lon="0.7229">
        <ele>105.3</ele>
        <time>2021-10-24T14:07:23Z</time>
      </trkpt>
      <trkpt lat="45.1846" lon="0.72288">
        <ele>105.3</ele>
        <time>2021-10-24T14:07:24Z</time>
      </trkpt>
      <trkpt lat="45.1846" lon="0.72287">
        <ele>105.4</ele>
        <time>2021-10-24T14:07:25Z</time>
      </trkpt>
      <trkpt lat="45.18461" lon="0.72287">
        <ele>105.4</ele>
        <time>2021-10-24T14:07:27Z</time>
      </trkpt>
      <trkpt lat="45.18462" lon="0.72286">
        <ele>105.4</ele>
        <time>2021-10-24T14:07:28Z</time>
      </trkpt>
      <trkpt lat="45.18463" lon="0.72285">
        <ele>105.4</ele>
        <time>2021-10-24T14:07:29Z</time>
      </trkpt>
      <trkpt lat="45.18464" lon="0.72285">
        <ele>105.4</ele>
        <time>2021-10-24T14:07:30Z</time>
      </trkpt>
      <trkpt lat="45.18466" lon="0.72284">
        <ele>105.5</ele>
        <time>2021-10-24T14:07:31Z</time>
      </trkpt>
      <trkpt lat="45.18467" lon="0.72284">
        <ele>105.5</ele>
        <time>2021-10-24T14:07:32Z</time>
      </trkpt>
      <trkpt lat="45.18468" lon="0.72284">
        <ele>105.6</ele>
        <time>2021-10-24T14:07:33Z</time>
      </trkpt>
      <trkpt lat="45.1847" lon="0.72284">
        <ele>105.6</ele>
        <time>2021-10-24T14:07:35Z</time>
      </trkpt>
      <trkpt lat="45.18471" lon="0.72284">
        <ele>105.6</ele>
        <time>2021-10-24T14:07:36Z</time>
      </trkpt>
      <trkpt lat="45.18473" lon="0.72285">
        <ele>105.7</ele>
        <time>2021-10-24T14:07:38Z</time>
      </trkpt>
      <trkpt lat="45.18474" lon="0.72285">
        <ele>105.7</ele>
        <time>2021-10-24T14:07:39Z</time>
      </trkpt>
      <trkpt lat="45.18477" lon="0.72285">
        <ele>105.8</ele>
        <time>2021-10-24T14:07:40Z</time>
      </trkpt>
      <trkpt lat="45.18477" lon="0.72285">
        <ele>105.8</ele>
        <time>2021-10-24T14:07:41Z</time>
      </trkpt>
      <trkpt lat="45.18478" lon="0.72285">
        <ele>105.8</ele>
        <time>2021-10-24T14:07:43Z</time>
      </trkpt>
      <trkpt lat="45.18479" lon="0.72285">
        <ele>105.9</ele>
        <time>2021-10-24T14:07:44Z</time>
      </trkpt>
      <trkpt lat="45.1848" lon="0.72285">
        <ele>105.9</ele>
        <time>2021-10-24T14:07:45Z</time>
      </trkpt>
      <trkpt lat="45.18481" lon="0.72285">
        <ele>105.9</ele>
        <time>2021-10-24T14:07:46Z</time>
      </trkpt>
      <trkpt lat="45.18481" lon="0.72286">
        <ele>105.9</ele>
        <time>2021-10-24T14:07:47Z</time>
      </trkpt>
      <trkpt lat="45.18482" lon="0.72286">
        <ele>106</ele>
        <time>2021-10-24T14:07:49Z</time>
      </trkpt>
      <trkpt lat="45.18483" lon="0.72286">
        <ele>106</ele>
        <time>2021-10-24T14:07:50Z</time>
      </trkpt>
      <trkpt lat="45.18484" lon="0.72286">
        <ele>106</ele>
        <time>2021-10-24T14:07:51Z</time>
      </trkpt>
      <trkpt lat="45.18485" lon="0.72286">
        <ele>106</ele>
        <time>2021-10-24T14:07:52Z</time>
      </trkpt>
      <trkpt lat="45.18486" lon="0.72286">
        <ele>106.1</ele>
        <time>2021-10-24T14:07:53Z</time>
      </trkpt>
      <trkpt lat="45.18487" lon="0.72287">
        <ele>106.1</ele>
        <time>2021-10-24T14:07:54Z</time>
      </trkpt>
      <trkpt lat="45.18489" lon="0.72287">
        <ele>106.2</ele>
        <time>2021-10-24T14:07:55Z</time>
      </trkpt>
      <trkpt lat="45.1849" lon="0.72288">
        <ele>106.2</ele>
        <time>2021-10-24T14:07:56Z</time>
      </trkpt>
      <trkpt lat="45.18491" lon="0.72287">
        <ele>106.2</ele>
        <time>2021-10-24T14:07:58Z</time>
      </trkpt>
      <trkpt lat="45.18492" lon="0.72286">
        <ele>106.3</ele>
        <time>2021-10-24T14:07:59Z</time>
      </trkpt>
      <trkpt lat="45.18493" lon="0.72285">
        <ele>106.3</ele>
        <time>2021-10-24T14:08:00Z</time>
      </trkpt>
      <trkpt lat="45.18493" lon="0.72285">
        <ele>106.3</ele>
        <time>2021-10-24T14:08:01Z</time>
      </trkpt>
      <trkpt lat="45.18493" lon="0.72285">
        <ele>106.3</ele>
        <time>2021-10-24T14:08:02Z</time>
      </trkpt>
      <trkpt lat="45.18494" lon="0.72284">
        <ele>106.4</ele>
        <time>2021-10-24T14:08:04Z</time>
      </trkpt>
      <trkpt lat="45.18494" lon="0.72285">
        <ele>106.4</ele>
        <time>2021-10-24T14:08:05Z</time>
      </trkpt>
      <trkpt lat="45.18495" lon="0.72285">
        <ele>106.4</ele>
        <time>2021-10-24T14:08:06Z</time>
      </trkpt>
      <trkpt lat="45.18494" lon="0.72286">
        <ele>106.4</ele>
        <time>2021-10-24T14:08:07Z</time>
      </trkpt>
      <trkpt lat="45.18494" lon="0.72286">
        <ele>106.4</ele>
        <time>2021-10-24T14:08:08Z</time>
      </trkpt>
      <trkpt lat="45.18495" lon="0.72287">
        <ele>106.4</ele>
        <time>2021-10-24T14:08:10Z</time>
      </trkpt>
      <trkpt lat="45.18495" lon="0.72287">
        <ele>106.4</ele>
        <time>2021-10-24T14:08:11Z</time>
      </trkpt>
      <trkpt lat="45.18496" lon="0.72288">
        <ele>106.5</ele>
        <time>2021-10-24T14:08:12Z</time>
      </trkpt>
      <trkpt lat="45.18497" lon="0.72288">
        <ele>106.5</ele>
        <time>2021-10-24T14:08:13Z</time>
      </trkpt>
      <trkpt lat="45.18498" lon="0.72289">
        <ele>106.5</ele>
        <time>2021-10-24T14:08:14Z</time>
      </trkpt>
      <trkpt lat="45.18498" lon="0.7229">
        <ele>106.6</ele>
        <time>2021-10-24T14:08:15Z</time>
      </trkpt>
      <trkpt lat="45.18499" lon="0.72291">
        <ele>108.4</ele>
        <time>2021-10-24T14:08:16Z</time>
      </trkpt>
      <trkpt lat="45.185" lon="0.72292">
        <ele>108.6</ele>
        <time>2021-10-24T14:08:17Z</time>
      </trkpt>
      <trkpt lat="45.185" lon="0.72294">
        <ele>108.9</ele>
        <time>2021-10-24T14:08:19Z</time>
      </trkpt>
      <trkpt lat="45.18501" lon="0.72296">
        <ele>109.1</ele>
        <time>2021-10-24T14:08:20Z</time>
      </trkpt>
      <trkpt lat="45.18501" lon="0.72297">
        <ele>109.4</ele>
        <time>2021-10-24T14:08:21Z</time>
      </trkpt>
      <trkpt lat="45.18501" lon="0.72299">
        <ele>109.6</ele>
        <time>2021-10-24T14:08:22Z</time>
      </trkpt>
      <trkpt lat="45.185" lon="0.72301">
        <ele>109.8</ele>
        <time>2021-10-24T14:08:24Z</time>
      </trkpt>
      <trkpt lat="45.185" lon="0.72301">
        <ele>110</ele>
        <time>2021-10-24T14:08:25Z</time>
      </trkpt>
      <trkpt lat="45.18498" lon="0.72302">
        <ele>110.3</ele>
        <time>2021-10-24T14:08:27Z</time>
      </trkpt>
      <trkpt lat="45.18498" lon="0.72302">
        <ele>110.4</ele>
        <time>2021-10-24T14:08:28Z</time>
      </trkpt>
      <trkpt lat="45.18498" lon="0.72302">
        <ele>110.4</ele>
        <time>2021-10-24T14:08:29Z</time>
      </trkpt>
      <trkpt lat="45.18498" lon="0.72302">
        <ele>110.5</ele>
        <time>2021-10-24T14:08:31Z</time>
      </trkpt>
      <trkpt lat="45.18498" lon="0.72302">
        <ele>110.5</ele>
        <time>2021-10-24T14:08:32Z</time>
      </trkpt>
      <trkpt lat="45.18498" lon="0.72302">
        <ele>110.6</ele>
        <time>2021-10-24T14:08:33Z</time>
      </trkpt>
      <trkpt lat="45.18498" lon="0.72303">
        <ele>110.7</ele>
        <time>2021-10-24T14:08:35Z</time>
      </trkpt>
      <trkpt lat="45.18498" lon="0.72304">
        <ele>110.8</ele>
        <time>2021-10-24T14:08:36Z</time>
      </trkpt>
      <trkpt lat="45.18499" lon="0.72305">
        <ele>110.7</ele>
        <time>2021-10-24T14:08:37Z</time>
      </trkpt>
      <trkpt lat="45.18499" lon="0.72307">
        <ele>110.7</ele>
        <time>2021-10-24T14:08:38Z</time>
      </trkpt>
      <trkpt lat="45.18499" lon="0.72309">
        <ele>110.6</ele>
        <time>2021-10-24T14:08:39Z</time>
      </trkpt>
      <trkpt lat="45.185" lon="0.72312">
        <ele>110.5</ele>
        <time>2021-10-24T14:08:40Z</time>
      </trkpt>
      <trkpt lat="45.185" lon="0.72314">
        <ele>110.4</ele>
        <time>2021-10-24T14:08:41Z</time>
      </trkpt>
      <trkpt lat="45.18499" lon="0.72316">
        <ele>110.4</ele>
        <time>2021-10-24T14:08:43Z</time>
      </trkpt>
      <trkpt lat="45.18499" lon="0.72318">
        <ele>110.3</ele>
        <time>2021-10-24T14:08:44Z</time>
      </trkpt>
      <trkpt lat="45.18499" lon="0.7232">
        <ele>110.3</ele>
        <time>2021-10-24T14:08:45Z</time>
      </trkpt>
      <trkpt lat="45.18498" lon="0.72322">
        <ele>110.2</ele>
        <time>2021-10-24T14:08:46Z</time>
      </trkpt>
      <trkpt lat="45.18497" lon="0.72323">
        <ele>110.2</ele>
        <time>2021-10-24T14:08:47Z</time>
      </trkpt>
      <trkpt lat="45.18496" lon="0.72325">
        <ele>110.2</ele>
        <time>2021-10-24T14:08:49Z</time>
      </trkpt>
      <trkpt lat="45.18496" lon="0.72326">
        <ele>110.2</ele>
        <time>2021-10-24T14:08:50Z</time>
      </trkpt>
      <trkpt lat="45.18497" lon="0.72327">
        <ele>110.1</ele>
        <time>2021-10-24T14:08:51Z</time>
      </trkpt>
      <trkpt lat="45.18498" lon="0.72329">
        <ele>110.1</ele>
        <time>2021-10-24T14:08:52Z</time>
      </trkpt>
      <trkpt lat="45.18498" lon="0.7233">
        <ele>110.1</ele>
        <time>2021-10-24T14:08:54Z</time>
      </trkpt>
      <trkpt lat="45.18499" lon="0.7233">
        <ele>110.1</ele>
        <time>2021-10-24T14:08:55Z</time>
      </trkpt>
      <trkpt lat="45.185" lon="0.72331">
        <ele>110</ele>
        <time>2021-10-24T14:08:56Z</time>
      </trkpt>
      <trkpt lat="45.18501" lon="0.72333">
        <ele>110</ele>
        <time>2021-10-24T14:08:57Z</time>
      </trkpt>
      <trkpt lat="45.18501" lon="0.72333">
        <ele>110</ele>
        <time>2021-10-24T14:08:58Z</time>
      </trkpt>
      <trkpt lat="45.18502" lon="0.72334">
        <ele>109.9</ele>
        <time>2021-10-24T14:08:59Z</time>
      </trkpt>
      <trkpt lat="45.18502" lon="0.72335">
        <ele>109.9</ele>
        <time>2021-10-24T14:09:00Z</time>
      </trkpt>
      <trkpt lat="45.18503" lon="0.72336">
        <ele>109.8</ele>
        <time>2021-10-24T14:09:01Z</time>
      </trkpt>
      <trkpt lat="45.18504" lon="0.72337">
        <ele>109.8</ele>
        <time>2021-10-24T14:09:02Z</time>
      </trkpt>
      <trkpt lat="45.18504" lon="0.72339">
        <ele>109.7</ele>
        <time>2021-10-24T14:09:04Z</time>
      </trkpt>
      <trkpt lat="45.18504" lon="0.72341">
        <ele>109.6</ele>
        <time>2021-10-24T14:09:05Z</time>
      </trkpt>
      <trkpt lat="45.18505" lon="0.72342">
        <ele>109.6</ele>
        <time>2021-10-24T14:09:06Z</time>
      </trkpt>
      <trkpt lat="45.18505" lon="0.72344">
        <ele>109.5</ele>
        <time>2021-10-24T14:09:07Z</time>
      </trkpt>
      <trkpt lat="45.18505" lon="0.72346">
        <ele>109.4</ele>
        <time>2021-10-24T14:09:08Z</time>
      </trkpt>
      <trkpt lat="45.18505" lon="0.72348">
        <ele>109.3</ele>
        <time>2021-10-24T14:09:09Z</time>
      </trkpt>
      <trkpt lat="45.18505" lon="0.72351">
        <ele>109.2</ele>
        <time>2021-10-24T14:09:11Z</time>
      </trkpt>
      <trkpt lat="45.18506" lon="0.72352">
        <ele>109.2</ele>
        <time>2021-10-24T14:09:12Z</time>
      </trkpt>
      <trkpt lat="45.18506" lon="0.72354">
        <ele>109.1</ele>
        <time>2021-10-24T14:09:13Z</time>
      </trkpt>
      <trkpt lat="45.18507" lon="0.72356">
        <ele>109</ele>
        <time>2021-10-24T14:09:15Z</time>
      </trkpt>
      <trkpt lat="45.18507" lon="0.72357">
        <ele>108.9</ele>
        <time>2021-10-24T14:09:16Z</time>
      </trkpt>
      <trkpt lat="45.18508" lon="0.72359">
        <ele>108.8</ele>
        <time>2021-10-24T14:09:17Z</time>
      </trkpt>
      <trkpt lat="45.18509" lon="0.72361">
        <ele>108.7</ele>
        <time>2021-10-24T14:09:18Z</time>
      </trkpt>
      <trkpt lat="45.18509" lon="0.72363">
        <ele>108.5</ele>
        <time>2021-10-24T14:09:19Z</time>
      </trkpt>
      <trkpt lat="45.18509" lon="0.72364">
        <ele>108.4</ele>
        <time>2021-10-24T14:09:20Z</time>
      </trkpt>
      <trkpt lat="45.18509" lon="0.72366">
        <ele>108.2</ele>
        <time>2021-10-24T14:09:21Z</time>
      </trkpt>
      <trkpt lat="45.1851" lon="0.72368">
        <ele>108</ele>
        <time>2021-10-24T14:09:23Z</time>
      </trkpt>
      <trkpt lat="45.1851" lon="0.7237">
        <ele>107.8</ele>
        <time>2021-10-24T14:09:24Z</time>
      </trkpt>
      <trkpt lat="45.1851" lon="0.72373">
        <ele>107.5</ele>
        <time>2021-10-24T14:09:25Z</time>
      </trkpt>
      <trkpt lat="45.1851" lon="0.72374">
        <ele>107.4</ele>
        <time>2021-10-24T14:09:26Z</time>
      </trkpt>
      <trkpt lat="45.1851" lon="0.72375">
        <ele>107.3</ele>
        <time>2021-10-24T14:09:27Z</time>
      </trkpt>
      <trkpt lat="45.1851" lon="0.72377">
        <ele>107.1</ele>
        <time>2021-10-24T14:09:28Z</time>
      </trkpt>
      <trkpt lat="45.18509" lon="0.7238">
        <ele>107.1</ele>
        <time>2021-10-24T14:09:29Z</time>
      </trkpt>
      <trkpt lat="45.18509" lon="0.72382">
        <ele>107.2</ele>
        <time>2021-10-24T14:09:30Z</time>
      </trkpt>
      <trkpt lat="45.18508" lon="0.72384">
        <ele>107.3</ele>
        <time>2021-10-24T14:09:31Z</time>
      </trkpt>
      <trkpt lat="45.18507" lon="0.72387">
        <ele>107.4</ele>
        <time>2021-10-24T14:09:33Z</time>
      </trkpt>
      <trkpt lat="45.18506" lon="0.72388">
        <ele>107.5</ele>
        <time>2021-10-24T14:09:34Z</time>
      </trkpt>
      <trkpt lat="45.18506" lon="0.7239">
        <ele>107.6</ele>
        <time>2021-10-24T14:09:35Z</time>
      </trkpt>
      <trkpt lat="45.18505" lon="0.72392">
        <ele>107.7</ele>
        <time>2021-10-24T14:09:36Z</time>
      </trkpt>
      <trkpt lat="45.18506" lon="0.72395">
        <ele>107.8</ele>
        <time>2021-10-24T14:09:37Z</time>
      </trkpt>
      <trkpt lat="45.18506" lon="0.72396">
        <ele>107.8</ele>
        <time>2021-10-24T14:09:38Z</time>
      </trkpt>
      <trkpt lat="45.18506" lon="0.72397">
        <ele>107.9</ele>
        <time>2021-10-24T14:09:39Z</time>
      </trkpt>
      <trkpt lat="45.18507" lon="0.72399">
        <ele>107.9</ele>
        <time>2021-10-24T14:09:40Z</time>
      </trkpt>
      <trkpt lat="45.18508" lon="0.724">
        <ele>107.9</ele>
        <time>2021-10-24T14:09:42Z</time>
      </trkpt>
      <trkpt lat="45.18509" lon="0.724">
        <ele>107.9</ele>
        <time>2021-10-24T14:09:43Z</time>
      </trkpt>
      <trkpt lat="45.18512" lon="0.724">
        <ele>108</ele>
        <time>2021-10-24T14:09:44Z</time>
      </trkpt>
      <trkpt lat="45.18513" lon="0.724">
        <ele>108</ele>
        <time>2021-10-24T14:09:45Z</time>
      </trkpt>
      <trkpt lat="45.18515" lon="0.72399">
        <ele>108.1</ele>
        <time>2021-10-24T14:09:46Z</time>
      </trkpt>
      <trkpt lat="45.18516" lon="0.72397">
        <ele>108.1</ele>
        <time>2021-10-24T14:09:48Z</time>
      </trkpt>
      <trkpt lat="45.18518" lon="0.72396">
        <ele>108.1</ele>
        <time>2021-10-24T14:09:49Z</time>
      </trkpt>
      <trkpt lat="45.18519" lon="0.72395">
        <ele>108.2</ele>
        <time>2021-10-24T14:09:50Z</time>
      </trkpt>
      <trkpt lat="45.1852" lon="0.72393">
        <ele>108.2</ele>
        <time>2021-10-24T14:09:51Z</time>
      </trkpt>
      <trkpt lat="45.18519" lon="0.72392">
        <ele>108.2</ele>
        <time>2021-10-24T14:09:52Z</time>
      </trkpt>
      <trkpt lat="45.1852" lon="0.72391">
        <ele>108.2</ele>
        <time>2021-10-24T14:09:54Z</time>
      </trkpt>
      <trkpt lat="45.18521" lon="0.72391">
        <ele>108.2</ele>
        <time>2021-10-24T14:09:55Z</time>
      </trkpt>
      <trkpt lat="45.18522" lon="0.72391">
        <ele>108.3</ele>
        <time>2021-10-24T14:09:56Z</time>
      </trkpt>
      <trkpt lat="45.18522" lon="0.72392">
        <ele>108.3</ele>
        <time>2021-10-24T14:09:57Z</time>
      </trkpt>
      <trkpt lat="45.18523" lon="0.72392">
        <ele>108.3</ele>
        <time>2021-10-24T14:09:59Z</time>
      </trkpt>
      <trkpt lat="45.18524" lon="0.72392">
        <ele>108.3</ele>
        <time>2021-10-24T14:10:00Z</time>
      </trkpt>
      <trkpt lat="45.18525" lon="0.72392">
        <ele>108.3</ele>
        <time>2021-10-24T14:10:01Z</time>
      </trkpt>
      <trkpt lat="45.18525" lon="0.72393">
        <ele>108.3</ele>
        <time>2021-10-24T14:10:02Z</time>
      </trkpt>
      <trkpt lat="45.18526" lon="0.72393">
        <ele>108.3</ele>
        <time>2021-10-24T14:10:03Z</time>
      </trkpt>
      <trkpt lat="45.18527" lon="0.72392">
        <ele>108.3</ele>
        <time>2021-10-24T14:10:04Z</time>
      </trkpt>
      <trkpt lat="45.18528" lon="0.72393">
        <ele>108.4</ele>
        <time>2021-10-24T14:10:06Z</time>
      </trkpt>
      <trkpt lat="45.18529" lon="0.72394">
        <ele>108.4</ele>
        <time>2021-10-24T14:10:07Z</time>
      </trkpt>
      <trkpt lat="45.18531" lon="0.72395">
        <ele>108.4</ele>
        <time>2021-10-24T14:10:08Z</time>
      </trkpt>
      <trkpt lat="45.18532" lon="0.72396">
        <ele>108.5</ele>
        <time>2021-10-24T14:10:09Z</time>
      </trkpt>
      <trkpt lat="45.18534" lon="0.72398">
        <ele>108.5</ele>
        <time>2021-10-24T14:10:11Z</time>
      </trkpt>
      <trkpt lat="45.18535" lon="0.72399">
        <ele>108.5</ele>
        <time>2021-10-24T14:10:12Z</time>
      </trkpt>
      <trkpt lat="45.18535" lon="0.724">
        <ele>108.5</ele>
        <time>2021-10-24T14:10:13Z</time>
      </trkpt>
      <trkpt lat="45.18536" lon="0.72401">
        <ele>108.5</ele>
        <time>2021-10-24T14:10:14Z</time>
      </trkpt>
      <trkpt lat="45.18537" lon="0.72402">
        <ele>108.6</ele>
        <time>2021-10-24T14:10:15Z</time>
      </trkpt>
      <trkpt lat="45.18539" lon="0.72403">
        <ele>108.6</ele>
        <time>2021-10-24T14:10:16Z</time>
      </trkpt>
      <trkpt lat="45.1854" lon="0.72404">
        <ele>108.6</ele>
        <time>2021-10-24T14:10:17Z</time>
      </trkpt>
      <trkpt lat="45.18541" lon="0.72405">
        <ele>108.6</ele>
        <time>2021-10-24T14:10:18Z</time>
      </trkpt>
      <trkpt lat="45.18542" lon="0.72406">
        <ele>108.6</ele>
        <time>2021-10-24T14:10:20Z</time>
      </trkpt>
      <trkpt lat="45.18543" lon="0.72407">
        <ele>108.6</ele>
        <time>2021-10-24T14:10:21Z</time>
      </trkpt>
      <trkpt lat="45.18544" lon="0.72408">
        <ele>108.7</ele>
        <time>2021-10-24T14:10:22Z</time>
      </trkpt>
      <trkpt lat="45.18546" lon="0.72409">
        <ele>108.7</ele>
        <time>2021-10-24T14:10:23Z</time>
      </trkpt>
      <trkpt lat="45.18547" lon="0.7241">
        <ele>108.7</ele>
        <time>2021-10-24T14:10:24Z</time>
      </trkpt>
      <trkpt lat="45.18549" lon="0.72411">
        <ele>108.7</ele>
        <time>2021-10-24T14:10:25Z</time>
      </trkpt>
      <trkpt lat="45.1855" lon="0.72411">
        <ele>108.7</ele>
        <time>2021-10-24T14:10:26Z</time>
      </trkpt>
      <trkpt lat="45.18552" lon="0.72411">
        <ele>108.8</ele>
        <time>2021-10-24T14:10:28Z</time>
      </trkpt>
      <trkpt lat="45.18553" lon="0.72412">
        <ele>108.8</ele>
        <time>2021-10-24T14:10:29Z</time>
      </trkpt>
      <trkpt lat="45.18555" lon="0.72412">
        <ele>108.8</ele>
        <time>2021-10-24T14:10:30Z</time>
      </trkpt>
      <trkpt lat="45.18556" lon="0.72413">
        <ele>108.8</ele>
        <time>2021-10-24T14:10:31Z</time>
      </trkpt>
      <trkpt lat="45.18557" lon="0.72413">
        <ele>108.8</ele>
        <time>2021-10-24T14:10:32Z</time>
      </trkpt>
      <trkpt lat="45.18559" lon="0.72414">
        <ele>108.8</ele>
        <time>2021-10-24T14:10:33Z</time>
      </trkpt>
      <trkpt lat="45.1856" lon="0.72415">
        <ele>108.8</ele>
        <time>2021-10-24T14:10:34Z</time>
      </trkpt>
      <trkpt lat="45.18561" lon="0.72416">
        <ele>108.8</ele>
        <time>2021-10-24T14:10:36Z</time>
      </trkpt>
      <trkpt lat="45.18563" lon="0.72417">
        <ele>108.8</ele>
        <time>2021-10-24T14:10:37Z</time>
      </trkpt>
      <trkpt lat="45.18564" lon="0.72418">
        <ele>108.8</ele>
        <time>2021-10-24T14:10:38Z</time>
      </trkpt>
      <trkpt lat="45.18565" lon="0.72419">
        <ele>108.8</ele>
        <time>2021-10-24T14:10:39Z</time>
      </trkpt>
      <trkpt lat="45.18565" lon="0.7242">
        <ele>108.8</ele>
        <time>2021-10-24T14:10:40Z</time>
      </trkpt>
      <trkpt lat="45.18567" lon="0.72422">
        <ele>108.8</ele>
        <time>2021-10-24T14:10:42Z</time>
      </trkpt>
      <trkpt lat="45.18567" lon="0.72422">
        <ele>108.8</ele>
        <time>2021-10-24T14:10:43Z</time>
      </trkpt>
      <trkpt lat="45.18568" lon="0.72422">
        <ele>108.8</ele>
        <time>2021-10-24T14:10:44Z</time>
      </trkpt>
      <trkpt lat="45.18569" lon="0.72423">
        <ele>108.8</ele>
        <time>2021-10-24T14:10:45Z</time>
      </trkpt>
      <trkpt lat="45.1857" lon="0.72423">
        <ele>108.8</ele>
        <time>2021-10-24T14:10:46Z</time>
      </trkpt>
      <trkpt lat="45.18571" lon="0.72424">
        <ele>108.8</ele>
        <time>2021-10-24T14:10:47Z</time>
      </trkpt>
      <trkpt lat="45.18571" lon="0.72424">
        <ele>108.8</ele>
        <time>2021-10-24T14:10:49Z</time>
      </trkpt>
      <trkpt lat="45.18572" lon="0.72424">
        <ele>108.8</ele>
        <time>2021-10-24T14:10:50Z</time>
      </trkpt>
      <trkpt lat="45.18573" lon="0.72425">
        <ele>108.8</ele>
        <time>2021-10-24T14:10:51Z</time>
      </trkpt>
      <trkpt lat="45.18575" lon="0.72425">
        <ele>108.8</ele>
        <time>2021-10-24T14:10:52Z</time>
      </trkpt>
      <trkpt lat="45.18576" lon="0.72425">
        <ele>108.8</ele>
        <time>2021-10-24T14:10:53Z</time>
      </trkpt>
      <trkpt lat="45.18578" lon="0.72425">
        <ele>108.7</ele>
        <time>2021-10-24T14:10:54Z</time>
      </trkpt>
      <trkpt lat="45.18579" lon="0.72425">
        <ele>108.7</ele>
        <time>2021-10-24T14:10:55Z</time>
      </trkpt>
      <trkpt lat="45.18581" lon="0.72425">
        <ele>108.6</ele>
        <time>2021-10-24T14:10:57Z</time>
      </trkpt>
      <trkpt lat="45.18582" lon="0.72425">
        <ele>108.5</ele>
        <time>2021-10-24T14:10:58Z</time>
      </trkpt>
      <trkpt lat="45.18583" lon="0.72425">
        <ele>108.5</ele>
        <time>2021-10-24T14:10:59Z</time>
      </trkpt>
      <trkpt lat="45.18584" lon="0.72425">
        <ele>108.4</ele>
        <time>2021-10-24T14:11:00Z</time>
      </trkpt>
      <trkpt lat="45.18585" lon="0.72426">
        <ele>108.4</ele>
        <time>2021-10-24T14:11:01Z</time>
      </trkpt>
      <trkpt lat="45.18585" lon="0.72427">
        <ele>108.4</ele>
        <time>2021-10-24T14:11:02Z</time>
      </trkpt>
      <trkpt lat="45.18586" lon="0.72428">
        <ele>108.3</ele>
        <time>2021-10-24T14:11:03Z</time>
      </trkpt>
      <trkpt lat="45.18587" lon="0.72429">
        <ele>108.3</ele>
        <time>2021-10-24T14:11:05Z</time>
      </trkpt>
      <trkpt lat="45.18588" lon="0.72431">
        <ele>108.1</ele>
        <time>2021-10-24T14:11:06Z</time>
      </trkpt>
      <trkpt lat="45.18589" lon="0.72432">
        <ele>108.1</ele>
        <time>2021-10-24T14:11:07Z</time>
      </trkpt>
      <trkpt lat="45.1859" lon="0.72433">
        <ele>108.1</ele>
        <time>2021-10-24T14:11:08Z</time>
      </trkpt>
      <trkpt lat="45.18591" lon="0.72433">
        <ele>108</ele>
        <time>2021-10-24T14:11:09Z</time>
      </trkpt>
      <trkpt lat="45.18593" lon="0.72433">
        <ele>107.9</ele>
        <time>2021-10-24T14:11:11Z</time>
      </trkpt>
      <trkpt lat="45.18595" lon="0.72433">
        <ele>107.8</ele>
        <time>2021-10-24T14:11:12Z</time>
      </trkpt>
      <trkpt lat="45.18596" lon="0.72433">
        <ele>107.8</ele>
        <time>2021-10-24T14:11:13Z</time>
      </trkpt>
      <trkpt lat="45.18597" lon="0.72433">
        <ele>107.7</ele>
        <time>2021-10-24T14:11:14Z</time>
      </trkpt>
      <trkpt lat="45.18599" lon="0.72433">
        <ele>107.5</ele>
        <time>2021-10-24T14:11:16Z</time>
      </trkpt>
      <trkpt lat="45.186" lon="0.72433">
        <ele>107.6</ele>
        <time>2021-10-24T14:11:17Z</time>
      </trkpt>
      <trkpt lat="45.18602" lon="0.72433">
        <ele>107.6</ele>
        <time>2021-10-24T14:11:18Z</time>
      </trkpt>
      <trkpt lat="45.18604" lon="0.72434">
        <ele>107.6</ele>
        <time>2021-10-24T14:11:19Z</time>
      </trkpt>
      <trkpt lat="45.18605" lon="0.72435">
        <ele>107.6</ele>
        <time>2021-10-24T14:11:21Z</time>
      </trkpt>
      <trkpt lat="45.18606" lon="0.72436">
        <ele>107.6</ele>
        <time>2021-10-24T14:11:22Z</time>
      </trkpt>
      <trkpt lat="45.18606" lon="0.72436">
        <ele>107.6</ele>
        <time>2021-10-24T14:11:23Z</time>
      </trkpt>
      <trkpt lat="45.18606" lon="0.72437">
        <ele>107.6</ele>
        <time>2021-10-24T14:11:25Z</time>
      </trkpt>
      <trkpt lat="45.18606" lon="0.72437">
        <ele>107.6</ele>
        <time>2021-10-24T14:11:26Z</time>
      </trkpt>
      <trkpt lat="45.18607" lon="0.72438">
        <ele>107.6</ele>
        <time>2021-10-24T14:11:28Z</time>
      </trkpt>
      <trkpt lat="45.18607" lon="0.72439">
        <ele>107.6</ele>
        <time>2021-10-24T14:11:29Z</time>
      </trkpt>
      <trkpt lat="45.18607" lon="0.7244">
        <ele>107.6</ele>
        <time>2021-10-24T14:11:30Z</time>
      </trkpt>
      <trkpt lat="45.18607" lon="0.72441">
        <ele>107.6</ele>
        <time>2021-10-24T14:11:31Z</time>
      </trkpt>
      <trkpt lat="45.18607" lon="0.72442">
        <ele>107.5</ele>
        <time>2021-10-24T14:11:32Z</time>
      </trkpt>
      <trkpt lat="45.18608" lon="0.72443">
        <ele>107.5</ele>
        <time>2021-10-24T14:11:34Z</time>
      </trkpt>
      <trkpt lat="45.18609" lon="0.72444">
        <ele>107.5</ele>
        <time>2021-10-24T14:11:35Z</time>
      </trkpt>
      <trkpt lat="45.1861" lon="0.72445">
        <ele>107.6</ele>
        <time>2021-10-24T14:11:36Z</time>
      </trkpt>
      <trkpt lat="45.18611" lon="0.72445">
        <ele>107.6</ele>
        <time>2021-10-24T14:11:37Z</time>
      </trkpt>
      <trkpt lat="45.18612" lon="0.72445">
        <ele>107.7</ele>
        <time>2021-10-24T14:11:38Z</time>
      </trkpt>
      <trkpt lat="45.18613" lon="0.72446">
        <ele>107.7</ele>
        <time>2021-10-24T14:11:39Z</time>
      </trkpt>
      <trkpt lat="45.18614" lon="0.72446">
        <ele>107.7</ele>
        <time>2021-10-24T14:11:40Z</time>
      </trkpt>
      <trkpt lat="45.18615" lon="0.72447">
        <ele>107.7</ele>
        <time>2021-10-24T14:11:42Z</time>
      </trkpt>
      <trkpt lat="45.18615" lon="0.72447">
        <ele>107.7</ele>
        <time>2021-10-24T14:11:43Z</time>
      </trkpt>
      <trkpt lat="45.18615" lon="0.72448">
        <ele>107.8</ele>
        <time>2021-10-24T14:11:44Z</time>
      </trkpt>
      <trkpt lat="45.18615" lon="0.72448">
        <ele>107.8</ele>
        <time>2021-10-24T14:11:45Z</time>
      </trkpt>
      <trkpt lat="45.18615" lon="0.72448">
        <ele>107.8</ele>
        <time>2021-10-24T14:11:46Z</time>
      </trkpt>
      <trkpt lat="45.18616" lon="0.72449">
        <ele>107.8</ele>
        <time>2021-10-24T14:11:48Z</time>
      </trkpt>
      <trkpt lat="45.18616" lon="0.7245">
        <ele>107.7</ele>
        <time>2021-10-24T14:11:49Z</time>
      </trkpt>
      <trkpt lat="45.18616" lon="0.72452">
        <ele>107.7</ele>
        <time>2021-10-24T14:11:50Z</time>
      </trkpt>
      <trkpt lat="45.18617" lon="0.72453">
        <ele>107.7</ele>
        <time>2021-10-24T14:11:51Z</time>
      </trkpt>
      <trkpt lat="45.18617" lon="0.72453">
        <ele>107.7</ele>
        <time>2021-10-24T14:11:52Z</time>
      </trkpt>
      <trkpt lat="45.18617" lon="0.72456">
        <ele>107.7</ele>
        <time>2021-10-24T14:11:53Z</time>
      </trkpt>
      <trkpt lat="45.18618" lon="0.72457">
        <ele>107.7</ele>
        <time>2021-10-24T14:11:55Z</time>
      </trkpt>
      <trkpt lat="45.18618" lon="0.72459">
        <ele>107.8</ele>
        <time>2021-10-24T14:11:56Z</time>
      </trkpt>
      <trkpt lat="45.18619" lon="0.7246">
        <ele>107.8</ele>
        <time>2021-10-24T14:11:57Z</time>
      </trkpt>
      <trkpt lat="45.18619" lon="0.72462">
        <ele>107.8</ele>
        <time>2021-10-24T14:11:58Z</time>
      </trkpt>
      <trkpt lat="45.1862" lon="0.72465">
        <ele>107.8</ele>
        <time>2021-10-24T14:12:00Z</time>
      </trkpt>
      <trkpt lat="45.1862" lon="0.72466">
        <ele>107.8</ele>
        <time>2021-10-24T14:12:01Z</time>
      </trkpt>
      <trkpt lat="45.18621" lon="0.72467">
        <ele>107.8</ele>
        <time>2021-10-24T14:12:02Z</time>
      </trkpt>
      <trkpt lat="45.18621" lon="0.72469">
        <ele>107.8</ele>
        <time>2021-10-24T14:12:04Z</time>
      </trkpt>
      <trkpt lat="45.18621" lon="0.7247">
        <ele>107.8</ele>
        <time>2021-10-24T14:12:05Z</time>
      </trkpt>
      <trkpt lat="45.1862" lon="0.72472">
        <ele>107.8</ele>
        <time>2021-10-24T14:12:06Z</time>
      </trkpt>
      <trkpt lat="45.1862" lon="0.72472">
        <ele>107.8</ele>
        <time>2021-10-24T14:12:07Z</time>
      </trkpt>
      <trkpt lat="45.1862" lon="0.72475">
        <ele>107.8</ele>
        <time>2021-10-24T14:12:08Z</time>
      </trkpt>
      <trkpt lat="45.18619" lon="0.72477">
        <ele>107.8</ele>
        <time>2021-10-24T14:12:09Z</time>
      </trkpt>
      <trkpt lat="45.18619" lon="0.72479">
        <ele>107.8</ele>
        <time>2021-10-24T14:12:11Z</time>
      </trkpt>
      <trkpt lat="45.18618" lon="0.7248">
        <ele>107.8</ele>
        <time>2021-10-24T14:12:12Z</time>
      </trkpt>
      <trkpt lat="45.18618" lon="0.72484">
        <ele>107.8</ele>
        <time>2021-10-24T14:12:13Z</time>
      </trkpt>
      <trkpt lat="45.18618" lon="0.72485">
        <ele>107.6</ele>
        <time>2021-10-24T14:12:14Z</time>
      </trkpt>
      <trkpt lat="45.18618" lon="0.72486">
        <ele>107.6</ele>
        <time>2021-10-24T14:12:15Z</time>
      </trkpt>
      <trkpt lat="45.18618" lon="0.72488">
        <ele>107.6</ele>
        <time>2021-10-24T14:12:16Z</time>
      </trkpt>
      <trkpt lat="45.18618" lon="0.72489">
        <ele>107.6</ele>
        <time>2021-10-24T14:12:17Z</time>
      </trkpt>
      <trkpt lat="45.18618" lon="0.7249">
        <ele>107.6</ele>
        <time>2021-10-24T14:12:18Z</time>
      </trkpt>
      <trkpt lat="45.18618" lon="0.72491">
        <ele>107.6</ele>
        <time>2021-10-24T14:12:20Z</time>
      </trkpt>
      <trkpt lat="45.18618" lon="0.72492">
        <ele>107.6</ele>
        <time>2021-10-24T14:12:21Z</time>
      </trkpt>
      <trkpt lat="45.18618" lon="0.72494">
        <ele>107.6</ele>
        <time>2021-10-24T14:12:22Z</time>
      </trkpt>
      <trkpt lat="45.18618" lon="0.72495">
        <ele>107.6</ele>
        <time>2021-10-24T14:12:23Z</time>
      </trkpt>
      <trkpt lat="45.18617" lon="0.72497">
        <ele>107.6</ele>
        <time>2021-10-24T14:12:24Z</time>
      </trkpt>
      <trkpt lat="45.18617" lon="0.72499">
        <ele>107.6</ele>
        <time>2021-10-24T14:12:25Z</time>
      </trkpt>
      <trkpt lat="45.18616" lon="0.72502">
        <ele>107.6</ele>
        <time>2021-10-24T14:12:26Z</time>
      </trkpt>
      <trkpt lat="45.18616" lon="0.72503">
        <ele>107.6</ele>
        <time>2021-10-24T14:12:28Z</time>
      </trkpt>
      <trkpt lat="45.18616" lon="0.72505">
        <ele>107.6</ele>
        <time>2021-10-24T14:12:29Z</time>
      </trkpt>
      <trkpt lat="45.18615" lon="0.72507">
        <ele>107.7</ele>
        <time>2021-10-24T14:12:30Z</time>
      </trkpt>
      <trkpt lat="45.18615" lon="0.72508">
        <ele>107.4</ele>
        <time>2021-10-24T14:12:31Z</time>
      </trkpt>
      <trkpt lat="45.18615" lon="0.7251">
        <ele>107.4</ele>
        <time>2021-10-24T14:12:32Z</time>
      </trkpt>
      <trkpt lat="45.18614" lon="0.72512">
        <ele>107.4</ele>
        <time>2021-10-24T14:12:34Z</time>
      </trkpt>
      <trkpt lat="45.18614" lon="0.72514">
        <ele>107.4</ele>
        <time>2021-10-24T14:12:35Z</time>
      </trkpt>
      <trkpt lat="45.18614" lon="0.72515">
        <ele>107.4</ele>
        <time>2021-10-24T14:12:36Z</time>
      </trkpt>
      <trkpt lat="45.18613" lon="0.72516">
        <ele>107.4</ele>
        <time>2021-10-24T14:12:37Z</time>
      </trkpt>
      <trkpt lat="45.18613" lon="0.72518">
        <ele>107.4</ele>
        <time>2021-10-24T14:12:38Z</time>
      </trkpt>
      <trkpt lat="45.18612" lon="0.7252">
        <ele>107.4</ele>
        <time>2021-10-24T14:12:40Z</time>
      </trkpt>
      <trkpt lat="45.18612" lon="0.72521">
        <ele>107.4</ele>
        <time>2021-10-24T14:12:41Z</time>
      </trkpt>
      <trkpt lat="45.18612" lon="0.72522">
        <ele>107.4</ele>
        <time>2021-10-24T14:12:42Z</time>
      </trkpt>
      <trkpt lat="45.18612" lon="0.72524">
        <ele>107.1</ele>
        <time>2021-10-24T14:12:43Z</time>
      </trkpt>
      <trkpt lat="45.18612" lon="0.72525">
        <ele>107.1</ele>
        <time>2021-10-24T14:12:44Z</time>
      </trkpt>
      <trkpt lat="45.18611" lon="0.72526">
        <ele>107.1</ele>
        <time>2021-10-24T14:12:45Z</time>
      </trkpt>
      <trkpt lat="45.18611" lon="0.72528">
        <ele>107.2</ele>
        <time>2021-10-24T14:12:46Z</time>
      </trkpt>
      <trkpt lat="45.1861" lon="0.72529">
        <ele>107.2</ele>
        <time>2021-10-24T14:12:48Z</time>
      </trkpt>
      <trkpt lat="45.1861" lon="0.72531">
        <ele>107.2</ele>
        <time>2021-10-24T14:12:49Z</time>
      </trkpt>
      <trkpt lat="45.18609" lon="0.72532">
        <ele>107.2</ele>
        <time>2021-10-24T14:12:50Z</time>
      </trkpt>
      <trkpt lat="45.18609" lon="0.72534">
        <ele>106.9</ele>
        <time>2021-10-24T14:12:51Z</time>
      </trkpt>
      <trkpt lat="45.18609" lon="0.72535">
        <ele>106.9</ele>
        <time>2021-10-24T14:12:52Z</time>
      </trkpt>
      <trkpt lat="45.18608" lon="0.72537">
        <ele>106.9</ele>
        <time>2021-10-24T14:12:53Z</time>
      </trkpt>
      <trkpt lat="45.18608" lon="0.72539">
        <ele>106.9</ele>
        <time>2021-10-24T14:12:55Z</time>
      </trkpt>
      <trkpt lat="45.18607" lon="0.72541">
        <ele>107</ele>
        <time>2021-10-24T14:12:56Z</time>
      </trkpt>
      <trkpt lat="45.18607" lon="0.72542">
        <ele>107</ele>
        <time>2021-10-24T14:12:57Z</time>
      </trkpt>
      <trkpt lat="45.18607" lon="0.72543">
        <ele>107</ele>
        <time>2021-10-24T14:12:58Z</time>
      </trkpt>
      <trkpt lat="45.18606" lon="0.72545">
        <ele>107</ele>
        <time>2021-10-24T14:13:00Z</time>
      </trkpt>
      <trkpt lat="45.18606" lon="0.72546">
        <ele>107</ele>
        <time>2021-10-24T14:13:01Z</time>
      </trkpt>
      <trkpt lat="45.18606" lon="0.72547">
        <ele>107</ele>
        <time>2021-10-24T14:13:02Z</time>
      </trkpt>
      <trkpt lat="45.18606" lon="0.72547">
        <ele>107</ele>
        <time>2021-10-24T14:13:04Z</time>
      </trkpt>
      <trkpt lat="45.18606" lon="0.72547">
        <ele>107</ele>
        <time>2021-10-24T14:13:06Z</time>
      </trkpt>
      <trkpt lat="45.18606" lon="0.72546">
        <ele>107</ele>
        <time>2021-10-24T14:13:07Z</time>
      </trkpt>
      <trkpt lat="45.18606" lon="0.72547">
        <ele>107</ele>
        <time>2021-10-24T14:13:08Z</time>
      </trkpt>
      <trkpt lat="45.18606" lon="0.72548">
        <ele>106.7</ele>
        <time>2021-10-24T14:13:10Z</time>
      </trkpt>
      <trkpt lat="45.18606" lon="0.72549">
        <ele>106.7</ele>
        <time>2021-10-24T14:13:11Z</time>
      </trkpt>
      <trkpt lat="45.18605" lon="0.72551">
        <ele>106.7</ele>
        <time>2021-10-24T14:13:12Z</time>
      </trkpt>
      <trkpt lat="45.18604" lon="0.72553">
        <ele>106.7</ele>
        <time>2021-10-24T14:13:13Z</time>
      </trkpt>
      <trkpt lat="45.18603" lon="0.72554">
        <ele>106.7</ele>
        <time>2021-10-24T14:13:14Z</time>
      </trkpt>
      <trkpt lat="45.18603" lon="0.72555">
        <ele>106.4</ele>
        <time>2021-10-24T14:13:15Z</time>
      </trkpt>
      <trkpt lat="45.18602" lon="0.72556">
        <ele>106.4</ele>
        <time>2021-10-24T14:13:16Z</time>
      </trkpt>
      <trkpt lat="45.18602" lon="0.72557">
        <ele>106.4</ele>
        <time>2021-10-24T14:13:18Z</time>
      </trkpt>
      <trkpt lat="45.18601" lon="0.72558">
        <ele>106.4</ele>
        <time>2021-10-24T14:13:19Z</time>
      </trkpt>
      <trkpt lat="45.18601" lon="0.72561">
        <ele>106.4</ele>
        <time>2021-10-24T14:13:20Z</time>
      </trkpt>
      <trkpt lat="45.18601" lon="0.72562">
        <ele>106.3</ele>
        <time>2021-10-24T14:13:22Z</time>
      </trkpt>
      <trkpt lat="45.18601" lon="0.72564">
        <ele>106.3</ele>
        <time>2021-10-24T14:13:23Z</time>
      </trkpt>
      <trkpt lat="45.186" lon="0.72566">
        <ele>106.3</ele>
        <time>2021-10-24T14:13:24Z</time>
      </trkpt>
      <trkpt lat="45.186" lon="0.72568">
        <ele>106.3</ele>
        <time>2021-10-24T14:13:25Z</time>
      </trkpt>
      <trkpt lat="45.18599" lon="0.72571">
        <ele>105.9</ele>
        <time>2021-10-24T14:13:26Z</time>
      </trkpt>
      <trkpt lat="45.18599" lon="0.72572">
        <ele>105.9</ele>
        <time>2021-10-24T14:13:28Z</time>
      </trkpt>
      <trkpt lat="45.18598" lon="0.72574">
        <ele>105.9</ele>
        <time>2021-10-24T14:13:29Z</time>
      </trkpt>
      <trkpt lat="45.18598" lon="0.72575">
        <ele>105.8</ele>
        <time>2021-10-24T14:13:30Z</time>
      </trkpt>
      <trkpt lat="45.18597" lon="0.72577">
        <ele>105.8</ele>
        <time>2021-10-24T14:13:31Z</time>
      </trkpt>
      <trkpt lat="45.18597" lon="0.72579">
        <ele>105.3</ele>
        <time>2021-10-24T14:13:33Z</time>
      </trkpt>
      <trkpt lat="45.18596" lon="0.7258">
        <ele>105.3</ele>
        <time>2021-10-24T14:13:34Z</time>
      </trkpt>
      <trkpt lat="45.18596" lon="0.72581">
        <ele>105.3</ele>
        <time>2021-10-24T14:13:35Z</time>
      </trkpt>
      <trkpt lat="45.18595" lon="0.72583">
        <ele>105.3</ele>
        <time>2021-10-24T14:13:36Z</time>
      </trkpt>
      <trkpt lat="45.18595" lon="0.72584">
        <ele>105.2</ele>
        <time>2021-10-24T14:13:37Z</time>
      </trkpt>
      <trkpt lat="45.18593" lon="0.72586">
        <ele>104.7</ele>
        <time>2021-10-24T14:13:39Z</time>
      </trkpt>
      <trkpt lat="45.18593" lon="0.72587">
        <ele>104.7</ele>
        <time>2021-10-24T14:13:40Z</time>
      </trkpt>
      <trkpt lat="45.18592" lon="0.72588">
        <ele>104.7</ele>
        <time>2021-10-24T14:13:41Z</time>
      </trkpt>
      <trkpt lat="45.18591" lon="0.72588">
        <ele>104.7</ele>
        <time>2021-10-24T14:13:43Z</time>
      </trkpt>
      <trkpt lat="45.18591" lon="0.72588">
        <ele>104.7</ele>
        <time>2021-10-24T14:13:44Z</time>
      </trkpt>
      <trkpt lat="45.18591" lon="0.72589">
        <ele>104.7</ele>
        <time>2021-10-24T14:13:45Z</time>
      </trkpt>
      <trkpt lat="45.18591" lon="0.72589">
        <ele>104.7</ele>
        <time>2021-10-24T14:13:47Z</time>
      </trkpt>
      <trkpt lat="45.18591" lon="0.72589">
        <ele>104.7</ele>
        <time>2021-10-24T14:13:48Z</time>
      </trkpt>
      <trkpt lat="45.18591" lon="0.72589">
        <ele>104.7</ele>
        <time>2021-10-24T14:13:50Z</time>
      </trkpt>
      <trkpt lat="45.18591" lon="0.7259">
        <ele>104.7</ele>
        <time>2021-10-24T14:13:51Z</time>
      </trkpt>
      <trkpt lat="45.18591" lon="0.7259">
        <ele>104.2</ele>
        <time>2021-10-24T14:13:53Z</time>
      </trkpt>
      <trkpt lat="45.18591" lon="0.7259">
        <ele>104.2</ele>
        <time>2021-10-24T14:13:54Z</time>
      </trkpt>
      <trkpt lat="45.18591" lon="0.7259">
        <ele>104.2</ele>
        <time>2021-10-24T14:13:56Z</time>
      </trkpt>
      <trkpt lat="45.18591" lon="0.7259">
        <ele>104.2</ele>
        <time>2021-10-24T14:13:58Z</time>
      </trkpt>
      <trkpt lat="45.18591" lon="0.7259">
        <ele>104.7</ele>
        <time>2021-10-24T14:13:59Z</time>
      </trkpt>
      <trkpt lat="45.18591" lon="0.7259">
        <ele>104.7</ele>
        <time>2021-10-24T14:14:00Z</time>
      </trkpt>
      <trkpt lat="45.18591" lon="0.7259">
        <ele>104.7</ele>
        <time>2021-10-24T14:14:02Z</time>
      </trkpt>
      <trkpt lat="45.18591" lon="0.7259">
        <ele>104.7</ele>
        <time>2021-10-24T14:14:04Z</time>
      </trkpt>
      <trkpt lat="45.18591" lon="0.7259">
        <ele>104.7</ele>
        <time>2021-10-24T14:14:05Z</time>
      </trkpt>
      <trkpt lat="45.1859" lon="0.7259">
        <ele>104.2</ele>
        <time>2021-10-24T14:14:06Z</time>
      </trkpt>
      <trkpt lat="45.1859" lon="0.7259">
        <ele>104.2</ele>
        <time>2021-10-24T14:14:08Z</time>
      </trkpt>
      <trkpt lat="45.1859" lon="0.7259">
        <ele>104.2</ele>
        <time>2021-10-24T14:14:09Z</time>
      </trkpt>
      <trkpt lat="45.18591" lon="0.7259">
        <ele>104.2</ele>
        <time>2021-10-24T14:14:10Z</time>
      </trkpt>
      <trkpt lat="45.18591" lon="0.7259">
        <ele>104.2</ele>
        <time>2021-10-24T14:14:12Z</time>
      </trkpt>
      <trkpt lat="45.18591" lon="0.7259">
        <ele>104.7</ele>
        <time>2021-10-24T14:14:13Z</time>
      </trkpt>
      <trkpt lat="45.18591" lon="0.7259">
        <ele>104.7</ele>
        <time>2021-10-24T14:14:14Z</time>
      </trkpt>
      <trkpt lat="45.18592" lon="0.7259">
        <ele>104.7</ele>
        <time>2021-10-24T14:14:16Z</time>
      </trkpt>
      <trkpt lat="45.18592" lon="0.72589">
        <ele>104.7</ele>
        <time>2021-10-24T14:14:17Z</time>
      </trkpt>
      <trkpt lat="45.18593" lon="0.72588">
        <ele>104.7</ele>
        <time>2021-10-24T14:14:19Z</time>
      </trkpt>
      <trkpt lat="45.18593" lon="0.72588">
        <ele>104.7</ele>
        <time>2021-10-24T14:14:20Z</time>
      </trkpt>
      <trkpt lat="45.18593" lon="0.72587">
        <ele>104.7</ele>
        <time>2021-10-24T14:14:21Z</time>
      </trkpt>
      <trkpt lat="45.18594" lon="0.72587">
        <ele>104.7</ele>
        <time>2021-10-24T14:14:23Z</time>
      </trkpt>
      <trkpt lat="45.18595" lon="0.72585">
        <ele>105.2</ele>
        <time>2021-10-24T14:14:25Z</time>
      </trkpt>
      <trkpt lat="45.18596" lon="0.72584">
        <ele>105.2</ele>
        <time>2021-10-24T14:14:26Z</time>
      </trkpt>
      <trkpt lat="45.18597" lon="0.72583">
        <ele>105.2</ele>
        <time>2021-10-24T14:14:27Z</time>
      </trkpt>
      <trkpt lat="45.18598" lon="0.7258">
        <ele>105.7</ele>
        <time>2021-10-24T14:14:29Z</time>
      </trkpt>
      <trkpt lat="45.18599" lon="0.72579">
        <ele>105.7</ele>
        <time>2021-10-24T14:14:30Z</time>
      </trkpt>
      <trkpt lat="45.186" lon="0.72578">
        <ele>105.8</ele>
        <time>2021-10-24T14:14:31Z</time>
      </trkpt>
      <trkpt lat="45.186" lon="0.72577">
        <ele>106.2</ele>
        <time>2021-10-24T14:14:33Z</time>
      </trkpt>
      <trkpt lat="45.18602" lon="0.72574">
        <ele>106.2</ele>
        <time>2021-10-24T14:14:34Z</time>
      </trkpt>
      <trkpt lat="45.18602" lon="0.72574">
        <ele>106.2</ele>
        <time>2021-10-24T14:14:35Z</time>
      </trkpt>
      <trkpt lat="45.18603" lon="0.72573">
        <ele>106.2</ele>
        <time>2021-10-24T14:14:36Z</time>
      </trkpt>
      <trkpt lat="45.18603" lon="0.72572">
        <ele>106.5</ele>
        <time>2021-10-24T14:14:37Z</time>
      </trkpt>
      <trkpt lat="45.18604" lon="0.72571">
        <ele>106.5</ele>
        <time>2021-10-24T14:14:38Z</time>
      </trkpt>
      <trkpt lat="45.18605" lon="0.72569">
        <ele>106.6</ele>
        <time>2021-10-24T14:14:39Z</time>
      </trkpt>
      <trkpt lat="45.18606" lon="0.72567">
        <ele>106.6</ele>
        <time>2021-10-24T14:14:41Z</time>
      </trkpt>
      <trkpt lat="45.18606" lon="0.72566">
        <ele>106.9</ele>
        <time>2021-10-24T14:14:42Z</time>
      </trkpt>
      <trkpt lat="45.18607" lon="0.72565">
        <ele>106.9</ele>
        <time>2021-10-24T14:14:43Z</time>
      </trkpt>
      <trkpt lat="45.18607" lon="0.72563">
        <ele>106.9</ele>
        <time>2021-10-24T14:14:44Z</time>
      </trkpt>
      <trkpt lat="45.18607" lon="0.72562">
        <ele>106.9</ele>
        <time>2021-10-24T14:14:45Z</time>
      </trkpt>
      <trkpt lat="45.18608" lon="0.7256">
        <ele>106.9</ele>
        <time>2021-10-24T14:14:46Z</time>
      </trkpt>
      <trkpt lat="45.18608" lon="0.72559">
        <ele>106.9</ele>
        <time>2021-10-24T14:14:47Z</time>
      </trkpt>
      <trkpt lat="45.18608" lon="0.72558">
        <ele>106.9</ele>
        <time>2021-10-24T14:14:49Z</time>
      </trkpt>
      <trkpt lat="45.18609" lon="0.72557">
        <ele>107</ele>
        <time>2021-10-24T14:14:50Z</time>
      </trkpt>
      <trkpt lat="45.18609" lon="0.72555">
        <ele>107.3</ele>
        <time>2021-10-24T14:14:51Z</time>
      </trkpt>
      <trkpt lat="45.1861" lon="0.72554">
        <ele>107.3</ele>
        <time>2021-10-24T14:14:52Z</time>
      </trkpt>
      <trkpt lat="45.18611" lon="0.72553">
        <ele>107.3</ele>
        <time>2021-10-24T14:14:53Z</time>
      </trkpt>
      <trkpt lat="45.18612" lon="0.72551">
        <ele>107.3</ele>
        <time>2021-10-24T14:14:54Z</time>
      </trkpt>
      <trkpt lat="45.18613" lon="0.7255">
        <ele>107.6</ele>
        <time>2021-10-24T14:14:56Z</time>
      </trkpt>
      <trkpt lat="45.18614" lon="0.72549">
        <ele>107.6</ele>
        <time>2021-10-24T14:14:57Z</time>
      </trkpt>
      <trkpt lat="45.18615" lon="0.72548">
        <ele>107.6</ele>
        <time>2021-10-24T14:14:58Z</time>
      </trkpt>
      <trkpt lat="45.18616" lon="0.72547">
        <ele>107.9</ele>
        <time>2021-10-24T14:14:59Z</time>
      </trkpt>
      <trkpt lat="45.18616" lon="0.72547">
        <ele>107.9</ele>
        <time>2021-10-24T14:15:00Z</time>
      </trkpt>
      <trkpt lat="45.18618" lon="0.72546">
        <ele>107.9</ele>
        <time>2021-10-24T14:15:01Z</time>
      </trkpt>
      <trkpt lat="45.18619" lon="0.72545">
        <ele>108.2</ele>
        <time>2021-10-24T14:15:03Z</time>
      </trkpt>
      <trkpt lat="45.18619" lon="0.72545">
        <ele>108.2</ele>
        <time>2021-10-24T14:15:04Z</time>
      </trkpt>
      <trkpt lat="45.1862" lon="0.72545">
        <ele>108.2</ele>
        <time>2021-10-24T14:15:05Z</time>
      </trkpt>
      <trkpt lat="45.1862" lon="0.72544">
        <ele>108.2</ele>
        <time>2021-10-24T14:15:07Z</time>
      </trkpt>
      <trkpt lat="45.1862" lon="0.72544">
        <ele>108.1</ele>
        <time>2021-10-24T14:15:08Z</time>
      </trkpt>
      <trkpt lat="45.1862" lon="0.72543">
        <ele>108.1</ele>
        <time>2021-10-24T14:15:09Z</time>
      </trkpt>
      <trkpt lat="45.18621" lon="0.72542">
        <ele>108.1</ele>
        <time>2021-10-24T14:15:10Z</time>
      </trkpt>
      <trkpt lat="45.18621" lon="0.72541">
        <ele>108.1</ele>
        <time>2021-10-24T14:15:11Z</time>
      </trkpt>
      <trkpt lat="45.18622" lon="0.72539">
        <ele>108.3</ele>
        <time>2021-10-24T14:15:12Z</time>
      </trkpt>
      <trkpt lat="45.18622" lon="0.72537">
        <ele>108.3</ele>
        <time>2021-10-24T14:15:14Z</time>
      </trkpt>
      <trkpt lat="45.18622" lon="0.72535">
        <ele>108.3</ele>
        <time>2021-10-24T14:15:15Z</time>
      </trkpt>
      <trkpt lat="45.18622" lon="0.72534">
        <ele>108.3</ele>
        <time>2021-10-24T14:15:16Z</time>
      </trkpt>
      <trkpt lat="45.18622" lon="0.72533">
        <ele>108.3</ele>
        <time>2021-10-24T14:15:17Z</time>
      </trkpt>
      <trkpt lat="45.18622" lon="0.7253">
        <ele>108.3</ele>
        <time>2021-10-24T14:15:19Z</time>
      </trkpt>
      <trkpt lat="45.18622" lon="0.72528">
        <ele>108.3</ele>
        <time>2021-10-24T14:15:20Z</time>
      </trkpt>
      <trkpt lat="45.18623" lon="0.72526">
        <ele>108.3</ele>
        <time>2021-10-24T14:15:21Z</time>
      </trkpt>
      <trkpt lat="45.18623" lon="0.72524">
        <ele>108.3</ele>
        <time>2021-10-24T14:15:23Z</time>
      </trkpt>
      <trkpt lat="45.18624" lon="0.72521">
        <ele>108.2</ele>
        <time>2021-10-24T14:15:24Z</time>
      </trkpt>
      <trkpt lat="45.18624" lon="0.7252">
        <ele>108.2</ele>
        <time>2021-10-24T14:15:25Z</time>
      </trkpt>
      <trkpt lat="45.18625" lon="0.72517">
        <ele>108.4</ele>
        <time>2021-10-24T14:15:26Z</time>
      </trkpt>
      <trkpt lat="45.18625" lon="0.72516">
        <ele>108.4</ele>
        <time>2021-10-24T14:15:28Z</time>
      </trkpt>
      <trkpt lat="45.18626" lon="0.72515">
        <ele>108.4</ele>
        <time>2021-10-24T14:15:29Z</time>
      </trkpt>
      <trkpt lat="45.18626" lon="0.72513">
        <ele>108.4</ele>
        <time>2021-10-24T14:15:30Z</time>
      </trkpt>
      <trkpt lat="45.18626" lon="0.72512">
        <ele>108.4</ele>
        <time>2021-10-24T14:15:31Z</time>
      </trkpt>
      <trkpt lat="45.18627" lon="0.72511">
        <ele>108.4</ele>
        <time>2021-10-24T14:15:33Z</time>
      </trkpt>
      <trkpt lat="45.18628" lon="0.72509">
        <ele>108.5</ele>
        <time>2021-10-24T14:15:34Z</time>
      </trkpt>
      <trkpt lat="45.18628" lon="0.72508">
        <ele>108.5</ele>
        <time>2021-10-24T14:15:35Z</time>
      </trkpt>
      <trkpt lat="45.18629" lon="0.72506">
        <ele>108.5</ele>
        <time>2021-10-24T14:15:36Z</time>
      </trkpt>
      <trkpt lat="45.18629" lon="0.72505">
        <ele>108.5</ele>
        <time>2021-10-24T14:15:37Z</time>
      </trkpt>
      <trkpt lat="45.1863" lon="0.72505">
        <ele>108.5</ele>
        <time>2021-10-24T14:15:39Z</time>
      </trkpt>
      <trkpt lat="45.1863" lon="0.72505">
        <ele>108.5</ele>
        <time>2021-10-24T14:15:40Z</time>
      </trkpt>
      <trkpt lat="45.1863" lon="0.72506">
        <ele>108.7</ele>
        <time>2021-10-24T14:15:41Z</time>
      </trkpt>
      <trkpt lat="45.18631" lon="0.72506">
        <ele>108.7</ele>
        <time>2021-10-24T14:15:43Z</time>
      </trkpt>
    </trkseg>
  </trk>
</gpx>